<?xml version='1.0' encoding='UTF-8'?><gpx version="1.1" creator="JPX - https://github.com/jenetics/jpx" xmlns="http://www.topografix.com/GPX/1/1"><trk><trkseg><trkpt lat="43.5494867" lon="7.0075319"><ele>11.285714285714286</ele><time>2026-04-12T04:58:53.887Z</time></trkpt><trkpt lat="43.5495354" lon="7.0074687"><ele>11.571428571428571</ele><time>2026-04-12T04:59:57.899Z</time></trkpt><trkpt lat="43.5495773" lon="7.0074011"><ele>11.857142857142858</ele><time>2026-04-12T05:00:01.911Z</time></trkpt><trkpt lat="43.5496162" lon="7.0073209"><ele>12.142857142857142</ele><time>2026-04-12T05:00:04.894Z</time></trkpt><trkpt lat="43.5496788" lon="7.0072494"><ele>12.428571428571429</ele><time>2026-04-12T05:00:08.922Z</time></trkpt><trkpt lat="43.5497171" lon="7.0071683"><ele>12.714285714285714</ele><time>2026-04-12T05:00:10.929Z</time></trkpt><trkpt lat="43.5497601" lon="7.0070917"><ele>13.0</ele><time>2026-04-12T05:00:12.911Z</time></trkpt><trkpt lat="43.5497945" lon="7.0070155"><ele>12.999999999999998</ele><time>2026-04-12T05:00:14.905Z</time></trkpt><trkpt lat="43.5498028" lon="7.0069076"><ele>13.0</ele><time>2026-04-12T05:00:16.899Z</time></trkpt><trkpt lat="43.5497762" lon="7.0067598"><ele>13.0</ele><time>2026-04-12T05:00:17.91Z</time></trkpt><trkpt lat="43.5497294" lon="7.0066688"><ele>13.0</ele><time>2026-04-12T05:00:19.899Z</time></trkpt><trkpt lat="43.5496703" lon="7.0066085"><ele>12.999999999999998</ele><time>2026-04-12T05:00:21.891Z</time></trkpt><trkpt lat="43.5496056" lon="7.0065456"><ele>13.0</ele><time>2026-04-12T05:00:23.897Z</time></trkpt><trkpt lat="43.5495544" lon="7.0064858"><ele>12.999999999999998</ele><time>2026-04-12T05:00:25.895Z</time></trkpt><trkpt lat="43.5494835" lon="7.0064251"><ele>13.0</ele><time>2026-04-12T05:00:27.895Z</time></trkpt><trkpt lat="43.5494073" lon="7.0063578"><ele>13.0</ele><time>2026-04-12T05:00:29.907Z</time></trkpt><trkpt lat="43.5493326" lon="7.0062822"><ele>13.0</ele><time>2026-04-12T05:00:31.906Z</time></trkpt><trkpt lat="43.5492516" lon="7.0062242"><ele>12.999999999999998</ele><time>2026-04-12T05:00:33.91Z</time></trkpt><trkpt lat="43.5491672" lon="7.0061824"><ele>13.0</ele><time>2026-04-12T05:00:35.888Z</time></trkpt><trkpt lat="43.5490662" lon="7.0061843"><ele>12.999999999999998</ele><time>2026-04-12T05:00:37.887Z</time></trkpt><trkpt lat="43.5489918" lon="7.0061734"><ele>13.0</ele><time>2026-04-12T05:00:39.892Z</time></trkpt><trkpt lat="43.5489406" lon="7.0061086"><ele>13.0</ele><time>2026-04-12T05:00:41.862Z</time></trkpt><trkpt lat="43.5489271" lon="7.005989"><ele>13.0</ele><time>2026-04-12T05:00:43.89Z</time></trkpt><trkpt lat="43.5489326" lon="7.0058672"><ele>12.999999999999998</ele><time>2026-04-12T05:00:45.896Z</time></trkpt><trkpt lat="43.5489384" lon="7.0057381"><ele>13.0</ele><time>2026-04-12T05:00:47.914Z</time></trkpt><trkpt lat="43.5489458" lon="7.0056028"><ele>12.200000000000001</ele><time>2026-04-12T05:00:49.905Z</time></trkpt><trkpt lat="43.5489511" lon="7.0054646"><ele>11.4</ele><time>2026-04-12T05:00:51.89Z</time></trkpt><trkpt lat="43.5489623" lon="7.0053208"><ele>10.600000000000001</ele><time>2026-04-12T05:00:53.913Z</time></trkpt><trkpt lat="43.5489716" lon="7.0051672"><ele>9.8</ele><time>2026-04-12T05:00:55.935Z</time></trkpt><trkpt lat="43.5489864" lon="7.0050131"><ele>9.0</ele><time>2026-04-12T05:00:57.916Z</time></trkpt><trkpt lat="43.5489993" lon="7.0048652"><ele>8.0</ele><time>2026-04-12T05:00:59.904Z</time></trkpt><trkpt lat="43.5490122" lon="7.0047147"><ele>7.0</ele><time>2026-04-12T05:01:01.904Z</time></trkpt><trkpt lat="43.5490198" lon="7.004565"><ele>6.0</ele><time>2026-04-12T05:01:03.92Z</time></trkpt><trkpt lat="43.5490312" lon="7.0044116"><ele>5.0</ele><time>2026-04-12T05:01:05.908Z</time></trkpt><trkpt lat="43.5490442" lon="7.0042633"><ele>4.0</ele><time>2026-04-12T05:01:07.878Z</time></trkpt><trkpt lat="43.5490634" lon="7.0041089"><ele>4.0</ele><time>2026-04-12T05:01:09.88Z</time></trkpt><trkpt lat="43.5490874" lon="7.0039462"><ele>4.0</ele><time>2026-04-12T05:01:11.885Z</time></trkpt><trkpt lat="43.5490904" lon="7.0037847"><ele>4.0</ele><time>2026-04-12T05:01:13.902Z</time></trkpt><trkpt lat="43.5490904" lon="7.0036388"><ele>4.0</ele><time>2026-04-12T05:01:15.887Z</time></trkpt><trkpt lat="43.549082" lon="7.0034958"><ele>4.0</ele><time>2026-04-12T05:01:17.9Z</time></trkpt><trkpt lat="43.5490758" lon="7.0033563"><ele>4.0</ele><time>2026-04-12T05:01:19.926Z</time></trkpt><trkpt lat="43.5490699" lon="7.0032038"><ele>4.0</ele><time>2026-04-12T05:01:21.898Z</time></trkpt><trkpt lat="43.5490587" lon="7.0030618"><ele>4.0</ele><time>2026-04-12T05:01:23.878Z</time></trkpt><trkpt lat="43.5490528" lon="7.0029196"><ele>4.0</ele><time>2026-04-12T05:01:25.888Z</time></trkpt><trkpt lat="43.5490527" lon="7.0027718"><ele>4.0</ele><time>2026-04-12T05:01:27.92Z</time></trkpt><trkpt lat="43.5490436" lon="7.0026252"><ele>4.0</ele><time>2026-04-12T05:01:29.909Z</time></trkpt><trkpt lat="43.5490425" lon="7.0024883"><ele>4.0</ele><time>2026-04-12T05:01:31.918Z</time></trkpt><trkpt lat="43.5490452" lon="7.00235"><ele>4.0</ele><time>2026-04-12T05:01:33.881Z</time></trkpt><trkpt lat="43.5490461" lon="7.0022148"><ele>4.0</ele><time>2026-04-12T05:01:35.933Z</time></trkpt><trkpt lat="43.5490516" lon="7.002075"><ele>4.0</ele><time>2026-04-12T05:01:37.92Z</time></trkpt><trkpt lat="43.5490491" lon="7.0019298"><ele>4.0</ele><time>2026-04-12T05:01:39.894Z</time></trkpt><trkpt lat="43.5490535" lon="7.0017863"><ele>4.0</ele><time>2026-04-12T05:01:41.922Z</time></trkpt><trkpt lat="43.5490656" lon="7.001639"><ele>4.0</ele><time>2026-04-12T05:01:43.907Z</time></trkpt><trkpt lat="43.5490649" lon="7.0014929"><ele>4.0</ele><time>2026-04-12T05:01:45.921Z</time></trkpt><trkpt lat="43.5490714" lon="7.0013456"><ele>4.0</ele><time>2026-04-12T05:01:47.912Z</time></trkpt><trkpt lat="43.5490719" lon="7.0011843"><ele>4.5</ele><time>2026-04-12T05:01:49.922Z</time></trkpt><trkpt lat="43.5490749" lon="7.0010331"><ele>5.0</ele><time>2026-04-12T05:01:51.928Z</time></trkpt><trkpt lat="43.5490881" lon="7.0008691"><ele>5.5</ele><time>2026-04-12T05:01:53.93Z</time></trkpt><trkpt lat="43.549096" lon="7.0007139"><ele>6.0</ele><time>2026-04-12T05:01:55.925Z</time></trkpt><trkpt lat="43.5491066" lon="7.0005576"><ele>7.0</ele><time>2026-04-12T05:01:57.923Z</time></trkpt><trkpt lat="43.5491121" lon="7.0004043"><ele>8.0</ele><time>2026-04-12T05:01:59.874Z</time></trkpt><trkpt lat="43.5491178" lon="7.0002541"><ele>9.0</ele><time>2026-04-12T05:02:01.906Z</time></trkpt><trkpt lat="43.5491294" lon="7.0001075"><ele>10.0</ele><time>2026-04-12T05:02:03.927Z</time></trkpt><trkpt lat="43.5491398" lon="6.9999573"><ele>11.0</ele><time>2026-04-12T05:02:05.908Z</time></trkpt><trkpt lat="43.5491452" lon="6.9998074"><ele>11.0</ele><time>2026-04-12T05:02:07.923Z</time></trkpt><trkpt lat="43.5491473" lon="6.9996586"><ele>11.0</ele><time>2026-04-12T05:02:09.923Z</time></trkpt><trkpt lat="43.549153" lon="6.9995164"><ele>11.0</ele><time>2026-04-12T05:02:11.917Z</time></trkpt><trkpt lat="43.549161" lon="6.9993814"><ele>11.0</ele><time>2026-04-12T05:02:13.909Z</time></trkpt><trkpt lat="43.5491665" lon="6.999229"><ele>11.0</ele><time>2026-04-12T05:02:15.928Z</time></trkpt><trkpt lat="43.549168" lon="6.9990857"><ele>10.0</ele><time>2026-04-12T05:02:17.916Z</time></trkpt><trkpt lat="43.549172" lon="6.9989321"><ele>9.0</ele><time>2026-04-12T05:02:19.947Z</time></trkpt><trkpt lat="43.5491778" lon="6.9987796"><ele>8.0</ele><time>2026-04-12T05:02:21.936Z</time></trkpt><trkpt lat="43.5491879" lon="6.9986219"><ele>7.0</ele><time>2026-04-12T05:02:23.925Z</time></trkpt><trkpt lat="43.5491924" lon="6.9984602"><ele>6.5</ele><time>2026-04-12T05:02:25.931Z</time></trkpt><trkpt lat="43.5492006" lon="6.9983124"><ele>6.0</ele><time>2026-04-12T05:02:27.917Z</time></trkpt><trkpt lat="43.5492112" lon="6.998155"><ele>5.5</ele><time>2026-04-12T05:02:29.915Z</time></trkpt><trkpt lat="43.5492163" lon="6.9979992"><ele>5.0</ele><time>2026-04-12T05:02:31.879Z</time></trkpt><trkpt lat="43.5492234" lon="6.9978408"><ele>5.0</ele><time>2026-04-12T05:02:33.894Z</time></trkpt><trkpt lat="43.549224" lon="6.9976931"><ele>5.0</ele><time>2026-04-12T05:02:35.923Z</time></trkpt><trkpt lat="43.549222" lon="6.9975532"><ele>5.0</ele><time>2026-04-12T05:02:37.924Z</time></trkpt><trkpt lat="43.5492245" lon="6.997407"><ele>5.0</ele><time>2026-04-12T05:02:39.93Z</time></trkpt><trkpt lat="43.5492289" lon="6.9972535"><ele>5.0</ele><time>2026-04-12T05:02:41.897Z</time></trkpt><trkpt lat="43.5492397" lon="6.9971036"><ele>5.0</ele><time>2026-04-12T05:02:43.924Z</time></trkpt><trkpt lat="43.5492452" lon="6.9969522"><ele>5.0</ele><time>2026-04-12T05:02:45.915Z</time></trkpt><trkpt lat="43.549254" lon="6.9968155"><ele>5.0</ele><time>2026-04-12T05:02:47.901Z</time></trkpt><trkpt lat="43.5492566" lon="6.9966716"><ele>5.0</ele><time>2026-04-12T05:02:49.881Z</time></trkpt><trkpt lat="43.5492617" lon="6.9965228"><ele>5.0</ele><time>2026-04-12T05:02:51.921Z</time></trkpt><trkpt lat="43.5492666" lon="6.9963723"><ele>4.75</ele><time>2026-04-12T05:02:53.907Z</time></trkpt><trkpt lat="43.5492713" lon="6.9962242"><ele>4.5</ele><time>2026-04-12T05:02:55.909Z</time></trkpt><trkpt lat="43.5492718" lon="6.9960747"><ele>4.25</ele><time>2026-04-12T05:02:57.92Z</time></trkpt><trkpt lat="43.5492742" lon="6.9959171"><ele>4.0</ele><time>2026-04-12T05:02:59.925Z</time></trkpt><trkpt lat="43.5492771" lon="6.995751"><ele>4.0</ele><time>2026-04-12T05:03:01.898Z</time></trkpt><trkpt lat="43.5492792" lon="6.9955814"><ele>4.0</ele><time>2026-04-12T05:03:03.895Z</time></trkpt><trkpt lat="43.549279" lon="6.9954916"><ele>4.0</ele><time>2026-04-12T05:03:04.918Z</time></trkpt><trkpt lat="43.5492762" lon="6.9953315"><ele>4.0</ele><time>2026-04-12T05:03:06.926Z</time></trkpt><trkpt lat="43.5492778" lon="6.9951683"><ele>4.0</ele><time>2026-04-12T05:03:08.906Z</time></trkpt><trkpt lat="43.5492742" lon="6.9950029"><ele>4.0</ele><time>2026-04-12T05:03:10.933Z</time></trkpt><trkpt lat="43.5492649" lon="6.994838"><ele>4.0</ele><time>2026-04-12T05:03:12.93Z</time></trkpt><trkpt lat="43.5492611" lon="6.9946781"><ele>4.0</ele><time>2026-04-12T05:03:14.917Z</time></trkpt><trkpt lat="43.5492599" lon="6.9945209"><ele>4.0</ele><time>2026-04-12T05:03:16.918Z</time></trkpt><trkpt lat="43.5492513" lon="6.9943544"><ele>4.0</ele><time>2026-04-12T05:03:18.92Z</time></trkpt><trkpt lat="43.5492451" lon="6.994183"><ele>4.0</ele><time>2026-04-12T05:03:20.94Z</time></trkpt><trkpt lat="43.549238" lon="6.9940178"><ele>4.0</ele><time>2026-04-12T05:03:22.94Z</time></trkpt><trkpt lat="43.5492269" lon="6.9938606"><ele>4.0</ele><time>2026-04-12T05:03:24.913Z</time></trkpt><trkpt lat="43.5492211" lon="6.9937072"><ele>4.0</ele><time>2026-04-12T05:03:26.916Z</time></trkpt><trkpt lat="43.549212" lon="6.9935548"><ele>4.0</ele><time>2026-04-12T05:03:28.903Z</time></trkpt><trkpt lat="43.5492066" lon="6.9933981"><ele>4.0</ele><time>2026-04-12T05:03:30.897Z</time></trkpt><trkpt lat="43.5492007" lon="6.9932428"><ele>4.0</ele><time>2026-04-12T05:03:32.924Z</time></trkpt><trkpt lat="43.5491952" lon="6.99309"><ele>4.0</ele><time>2026-04-12T05:03:34.918Z</time></trkpt><trkpt lat="43.5491864" lon="6.9929352"><ele>4.0</ele><time>2026-04-12T05:03:36.934Z</time></trkpt><trkpt lat="43.5491794" lon="6.9927831"><ele>4.0</ele><time>2026-04-12T05:03:38.933Z</time></trkpt><trkpt lat="43.5491713" lon="6.9926257"><ele>4.0</ele><time>2026-04-12T05:03:40.916Z</time></trkpt><trkpt lat="43.5491638" lon="6.9924673"><ele>4.0</ele><time>2026-04-12T05:03:42.878Z</time></trkpt><trkpt lat="43.549155" lon="6.992308"><ele>4.5</ele><time>2026-04-12T05:03:44.884Z</time></trkpt><trkpt lat="43.5491434" lon="6.9921462"><ele>5.0</ele><time>2026-04-12T05:03:46.899Z</time></trkpt><trkpt lat="43.5491392" lon="6.9919801"><ele>5.5</ele><time>2026-04-12T05:03:48.881Z</time></trkpt><trkpt lat="43.549129" lon="6.9918132"><ele>6.0</ele><time>2026-04-12T05:03:50.907Z</time></trkpt><trkpt lat="43.5491244" lon="6.9916498"><ele>6.0</ele><time>2026-04-12T05:03:52.904Z</time></trkpt><trkpt lat="43.5491178" lon="6.9914827"><ele>6.0</ele><time>2026-04-12T05:03:54.904Z</time></trkpt><trkpt lat="43.549109" lon="6.9913222"><ele>6.0</ele><time>2026-04-12T05:03:56.913Z</time></trkpt><trkpt lat="43.5490955" lon="6.9911528"><ele>6.0</ele><time>2026-04-12T05:03:58.917Z</time></trkpt><trkpt lat="43.5490861" lon="6.990977"><ele>6.0</ele><time>2026-04-12T05:04:00.917Z</time></trkpt><trkpt lat="43.5490769" lon="6.9908845"><ele>6.0</ele><time>2026-04-12T05:04:01.939Z</time></trkpt><trkpt lat="43.5490647" lon="6.9907108"><ele>6.0</ele><time>2026-04-12T05:04:03.923Z</time></trkpt><trkpt lat="43.5490605" lon="6.9906199"><ele>6.0</ele><time>2026-04-12T05:04:04.901Z</time></trkpt><trkpt lat="43.5490536" lon="6.9904517"><ele>6.0</ele><time>2026-04-12T05:04:06.939Z</time></trkpt><trkpt lat="43.5490459" lon="6.9902868"><ele>5.833333333333333</ele><time>2026-04-12T05:04:08.92Z</time></trkpt><trkpt lat="43.549045" lon="6.9901979"><ele>5.666666666666667</ele><time>2026-04-12T05:04:09.919Z</time></trkpt><trkpt lat="43.5490341" lon="6.9900254"><ele>5.5</ele><time>2026-04-12T05:04:11.892Z</time></trkpt><trkpt lat="43.5490308" lon="6.9899367"><ele>5.333333333333334</ele><time>2026-04-12T05:04:12.872Z</time></trkpt><trkpt lat="43.5490272" lon="6.9898498"><ele>5.166666666666667</ele><time>2026-04-12T05:04:13.898Z</time></trkpt><trkpt lat="43.5490128" lon="6.9897536"><ele>5.0</ele><time>2026-04-12T05:04:14.9Z</time></trkpt><trkpt lat="43.5489902" lon="6.9895986"><ele>4.8</ele><time>2026-04-12T05:04:16.929Z</time></trkpt><trkpt lat="43.54899" lon="6.9894434"><ele>4.6</ele><time>2026-04-12T05:04:18.93Z</time></trkpt><trkpt lat="43.5489878" lon="6.9893532"><ele>4.4</ele><time>2026-04-12T05:04:19.918Z</time></trkpt><trkpt lat="43.5489705" lon="6.9891822"><ele>4.2</ele><time>2026-04-12T05:04:21.94Z</time></trkpt><trkpt lat="43.5489655" lon="6.9890956"><ele>4.0</ele><time>2026-04-12T05:04:22.889Z</time></trkpt><trkpt lat="43.5489513" lon="6.9889215"><ele>3.9999999999999996</ele><time>2026-04-12T05:04:24.936Z</time></trkpt><trkpt lat="43.548939" lon="6.9888354"><ele>4.0</ele><time>2026-04-12T05:04:25.892Z</time></trkpt><trkpt lat="43.5489286" lon="6.9887419"><ele>4.0</ele><time>2026-04-12T05:04:26.935Z</time></trkpt><trkpt lat="43.5489122" lon="6.9885679"><ele>4.0</ele><time>2026-04-12T05:04:28.921Z</time></trkpt><trkpt lat="43.5489043" lon="6.9884775"><ele>3.9999999999999996</ele><time>2026-04-12T05:04:29.879Z</time></trkpt><trkpt lat="43.548893" lon="6.9883865"><ele>4.0</ele><time>2026-04-12T05:04:30.893Z</time></trkpt><trkpt lat="43.5488675" lon="6.9882193"><ele>4.4</ele><time>2026-04-12T05:04:32.881Z</time></trkpt><trkpt lat="43.5488382" lon="6.9880458"><ele>4.800000000000001</ele><time>2026-04-12T05:04:34.891Z</time></trkpt><trkpt lat="43.5488251" lon="6.987955"><ele>5.199999999999999</ele><time>2026-04-12T05:04:35.904Z</time></trkpt><trkpt lat="43.5488124" lon="6.9878666"><ele>5.6</ele><time>2026-04-12T05:04:36.9Z</time></trkpt><trkpt lat="43.5487973" lon="6.9876949"><ele>6.0</ele><time>2026-04-12T05:04:38.925Z</time></trkpt><trkpt lat="43.5487854" lon="6.9876091"><ele>6.0</ele><time>2026-04-12T05:04:39.896Z</time></trkpt><trkpt lat="43.5487763" lon="6.9875212"><ele>6.0</ele><time>2026-04-12T05:04:40.931Z</time></trkpt><trkpt lat="43.5487486" lon="6.9873546"><ele>6.0</ele><time>2026-04-12T05:04:42.93Z</time></trkpt><trkpt lat="43.5487279" lon="6.9872644"><ele>6.0</ele><time>2026-04-12T05:04:43.91Z</time></trkpt><trkpt lat="43.5486958" lon="6.9870914"><ele>6.0</ele><time>2026-04-12T05:04:45.936Z</time></trkpt><trkpt lat="43.5486805" lon="6.9870031"><ele>5.3999999999999995</ele><time>2026-04-12T05:04:46.907Z</time></trkpt><trkpt lat="43.5486482" lon="6.9868339"><ele>4.8</ele><time>2026-04-12T05:04:48.915Z</time></trkpt><trkpt lat="43.5486349" lon="6.9867435"><ele>4.199999999999999</ele><time>2026-04-12T05:04:49.94Z</time></trkpt><trkpt lat="43.5486003" lon="6.9865729"><ele>3.5999999999999996</ele><time>2026-04-12T05:04:51.921Z</time></trkpt><trkpt lat="43.5485642" lon="6.9864051"><ele>3.0</ele><time>2026-04-12T05:04:53.919Z</time></trkpt><trkpt lat="43.5485464" lon="6.9863177"><ele>2.8571428571428568</ele><time>2026-04-12T05:04:54.927Z</time></trkpt><trkpt lat="43.5485298" lon="6.9862336"><ele>2.7142857142857144</ele><time>2026-04-12T05:04:55.901Z</time></trkpt><trkpt lat="43.548511" lon="6.9861454"><ele>2.571428571428571</ele><time>2026-04-12T05:04:56.896Z</time></trkpt><trkpt lat="43.5484947" lon="6.9860606"><ele>2.4285714285714284</ele><time>2026-04-12T05:04:57.927Z</time></trkpt><trkpt lat="43.5484781" lon="6.9859758"><ele>2.2857142857142856</ele><time>2026-04-12T05:04:58.883Z</time></trkpt><trkpt lat="43.5484454" lon="6.9858098"><ele>2.142857142857143</ele><time>2026-04-12T05:05:00.939Z</time></trkpt><trkpt lat="43.5484309" lon="6.9857244"><ele>2.0</ele><time>2026-04-12T05:05:01.909Z</time></trkpt><trkpt lat="43.5484153" lon="6.9856396"><ele>2.833333333333333</ele><time>2026-04-12T05:05:02.91Z</time></trkpt><trkpt lat="43.5483984" lon="6.9855493"><ele>3.666666666666667</ele><time>2026-04-12T05:05:03.924Z</time></trkpt><trkpt lat="43.5483834" lon="6.985462"><ele>4.5</ele><time>2026-04-12T05:05:04.888Z</time></trkpt><trkpt lat="43.5483504" lon="6.985303"><ele>5.333333333333334</ele><time>2026-04-12T05:05:06.937Z</time></trkpt><trkpt lat="43.5483325" lon="6.9852113"><ele>6.166666666666667</ele><time>2026-04-12T05:05:07.867Z</time></trkpt><trkpt lat="43.5483196" lon="6.9851227"><ele>7.0</ele><time>2026-04-12T05:05:08.921Z</time></trkpt><trkpt lat="43.5483054" lon="6.985032"><ele>7.571428571428571</ele><time>2026-04-12T05:05:09.917Z</time></trkpt><trkpt lat="43.5482876" lon="6.9849426"><ele>8.142857142857142</ele><time>2026-04-12T05:05:10.873Z</time></trkpt><trkpt lat="43.5482712" lon="6.9848547"><ele>8.714285714285715</ele><time>2026-04-12T05:05:11.869Z</time></trkpt><trkpt lat="43.5482545" lon="6.9847665"><ele>9.285714285714285</ele><time>2026-04-12T05:05:12.914Z</time></trkpt><trkpt lat="43.548242" lon="6.9846776"><ele>9.857142857142858</ele><time>2026-04-12T05:05:13.921Z</time></trkpt><trkpt lat="43.5482223" lon="6.9845891"><ele>10.428571428571429</ele><time>2026-04-12T05:05:14.925Z</time></trkpt><trkpt lat="43.5482088" lon="6.9845017"><ele>11.0</ele><time>2026-04-12T05:05:15.912Z</time></trkpt><trkpt lat="43.5481932" lon="6.9844157"><ele>11.0</ele><time>2026-04-12T05:05:16.91Z</time></trkpt><trkpt lat="43.5481786" lon="6.9843248"><ele>11.0</ele><time>2026-04-12T05:05:17.931Z</time></trkpt><trkpt lat="43.5481627" lon="6.9842392"><ele>11.0</ele><time>2026-04-12T05:05:18.942Z</time></trkpt><trkpt lat="43.5481456" lon="6.9841474"><ele>11.0</ele><time>2026-04-12T05:05:19.883Z</time></trkpt><trkpt lat="43.5481207" lon="6.9840623"><ele>11.0</ele><time>2026-04-12T05:05:20.92Z</time></trkpt><trkpt lat="43.5480967" lon="6.983967"><ele>11.0</ele><time>2026-04-12T05:05:21.899Z</time></trkpt><trkpt lat="43.5480795" lon="6.98387"><ele>11.0</ele><time>2026-04-12T05:05:22.907Z</time></trkpt><trkpt lat="43.5480612" lon="6.9837795"><ele>10.714285714285715</ele><time>2026-04-12T05:05:23.937Z</time></trkpt><trkpt lat="43.548047" lon="6.9836822"><ele>10.428571428571429</ele><time>2026-04-12T05:05:24.88Z</time></trkpt><trkpt lat="43.5480366" lon="6.9835856"><ele>10.142857142857142</ele><time>2026-04-12T05:05:25.916Z</time></trkpt><trkpt lat="43.5480209" lon="6.9834918"><ele>9.857142857142858</ele><time>2026-04-12T05:05:26.871Z</time></trkpt><trkpt lat="43.5480032" lon="6.9833977"><ele>9.571428571428571</ele><time>2026-04-12T05:05:27.909Z</time></trkpt><trkpt lat="43.5479843" lon="6.9832983"><ele>9.285714285714286</ele><time>2026-04-12T05:05:28.929Z</time></trkpt><trkpt lat="43.5479734" lon="6.983199"><ele>9.0</ele><time>2026-04-12T05:05:29.929Z</time></trkpt><trkpt lat="43.5479609" lon="6.9831028"><ele>8.571428571428573</ele><time>2026-04-12T05:05:30.938Z</time></trkpt><trkpt lat="43.5479458" lon="6.9830137"><ele>8.142857142857142</ele><time>2026-04-12T05:05:31.928Z</time></trkpt><trkpt lat="43.5479283" lon="6.9829238"><ele>7.714285714285714</ele><time>2026-04-12T05:05:32.938Z</time></trkpt><trkpt lat="43.5479154" lon="6.9828319"><ele>7.2857142857142865</ele><time>2026-04-12T05:05:33.932Z</time></trkpt><trkpt lat="43.5479037" lon="6.9827423"><ele>6.857142857142858</ele><time>2026-04-12T05:05:34.913Z</time></trkpt><trkpt lat="43.5478931" lon="6.9826543"><ele>6.428571428571428</ele><time>2026-04-12T05:05:35.935Z</time></trkpt><trkpt lat="43.547882" lon="6.982567"><ele>6.0</ele><time>2026-04-12T05:05:36.931Z</time></trkpt><trkpt lat="43.5478598" lon="6.982393"><ele>5.571428571428571</ele><time>2026-04-12T05:05:38.938Z</time></trkpt><trkpt lat="43.5478497" lon="6.9822999"><ele>5.142857142857142</ele><time>2026-04-12T05:05:39.918Z</time></trkpt><trkpt lat="43.5478362" lon="6.9822064"><ele>4.7142857142857135</ele><time>2026-04-12T05:05:40.924Z</time></trkpt><trkpt lat="43.5478258" lon="6.9821175"><ele>4.285714285714286</ele><time>2026-04-12T05:05:41.916Z</time></trkpt><trkpt lat="43.5478134" lon="6.9820293"><ele>3.8571428571428568</ele><time>2026-04-12T05:05:42.909Z</time></trkpt><trkpt lat="43.5478024" lon="6.9819416"><ele>3.4285714285714284</ele><time>2026-04-12T05:05:43.915Z</time></trkpt><trkpt lat="43.5477909" lon="6.981848"><ele>3.0</ele><time>2026-04-12T05:05:44.923Z</time></trkpt><trkpt lat="43.5477797" lon="6.9817525"><ele>3.1428571428571423</ele><time>2026-04-12T05:05:45.929Z</time></trkpt><trkpt lat="43.5477672" lon="6.9816617"><ele>3.2857142857142856</ele><time>2026-04-12T05:05:46.943Z</time></trkpt><trkpt lat="43.5477518" lon="6.9815671"><ele>3.4285714285714284</ele><time>2026-04-12T05:05:47.926Z</time></trkpt><trkpt lat="43.547738" lon="6.9814723"><ele>3.571428571428571</ele><time>2026-04-12T05:05:48.928Z</time></trkpt><trkpt lat="43.5477271" lon="6.9813769"><ele>3.714285714285714</ele><time>2026-04-12T05:05:49.934Z</time></trkpt><trkpt lat="43.5477171" lon="6.9812851"><ele>3.8571428571428568</ele><time>2026-04-12T05:05:50.932Z</time></trkpt><trkpt lat="43.5477058" lon="6.981186"><ele>4.0</ele><time>2026-04-12T05:05:51.934Z</time></trkpt><trkpt lat="43.5476953" lon="6.981093"><ele>4.0</ele><time>2026-04-12T05:05:52.921Z</time></trkpt><trkpt lat="43.5476824" lon="6.9809985"><ele>3.9999999999999996</ele><time>2026-04-12T05:05:53.929Z</time></trkpt><trkpt lat="43.5476632" lon="6.9809112"><ele>4.0</ele><time>2026-04-12T05:05:54.937Z</time></trkpt><trkpt lat="43.5476493" lon="6.9808225"><ele>4.0</ele><time>2026-04-12T05:05:55.928Z</time></trkpt><trkpt lat="43.5476347" lon="6.9807309"><ele>3.9999999999999996</ele><time>2026-04-12T05:05:56.914Z</time></trkpt><trkpt lat="43.5476251" lon="6.9806426"><ele>4.0</ele><time>2026-04-12T05:05:57.909Z</time></trkpt><trkpt lat="43.5476105" lon="6.9805548"><ele>4.0</ele><time>2026-04-12T05:05:58.899Z</time></trkpt><trkpt lat="43.5475941" lon="6.9804679"><ele>4.2</ele><time>2026-04-12T05:05:59.929Z</time></trkpt><trkpt lat="43.5475754" lon="6.9803089"><ele>4.4</ele><time>2026-04-12T05:06:01.885Z</time></trkpt><trkpt lat="43.5476022" lon="6.9801815"><ele>4.6</ele><time>2026-04-12T05:06:03.9Z</time></trkpt><trkpt lat="43.547593" lon="6.9800576"><ele>4.8</ele><time>2026-04-12T05:06:06.883Z</time></trkpt><trkpt lat="43.5475623" lon="6.9799677"><ele>5.0</ele><time>2026-04-12T05:06:08.89Z</time></trkpt><trkpt lat="43.5475487" lon="6.9798437"><ele>5.0</ele><time>2026-04-12T05:06:10.879Z</time></trkpt><trkpt lat="43.547539" lon="6.9796826"><ele>5.0</ele><time>2026-04-12T05:06:12.916Z</time></trkpt><trkpt lat="43.5475288" lon="6.9795192"><ele>5.0</ele><time>2026-04-12T05:06:14.918Z</time></trkpt><trkpt lat="43.5475132" lon="6.9793596"><ele>5.0</ele><time>2026-04-12T05:06:16.923Z</time></trkpt><trkpt lat="43.5474989" lon="6.9792077"><ele>5.25</ele><time>2026-04-12T05:06:18.921Z</time></trkpt><trkpt lat="43.5474747" lon="6.9790499"><ele>5.5</ele><time>2026-04-12T05:06:20.919Z</time></trkpt><trkpt lat="43.547462" lon="6.9788931"><ele>5.75</ele><time>2026-04-12T05:06:22.929Z</time></trkpt><trkpt lat="43.5474438" lon="6.9787387"><ele>6.0</ele><time>2026-04-12T05:06:24.865Z</time></trkpt><trkpt lat="43.5474234" lon="6.9785754"><ele>6.0</ele><time>2026-04-12T05:06:26.94Z</time></trkpt><trkpt lat="43.5473957" lon="6.9784205"><ele>6.0</ele><time>2026-04-12T05:06:28.912Z</time></trkpt><trkpt lat="43.5473559" lon="6.9782697"><ele>6.0</ele><time>2026-04-12T05:06:30.918Z</time></trkpt><trkpt lat="43.5473052" lon="6.9781106"><ele>6.0</ele><time>2026-04-12T05:06:32.946Z</time></trkpt><trkpt lat="43.547268" lon="6.9779566"><ele>5.8</ele><time>2026-04-12T05:06:34.92Z</time></trkpt><trkpt lat="43.5472498" lon="6.9778697"><ele>5.6</ele><time>2026-04-12T05:06:35.93Z</time></trkpt><trkpt lat="43.5472148" lon="6.9777068"><ele>5.4</ele><time>2026-04-12T05:06:37.914Z</time></trkpt><trkpt lat="43.5471804" lon="6.9775451"><ele>5.2</ele><time>2026-04-12T05:06:39.924Z</time></trkpt><trkpt lat="43.5471462" lon="6.9773824"><ele>5.0</ele><time>2026-04-12T05:06:41.932Z</time></trkpt><trkpt lat="43.5471302" lon="6.9772964"><ele>4.833333333333334</ele><time>2026-04-12T05:06:42.915Z</time></trkpt><trkpt lat="43.5470994" lon="6.9771248"><ele>4.666666666666667</ele><time>2026-04-12T05:06:44.905Z</time></trkpt><trkpt lat="43.5470811" lon="6.977038"><ele>4.5</ele><time>2026-04-12T05:06:45.936Z</time></trkpt><trkpt lat="43.5470617" lon="6.9769535"><ele>4.333333333333333</ele><time>2026-04-12T05:06:46.91Z</time></trkpt><trkpt lat="43.5470453" lon="6.9768606"><ele>4.166666666666666</ele><time>2026-04-12T05:06:47.926Z</time></trkpt><trkpt lat="43.5470299" lon="6.9767738"><ele>4.0</ele><time>2026-04-12T05:06:48.926Z</time></trkpt><trkpt lat="43.5470111" lon="6.9766864"><ele>3.4999999999999996</ele><time>2026-04-12T05:06:49.936Z</time></trkpt><trkpt lat="43.5469906" lon="6.9766009"><ele>3.0</ele><time>2026-04-12T05:06:50.929Z</time></trkpt><trkpt lat="43.546973" lon="6.9765155"><ele>2.5</ele><time>2026-04-12T05:06:51.913Z</time></trkpt><trkpt lat="43.546947" lon="6.9764292"><ele>2.0</ele><time>2026-04-12T05:06:52.928Z</time></trkpt><trkpt lat="43.5469307" lon="6.9763441"><ele>1.5</ele><time>2026-04-12T05:06:53.92Z</time></trkpt><trkpt lat="43.5469118" lon="6.9762581"><ele>1.0</ele><time>2026-04-12T05:06:54.928Z</time></trkpt><trkpt lat="43.5468808" lon="6.9760923"><ele>1.0</ele><time>2026-04-12T05:06:56.879Z</time></trkpt><trkpt lat="43.5468613" lon="6.9760082"><ele>1.0</ele><time>2026-04-12T05:06:57.936Z</time></trkpt><trkpt lat="43.5468249" lon="6.9758421"><ele>1.0</ele><time>2026-04-12T05:06:59.91Z</time></trkpt><trkpt lat="43.5467874" lon="6.975685"><ele>1.0</ele><time>2026-04-12T05:07:01.946Z</time></trkpt><trkpt lat="43.5467649" lon="6.9756013"><ele>1.0</ele><time>2026-04-12T05:07:02.933Z</time></trkpt><trkpt lat="43.5467298" lon="6.9754378"><ele>1.0</ele><time>2026-04-12T05:07:04.933Z</time></trkpt><trkpt lat="43.5467111" lon="6.9753521"><ele>1.0</ele><time>2026-04-12T05:07:05.925Z</time></trkpt><trkpt lat="43.5466679" lon="6.9751834"><ele>1.0</ele><time>2026-04-12T05:07:07.921Z</time></trkpt><trkpt lat="43.5466502" lon="6.9750964"><ele>1.0</ele><time>2026-04-12T05:07:08.931Z</time></trkpt><trkpt lat="43.5466075" lon="6.9749344"><ele>1.0</ele><time>2026-04-12T05:07:10.932Z</time></trkpt><trkpt lat="43.5465818" lon="6.9748472"><ele>0.9999999999999999</ele><time>2026-04-12T05:07:11.92Z</time></trkpt><trkpt lat="43.5465557" lon="6.9747602"><ele>1.0</ele><time>2026-04-12T05:07:12.946Z</time></trkpt><trkpt lat="43.5465312" lon="6.9746722"><ele>1.0</ele><time>2026-04-12T05:07:13.942Z</time></trkpt><trkpt lat="43.546508" lon="6.9745872"><ele>1.0</ele><time>2026-04-12T05:07:14.919Z</time></trkpt><trkpt lat="43.546465" lon="6.9744261"><ele>0.9999999999999999</ele><time>2026-04-12T05:07:16.912Z</time></trkpt><trkpt lat="43.546441" lon="6.9743384"><ele>1.0</ele><time>2026-04-12T05:07:17.922Z</time></trkpt><trkpt lat="43.5464215" lon="6.9742464"><ele>1.2857142857142856</ele><time>2026-04-12T05:07:18.937Z</time></trkpt><trkpt lat="43.5464002" lon="6.9741588"><ele>1.5714285714285712</ele><time>2026-04-12T05:07:19.917Z</time></trkpt><trkpt lat="43.5463738" lon="6.9740699"><ele>1.857142857142857</ele><time>2026-04-12T05:07:20.927Z</time></trkpt><trkpt lat="43.5463493" lon="6.9739847"><ele>2.142857142857143</ele><time>2026-04-12T05:07:21.922Z</time></trkpt><trkpt lat="43.5463225" lon="6.9739004"><ele>2.4285714285714284</ele><time>2026-04-12T05:07:22.923Z</time></trkpt><trkpt lat="43.5463" lon="6.9738176"><ele>2.714285714285714</ele><time>2026-04-12T05:07:23.927Z</time></trkpt><trkpt lat="43.546279" lon="6.9737326"><ele>3.0</ele><time>2026-04-12T05:07:24.919Z</time></trkpt><trkpt lat="43.5462304" lon="6.9735798"><ele>2.5</ele><time>2026-04-12T05:07:26.928Z</time></trkpt><trkpt lat="43.5461867" lon="6.9734181"><ele>2.0</ele><time>2026-04-12T05:07:28.901Z</time></trkpt><trkpt lat="43.5461647" lon="6.9733366"><ele>1.5</ele><time>2026-04-12T05:07:29.941Z</time></trkpt><trkpt lat="43.5461412" lon="6.9732548"><ele>1.0</ele><time>2026-04-12T05:07:30.929Z</time></trkpt><trkpt lat="43.5461185" lon="6.9731716"><ele>0.5</ele><time>2026-04-12T05:07:31.926Z</time></trkpt><trkpt lat="43.546081" lon="6.9730082"><ele>0.0</ele><time>2026-04-12T05:07:33.938Z</time></trkpt><trkpt lat="43.5460523" lon="6.9729219"><ele>0.0</ele><time>2026-04-12T05:07:34.929Z</time></trkpt><trkpt lat="43.5460288" lon="6.9728306"><ele>0.0</ele><time>2026-04-12T05:07:35.952Z</time></trkpt><trkpt lat="43.5459771" lon="6.9726759"><ele>0.0</ele><time>2026-04-12T05:07:37.936Z</time></trkpt><trkpt lat="43.5459354" lon="6.9725154"><ele>0.0</ele><time>2026-04-12T05:07:39.938Z</time></trkpt><trkpt lat="43.5459168" lon="6.9724305"><ele>0.0</ele><time>2026-04-12T05:07:40.918Z</time></trkpt><trkpt lat="43.5458919" lon="6.9723479"><ele>0.0</ele><time>2026-04-12T05:07:41.921Z</time></trkpt><trkpt lat="43.5458408" lon="6.9721873"><ele>0.16666666666666666</ele><time>2026-04-12T05:07:43.942Z</time></trkpt><trkpt lat="43.545817" lon="6.9721048"><ele>0.3333333333333333</ele><time>2026-04-12T05:07:44.912Z</time></trkpt><trkpt lat="43.5457952" lon="6.9720203"><ele>0.5</ele><time>2026-04-12T05:07:45.91Z</time></trkpt><trkpt lat="43.5457569" lon="6.971856"><ele>0.6666666666666666</ele><time>2026-04-12T05:07:47.93Z</time></trkpt><trkpt lat="43.5457346" lon="6.9717685"><ele>0.8333333333333333</ele><time>2026-04-12T05:07:48.924Z</time></trkpt><trkpt lat="43.5457091" lon="6.9716787"><ele>1.0</ele><time>2026-04-12T05:07:49.91Z</time></trkpt><trkpt lat="43.5456796" lon="6.9715933"><ele>1.1666666666666665</ele><time>2026-04-12T05:07:50.94Z</time></trkpt><trkpt lat="43.5456582" lon="6.9715109"><ele>1.3333333333333333</ele><time>2026-04-12T05:07:51.928Z</time></trkpt><trkpt lat="43.5456181" lon="6.9713474"><ele>1.5</ele><time>2026-04-12T05:07:53.925Z</time></trkpt><trkpt lat="43.5455925" lon="6.9712626"><ele>1.6666666666666665</ele><time>2026-04-12T05:07:54.929Z</time></trkpt><trkpt lat="43.5455677" lon="6.9711748"><ele>1.8333333333333333</ele><time>2026-04-12T05:07:55.922Z</time></trkpt><trkpt lat="43.5455455" lon="6.9710911"><ele>2.0</ele><time>2026-04-12T05:07:56.922Z</time></trkpt><trkpt lat="43.5455285" lon="6.9710015"><ele>2.0</ele><time>2026-04-12T05:07:57.927Z</time></trkpt><trkpt lat="43.5455061" lon="6.97092"><ele>2.0</ele><time>2026-04-12T05:07:58.929Z</time></trkpt><trkpt lat="43.5454544" lon="6.9707638"><ele>2.0</ele><time>2026-04-12T05:08:00.917Z</time></trkpt><trkpt lat="43.545417" lon="6.9706052"><ele>2.0</ele><time>2026-04-12T05:08:02.916Z</time></trkpt><trkpt lat="43.5453725" lon="6.9704577"><ele>2.0</ele><time>2026-04-12T05:08:04.917Z</time></trkpt><trkpt lat="43.5453293" lon="6.970316"><ele>1.75</ele><time>2026-04-12T05:08:06.921Z</time></trkpt><trkpt lat="43.5452764" lon="6.9701644"><ele>1.5</ele><time>2026-04-12T05:08:08.937Z</time></trkpt><trkpt lat="43.5452286" lon="6.9700168"><ele>1.25</ele><time>2026-04-12T05:08:10.923Z</time></trkpt><trkpt lat="43.5451847" lon="6.9698712"><ele>1.0</ele><time>2026-04-12T05:08:12.93Z</time></trkpt><trkpt lat="43.545141" lon="6.9697331"><ele>1.0</ele><time>2026-04-12T05:08:14.926Z</time></trkpt><trkpt lat="43.5450963" lon="6.9696075"><ele>1.0</ele><time>2026-04-12T05:08:16.943Z</time></trkpt><trkpt lat="43.5450465" lon="6.9694777"><ele>1.0</ele><time>2026-04-12T05:08:18.951Z</time></trkpt><trkpt lat="43.5449939" lon="6.9693586"><ele>1.0</ele><time>2026-04-12T05:08:20.936Z</time></trkpt><trkpt lat="43.5449524" lon="6.96924"><ele>1.0</ele><time>2026-04-12T05:08:22.914Z</time></trkpt><trkpt lat="43.544906" lon="6.9691285"><ele>1.3333333333333333</ele><time>2026-04-12T05:08:24.912Z</time></trkpt><trkpt lat="43.54486" lon="6.9690067"><ele>1.6666666666666665</ele><time>2026-04-12T05:08:26.927Z</time></trkpt><trkpt lat="43.5448156" lon="6.9689103"><ele>2.0</ele><time>2026-04-12T05:08:28.894Z</time></trkpt><trkpt lat="43.5447689" lon="6.9688113"><ele>2.3333333333333335</ele><time>2026-04-12T05:08:30.89Z</time></trkpt><trkpt lat="43.5447305" lon="6.9687305"><ele>2.6666666666666665</ele><time>2026-04-12T05:08:32.896Z</time></trkpt><trkpt lat="43.5446939" lon="6.9686493"><ele>3.0</ele><time>2026-04-12T05:08:34.923Z</time></trkpt><trkpt lat="43.5446627" lon="6.9685651"><ele>2.9999999999999996</ele><time>2026-04-12T05:08:36.922Z</time></trkpt><trkpt lat="43.544612" lon="6.9685015"><ele>3.0</ele><time>2026-04-12T05:08:39.923Z</time></trkpt><trkpt lat="43.5445806" lon="6.9684253"><ele>3.0</ele><time>2026-04-12T05:08:42.915Z</time></trkpt><trkpt lat="43.5445235" lon="6.9683844"><ele>3.0</ele><time>2026-04-12T05:08:56.897Z</time></trkpt><trkpt lat="43.5444935" lon="6.9683068"><ele>3.0</ele><time>2026-04-12T05:09:12.908Z</time></trkpt><trkpt lat="43.5444582" lon="6.9682301"><ele>2.9999999999999996</ele><time>2026-04-12T05:09:24.896Z</time></trkpt><trkpt lat="43.5444249" lon="6.9681543"><ele>3.0</ele><time>2026-04-12T05:09:33.9Z</time></trkpt><trkpt lat="43.5443949" lon="6.9680635"><ele>2.9999999999999996</ele><time>2026-04-12T05:09:40.926Z</time></trkpt><trkpt lat="43.5443661" lon="6.9679751"><ele>3.0</ele><time>2026-04-12T05:09:48.9Z</time></trkpt><trkpt lat="43.544333" lon="6.967901"><ele>3.0</ele><time>2026-04-12T05:09:56.862Z</time></trkpt><trkpt lat="43.5443081" lon="6.9678142"><ele>3.0</ele><time>2026-04-12T05:10:09.929Z</time></trkpt><trkpt lat="43.5442644" lon="6.9677286"><ele>3.0</ele><time>2026-04-12T05:10:19.897Z</time></trkpt><trkpt lat="43.5442392" lon="6.9676401"><ele>2.9999999999999996</ele><time>2026-04-12T05:10:30.914Z</time></trkpt><trkpt lat="43.5442135" lon="6.9675408"><ele>3.0</ele><time>2026-04-12T05:10:35.932Z</time></trkpt><trkpt lat="43.5441917" lon="6.967451"><ele>2.9999999999999996</ele><time>2026-04-12T05:10:40.929Z</time></trkpt><trkpt lat="43.5441796" lon="6.9673504"><ele>3.0</ele><time>2026-04-12T05:10:48.902Z</time></trkpt><trkpt lat="43.5441425" lon="6.967274"><ele>3.0</ele><time>2026-04-12T05:10:53.894Z</time></trkpt><trkpt lat="43.5441072" lon="6.9671982"><ele>3.0</ele><time>2026-04-12T05:10:58.9Z</time></trkpt><trkpt lat="43.5440708" lon="6.967125"><ele>3.0</ele><time>2026-04-12T05:11:04.913Z</time></trkpt><trkpt lat="43.5440798" lon="6.9670235"><ele>2.9999999999999996</ele><time>2026-04-12T05:11:10.894Z</time></trkpt><trkpt lat="43.5440599" lon="6.9669381"><ele>3.0</ele><time>2026-04-12T05:11:17.917Z</time></trkpt><trkpt lat="43.5440159" lon="6.9668625"><ele>3.0</ele><time>2026-04-12T05:12:34.874Z</time></trkpt><trkpt lat="43.5439999" lon="6.9667712"><ele>3.0</ele><time>2026-04-12T05:30:48.914Z</time></trkpt><trkpt lat="43.5439621" lon="6.9666529"><ele>3.0</ele><time>2026-04-12T05:30:54.897Z</time></trkpt><trkpt lat="43.5439337" lon="6.9665012"><ele>3.0</ele><time>2026-04-12T05:30:56.916Z</time></trkpt><trkpt lat="43.5439042" lon="6.9663502"><ele>3.0</ele><time>2026-04-12T05:30:58.909Z</time></trkpt><trkpt lat="43.5438711" lon="6.9662631"><ele>2.9999999999999996</ele><time>2026-04-12T05:30:59.899Z</time></trkpt><trkpt lat="43.5438453" lon="6.966173"><ele>3.0</ele><time>2026-04-12T05:31:00.884Z</time></trkpt><trkpt lat="43.5438146" lon="6.9660892"><ele>3.0</ele><time>2026-04-12T05:31:01.885Z</time></trkpt><trkpt lat="43.5437845" lon="6.9660004"><ele>3.0</ele><time>2026-04-12T05:31:02.922Z</time></trkpt><trkpt lat="43.5437493" lon="6.9659111"><ele>3.0</ele><time>2026-04-12T05:31:03.905Z</time></trkpt><trkpt lat="43.543713" lon="6.9658115"><ele>2.9999999999999996</ele><time>2026-04-12T05:31:04.906Z</time></trkpt><trkpt lat="43.5436772" lon="6.9657051"><ele>3.0</ele><time>2026-04-12T05:31:05.904Z</time></trkpt><trkpt lat="43.5436337" lon="6.9656032"><ele>3.0</ele><time>2026-04-12T05:31:06.938Z</time></trkpt><trkpt lat="43.5435882" lon="6.965501"><ele>3.0</ele><time>2026-04-12T05:31:07.906Z</time></trkpt><trkpt lat="43.5435423" lon="6.9653851"><ele>3.0</ele><time>2026-04-12T05:31:08.916Z</time></trkpt><trkpt lat="43.543496" lon="6.9652692"><ele>3.0</ele><time>2026-04-12T05:31:09.921Z</time></trkpt><trkpt lat="43.5434497" lon="6.9651507"><ele>3.0</ele><time>2026-04-12T05:31:10.925Z</time></trkpt><trkpt lat="43.5434018" lon="6.9650275"><ele>4.2</ele><time>2026-04-12T05:31:11.924Z</time></trkpt><trkpt lat="43.5433512" lon="6.9649066"><ele>5.4</ele><time>2026-04-12T05:31:12.91Z</time></trkpt><trkpt lat="43.5433048" lon="6.9647822"><ele>6.6000000000000005</ele><time>2026-04-12T05:31:13.92Z</time></trkpt><trkpt lat="43.5432584" lon="6.9646631"><ele>7.8</ele><time>2026-04-12T05:31:14.93Z</time></trkpt><trkpt lat="43.5432092" lon="6.9645276"><ele>9.0</ele><time>2026-04-12T05:31:15.913Z</time></trkpt><trkpt lat="43.5431646" lon="6.9643942"><ele>9.0</ele><time>2026-04-12T05:31:16.913Z</time></trkpt><trkpt lat="43.5431146" lon="6.9642616"><ele>9.0</ele><time>2026-04-12T05:31:17.919Z</time></trkpt><trkpt lat="43.5430681" lon="6.9641276"><ele>9.0</ele><time>2026-04-12T05:31:18.924Z</time></trkpt><trkpt lat="43.5430111" lon="6.9640029"><ele>9.0</ele><time>2026-04-12T05:31:19.932Z</time></trkpt><trkpt lat="43.5429546" lon="6.9638789"><ele>9.0</ele><time>2026-04-12T05:31:20.889Z</time></trkpt><trkpt lat="43.5428958" lon="6.9637531"><ele>9.0</ele><time>2026-04-12T05:31:21.932Z</time></trkpt><trkpt lat="43.5428347" lon="6.9636295"><ele>9.0</ele><time>2026-04-12T05:31:22.931Z</time></trkpt><trkpt lat="43.5427779" lon="6.9635188"><ele>9.0</ele><time>2026-04-12T05:31:23.927Z</time></trkpt><trkpt lat="43.5427171" lon="6.9634005"><ele>9.0</ele><time>2026-04-12T05:31:24.916Z</time></trkpt><trkpt lat="43.5426561" lon="6.9632788"><ele>9.0</ele><time>2026-04-12T05:31:25.895Z</time></trkpt><trkpt lat="43.5425918" lon="6.9631629"><ele>9.0</ele><time>2026-04-12T05:31:26.912Z</time></trkpt><trkpt lat="43.5425352" lon="6.9630385"><ele>9.0</ele><time>2026-04-12T05:31:27.867Z</time></trkpt><trkpt lat="43.542476" lon="6.9629111"><ele>9.0</ele><time>2026-04-12T05:31:28.93Z</time></trkpt><trkpt lat="43.5424123" lon="6.9627812"><ele>9.0</ele><time>2026-04-12T05:31:29.909Z</time></trkpt><trkpt lat="43.5423504" lon="6.9626576"><ele>9.0</ele><time>2026-04-12T05:31:30.876Z</time></trkpt><trkpt lat="43.542288" lon="6.9625285"><ele>9.4</ele><time>2026-04-12T05:31:31.913Z</time></trkpt><trkpt lat="43.5422239" lon="6.9624009"><ele>9.8</ele><time>2026-04-12T05:31:32.925Z</time></trkpt><trkpt lat="43.5421712" lon="6.9622873"><ele>10.200000000000001</ele><time>2026-04-12T05:31:33.941Z</time></trkpt><trkpt lat="43.5421176" lon="6.9621731"><ele>10.600000000000001</ele><time>2026-04-12T05:31:34.921Z</time></trkpt><trkpt lat="43.5420644" lon="6.962069"><ele>11.0</ele><time>2026-04-12T05:31:35.898Z</time></trkpt><trkpt lat="43.5420229" lon="6.9619761"><ele>10.166666666666666</ele><time>2026-04-12T05:31:36.925Z</time></trkpt><trkpt lat="43.5419842" lon="6.9619011"><ele>9.333333333333332</ele><time>2026-04-12T05:31:37.933Z</time></trkpt><trkpt lat="43.5419459" lon="6.9617722"><ele>8.5</ele><time>2026-04-12T05:31:39.924Z</time></trkpt><trkpt lat="43.5419126" lon="6.9616634"><ele>7.666666666666666</ele><time>2026-04-12T05:31:41.906Z</time></trkpt><trkpt lat="43.5418649" lon="6.9615645"><ele>6.833333333333333</ele><time>2026-04-12T05:31:43.931Z</time></trkpt><trkpt lat="43.5418133" lon="6.9614423"><ele>6.0</ele><time>2026-04-12T05:31:45.914Z</time></trkpt><trkpt lat="43.5417865" lon="6.9613616"><ele>5.999999999999999</ele><time>2026-04-12T05:31:46.899Z</time></trkpt><trkpt lat="43.5417737" lon="6.96127"><ele>6.0</ele><time>2026-04-12T05:31:47.886Z</time></trkpt><trkpt lat="43.5417873" lon="6.9611846"><ele>6.0</ele><time>2026-04-12T05:31:48.902Z</time></trkpt><trkpt lat="43.5418184" lon="6.9611086"><ele>6.0</ele><time>2026-04-12T05:31:49.93Z</time></trkpt><trkpt lat="43.5418602" lon="6.9610372"><ele>6.0</ele><time>2026-04-12T05:31:50.931Z</time></trkpt><trkpt lat="43.5419084" lon="6.9609718"><ele>5.999999999999999</ele><time>2026-04-12T05:31:51.91Z</time></trkpt><trkpt lat="43.5419648" lon="6.9609145"><ele>6.0</ele><time>2026-04-12T05:31:52.951Z</time></trkpt><trkpt lat="43.5420338" lon="6.9608313"><ele>6.166666666666667</ele><time>2026-04-12T05:31:53.928Z</time></trkpt><trkpt lat="43.5421168" lon="6.9607465"><ele>6.333333333333334</ele><time>2026-04-12T05:31:54.916Z</time></trkpt><trkpt lat="43.5421951" lon="6.9606607"><ele>6.5</ele><time>2026-04-12T05:31:55.912Z</time></trkpt><trkpt lat="43.5422602" lon="6.960593"><ele>6.666666666666667</ele><time>2026-04-12T05:31:56.928Z</time></trkpt><trkpt lat="43.5423226" lon="6.9605433"><ele>6.833333333333334</ele><time>2026-04-12T05:31:57.922Z</time></trkpt><trkpt lat="43.5423856" lon="6.9604984"><ele>7.0</ele><time>2026-04-12T05:31:58.927Z</time></trkpt><trkpt lat="43.5424614" lon="6.9604364"><ele>7.000000000000001</ele><time>2026-04-12T05:31:59.925Z</time></trkpt><trkpt lat="43.542534" lon="6.9603672"><ele>7.0</ele><time>2026-04-12T05:32:00.87Z</time></trkpt><trkpt lat="43.5425989" lon="6.9602962"><ele>7.0</ele><time>2026-04-12T05:32:01.932Z</time></trkpt><trkpt lat="43.5426633" lon="6.9602233"><ele>7.0</ele><time>2026-04-12T05:32:02.899Z</time></trkpt><trkpt lat="43.5427251" lon="6.9601457"><ele>7.000000000000001</ele><time>2026-04-12T05:32:03.923Z</time></trkpt><trkpt lat="43.5427875" lon="6.960088"><ele>7.0</ele><time>2026-04-12T05:32:04.929Z</time></trkpt><trkpt lat="43.5428466" lon="6.9600224"><ele>6.666666666666667</ele><time>2026-04-12T05:32:05.901Z</time></trkpt><trkpt lat="43.5429068" lon="6.9599679"><ele>6.333333333333334</ele><time>2026-04-12T05:32:06.918Z</time></trkpt><trkpt lat="43.54297" lon="6.9599289"><ele>6.0</ele><time>2026-04-12T05:32:07.918Z</time></trkpt><trkpt lat="43.5430407" lon="6.9599158"><ele>5.666666666666667</ele><time>2026-04-12T05:32:08.892Z</time></trkpt><trkpt lat="43.5431061" lon="6.9599418"><ele>5.333333333333334</ele><time>2026-04-12T05:32:09.916Z</time></trkpt><trkpt lat="43.543206" lon="6.960003"><ele>5.0</ele><time>2026-04-12T05:32:11.911Z</time></trkpt><trkpt lat="43.5433076" lon="6.9600308"><ele>5.0</ele><time>2026-04-12T05:32:13.926Z</time></trkpt><trkpt lat="43.543375" lon="6.960015"><ele>5.0</ele><time>2026-04-12T05:32:14.925Z</time></trkpt><trkpt lat="43.5434413" lon="6.9599916"><ele>5.0</ele><time>2026-04-12T05:32:15.917Z</time></trkpt><trkpt lat="43.5435117" lon="6.9600068"><ele>5.0</ele><time>2026-04-12T05:32:16.928Z</time></trkpt><trkpt lat="43.5435855" lon="6.9600349"><ele>5.0</ele><time>2026-04-12T05:32:17.904Z</time></trkpt><trkpt lat="43.5436529" lon="6.96008"><ele>5.0</ele><time>2026-04-12T05:32:18.906Z</time></trkpt><trkpt lat="43.54371" lon="6.9601397"><ele>5.0</ele><time>2026-04-12T05:32:19.938Z</time></trkpt><trkpt lat="43.5437618" lon="6.9601951"><ele>5.0</ele><time>2026-04-12T05:32:20.905Z</time></trkpt><trkpt lat="43.5438151" lon="6.9602455"><ele>5.0</ele><time>2026-04-12T05:32:21.885Z</time></trkpt><trkpt lat="43.5438712" lon="6.9602879"><ele>5.0</ele><time>2026-04-12T05:32:22.942Z</time></trkpt><trkpt lat="43.5439378" lon="6.9603245"><ele>5.0</ele><time>2026-04-12T05:32:23.935Z</time></trkpt><trkpt lat="43.5440089" lon="6.9603647"><ele>5.0</ele><time>2026-04-12T05:32:24.931Z</time></trkpt><trkpt lat="43.5440835" lon="6.9604129"><ele>5.0</ele><time>2026-04-12T05:32:25.925Z</time></trkpt><trkpt lat="43.5441555" lon="6.9604848"><ele>5.0</ele><time>2026-04-12T05:32:26.895Z</time></trkpt><trkpt lat="43.5442227" lon="6.9605673"><ele>5.0</ele><time>2026-04-12T05:32:27.912Z</time></trkpt><trkpt lat="43.5442954" lon="6.9606527"><ele>5.0</ele><time>2026-04-12T05:32:28.884Z</time></trkpt><trkpt lat="43.5443696" lon="6.9607378"><ele>5.0</ele><time>2026-04-12T05:32:29.93Z</time></trkpt><trkpt lat="43.5444418" lon="6.9608225"><ele>5.0</ele><time>2026-04-12T05:32:30.92Z</time></trkpt><trkpt lat="43.5445208" lon="6.9609056"><ele>5.0</ele><time>2026-04-12T05:32:31.917Z</time></trkpt><trkpt lat="43.5446018" lon="6.9609843"><ele>4.6</ele><time>2026-04-12T05:32:32.927Z</time></trkpt><trkpt lat="43.5446777" lon="6.9610673"><ele>4.2</ele><time>2026-04-12T05:32:33.904Z</time></trkpt><trkpt lat="43.5447599" lon="6.9611536"><ele>3.8</ele><time>2026-04-12T05:32:34.929Z</time></trkpt><trkpt lat="43.5448418" lon="6.9612351"><ele>3.4</ele><time>2026-04-12T05:32:35.94Z</time></trkpt><trkpt lat="43.5449201" lon="6.9613191"><ele>3.0</ele><time>2026-04-12T05:32:36.894Z</time></trkpt><trkpt lat="43.5449954" lon="6.9614015"><ele>3.0</ele><time>2026-04-12T05:32:37.929Z</time></trkpt><trkpt lat="43.5450712" lon="6.9614873"><ele>3.0</ele><time>2026-04-12T05:32:38.942Z</time></trkpt><trkpt lat="43.5451482" lon="6.9615698"><ele>3.0</ele><time>2026-04-12T05:32:39.94Z</time></trkpt><trkpt lat="43.5452278" lon="6.9616416"><ele>3.0</ele><time>2026-04-12T05:32:40.924Z</time></trkpt><trkpt lat="43.5453066" lon="6.9617097"><ele>3.0</ele><time>2026-04-12T05:32:41.92Z</time></trkpt><trkpt lat="43.5453822" lon="6.9617834"><ele>3.0</ele><time>2026-04-12T05:32:42.933Z</time></trkpt><trkpt lat="43.5454577" lon="6.9618455"><ele>3.0</ele><time>2026-04-12T05:32:43.935Z</time></trkpt><trkpt lat="43.5455386" lon="6.9619067"><ele>3.0</ele><time>2026-04-12T05:32:44.919Z</time></trkpt><trkpt lat="43.545621" lon="6.9619564"><ele>3.0</ele><time>2026-04-12T05:32:45.938Z</time></trkpt><trkpt lat="43.5457035" lon="6.9619984"><ele>3.0</ele><time>2026-04-12T05:32:46.914Z</time></trkpt><trkpt lat="43.5457911" lon="6.9620447"><ele>3.0</ele><time>2026-04-12T05:32:47.929Z</time></trkpt><trkpt lat="43.5458814" lon="6.9620912"><ele>3.0</ele><time>2026-04-12T05:32:48.929Z</time></trkpt><trkpt lat="43.5459706" lon="6.9621285"><ele>3.0</ele><time>2026-04-12T05:32:49.917Z</time></trkpt><trkpt lat="43.5460583" lon="6.9621617"><ele>3.0</ele><time>2026-04-12T05:32:50.918Z</time></trkpt><trkpt lat="43.5461449" lon="6.9621999"><ele>3.0</ele><time>2026-04-12T05:32:51.917Z</time></trkpt><trkpt lat="43.5462246" lon="6.9622354"><ele>3.666666666666667</ele><time>2026-04-12T05:32:52.898Z</time></trkpt><trkpt lat="43.5463057" lon="6.9622756"><ele>4.333333333333334</ele><time>2026-04-12T05:32:53.947Z</time></trkpt><trkpt lat="43.5463815" lon="6.9623114"><ele>5.0</ele><time>2026-04-12T05:32:54.928Z</time></trkpt><trkpt lat="43.5464647" lon="6.9623424"><ele>5.666666666666667</ele><time>2026-04-12T05:32:55.912Z</time></trkpt><trkpt lat="43.5465481" lon="6.962367"><ele>6.333333333333334</ele><time>2026-04-12T05:32:56.916Z</time></trkpt><trkpt lat="43.5466371" lon="6.9623767"><ele>7.0</ele><time>2026-04-12T05:32:57.923Z</time></trkpt><trkpt lat="43.546726" lon="6.9623767"><ele>7.0</ele><time>2026-04-12T05:32:58.913Z</time></trkpt><trkpt lat="43.5468192" lon="6.9623735"><ele>6.999999999999999</ele><time>2026-04-12T05:32:59.944Z</time></trkpt><trkpt lat="43.5469139" lon="6.9623637"><ele>6.999999999999999</ele><time>2026-04-12T05:33:00.91Z</time></trkpt><trkpt lat="43.547012" lon="6.9623596"><ele>7.0</ele><time>2026-04-12T05:33:01.927Z</time></trkpt><trkpt lat="43.5471066" lon="6.9623534"><ele>7.0</ele><time>2026-04-12T05:33:02.934Z</time></trkpt><trkpt lat="43.5471975" lon="6.9623442"><ele>6.666666666666667</ele><time>2026-04-12T05:33:03.929Z</time></trkpt><trkpt lat="43.5472864" lon="6.9623368"><ele>6.333333333333334</ele><time>2026-04-12T05:33:04.883Z</time></trkpt><trkpt lat="43.5473742" lon="6.9623265"><ele>6.0</ele><time>2026-04-12T05:33:05.896Z</time></trkpt><trkpt lat="43.5474618" lon="6.9623151"><ele>5.666666666666667</ele><time>2026-04-12T05:33:06.877Z</time></trkpt><trkpt lat="43.5475516" lon="6.9623129"><ele>5.333333333333334</ele><time>2026-04-12T05:33:07.922Z</time></trkpt><trkpt lat="43.5476361" lon="6.9623083"><ele>5.0</ele><time>2026-04-12T05:33:08.9Z</time></trkpt><trkpt lat="43.547724" lon="6.962304"><ele>5.0</ele><time>2026-04-12T05:33:09.895Z</time></trkpt><trkpt lat="43.5478103" lon="6.9623026"><ele>5.0</ele><time>2026-04-12T05:33:10.917Z</time></trkpt><trkpt lat="43.5479003" lon="6.9622947"><ele>5.0</ele><time>2026-04-12T05:33:11.949Z</time></trkpt><trkpt lat="43.5479966" lon="6.9622862"><ele>5.0</ele><time>2026-04-12T05:33:12.861Z</time></trkpt><trkpt lat="43.5480949" lon="6.9622834"><ele>5.0</ele><time>2026-04-12T05:33:13.927Z</time></trkpt><trkpt lat="43.54819" lon="6.9622805"><ele>4.8</ele><time>2026-04-12T05:33:14.929Z</time></trkpt><trkpt lat="43.548287" lon="6.9622668"><ele>4.6</ele><time>2026-04-12T05:33:15.927Z</time></trkpt><trkpt lat="43.5483825" lon="6.9622594"><ele>4.4</ele><time>2026-04-12T05:33:16.922Z</time></trkpt><trkpt lat="43.5484758" lon="6.962249"><ele>4.2</ele><time>2026-04-12T05:33:17.929Z</time></trkpt><trkpt lat="43.5485694" lon="6.9622423"><ele>4.0</ele><time>2026-04-12T05:33:18.911Z</time></trkpt><trkpt lat="43.5486612" lon="6.9622369"><ele>3.8000000000000003</ele><time>2026-04-12T05:33:19.909Z</time></trkpt><trkpt lat="43.5487595" lon="6.9622276"><ele>3.6000000000000005</ele><time>2026-04-12T05:33:20.935Z</time></trkpt><trkpt lat="43.5488512" lon="6.962223"><ele>3.4</ele><time>2026-04-12T05:33:21.931Z</time></trkpt><trkpt lat="43.5489456" lon="6.9622209"><ele>3.2</ele><time>2026-04-12T05:33:22.943Z</time></trkpt><trkpt lat="43.5490404" lon="6.9622133"><ele>3.0</ele><time>2026-04-12T05:33:23.899Z</time></trkpt><trkpt lat="43.5491281" lon="6.9622035"><ele>3.0</ele><time>2026-04-12T05:33:24.935Z</time></trkpt><trkpt lat="43.549219" lon="6.9622005"><ele>3.0</ele><time>2026-04-12T05:33:25.93Z</time></trkpt><trkpt lat="43.5493031" lon="6.9621997"><ele>3.0</ele><time>2026-04-12T05:33:26.903Z</time></trkpt><trkpt lat="43.549377" lon="6.9622009"><ele>3.0</ele><time>2026-04-12T05:33:27.944Z</time></trkpt><trkpt lat="43.549451" lon="6.962205"><ele>3.0</ele><time>2026-04-12T05:33:28.893Z</time></trkpt><trkpt lat="43.5495258" lon="6.9622021"><ele>3.0</ele><time>2026-04-12T05:33:29.928Z</time></trkpt><trkpt lat="43.5496024" lon="6.9621987"><ele>3.0</ele><time>2026-04-12T05:33:30.925Z</time></trkpt><trkpt lat="43.5496771" lon="6.9621975"><ele>3.0</ele><time>2026-04-12T05:33:31.912Z</time></trkpt><trkpt lat="43.5497563" lon="6.9622037"><ele>3.0</ele><time>2026-04-12T05:33:32.913Z</time></trkpt><trkpt lat="43.5498386" lon="6.9622208"><ele>3.0</ele><time>2026-04-12T05:33:33.908Z</time></trkpt><trkpt lat="43.5499154" lon="6.9622437"><ele>3.0</ele><time>2026-04-12T05:33:34.933Z</time></trkpt><trkpt lat="43.5499795" lon="6.9622997"><ele>3.0</ele><time>2026-04-12T05:33:35.922Z</time></trkpt><trkpt lat="43.5500297" lon="6.9623618"><ele>3.0</ele><time>2026-04-12T05:33:36.89Z</time></trkpt><trkpt lat="43.550099" lon="6.9624793"><ele>3.0</ele><time>2026-04-12T05:33:38.928Z</time></trkpt><trkpt lat="43.5501835" lon="6.9625098"><ele>3.0</ele><time>2026-04-12T05:33:40.935Z</time></trkpt><trkpt lat="43.5502675" lon="6.962479"><ele>3.0</ele><time>2026-04-12T05:33:42.925Z</time></trkpt><trkpt lat="43.5503195" lon="6.9623855"><ele>3.0</ele><time>2026-04-12T05:33:44.934Z</time></trkpt><trkpt lat="43.5503219" lon="6.9622273"><ele>3.0</ele><time>2026-04-12T05:33:46.911Z</time></trkpt><trkpt lat="43.5502433" lon="6.9620866"><ele>3.0</ele><time>2026-04-12T05:33:48.928Z</time></trkpt><trkpt lat="43.5502046" lon="6.9620084"><ele>3.0</ele><time>2026-04-12T05:33:49.909Z</time></trkpt><trkpt lat="43.5501956" lon="6.9619165"><ele>3.0</ele><time>2026-04-12T05:33:50.884Z</time></trkpt><trkpt lat="43.5501955" lon="6.9618242"><ele>3.0</ele><time>2026-04-12T05:33:51.935Z</time></trkpt><trkpt lat="43.5502012" lon="6.9617291"><ele>3.0</ele><time>2026-04-12T05:33:52.913Z</time></trkpt><trkpt lat="43.5502133" lon="6.9616236"><ele>2.8</ele><time>2026-04-12T05:33:53.948Z</time></trkpt><trkpt lat="43.5502214" lon="6.9615056"><ele>2.5999999999999996</ele><time>2026-04-12T05:33:54.927Z</time></trkpt><trkpt lat="43.5502351" lon="6.9613771"><ele>2.4000000000000004</ele><time>2026-04-12T05:33:55.904Z</time></trkpt><trkpt lat="43.5502496" lon="6.9612626"><ele>2.2</ele><time>2026-04-12T05:33:56.943Z</time></trkpt><trkpt lat="43.5502665" lon="6.9611372"><ele>2.0</ele><time>2026-04-12T05:33:57.916Z</time></trkpt><trkpt lat="43.5502799" lon="6.9610011"><ele>2.0</ele><time>2026-04-12T05:33:58.928Z</time></trkpt><trkpt lat="43.550286" lon="6.960874"><ele>2.0</ele><time>2026-04-12T05:33:59.916Z</time></trkpt><trkpt lat="43.5502919" lon="6.9607406"><ele>2.0</ele><time>2026-04-12T05:34:00.951Z</time></trkpt><trkpt lat="43.550298" lon="6.9606083"><ele>2.0</ele><time>2026-04-12T05:34:01.923Z</time></trkpt><trkpt lat="43.5503017" lon="6.9604819"><ele>2.0</ele><time>2026-04-12T05:34:02.939Z</time></trkpt><trkpt lat="43.550307" lon="6.9603596"><ele>2.333333333333333</ele><time>2026-04-12T05:34:03.914Z</time></trkpt><trkpt lat="43.5503133" lon="6.9602418"><ele>2.6666666666666665</ele><time>2026-04-12T05:34:04.931Z</time></trkpt><trkpt lat="43.5503179" lon="6.9601219"><ele>3.0</ele><time>2026-04-12T05:34:05.931Z</time></trkpt><trkpt lat="43.5503259" lon="6.9600092"><ele>3.333333333333333</ele><time>2026-04-12T05:34:06.927Z</time></trkpt><trkpt lat="43.5503301" lon="6.9599012"><ele>3.6666666666666665</ele><time>2026-04-12T05:34:07.909Z</time></trkpt><trkpt lat="43.5503346" lon="6.9597964"><ele>4.0</ele><time>2026-04-12T05:34:08.907Z</time></trkpt><trkpt lat="43.5503381" lon="6.9596869"><ele>3.9999999999999996</ele><time>2026-04-12T05:34:09.926Z</time></trkpt><trkpt lat="43.5503421" lon="6.9595845"><ele>4.0</ele><time>2026-04-12T05:34:10.933Z</time></trkpt><trkpt lat="43.5503493" lon="6.9594788"><ele>4.0</ele><time>2026-04-12T05:34:11.902Z</time></trkpt><trkpt lat="43.550357" lon="6.959368"><ele>4.0</ele><time>2026-04-12T05:34:12.906Z</time></trkpt><trkpt lat="43.5503605" lon="6.9592634"><ele>3.9999999999999996</ele><time>2026-04-12T05:34:13.933Z</time></trkpt><trkpt lat="43.5503674" lon="6.9591566"><ele>4.0</ele><time>2026-04-12T05:34:14.922Z</time></trkpt><trkpt lat="43.5503779" lon="6.9590548"><ele>4.5</ele><time>2026-04-12T05:34:15.917Z</time></trkpt><trkpt lat="43.5503809" lon="6.9589458"><ele>5.0</ele><time>2026-04-12T05:34:16.862Z</time></trkpt><trkpt lat="43.5503874" lon="6.9588319"><ele>5.5</ele><time>2026-04-12T05:34:17.93Z</time></trkpt><trkpt lat="43.5503926" lon="6.958723"><ele>6.0</ele><time>2026-04-12T05:34:18.92Z</time></trkpt><trkpt lat="43.5503993" lon="6.9586097"><ele>6.500000000000001</ele><time>2026-04-12T05:34:19.913Z</time></trkpt><trkpt lat="43.5504074" lon="6.9585027"><ele>7.0</ele><time>2026-04-12T05:34:20.911Z</time></trkpt><trkpt lat="43.5504137" lon="6.9583939"><ele>7.000000000000001</ele><time>2026-04-12T05:34:21.937Z</time></trkpt><trkpt lat="43.5504164" lon="6.9582813"><ele>7.0</ele><time>2026-04-12T05:34:22.911Z</time></trkpt><trkpt lat="43.5504265" lon="6.958174"><ele>7.0</ele><time>2026-04-12T05:34:23.941Z</time></trkpt><trkpt lat="43.5504318" lon="6.9580678"><ele>7.0</ele><time>2026-04-12T05:34:24.916Z</time></trkpt><trkpt lat="43.5504343" lon="6.9579783"><ele>7.000000000000001</ele><time>2026-04-12T05:34:25.924Z</time></trkpt><trkpt lat="43.5504362" lon="6.9578254"><ele>7.0</ele><time>2026-04-12T05:34:27.924Z</time></trkpt><trkpt lat="43.5504466" lon="6.9576861"><ele>7.0</ele><time>2026-04-12T05:34:29.923Z</time></trkpt><trkpt lat="43.5505041" lon="6.9575577"><ele>6.999999999999999</ele><time>2026-04-12T05:34:31.867Z</time></trkpt><trkpt lat="43.5505781" lon="6.9574336"><ele>6.999999999999999</ele><time>2026-04-12T05:34:33.943Z</time></trkpt><trkpt lat="43.5506181" lon="6.9572652"><ele>7.0</ele><time>2026-04-12T05:34:35.92Z</time></trkpt><trkpt lat="43.5506445" lon="6.9571694"><ele>7.0</ele><time>2026-04-12T05:34:36.927Z</time></trkpt><trkpt lat="43.550686" lon="6.9570699"><ele>6.833333333333334</ele><time>2026-04-12T05:34:37.931Z</time></trkpt><trkpt lat="43.5507302" lon="6.9569714"><ele>6.666666666666667</ele><time>2026-04-12T05:34:38.921Z</time></trkpt><trkpt lat="43.5507777" lon="6.9568637"><ele>6.5</ele><time>2026-04-12T05:34:39.911Z</time></trkpt><trkpt lat="43.5508273" lon="6.9567694"><ele>6.333333333333334</ele><time>2026-04-12T05:34:40.902Z</time></trkpt><trkpt lat="43.5508712" lon="6.9566769"><ele>6.166666666666667</ele><time>2026-04-12T05:34:41.928Z</time></trkpt><trkpt lat="43.5509212" lon="6.9565904"><ele>6.0</ele><time>2026-04-12T05:34:42.901Z</time></trkpt><trkpt lat="43.5509655" lon="6.9565051"><ele>6.0</ele><time>2026-04-12T05:34:43.933Z</time></trkpt><trkpt lat="43.5510139" lon="6.956431"><ele>6.0</ele><time>2026-04-12T05:34:44.911Z</time></trkpt><trkpt lat="43.5510576" lon="6.9563559"><ele>6.0</ele><time>2026-04-12T05:34:45.914Z</time></trkpt><trkpt lat="43.5511125" lon="6.9562717"><ele>6.0</ele><time>2026-04-12T05:34:46.912Z</time></trkpt><trkpt lat="43.5511765" lon="6.9561868"><ele>6.0</ele><time>2026-04-12T05:34:47.925Z</time></trkpt><trkpt lat="43.5512436" lon="6.956099"><ele>6.0</ele><time>2026-04-12T05:34:48.916Z</time></trkpt><trkpt lat="43.5513187" lon="6.9560203"><ele>6.0</ele><time>2026-04-12T05:34:49.912Z</time></trkpt><trkpt lat="43.5513882" lon="6.9559486"><ele>6.0</ele><time>2026-04-12T05:34:50.884Z</time></trkpt><trkpt lat="43.5514527" lon="6.9558701"><ele>6.0</ele><time>2026-04-12T05:34:51.934Z</time></trkpt><trkpt lat="43.551518" lon="6.9558013"><ele>6.0</ele><time>2026-04-12T05:34:52.93Z</time></trkpt><trkpt lat="43.5515883" lon="6.9557349"><ele>6.0</ele><time>2026-04-12T05:34:53.908Z</time></trkpt><trkpt lat="43.5516626" lon="6.9556804"><ele>6.0</ele><time>2026-04-12T05:34:54.946Z</time></trkpt><trkpt lat="43.5517375" lon="6.9556317"><ele>6.0</ele><time>2026-04-12T05:34:55.888Z</time></trkpt><trkpt lat="43.5518087" lon="6.9555829"><ele>6.0</ele><time>2026-04-12T05:34:56.949Z</time></trkpt><trkpt lat="43.5518882" lon="6.9555338"><ele>6.0</ele><time>2026-04-12T05:34:57.931Z</time></trkpt><trkpt lat="43.5519738" lon="6.9554944"><ele>6.0</ele><time>2026-04-12T05:34:58.901Z</time></trkpt><trkpt lat="43.5520568" lon="6.9554549"><ele>6.0</ele><time>2026-04-12T05:34:59.876Z</time></trkpt><trkpt lat="43.5521432" lon="6.9554088"><ele>6.0</ele><time>2026-04-12T05:35:00.927Z</time></trkpt><trkpt lat="43.552226" lon="6.955373"><ele>6.0</ele><time>2026-04-12T05:35:01.897Z</time></trkpt><trkpt lat="43.5523095" lon="6.9553364"><ele>6.0</ele><time>2026-04-12T05:35:02.864Z</time></trkpt><trkpt lat="43.5523894" lon="6.955295"><ele>6.0</ele><time>2026-04-12T05:35:03.931Z</time></trkpt><trkpt lat="43.5524702" lon="6.9552598"><ele>6.0</ele><time>2026-04-12T05:35:04.928Z</time></trkpt><trkpt lat="43.5525537" lon="6.9552272"><ele>6.0</ele><time>2026-04-12T05:35:05.918Z</time></trkpt><trkpt lat="43.5526359" lon="6.955199"><ele>6.0</ele><time>2026-04-12T05:35:06.924Z</time></trkpt><trkpt lat="43.5527206" lon="6.9551703"><ele>6.0</ele><time>2026-04-12T05:35:07.894Z</time></trkpt><trkpt lat="43.5528053" lon="6.9551349"><ele>6.0</ele><time>2026-04-12T05:35:08.897Z</time></trkpt><trkpt lat="43.5528851" lon="6.9551085"><ele>6.0</ele><time>2026-04-12T05:35:09.924Z</time></trkpt><trkpt lat="43.5529672" lon="6.9550786"><ele>6.0</ele><time>2026-04-12T05:35:10.933Z</time></trkpt><trkpt lat="43.5530445" lon="6.9550473"><ele>6.0</ele><time>2026-04-12T05:35:11.883Z</time></trkpt><trkpt lat="43.5531222" lon="6.9550142"><ele>6.0</ele><time>2026-04-12T05:35:12.921Z</time></trkpt><trkpt lat="43.5531963" lon="6.9549878"><ele>5.833333333333333</ele><time>2026-04-12T05:35:13.917Z</time></trkpt><trkpt lat="43.5532704" lon="6.9549536"><ele>5.666666666666667</ele><time>2026-04-12T05:35:14.911Z</time></trkpt><trkpt lat="43.5533433" lon="6.9549237"><ele>5.5</ele><time>2026-04-12T05:35:15.933Z</time></trkpt><trkpt lat="43.5534145" lon="6.9548906"><ele>5.333333333333334</ele><time>2026-04-12T05:35:16.913Z</time></trkpt><trkpt lat="43.5534941" lon="6.9548622"><ele>5.166666666666667</ele><time>2026-04-12T05:35:17.907Z</time></trkpt><trkpt lat="43.5535682" lon="6.9548435"><ele>5.0</ele><time>2026-04-12T05:35:18.913Z</time></trkpt><trkpt lat="43.5536416" lon="6.9548173"><ele>5.142857142857142</ele><time>2026-04-12T05:35:19.92Z</time></trkpt><trkpt lat="43.5537125" lon="6.9547863"><ele>5.285714285714286</ele><time>2026-04-12T05:35:20.925Z</time></trkpt><trkpt lat="43.5537856" lon="6.9547607"><ele>5.428571428571429</ele><time>2026-04-12T05:35:21.933Z</time></trkpt><trkpt lat="43.5538569" lon="6.9547355"><ele>5.571428571428571</ele><time>2026-04-12T05:35:22.913Z</time></trkpt><trkpt lat="43.5539313" lon="6.9547138"><ele>5.714285714285714</ele><time>2026-04-12T05:35:23.926Z</time></trkpt><trkpt lat="43.5540008" lon="6.9546897"><ele>5.857142857142857</ele><time>2026-04-12T05:35:24.914Z</time></trkpt><trkpt lat="43.5540705" lon="6.9546603"><ele>6.0</ele><time>2026-04-12T05:35:25.927Z</time></trkpt><trkpt lat="43.5541407" lon="6.9546433"><ele>6.0</ele><time>2026-04-12T05:35:26.934Z</time></trkpt><trkpt lat="43.5542555" lon="6.9546037"><ele>6.0</ele><time>2026-04-12T05:35:28.896Z</time></trkpt><trkpt lat="43.5543593" lon="6.954578"><ele>6.0</ele><time>2026-04-12T05:35:30.91Z</time></trkpt><trkpt lat="43.5544644" lon="6.9545689"><ele>6.0</ele><time>2026-04-12T05:35:32.932Z</time></trkpt><trkpt lat="43.5545264" lon="6.9545527"><ele>6.0</ele><time>2026-04-12T05:35:33.934Z</time></trkpt><trkpt lat="43.5545945" lon="6.9545343"><ele>6.166666666666667</ele><time>2026-04-12T05:35:34.93Z</time></trkpt><trkpt lat="43.5546624" lon="6.9545123"><ele>6.333333333333334</ele><time>2026-04-12T05:35:35.911Z</time></trkpt><trkpt lat="43.5547295" lon="6.9544871"><ele>6.5</ele><time>2026-04-12T05:35:36.932Z</time></trkpt><trkpt lat="43.5547999" lon="6.9544584"><ele>6.666666666666667</ele><time>2026-04-12T05:35:37.909Z</time></trkpt><trkpt lat="43.5548707" lon="6.954426"><ele>6.833333333333334</ele><time>2026-04-12T05:35:38.924Z</time></trkpt><trkpt lat="43.5549474" lon="6.9543864"><ele>7.0</ele><time>2026-04-12T05:35:39.916Z</time></trkpt><trkpt lat="43.5550267" lon="6.9543486"><ele>7.0</ele><time>2026-04-12T05:35:40.923Z</time></trkpt><trkpt lat="43.5551121" lon="6.9543146"><ele>6.999999999999999</ele><time>2026-04-12T05:35:41.929Z</time></trkpt><trkpt lat="43.5551983" lon="6.9542874"><ele>6.999999999999999</ele><time>2026-04-12T05:35:42.871Z</time></trkpt><trkpt lat="43.5552898" lon="6.954255"><ele>7.0</ele><time>2026-04-12T05:35:43.929Z</time></trkpt><trkpt lat="43.5553802" lon="6.954217"><ele>7.0</ele><time>2026-04-12T05:35:44.928Z</time></trkpt><trkpt lat="43.5554722" lon="6.9541768"><ele>7.199999999999999</ele><time>2026-04-12T05:35:45.931Z</time></trkpt><trkpt lat="43.5555628" lon="6.9541389"><ele>7.3999999999999995</ele><time>2026-04-12T05:35:46.913Z</time></trkpt><trkpt lat="43.5556536" lon="6.9540905"><ele>7.6000000000000005</ele><time>2026-04-12T05:35:47.914Z</time></trkpt><trkpt lat="43.5557373" lon="6.9540337"><ele>7.800000000000001</ele><time>2026-04-12T05:35:48.942Z</time></trkpt><trkpt lat="43.5558221" lon="6.9539815"><ele>8.0</ele><time>2026-04-12T05:35:49.929Z</time></trkpt><trkpt lat="43.5559009" lon="6.9539244"><ele>7.999999999999999</ele><time>2026-04-12T05:35:50.918Z</time></trkpt><trkpt lat="43.5559752" lon="6.9538637"><ele>8.0</ele><time>2026-04-12T05:35:51.927Z</time></trkpt><trkpt lat="43.5560524" lon="6.9538055"><ele>8.0</ele><time>2026-04-12T05:35:52.897Z</time></trkpt><trkpt lat="43.5561264" lon="6.9537466"><ele>8.0</ele><time>2026-04-12T05:35:53.88Z</time></trkpt><trkpt lat="43.5561984" lon="6.9536856"><ele>7.999999999999999</ele><time>2026-04-12T05:35:54.927Z</time></trkpt><trkpt lat="43.5562614" lon="6.9536268"><ele>8.0</ele><time>2026-04-12T05:35:55.947Z</time></trkpt><trkpt lat="43.5563215" lon="6.9535731"><ele>7.571428571428571</ele><time>2026-04-12T05:35:56.913Z</time></trkpt><trkpt lat="43.5563786" lon="6.9535225"><ele>7.142857142857142</ele><time>2026-04-12T05:35:57.928Z</time></trkpt><trkpt lat="43.556437" lon="6.9534778"><ele>6.7142857142857135</ele><time>2026-04-12T05:35:58.932Z</time></trkpt><trkpt lat="43.5564941" lon="6.9534355"><ele>6.285714285714286</ele><time>2026-04-12T05:35:59.946Z</time></trkpt><trkpt lat="43.5565535" lon="6.9534025"><ele>5.857142857142858</ele><time>2026-04-12T05:36:00.922Z</time></trkpt><trkpt lat="43.5566177" lon="6.9534016"><ele>5.428571428571429</ele><time>2026-04-12T05:36:01.93Z</time></trkpt><trkpt lat="43.5567306" lon="6.9534074"><ele>5.0</ele><time>2026-04-12T05:36:03.927Z</time></trkpt><trkpt lat="43.556849" lon="6.9533809"><ele>5.0</ele><time>2026-04-12T05:36:05.934Z</time></trkpt><trkpt lat="43.556905" lon="6.9533313"><ele>5.0</ele><time>2026-04-12T05:36:06.909Z</time></trkpt><trkpt lat="43.5569586" lon="6.9532552"><ele>5.0</ele><time>2026-04-12T05:36:07.946Z</time></trkpt><trkpt lat="43.5570134" lon="6.9531895"><ele>5.0</ele><time>2026-04-12T05:36:08.913Z</time></trkpt><trkpt lat="43.5570733" lon="6.9531203"><ele>5.0</ele><time>2026-04-12T05:36:09.925Z</time></trkpt><trkpt lat="43.5571319" lon="6.9530565"><ele>5.0</ele><time>2026-04-12T05:36:10.931Z</time></trkpt><trkpt lat="43.5571915" lon="6.9529875"><ele>5.0</ele><time>2026-04-12T05:36:11.935Z</time></trkpt><trkpt lat="43.5572397" lon="6.9528814"><ele>5.0</ele><time>2026-04-12T05:36:12.902Z</time></trkpt><trkpt lat="43.557274" lon="6.9527622"><ele>5.0</ele><time>2026-04-12T05:36:13.903Z</time></trkpt><trkpt lat="43.5572938" lon="6.9526322"><ele>5.0</ele><time>2026-04-12T05:36:14.905Z</time></trkpt><trkpt lat="43.5573087" lon="6.9524931"><ele>5.0</ele><time>2026-04-12T05:36:15.945Z</time></trkpt><trkpt lat="43.557338" lon="6.9523658"><ele>5.0</ele><time>2026-04-12T05:36:16.887Z</time></trkpt><trkpt lat="43.5573778" lon="6.9522341"><ele>5.0</ele><time>2026-04-12T05:36:17.919Z</time></trkpt><trkpt lat="43.5574294" lon="6.9521248"><ele>5.0</ele><time>2026-04-12T05:36:18.899Z</time></trkpt><trkpt lat="43.5574877" lon="6.9520484"><ele>5.0</ele><time>2026-04-12T05:36:19.9Z</time></trkpt><trkpt lat="43.5575447" lon="6.9519847"><ele>5.0</ele><time>2026-04-12T05:36:20.924Z</time></trkpt><trkpt lat="43.5576152" lon="6.9519288"><ele>5.0</ele><time>2026-04-12T05:36:21.928Z</time></trkpt><trkpt lat="43.5576937" lon="6.9518883"><ele>5.0</ele><time>2026-04-12T05:36:22.93Z</time></trkpt><trkpt lat="43.5577776" lon="6.9518555"><ele>5.0</ele><time>2026-04-12T05:36:23.918Z</time></trkpt><trkpt lat="43.5578647" lon="6.9518195"><ele>5.0</ele><time>2026-04-12T05:36:24.902Z</time></trkpt><trkpt lat="43.5579477" lon="6.9517784"><ele>5.0</ele><time>2026-04-12T05:36:25.901Z</time></trkpt><trkpt lat="43.5580365" lon="6.9517377"><ele>5.0</ele><time>2026-04-12T05:36:26.899Z</time></trkpt><trkpt lat="43.558124" lon="6.9517129"><ele>5.0</ele><time>2026-04-12T05:36:27.918Z</time></trkpt><trkpt lat="43.5582116" lon="6.9516793"><ele>5.0</ele><time>2026-04-12T05:36:28.906Z</time></trkpt><trkpt lat="43.558299" lon="6.9516573"><ele>5.0</ele><time>2026-04-12T05:36:29.901Z</time></trkpt><trkpt lat="43.5584092" lon="6.9516296"><ele>5.0</ele><time>2026-04-12T05:36:31.923Z</time></trkpt><trkpt lat="43.5584894" lon="6.9515997"><ele>5.0</ele><time>2026-04-12T05:36:32.918Z</time></trkpt><trkpt lat="43.5585681" lon="6.9515749"><ele>5.0</ele><time>2026-04-12T05:36:33.938Z</time></trkpt><trkpt lat="43.5586481" lon="6.9515506"><ele>5.0</ele><time>2026-04-12T05:36:34.914Z</time></trkpt><trkpt lat="43.558733" lon="6.9515254"><ele>5.333333333333334</ele><time>2026-04-12T05:36:35.914Z</time></trkpt><trkpt lat="43.5588201" lon="6.9515056"><ele>5.666666666666667</ele><time>2026-04-12T05:36:36.887Z</time></trkpt><trkpt lat="43.5588927" lon="6.9514787"><ele>6.0</ele><time>2026-04-12T05:36:37.93Z</time></trkpt><trkpt lat="43.5589639" lon="6.9514542"><ele>6.333333333333334</ele><time>2026-04-12T05:36:38.923Z</time></trkpt><trkpt lat="43.559035" lon="6.951436"><ele>6.666666666666667</ele><time>2026-04-12T05:36:39.932Z</time></trkpt><trkpt lat="43.5591072" lon="6.9514163"><ele>7.0</ele><time>2026-04-12T05:36:40.918Z</time></trkpt><trkpt lat="43.5591853" lon="6.951393"><ele>7.000000000000001</ele><time>2026-04-12T05:36:41.932Z</time></trkpt><trkpt lat="43.5592573" lon="6.9513679"><ele>7.0</ele><time>2026-04-12T05:36:42.931Z</time></trkpt><trkpt lat="43.5593234" lon="6.9513406"><ele>7.0</ele><time>2026-04-12T05:36:43.929Z</time></trkpt><trkpt lat="43.5593888" lon="6.951317"><ele>7.0</ele><time>2026-04-12T05:36:44.943Z</time></trkpt><trkpt lat="43.5594595" lon="6.9512863"><ele>7.000000000000001</ele><time>2026-04-12T05:36:45.938Z</time></trkpt><trkpt lat="43.5595372" lon="6.9512536"><ele>7.0</ele><time>2026-04-12T05:36:46.921Z</time></trkpt><trkpt lat="43.5596202" lon="6.9512219"><ele>7.000000000000001</ele><time>2026-04-12T05:36:47.926Z</time></trkpt><trkpt lat="43.5597022" lon="6.9511915"><ele>7.0</ele><time>2026-04-12T05:36:48.933Z</time></trkpt><trkpt lat="43.5597838" lon="6.9511581"><ele>7.0</ele><time>2026-04-12T05:36:49.941Z</time></trkpt><trkpt lat="43.5598667" lon="6.9511298"><ele>7.0</ele><time>2026-04-12T05:36:50.915Z</time></trkpt><trkpt lat="43.5599521" lon="6.9510981"><ele>7.000000000000001</ele><time>2026-04-12T05:36:51.933Z</time></trkpt><trkpt lat="43.5600302" lon="6.9510682"><ele>7.0</ele><time>2026-04-12T05:36:52.918Z</time></trkpt><trkpt lat="43.5601088" lon="6.9510399"><ele>7.000000000000001</ele><time>2026-04-12T05:36:53.937Z</time></trkpt><trkpt lat="43.5601912" lon="6.9510146"><ele>7.0</ele><time>2026-04-12T05:36:54.922Z</time></trkpt><trkpt lat="43.5602707" lon="6.9509903"><ele>7.0</ele><time>2026-04-12T05:36:55.952Z</time></trkpt><trkpt lat="43.5603457" lon="6.9509675"><ele>7.0</ele><time>2026-04-12T05:36:56.929Z</time></trkpt><trkpt lat="43.560418" lon="6.9509424"><ele>7.000000000000001</ele><time>2026-04-12T05:36:57.922Z</time></trkpt><trkpt lat="43.5604893" lon="6.9509219"><ele>7.0</ele><time>2026-04-12T05:36:58.922Z</time></trkpt><trkpt lat="43.5605532" lon="6.9509189"><ele>6.8</ele><time>2026-04-12T05:36:59.942Z</time></trkpt><trkpt lat="43.5606768" lon="6.9509558"><ele>6.6</ele><time>2026-04-12T05:37:01.926Z</time></trkpt><trkpt lat="43.5607634" lon="6.9510192"><ele>6.3999999999999995</ele><time>2026-04-12T05:37:03.925Z</time></trkpt><trkpt lat="43.560862" lon="6.951068"><ele>6.199999999999999</ele><time>2026-04-12T05:37:05.941Z</time></trkpt><trkpt lat="43.5609775" lon="6.9510395"><ele>6.0</ele><time>2026-04-12T05:37:07.91Z</time></trkpt><trkpt lat="43.5610344" lon="6.9509831"><ele>6.0</ele><time>2026-04-12T05:37:08.902Z</time></trkpt><trkpt lat="43.5610812" lon="6.9509107"><ele>6.0</ele><time>2026-04-12T05:37:09.942Z</time></trkpt><trkpt lat="43.5611322" lon="6.9508463"><ele>6.0</ele><time>2026-04-12T05:37:10.924Z</time></trkpt><trkpt lat="43.5612026" lon="6.9507847"><ele>6.0</ele><time>2026-04-12T05:37:11.908Z</time></trkpt><trkpt lat="43.5612835" lon="6.9507329"><ele>6.0</ele><time>2026-04-12T05:37:12.93Z</time></trkpt><trkpt lat="43.5613603" lon="6.9507059"><ele>6.0</ele><time>2026-04-12T05:37:13.914Z</time></trkpt><trkpt lat="43.5614344" lon="6.9506769"><ele>5.666666666666667</ele><time>2026-04-12T05:37:14.907Z</time></trkpt><trkpt lat="43.5615104" lon="6.9506491"><ele>5.333333333333333</ele><time>2026-04-12T05:37:15.93Z</time></trkpt><trkpt lat="43.561585" lon="6.9506166"><ele>5.0</ele><time>2026-04-12T05:37:16.916Z</time></trkpt><trkpt lat="43.5616617" lon="6.9505931"><ele>4.666666666666666</ele><time>2026-04-12T05:37:17.924Z</time></trkpt><trkpt lat="43.5617428" lon="6.9505582"><ele>4.333333333333333</ele><time>2026-04-12T05:37:18.917Z</time></trkpt><trkpt lat="43.5618289" lon="6.9505284"><ele>4.0</ele><time>2026-04-12T05:37:19.926Z</time></trkpt><trkpt lat="43.5619147" lon="6.9504976"><ele>4.0</ele><time>2026-04-12T05:37:20.932Z</time></trkpt><trkpt lat="43.5620034" lon="6.9504604"><ele>4.0</ele><time>2026-04-12T05:37:21.863Z</time></trkpt><trkpt lat="43.5620935" lon="6.9504324"><ele>4.0</ele><time>2026-04-12T05:37:22.93Z</time></trkpt><trkpt lat="43.5621785" lon="6.9504039"><ele>4.0</ele><time>2026-04-12T05:37:23.941Z</time></trkpt><trkpt lat="43.562269" lon="6.9503745"><ele>4.0</ele><time>2026-04-12T05:37:24.927Z</time></trkpt><trkpt lat="43.5623666" lon="6.9503385"><ele>4.2</ele><time>2026-04-12T05:37:25.93Z</time></trkpt><trkpt lat="43.562462" lon="6.9502962"><ele>4.4</ele><time>2026-04-12T05:37:26.929Z</time></trkpt><trkpt lat="43.5625596" lon="6.9502594"><ele>4.6</ele><time>2026-04-12T05:37:27.911Z</time></trkpt><trkpt lat="43.5626507" lon="6.95022"><ele>4.8</ele><time>2026-04-12T05:37:28.921Z</time></trkpt><trkpt lat="43.562739" lon="6.9501843"><ele>5.0</ele><time>2026-04-12T05:37:29.939Z</time></trkpt><trkpt lat="43.5628295" lon="6.950152"><ele>5.166666666666667</ele><time>2026-04-12T05:37:30.91Z</time></trkpt><trkpt lat="43.5629171" lon="6.9501186"><ele>5.333333333333334</ele><time>2026-04-12T05:37:31.929Z</time></trkpt><trkpt lat="43.563003" lon="6.9500869"><ele>5.5</ele><time>2026-04-12T05:37:32.919Z</time></trkpt><trkpt lat="43.5630884" lon="6.9500632"><ele>5.666666666666667</ele><time>2026-04-12T05:37:33.929Z</time></trkpt><trkpt lat="43.563174" lon="6.9500407"><ele>5.833333333333333</ele><time>2026-04-12T05:37:34.921Z</time></trkpt><trkpt lat="43.5632584" lon="6.9500092"><ele>6.0</ele><time>2026-04-12T05:37:35.939Z</time></trkpt><trkpt lat="43.5633416" lon="6.9499798"><ele>6.166666666666667</ele><time>2026-04-12T05:37:36.922Z</time></trkpt><trkpt lat="43.5634254" lon="6.9499527"><ele>6.333333333333334</ele><time>2026-04-12T05:37:37.934Z</time></trkpt><trkpt lat="43.5635094" lon="6.9499177"><ele>6.5</ele><time>2026-04-12T05:37:38.889Z</time></trkpt><trkpt lat="43.563592" lon="6.9498911"><ele>6.666666666666667</ele><time>2026-04-12T05:37:39.938Z</time></trkpt><trkpt lat="43.5636795" lon="6.9498602"><ele>6.833333333333334</ele><time>2026-04-12T05:37:40.894Z</time></trkpt><trkpt lat="43.5637618" lon="6.9498275"><ele>7.0</ele><time>2026-04-12T05:37:41.889Z</time></trkpt><trkpt lat="43.5638422" lon="6.9497891"><ele>6.6</ele><time>2026-04-12T05:37:42.925Z</time></trkpt><trkpt lat="43.5639291" lon="6.9497586"><ele>6.199999999999999</ele><time>2026-04-12T05:37:43.907Z</time></trkpt><trkpt lat="43.5640182" lon="6.9497269"><ele>5.8</ele><time>2026-04-12T05:37:44.922Z</time></trkpt><trkpt lat="43.5641074" lon="6.949698"><ele>5.4</ele><time>2026-04-12T05:37:45.914Z</time></trkpt><trkpt lat="43.5641963" lon="6.9496668"><ele>5.0</ele><time>2026-04-12T05:37:46.914Z</time></trkpt><trkpt lat="43.564286" lon="6.9496347"><ele>5.0</ele><time>2026-04-12T05:37:47.913Z</time></trkpt><trkpt lat="43.5643827" lon="6.9495988"><ele>5.0</ele><time>2026-04-12T05:37:48.927Z</time></trkpt><trkpt lat="43.5644785" lon="6.9495663"><ele>5.0</ele><time>2026-04-12T05:37:49.925Z</time></trkpt><trkpt lat="43.5645755" lon="6.9495352"><ele>5.0</ele><time>2026-04-12T05:37:50.935Z</time></trkpt><trkpt lat="43.5646704" lon="6.9494953"><ele>5.0</ele><time>2026-04-12T05:37:51.931Z</time></trkpt><trkpt lat="43.5647612" lon="6.9494523"><ele>5.166666666666667</ele><time>2026-04-12T05:37:52.921Z</time></trkpt><trkpt lat="43.5648474" lon="6.9494223"><ele>5.333333333333334</ele><time>2026-04-12T05:37:53.911Z</time></trkpt><trkpt lat="43.5649262" lon="6.9493922"><ele>5.5</ele><time>2026-04-12T05:37:54.93Z</time></trkpt><trkpt lat="43.5650072" lon="6.9493581"><ele>5.666666666666667</ele><time>2026-04-12T05:37:55.937Z</time></trkpt><trkpt lat="43.5650892" lon="6.9493316"><ele>5.833333333333333</ele><time>2026-04-12T05:37:56.92Z</time></trkpt><trkpt lat="43.5651707" lon="6.9493039"><ele>6.0</ele><time>2026-04-12T05:37:57.915Z</time></trkpt><trkpt lat="43.565253" lon="6.9492799"><ele>6.0</ele><time>2026-04-12T05:37:58.913Z</time></trkpt><trkpt lat="43.5653346" lon="6.9492477"><ele>6.0</ele><time>2026-04-12T05:37:59.918Z</time></trkpt><trkpt lat="43.565416" lon="6.9492191"><ele>6.0</ele><time>2026-04-12T05:38:00.933Z</time></trkpt><trkpt lat="43.5654966" lon="6.9491896"><ele>6.0</ele><time>2026-04-12T05:38:01.924Z</time></trkpt><trkpt lat="43.5655736" lon="6.9491553"><ele>6.0</ele><time>2026-04-12T05:38:02.925Z</time></trkpt><trkpt lat="43.5656494" lon="6.9491319"><ele>6.0</ele><time>2026-04-12T05:38:03.908Z</time></trkpt><trkpt lat="43.5657272" lon="6.9491022"><ele>6.666666666666667</ele><time>2026-04-12T05:38:04.939Z</time></trkpt><trkpt lat="43.565802" lon="6.9490731"><ele>7.333333333333334</ele><time>2026-04-12T05:38:05.909Z</time></trkpt><trkpt lat="43.5658786" lon="6.9490505"><ele>8.0</ele><time>2026-04-12T05:38:06.938Z</time></trkpt><trkpt lat="43.5659533" lon="6.9490248"><ele>8.666666666666668</ele><time>2026-04-12T05:38:07.915Z</time></trkpt><trkpt lat="43.5660267" lon="6.9489969"><ele>9.333333333333334</ele><time>2026-04-12T05:38:08.927Z</time></trkpt><trkpt lat="43.5661021" lon="6.9489693"><ele>10.0</ele><time>2026-04-12T05:38:09.946Z</time></trkpt><trkpt lat="43.5661789" lon="6.9489424"><ele>10.2</ele><time>2026-04-12T05:38:10.916Z</time></trkpt><trkpt lat="43.5662518" lon="6.9489105"><ele>10.4</ele><time>2026-04-12T05:38:11.933Z</time></trkpt><trkpt lat="43.5663252" lon="6.9488851"><ele>10.600000000000001</ele><time>2026-04-12T05:38:12.928Z</time></trkpt><trkpt lat="43.5663883" lon="6.9488629"><ele>10.8</ele><time>2026-04-12T05:38:13.892Z</time></trkpt><trkpt lat="43.5665004" lon="6.9488345"><ele>11.0</ele><time>2026-04-12T05:38:15.913Z</time></trkpt><trkpt lat="43.5666213" lon="6.9488624"><ele>11.0</ele><time>2026-04-12T05:38:17.915Z</time></trkpt><trkpt lat="43.5666831" lon="6.948895"><ele>11.0</ele><time>2026-04-12T05:38:18.932Z</time></trkpt><trkpt lat="43.5667967" lon="6.9489395"><ele>11.0</ele><time>2026-04-12T05:38:20.906Z</time></trkpt><trkpt lat="43.5669186" lon="6.9489306"><ele>11.0</ele><time>2026-04-12T05:38:22.914Z</time></trkpt><trkpt lat="43.5669788" lon="6.9488954"><ele>11.0</ele><time>2026-04-12T05:38:23.943Z</time></trkpt><trkpt lat="43.5670328" lon="6.9488393"><ele>11.0</ele><time>2026-04-12T05:38:24.898Z</time></trkpt><trkpt lat="43.5670839" lon="6.9487737"><ele>10.833333333333332</ele><time>2026-04-12T05:38:25.914Z</time></trkpt><trkpt lat="43.5671331" lon="6.948694"><ele>10.666666666666666</ele><time>2026-04-12T05:38:26.925Z</time></trkpt><trkpt lat="43.5671889" lon="6.9486301"><ele>10.5</ele><time>2026-04-12T05:38:27.943Z</time></trkpt><trkpt lat="43.5672573" lon="6.948581"><ele>10.333333333333334</ele><time>2026-04-12T05:38:28.905Z</time></trkpt><trkpt lat="43.5673336" lon="6.9485349"><ele>10.166666666666668</ele><time>2026-04-12T05:38:29.907Z</time></trkpt><trkpt lat="43.5674116" lon="6.9484856"><ele>10.0</ele><time>2026-04-12T05:38:30.931Z</time></trkpt><trkpt lat="43.5674877" lon="6.9484459"><ele>10.0</ele><time>2026-04-12T05:38:31.921Z</time></trkpt><trkpt lat="43.5675698" lon="6.9484036"><ele>10.0</ele><time>2026-04-12T05:38:32.919Z</time></trkpt><trkpt lat="43.567654" lon="6.9483622"><ele>10.0</ele><time>2026-04-12T05:38:33.901Z</time></trkpt><trkpt lat="43.5677388" lon="6.9483174"><ele>10.0</ele><time>2026-04-12T05:38:34.915Z</time></trkpt><trkpt lat="43.5678189" lon="6.948264"><ele>10.0</ele><time>2026-04-12T05:38:35.912Z</time></trkpt><trkpt lat="43.5679041" lon="6.9482233"><ele>10.0</ele><time>2026-04-12T05:38:36.913Z</time></trkpt><trkpt lat="43.567986" lon="6.948178"><ele>9.4</ele><time>2026-04-12T05:38:37.919Z</time></trkpt><trkpt lat="43.5680677" lon="6.9481267"><ele>8.8</ele><time>2026-04-12T05:38:38.921Z</time></trkpt><trkpt lat="43.5681489" lon="6.9480755"><ele>8.2</ele><time>2026-04-12T05:38:39.898Z</time></trkpt><trkpt lat="43.5682302" lon="6.9480243"><ele>7.6</ele><time>2026-04-12T05:38:40.923Z</time></trkpt><trkpt lat="43.5683117" lon="6.9479692"><ele>7.0</ele><time>2026-04-12T05:38:41.931Z</time></trkpt><trkpt lat="43.5683969" lon="6.9479101"><ele>7.0</ele><time>2026-04-12T05:38:42.892Z</time></trkpt><trkpt lat="43.5684779" lon="6.9478568"><ele>6.999999999999999</ele><time>2026-04-12T05:38:43.917Z</time></trkpt><trkpt lat="43.5685555" lon="6.9477948"><ele>6.999999999999999</ele><time>2026-04-12T05:38:44.894Z</time></trkpt><trkpt lat="43.5686325" lon="6.9477301"><ele>7.0</ele><time>2026-04-12T05:38:45.937Z</time></trkpt><trkpt lat="43.5687107" lon="6.9476603"><ele>7.0</ele><time>2026-04-12T05:38:46.908Z</time></trkpt><trkpt lat="43.5687837" lon="6.9475894"><ele>6.833333333333334</ele><time>2026-04-12T05:38:47.931Z</time></trkpt><trkpt lat="43.5688532" lon="6.9475211"><ele>6.666666666666667</ele><time>2026-04-12T05:38:48.911Z</time></trkpt><trkpt lat="43.5689197" lon="6.9474518"><ele>6.5</ele><time>2026-04-12T05:38:49.919Z</time></trkpt><trkpt lat="43.5689885" lon="6.9473844"><ele>6.333333333333334</ele><time>2026-04-12T05:38:50.909Z</time></trkpt><trkpt lat="43.5690617" lon="6.9473144"><ele>6.166666666666667</ele><time>2026-04-12T05:38:51.889Z</time></trkpt><trkpt lat="43.5691321" lon="6.9472409"><ele>6.0</ele><time>2026-04-12T05:38:52.881Z</time></trkpt><trkpt lat="43.569203" lon="6.9471703"><ele>6.0</ele><time>2026-04-12T05:38:53.922Z</time></trkpt><trkpt lat="43.5692745" lon="6.9470993"><ele>6.0</ele><time>2026-04-12T05:38:54.901Z</time></trkpt><trkpt lat="43.5693429" lon="6.9470298"><ele>6.0</ele><time>2026-04-12T05:38:55.897Z</time></trkpt><trkpt lat="43.5694124" lon="6.9469564"><ele>6.0</ele><time>2026-04-12T05:38:56.901Z</time></trkpt><trkpt lat="43.5694841" lon="6.946879"><ele>6.0</ele><time>2026-04-12T05:38:57.923Z</time></trkpt><trkpt lat="43.5695615" lon="6.9467964"><ele>6.0</ele><time>2026-04-12T05:38:58.91Z</time></trkpt><trkpt lat="43.5696413" lon="6.94672"><ele>6.4</ele><time>2026-04-12T05:38:59.929Z</time></trkpt><trkpt lat="43.5697203" lon="6.9466458"><ele>6.8</ele><time>2026-04-12T05:39:00.905Z</time></trkpt><trkpt lat="43.5698" lon="6.9465675"><ele>7.200000000000001</ele><time>2026-04-12T05:39:01.911Z</time></trkpt><trkpt lat="43.5698792" lon="6.9464956"><ele>7.6000000000000005</ele><time>2026-04-12T05:39:02.894Z</time></trkpt><trkpt lat="43.5699493" lon="6.9464297"><ele>8.0</ele><time>2026-04-12T05:39:03.929Z</time></trkpt><trkpt lat="43.5700274" lon="6.9463616"><ele>7.999999999999999</ele><time>2026-04-12T05:39:04.929Z</time></trkpt><trkpt lat="43.5701042" lon="6.9462842"><ele>8.0</ele><time>2026-04-12T05:39:05.917Z</time></trkpt><trkpt lat="43.5701803" lon="6.9462214"><ele>8.0</ele><time>2026-04-12T05:39:06.899Z</time></trkpt><trkpt lat="43.5702542" lon="6.9461562"><ele>8.0</ele><time>2026-04-12T05:39:07.921Z</time></trkpt><trkpt lat="43.5703255" lon="6.9460953"><ele>7.999999999999999</ele><time>2026-04-12T05:39:08.922Z</time></trkpt><trkpt lat="43.5703915" lon="6.9460381"><ele>8.0</ele><time>2026-04-12T05:39:09.915Z</time></trkpt><trkpt lat="43.5704634" lon="6.9459768"><ele>7.999999999999999</ele><time>2026-04-12T05:39:10.924Z</time></trkpt><trkpt lat="43.570536" lon="6.9459159"><ele>8.0</ele><time>2026-04-12T05:39:11.914Z</time></trkpt><trkpt lat="43.570605" lon="6.9458566"><ele>8.0</ele><time>2026-04-12T05:39:12.933Z</time></trkpt><trkpt lat="43.5706742" lon="6.9458006"><ele>8.0</ele><time>2026-04-12T05:39:13.91Z</time></trkpt><trkpt lat="43.5707388" lon="6.94575"><ele>7.999999999999999</ele><time>2026-04-12T05:39:14.934Z</time></trkpt><trkpt lat="43.5708037" lon="6.9456962"><ele>8.0</ele><time>2026-04-12T05:39:15.915Z</time></trkpt><trkpt lat="43.5708648" lon="6.94565"><ele>8.0</ele><time>2026-04-12T05:39:16.926Z</time></trkpt><trkpt lat="43.570967" lon="6.945573"><ele>8.0</ele><time>2026-04-12T05:39:18.925Z</time></trkpt><trkpt lat="43.571059" lon="6.9455056"><ele>8.0</ele><time>2026-04-12T05:39:20.919Z</time></trkpt><trkpt lat="43.5711351" lon="6.9454446"><ele>8.0</ele><time>2026-04-12T05:39:22.931Z</time></trkpt><trkpt lat="43.5712206" lon="6.9453839"><ele>8.0</ele><time>2026-04-12T05:39:25.928Z</time></trkpt><trkpt lat="43.5713076" lon="6.9453624"><ele>7.999999999999999</ele><time>2026-04-12T05:39:27.933Z</time></trkpt><trkpt lat="43.5714059" lon="6.9453666"><ele>8.0</ele><time>2026-04-12T05:39:29.91Z</time></trkpt><trkpt lat="43.5715191" lon="6.9453286"><ele>8.0</ele><time>2026-04-12T05:39:31.933Z</time></trkpt><trkpt lat="43.5715653" lon="6.945258"><ele>8.0</ele><time>2026-04-12T05:39:32.933Z</time></trkpt><trkpt lat="43.5716053" lon="6.9451814"><ele>7.999999999999999</ele><time>2026-04-12T05:39:33.93Z</time></trkpt><trkpt lat="43.5716496" lon="6.9451174"><ele>8.0</ele><time>2026-04-12T05:39:34.921Z</time></trkpt><trkpt lat="43.5717019" lon="6.9450586"><ele>7.999999999999999</ele><time>2026-04-12T05:39:35.925Z</time></trkpt><trkpt lat="43.5717643" lon="6.9450125"><ele>8.0</ele><time>2026-04-12T05:39:36.868Z</time></trkpt><trkpt lat="43.5718275" lon="6.9449681"><ele>8.0</ele><time>2026-04-12T05:39:37.909Z</time></trkpt><trkpt lat="43.5718966" lon="6.9449156"><ele>8.0</ele><time>2026-04-12T05:39:38.912Z</time></trkpt><trkpt lat="43.5720009" lon="6.9448609"><ele>7.999999999999999</ele><time>2026-04-12T05:39:40.899Z</time></trkpt><trkpt lat="43.5720996" lon="6.9448067"><ele>8.0</ele><time>2026-04-12T05:39:42.893Z</time></trkpt><trkpt lat="43.5721674" lon="6.9447687"><ele>7.999999999999999</ele><time>2026-04-12T05:39:43.901Z</time></trkpt><trkpt lat="43.5722312" lon="6.9447441"><ele>8.0</ele><time>2026-04-12T05:39:44.933Z</time></trkpt><trkpt lat="43.5722986" lon="6.9446849"><ele>8.0</ele><time>2026-04-12T05:39:45.935Z</time></trkpt><trkpt lat="43.5723768" lon="6.944619"><ele>8.0</ele><time>2026-04-12T05:39:46.922Z</time></trkpt><trkpt lat="43.5724541" lon="6.9445543"><ele>7.999999999999999</ele><time>2026-04-12T05:39:47.923Z</time></trkpt><trkpt lat="43.5725398" lon="6.9444949"><ele>8.0</ele><time>2026-04-12T05:39:48.922Z</time></trkpt><trkpt lat="43.5726268" lon="6.9444315"><ele>8.0</ele><time>2026-04-12T05:39:49.936Z</time></trkpt><trkpt lat="43.5727138" lon="6.9443627"><ele>8.0</ele><time>2026-04-12T05:39:50.949Z</time></trkpt><trkpt lat="43.5728047" lon="6.944294"><ele>8.0</ele><time>2026-04-12T05:39:51.929Z</time></trkpt><trkpt lat="43.572896" lon="6.944224"><ele>8.0</ele><time>2026-04-12T05:39:52.922Z</time></trkpt><trkpt lat="43.5729898" lon="6.9441538"><ele>8.0</ele><time>2026-04-12T05:39:53.912Z</time></trkpt><trkpt lat="43.5730803" lon="6.9440792"><ele>8.4</ele><time>2026-04-12T05:39:54.918Z</time></trkpt><trkpt lat="43.5731728" lon="6.94401"><ele>8.8</ele><time>2026-04-12T05:39:55.923Z</time></trkpt><trkpt lat="43.5732618" lon="6.9439336"><ele>9.2</ele><time>2026-04-12T05:39:56.918Z</time></trkpt><trkpt lat="43.5733482" lon="6.9438559"><ele>9.6</ele><time>2026-04-12T05:39:57.919Z</time></trkpt><trkpt lat="43.5734416" lon="6.9437792"><ele>10.0</ele><time>2026-04-12T05:39:58.898Z</time></trkpt><trkpt lat="43.5735332" lon="6.9436953"><ele>10.0</ele><time>2026-04-12T05:39:59.923Z</time></trkpt><trkpt lat="43.5736254" lon="6.9436092"><ele>10.0</ele><time>2026-04-12T05:40:00.926Z</time></trkpt><trkpt lat="43.5737211" lon="6.9435315"><ele>10.0</ele><time>2026-04-12T05:40:01.916Z</time></trkpt><trkpt lat="43.5738154" lon="6.9434454"><ele>10.0</ele><time>2026-04-12T05:40:02.912Z</time></trkpt><trkpt lat="43.5739115" lon="6.9433649"><ele>10.0</ele><time>2026-04-12T05:40:03.923Z</time></trkpt><trkpt lat="43.5740019" lon="6.9432906"><ele>9.6</ele><time>2026-04-12T05:40:04.921Z</time></trkpt><trkpt lat="43.5740915" lon="6.9432152"><ele>9.2</ele><time>2026-04-12T05:40:05.924Z</time></trkpt><trkpt lat="43.5741845" lon="6.9431347"><ele>8.8</ele><time>2026-04-12T05:40:06.94Z</time></trkpt><trkpt lat="43.574273" lon="6.9430598"><ele>8.4</ele><time>2026-04-12T05:40:07.944Z</time></trkpt><trkpt lat="43.5743644" lon="6.9429907"><ele>8.0</ele><time>2026-04-12T05:40:08.926Z</time></trkpt><trkpt lat="43.574451" lon="6.942927"><ele>8.0</ele><time>2026-04-12T05:40:09.936Z</time></trkpt><trkpt lat="43.5745314" lon="6.9428614"><ele>8.0</ele><time>2026-04-12T05:40:10.884Z</time></trkpt><trkpt lat="43.5746101" lon="6.9427933"><ele>8.0</ele><time>2026-04-12T05:40:11.926Z</time></trkpt><trkpt lat="43.5746878" lon="6.9427311"><ele>8.0</ele><time>2026-04-12T05:40:12.885Z</time></trkpt><trkpt lat="43.5747671" lon="6.9426615"><ele>8.0</ele><time>2026-04-12T05:40:13.885Z</time></trkpt><trkpt lat="43.5748453" lon="6.9425989"><ele>8.166666666666666</ele><time>2026-04-12T05:40:14.924Z</time></trkpt><trkpt lat="43.57492" lon="6.9425408"><ele>8.333333333333332</ele><time>2026-04-12T05:40:15.921Z</time></trkpt><trkpt lat="43.5749939" lon="6.9424784"><ele>8.5</ele><time>2026-04-12T05:40:16.913Z</time></trkpt><trkpt lat="43.5750669" lon="6.9424197"><ele>8.666666666666666</ele><time>2026-04-12T05:40:17.93Z</time></trkpt><trkpt lat="43.5751397" lon="6.942361"><ele>8.833333333333334</ele><time>2026-04-12T05:40:18.931Z</time></trkpt><trkpt lat="43.5752148" lon="6.942304"><ele>9.0</ele><time>2026-04-12T05:40:19.936Z</time></trkpt><trkpt lat="43.5752883" lon="6.9422454"><ele>9.0</ele><time>2026-04-12T05:40:20.924Z</time></trkpt><trkpt lat="43.5753609" lon="6.9421883"><ele>9.0</ele><time>2026-04-12T05:40:21.922Z</time></trkpt><trkpt lat="43.5754347" lon="6.942124"><ele>9.0</ele><time>2026-04-12T05:40:22.925Z</time></trkpt><trkpt lat="43.5755085" lon="6.9420573"><ele>9.0</ele><time>2026-04-12T05:40:23.92Z</time></trkpt><trkpt lat="43.5755817" lon="6.9419971"><ele>9.0</ele><time>2026-04-12T05:40:24.945Z</time></trkpt><trkpt lat="43.5756544" lon="6.9419427"><ele>9.0</ele><time>2026-04-12T05:40:25.908Z</time></trkpt><trkpt lat="43.5757262" lon="6.9418834"><ele>9.0</ele><time>2026-04-12T05:40:26.921Z</time></trkpt><trkpt lat="43.5757975" lon="6.9418235"><ele>9.0</ele><time>2026-04-12T05:40:27.926Z</time></trkpt><trkpt lat="43.5758649" lon="6.941767"><ele>9.0</ele><time>2026-04-12T05:40:28.891Z</time></trkpt><trkpt lat="43.5759339" lon="6.9417093"><ele>9.0</ele><time>2026-04-12T05:40:29.908Z</time></trkpt><trkpt lat="43.576003" lon="6.9416547"><ele>9.0</ele><time>2026-04-12T05:40:30.925Z</time></trkpt><trkpt lat="43.5760703" lon="6.9415981"><ele>9.0</ele><time>2026-04-12T05:40:31.924Z</time></trkpt><trkpt lat="43.5761369" lon="6.9415442"><ele>9.0</ele><time>2026-04-12T05:40:32.899Z</time></trkpt><trkpt lat="43.5762045" lon="6.9414867"><ele>9.0</ele><time>2026-04-12T05:40:33.923Z</time></trkpt><trkpt lat="43.5762719" lon="6.9414281"><ele>9.0</ele><time>2026-04-12T05:40:34.92Z</time></trkpt><trkpt lat="43.576335" lon="6.9413699"><ele>9.0</ele><time>2026-04-12T05:40:35.93Z</time></trkpt><trkpt lat="43.5763991" lon="6.9413134"><ele>9.0</ele><time>2026-04-12T05:40:36.915Z</time></trkpt><trkpt lat="43.5764584" lon="6.9412574"><ele>9.0</ele><time>2026-04-12T05:40:37.917Z</time></trkpt><trkpt lat="43.5765143" lon="6.9411993"><ele>9.000000000000002</ele><time>2026-04-12T05:40:38.932Z</time></trkpt><trkpt lat="43.5765706" lon="6.9411403"><ele>9.0</ele><time>2026-04-12T05:40:39.936Z</time></trkpt><trkpt lat="43.5766287" lon="6.9410821"><ele>9.0</ele><time>2026-04-12T05:40:40.903Z</time></trkpt><trkpt lat="43.5766787" lon="6.9410181"><ele>9.0</ele><time>2026-04-12T05:40:41.931Z</time></trkpt><trkpt lat="43.5767268" lon="6.9409499"><ele>9.0</ele><time>2026-04-12T05:40:42.923Z</time></trkpt><trkpt lat="43.5767732" lon="6.9408855"><ele>9.000000000000002</ele><time>2026-04-12T05:40:43.923Z</time></trkpt><trkpt lat="43.5768211" lon="6.9408224"><ele>9.0</ele><time>2026-04-12T05:40:44.923Z</time></trkpt><trkpt lat="43.5768975" lon="6.9407126"><ele>9.0</ele><time>2026-04-12T05:40:46.902Z</time></trkpt><trkpt lat="43.5769727" lon="6.9406194"><ele>9.0</ele><time>2026-04-12T05:40:48.912Z</time></trkpt><trkpt lat="43.5770813" lon="6.9405676"><ele>9.0</ele><time>2026-04-12T05:40:50.933Z</time></trkpt><trkpt lat="43.5771718" lon="6.9405275"><ele>9.0</ele><time>2026-04-12T05:40:52.905Z</time></trkpt><trkpt lat="43.5772473" lon="6.9404327"><ele>9.0</ele><time>2026-04-12T05:40:54.921Z</time></trkpt><trkpt lat="43.5772644" lon="6.9402784"><ele>9.0</ele><time>2026-04-12T05:40:56.912Z</time></trkpt><trkpt lat="43.5772649" lon="6.9401909"><ele>9.0</ele><time>2026-04-12T05:40:57.941Z</time></trkpt><trkpt lat="43.5772716" lon="6.9400233"><ele>9.0</ele><time>2026-04-12T05:40:59.919Z</time></trkpt><trkpt lat="43.5772903" lon="6.9399392"><ele>9.0</ele><time>2026-04-12T05:41:00.931Z</time></trkpt><trkpt lat="43.5773124" lon="6.9398574"><ele>9.0</ele><time>2026-04-12T05:41:01.934Z</time></trkpt><trkpt lat="43.577342" lon="6.93977"><ele>9.0</ele><time>2026-04-12T05:41:02.921Z</time></trkpt><trkpt lat="43.5773691" lon="6.9396787"><ele>9.0</ele><time>2026-04-12T05:41:03.928Z</time></trkpt><trkpt lat="43.5773992" lon="6.9395811"><ele>9.0</ele><time>2026-04-12T05:41:04.937Z</time></trkpt><trkpt lat="43.5774322" lon="6.9394847"><ele>9.0</ele><time>2026-04-12T05:41:05.931Z</time></trkpt><trkpt lat="43.5774677" lon="6.9393763"><ele>9.0</ele><time>2026-04-12T05:41:06.928Z</time></trkpt><trkpt lat="43.5775018" lon="6.9392706"><ele>9.0</ele><time>2026-04-12T05:41:07.923Z</time></trkpt><trkpt lat="43.577529" lon="6.939161"><ele>9.0</ele><time>2026-04-12T05:41:08.908Z</time></trkpt><trkpt lat="43.5775564" lon="6.939051"><ele>9.0</ele><time>2026-04-12T05:41:09.911Z</time></trkpt><trkpt lat="43.5775819" lon="6.9389357"><ele>9.0</ele><time>2026-04-12T05:41:10.904Z</time></trkpt><trkpt lat="43.5776117" lon="6.9388103"><ele>9.0</ele><time>2026-04-12T05:41:11.916Z</time></trkpt><trkpt lat="43.5776477" lon="6.9386831"><ele>9.0</ele><time>2026-04-12T05:41:12.924Z</time></trkpt><trkpt lat="43.5776794" lon="6.9385507"><ele>9.0</ele><time>2026-04-12T05:41:13.914Z</time></trkpt><trkpt lat="43.5777088" lon="6.9384238"><ele>9.0</ele><time>2026-04-12T05:41:14.927Z</time></trkpt><trkpt lat="43.5777362" lon="6.9382934"><ele>9.0</ele><time>2026-04-12T05:41:15.926Z</time></trkpt><trkpt lat="43.5777653" lon="6.9381586"><ele>9.0</ele><time>2026-04-12T05:41:16.902Z</time></trkpt><trkpt lat="43.577795" lon="6.9380236"><ele>9.0</ele><time>2026-04-12T05:41:17.921Z</time></trkpt><trkpt lat="43.5778316" lon="6.937895"><ele>9.0</ele><time>2026-04-12T05:41:18.88Z</time></trkpt><trkpt lat="43.5778676" lon="6.937764"><ele>8.8</ele><time>2026-04-12T05:41:19.917Z</time></trkpt><trkpt lat="43.5779109" lon="6.9376333"><ele>8.600000000000001</ele><time>2026-04-12T05:41:20.884Z</time></trkpt><trkpt lat="43.5779518" lon="6.9375076"><ele>8.4</ele><time>2026-04-12T05:41:21.918Z</time></trkpt><trkpt lat="43.5779951" lon="6.9373884"><ele>8.200000000000001</ele><time>2026-04-12T05:41:22.919Z</time></trkpt><trkpt lat="43.5780407" lon="6.9372611"><ele>8.0</ele><time>2026-04-12T05:41:23.938Z</time></trkpt><trkpt lat="43.5780898" lon="6.9371345"><ele>8.0</ele><time>2026-04-12T05:41:24.93Z</time></trkpt><trkpt lat="43.5781415" lon="6.937011"><ele>8.0</ele><time>2026-04-12T05:41:25.932Z</time></trkpt><trkpt lat="43.5781947" lon="6.9368861"><ele>8.0</ele><time>2026-04-12T05:41:26.936Z</time></trkpt><trkpt lat="43.5782497" lon="6.9367554"><ele>8.0</ele><time>2026-04-12T05:41:27.94Z</time></trkpt><trkpt lat="43.5783038" lon="6.9366241"><ele>8.0</ele><time>2026-04-12T05:41:28.918Z</time></trkpt><trkpt lat="43.5783596" lon="6.9365013"><ele>8.0</ele><time>2026-04-12T05:41:29.915Z</time></trkpt><trkpt lat="43.5784226" lon="6.9363825"><ele>8.0</ele><time>2026-04-12T05:41:30.941Z</time></trkpt><trkpt lat="43.5784816" lon="6.9362645"><ele>8.0</ele><time>2026-04-12T05:41:31.926Z</time></trkpt><trkpt lat="43.5785389" lon="6.9361441"><ele>8.0</ele><time>2026-04-12T05:41:32.928Z</time></trkpt><trkpt lat="43.578599" lon="6.9360305"><ele>8.0</ele><time>2026-04-12T05:41:33.921Z</time></trkpt><trkpt lat="43.5786703" lon="6.9359156"><ele>8.4</ele><time>2026-04-12T05:41:34.918Z</time></trkpt><trkpt lat="43.5787359" lon="6.9358028"><ele>8.8</ele><time>2026-04-12T05:41:35.92Z</time></trkpt><trkpt lat="43.5788029" lon="6.9356924"><ele>9.2</ele><time>2026-04-12T05:41:36.923Z</time></trkpt><trkpt lat="43.5788746" lon="6.9355775"><ele>9.6</ele><time>2026-04-12T05:41:37.917Z</time></trkpt><trkpt lat="43.5789469" lon="6.9354743"><ele>10.0</ele><time>2026-04-12T05:41:38.895Z</time></trkpt><trkpt lat="43.5790224" lon="6.9353702"><ele>10.0</ele><time>2026-04-12T05:41:39.895Z</time></trkpt><trkpt lat="43.5790971" lon="6.9352686"><ele>10.0</ele><time>2026-04-12T05:41:40.918Z</time></trkpt><trkpt lat="43.5791714" lon="6.9351639"><ele>10.0</ele><time>2026-04-12T05:41:41.915Z</time></trkpt><trkpt lat="43.5792452" lon="6.9350711"><ele>10.0</ele><time>2026-04-12T05:41:42.94Z</time></trkpt><trkpt lat="43.5793171" lon="6.9349786"><ele>10.0</ele><time>2026-04-12T05:41:43.922Z</time></trkpt><trkpt lat="43.5793871" lon="6.934888"><ele>10.0</ele><time>2026-04-12T05:41:44.92Z</time></trkpt><trkpt lat="43.5794598" lon="6.9348061"><ele>10.0</ele><time>2026-04-12T05:41:45.914Z</time></trkpt><trkpt lat="43.5795283" lon="6.9347309"><ele>10.0</ele><time>2026-04-12T05:41:46.924Z</time></trkpt><trkpt lat="43.5796007" lon="6.9346565"><ele>10.0</ele><time>2026-04-12T05:41:47.876Z</time></trkpt><trkpt lat="43.5796747" lon="6.9345835"><ele>10.0</ele><time>2026-04-12T05:41:48.931Z</time></trkpt><trkpt lat="43.5797447" lon="6.9345083"><ele>10.0</ele><time>2026-04-12T05:41:49.902Z</time></trkpt><trkpt lat="43.5798173" lon="6.9344389"><ele>10.0</ele><time>2026-04-12T05:41:50.92Z</time></trkpt><trkpt lat="43.5798935" lon="6.9343684"><ele>10.0</ele><time>2026-04-12T05:41:51.933Z</time></trkpt><trkpt lat="43.579966" lon="6.9342992"><ele>10.0</ele><time>2026-04-12T05:41:52.919Z</time></trkpt><trkpt lat="43.5800386" lon="6.9342362"><ele>10.0</ele><time>2026-04-12T05:41:53.933Z</time></trkpt><trkpt lat="43.5801082" lon="6.9341726"><ele>10.0</ele><time>2026-04-12T05:41:54.925Z</time></trkpt><trkpt lat="43.580179" lon="6.9341179"><ele>10.0</ele><time>2026-04-12T05:41:55.921Z</time></trkpt><trkpt lat="43.5802472" lon="6.9340632"><ele>10.0</ele><time>2026-04-12T05:41:56.927Z</time></trkpt><trkpt lat="43.5803146" lon="6.9340093"><ele>10.0</ele><time>2026-04-12T05:41:57.926Z</time></trkpt><trkpt lat="43.5803876" lon="6.9339581"><ele>10.0</ele><time>2026-04-12T05:41:58.908Z</time></trkpt><trkpt lat="43.5804611" lon="6.9339053"><ele>10.0</ele><time>2026-04-12T05:41:59.932Z</time></trkpt><trkpt lat="43.5805386" lon="6.9338565"><ele>10.0</ele><time>2026-04-12T05:42:00.923Z</time></trkpt><trkpt lat="43.5806125" lon="6.9337957"><ele>10.166666666666668</ele><time>2026-04-12T05:42:01.918Z</time></trkpt><trkpt lat="43.5806914" lon="6.9337402"><ele>10.333333333333334</ele><time>2026-04-12T05:42:02.914Z</time></trkpt><trkpt lat="43.5807694" lon="6.9337021"><ele>10.5</ele><time>2026-04-12T05:42:03.912Z</time></trkpt><trkpt lat="43.5808459" lon="6.9336535"><ele>10.666666666666666</ele><time>2026-04-12T05:42:04.914Z</time></trkpt><trkpt lat="43.5809251" lon="6.9336054"><ele>10.833333333333332</ele><time>2026-04-12T05:42:05.924Z</time></trkpt><trkpt lat="43.5810084" lon="6.9335629"><ele>11.0</ele><time>2026-04-12T05:42:06.914Z</time></trkpt><trkpt lat="43.5810935" lon="6.9335242"><ele>11.0</ele><time>2026-04-12T05:42:07.915Z</time></trkpt><trkpt lat="43.581172" lon="6.9334817"><ele>11.0</ele><time>2026-04-12T05:42:08.929Z</time></trkpt><trkpt lat="43.5812561" lon="6.9334448"><ele>11.0</ele><time>2026-04-12T05:42:09.942Z</time></trkpt><trkpt lat="43.5813365" lon="6.9334033"><ele>11.0</ele><time>2026-04-12T05:42:10.917Z</time></trkpt><trkpt lat="43.5814187" lon="6.9333718"><ele>11.0</ele><time>2026-04-12T05:42:11.925Z</time></trkpt><trkpt lat="43.5815026" lon="6.9333388"><ele>11.0</ele><time>2026-04-12T05:42:12.933Z</time></trkpt><trkpt lat="43.5815896" lon="6.9333094"><ele>11.166666666666666</ele><time>2026-04-12T05:42:13.938Z</time></trkpt><trkpt lat="43.5816762" lon="6.933284"><ele>11.333333333333332</ele><time>2026-04-12T05:42:14.92Z</time></trkpt><trkpt lat="43.5817608" lon="6.9332578"><ele>11.5</ele><time>2026-04-12T05:42:15.919Z</time></trkpt><trkpt lat="43.581845" lon="6.933236"><ele>11.666666666666666</ele><time>2026-04-12T05:42:16.932Z</time></trkpt><trkpt lat="43.5819288" lon="6.9332116"><ele>11.833333333333334</ele><time>2026-04-12T05:42:17.897Z</time></trkpt><trkpt lat="43.5820119" lon="6.9331937"><ele>12.0</ele><time>2026-04-12T05:42:18.926Z</time></trkpt><trkpt lat="43.5820932" lon="6.9331759"><ele>12.0</ele><time>2026-04-12T05:42:19.929Z</time></trkpt><trkpt lat="43.5821731" lon="6.9331575"><ele>12.0</ele><time>2026-04-12T05:42:20.936Z</time></trkpt><trkpt lat="43.5822575" lon="6.9331424"><ele>12.0</ele><time>2026-04-12T05:42:21.927Z</time></trkpt><trkpt lat="43.5823373" lon="6.9331189"><ele>12.0</ele><time>2026-04-12T05:42:22.938Z</time></trkpt><trkpt lat="43.5824158" lon="6.9331078"><ele>12.0</ele><time>2026-04-12T05:42:23.905Z</time></trkpt><trkpt lat="43.5824958" lon="6.9331013"><ele>12.0</ele><time>2026-04-12T05:42:24.921Z</time></trkpt><trkpt lat="43.5825804" lon="6.933091"><ele>12.0</ele><time>2026-04-12T05:42:25.93Z</time></trkpt><trkpt lat="43.5826637" lon="6.9330832"><ele>12.0</ele><time>2026-04-12T05:42:26.921Z</time></trkpt><trkpt lat="43.5827512" lon="6.9330805"><ele>12.0</ele><time>2026-04-12T05:42:27.915Z</time></trkpt><trkpt lat="43.5828435" lon="6.9330779"><ele>12.0</ele><time>2026-04-12T05:42:28.938Z</time></trkpt><trkpt lat="43.582943" lon="6.9330797"><ele>12.0</ele><time>2026-04-12T05:42:29.931Z</time></trkpt><trkpt lat="43.583042" lon="6.9330814"><ele>11.6</ele><time>2026-04-12T05:42:30.929Z</time></trkpt><trkpt lat="43.5831395" lon="6.933081"><ele>11.2</ele><time>2026-04-12T05:42:31.923Z</time></trkpt><trkpt lat="43.5832411" lon="6.9330804"><ele>10.8</ele><time>2026-04-12T05:42:32.917Z</time></trkpt><trkpt lat="43.5833377" lon="6.9330852"><ele>10.4</ele><time>2026-04-12T05:42:33.92Z</time></trkpt><trkpt lat="43.5834367" lon="6.9330964"><ele>10.0</ele><time>2026-04-12T05:42:34.925Z</time></trkpt><trkpt lat="43.5835366" lon="6.9331186"><ele>10.0</ele><time>2026-04-12T05:42:35.933Z</time></trkpt><trkpt lat="43.5836359" lon="6.933135"><ele>10.0</ele><time>2026-04-12T05:42:36.92Z</time></trkpt><trkpt lat="43.5837385" lon="6.9331542"><ele>10.0</ele><time>2026-04-12T05:42:37.918Z</time></trkpt><trkpt lat="43.5838354" lon="6.9331767"><ele>10.0</ele><time>2026-04-12T05:42:38.92Z</time></trkpt><trkpt lat="43.5839283" lon="6.9332013"><ele>10.0</ele><time>2026-04-12T05:42:39.926Z</time></trkpt><trkpt lat="43.5840209" lon="6.9332236"><ele>9.8</ele><time>2026-04-12T05:42:40.93Z</time></trkpt><trkpt lat="43.5841113" lon="6.9332482"><ele>9.6</ele><time>2026-04-12T05:42:41.935Z</time></trkpt><trkpt lat="43.5842013" lon="6.9332748"><ele>9.4</ele><time>2026-04-12T05:42:42.92Z</time></trkpt><trkpt lat="43.5842902" lon="6.9333031"><ele>9.2</ele><time>2026-04-12T05:42:43.921Z</time></trkpt><trkpt lat="43.5843789" lon="6.9333365"><ele>9.0</ele><time>2026-04-12T05:42:44.934Z</time></trkpt><trkpt lat="43.5844665" lon="6.9333733"><ele>9.4</ele><time>2026-04-12T05:42:45.944Z</time></trkpt><trkpt lat="43.5845547" lon="6.9334117"><ele>9.8</ele><time>2026-04-12T05:42:46.929Z</time></trkpt><trkpt lat="43.5846382" lon="6.9334479"><ele>10.200000000000001</ele><time>2026-04-12T05:42:47.928Z</time></trkpt><trkpt lat="43.5847225" lon="6.933481"><ele>10.600000000000001</ele><time>2026-04-12T05:42:48.923Z</time></trkpt><trkpt lat="43.5848062" lon="6.9335251"><ele>11.0</ele><time>2026-04-12T05:42:49.929Z</time></trkpt><trkpt lat="43.5848938" lon="6.9335702"><ele>11.0</ele><time>2026-04-12T05:42:50.936Z</time></trkpt><trkpt lat="43.5849807" lon="6.9336168"><ele>11.0</ele><time>2026-04-12T05:42:51.944Z</time></trkpt><trkpt lat="43.5850681" lon="6.9336609"><ele>11.0</ele><time>2026-04-12T05:42:52.934Z</time></trkpt><trkpt lat="43.5851503" lon="6.9337085"><ele>11.0</ele><time>2026-04-12T05:42:53.94Z</time></trkpt><trkpt lat="43.5852313" lon="6.9337587"><ele>11.0</ele><time>2026-04-12T05:42:54.925Z</time></trkpt><trkpt lat="43.5853105" lon="6.9338043"><ele>11.0</ele><time>2026-04-12T05:42:55.934Z</time></trkpt><trkpt lat="43.5853929" lon="6.9338494"><ele>11.0</ele><time>2026-04-12T05:42:56.941Z</time></trkpt><trkpt lat="43.5854704" lon="6.9339001"><ele>11.0</ele><time>2026-04-12T05:42:57.911Z</time></trkpt><trkpt lat="43.5855498" lon="6.9339442"><ele>11.0</ele><time>2026-04-12T05:42:58.924Z</time></trkpt><trkpt lat="43.5856257" lon="6.9339938"><ele>11.0</ele><time>2026-04-12T05:42:59.944Z</time></trkpt><trkpt lat="43.5857015" lon="6.9340377"><ele>11.0</ele><time>2026-04-12T05:43:00.894Z</time></trkpt><trkpt lat="43.5857777" lon="6.9340861"><ele>11.0</ele><time>2026-04-12T05:43:01.907Z</time></trkpt><trkpt lat="43.5858556" lon="6.9341291"><ele>11.0</ele><time>2026-04-12T05:43:02.932Z</time></trkpt><trkpt lat="43.5859315" lon="6.9341763"><ele>11.0</ele><time>2026-04-12T05:43:03.942Z</time></trkpt><trkpt lat="43.5860066" lon="6.9342156"><ele>11.0</ele><time>2026-04-12T05:43:04.903Z</time></trkpt><trkpt lat="43.5860729" lon="6.934256"><ele>11.0</ele><time>2026-04-12T05:43:05.929Z</time></trkpt><trkpt lat="43.5861391" lon="6.9343022"><ele>11.0</ele><time>2026-04-12T05:43:06.931Z</time></trkpt><trkpt lat="43.5862031" lon="6.9343403"><ele>11.142857142857142</ele><time>2026-04-12T05:43:07.925Z</time></trkpt><trkpt lat="43.5862715" lon="6.9343804"><ele>11.285714285714285</ele><time>2026-04-12T05:43:08.929Z</time></trkpt><trkpt lat="43.5863406" lon="6.93442"><ele>11.428571428571427</ele><time>2026-04-12T05:43:09.933Z</time></trkpt><trkpt lat="43.5864103" lon="6.9344623"><ele>11.571428571428571</ele><time>2026-04-12T05:43:10.927Z</time></trkpt><trkpt lat="43.5864762" lon="6.9345045"><ele>11.714285714285714</ele><time>2026-04-12T05:43:11.918Z</time></trkpt><trkpt lat="43.5865389" lon="6.9345427"><ele>11.857142857142856</ele><time>2026-04-12T05:43:12.922Z</time></trkpt><trkpt lat="43.5865995" lon="6.9345823"><ele>12.0</ele><time>2026-04-12T05:43:13.932Z</time></trkpt><trkpt lat="43.5866584" lon="6.9346162"><ele>12.0</ele><time>2026-04-12T05:43:14.927Z</time></trkpt><trkpt lat="43.5867183" lon="6.9346523"><ele>12.0</ele><time>2026-04-12T05:43:15.926Z</time></trkpt><trkpt lat="43.5867775" lon="6.9346926"><ele>12.0</ele><time>2026-04-12T05:43:16.904Z</time></trkpt><trkpt lat="43.5868848" lon="6.9347656"><ele>12.0</ele><time>2026-04-12T05:43:18.893Z</time></trkpt><trkpt lat="43.5869717" lon="6.9348253"><ele>12.0</ele><time>2026-04-12T05:43:20.925Z</time></trkpt><trkpt lat="43.5870547" lon="6.9348833"><ele>12.0</ele><time>2026-04-12T05:43:22.916Z</time></trkpt><trkpt lat="43.5871342" lon="6.9349781"><ele>11.4</ele><time>2026-04-12T05:43:24.936Z</time></trkpt><trkpt lat="43.5871968" lon="6.9350978"><ele>10.799999999999999</ele><time>2026-04-12T05:43:26.948Z</time></trkpt><trkpt lat="43.5872684" lon="6.935215"><ele>10.2</ele><time>2026-04-12T05:43:28.922Z</time></trkpt><trkpt lat="43.5873699" lon="6.9352473"><ele>9.6</ele><time>2026-04-12T05:43:30.935Z</time></trkpt><trkpt lat="43.5874589" lon="6.9351952"><ele>9.0</ele><time>2026-04-12T05:43:32.916Z</time></trkpt><trkpt lat="43.587515" lon="6.93507"><ele>9.5</ele><time>2026-04-12T05:43:34.934Z</time></trkpt><trkpt lat="43.5875103" lon="6.9348952"><ele>10.0</ele><time>2026-04-12T05:43:36.929Z</time></trkpt><trkpt lat="43.5875173" lon="6.9348019"><ele>10.5</ele><time>2026-04-12T05:43:37.932Z</time></trkpt><trkpt lat="43.5875403" lon="6.9347023"><ele>11.0</ele><time>2026-04-12T05:43:38.917Z</time></trkpt><trkpt lat="43.5875685" lon="6.9346031"><ele>11.5</ele><time>2026-04-12T05:43:39.903Z</time></trkpt><trkpt lat="43.5876062" lon="6.9345057"><ele>12.0</ele><time>2026-04-12T05:43:40.922Z</time></trkpt><trkpt lat="43.5876512" lon="6.9344092"><ele>12.0</ele><time>2026-04-12T05:43:41.926Z</time></trkpt><trkpt lat="43.5876949" lon="6.9343177"><ele>12.0</ele><time>2026-04-12T05:43:42.908Z</time></trkpt><trkpt lat="43.5877325" lon="6.9342236"><ele>12.0</ele><time>2026-04-12T05:43:43.912Z</time></trkpt><trkpt lat="43.5877731" lon="6.9341342"><ele>12.0</ele><time>2026-04-12T05:43:44.903Z</time></trkpt><trkpt lat="43.5878181" lon="6.934046"><ele>12.0</ele><time>2026-04-12T05:43:45.918Z</time></trkpt><trkpt lat="43.5878656" lon="6.9339547"><ele>12.0</ele><time>2026-04-12T05:43:46.905Z</time></trkpt><trkpt lat="43.587911" lon="6.9338625"><ele>12.2</ele><time>2026-04-12T05:43:47.939Z</time></trkpt><trkpt lat="43.5879591" lon="6.9337658"><ele>12.399999999999999</ele><time>2026-04-12T05:43:48.93Z</time></trkpt><trkpt lat="43.5880085" lon="6.9336639"><ele>12.600000000000001</ele><time>2026-04-12T05:43:49.934Z</time></trkpt><trkpt lat="43.588064" lon="6.9335589"><ele>12.8</ele><time>2026-04-12T05:43:50.897Z</time></trkpt><trkpt lat="43.5881222" lon="6.9334512"><ele>13.0</ele><time>2026-04-12T05:43:51.942Z</time></trkpt><trkpt lat="43.588188" lon="6.9333457"><ele>13.0</ele><time>2026-04-12T05:43:52.928Z</time></trkpt><trkpt lat="43.588251" lon="6.9332435"><ele>13.0</ele><time>2026-04-12T05:43:53.927Z</time></trkpt><trkpt lat="43.5883164" lon="6.9331475"><ele>13.0</ele><time>2026-04-12T05:43:54.92Z</time></trkpt><trkpt lat="43.588382" lon="6.9330499"><ele>13.0</ele><time>2026-04-12T05:43:55.919Z</time></trkpt><trkpt lat="43.5884476" lon="6.9329516"><ele>13.0</ele><time>2026-04-12T05:43:56.917Z</time></trkpt><trkpt lat="43.5885099" lon="6.9328606"><ele>12.999999999999998</ele><time>2026-04-12T05:43:57.922Z</time></trkpt><trkpt lat="43.5885705" lon="6.9327857"><ele>13.0</ele><time>2026-04-12T05:43:58.931Z</time></trkpt><trkpt lat="43.58863" lon="6.9327075"><ele>13.0</ele><time>2026-04-12T05:43:59.933Z</time></trkpt><trkpt lat="43.5886884" lon="6.9326254"><ele>13.0</ele><time>2026-04-12T05:44:00.919Z</time></trkpt><trkpt lat="43.5887481" lon="6.9325454"><ele>12.999999999999998</ele><time>2026-04-12T05:44:01.935Z</time></trkpt><trkpt lat="43.5888107" lon="6.9324641"><ele>13.0</ele><time>2026-04-12T05:44:02.9Z</time></trkpt><trkpt lat="43.5888706" lon="6.932382"><ele>13.333333333333332</ele><time>2026-04-12T05:44:03.937Z</time></trkpt><trkpt lat="43.5889337" lon="6.9322974"><ele>13.666666666666666</ele><time>2026-04-12T05:44:04.906Z</time></trkpt><trkpt lat="43.5889942" lon="6.9322141"><ele>14.0</ele><time>2026-04-12T05:44:05.927Z</time></trkpt><trkpt lat="43.5890555" lon="6.9321333"><ele>14.333333333333332</ele><time>2026-04-12T05:44:06.934Z</time></trkpt><trkpt lat="43.5891211" lon="6.9320556"><ele>14.666666666666666</ele><time>2026-04-12T05:44:07.932Z</time></trkpt><trkpt lat="43.5891866" lon="6.9319788"><ele>15.0</ele><time>2026-04-12T05:44:08.945Z</time></trkpt><trkpt lat="43.5892473" lon="6.9319005"><ele>15.0</ele><time>2026-04-12T05:44:09.934Z</time></trkpt><trkpt lat="43.5893104" lon="6.9318293"><ele>15.0</ele><time>2026-04-12T05:44:10.892Z</time></trkpt><trkpt lat="43.5893703" lon="6.9317504"><ele>15.0</ele><time>2026-04-12T05:44:11.944Z</time></trkpt><trkpt lat="43.5894278" lon="6.9316758"><ele>15.0</ele><time>2026-04-12T05:44:12.89Z</time></trkpt><trkpt lat="43.5894865" lon="6.9315999"><ele>15.0</ele><time>2026-04-12T05:44:13.921Z</time></trkpt><trkpt lat="43.5895453" lon="6.9315165"><ele>15.0</ele><time>2026-04-12T05:44:14.936Z</time></trkpt><trkpt lat="43.5896071" lon="6.9314357"><ele>14.5</ele><time>2026-04-12T05:44:15.892Z</time></trkpt><trkpt lat="43.5896689" lon="6.9313551"><ele>14.0</ele><time>2026-04-12T05:44:16.93Z</time></trkpt><trkpt lat="43.5897305" lon="6.9312783"><ele>13.5</ele><time>2026-04-12T05:44:17.916Z</time></trkpt><trkpt lat="43.5897916" lon="6.931199"><ele>13.0</ele><time>2026-04-12T05:44:18.919Z</time></trkpt><trkpt lat="43.5898518" lon="6.9311201"><ele>12.5</ele><time>2026-04-12T05:44:19.931Z</time></trkpt><trkpt lat="43.5899123" lon="6.9310469"><ele>12.0</ele><time>2026-04-12T05:44:20.935Z</time></trkpt><trkpt lat="43.5899711" lon="6.9309654"><ele>12.166666666666666</ele><time>2026-04-12T05:44:21.926Z</time></trkpt><trkpt lat="43.5900271" lon="6.9308909"><ele>12.333333333333332</ele><time>2026-04-12T05:44:22.924Z</time></trkpt><trkpt lat="43.5900864" lon="6.9308164"><ele>12.5</ele><time>2026-04-12T05:44:23.928Z</time></trkpt><trkpt lat="43.5901427" lon="6.9307397"><ele>12.666666666666666</ele><time>2026-04-12T05:44:24.916Z</time></trkpt><trkpt lat="43.5902006" lon="6.9306658"><ele>12.833333333333332</ele><time>2026-04-12T05:44:25.939Z</time></trkpt><trkpt lat="43.5902565" lon="6.9305937"><ele>13.0</ele><time>2026-04-12T05:44:26.904Z</time></trkpt><trkpt lat="43.5903131" lon="6.9305246"><ele>13.142857142857142</ele><time>2026-04-12T05:44:27.939Z</time></trkpt><trkpt lat="43.5903655" lon="6.9304544"><ele>13.285714285714286</ele><time>2026-04-12T05:44:28.934Z</time></trkpt><trkpt lat="43.5904088" lon="6.9303812"><ele>13.428571428571429</ele><time>2026-04-12T05:44:29.904Z</time></trkpt><trkpt lat="43.5904488" lon="6.9303118"><ele>13.571428571428571</ele><time>2026-04-12T05:44:30.957Z</time></trkpt><trkpt lat="43.5904896" lon="6.9302449"><ele>13.714285714285715</ele><time>2026-04-12T05:44:31.913Z</time></trkpt><trkpt lat="43.5905293" lon="6.9301648"><ele>13.857142857142858</ele><time>2026-04-12T05:44:32.925Z</time></trkpt><trkpt lat="43.5905712" lon="6.9300902"><ele>14.0</ele><time>2026-04-12T05:44:33.927Z</time></trkpt><trkpt lat="43.5906142" lon="6.9300197"><ele>14.000000000000002</ele><time>2026-04-12T05:44:34.917Z</time></trkpt><trkpt lat="43.5906573" lon="6.929956"><ele>14.0</ele><time>2026-04-12T05:44:35.93Z</time></trkpt><trkpt lat="43.5906984" lon="6.929884"><ele>14.0</ele><time>2026-04-12T05:44:36.922Z</time></trkpt><trkpt lat="43.5907369" lon="6.9298149"><ele>14.0</ele><time>2026-04-12T05:44:37.923Z</time></trkpt><trkpt lat="43.5908036" lon="6.9296739"><ele>14.000000000000002</ele><time>2026-04-12T05:44:39.927Z</time></trkpt><trkpt lat="43.5908557" lon="6.9295566"><ele>14.0</ele><time>2026-04-12T05:44:41.926Z</time></trkpt><trkpt lat="43.5909126" lon="6.9294745"><ele>14.0</ele><time>2026-04-12T05:44:43.927Z</time></trkpt><trkpt lat="43.5909694" lon="6.9293974"><ele>14.0</ele><time>2026-04-12T05:44:45.932Z</time></trkpt><trkpt lat="43.5910299" lon="6.9293244"><ele>14.0</ele><time>2026-04-12T05:44:47.93Z</time></trkpt><trkpt lat="43.5910945" lon="6.929278"><ele>14.0</ele><time>2026-04-12T05:44:49.933Z</time></trkpt><trkpt lat="43.5911478" lon="6.9292244"><ele>14.0</ele><time>2026-04-12T05:44:51.927Z</time></trkpt><trkpt lat="43.5911787" lon="6.9291381"><ele>14.0</ele><time>2026-04-12T05:44:53.916Z</time></trkpt><trkpt lat="43.5911566" lon="6.9290361"><ele>14.0</ele><time>2026-04-12T05:44:55.905Z</time></trkpt><trkpt lat="43.5910538" lon="6.9290091"><ele>14.166666666666668</ele><time>2026-04-12T05:44:57.919Z</time></trkpt><trkpt lat="43.5909893" lon="6.9290079"><ele>14.333333333333334</ele><time>2026-04-12T05:44:58.918Z</time></trkpt><trkpt lat="43.5909196" lon="6.9290064"><ele>14.5</ele><time>2026-04-12T05:44:59.919Z</time></trkpt><trkpt lat="43.5908458" lon="6.928993"><ele>14.666666666666668</ele><time>2026-04-12T05:45:00.942Z</time></trkpt><trkpt lat="43.5907716" lon="6.9289674"><ele>14.833333333333334</ele><time>2026-04-12T05:45:01.923Z</time></trkpt><trkpt lat="43.5906965" lon="6.9289354"><ele>15.0</ele><time>2026-04-12T05:45:02.923Z</time></trkpt><trkpt lat="43.5906127" lon="6.9288986"><ele>15.0</ele><time>2026-04-12T05:45:03.928Z</time></trkpt><trkpt lat="43.590524" lon="6.9288637"><ele>15.0</ele><time>2026-04-12T05:45:04.924Z</time></trkpt><trkpt lat="43.5904273" lon="6.9288247"><ele>15.0</ele><time>2026-04-12T05:45:05.877Z</time></trkpt><trkpt lat="43.590327" lon="6.9287879"><ele>15.0</ele><time>2026-04-12T05:45:06.92Z</time></trkpt><trkpt lat="43.5902236" lon="6.9287528"><ele>15.0</ele><time>2026-04-12T05:45:07.911Z</time></trkpt><trkpt lat="43.5901178" lon="6.9287201"><ele>14.8</ele><time>2026-04-12T05:45:08.941Z</time></trkpt><trkpt lat="43.5900182" lon="6.928674"><ele>14.6</ele><time>2026-04-12T05:45:09.96Z</time></trkpt><trkpt lat="43.5899249" lon="6.9286102"><ele>14.399999999999999</ele><time>2026-04-12T05:45:10.908Z</time></trkpt><trkpt lat="43.5898439" lon="6.9285348"><ele>14.2</ele><time>2026-04-12T05:45:11.929Z</time></trkpt><trkpt lat="43.5897722" lon="6.9284486"><ele>14.0</ele><time>2026-04-12T05:45:12.91Z</time></trkpt><trkpt lat="43.5897091" lon="6.9283755"><ele>14.000000000000002</ele><time>2026-04-12T05:45:13.901Z</time></trkpt><trkpt lat="43.58965" lon="6.9283092"><ele>14.0</ele><time>2026-04-12T05:45:14.927Z</time></trkpt><trkpt lat="43.589587" lon="6.9282418"><ele>14.0</ele><time>2026-04-12T05:45:15.909Z</time></trkpt><trkpt lat="43.5895234" lon="6.9281744"><ele>14.0</ele><time>2026-04-12T05:45:16.916Z</time></trkpt><trkpt lat="43.5894605" lon="6.9280982"><ele>14.000000000000002</ele><time>2026-04-12T05:45:17.937Z</time></trkpt><trkpt lat="43.589393" lon="6.928013"><ele>14.0</ele><time>2026-04-12T05:45:18.923Z</time></trkpt><trkpt lat="43.5893273" lon="6.9279231"><ele>13.799999999999999</ele><time>2026-04-12T05:45:19.925Z</time></trkpt><trkpt lat="43.5892599" lon="6.9278394"><ele>13.599999999999998</ele><time>2026-04-12T05:45:20.918Z</time></trkpt><trkpt lat="43.5891909" lon="6.9277559"><ele>13.4</ele><time>2026-04-12T05:45:21.905Z</time></trkpt><trkpt lat="43.5891211" lon="6.927668"><ele>13.2</ele><time>2026-04-12T05:45:22.914Z</time></trkpt><trkpt lat="43.5890504" lon="6.9275711"><ele>13.0</ele><time>2026-04-12T05:45:23.924Z</time></trkpt><trkpt lat="43.5889799" lon="6.9274825"><ele>13.0</ele><time>2026-04-12T05:45:24.933Z</time></trkpt><trkpt lat="43.5889071" lon="6.9273978"><ele>13.0</ele><time>2026-04-12T05:45:25.933Z</time></trkpt><trkpt lat="43.5888303" lon="6.9273096"><ele>13.0</ele><time>2026-04-12T05:45:26.93Z</time></trkpt><trkpt lat="43.5887504" lon="6.9272263"><ele>13.0</ele><time>2026-04-12T05:45:27.918Z</time></trkpt><trkpt lat="43.5886706" lon="6.927137"><ele>13.0</ele><time>2026-04-12T05:45:28.895Z</time></trkpt><trkpt lat="43.5885851" lon="6.9270503"><ele>12.8</ele><time>2026-04-12T05:45:29.916Z</time></trkpt><trkpt lat="43.5884946" lon="6.9269618"><ele>12.600000000000001</ele><time>2026-04-12T05:45:30.943Z</time></trkpt><trkpt lat="43.5884081" lon="6.9268781"><ele>12.399999999999999</ele><time>2026-04-12T05:45:31.93Z</time></trkpt><trkpt lat="43.5883163" lon="6.9267973"><ele>12.2</ele><time>2026-04-12T05:45:32.93Z</time></trkpt><trkpt lat="43.5882257" lon="6.9267181"><ele>12.0</ele><time>2026-04-12T05:45:33.925Z</time></trkpt><trkpt lat="43.5881376" lon="6.9266378"><ele>12.0</ele><time>2026-04-12T05:45:34.924Z</time></trkpt><trkpt lat="43.588054" lon="6.9265552"><ele>12.0</ele><time>2026-04-12T05:45:35.901Z</time></trkpt><trkpt lat="43.587969" lon="6.9264748"><ele>12.0</ele><time>2026-04-12T05:45:36.942Z</time></trkpt><trkpt lat="43.5878914" lon="6.9264"><ele>12.0</ele><time>2026-04-12T05:45:37.929Z</time></trkpt><trkpt lat="43.5878109" lon="6.926327"><ele>12.0</ele><time>2026-04-12T05:45:38.924Z</time></trkpt><trkpt lat="43.5877344" lon="6.9262559"><ele>12.166666666666666</ele><time>2026-04-12T05:45:39.928Z</time></trkpt><trkpt lat="43.5876642" lon="6.9261854"><ele>12.333333333333332</ele><time>2026-04-12T05:45:40.929Z</time></trkpt><trkpt lat="43.5875976" lon="6.9261108"><ele>12.5</ele><time>2026-04-12T05:45:41.912Z</time></trkpt><trkpt lat="43.5875281" lon="6.9260474"><ele>12.666666666666666</ele><time>2026-04-12T05:45:42.928Z</time></trkpt><trkpt lat="43.5874547" lon="6.9259765"><ele>12.833333333333332</ele><time>2026-04-12T05:45:43.934Z</time></trkpt><trkpt lat="43.5873797" lon="6.9259036"><ele>13.0</ele><time>2026-04-12T05:45:44.919Z</time></trkpt><trkpt lat="43.5873073" lon="6.9258362"><ele>12.999999999999998</ele><time>2026-04-12T05:45:45.92Z</time></trkpt><trkpt lat="43.5872414" lon="6.9257773"><ele>13.0</ele><time>2026-04-12T05:45:46.896Z</time></trkpt><trkpt lat="43.5871802" lon="6.9257204"><ele>13.0</ele><time>2026-04-12T05:45:47.91Z</time></trkpt><trkpt lat="43.587114" lon="6.9256621"><ele>13.0</ele><time>2026-04-12T05:45:48.93Z</time></trkpt><trkpt lat="43.5870493" lon="6.9256037"><ele>12.999999999999998</ele><time>2026-04-12T05:45:49.932Z</time></trkpt><trkpt lat="43.5869975" lon="6.9255534"><ele>13.0</ele><time>2026-04-12T05:45:50.934Z</time></trkpt><trkpt lat="43.5869204" lon="6.9254467"><ele>12.999999999999998</ele><time>2026-04-12T05:45:52.933Z</time></trkpt><trkpt lat="43.5869263" lon="6.9253207"><ele>13.0</ele><time>2026-04-12T05:45:54.924Z</time></trkpt><trkpt lat="43.5869782" lon="6.9252587"><ele>13.0</ele><time>2026-04-12T05:45:55.934Z</time></trkpt><trkpt lat="43.5870407" lon="6.9251985"><ele>13.0</ele><time>2026-04-12T05:45:56.923Z</time></trkpt><trkpt lat="43.5871191" lon="6.9251526"><ele>12.999999999999998</ele><time>2026-04-12T05:45:57.901Z</time></trkpt><trkpt lat="43.5872005" lon="6.9251214"><ele>13.0</ele><time>2026-04-12T05:45:58.905Z</time></trkpt><trkpt lat="43.587282" lon="6.9251107"><ele>12.999999999999998</ele><time>2026-04-12T05:45:59.891Z</time></trkpt><trkpt lat="43.5873673" lon="6.9251095"><ele>13.0</ele><time>2026-04-12T05:46:00.905Z</time></trkpt><trkpt lat="43.5874464" lon="6.9251198"><ele>13.0</ele><time>2026-04-12T05:46:01.939Z</time></trkpt><trkpt lat="43.5875129" lon="6.9251191"><ele>13.0</ele><time>2026-04-12T05:46:02.925Z</time></trkpt><trkpt lat="43.5876011" lon="6.9250991"><ele>12.999999999999998</ele><time>2026-04-12T05:46:04.936Z</time></trkpt><trkpt lat="43.5876637" lon="6.9250308"><ele>13.0</ele><time>2026-04-12T05:46:06.906Z</time></trkpt><trkpt lat="43.5877305" lon="6.9248858"><ele>12.857142857142856</ele><time>2026-04-12T05:46:08.897Z</time></trkpt><trkpt lat="43.5877658" lon="6.9248013"><ele>12.714285714285715</ele><time>2026-04-12T05:46:09.87Z</time></trkpt><trkpt lat="43.5877929" lon="6.9247116"><ele>12.571428571428571</ele><time>2026-04-12T05:46:10.87Z</time></trkpt><trkpt lat="43.5878215" lon="6.9246261"><ele>12.428571428571427</ele><time>2026-04-12T05:46:11.857Z</time></trkpt><trkpt lat="43.587847" lon="6.9245425"><ele>12.285714285714285</ele><time>2026-04-12T05:46:12.889Z</time></trkpt><trkpt lat="43.5878703" lon="6.9244381"><ele>12.142857142857142</ele><time>2026-04-12T05:46:13.914Z</time></trkpt><trkpt lat="43.5878732" lon="6.9243317"><ele>12.0</ele><time>2026-04-12T05:46:14.87Z</time></trkpt><trkpt lat="43.587868" lon="6.9242303"><ele>12.5</ele><time>2026-04-12T05:46:15.905Z</time></trkpt><trkpt lat="43.5878669" lon="6.9241109"><ele>13.0</ele><time>2026-04-12T05:46:16.926Z</time></trkpt><trkpt lat="43.5878717" lon="6.9239939"><ele>13.5</ele><time>2026-04-12T05:46:17.931Z</time></trkpt><trkpt lat="43.5878756" lon="6.923869"><ele>14.0</ele><time>2026-04-12T05:46:18.936Z</time></trkpt><trkpt lat="43.5878749" lon="6.9237418"><ele>14.5</ele><time>2026-04-12T05:46:19.913Z</time></trkpt><trkpt lat="43.5878737" lon="6.9236125"><ele>15.0</ele><time>2026-04-12T05:46:20.924Z</time></trkpt><trkpt lat="43.5878847" lon="6.9234824"><ele>14.8</ele><time>2026-04-12T05:46:21.928Z</time></trkpt><trkpt lat="43.5878927" lon="6.9233519"><ele>14.6</ele><time>2026-04-12T05:46:22.874Z</time></trkpt><trkpt lat="43.5878993" lon="6.9232154"><ele>14.399999999999999</ele><time>2026-04-12T05:46:23.892Z</time></trkpt><trkpt lat="43.5878931" lon="6.9230829"><ele>14.2</ele><time>2026-04-12T05:46:24.87Z</time></trkpt><trkpt lat="43.5878683" lon="6.9229496"><ele>14.0</ele><time>2026-04-12T05:46:25.923Z</time></trkpt><trkpt lat="43.5878417" lon="6.9228191"><ele>17.799999999999997</ele><time>2026-04-12T05:46:26.877Z</time></trkpt><trkpt lat="43.5878134" lon="6.9226936"><ele>21.599999999999998</ele><time>2026-04-12T05:46:27.942Z</time></trkpt><trkpt lat="43.5877797" lon="6.9225675"><ele>25.4</ele><time>2026-04-12T05:46:28.919Z</time></trkpt><trkpt lat="43.5877422" lon="6.9224538"><ele>29.2</ele><time>2026-04-12T05:46:29.934Z</time></trkpt><trkpt lat="43.5877013" lon="6.9223457"><ele>33.0</ele><time>2026-04-12T05:46:30.919Z</time></trkpt><trkpt lat="43.5876696" lon="6.9222358"><ele>33.0</ele><time>2026-04-12T05:46:31.877Z</time></trkpt><trkpt lat="43.5876554" lon="6.92213"><ele>33.0</ele><time>2026-04-12T05:46:32.922Z</time></trkpt><trkpt lat="43.5876658" lon="6.9220256"><ele>33.0</ele><time>2026-04-12T05:46:33.937Z</time></trkpt><trkpt lat="43.5876915" lon="6.9219258"><ele>33.0</ele><time>2026-04-12T05:46:34.925Z</time></trkpt><trkpt lat="43.5877117" lon="6.9218328"><ele>33.0</ele><time>2026-04-12T05:46:35.917Z</time></trkpt><trkpt lat="43.587721" lon="6.9217457"><ele>33.0</ele><time>2026-04-12T05:46:36.908Z</time></trkpt><trkpt lat="43.5877072" lon="6.9215743"><ele>33.0</ele><time>2026-04-12T05:46:38.91Z</time></trkpt><trkpt lat="43.5876986" lon="6.9214796"><ele>33.0</ele><time>2026-04-12T05:46:39.922Z</time></trkpt><trkpt lat="43.5876894" lon="6.9213775"><ele>33.0</ele><time>2026-04-12T05:46:40.922Z</time></trkpt><trkpt lat="43.5876853" lon="6.9212851"><ele>33.0</ele><time>2026-04-12T05:46:41.934Z</time></trkpt><trkpt lat="43.5876811" lon="6.9211864"><ele>33.0</ele><time>2026-04-12T05:46:42.92Z</time></trkpt><trkpt lat="43.5876715" lon="6.9210956"><ele>33.0</ele><time>2026-04-12T05:46:43.919Z</time></trkpt><trkpt lat="43.5876625" lon="6.9210077"><ele>33.0</ele><time>2026-04-12T05:46:44.902Z</time></trkpt><trkpt lat="43.5876612" lon="6.9209198"><ele>31.2</ele><time>2026-04-12T05:46:45.936Z</time></trkpt><trkpt lat="43.5876986" lon="6.9207822"><ele>29.4</ele><time>2026-04-12T05:46:47.938Z</time></trkpt><trkpt lat="43.5877972" lon="6.9207105"><ele>27.599999999999998</ele><time>2026-04-12T05:46:49.927Z</time></trkpt><trkpt lat="43.5878717" lon="6.9207176"><ele>25.799999999999997</ele><time>2026-04-12T05:46:50.909Z</time></trkpt><trkpt lat="43.5879305" lon="6.9207513"><ele>24.0</ele><time>2026-04-12T05:46:51.932Z</time></trkpt><trkpt lat="43.5880405" lon="6.9207765"><ele>24.0</ele><time>2026-04-12T05:46:53.932Z</time></trkpt><trkpt lat="43.588131" lon="6.9206852"><ele>24.0</ele><time>2026-04-12T05:46:55.925Z</time></trkpt><trkpt lat="43.5881687" lon="6.9205403"><ele>24.0</ele><time>2026-04-12T05:46:57.935Z</time></trkpt><trkpt lat="43.588184" lon="6.9203894"><ele>24.0</ele><time>2026-04-12T05:46:59.909Z</time></trkpt><trkpt lat="43.5882053" lon="6.9202301"><ele>24.0</ele><time>2026-04-12T05:47:01.935Z</time></trkpt><trkpt lat="43.5882491" lon="6.9200823"><ele>24.0</ele><time>2026-04-12T05:47:03.933Z</time></trkpt><trkpt lat="43.5882954" lon="6.9199361"><ele>24.0</ele><time>2026-04-12T05:47:05.924Z</time></trkpt><trkpt lat="43.5883399" lon="6.9197859"><ele>24.0</ele><time>2026-04-12T05:47:07.895Z</time></trkpt><trkpt lat="43.588343" lon="6.9196398"><ele>25.6</ele><time>2026-04-12T05:47:09.934Z</time></trkpt><trkpt lat="43.5882829" lon="6.9194973"><ele>27.2</ele><time>2026-04-12T05:47:11.891Z</time></trkpt><trkpt lat="43.5882355" lon="6.9194255"><ele>28.800000000000004</ele><time>2026-04-12T05:47:12.929Z</time></trkpt><trkpt lat="43.5881584" lon="6.9192886"><ele>30.400000000000002</ele><time>2026-04-12T05:47:14.926Z</time></trkpt><trkpt lat="43.5881172" lon="6.9192197"><ele>32.0</ele><time>2026-04-12T05:47:15.922Z</time></trkpt><trkpt lat="43.588082" lon="6.9191337"><ele>32.0</ele><time>2026-04-12T05:47:16.91Z</time></trkpt><trkpt lat="43.5880477" lon="6.9190496"><ele>31.999999999999996</ele><time>2026-04-12T05:47:17.9Z</time></trkpt><trkpt lat="43.5880095" lon="6.9189653"><ele>32.0</ele><time>2026-04-12T05:47:18.925Z</time></trkpt><trkpt lat="43.5879553" lon="6.9188929"><ele>32.0</ele><time>2026-04-12T05:47:19.912Z</time></trkpt><trkpt lat="43.5878979" lon="6.9188262"><ele>31.999999999999996</ele><time>2026-04-12T05:47:20.902Z</time></trkpt><trkpt lat="43.5878473" lon="6.9187607"><ele>32.0</ele><time>2026-04-12T05:47:21.941Z</time></trkpt><trkpt lat="43.5877942" lon="6.9186863"><ele>32.0</ele><time>2026-04-12T05:47:22.91Z</time></trkpt><trkpt lat="43.5877413" lon="6.9186192"><ele>36.33333333333333</ele><time>2026-04-12T05:47:23.926Z</time></trkpt><trkpt lat="43.5876889" lon="6.9185459"><ele>40.666666666666664</ele><time>2026-04-12T05:47:24.925Z</time></trkpt><trkpt lat="43.5876388" lon="6.9184778"><ele>45.0</ele><time>2026-04-12T05:47:25.924Z</time></trkpt><trkpt lat="43.5875863" lon="6.9184052"><ele>49.33333333333333</ele><time>2026-04-12T05:47:26.902Z</time></trkpt><trkpt lat="43.5875359" lon="6.9183256"><ele>53.666666666666664</ele><time>2026-04-12T05:47:27.928Z</time></trkpt><trkpt lat="43.5874865" lon="6.918237"><ele>58.0</ele><time>2026-04-12T05:47:28.923Z</time></trkpt><trkpt lat="43.5874469" lon="6.9181412"><ele>58.0</ele><time>2026-04-12T05:47:29.907Z</time></trkpt><trkpt lat="43.5874173" lon="6.9180499"><ele>58.0</ele><time>2026-04-12T05:47:30.921Z</time></trkpt><trkpt lat="43.5874524" lon="6.9178866"><ele>58.0</ele><time>2026-04-12T05:47:32.917Z</time></trkpt><trkpt lat="43.5875128" lon="6.9178512"><ele>58.0</ele><time>2026-04-12T05:47:33.883Z</time></trkpt><trkpt lat="43.5875774" lon="6.9178339"><ele>58.0</ele><time>2026-04-12T05:47:34.916Z</time></trkpt><trkpt lat="43.5877008" lon="6.9178718"><ele>58.0</ele><time>2026-04-12T05:47:36.909Z</time></trkpt><trkpt lat="43.5877685" lon="6.9178924"><ele>58.0</ele><time>2026-04-12T05:47:37.909Z</time></trkpt><trkpt lat="43.5878788" lon="6.9179558"><ele>58.0</ele><time>2026-04-12T05:47:39.903Z</time></trkpt><trkpt lat="43.587991" lon="6.9180189"><ele>58.0</ele><time>2026-04-12T05:47:41.888Z</time></trkpt><trkpt lat="43.5881054" lon="6.9180838"><ele>58.0</ele><time>2026-04-12T05:47:43.915Z</time></trkpt><trkpt lat="43.5882124" lon="6.9181403"><ele>54.8</ele><time>2026-04-12T05:47:45.919Z</time></trkpt><trkpt lat="43.5883283" lon="6.9181646"><ele>51.599999999999994</ele><time>2026-04-12T05:47:47.89Z</time></trkpt><trkpt lat="43.5884175" lon="6.9181095"><ele>48.400000000000006</ele><time>2026-04-12T05:47:49.911Z</time></trkpt><trkpt lat="43.5884774" lon="6.9179883"><ele>45.2</ele><time>2026-04-12T05:47:51.927Z</time></trkpt><trkpt lat="43.588515" lon="6.917862"><ele>42.0</ele><time>2026-04-12T05:47:53.939Z</time></trkpt><trkpt lat="43.5885589" lon="6.9177332"><ele>42.0</ele><time>2026-04-12T05:47:55.935Z</time></trkpt><trkpt lat="43.5886005" lon="6.917607"><ele>42.0</ele><time>2026-04-12T05:47:57.913Z</time></trkpt><trkpt lat="43.5886541" lon="6.9174945"><ele>42.0</ele><time>2026-04-12T05:47:59.92Z</time></trkpt><trkpt lat="43.5887383" lon="6.9174202"><ele>42.0</ele><time>2026-04-12T05:48:01.927Z</time></trkpt><trkpt lat="43.5888365" lon="6.9173931"><ele>42.0</ele><time>2026-04-12T05:48:03.94Z</time></trkpt><trkpt lat="43.5889346" lon="6.9173918"><ele>43.400000000000006</ele><time>2026-04-12T05:48:05.91Z</time></trkpt><trkpt lat="43.5890301" lon="6.9174319"><ele>44.800000000000004</ele><time>2026-04-12T05:48:07.928Z</time></trkpt><trkpt lat="43.5890926" lon="6.9175323"><ele>46.2</ele><time>2026-04-12T05:48:09.921Z</time></trkpt><trkpt lat="43.5891265" lon="6.9176504"><ele>47.6</ele><time>2026-04-12T05:48:11.864Z</time></trkpt><trkpt lat="43.5891491" lon="6.9177828"><ele>49.0</ele><time>2026-04-12T05:48:13.926Z</time></trkpt><trkpt lat="43.5891917" lon="6.9178985"><ele>49.0</ele><time>2026-04-12T05:48:15.924Z</time></trkpt><trkpt lat="43.5892491" lon="6.9180155"><ele>49.0</ele><time>2026-04-12T05:48:17.889Z</time></trkpt><trkpt lat="43.589317" lon="6.918105"><ele>49.0</ele><time>2026-04-12T05:48:19.875Z</time></trkpt><trkpt lat="43.5894088" lon="6.9181155"><ele>49.0</ele><time>2026-04-12T05:48:21.905Z</time></trkpt><trkpt lat="43.5894913" lon="6.9180591"><ele>49.0</ele><time>2026-04-12T05:48:23.873Z</time></trkpt><trkpt lat="43.5895803" lon="6.91797"><ele>48.49999999999999</ele><time>2026-04-12T05:48:25.905Z</time></trkpt><trkpt lat="43.5896567" lon="6.9178604"><ele>48.0</ele><time>2026-04-12T05:48:27.902Z</time></trkpt><trkpt lat="43.589717" lon="6.9177522"><ele>47.5</ele><time>2026-04-12T05:48:29.904Z</time></trkpt><trkpt lat="43.5897178" lon="6.9176411"><ele>47.0</ele><time>2026-04-12T05:48:31.933Z</time></trkpt><trkpt lat="43.5896583" lon="6.9175877"><ele>46.5</ele><time>2026-04-12T05:48:33.932Z</time></trkpt><trkpt lat="43.5895906" lon="6.9175963"><ele>46.0</ele><time>2026-04-12T05:48:35.916Z</time></trkpt><trkpt lat="43.589537" lon="6.9176456"><ele>46.599999999999994</ele><time>2026-04-12T05:48:37.896Z</time></trkpt><trkpt lat="43.589468" lon="6.9176748"><ele>47.2</ele><time>2026-04-12T05:48:39.898Z</time></trkpt><trkpt lat="43.5893802" lon="6.9176594"><ele>47.8</ele><time>2026-04-12T05:48:41.931Z</time></trkpt><trkpt lat="43.5893142" lon="6.9175416"><ele>48.400000000000006</ele><time>2026-04-12T05:48:43.868Z</time></trkpt><trkpt lat="43.589275" lon="6.9174143"><ele>49.0</ele><time>2026-04-12T05:48:45.88Z</time></trkpt><trkpt lat="43.5892416" lon="6.917282"><ele>52.800000000000004</ele><time>2026-04-12T05:48:47.902Z</time></trkpt><trkpt lat="43.5892164" lon="6.9171514"><ele>56.6</ele><time>2026-04-12T05:48:49.948Z</time></trkpt><trkpt lat="43.5891793" lon="6.9170313"><ele>60.4</ele><time>2026-04-12T05:48:51.896Z</time></trkpt><trkpt lat="43.5891228" lon="6.9169321"><ele>64.2</ele><time>2026-04-12T05:48:53.924Z</time></trkpt><trkpt lat="43.5890349" lon="6.9168887"><ele>68.0</ele><time>2026-04-12T05:48:55.893Z</time></trkpt><trkpt lat="43.588954" lon="6.9168521"><ele>68.0</ele><time>2026-04-12T05:48:57.9Z</time></trkpt><trkpt lat="43.588881" lon="6.9167887"><ele>68.0</ele><time>2026-04-12T05:48:59.948Z</time></trkpt><trkpt lat="43.5888141" lon="6.9167087"><ele>68.0</ele><time>2026-04-12T05:49:01.907Z</time></trkpt><trkpt lat="43.5887542" lon="6.9166141"><ele>68.0</ele><time>2026-04-12T05:49:03.91Z</time></trkpt><trkpt lat="43.5886942" lon="6.9165184"><ele>68.0</ele><time>2026-04-12T05:49:05.94Z</time></trkpt><trkpt lat="43.5886389" lon="6.9164362"><ele>68.0</ele><time>2026-04-12T05:49:07.922Z</time></trkpt><trkpt lat="43.5885751" lon="6.9163752"><ele>67.33333333333334</ele><time>2026-04-12T05:49:09.91Z</time></trkpt><trkpt lat="43.5885094" lon="6.9163524"><ele>66.66666666666667</ele><time>2026-04-12T05:49:11.885Z</time></trkpt><trkpt lat="43.5884466" lon="6.9164087"><ele>66.0</ele><time>2026-04-12T05:49:13.874Z</time></trkpt><trkpt lat="43.588405" lon="6.9165202"><ele>65.33333333333333</ele><time>2026-04-12T05:49:15.929Z</time></trkpt><trkpt lat="43.5883612" lon="6.9166408"><ele>64.66666666666666</ele><time>2026-04-12T05:49:17.929Z</time></trkpt><trkpt lat="43.5883155" lon="6.9167703"><ele>64.0</ele><time>2026-04-12T05:49:19.927Z</time></trkpt><trkpt lat="43.5882603" lon="6.9168799"><ele>64.0</ele><time>2026-04-12T05:49:21.873Z</time></trkpt><trkpt lat="43.5881757" lon="6.9169524"><ele>64.0</ele><time>2026-04-12T05:49:23.929Z</time></trkpt><trkpt lat="43.5880837" lon="6.9169554"><ele>64.0</ele><time>2026-04-12T05:49:25.93Z</time></trkpt><trkpt lat="43.5879821" lon="6.916942"><ele>64.0</ele><time>2026-04-12T05:49:27.934Z</time></trkpt><trkpt lat="43.5878797" lon="6.916928"><ele>64.0</ele><time>2026-04-12T05:49:29.931Z</time></trkpt><trkpt lat="43.5877837" lon="6.9169001"><ele>63.666666666666664</ele><time>2026-04-12T05:49:31.934Z</time></trkpt><trkpt lat="43.5877165" lon="6.9168025"><ele>63.33333333333333</ele><time>2026-04-12T05:49:33.897Z</time></trkpt><trkpt lat="43.587701" lon="6.916678"><ele>63.0</ele><time>2026-04-12T05:49:35.922Z</time></trkpt><trkpt lat="43.5877548" lon="6.9165923"><ele>62.66666666666667</ele><time>2026-04-12T05:49:37.909Z</time></trkpt><trkpt lat="43.5878394" lon="6.9165553"><ele>62.333333333333336</ele><time>2026-04-12T05:49:39.927Z</time></trkpt><trkpt lat="43.5879203" lon="6.9165801"><ele>62.0</ele><time>2026-04-12T05:49:41.925Z</time></trkpt><trkpt lat="43.5880155" lon="6.9166222"><ele>67.2</ele><time>2026-04-12T05:49:43.922Z</time></trkpt><trkpt lat="43.5881218" lon="6.9165942"><ele>72.4</ele><time>2026-04-12T05:49:45.916Z</time></trkpt><trkpt lat="43.5881767" lon="6.9164723"><ele>77.60000000000001</ele><time>2026-04-12T05:49:47.935Z</time></trkpt><trkpt lat="43.5882156" lon="6.9163438"><ele>82.80000000000001</ele><time>2026-04-12T05:49:49.883Z</time></trkpt><trkpt lat="43.5882569" lon="6.9162147"><ele>88.0</ele><time>2026-04-12T05:49:51.909Z</time></trkpt><trkpt lat="43.5883028" lon="6.9160992"><ele>88.0</ele><time>2026-04-12T05:49:53.923Z</time></trkpt><trkpt lat="43.5883581" lon="6.9159842"><ele>88.0</ele><time>2026-04-12T05:49:55.931Z</time></trkpt><trkpt lat="43.5884164" lon="6.9158735"><ele>88.0</ele><time>2026-04-12T05:49:57.926Z</time></trkpt><trkpt lat="43.5885018" lon="6.9157935"><ele>88.0</ele><time>2026-04-12T05:49:59.903Z</time></trkpt><trkpt lat="43.5885992" lon="6.9157856"><ele>88.0</ele><time>2026-04-12T05:50:01.898Z</time></trkpt><trkpt lat="43.58869" lon="6.9158174"><ele>87.2</ele><time>2026-04-12T05:50:03.904Z</time></trkpt><trkpt lat="43.5887766" lon="6.9158624"><ele>86.4</ele><time>2026-04-12T05:50:05.935Z</time></trkpt><trkpt lat="43.5888691" lon="6.9159226"><ele>85.60000000000001</ele><time>2026-04-12T05:50:07.93Z</time></trkpt><trkpt lat="43.5889496" lon="6.9159591"><ele>84.80000000000001</ele><time>2026-04-12T05:50:09.93Z</time></trkpt><trkpt lat="43.5890343" lon="6.9160022"><ele>84.0</ele><time>2026-04-12T05:50:11.917Z</time></trkpt><trkpt lat="43.5891229" lon="6.9160116"><ele>84.0</ele><time>2026-04-12T05:50:13.922Z</time></trkpt><trkpt lat="43.5891895" lon="6.9159598"><ele>84.0</ele><time>2026-04-12T05:50:15.911Z</time></trkpt><trkpt lat="43.5891935" lon="6.9158563"><ele>84.0</ele><time>2026-04-12T05:50:17.913Z</time></trkpt><trkpt lat="43.5891446" lon="6.9157667"><ele>84.0</ele><time>2026-04-12T05:50:19.915Z</time></trkpt><trkpt lat="43.5890791" lon="6.9156876"><ele>84.0</ele><time>2026-04-12T05:50:21.931Z</time></trkpt><trkpt lat="43.5890181" lon="6.915605"><ele>84.0</ele><time>2026-04-12T05:50:23.92Z</time></trkpt><trkpt lat="43.5889573" lon="6.9155206"><ele>86.16666666666667</ele><time>2026-04-12T05:50:25.923Z</time></trkpt><trkpt lat="43.5888956" lon="6.9154486"><ele>88.33333333333334</ele><time>2026-04-12T05:50:27.911Z</time></trkpt><trkpt lat="43.5888276" lon="6.9153764"><ele>90.5</ele><time>2026-04-12T05:50:29.9Z</time></trkpt><trkpt lat="43.5887528" lon="6.9153169"><ele>92.66666666666667</ele><time>2026-04-12T05:50:31.924Z</time></trkpt><trkpt lat="43.5886918" lon="6.9152388"><ele>94.83333333333334</ele><time>2026-04-12T05:50:33.87Z</time></trkpt><trkpt lat="43.5886359" lon="6.9151306"><ele>97.0</ele><time>2026-04-12T05:50:35.889Z</time></trkpt><trkpt lat="43.5885984" lon="6.9150106"><ele>100.83333333333334</ele><time>2026-04-12T05:50:37.925Z</time></trkpt><trkpt lat="43.5885772" lon="6.9148969"><ele>104.66666666666667</ele><time>2026-04-12T05:50:39.902Z</time></trkpt><trkpt lat="43.5885555" lon="6.9148099"><ele>108.5</ele><time>2026-04-12T05:50:41.877Z</time></trkpt><trkpt lat="43.5884943" lon="6.9147236"><ele>112.33333333333334</ele><time>2026-04-12T05:50:44.923Z</time></trkpt><trkpt lat="43.588421" lon="6.9147534"><ele>116.16666666666667</ele><time>2026-04-12T05:50:47.924Z</time></trkpt><trkpt lat="43.5883768" lon="6.9148737"><ele>120.0</ele><time>2026-04-12T05:50:50.899Z</time></trkpt><trkpt lat="43.5883646" lon="6.91499"><ele>117.6</ele><time>2026-04-12T05:50:52.923Z</time></trkpt><trkpt lat="43.5883499" lon="6.9151184"><ele>115.2</ele><time>2026-04-12T05:50:54.926Z</time></trkpt><trkpt lat="43.5883113" lon="6.9152557"><ele>112.80000000000001</ele><time>2026-04-12T05:50:56.917Z</time></trkpt><trkpt lat="43.5882506" lon="6.9153662"><ele>110.4</ele><time>2026-04-12T05:50:58.918Z</time></trkpt><trkpt lat="43.5881593" lon="6.9154344"><ele>108.0</ele><time>2026-04-12T05:51:00.927Z</time></trkpt><trkpt lat="43.5880659" lon="6.915462"><ele>108.0</ele><time>2026-04-12T05:51:02.867Z</time></trkpt><trkpt lat="43.587983" lon="6.9154698"><ele>108.0</ele><time>2026-04-12T05:51:04.9Z</time></trkpt><trkpt lat="43.5878985" lon="6.9154755"><ele>108.0</ele><time>2026-04-12T05:51:06.924Z</time></trkpt><trkpt lat="43.5878138" lon="6.9154752"><ele>108.0</ele><time>2026-04-12T05:51:08.92Z</time></trkpt><trkpt lat="43.5877314" lon="6.9154703"><ele>108.0</ele><time>2026-04-12T05:51:10.92Z</time></trkpt><trkpt lat="43.5876445" lon="6.9154292"><ele>108.0</ele><time>2026-04-12T05:51:12.895Z</time></trkpt><trkpt lat="43.5875904" lon="6.9153316"><ele>107.66666666666667</ele><time>2026-04-12T05:51:14.903Z</time></trkpt><trkpt lat="43.587574" lon="6.9152185"><ele>107.33333333333334</ele><time>2026-04-12T05:51:16.917Z</time></trkpt><trkpt lat="43.5875889" lon="6.9151056"><ele>107.0</ele><time>2026-04-12T05:51:18.884Z</time></trkpt><trkpt lat="43.5876475" lon="6.9150185"><ele>106.66666666666667</ele><time>2026-04-12T05:51:20.873Z</time></trkpt><trkpt lat="43.5877226" lon="6.914984"><ele>106.33333333333334</ele><time>2026-04-12T05:51:22.89Z</time></trkpt><trkpt lat="43.5877933" lon="6.9149619"><ele>106.0</ele><time>2026-04-12T05:51:24.922Z</time></trkpt><trkpt lat="43.5878647" lon="6.9149554"><ele>108.33333333333334</ele><time>2026-04-12T05:51:26.9Z</time></trkpt><trkpt lat="43.5879446" lon="6.9149378"><ele>110.66666666666667</ele><time>2026-04-12T05:51:28.92Z</time></trkpt><trkpt lat="43.5880102" lon="6.9148653"><ele>113.0</ele><time>2026-04-12T05:51:30.943Z</time></trkpt><trkpt lat="43.5880666" lon="6.9147712"><ele>115.33333333333334</ele><time>2026-04-12T05:51:32.907Z</time></trkpt><trkpt lat="43.5880929" lon="6.9146561"><ele>117.66666666666667</ele><time>2026-04-12T05:51:34.923Z</time></trkpt><trkpt lat="43.588119" lon="6.914548"><ele>120.0</ele><time>2026-04-12T05:51:36.935Z</time></trkpt><trkpt lat="43.5881415" lon="6.9144342"><ele>120.0</ele><time>2026-04-12T05:51:38.929Z</time></trkpt><trkpt lat="43.5881612" lon="6.914312"><ele>120.0</ele><time>2026-04-12T05:51:40.905Z</time></trkpt><trkpt lat="43.5881745" lon="6.9141895"><ele>120.0</ele><time>2026-04-12T05:51:42.883Z</time></trkpt><trkpt lat="43.5881902" lon="6.9140721"><ele>120.0</ele><time>2026-04-12T05:51:44.937Z</time></trkpt><trkpt lat="43.5881984" lon="6.913954"><ele>120.0</ele><time>2026-04-12T05:51:46.935Z</time></trkpt><trkpt lat="43.588205" lon="6.9138397"><ele>120.0</ele><time>2026-04-12T05:51:48.903Z</time></trkpt><trkpt lat="43.5882067" lon="6.9137204"><ele>121.33333333333333</ele><time>2026-04-12T05:51:50.902Z</time></trkpt><trkpt lat="43.5882098" lon="6.9136034"><ele>122.66666666666666</ele><time>2026-04-12T05:51:52.919Z</time></trkpt><trkpt lat="43.5882133" lon="6.9134801"><ele>124.0</ele><time>2026-04-12T05:51:54.893Z</time></trkpt><trkpt lat="43.5882271" lon="6.9133621"><ele>125.33333333333333</ele><time>2026-04-12T05:51:56.932Z</time></trkpt><trkpt lat="43.5882423" lon="6.9132394"><ele>126.66666666666666</ele><time>2026-04-12T05:51:58.927Z</time></trkpt><trkpt lat="43.5882577" lon="6.9131087"><ele>128.0</ele><time>2026-04-12T05:52:00.89Z</time></trkpt><trkpt lat="43.588252" lon="6.9129808"><ele>128.8</ele><time>2026-04-12T05:52:02.914Z</time></trkpt><trkpt lat="43.5882409" lon="6.912855"><ele>129.60000000000002</ele><time>2026-04-12T05:52:04.923Z</time></trkpt><trkpt lat="43.5882161" lon="6.9127284"><ele>130.39999999999998</ele><time>2026-04-12T05:52:06.924Z</time></trkpt><trkpt lat="43.5881943" lon="6.9125902"><ele>131.2</ele><time>2026-04-12T05:52:08.923Z</time></trkpt><trkpt lat="43.5881706" lon="6.9124572"><ele>132.0</ele><time>2026-04-12T05:52:10.918Z</time></trkpt><trkpt lat="43.5881428" lon="6.9123245"><ele>132.0</ele><time>2026-04-12T05:52:12.914Z</time></trkpt><trkpt lat="43.5881202" lon="6.9121937"><ele>132.0</ele><time>2026-04-12T05:52:14.946Z</time></trkpt><trkpt lat="43.5880954" lon="6.9120542"><ele>132.0</ele><time>2026-04-12T05:52:16.923Z</time></trkpt><trkpt lat="43.5880758" lon="6.9119157"><ele>132.0</ele><time>2026-04-12T05:52:18.942Z</time></trkpt><trkpt lat="43.5880602" lon="6.9117752"><ele>132.0</ele><time>2026-04-12T05:52:20.899Z</time></trkpt><trkpt lat="43.5880483" lon="6.9116407"><ele>132.4</ele><time>2026-04-12T05:52:22.936Z</time></trkpt><trkpt lat="43.5880467" lon="6.9115111"><ele>132.79999999999998</ele><time>2026-04-12T05:52:24.905Z</time></trkpt><trkpt lat="43.5880373" lon="6.9113818"><ele>133.2</ele><time>2026-04-12T05:52:26.915Z</time></trkpt><trkpt lat="43.5880295" lon="6.9112489"><ele>133.6</ele><time>2026-04-12T05:52:28.905Z</time></trkpt><trkpt lat="43.5880275" lon="6.9111199"><ele>134.0</ele><time>2026-04-12T05:52:30.918Z</time></trkpt><trkpt lat="43.588036" lon="6.9109967"><ele>136.0</ele><time>2026-04-12T05:52:32.908Z</time></trkpt><trkpt lat="43.5880302" lon="6.9108707"><ele>138.0</ele><time>2026-04-12T05:52:34.901Z</time></trkpt><trkpt lat="43.5880385" lon="6.9107431"><ele>140.0</ele><time>2026-04-12T05:52:36.896Z</time></trkpt><trkpt lat="43.5880363" lon="6.9106084"><ele>142.0</ele><time>2026-04-12T05:52:38.935Z</time></trkpt><trkpt lat="43.5880366" lon="6.9104779"><ele>144.0</ele><time>2026-04-12T05:52:40.906Z</time></trkpt><trkpt lat="43.5880304" lon="6.9103486"><ele>144.0</ele><time>2026-04-12T05:52:42.938Z</time></trkpt><trkpt lat="43.5880334" lon="6.9102052"><ele>144.0</ele><time>2026-04-12T05:52:44.93Z</time></trkpt><trkpt lat="43.5880761" lon="6.9100757"><ele>144.0</ele><time>2026-04-12T05:52:46.914Z</time></trkpt><trkpt lat="43.5881535" lon="6.9099924"><ele>144.0</ele><time>2026-04-12T05:52:48.889Z</time></trkpt><trkpt lat="43.5882454" lon="6.9099838"><ele>144.0</ele><time>2026-04-12T05:52:50.929Z</time></trkpt><trkpt lat="43.588335" lon="6.9100094"><ele>144.0</ele><time>2026-04-12T05:52:52.923Z</time></trkpt><trkpt lat="43.5884335" lon="6.9100384"><ele>144.0</ele><time>2026-04-12T05:52:54.916Z</time></trkpt><trkpt lat="43.5885256" lon="6.9100686"><ele>144.0</ele><time>2026-04-12T05:52:56.918Z</time></trkpt><trkpt lat="43.5886078" lon="6.910107"><ele>144.0</ele><time>2026-04-12T05:52:58.934Z</time></trkpt><trkpt lat="43.5886935" lon="6.9101261"><ele>144.0</ele><time>2026-04-12T05:53:00.918Z</time></trkpt><trkpt lat="43.5887864" lon="6.9101407"><ele>144.0</ele><time>2026-04-12T05:53:02.902Z</time></trkpt><trkpt lat="43.5888808" lon="6.9101728"><ele>144.0</ele><time>2026-04-12T05:53:04.916Z</time></trkpt><trkpt lat="43.5889732" lon="6.910224"><ele>144.0</ele><time>2026-04-12T05:53:06.934Z</time></trkpt><trkpt lat="43.5890703" lon="6.9102659"><ele>144.0</ele><time>2026-04-12T05:53:08.91Z</time></trkpt><trkpt lat="43.58916" lon="6.9102224"><ele>144.0</ele><time>2026-04-12T05:53:10.916Z</time></trkpt><trkpt lat="43.5892209" lon="6.9101161"><ele>148.0</ele><time>2026-04-12T05:53:12.924Z</time></trkpt><trkpt lat="43.5892477" lon="6.9099889"><ele>152.0</ele><time>2026-04-12T05:53:14.943Z</time></trkpt><trkpt lat="43.589275" lon="6.909853"><ele>156.0</ele><time>2026-04-12T05:53:16.932Z</time></trkpt><trkpt lat="43.5893075" lon="6.9097313"><ele>160.0</ele><time>2026-04-12T05:53:18.919Z</time></trkpt><trkpt lat="43.5893479" lon="6.9096191"><ele>164.0</ele><time>2026-04-12T05:53:20.895Z</time></trkpt><trkpt lat="43.5893757" lon="6.9094931"><ele>164.0</ele><time>2026-04-12T05:53:22.89Z</time></trkpt><trkpt lat="43.5894018" lon="6.9093607"><ele>164.0</ele><time>2026-04-12T05:53:24.891Z</time></trkpt><trkpt lat="43.5894478" lon="6.909237"><ele>164.0</ele><time>2026-04-12T05:53:26.927Z</time></trkpt><trkpt lat="43.5894884" lon="6.909126"><ele>164.0</ele><time>2026-04-12T05:53:28.926Z</time></trkpt><trkpt lat="43.5895088" lon="6.908998"><ele>164.0</ele><time>2026-04-12T05:53:30.945Z</time></trkpt><trkpt lat="43.58951" lon="6.9088709"><ele>166.66666666666666</ele><time>2026-04-12T05:53:32.921Z</time></trkpt><trkpt lat="43.5894872" lon="6.9087511"><ele>169.33333333333331</ele><time>2026-04-12T05:53:34.92Z</time></trkpt><trkpt lat="43.5894577" lon="6.9086444"><ele>172.0</ele><time>2026-04-12T05:53:36.916Z</time></trkpt><trkpt lat="43.5894224" lon="6.9085378"><ele>174.66666666666666</ele><time>2026-04-12T05:53:38.918Z</time></trkpt><trkpt lat="43.5893593" lon="6.9084424"><ele>177.33333333333334</ele><time>2026-04-12T05:53:40.919Z</time></trkpt><trkpt lat="43.5892975" lon="6.9083576"><ele>180.0</ele><time>2026-04-12T05:53:42.89Z</time></trkpt><trkpt lat="43.5892284" lon="6.9082882"><ele>180.16666666666666</ele><time>2026-04-12T05:53:44.932Z</time></trkpt><trkpt lat="43.5891563" lon="6.9082151"><ele>180.33333333333334</ele><time>2026-04-12T05:53:46.903Z</time></trkpt><trkpt lat="43.5891115" lon="6.908112"><ele>180.5</ele><time>2026-04-12T05:53:48.918Z</time></trkpt><trkpt lat="43.5890568" lon="6.9080068"><ele>180.66666666666669</ele><time>2026-04-12T05:53:50.899Z</time></trkpt><trkpt lat="43.5890287" lon="6.9078941"><ele>180.83333333333334</ele><time>2026-04-12T05:53:52.927Z</time></trkpt><trkpt lat="43.5889951" lon="6.9077765"><ele>181.0</ele><time>2026-04-12T05:53:54.928Z</time></trkpt><trkpt lat="43.5889571" lon="6.9076639"><ele>180.0</ele><time>2026-04-12T05:53:56.912Z</time></trkpt><trkpt lat="43.5889152" lon="6.9075554"><ele>179.0</ele><time>2026-04-12T05:53:58.929Z</time></trkpt><trkpt lat="43.5888769" lon="6.9074312"><ele>178.0</ele><time>2026-04-12T05:54:00.911Z</time></trkpt><trkpt lat="43.5888424" lon="6.9073105"><ele>177.0</ele><time>2026-04-12T05:54:02.914Z</time></trkpt><trkpt lat="43.588823" lon="6.9071873"><ele>176.0</ele><time>2026-04-12T05:54:04.919Z</time></trkpt><trkpt lat="43.5888046" lon="6.9070613"><ele>176.0</ele><time>2026-04-12T05:54:06.902Z</time></trkpt><trkpt lat="43.5887823" lon="6.9069383"><ele>176.0</ele><time>2026-04-12T05:54:08.933Z</time></trkpt><trkpt lat="43.5887582" lon="6.9068177"><ele>176.0</ele><time>2026-04-12T05:54:10.935Z</time></trkpt><trkpt lat="43.5887282" lon="6.9066926"><ele>176.0</ele><time>2026-04-12T05:54:12.893Z</time></trkpt><trkpt lat="43.588702" lon="6.9065544"><ele>176.0</ele><time>2026-04-12T05:54:14.941Z</time></trkpt><trkpt lat="43.5886895" lon="6.9064181"><ele>177.60000000000002</ele><time>2026-04-12T05:54:16.902Z</time></trkpt><trkpt lat="43.588678" lon="6.9062923"><ele>179.2</ele><time>2026-04-12T05:54:18.931Z</time></trkpt><trkpt lat="43.5886817" lon="6.9061601"><ele>180.8</ele><time>2026-04-12T05:54:20.9Z</time></trkpt><trkpt lat="43.5886922" lon="6.9060248"><ele>182.39999999999998</ele><time>2026-04-12T05:54:22.93Z</time></trkpt><trkpt lat="43.5887699" lon="6.9059386"><ele>184.0</ele><time>2026-04-12T05:54:24.918Z</time></trkpt><trkpt lat="43.5888629" lon="6.9059463"><ele>184.0</ele><time>2026-04-12T05:54:26.927Z</time></trkpt><trkpt lat="43.5889393" lon="6.9059897"><ele>184.0</ele><time>2026-04-12T05:54:28.895Z</time></trkpt><trkpt lat="43.5890204" lon="6.9060387"><ele>184.0</ele><time>2026-04-12T05:54:30.913Z</time></trkpt><trkpt lat="43.5891063" lon="6.9060843"><ele>184.0</ele><time>2026-04-12T05:54:32.932Z</time></trkpt><trkpt lat="43.5892025" lon="6.9060717"><ele>184.0</ele><time>2026-04-12T05:54:34.913Z</time></trkpt><trkpt lat="43.5892888" lon="6.9060192"><ele>184.0</ele><time>2026-04-12T05:54:36.936Z</time></trkpt><trkpt lat="43.5893448" lon="6.9059334"><ele>184.0</ele><time>2026-04-12T05:54:38.908Z</time></trkpt><trkpt lat="43.5893919" lon="6.9058525"><ele>184.0</ele><time>2026-04-12T05:54:40.904Z</time></trkpt><trkpt lat="43.5894425" lon="6.9057588"><ele>184.0</ele><time>2026-04-12T05:54:42.919Z</time></trkpt><trkpt lat="43.5895185" lon="6.9056893"><ele>184.0</ele><time>2026-04-12T05:54:44.926Z</time></trkpt><trkpt lat="43.5896048" lon="6.9056356"><ele>184.0</ele><time>2026-04-12T05:54:46.92Z</time></trkpt><trkpt lat="43.5897002" lon="6.9056444"><ele>186.0</ele><time>2026-04-12T05:54:48.903Z</time></trkpt><trkpt lat="43.5897821" lon="6.9057125"><ele>188.0</ele><time>2026-04-12T05:54:50.905Z</time></trkpt><trkpt lat="43.5898264" lon="6.9058094"><ele>190.0</ele><time>2026-04-12T05:54:52.911Z</time></trkpt><trkpt lat="43.5898571" lon="6.9059364"><ele>192.0</ele><time>2026-04-12T05:54:54.934Z</time></trkpt><trkpt lat="43.5898887" lon="6.9060637"><ele>194.0</ele><time>2026-04-12T05:54:56.921Z</time></trkpt><trkpt lat="43.5899357" lon="6.9061889"><ele>194.0</ele><time>2026-04-12T05:54:58.911Z</time></trkpt><trkpt lat="43.5899867" lon="6.906318"><ele>194.0</ele><time>2026-04-12T05:55:00.912Z</time></trkpt><trkpt lat="43.590058" lon="6.9064286"><ele>194.0</ele><time>2026-04-12T05:55:02.907Z</time></trkpt><trkpt lat="43.5901465" lon="6.906507"><ele>194.0</ele><time>2026-04-12T05:55:04.918Z</time></trkpt><trkpt lat="43.5902457" lon="6.90655"><ele>194.0</ele><time>2026-04-12T05:55:06.926Z</time></trkpt><trkpt lat="43.5903433" lon="6.9065713"><ele>195.0</ele><time>2026-04-12T05:55:08.866Z</time></trkpt><trkpt lat="43.5904423" lon="6.9065704"><ele>196.0</ele><time>2026-04-12T05:55:10.916Z</time></trkpt><trkpt lat="43.5905282" lon="6.9065031"><ele>197.0</ele><time>2026-04-12T05:55:12.864Z</time></trkpt><trkpt lat="43.5906088" lon="6.9063948"><ele>198.0</ele><time>2026-04-12T05:55:14.888Z</time></trkpt><trkpt lat="43.5906695" lon="6.9062876"><ele>199.0</ele><time>2026-04-12T05:55:16.875Z</time></trkpt><trkpt lat="43.5907377" lon="6.906227"><ele>199.0</ele><time>2026-04-12T05:55:18.903Z</time></trkpt><trkpt lat="43.5908348" lon="6.90623"><ele>199.0</ele><time>2026-04-12T05:55:20.902Z</time></trkpt><trkpt lat="43.5909184" lon="6.9062457"><ele>199.0</ele><time>2026-04-12T05:55:22.926Z</time></trkpt><trkpt lat="43.5910204" lon="6.9062591"><ele>199.0</ele><time>2026-04-12T05:55:24.908Z</time></trkpt><trkpt lat="43.5911278" lon="6.906229"><ele>199.0</ele><time>2026-04-12T05:55:26.893Z</time></trkpt><trkpt lat="43.5912261" lon="6.9061781"><ele>198.6</ele><time>2026-04-12T05:55:28.917Z</time></trkpt><trkpt lat="43.5913222" lon="6.9061525"><ele>198.2</ele><time>2026-04-12T05:55:30.923Z</time></trkpt><trkpt lat="43.5914223" lon="6.9061362"><ele>197.79999999999998</ele><time>2026-04-12T05:55:32.926Z</time></trkpt><trkpt lat="43.5915144" lon="6.9061384"><ele>197.39999999999998</ele><time>2026-04-12T05:55:34.907Z</time></trkpt><trkpt lat="43.5916061" lon="6.9061065"><ele>197.0</ele><time>2026-04-12T05:55:36.89Z</time></trkpt><trkpt lat="43.5916931" lon="6.9060638"><ele>197.0</ele><time>2026-04-12T05:55:38.918Z</time></trkpt><trkpt lat="43.5917753" lon="6.9060165"><ele>197.0</ele><time>2026-04-12T05:55:40.914Z</time></trkpt><trkpt lat="43.5918638" lon="6.9059749"><ele>197.0</ele><time>2026-04-12T05:55:42.901Z</time></trkpt><trkpt lat="43.5919565" lon="6.9059245"><ele>197.0</ele><time>2026-04-12T05:55:44.904Z</time></trkpt><trkpt lat="43.5920643" lon="6.9058721"><ele>197.0</ele><time>2026-04-12T05:55:46.908Z</time></trkpt><trkpt lat="43.5921602" lon="6.9058144"><ele>201.39999999999998</ele><time>2026-04-12T05:55:48.923Z</time></trkpt><trkpt lat="43.5922511" lon="6.9057566"><ele>205.79999999999998</ele><time>2026-04-12T05:55:50.909Z</time></trkpt><trkpt lat="43.5923526" lon="6.9057018"><ele>210.2</ele><time>2026-04-12T05:55:52.901Z</time></trkpt><trkpt lat="43.5924539" lon="6.9056448"><ele>214.6</ele><time>2026-04-12T05:55:54.911Z</time></trkpt><trkpt lat="43.5925457" lon="6.905589"><ele>219.0</ele><time>2026-04-12T05:55:56.92Z</time></trkpt><trkpt lat="43.5926478" lon="6.9055347"><ele>219.0</ele><time>2026-04-12T05:55:58.87Z</time></trkpt><trkpt lat="43.5927517" lon="6.9054707"><ele>218.99999999999997</ele><time>2026-04-12T05:56:00.91Z</time></trkpt><trkpt lat="43.5928476" lon="6.9054053"><ele>218.99999999999997</ele><time>2026-04-12T05:56:02.935Z</time></trkpt><trkpt lat="43.5929227" lon="6.9053032"><ele>219.0</ele><time>2026-04-12T05:56:04.91Z</time></trkpt><trkpt lat="43.5929516" lon="6.9051674"><ele>219.0</ele><time>2026-04-12T05:56:06.9Z</time></trkpt><trkpt lat="43.5929125" lon="6.9050303"><ele>218.2</ele><time>2026-04-12T05:56:08.903Z</time></trkpt><trkpt lat="43.5928522" lon="6.9049252"><ele>217.39999999999998</ele><time>2026-04-12T05:56:10.907Z</time></trkpt><trkpt lat="43.5927795" lon="6.9048334"><ele>216.6</ele><time>2026-04-12T05:56:12.931Z</time></trkpt><trkpt lat="43.5927083" lon="6.9047427"><ele>215.8</ele><time>2026-04-12T05:56:14.934Z</time></trkpt><trkpt lat="43.592644" lon="6.9046427"><ele>215.0</ele><time>2026-04-12T05:56:16.924Z</time></trkpt><trkpt lat="43.5925798" lon="6.9045528"><ele>217.0</ele><time>2026-04-12T05:56:18.926Z</time></trkpt><trkpt lat="43.5925111" lon="6.9044704"><ele>219.0</ele><time>2026-04-12T05:56:20.913Z</time></trkpt><trkpt lat="43.5924392" lon="6.904389"><ele>221.0</ele><time>2026-04-12T05:56:22.907Z</time></trkpt><trkpt lat="43.5923703" lon="6.9043125"><ele>223.0</ele><time>2026-04-12T05:56:24.886Z</time></trkpt><trkpt lat="43.5923032" lon="6.9042189"><ele>225.0</ele><time>2026-04-12T05:56:26.933Z</time></trkpt><trkpt lat="43.5922388" lon="6.9041216"><ele>225.0</ele><time>2026-04-12T05:56:28.909Z</time></trkpt><trkpt lat="43.5921715" lon="6.9040323"><ele>225.0</ele><time>2026-04-12T05:56:30.923Z</time></trkpt><trkpt lat="43.5921041" lon="6.9039383"><ele>225.0</ele><time>2026-04-12T05:56:32.911Z</time></trkpt><trkpt lat="43.5920261" lon="6.9038582"><ele>225.0</ele><time>2026-04-12T05:56:34.924Z</time></trkpt><trkpt lat="43.5919526" lon="6.9037789"><ele>225.0</ele><time>2026-04-12T05:56:36.912Z</time></trkpt><trkpt lat="43.5918743" lon="6.9037203"><ele>226.8</ele><time>2026-04-12T05:56:38.917Z</time></trkpt><trkpt lat="43.5917891" lon="6.903668"><ele>228.6</ele><time>2026-04-12T05:56:40.932Z</time></trkpt><trkpt lat="43.5917012" lon="6.9036173"><ele>230.39999999999998</ele><time>2026-04-12T05:56:42.919Z</time></trkpt><trkpt lat="43.591626" lon="6.9035476"><ele>232.2</ele><time>2026-04-12T05:56:44.925Z</time></trkpt><trkpt lat="43.5915635" lon="6.9034506"><ele>234.0</ele><time>2026-04-12T05:56:46.918Z</time></trkpt><trkpt lat="43.5915182" lon="6.9033571"><ele>234.0</ele><time>2026-04-12T05:56:48.909Z</time></trkpt><trkpt lat="43.5914481" lon="6.9032828"><ele>233.99999999999997</ele><time>2026-04-12T05:56:50.905Z</time></trkpt><trkpt lat="43.5913763" lon="6.9032048"><ele>233.99999999999997</ele><time>2026-04-12T05:56:52.931Z</time></trkpt><trkpt lat="43.5912903" lon="6.903169"><ele>234.0</ele><time>2026-04-12T05:56:54.895Z</time></trkpt><trkpt lat="43.5911997" lon="6.9031411"><ele>234.0</ele><time>2026-04-12T05:56:56.916Z</time></trkpt><trkpt lat="43.5911066" lon="6.9031191"><ele>237.0</ele><time>2026-04-12T05:56:58.915Z</time></trkpt><trkpt lat="43.5910047" lon="6.9030957"><ele>239.99999999999997</ele><time>2026-04-12T05:57:00.918Z</time></trkpt><trkpt lat="43.5909032" lon="6.9030692"><ele>242.99999999999997</ele><time>2026-04-12T05:57:02.924Z</time></trkpt><trkpt lat="43.5908014" lon="6.9030477"><ele>246.0</ele><time>2026-04-12T05:57:04.933Z</time></trkpt><trkpt lat="43.5906942" lon="6.9030259"><ele>249.0</ele><time>2026-04-12T05:57:06.935Z</time></trkpt><trkpt lat="43.5905921" lon="6.9030208"><ele>249.0</ele><time>2026-04-12T05:57:08.921Z</time></trkpt><trkpt lat="43.5904939" lon="6.9030159"><ele>248.99999999999997</ele><time>2026-04-12T05:57:10.938Z</time></trkpt><trkpt lat="43.590391" lon="6.9029961"><ele>248.99999999999997</ele><time>2026-04-12T05:57:12.938Z</time></trkpt><trkpt lat="43.5902951" lon="6.902917"><ele>249.0</ele><time>2026-04-12T05:57:14.925Z</time></trkpt><trkpt lat="43.5902515" lon="6.9027927"><ele>249.0</ele><time>2026-04-12T05:57:16.923Z</time></trkpt><trkpt lat="43.5902257" lon="6.9026708"><ele>249.79999999999998</ele><time>2026-04-12T05:57:18.923Z</time></trkpt><trkpt lat="43.5901888" lon="6.9025431"><ele>250.59999999999997</ele><time>2026-04-12T05:57:20.908Z</time></trkpt><trkpt lat="43.59013" lon="6.9024333"><ele>251.4</ele><time>2026-04-12T05:57:22.941Z</time></trkpt><trkpt lat="43.5900697" lon="6.9023398"><ele>252.2</ele><time>2026-04-12T05:57:24.935Z</time></trkpt><trkpt lat="43.5899968" lon="6.9022522"><ele>253.0</ele><time>2026-04-12T05:57:26.891Z</time></trkpt><trkpt lat="43.5899234" lon="6.9021808"><ele>252.99999999999997</ele><time>2026-04-12T05:57:28.924Z</time></trkpt><trkpt lat="43.5898532" lon="6.9021223"><ele>253.0</ele><time>2026-04-12T05:57:30.918Z</time></trkpt><trkpt lat="43.589774" lon="6.9020603"><ele>253.0</ele><time>2026-04-12T05:57:32.91Z</time></trkpt><trkpt lat="43.5897042" lon="6.9020023"><ele>253.0</ele><time>2026-04-12T05:57:34.923Z</time></trkpt><trkpt lat="43.5896298" lon="6.9019445"><ele>252.99999999999997</ele><time>2026-04-12T05:57:36.924Z</time></trkpt><trkpt lat="43.5895596" lon="6.9018739"><ele>253.0</ele><time>2026-04-12T05:57:38.91Z</time></trkpt><trkpt lat="43.5894893" lon="6.9018107"><ele>255.60000000000002</ele><time>2026-04-12T05:57:40.924Z</time></trkpt><trkpt lat="43.5894073" lon="6.9017758"><ele>258.20000000000005</ele><time>2026-04-12T05:57:42.925Z</time></trkpt><trkpt lat="43.5893122" lon="6.9017691"><ele>260.8</ele><time>2026-04-12T05:57:44.936Z</time></trkpt><trkpt lat="43.5892247" lon="6.901806"><ele>263.40000000000003</ele><time>2026-04-12T05:57:46.918Z</time></trkpt><trkpt lat="43.5891615" lon="6.9018872"><ele>266.0</ele><time>2026-04-12T05:57:48.891Z</time></trkpt><trkpt lat="43.5891052" lon="6.9019951"><ele>266.0</ele><time>2026-04-12T05:57:50.919Z</time></trkpt><trkpt lat="43.5890572" lon="6.9021083"><ele>266.0</ele><time>2026-04-12T05:57:52.906Z</time></trkpt><trkpt lat="43.5890043" lon="6.9022082"><ele>266.0</ele><time>2026-04-12T05:57:54.91Z</time></trkpt><trkpt lat="43.5889387" lon="6.9023037"><ele>266.0</ele><time>2026-04-12T05:57:56.912Z</time></trkpt><trkpt lat="43.5888481" lon="6.9023257"><ele>266.0</ele><time>2026-04-12T05:57:58.923Z</time></trkpt><trkpt lat="43.5887656" lon="6.9022906"><ele>266.0</ele><time>2026-04-12T05:58:00.905Z</time></trkpt><trkpt lat="43.5886888" lon="6.9022402"><ele>266.0</ele><time>2026-04-12T05:58:02.92Z</time></trkpt><trkpt lat="43.5886173" lon="6.9021725"><ele>266.0</ele><time>2026-04-12T05:58:04.907Z</time></trkpt><trkpt lat="43.5885523" lon="6.902092"><ele>266.0</ele><time>2026-04-12T05:58:06.9Z</time></trkpt><trkpt lat="43.5884829" lon="6.9020202"><ele>266.0</ele><time>2026-04-12T05:58:08.902Z</time></trkpt><trkpt lat="43.5884071" lon="6.9019622"><ele>266.0</ele><time>2026-04-12T05:58:10.913Z</time></trkpt><trkpt lat="43.5883227" lon="6.9019111"><ele>265.5</ele><time>2026-04-12T05:58:12.906Z</time></trkpt><trkpt lat="43.5882441" lon="6.9018608"><ele>265.0</ele><time>2026-04-12T05:58:14.889Z</time></trkpt><trkpt lat="43.5881745" lon="6.901785"><ele>264.5</ele><time>2026-04-12T05:58:16.907Z</time></trkpt><trkpt lat="43.5881201" lon="6.9017041"><ele>264.0</ele><time>2026-04-12T05:58:18.93Z</time></trkpt><trkpt lat="43.5880719" lon="6.9015996"><ele>263.5</ele><time>2026-04-12T05:58:20.907Z</time></trkpt><trkpt lat="43.5880407" lon="6.9014862"><ele>263.0</ele><time>2026-04-12T05:58:22.923Z</time></trkpt><trkpt lat="43.5880138" lon="6.9013653"><ele>263.0</ele><time>2026-04-12T05:58:24.934Z</time></trkpt><trkpt lat="43.5880169" lon="6.9012508"><ele>263.0</ele><time>2026-04-12T05:58:26.925Z</time></trkpt><trkpt lat="43.588034" lon="6.9011339"><ele>263.0</ele><time>2026-04-12T05:58:28.909Z</time></trkpt><trkpt lat="43.5880316" lon="6.9010096"><ele>263.0</ele><time>2026-04-12T05:58:30.928Z</time></trkpt><trkpt lat="43.5880041" lon="6.900891"><ele>263.0</ele><time>2026-04-12T05:58:32.935Z</time></trkpt><trkpt lat="43.5879753" lon="6.9007698"><ele>263.0</ele><time>2026-04-12T05:58:34.937Z</time></trkpt><trkpt lat="43.5879367" lon="6.9006356"><ele>262.0</ele><time>2026-04-12T05:58:36.934Z</time></trkpt><trkpt lat="43.5878949" lon="6.9005247"><ele>261.0</ele><time>2026-04-12T05:58:38.926Z</time></trkpt><trkpt lat="43.5878647" lon="6.9004"><ele>260.0</ele><time>2026-04-12T05:58:40.894Z</time></trkpt><trkpt lat="43.5878273" lon="6.9002775"><ele>259.0</ele><time>2026-04-12T05:58:42.923Z</time></trkpt><trkpt lat="43.5877882" lon="6.9001614"><ele>258.0</ele><time>2026-04-12T05:58:44.897Z</time></trkpt><trkpt lat="43.5877628" lon="6.9000492"><ele>257.6</ele><time>2026-04-12T05:58:46.933Z</time></trkpt><trkpt lat="43.5877629" lon="6.899927"><ele>257.20000000000005</ele><time>2026-04-12T05:58:48.914Z</time></trkpt><trkpt lat="43.5877893" lon="6.8998072"><ele>256.8</ele><time>2026-04-12T05:58:50.926Z</time></trkpt><trkpt lat="43.5878287" lon="6.8996933"><ele>256.40000000000003</ele><time>2026-04-12T05:58:52.922Z</time></trkpt><trkpt lat="43.5878824" lon="6.8995771"><ele>256.0</ele><time>2026-04-12T05:58:54.909Z</time></trkpt><trkpt lat="43.5879188" lon="6.8994627"><ele>256.0</ele><time>2026-04-12T05:58:56.923Z</time></trkpt><trkpt lat="43.5879453" lon="6.8993296"><ele>256.0</ele><time>2026-04-12T05:58:58.929Z</time></trkpt><trkpt lat="43.5879758" lon="6.8991924"><ele>256.0</ele><time>2026-04-12T05:59:00.908Z</time></trkpt><trkpt lat="43.5880037" lon="6.8990614"><ele>256.0</ele><time>2026-04-12T05:59:02.945Z</time></trkpt><trkpt lat="43.5880244" lon="6.8989321"><ele>256.0</ele><time>2026-04-12T05:59:04.925Z</time></trkpt><trkpt lat="43.5880412" lon="6.8987989"><ele>257.8</ele><time>2026-04-12T05:59:06.916Z</time></trkpt><trkpt lat="43.5880736" lon="6.8986542"><ele>259.6</ele><time>2026-04-12T05:59:08.925Z</time></trkpt><trkpt lat="43.5880951" lon="6.8985118"><ele>261.4</ele><time>2026-04-12T05:59:10.885Z</time></trkpt><trkpt lat="43.5881228" lon="6.898377"><ele>263.2</ele><time>2026-04-12T05:59:12.938Z</time></trkpt><trkpt lat="43.5881725" lon="6.8982602"><ele>265.0</ele><time>2026-04-12T05:59:14.919Z</time></trkpt><trkpt lat="43.5882459" lon="6.8981532"><ele>268.2</ele><time>2026-04-12T05:59:16.895Z</time></trkpt><trkpt lat="43.5883115" lon="6.89803"><ele>271.4</ele><time>2026-04-12T05:59:18.909Z</time></trkpt><trkpt lat="43.5883742" lon="6.8979003"><ele>274.6</ele><time>2026-04-12T05:59:20.92Z</time></trkpt><trkpt lat="43.58843" lon="6.8977793"><ele>277.8</ele><time>2026-04-12T05:59:22.918Z</time></trkpt><trkpt lat="43.588472" lon="6.8976391"><ele>281.0</ele><time>2026-04-12T05:59:24.902Z</time></trkpt><trkpt lat="43.5885225" lon="6.8975011"><ele>283.8</ele><time>2026-04-12T05:59:26.916Z</time></trkpt><trkpt lat="43.5885719" lon="6.8973672"><ele>286.6</ele><time>2026-04-12T05:59:28.918Z</time></trkpt><trkpt lat="43.5886253" lon="6.8972321"><ele>289.4</ele><time>2026-04-12T05:59:30.915Z</time></trkpt><trkpt lat="43.5886572" lon="6.8970839"><ele>292.2</ele><time>2026-04-12T05:59:32.918Z</time></trkpt><trkpt lat="43.5886644" lon="6.8969264"><ele>295.0</ele><time>2026-04-12T05:59:34.893Z</time></trkpt><trkpt lat="43.5886427" lon="6.8968398"><ele>295.00000000000006</ele><time>2026-04-12T05:59:35.935Z</time></trkpt><trkpt lat="43.5885998" lon="6.896769"><ele>295.0</ele><time>2026-04-12T05:59:36.922Z</time></trkpt><trkpt lat="43.5885455" lon="6.8967203"><ele>295.0</ele><time>2026-04-12T05:59:37.921Z</time></trkpt><trkpt lat="43.5884925" lon="6.8966677"><ele>295.0</ele><time>2026-04-12T05:59:38.925Z</time></trkpt><trkpt lat="43.5884308" lon="6.8966118"><ele>295.0</ele><time>2026-04-12T05:59:39.907Z</time></trkpt><trkpt lat="43.5883645" lon="6.8965774"><ele>295.00000000000006</ele><time>2026-04-12T05:59:40.911Z</time></trkpt><trkpt lat="43.5882964" lon="6.8965573"><ele>295.0</ele><time>2026-04-12T05:59:41.921Z</time></trkpt><trkpt lat="43.5882162" lon="6.8965625"><ele>293.8</ele><time>2026-04-12T05:59:42.921Z</time></trkpt><trkpt lat="43.588133" lon="6.8965812"><ele>292.6</ele><time>2026-04-12T05:59:43.939Z</time></trkpt><trkpt lat="43.58804" lon="6.8966121"><ele>291.4</ele><time>2026-04-12T05:59:44.935Z</time></trkpt><trkpt lat="43.5879423" lon="6.8966404"><ele>290.2</ele><time>2026-04-12T05:59:45.919Z</time></trkpt><trkpt lat="43.5878394" lon="6.8966485"><ele>289.0</ele><time>2026-04-12T05:59:46.928Z</time></trkpt><trkpt lat="43.5877387" lon="6.8966689"><ele>289.0</ele><time>2026-04-12T05:59:47.935Z</time></trkpt><trkpt lat="43.58764" lon="6.8966619"><ele>289.0</ele><time>2026-04-12T05:59:48.927Z</time></trkpt><trkpt lat="43.5875416" lon="6.8965893"><ele>289.0</ele><time>2026-04-12T05:59:49.926Z</time></trkpt><trkpt lat="43.5874636" lon="6.8964827"><ele>289.0</ele><time>2026-04-12T05:59:50.916Z</time></trkpt><trkpt lat="43.5874003" lon="6.896377"><ele>289.0</ele><time>2026-04-12T05:59:51.928Z</time></trkpt><trkpt lat="43.5872807" lon="6.8963397"><ele>289.0</ele><time>2026-04-12T05:59:52.909Z</time></trkpt><trkpt lat="43.5871683" lon="6.8963479"><ele>289.0</ele><time>2026-04-12T05:59:53.922Z</time></trkpt><trkpt lat="43.5870545" lon="6.896391"><ele>289.0</ele><time>2026-04-12T05:59:54.927Z</time></trkpt><trkpt lat="43.5869529" lon="6.8964827"><ele>289.0</ele><time>2026-04-12T05:59:55.921Z</time></trkpt><trkpt lat="43.5868723" lon="6.8965909"><ele>290.5</ele><time>2026-04-12T05:59:56.914Z</time></trkpt><trkpt lat="43.5867937" lon="6.8967199"><ele>292.0</ele><time>2026-04-12T05:59:57.914Z</time></trkpt><trkpt lat="43.5867191" lon="6.8968474"><ele>293.5</ele><time>2026-04-12T05:59:58.92Z</time></trkpt><trkpt lat="43.586629" lon="6.8969689"><ele>295.0</ele><time>2026-04-12T05:59:59.956Z</time></trkpt><trkpt lat="43.5865305" lon="6.8970835"><ele>295.0</ele><time>2026-04-12T06:00:00.908Z</time></trkpt><trkpt lat="43.5864249" lon="6.8971823"><ele>295.0</ele><time>2026-04-12T06:00:01.918Z</time></trkpt><trkpt lat="43.5863162" lon="6.8972783"><ele>295.0</ele><time>2026-04-12T06:00:02.904Z</time></trkpt><trkpt lat="43.5862014" lon="6.8973766"><ele>295.0</ele><time>2026-04-12T06:00:03.912Z</time></trkpt><trkpt lat="43.5861031" lon="6.8974779"><ele>293.6</ele><time>2026-04-12T06:00:04.914Z</time></trkpt><trkpt lat="43.5860386" lon="6.8975918"><ele>292.2</ele><time>2026-04-12T06:00:05.91Z</time></trkpt><trkpt lat="43.5860077" lon="6.8977418"><ele>290.8</ele><time>2026-04-12T06:00:06.922Z</time></trkpt><trkpt lat="43.5859773" lon="6.8978948"><ele>289.4</ele><time>2026-04-12T06:00:07.92Z</time></trkpt><trkpt lat="43.5858926" lon="6.8979939"><ele>288.0</ele><time>2026-04-12T06:00:08.928Z</time></trkpt><trkpt lat="43.5857753" lon="6.8980573"><ele>288.0</ele><time>2026-04-12T06:00:09.927Z</time></trkpt><trkpt lat="43.5856787" lon="6.8981489"><ele>288.0</ele><time>2026-04-12T06:00:10.878Z</time></trkpt><trkpt lat="43.5855934" lon="6.8982786"><ele>288.0</ele><time>2026-04-12T06:00:11.878Z</time></trkpt><trkpt lat="43.5855046" lon="6.8984071"><ele>288.0</ele><time>2026-04-12T06:00:12.883Z</time></trkpt><trkpt lat="43.58539" lon="6.8984706"><ele>287.8</ele><time>2026-04-12T06:00:13.891Z</time></trkpt><trkpt lat="43.585271" lon="6.8984501"><ele>287.6</ele><time>2026-04-12T06:00:14.871Z</time></trkpt><trkpt lat="43.5851655" lon="6.8983893"><ele>287.4</ele><time>2026-04-12T06:00:15.895Z</time></trkpt><trkpt lat="43.5851019" lon="6.898269"><ele>287.2</ele><time>2026-04-12T06:00:16.88Z</time></trkpt><trkpt lat="43.5850756" lon="6.898133"><ele>287.0</ele><time>2026-04-12T06:00:17.9Z</time></trkpt><trkpt lat="43.5850806" lon="6.8979923"><ele>286.2</ele><time>2026-04-12T06:00:18.878Z</time></trkpt><trkpt lat="43.5851279" lon="6.8978691"><ele>285.4</ele><time>2026-04-12T06:00:19.889Z</time></trkpt><trkpt lat="43.5851828" lon="6.8977454"><ele>284.6</ele><time>2026-04-12T06:00:20.914Z</time></trkpt><trkpt lat="43.5852145" lon="6.8976163"><ele>283.8</ele><time>2026-04-12T06:00:21.903Z</time></trkpt><trkpt lat="43.5852184" lon="6.8974802"><ele>283.0</ele><time>2026-04-12T06:00:22.919Z</time></trkpt><trkpt lat="43.5852261" lon="6.8973602"><ele>283.0</ele><time>2026-04-12T06:00:23.93Z</time></trkpt><trkpt lat="43.5852547" lon="6.8972523"><ele>283.0</ele><time>2026-04-12T06:00:24.893Z</time></trkpt><trkpt lat="43.5853056" lon="6.8971473"><ele>283.0</ele><time>2026-04-12T06:00:25.911Z</time></trkpt><trkpt lat="43.5853344" lon="6.8970193"><ele>283.0</ele><time>2026-04-12T06:00:26.929Z</time></trkpt><trkpt lat="43.5853401" lon="6.8968866"><ele>283.0</ele><time>2026-04-12T06:00:27.901Z</time></trkpt><trkpt lat="43.5853447" lon="6.8967685"><ele>279.3333333333333</ele><time>2026-04-12T06:00:28.905Z</time></trkpt><trkpt lat="43.5853658" lon="6.8966537"><ele>275.66666666666663</ele><time>2026-04-12T06:00:29.916Z</time></trkpt><trkpt lat="43.5854074" lon="6.8965559"><ele>272.0</ele><time>2026-04-12T06:00:30.913Z</time></trkpt><trkpt lat="43.5854563" lon="6.8964682"><ele>268.3333333333333</ele><time>2026-04-12T06:00:31.916Z</time></trkpt><trkpt lat="43.5854886" lon="6.896362"><ele>264.6666666666667</ele><time>2026-04-12T06:00:32.934Z</time></trkpt><trkpt lat="43.5855063" lon="6.8962487"><ele>261.0</ele><time>2026-04-12T06:00:33.922Z</time></trkpt><trkpt lat="43.5854988" lon="6.8961385"><ele>261.0</ele><time>2026-04-12T06:00:34.954Z</time></trkpt><trkpt lat="43.5854741" lon="6.8960257"><ele>261.0</ele><time>2026-04-12T06:00:35.912Z</time></trkpt><trkpt lat="43.5854378" lon="6.8959279"><ele>261.0</ele><time>2026-04-12T06:00:36.912Z</time></trkpt><trkpt lat="43.5853952" lon="6.8958346"><ele>261.0</ele><time>2026-04-12T06:00:37.916Z</time></trkpt><trkpt lat="43.58537" lon="6.8957282"><ele>261.0</ele><time>2026-04-12T06:00:38.877Z</time></trkpt><trkpt lat="43.5853752" lon="6.8956329"><ele>261.0</ele><time>2026-04-12T06:00:39.899Z</time></trkpt><trkpt lat="43.5854105" lon="6.8955318"><ele>261.6666666666667</ele><time>2026-04-12T06:00:40.93Z</time></trkpt><trkpt lat="43.5854761" lon="6.8954489"><ele>262.3333333333333</ele><time>2026-04-12T06:00:41.92Z</time></trkpt><trkpt lat="43.5855395" lon="6.8953956"><ele>263.0</ele><time>2026-04-12T06:00:42.922Z</time></trkpt><trkpt lat="43.5855924" lon="6.8953322"><ele>263.66666666666663</ele><time>2026-04-12T06:00:43.89Z</time></trkpt><trkpt lat="43.5856367" lon="6.8952475"><ele>264.3333333333333</ele><time>2026-04-12T06:00:44.93Z</time></trkpt><trkpt lat="43.585681" lon="6.8951558"><ele>265.0</ele><time>2026-04-12T06:00:45.927Z</time></trkpt><trkpt lat="43.5857167" lon="6.8950627"><ele>266.99999999999994</ele><time>2026-04-12T06:00:46.894Z</time></trkpt><trkpt lat="43.585745" lon="6.8949657"><ele>269.0</ele><time>2026-04-12T06:00:47.947Z</time></trkpt><trkpt lat="43.585769" lon="6.8948674"><ele>271.0</ele><time>2026-04-12T06:00:48.866Z</time></trkpt><trkpt lat="43.5857986" lon="6.8947702"><ele>273.0</ele><time>2026-04-12T06:00:49.906Z</time></trkpt><trkpt lat="43.5858392" lon="6.8946849"><ele>275.0</ele><time>2026-04-12T06:00:50.906Z</time></trkpt><trkpt lat="43.5858831" lon="6.8946023"><ele>276.99999999999994</ele><time>2026-04-12T06:00:51.897Z</time></trkpt><trkpt lat="43.5859127" lon="6.8945093"><ele>279.0</ele><time>2026-04-12T06:00:52.904Z</time></trkpt><trkpt lat="43.585925" lon="6.8944112"><ele>279.0</ele><time>2026-04-12T06:00:53.917Z</time></trkpt><trkpt lat="43.5859311" lon="6.8943063"><ele>279.0</ele><time>2026-04-12T06:00:54.902Z</time></trkpt><trkpt lat="43.5859139" lon="6.8941993"><ele>279.0</ele><time>2026-04-12T06:00:55.898Z</time></trkpt><trkpt lat="43.585882" lon="6.8941056"><ele>279.0</ele><time>2026-04-12T06:00:56.917Z</time></trkpt><trkpt lat="43.585837" lon="6.8940187"><ele>279.0</ele><time>2026-04-12T06:00:57.938Z</time></trkpt><trkpt lat="43.5857804" lon="6.8939483"><ele>279.0</ele><time>2026-04-12T06:00:58.919Z</time></trkpt><trkpt lat="43.5857206" lon="6.8938761"><ele>279.0</ele><time>2026-04-12T06:00:59.938Z</time></trkpt><trkpt lat="43.5856601" lon="6.8938156"><ele>279.0</ele><time>2026-04-12T06:01:00.918Z</time></trkpt><trkpt lat="43.5855911" lon="6.8937651"><ele>279.0</ele><time>2026-04-12T06:01:01.929Z</time></trkpt><trkpt lat="43.5855176" lon="6.8937249"><ele>279.0</ele><time>2026-04-12T06:01:02.91Z</time></trkpt><trkpt lat="43.585446" lon="6.8936912"><ele>279.0</ele><time>2026-04-12T06:01:03.907Z</time></trkpt><trkpt lat="43.5853713" lon="6.8936528"><ele>279.0</ele><time>2026-04-12T06:01:04.922Z</time></trkpt><trkpt lat="43.5853012" lon="6.8936066"><ele>282.6666666666667</ele><time>2026-04-12T06:01:05.935Z</time></trkpt><trkpt lat="43.5852371" lon="6.8935674"><ele>286.3333333333333</ele><time>2026-04-12T06:01:06.91Z</time></trkpt><trkpt lat="43.585173" lon="6.8935111"><ele>290.0</ele><time>2026-04-12T06:01:07.912Z</time></trkpt><trkpt lat="43.5851233" lon="6.8934152"><ele>293.66666666666663</ele><time>2026-04-12T06:01:08.912Z</time></trkpt><trkpt lat="43.5851089" lon="6.893299"><ele>297.3333333333333</ele><time>2026-04-12T06:01:09.927Z</time></trkpt><trkpt lat="43.5851181" lon="6.8931871"><ele>301.0</ele><time>2026-04-12T06:01:10.917Z</time></trkpt><trkpt lat="43.5851551" lon="6.8930995"><ele>301.0</ele><time>2026-04-12T06:01:11.933Z</time></trkpt><trkpt lat="43.5852126" lon="6.8930445"><ele>301.0</ele><time>2026-04-12T06:01:12.934Z</time></trkpt><trkpt lat="43.5852927" lon="6.8930142"><ele>301.0</ele><time>2026-04-12T06:01:13.928Z</time></trkpt><trkpt lat="43.5853678" lon="6.8929818"><ele>301.0</ele><time>2026-04-12T06:01:14.902Z</time></trkpt><trkpt lat="43.5854406" lon="6.8929452"><ele>301.0</ele><time>2026-04-12T06:01:15.911Z</time></trkpt><trkpt lat="43.5855189" lon="6.8929012"><ele>301.0</ele><time>2026-04-12T06:01:16.88Z</time></trkpt><trkpt lat="43.5855898" lon="6.8928375"><ele>298.5</ele><time>2026-04-12T06:01:17.933Z</time></trkpt><trkpt lat="43.5856559" lon="6.8927639"><ele>296.0</ele><time>2026-04-12T06:01:18.894Z</time></trkpt><trkpt lat="43.5857261" lon="6.8927039"><ele>293.5</ele><time>2026-04-12T06:01:19.904Z</time></trkpt><trkpt lat="43.5858017" lon="6.8926554"><ele>291.0</ele><time>2026-04-12T06:01:20.943Z</time></trkpt><trkpt lat="43.5858768" lon="6.8926045"><ele>288.5</ele><time>2026-04-12T06:01:21.86Z</time></trkpt><trkpt lat="43.5859179" lon="6.8925137"><ele>286.0</ele><time>2026-04-12T06:01:22.927Z</time></trkpt><trkpt lat="43.5859171" lon="6.8923852"><ele>286.0</ele><time>2026-04-12T06:01:23.932Z</time></trkpt><trkpt lat="43.5858894" lon="6.8922632"><ele>286.0</ele><time>2026-04-12T06:01:24.913Z</time></trkpt><trkpt lat="43.5858509" lon="6.8921609"><ele>286.0</ele><time>2026-04-12T06:01:25.941Z</time></trkpt><trkpt lat="43.5857955" lon="6.8920635"><ele>286.0</ele><time>2026-04-12T06:01:26.901Z</time></trkpt><trkpt lat="43.5857509" lon="6.8919885"><ele>286.0</ele><time>2026-04-12T06:01:27.932Z</time></trkpt><trkpt lat="43.5857088" lon="6.8919014"><ele>286.0</ele><time>2026-04-12T06:01:28.918Z</time></trkpt><trkpt lat="43.5856755" lon="6.8918106"><ele>285.85714285714283</ele><time>2026-04-12T06:01:29.921Z</time></trkpt><trkpt lat="43.5856571" lon="6.8917118"><ele>285.7142857142857</ele><time>2026-04-12T06:01:30.927Z</time></trkpt><trkpt lat="43.5856575" lon="6.8916127"><ele>285.57142857142856</ele><time>2026-04-12T06:01:31.929Z</time></trkpt><trkpt lat="43.5856555" lon="6.8915144"><ele>285.42857142857144</ele><time>2026-04-12T06:01:32.932Z</time></trkpt><trkpt lat="43.5856442" lon="6.8914174"><ele>285.2857142857143</ele><time>2026-04-12T06:01:33.918Z</time></trkpt><trkpt lat="43.585618" lon="6.8913191"><ele>285.1428571428571</ele><time>2026-04-12T06:01:34.917Z</time></trkpt><trkpt lat="43.5855736" lon="6.8912358"><ele>285.0</ele><time>2026-04-12T06:01:35.912Z</time></trkpt><trkpt lat="43.5855242" lon="6.8911613"><ele>285.0</ele><time>2026-04-12T06:01:36.914Z</time></trkpt><trkpt lat="43.5854757" lon="6.8911014"><ele>285.0</ele><time>2026-04-12T06:01:37.93Z</time></trkpt><trkpt lat="43.5854288" lon="6.8910301"><ele>285.0</ele><time>2026-04-12T06:01:38.905Z</time></trkpt><trkpt lat="43.5853802" lon="6.8909622"><ele>285.0</ele><time>2026-04-12T06:01:39.922Z</time></trkpt><trkpt lat="43.5853313" lon="6.8908966"><ele>285.0</ele><time>2026-04-12T06:01:40.915Z</time></trkpt><trkpt lat="43.5852822" lon="6.8908307"><ele>285.0</ele><time>2026-04-12T06:01:41.895Z</time></trkpt><trkpt lat="43.5852371" lon="6.8907547"><ele>285.0</ele><time>2026-04-12T06:01:42.922Z</time></trkpt><trkpt lat="43.585193" lon="6.8906717"><ele>289.2</ele><time>2026-04-12T06:01:43.902Z</time></trkpt><trkpt lat="43.5851541" lon="6.8906016"><ele>293.4</ele><time>2026-04-12T06:01:44.94Z</time></trkpt><trkpt lat="43.5850728" lon="6.8904675"><ele>297.6</ele><time>2026-04-12T06:01:46.886Z</time></trkpt><trkpt lat="43.5850031" lon="6.8903281"><ele>301.8</ele><time>2026-04-12T06:01:48.921Z</time></trkpt><trkpt lat="43.5849741" lon="6.8902447"><ele>306.0</ele><time>2026-04-12T06:01:49.92Z</time></trkpt><trkpt lat="43.584934" lon="6.8900913"><ele>306.0</ele><time>2026-04-12T06:01:51.996Z</time></trkpt><trkpt lat="43.584956" lon="6.8899101"><ele>306.0</ele><time>2026-04-12T06:01:53.921Z</time></trkpt><trkpt lat="43.5849743" lon="6.8898154"><ele>306.0</ele><time>2026-04-12T06:01:54.906Z</time></trkpt><trkpt lat="43.5850088" lon="6.8897148"><ele>306.0</ele><time>2026-04-12T06:01:55.879Z</time></trkpt><trkpt lat="43.585028" lon="6.889618"><ele>306.0</ele><time>2026-04-12T06:01:56.919Z</time></trkpt><trkpt lat="43.5850394" lon="6.8895175"><ele>306.0</ele><time>2026-04-12T06:01:57.925Z</time></trkpt><trkpt lat="43.5850473" lon="6.8894186"><ele>306.0</ele><time>2026-04-12T06:01:58.928Z</time></trkpt><trkpt lat="43.5850375" lon="6.8893171"><ele>306.0</ele><time>2026-04-12T06:01:59.931Z</time></trkpt><trkpt lat="43.5850021" lon="6.8892254"><ele>306.0</ele><time>2026-04-12T06:02:00.858Z</time></trkpt><trkpt lat="43.5849426" lon="6.889157"><ele>306.0</ele><time>2026-04-12T06:02:01.908Z</time></trkpt><trkpt lat="43.5848723" lon="6.8890967"><ele>306.0</ele><time>2026-04-12T06:02:02.955Z</time></trkpt><trkpt lat="43.5848212" lon="6.8890277"><ele>306.0</ele><time>2026-04-12T06:02:03.916Z</time></trkpt><trkpt lat="43.584781" lon="6.8889339"><ele>304.8333333333333</ele><time>2026-04-12T06:02:04.924Z</time></trkpt><trkpt lat="43.584753" lon="6.8888322"><ele>303.6666666666667</ele><time>2026-04-12T06:02:05.911Z</time></trkpt><trkpt lat="43.5847412" lon="6.8887314"><ele>302.5</ele><time>2026-04-12T06:02:06.926Z</time></trkpt><trkpt lat="43.5847469" lon="6.888633"><ele>301.33333333333337</ele><time>2026-04-12T06:02:07.911Z</time></trkpt><trkpt lat="43.5847584" lon="6.8885271"><ele>300.1666666666667</ele><time>2026-04-12T06:02:08.913Z</time></trkpt><trkpt lat="43.5847795" lon="6.8884262"><ele>299.0</ele><time>2026-04-12T06:02:09.922Z</time></trkpt><trkpt lat="43.5847934" lon="6.8883257"><ele>297.83333333333337</ele><time>2026-04-12T06:02:10.915Z</time></trkpt><trkpt lat="43.584808" lon="6.888221"><ele>296.6666666666667</ele><time>2026-04-12T06:02:11.897Z</time></trkpt><trkpt lat="43.5848226" lon="6.8881158"><ele>295.5</ele><time>2026-04-12T06:02:12.921Z</time></trkpt><trkpt lat="43.5848463" lon="6.8880089"><ele>294.3333333333333</ele><time>2026-04-12T06:02:13.925Z</time></trkpt><trkpt lat="43.5848815" lon="6.8879038"><ele>293.16666666666663</ele><time>2026-04-12T06:02:14.928Z</time></trkpt><trkpt lat="43.5849158" lon="6.8877941"><ele>292.0</ele><time>2026-04-12T06:02:15.918Z</time></trkpt><trkpt lat="43.5849475" lon="6.8876767"><ele>292.16666666666663</ele><time>2026-04-12T06:02:16.934Z</time></trkpt><trkpt lat="43.5849655" lon="6.8875564"><ele>292.3333333333333</ele><time>2026-04-12T06:02:17.938Z</time></trkpt><trkpt lat="43.5849671" lon="6.8874298"><ele>292.5</ele><time>2026-04-12T06:02:18.915Z</time></trkpt><trkpt lat="43.5849594" lon="6.8873107"><ele>292.6666666666667</ele><time>2026-04-12T06:02:19.886Z</time></trkpt><trkpt lat="43.5849344" lon="6.8872011"><ele>292.83333333333337</ele><time>2026-04-12T06:02:20.926Z</time></trkpt><trkpt lat="43.5848881" lon="6.8871036"><ele>293.0</ele><time>2026-04-12T06:02:21.904Z</time></trkpt><trkpt lat="43.5848299" lon="6.8870219"><ele>293.0</ele><time>2026-04-12T06:02:22.883Z</time></trkpt><trkpt lat="43.5847657" lon="6.8869513"><ele>293.0</ele><time>2026-04-12T06:02:23.878Z</time></trkpt><trkpt lat="43.5847068" lon="6.8868622"><ele>293.0</ele><time>2026-04-12T06:02:24.915Z</time></trkpt><trkpt lat="43.5846655" lon="6.8867669"><ele>293.0</ele><time>2026-04-12T06:02:25.915Z</time></trkpt><trkpt lat="43.5846447" lon="6.8866609"><ele>293.0</ele><time>2026-04-12T06:02:26.925Z</time></trkpt><trkpt lat="43.5846537" lon="6.8865495"><ele>293.0</ele><time>2026-04-12T06:02:27.926Z</time></trkpt><trkpt lat="43.5846851" lon="6.8864525"><ele>293.83333333333337</ele><time>2026-04-12T06:02:28.891Z</time></trkpt><trkpt lat="43.5847426" lon="6.8863832"><ele>294.6666666666667</ele><time>2026-04-12T06:02:29.932Z</time></trkpt><trkpt lat="43.5848028" lon="6.8863415"><ele>295.5</ele><time>2026-04-12T06:02:30.916Z</time></trkpt><trkpt lat="43.5848739" lon="6.8863306"><ele>296.3333333333333</ele><time>2026-04-12T06:02:31.875Z</time></trkpt><trkpt lat="43.5849364" lon="6.8863066"><ele>297.16666666666663</ele><time>2026-04-12T06:02:32.917Z</time></trkpt><trkpt lat="43.5850513" lon="6.8862669"><ele>298.0</ele><time>2026-04-12T06:02:34.939Z</time></trkpt><trkpt lat="43.585172" lon="6.8862314"><ele>298.0</ele><time>2026-04-12T06:02:36.923Z</time></trkpt><trkpt lat="43.5852943" lon="6.8861955"><ele>298.0</ele><time>2026-04-12T06:02:38.915Z</time></trkpt><trkpt lat="43.5854121" lon="6.8861524"><ele>298.0</ele><time>2026-04-12T06:02:40.922Z</time></trkpt><trkpt lat="43.5855255" lon="6.8861009"><ele>298.0</ele><time>2026-04-12T06:02:42.928Z</time></trkpt><trkpt lat="43.5856333" lon="6.8860352"><ele>301.25</ele><time>2026-04-12T06:02:44.918Z</time></trkpt><trkpt lat="43.5857382" lon="6.8859677"><ele>304.5</ele><time>2026-04-12T06:02:46.952Z</time></trkpt><trkpt lat="43.5858397" lon="6.8858943"><ele>307.75</ele><time>2026-04-12T06:02:48.908Z</time></trkpt><trkpt lat="43.5859422" lon="6.8858289"><ele>311.0</ele><time>2026-04-12T06:02:50.901Z</time></trkpt><trkpt lat="43.5860422" lon="6.8857561"><ele>311.0</ele><time>2026-04-12T06:02:52.919Z</time></trkpt><trkpt lat="43.58613" lon="6.8856434"><ele>311.0</ele><time>2026-04-12T06:02:54.898Z</time></trkpt><trkpt lat="43.5861925" lon="6.8855104"><ele>311.0</ele><time>2026-04-12T06:02:56.917Z</time></trkpt><trkpt lat="43.5862487" lon="6.8853679"><ele>311.0</ele><time>2026-04-12T06:02:58.929Z</time></trkpt><trkpt lat="43.586325" lon="6.8852459"><ele>313.25</ele><time>2026-04-12T06:03:00.896Z</time></trkpt><trkpt lat="43.5864084" lon="6.8851332"><ele>315.5</ele><time>2026-04-12T06:03:02.901Z</time></trkpt><trkpt lat="43.5864895" lon="6.8850308"><ele>317.75</ele><time>2026-04-12T06:03:04.908Z</time></trkpt><trkpt lat="43.5865807" lon="6.8849252"><ele>320.0</ele><time>2026-04-12T06:03:06.931Z</time></trkpt><trkpt lat="43.5866862" lon="6.884853"><ele>320.0</ele><time>2026-04-12T06:03:08.918Z</time></trkpt><trkpt lat="43.586798" lon="6.884826"><ele>320.0</ele><time>2026-04-12T06:03:10.89Z</time></trkpt><trkpt lat="43.5869206" lon="6.884811"><ele>320.0</ele><time>2026-04-12T06:03:12.92Z</time></trkpt><trkpt lat="43.5870397" lon="6.8847596"><ele>320.0</ele><time>2026-04-12T06:03:14.923Z</time></trkpt><trkpt lat="43.5871008" lon="6.8847255"><ele>320.0</ele><time>2026-04-12T06:03:15.918Z</time></trkpt><trkpt lat="43.5872086" lon="6.8846445"><ele>315.25</ele><time>2026-04-12T06:03:17.909Z</time></trkpt><trkpt lat="43.587312" lon="6.884559"><ele>310.5</ele><time>2026-04-12T06:03:19.921Z</time></trkpt><trkpt lat="43.587421" lon="6.8844705"><ele>305.75</ele><time>2026-04-12T06:03:21.908Z</time></trkpt><trkpt lat="43.5875272" lon="6.8843859"><ele>301.0</ele><time>2026-04-12T06:03:23.904Z</time></trkpt><trkpt lat="43.5876159" lon="6.8842707"><ele>300.0</ele><time>2026-04-12T06:03:25.911Z</time></trkpt><trkpt lat="43.5876828" lon="6.8841248"><ele>299.0</ele><time>2026-04-12T06:03:27.903Z</time></trkpt><trkpt lat="43.5877405" lon="6.8839767"><ele>298.0</ele><time>2026-04-12T06:03:29.927Z</time></trkpt><trkpt lat="43.5877913" lon="6.883832"><ele>297.0</ele><time>2026-04-12T06:03:31.934Z</time></trkpt><trkpt lat="43.5878474" lon="6.8836888"><ele>297.0</ele><time>2026-04-12T06:03:33.907Z</time></trkpt><trkpt lat="43.5879058" lon="6.8835602"><ele>297.0</ele><time>2026-04-12T06:03:35.924Z</time></trkpt><trkpt lat="43.5879793" lon="6.8834441"><ele>297.0</ele><time>2026-04-12T06:03:37.927Z</time></trkpt><trkpt lat="43.5880419" lon="6.883317"><ele>297.0</ele><time>2026-04-12T06:03:39.927Z</time></trkpt><trkpt lat="43.5880778" lon="6.8831788"><ele>297.0</ele><time>2026-04-12T06:03:41.908Z</time></trkpt><trkpt lat="43.5880851" lon="6.883042"><ele>299.2</ele><time>2026-04-12T06:03:43.927Z</time></trkpt><trkpt lat="43.5880643" lon="6.8828951"><ele>301.4</ele><time>2026-04-12T06:03:45.908Z</time></trkpt><trkpt lat="43.5880184" lon="6.8827617"><ele>303.6</ele><time>2026-04-12T06:03:47.916Z</time></trkpt><trkpt lat="43.5879467" lon="6.882652"><ele>305.8</ele><time>2026-04-12T06:03:49.894Z</time></trkpt><trkpt lat="43.5878775" lon="6.882567"><ele>308.0</ele><time>2026-04-12T06:03:51.929Z</time></trkpt><trkpt lat="43.5877999" lon="6.8824891"><ele>314.83333333333337</ele><time>2026-04-12T06:03:53.92Z</time></trkpt><trkpt lat="43.5877359" lon="6.8824067"><ele>321.6666666666667</ele><time>2026-04-12T06:03:55.925Z</time></trkpt><trkpt lat="43.5876688" lon="6.8823398"><ele>328.5</ele><time>2026-04-12T06:03:57.891Z</time></trkpt><trkpt lat="43.5876045" lon="6.882269"><ele>335.3333333333333</ele><time>2026-04-12T06:03:59.898Z</time></trkpt><trkpt lat="43.5875451" lon="6.8821935"><ele>342.16666666666663</ele><time>2026-04-12T06:04:01.874Z</time></trkpt><trkpt lat="43.5875036" lon="6.8821038"><ele>349.0</ele><time>2026-04-12T06:04:03.874Z</time></trkpt><trkpt lat="43.587487" lon="6.8819992"><ele>349.0</ele><time>2026-04-12T06:04:05.937Z</time></trkpt><trkpt lat="43.5874557" lon="6.881893"><ele>349.0</ele><time>2026-04-12T06:04:07.878Z</time></trkpt><trkpt lat="43.5874246" lon="6.8817783"><ele>349.0</ele><time>2026-04-12T06:04:09.877Z</time></trkpt><trkpt lat="43.5873912" lon="6.8816713"><ele>349.0</ele><time>2026-04-12T06:04:11.909Z</time></trkpt><trkpt lat="43.587359" lon="6.8815682"><ele>349.0</ele><time>2026-04-12T06:04:13.898Z</time></trkpt><trkpt lat="43.58734" lon="6.8814623"><ele>349.0</ele><time>2026-04-12T06:04:15.905Z</time></trkpt><trkpt lat="43.5873161" lon="6.881351"><ele>347.8333333333333</ele><time>2026-04-12T06:04:17.936Z</time></trkpt><trkpt lat="43.5873188" lon="6.8812469"><ele>346.66666666666663</ele><time>2026-04-12T06:04:19.894Z</time></trkpt><trkpt lat="43.587346" lon="6.8811486"><ele>345.5</ele><time>2026-04-12T06:04:21.906Z</time></trkpt><trkpt lat="43.5873973" lon="6.8810649"><ele>344.3333333333333</ele><time>2026-04-12T06:04:23.935Z</time></trkpt><trkpt lat="43.5874594" lon="6.8810004"><ele>343.1666666666667</ele><time>2026-04-12T06:04:25.904Z</time></trkpt><trkpt lat="43.5875311" lon="6.8809491"><ele>342.0</ele><time>2026-04-12T06:04:27.901Z</time></trkpt><trkpt lat="43.5876106" lon="6.8808999"><ele>340.8333333333333</ele><time>2026-04-12T06:04:29.907Z</time></trkpt><trkpt lat="43.587689" lon="6.8808476"><ele>339.6666666666667</ele><time>2026-04-12T06:04:31.92Z</time></trkpt><trkpt lat="43.5877607" lon="6.8807893"><ele>338.5</ele><time>2026-04-12T06:04:33.926Z</time></trkpt><trkpt lat="43.5878255" lon="6.8807373"><ele>337.33333333333337</ele><time>2026-04-12T06:04:35.91Z</time></trkpt><trkpt lat="43.5878881" lon="6.8806883"><ele>336.1666666666667</ele><time>2026-04-12T06:04:37.914Z</time></trkpt><trkpt lat="43.5879554" lon="6.8806362"><ele>335.0</ele><time>2026-04-12T06:04:39.912Z</time></trkpt><trkpt lat="43.5880192" lon="6.8805909"><ele>334.99999999999994</ele><time>2026-04-12T06:04:41.915Z</time></trkpt><trkpt lat="43.5880873" lon="6.8805388"><ele>335.0</ele><time>2026-04-12T06:04:43.924Z</time></trkpt><trkpt lat="43.588157" lon="6.8804933"><ele>335.0</ele><time>2026-04-12T06:04:45.914Z</time></trkpt><trkpt lat="43.5882198" lon="6.8804467"><ele>335.0</ele><time>2026-04-12T06:04:47.862Z</time></trkpt><trkpt lat="43.5882868" lon="6.8804063"><ele>335.0</ele><time>2026-04-12T06:04:49.923Z</time></trkpt><trkpt lat="43.5883515" lon="6.8803728"><ele>334.99999999999994</ele><time>2026-04-12T06:04:51.9Z</time></trkpt><trkpt lat="43.5884235" lon="6.8803375"><ele>335.0</ele><time>2026-04-12T06:04:53.907Z</time></trkpt><trkpt lat="43.5885016" lon="6.8802981"><ele>335.0</ele><time>2026-04-12T06:04:55.911Z</time></trkpt><trkpt lat="43.5885729" lon="6.8802282"><ele>335.0</ele><time>2026-04-12T06:04:57.933Z</time></trkpt><trkpt lat="43.5886422" lon="6.8801499"><ele>335.0</ele><time>2026-04-12T06:04:59.874Z</time></trkpt><trkpt lat="43.5886986" lon="6.8800701"><ele>335.0</ele><time>2026-04-12T06:05:01.918Z</time></trkpt><trkpt lat="43.5887568" lon="6.8799932"><ele>335.0</ele><time>2026-04-12T06:05:03.906Z</time></trkpt><trkpt lat="43.5888164" lon="6.8799183"><ele>335.0</ele><time>2026-04-12T06:05:05.906Z</time></trkpt><trkpt lat="43.5888826" lon="6.8798513"><ele>336.5</ele><time>2026-04-12T06:05:07.924Z</time></trkpt><trkpt lat="43.588941" lon="6.8797798"><ele>338.0</ele><time>2026-04-12T06:05:09.914Z</time></trkpt><trkpt lat="43.5890032" lon="6.879699"><ele>339.5</ele><time>2026-04-12T06:05:11.9Z</time></trkpt><trkpt lat="43.5890528" lon="6.8796028"><ele>341.0</ele><time>2026-04-12T06:05:13.879Z</time></trkpt><trkpt lat="43.5890723" lon="6.8794997"><ele>342.5</ele><time>2026-04-12T06:05:15.916Z</time></trkpt><trkpt lat="43.5890684" lon="6.8793938"><ele>344.0</ele><time>2026-04-12T06:05:17.894Z</time></trkpt><trkpt lat="43.5890369" lon="6.8792928"><ele>346.0</ele><time>2026-04-12T06:05:19.915Z</time></trkpt><trkpt lat="43.5890182" lon="6.8791948"><ele>348.0</ele><time>2026-04-12T06:05:21.9Z</time></trkpt><trkpt lat="43.5889886" lon="6.8790904"><ele>350.0</ele><time>2026-04-12T06:05:23.878Z</time></trkpt><trkpt lat="43.5889393" lon="6.87899"><ele>352.0</ele><time>2026-04-12T06:05:25.923Z</time></trkpt><trkpt lat="43.5888887" lon="6.8788929"><ele>354.0</ele><time>2026-04-12T06:05:27.879Z</time></trkpt><trkpt lat="43.5888395" lon="6.8787903"><ele>356.0</ele><time>2026-04-12T06:05:29.921Z</time></trkpt><trkpt lat="43.588788" lon="6.8786958"><ele>356.0</ele><time>2026-04-12T06:05:31.895Z</time></trkpt><trkpt lat="43.5887463" lon="6.8785941"><ele>356.0</ele><time>2026-04-12T06:05:33.888Z</time></trkpt><trkpt lat="43.5887331" lon="6.8784812"><ele>356.0</ele><time>2026-04-12T06:05:35.923Z</time></trkpt><trkpt lat="43.5887727" lon="6.8783743"><ele>356.0</ele><time>2026-04-12T06:05:37.897Z</time></trkpt><trkpt lat="43.5888346" lon="6.878278"><ele>356.0</ele><time>2026-04-12T06:05:39.907Z</time></trkpt><trkpt lat="43.5888908" lon="6.8781882"><ele>356.0</ele><time>2026-04-12T06:05:41.917Z</time></trkpt><trkpt lat="43.5889552" lon="6.8781061"><ele>357.0</ele><time>2026-04-12T06:05:43.932Z</time></trkpt><trkpt lat="43.5890213" lon="6.8780213"><ele>358.0</ele><time>2026-04-12T06:05:45.904Z</time></trkpt><trkpt lat="43.5890901" lon="6.8779462"><ele>359.0</ele><time>2026-04-12T06:05:47.908Z</time></trkpt><trkpt lat="43.5891628" lon="6.8778706"><ele>360.0</ele><time>2026-04-12T06:05:49.889Z</time></trkpt><trkpt lat="43.5892311" lon="6.8777988"><ele>361.0</ele><time>2026-04-12T06:05:51.923Z</time></trkpt><trkpt lat="43.5893024" lon="6.8777067"><ele>364.4</ele><time>2026-04-12T06:05:53.894Z</time></trkpt><trkpt lat="43.5893635" lon="6.8775992"><ele>367.8</ele><time>2026-04-12T06:05:55.924Z</time></trkpt><trkpt lat="43.5894152" lon="6.8774908"><ele>371.2</ele><time>2026-04-12T06:05:57.914Z</time></trkpt><trkpt lat="43.5894562" lon="6.8773737"><ele>374.59999999999997</ele><time>2026-04-12T06:05:59.918Z</time></trkpt><trkpt lat="43.5894835" lon="6.8772501"><ele>378.0</ele><time>2026-04-12T06:06:01.936Z</time></trkpt><trkpt lat="43.5895062" lon="6.8771313"><ele>376.79999999999995</ele><time>2026-04-12T06:06:03.892Z</time></trkpt><trkpt lat="43.5895284" lon="6.8770047"><ele>375.6</ele><time>2026-04-12T06:06:05.916Z</time></trkpt><trkpt lat="43.5895658" lon="6.8768827"><ele>374.4</ele><time>2026-04-12T06:06:07.926Z</time></trkpt><trkpt lat="43.5896183" lon="6.8767582"><ele>373.20000000000005</ele><time>2026-04-12T06:06:09.93Z</time></trkpt><trkpt lat="43.5896857" lon="6.8766428"><ele>372.0</ele><time>2026-04-12T06:06:11.927Z</time></trkpt><trkpt lat="43.5897777" lon="6.8765225"><ele>372.00000000000006</ele><time>2026-04-12T06:06:13.904Z</time></trkpt><trkpt lat="43.5898271" lon="6.8764632"><ele>372.0</ele><time>2026-04-12T06:06:14.943Z</time></trkpt><trkpt lat="43.5898807" lon="6.8764033"><ele>372.0</ele><time>2026-04-12T06:06:15.931Z</time></trkpt><trkpt lat="43.5899307" lon="6.8763417"><ele>372.0</ele><time>2026-04-12T06:06:16.916Z</time></trkpt><trkpt lat="43.5899806" lon="6.876287"><ele>372.0</ele><time>2026-04-12T06:06:17.934Z</time></trkpt><trkpt lat="43.5900362" lon="6.8762283"><ele>372.00000000000006</ele><time>2026-04-12T06:06:18.928Z</time></trkpt><trkpt lat="43.5900862" lon="6.876167"><ele>372.0</ele><time>2026-04-12T06:06:19.921Z</time></trkpt><trkpt lat="43.5901851" lon="6.8760411"><ele>372.0</ele><time>2026-04-12T06:06:21.923Z</time></trkpt><trkpt lat="43.5902397" lon="6.8759693"><ele>372.0</ele><time>2026-04-12T06:06:22.92Z</time></trkpt><trkpt lat="43.5902928" lon="6.8759008"><ele>372.0</ele><time>2026-04-12T06:06:23.887Z</time></trkpt><trkpt lat="43.5903485" lon="6.8758308"><ele>372.0</ele><time>2026-04-12T06:06:24.909Z</time></trkpt><trkpt lat="43.5904035" lon="6.8757644"><ele>372.0</ele><time>2026-04-12T06:06:25.906Z</time></trkpt><trkpt lat="43.5904615" lon="6.875698"><ele>372.0</ele><time>2026-04-12T06:06:26.922Z</time></trkpt><trkpt lat="43.5905211" lon="6.875625"><ele>371.0</ele><time>2026-04-12T06:06:27.926Z</time></trkpt><trkpt lat="43.5905759" lon="6.8755602"><ele>370.0</ele><time>2026-04-12T06:06:28.906Z</time></trkpt><trkpt lat="43.5906305" lon="6.8754998"><ele>369.0</ele><time>2026-04-12T06:06:29.918Z</time></trkpt><trkpt lat="43.590693" lon="6.8754367"><ele>368.0</ele><time>2026-04-12T06:06:30.936Z</time></trkpt><trkpt lat="43.5907546" lon="6.8753745"><ele>367.0</ele><time>2026-04-12T06:06:31.881Z</time></trkpt><trkpt lat="43.590825" lon="6.8753133"><ele>366.0</ele><time>2026-04-12T06:06:32.866Z</time></trkpt><trkpt lat="43.5908944" lon="6.8752424"><ele>366.0</ele><time>2026-04-12T06:06:33.902Z</time></trkpt><trkpt lat="43.5909672" lon="6.8751641"><ele>366.0</ele><time>2026-04-12T06:06:34.896Z</time></trkpt><trkpt lat="43.5910324" lon="6.8750729"><ele>366.0</ele><time>2026-04-12T06:06:35.88Z</time></trkpt><trkpt lat="43.5910923" lon="6.8749753"><ele>366.0</ele><time>2026-04-12T06:06:36.889Z</time></trkpt><trkpt lat="43.5911372" lon="6.8748725"><ele>366.0</ele><time>2026-04-12T06:06:37.894Z</time></trkpt><trkpt lat="43.5911778" lon="6.8747466"><ele>363.8</ele><time>2026-04-12T06:06:38.901Z</time></trkpt><trkpt lat="43.5912109" lon="6.8746273"><ele>361.6</ele><time>2026-04-12T06:06:39.904Z</time></trkpt><trkpt lat="43.5912244" lon="6.8745059"><ele>359.4</ele><time>2026-04-12T06:06:40.902Z</time></trkpt><trkpt lat="43.5912289" lon="6.8743844"><ele>357.2</ele><time>2026-04-12T06:06:41.882Z</time></trkpt><trkpt lat="43.5912353" lon="6.8742409"><ele>355.0</ele><time>2026-04-12T06:06:42.872Z</time></trkpt><trkpt lat="43.5912491" lon="6.8740938"><ele>355.0</ele><time>2026-04-12T06:06:43.858Z</time></trkpt><trkpt lat="43.5912738" lon="6.8739359"><ele>355.0</ele><time>2026-04-12T06:06:44.855Z</time></trkpt><trkpt lat="43.5913093" lon="6.8737721"><ele>355.0</ele><time>2026-04-12T06:06:45.857Z</time></trkpt><trkpt lat="43.5913596" lon="6.8736175"><ele>355.0</ele><time>2026-04-12T06:06:46.909Z</time></trkpt><trkpt lat="43.5914072" lon="6.8734598"><ele>356.5</ele><time>2026-04-12T06:06:47.861Z</time></trkpt><trkpt lat="43.5914593" lon="6.8732986"><ele>358.0</ele><time>2026-04-12T06:06:48.865Z</time></trkpt><trkpt lat="43.5915093" lon="6.8731362"><ele>359.5</ele><time>2026-04-12T06:06:49.901Z</time></trkpt><trkpt lat="43.5915737" lon="6.8729824"><ele>361.0</ele><time>2026-04-12T06:06:50.889Z</time></trkpt><trkpt lat="43.5916485" lon="6.8728319"><ele>361.0</ele><time>2026-04-12T06:06:51.92Z</time></trkpt><trkpt lat="43.5917455" lon="6.8727261"><ele>361.0</ele><time>2026-04-12T06:06:52.918Z</time></trkpt><trkpt lat="43.5918633" lon="6.8726351"><ele>361.0</ele><time>2026-04-12T06:06:53.943Z</time></trkpt><trkpt lat="43.5919925" lon="6.8725563"><ele>361.0</ele><time>2026-04-12T06:06:54.861Z</time></trkpt><trkpt lat="43.5921225" lon="6.8725101"><ele>360.25</ele><time>2026-04-12T06:06:55.86Z</time></trkpt><trkpt lat="43.5922509" lon="6.8724775"><ele>359.5</ele><time>2026-04-12T06:06:56.911Z</time></trkpt><trkpt lat="43.5923836" lon="6.8724445"><ele>358.75</ele><time>2026-04-12T06:06:57.884Z</time></trkpt><trkpt lat="43.5925097" lon="6.8723899"><ele>358.0</ele><time>2026-04-12T06:06:58.924Z</time></trkpt><trkpt lat="43.5926359" lon="6.8723081"><ele>358.0</ele><time>2026-04-12T06:06:59.903Z</time></trkpt><trkpt lat="43.5927544" lon="6.8722005"><ele>358.0</ele><time>2026-04-12T06:07:00.907Z</time></trkpt><trkpt lat="43.5928531" lon="6.8720477"><ele>358.0</ele><time>2026-04-12T06:07:01.899Z</time></trkpt><trkpt lat="43.592917" lon="6.8718736"><ele>358.0</ele><time>2026-04-12T06:07:02.896Z</time></trkpt><trkpt lat="43.5929492" lon="6.8716826"><ele>355.5</ele><time>2026-04-12T06:07:03.908Z</time></trkpt><trkpt lat="43.5929567" lon="6.8714828"><ele>353.0</ele><time>2026-04-12T06:07:04.935Z</time></trkpt><trkpt lat="43.5929623" lon="6.8712862"><ele>350.5</ele><time>2026-04-12T06:07:05.926Z</time></trkpt><trkpt lat="43.5929668" lon="6.8710936"><ele>348.0</ele><time>2026-04-12T06:07:06.919Z</time></trkpt><trkpt lat="43.592982" lon="6.8708966"><ele>348.0</ele><time>2026-04-12T06:07:07.907Z</time></trkpt><trkpt lat="43.5930121" lon="6.8707044"><ele>348.0</ele><time>2026-04-12T06:07:08.925Z</time></trkpt><trkpt lat="43.5930813" lon="6.8705376"><ele>348.0</ele><time>2026-04-12T06:07:09.918Z</time></trkpt><trkpt lat="43.5931769" lon="6.8704104"><ele>348.0</ele><time>2026-04-12T06:07:10.932Z</time></trkpt><trkpt lat="43.5933158" lon="6.870328"><ele>348.0</ele><time>2026-04-12T06:07:11.928Z</time></trkpt><trkpt lat="43.5934666" lon="6.8702564"><ele>348.0</ele><time>2026-04-12T06:07:12.922Z</time></trkpt><trkpt lat="43.5936039" lon="6.8701838"><ele>348.0</ele><time>2026-04-12T06:07:13.891Z</time></trkpt><trkpt lat="43.5937235" lon="6.8701069"><ele>348.0</ele><time>2026-04-12T06:07:14.905Z</time></trkpt><trkpt lat="43.5937911" lon="6.8699797"><ele>342.5</ele><time>2026-04-12T06:07:15.923Z</time></trkpt><trkpt lat="43.5938123" lon="6.8698009"><ele>337.0</ele><time>2026-04-12T06:07:16.911Z</time></trkpt><trkpt lat="43.5937889" lon="6.8696332"><ele>331.5</ele><time>2026-04-12T06:07:17.878Z</time></trkpt><trkpt lat="43.5937351" lon="6.8694694"><ele>326.0</ele><time>2026-04-12T06:07:18.871Z</time></trkpt><trkpt lat="43.59369" lon="6.8693171"><ele>334.75</ele><time>2026-04-12T06:07:19.866Z</time></trkpt><trkpt lat="43.5936017" lon="6.8691789"><ele>343.5</ele><time>2026-04-12T06:07:20.87Z</time></trkpt><trkpt lat="43.5935062" lon="6.8690519"><ele>352.25</ele><time>2026-04-12T06:07:21.882Z</time></trkpt><trkpt lat="43.5934442" lon="6.868911"><ele>361.0</ele><time>2026-04-12T06:07:22.884Z</time></trkpt><trkpt lat="43.5934446" lon="6.868737"><ele>361.0</ele><time>2026-04-12T06:07:23.879Z</time></trkpt><trkpt lat="43.5934941" lon="6.8685524"><ele>361.0</ele><time>2026-04-12T06:07:24.893Z</time></trkpt><trkpt lat="43.5935178" lon="6.8683606"><ele>361.0</ele><time>2026-04-12T06:07:25.888Z</time></trkpt><trkpt lat="43.5935129" lon="6.8681583"><ele>361.0</ele><time>2026-04-12T06:07:26.915Z</time></trkpt><trkpt lat="43.593508" lon="6.8679785"><ele>359.75</ele><time>2026-04-12T06:07:27.939Z</time></trkpt><trkpt lat="43.5935275" lon="6.8677834"><ele>358.5</ele><time>2026-04-12T06:07:28.905Z</time></trkpt><trkpt lat="43.5935871" lon="6.8675852"><ele>357.25</ele><time>2026-04-12T06:07:29.886Z</time></trkpt><trkpt lat="43.5936847" lon="6.8674382"><ele>356.0</ele><time>2026-04-12T06:07:30.9Z</time></trkpt><trkpt lat="43.5938038" lon="6.867324"><ele>348.0</ele><time>2026-04-12T06:07:31.918Z</time></trkpt><trkpt lat="43.5939083" lon="6.8672155"><ele>340.0</ele><time>2026-04-12T06:07:32.919Z</time></trkpt><trkpt lat="43.5939558" lon="6.867087"><ele>332.0</ele><time>2026-04-12T06:07:33.914Z</time></trkpt><trkpt lat="43.5939573" lon="6.8669115"><ele>324.0</ele><time>2026-04-12T06:07:34.91Z</time></trkpt><trkpt lat="43.5938913" lon="6.8667593"><ele>323.75</ele><time>2026-04-12T06:07:35.88Z</time></trkpt><trkpt lat="43.5937909" lon="6.8666654"><ele>323.5</ele><time>2026-04-12T06:07:36.919Z</time></trkpt><trkpt lat="43.5936777" lon="6.8665961"><ele>323.25</ele><time>2026-04-12T06:07:37.923Z</time></trkpt><trkpt lat="43.5935556" lon="6.8665381"><ele>323.0</ele><time>2026-04-12T06:07:38.914Z</time></trkpt><trkpt lat="43.5934372" lon="6.8664511"><ele>327.0</ele><time>2026-04-12T06:07:39.936Z</time></trkpt><trkpt lat="43.5933247" lon="6.8663439"><ele>331.0</ele><time>2026-04-12T06:07:40.892Z</time></trkpt><trkpt lat="43.5932172" lon="6.8662392"><ele>335.0</ele><time>2026-04-12T06:07:41.914Z</time></trkpt><trkpt lat="43.5931004" lon="6.8661625"><ele>339.0</ele><time>2026-04-12T06:07:42.914Z</time></trkpt><trkpt lat="43.5929595" lon="6.8661278"><ele>339.75</ele><time>2026-04-12T06:07:43.939Z</time></trkpt><trkpt lat="43.5928337" lon="6.8660904"><ele>340.5</ele><time>2026-04-12T06:07:44.92Z</time></trkpt><trkpt lat="43.5927457" lon="6.8659876"><ele>341.25</ele><time>2026-04-12T06:07:45.928Z</time></trkpt><trkpt lat="43.592672" lon="6.8658383"><ele>342.0</ele><time>2026-04-12T06:07:46.9Z</time></trkpt><trkpt lat="43.5926029" lon="6.8656725"><ele>339.5</ele><time>2026-04-12T06:07:47.929Z</time></trkpt><trkpt lat="43.5925184" lon="6.8655238"><ele>337.0</ele><time>2026-04-12T06:07:48.934Z</time></trkpt><trkpt lat="43.5924286" lon="6.8653731"><ele>334.5</ele><time>2026-04-12T06:07:49.906Z</time></trkpt><trkpt lat="43.5923546" lon="6.8651888"><ele>332.0</ele><time>2026-04-12T06:07:50.917Z</time></trkpt><trkpt lat="43.5923203" lon="6.8650002"><ele>327.6666666666667</ele><time>2026-04-12T06:07:51.924Z</time></trkpt><trkpt lat="43.5923064" lon="6.8647851"><ele>323.3333333333333</ele><time>2026-04-12T06:07:52.933Z</time></trkpt><trkpt lat="43.5922947" lon="6.8645697"><ele>319.0</ele><time>2026-04-12T06:07:53.923Z</time></trkpt><trkpt lat="43.592266" lon="6.8643623"><ele>315.66666666666663</ele><time>2026-04-12T06:07:54.926Z</time></trkpt><trkpt lat="43.5922387" lon="6.8641563"><ele>312.3333333333333</ele><time>2026-04-12T06:07:55.915Z</time></trkpt><trkpt lat="43.592206" lon="6.8639491"><ele>309.0</ele><time>2026-04-12T06:07:56.927Z</time></trkpt><trkpt lat="43.5921718" lon="6.8637415"><ele>309.0</ele><time>2026-04-12T06:07:57.931Z</time></trkpt><trkpt lat="43.5921564" lon="6.8635367"><ele>309.0</ele><time>2026-04-12T06:07:58.928Z</time></trkpt><trkpt lat="43.5921693" lon="6.8633275"><ele>309.0</ele><time>2026-04-12T06:07:59.938Z</time></trkpt><trkpt lat="43.5922042" lon="6.86312"><ele>310.0</ele><time>2026-04-12T06:08:00.879Z</time></trkpt><trkpt lat="43.5922486" lon="6.8629261"><ele>311.0</ele><time>2026-04-12T06:08:01.916Z</time></trkpt><trkpt lat="43.5923181" lon="6.8627482"><ele>312.0</ele><time>2026-04-12T06:08:02.914Z</time></trkpt><trkpt lat="43.5924221" lon="6.8625824"><ele>312.0</ele><time>2026-04-12T06:08:03.877Z</time></trkpt><trkpt lat="43.5925283" lon="6.8624391"><ele>312.0</ele><time>2026-04-12T06:08:04.922Z</time></trkpt><trkpt lat="43.5926174" lon="6.8622816"><ele>312.0</ele><time>2026-04-12T06:08:05.912Z</time></trkpt><trkpt lat="43.592694" lon="6.8621106"><ele>312.0</ele><time>2026-04-12T06:08:06.916Z</time></trkpt><trkpt lat="43.5927898" lon="6.8619558"><ele>308.6666666666667</ele><time>2026-04-12T06:08:07.911Z</time></trkpt><trkpt lat="43.5929113" lon="6.8618299"><ele>305.33333333333337</ele><time>2026-04-12T06:08:08.902Z</time></trkpt><trkpt lat="43.5930473" lon="6.8617384"><ele>302.0</ele><time>2026-04-12T06:08:09.901Z</time></trkpt><trkpt lat="43.5931894" lon="6.8616589"><ele>302.0</ele><time>2026-04-12T06:08:10.9Z</time></trkpt><trkpt lat="43.593318" lon="6.8615462"><ele>302.0</ele><time>2026-04-12T06:08:11.913Z</time></trkpt><trkpt lat="43.5934283" lon="6.8614059"><ele>302.0</ele><time>2026-04-12T06:08:12.923Z</time></trkpt><trkpt lat="43.5935218" lon="6.8612493"><ele>302.0</ele><time>2026-04-12T06:08:13.908Z</time></trkpt><trkpt lat="43.5936151" lon="6.8610815"><ele>298.75</ele><time>2026-04-12T06:08:14.916Z</time></trkpt><trkpt lat="43.5937027" lon="6.8609166"><ele>295.5</ele><time>2026-04-12T06:08:15.899Z</time></trkpt><trkpt lat="43.5937934" lon="6.8607513"><ele>292.25</ele><time>2026-04-12T06:08:16.906Z</time></trkpt><trkpt lat="43.5939076" lon="6.8606267"><ele>289.0</ele><time>2026-04-12T06:08:17.91Z</time></trkpt><trkpt lat="43.5940481" lon="6.8605274"><ele>289.0</ele><time>2026-04-12T06:08:18.91Z</time></trkpt><trkpt lat="43.5941833" lon="6.8604263"><ele>289.0</ele><time>2026-04-12T06:08:19.901Z</time></trkpt><trkpt lat="43.5942916" lon="6.8602857"><ele>289.0</ele><time>2026-04-12T06:08:20.927Z</time></trkpt><trkpt lat="43.594376" lon="6.8601244"><ele>289.0</ele><time>2026-04-12T06:08:21.911Z</time></trkpt><trkpt lat="43.5944749" lon="6.8599832"><ele>288.0</ele><time>2026-04-12T06:08:22.919Z</time></trkpt><trkpt lat="43.5945959" lon="6.8598718"><ele>287.0</ele><time>2026-04-12T06:08:23.917Z</time></trkpt><trkpt lat="43.5947171" lon="6.8597698"><ele>286.0</ele><time>2026-04-12T06:08:24.864Z</time></trkpt><trkpt lat="43.5948498" lon="6.8596751"><ele>285.0</ele><time>2026-04-12T06:08:25.911Z</time></trkpt><trkpt lat="43.5949844" lon="6.8595911"><ele>285.0</ele><time>2026-04-12T06:08:26.909Z</time></trkpt><trkpt lat="43.5951087" lon="6.8594898"><ele>285.0</ele><time>2026-04-12T06:08:27.88Z</time></trkpt><trkpt lat="43.5952405" lon="6.8593911"><ele>285.0</ele><time>2026-04-12T06:08:28.922Z</time></trkpt><trkpt lat="43.5953694" lon="6.8592914"><ele>285.0</ele><time>2026-04-12T06:08:29.907Z</time></trkpt><trkpt lat="43.5954941" lon="6.8591771"><ele>287.5</ele><time>2026-04-12T06:08:30.917Z</time></trkpt><trkpt lat="43.5956084" lon="6.8590527"><ele>290.0</ele><time>2026-04-12T06:08:31.897Z</time></trkpt><trkpt lat="43.5956905" lon="6.8589063"><ele>292.5</ele><time>2026-04-12T06:08:32.94Z</time></trkpt><trkpt lat="43.595746" lon="6.8587259"><ele>295.0</ele><time>2026-04-12T06:08:33.906Z</time></trkpt><trkpt lat="43.5957946" lon="6.8585623"><ele>296.0</ele><time>2026-04-12T06:08:34.917Z</time></trkpt><trkpt lat="43.5958839" lon="6.8584425"><ele>297.0</ele><time>2026-04-12T06:08:35.913Z</time></trkpt><trkpt lat="43.59599" lon="6.8583608"><ele>298.0</ele><time>2026-04-12T06:08:36.92Z</time></trkpt><trkpt lat="43.5961087" lon="6.8582867"><ele>299.0</ele><time>2026-04-12T06:08:37.922Z</time></trkpt><trkpt lat="43.5962202" lon="6.858207"><ele>299.0</ele><time>2026-04-12T06:08:38.937Z</time></trkpt><trkpt lat="43.5963409" lon="6.858128"><ele>299.0</ele><time>2026-04-12T06:08:39.922Z</time></trkpt><trkpt lat="43.5964651" lon="6.8580442"><ele>299.0</ele><time>2026-04-12T06:08:40.922Z</time></trkpt><trkpt lat="43.5965858" lon="6.8579489"><ele>299.0</ele><time>2026-04-12T06:08:41.875Z</time></trkpt><trkpt lat="43.5966936" lon="6.8578243"><ele>299.0</ele><time>2026-04-12T06:08:42.866Z</time></trkpt><trkpt lat="43.5967988" lon="6.8576952"><ele>299.0</ele><time>2026-04-12T06:08:43.913Z</time></trkpt><trkpt lat="43.5969187" lon="6.8575968"><ele>299.0</ele><time>2026-04-12T06:08:44.907Z</time></trkpt><trkpt lat="43.5970526" lon="6.8575285"><ele>299.0</ele><time>2026-04-12T06:08:45.908Z</time></trkpt><trkpt lat="43.5971857" lon="6.8574526"><ele>296.25</ele><time>2026-04-12T06:08:46.908Z</time></trkpt><trkpt lat="43.5973017" lon="6.857348"><ele>293.5</ele><time>2026-04-12T06:08:47.891Z</time></trkpt><trkpt lat="43.5974262" lon="6.8572529"><ele>290.75</ele><time>2026-04-12T06:08:48.924Z</time></trkpt><trkpt lat="43.5975649" lon="6.8571935"><ele>288.0</ele><time>2026-04-12T06:08:49.908Z</time></trkpt><trkpt lat="43.5977199" lon="6.8571786"><ele>286.6666666666667</ele><time>2026-04-12T06:08:50.926Z</time></trkpt><trkpt lat="43.5978734" lon="6.8571902"><ele>285.33333333333337</ele><time>2026-04-12T06:08:51.914Z</time></trkpt><trkpt lat="43.5980249" lon="6.8571862"><ele>284.0</ele><time>2026-04-12T06:08:52.927Z</time></trkpt><trkpt lat="43.5981778" lon="6.8571403"><ele>284.0</ele><time>2026-04-12T06:08:53.892Z</time></trkpt><trkpt lat="43.5983084" lon="6.8570515"><ele>284.0</ele><time>2026-04-12T06:08:54.9Z</time></trkpt><trkpt lat="43.5984132" lon="6.8569333"><ele>284.0</ele><time>2026-04-12T06:08:55.905Z</time></trkpt><trkpt lat="43.5984986" lon="6.8568206"><ele>284.0</ele><time>2026-04-12T06:08:56.897Z</time></trkpt><trkpt lat="43.5985958" lon="6.8567576"><ele>281.6666666666667</ele><time>2026-04-12T06:08:57.893Z</time></trkpt><trkpt lat="43.5986718" lon="6.856696"><ele>279.33333333333337</ele><time>2026-04-12T06:08:58.886Z</time></trkpt><trkpt lat="43.5987097" lon="6.8566003"><ele>277.0</ele><time>2026-04-12T06:08:59.92Z</time></trkpt><trkpt lat="43.598703" lon="6.8565111"><ele>274.6666666666667</ele><time>2026-04-12T06:09:00.932Z</time></trkpt><trkpt lat="43.5986499" lon="6.8564547"><ele>272.3333333333333</ele><time>2026-04-12T06:09:01.948Z</time></trkpt><trkpt lat="43.5985701" lon="6.8564727"><ele>270.0</ele><time>2026-04-12T06:09:02.898Z</time></trkpt><trkpt lat="43.5984857" lon="6.8565428"><ele>270.0</ele><time>2026-04-12T06:09:03.926Z</time></trkpt><trkpt lat="43.5984092" lon="6.8566265"><ele>270.0</ele><time>2026-04-12T06:09:04.927Z</time></trkpt><trkpt lat="43.5983368" lon="6.8567082"><ele>270.0</ele><time>2026-04-12T06:09:05.925Z</time></trkpt><trkpt lat="43.598261" lon="6.8567873"><ele>270.0</ele><time>2026-04-12T06:09:06.914Z</time></trkpt><trkpt lat="43.5981612" lon="6.8568451"><ele>270.0</ele><time>2026-04-12T06:09:07.918Z</time></trkpt><trkpt lat="43.5980452" lon="6.8568573"><ele>268.25</ele><time>2026-04-12T06:09:08.903Z</time></trkpt><trkpt lat="43.5979323" lon="6.8568503"><ele>266.5</ele><time>2026-04-12T06:09:09.898Z</time></trkpt><trkpt lat="43.5978095" lon="6.8568259"><ele>264.75</ele><time>2026-04-12T06:09:10.908Z</time></trkpt><trkpt lat="43.597689" lon="6.8567888"><ele>263.0</ele><time>2026-04-12T06:09:11.921Z</time></trkpt><trkpt lat="43.5975667" lon="6.8567435"><ele>263.0</ele><time>2026-04-12T06:09:12.912Z</time></trkpt><trkpt lat="43.5974378" lon="6.8567006"><ele>263.0</ele><time>2026-04-12T06:09:13.915Z</time></trkpt><trkpt lat="43.597306" lon="6.8566553"><ele>263.0</ele><time>2026-04-12T06:09:14.916Z</time></trkpt><trkpt lat="43.5971727" lon="6.856627"><ele>263.0</ele><time>2026-04-12T06:09:15.929Z</time></trkpt><trkpt lat="43.5970383" lon="6.8566488"><ele>259.75</ele><time>2026-04-12T06:09:16.926Z</time></trkpt><trkpt lat="43.5969109" lon="6.8567181"><ele>256.5</ele><time>2026-04-12T06:09:17.912Z</time></trkpt><trkpt lat="43.5967866" lon="6.8568031"><ele>253.25</ele><time>2026-04-12T06:09:18.891Z</time></trkpt><trkpt lat="43.5966628" lon="6.8568924"><ele>250.0</ele><time>2026-04-12T06:09:19.899Z</time></trkpt><trkpt lat="43.5965381" lon="6.8569723"><ele>252.0</ele><time>2026-04-12T06:09:20.92Z</time></trkpt><trkpt lat="43.5964094" lon="6.8570514"><ele>254.0</ele><time>2026-04-12T06:09:21.92Z</time></trkpt><trkpt lat="43.5962737" lon="6.8571258"><ele>256.0</ele><time>2026-04-12T06:09:22.91Z</time></trkpt><trkpt lat="43.5961399" lon="6.8571993"><ele>258.0</ele><time>2026-04-12T06:09:23.882Z</time></trkpt><trkpt lat="43.5960117" lon="6.857286"><ele>258.0</ele><time>2026-04-12T06:09:24.917Z</time></trkpt><trkpt lat="43.5958855" lon="6.8573538"><ele>258.0</ele><time>2026-04-12T06:09:25.924Z</time></trkpt><trkpt lat="43.595753" lon="6.8573448"><ele>258.0</ele><time>2026-04-12T06:09:26.911Z</time></trkpt><trkpt lat="43.595626" lon="6.8573155"><ele>258.0</ele><time>2026-04-12T06:09:27.913Z</time></trkpt><trkpt lat="43.5954943" lon="6.8573163"><ele>258.0</ele><time>2026-04-12T06:09:28.919Z</time></trkpt><trkpt lat="43.595367" lon="6.8574029"><ele>258.0</ele><time>2026-04-12T06:09:29.881Z</time></trkpt><trkpt lat="43.5952527" lon="6.8575015"><ele>258.0</ele><time>2026-04-12T06:09:30.922Z</time></trkpt><trkpt lat="43.5951413" lon="6.8575985"><ele>258.0</ele><time>2026-04-12T06:09:31.912Z</time></trkpt><trkpt lat="43.5950334" lon="6.8576999"><ele>260.0</ele><time>2026-04-12T06:09:32.924Z</time></trkpt><trkpt lat="43.5949359" lon="6.8577995"><ele>262.0</ele><time>2026-04-12T06:09:33.93Z</time></trkpt><trkpt lat="43.5948272" lon="6.8578737"><ele>264.0</ele><time>2026-04-12T06:09:34.916Z</time></trkpt><trkpt lat="43.5947234" lon="6.8579029"><ele>266.0</ele><time>2026-04-12T06:09:35.893Z</time></trkpt><trkpt lat="43.594623" lon="6.8578892"><ele>268.0</ele><time>2026-04-12T06:09:36.911Z</time></trkpt><trkpt lat="43.594527" lon="6.8578773"><ele>268.4</ele><time>2026-04-12T06:09:37.859Z</time></trkpt><trkpt lat="43.5944485" lon="6.8578776"><ele>268.8</ele><time>2026-04-12T06:09:38.916Z</time></trkpt><trkpt lat="43.5943706" lon="6.8578454"><ele>269.2</ele><time>2026-04-12T06:09:39.914Z</time></trkpt><trkpt lat="43.5942985" lon="6.857698"><ele>269.6</ele><time>2026-04-12T06:09:41.913Z</time></trkpt><trkpt lat="43.5942681" lon="6.8575754"><ele>270.0</ele><time>2026-04-12T06:09:42.91Z</time></trkpt><trkpt lat="43.594226" lon="6.8574424"><ele>263.75</ele><time>2026-04-12T06:09:43.903Z</time></trkpt><trkpt lat="43.5941748" lon="6.8573135"><ele>257.5</ele><time>2026-04-12T06:09:44.918Z</time></trkpt><trkpt lat="43.5941219" lon="6.8571745"><ele>251.25</ele><time>2026-04-12T06:09:45.886Z</time></trkpt><trkpt lat="43.5940719" lon="6.8570212"><ele>245.0</ele><time>2026-04-12T06:09:46.909Z</time></trkpt><trkpt lat="43.5940184" lon="6.8568596"><ele>244.0</ele><time>2026-04-12T06:09:47.901Z</time></trkpt><trkpt lat="43.5939485" lon="6.8567028"><ele>243.0</ele><time>2026-04-12T06:09:48.924Z</time></trkpt><trkpt lat="43.5938527" lon="6.8565794"><ele>242.0</ele><time>2026-04-12T06:09:49.919Z</time></trkpt><trkpt lat="43.5937338" lon="6.8564982"><ele>241.0</ele><time>2026-04-12T06:09:50.895Z</time></trkpt><trkpt lat="43.5936078" lon="6.8564633"><ele>241.0</ele><time>2026-04-12T06:09:51.92Z</time></trkpt><trkpt lat="43.5934695" lon="6.8564359"><ele>241.00000000000003</ele><time>2026-04-12T06:09:52.899Z</time></trkpt><trkpt lat="43.5933506" lon="6.8564115"><ele>241.00000000000003</ele><time>2026-04-12T06:09:53.926Z</time></trkpt><trkpt lat="43.5932794" lon="6.856338"><ele>241.0</ele><time>2026-04-12T06:09:54.887Z</time></trkpt><trkpt lat="43.5932306" lon="6.8562682"><ele>241.0</ele><time>2026-04-12T06:09:55.911Z</time></trkpt><trkpt lat="43.5932597" lon="6.8561308"><ele>240.99999999999997</ele><time>2026-04-12T06:09:57.899Z</time></trkpt><trkpt lat="43.5933529" lon="6.8561789"><ele>241.0</ele><time>2026-04-12T06:09:59.913Z</time></trkpt><trkpt lat="43.5934095" lon="6.8562404"><ele>241.0</ele><time>2026-04-12T06:10:00.925Z</time></trkpt><trkpt lat="43.5934788" lon="6.8562799"><ele>241.0</ele><time>2026-04-12T06:10:01.919Z</time></trkpt><trkpt lat="43.5935526" lon="6.8562921"><ele>240.99999999999997</ele><time>2026-04-12T06:10:02.913Z</time></trkpt><trkpt lat="43.5936391" lon="6.8562946"><ele>241.0</ele><time>2026-04-12T06:10:03.902Z</time></trkpt><trkpt lat="43.5937296" lon="6.8562993"><ele>236.8</ele><time>2026-04-12T06:10:04.934Z</time></trkpt><trkpt lat="43.5938269" lon="6.8563163"><ele>232.60000000000002</ele><time>2026-04-12T06:10:05.918Z</time></trkpt><trkpt lat="43.5939239" lon="6.8563657"><ele>228.4</ele><time>2026-04-12T06:10:06.899Z</time></trkpt><trkpt lat="43.5940088" lon="6.8564487"><ele>224.2</ele><time>2026-04-12T06:10:07.892Z</time></trkpt><trkpt lat="43.5940877" lon="6.8565612"><ele>220.0</ele><time>2026-04-12T06:10:08.894Z</time></trkpt><trkpt lat="43.594159" lon="6.8566872"><ele>226.25</ele><time>2026-04-12T06:10:09.934Z</time></trkpt><trkpt lat="43.5942215" lon="6.8568201"><ele>232.5</ele><time>2026-04-12T06:10:10.887Z</time></trkpt><trkpt lat="43.5942684" lon="6.8569607"><ele>238.75</ele><time>2026-04-12T06:10:11.905Z</time></trkpt><trkpt lat="43.5943128" lon="6.8571117"><ele>245.0</ele><time>2026-04-12T06:10:12.912Z</time></trkpt><trkpt lat="43.5943695" lon="6.8572436"><ele>245.0</ele><time>2026-04-12T06:10:13.907Z</time></trkpt><trkpt lat="43.5944711" lon="6.8572931"><ele>245.0</ele><time>2026-04-12T06:10:14.918Z</time></trkpt><trkpt lat="43.5945925" lon="6.8572987"><ele>245.0</ele><time>2026-04-12T06:10:15.929Z</time></trkpt><trkpt lat="43.5947047" lon="6.857217"><ele>245.0</ele><time>2026-04-12T06:10:16.897Z</time></trkpt><trkpt lat="43.5948015" lon="6.8571009"><ele>243.5</ele><time>2026-04-12T06:10:17.935Z</time></trkpt><trkpt lat="43.5948908" lon="6.8569763"><ele>242.0</ele><time>2026-04-12T06:10:18.897Z</time></trkpt><trkpt lat="43.5949967" lon="6.8568601"><ele>240.5</ele><time>2026-04-12T06:10:19.905Z</time></trkpt><trkpt lat="43.5950887" lon="6.8567386"><ele>239.0</ele><time>2026-04-12T06:10:20.919Z</time></trkpt><trkpt lat="43.5951806" lon="6.8566141"><ele>235.75</ele><time>2026-04-12T06:10:21.921Z</time></trkpt><trkpt lat="43.5952945" lon="6.8565128"><ele>232.5</ele><time>2026-04-12T06:10:22.902Z</time></trkpt><trkpt lat="43.5954316" lon="6.8564429"><ele>229.25</ele><time>2026-04-12T06:10:23.923Z</time></trkpt><trkpt lat="43.5955776" lon="6.8563906"><ele>226.0</ele><time>2026-04-12T06:10:24.861Z</time></trkpt><trkpt lat="43.5957149" lon="6.8563269"><ele>226.0</ele><time>2026-04-12T06:10:25.916Z</time></trkpt><trkpt lat="43.5958524" lon="6.8562546"><ele>226.0</ele><time>2026-04-12T06:10:26.872Z</time></trkpt><trkpt lat="43.5959866" lon="6.8561545"><ele>226.0</ele><time>2026-04-12T06:10:27.914Z</time></trkpt><trkpt lat="43.5961055" lon="6.8560396"><ele>226.0</ele><time>2026-04-12T06:10:28.925Z</time></trkpt><trkpt lat="43.596224" lon="6.8558987"><ele>224.0</ele><time>2026-04-12T06:10:29.908Z</time></trkpt><trkpt lat="43.5963273" lon="6.855749"><ele>222.0</ele><time>2026-04-12T06:10:30.888Z</time></trkpt><trkpt lat="43.5964243" lon="6.8555935"><ele>220.0</ele><time>2026-04-12T06:10:31.927Z</time></trkpt><trkpt lat="43.5965192" lon="6.855447"><ele>218.0</ele><time>2026-04-12T06:10:32.918Z</time></trkpt><trkpt lat="43.5966308" lon="6.8553424"><ele>218.0</ele><time>2026-04-12T06:10:33.921Z</time></trkpt><trkpt lat="43.596759" lon="6.8552734"><ele>218.0</ele><time>2026-04-12T06:10:34.906Z</time></trkpt><trkpt lat="43.5968799" lon="6.8552395"><ele>218.0</ele><time>2026-04-12T06:10:35.917Z</time></trkpt><trkpt lat="43.5969852" lon="6.8551886"><ele>218.0</ele><time>2026-04-12T06:10:36.918Z</time></trkpt><trkpt lat="43.5970549" lon="6.8550828"><ele>219.5</ele><time>2026-04-12T06:10:37.904Z</time></trkpt><trkpt lat="43.597098" lon="6.8549407"><ele>221.0</ele><time>2026-04-12T06:10:38.888Z</time></trkpt><trkpt lat="43.5971104" lon="6.8547782"><ele>222.5</ele><time>2026-04-12T06:10:39.901Z</time></trkpt><trkpt lat="43.597113" lon="6.8546136"><ele>224.0</ele><time>2026-04-12T06:10:40.904Z</time></trkpt><trkpt lat="43.5971182" lon="6.8544394"><ele>222.25</ele><time>2026-04-12T06:10:41.858Z</time></trkpt><trkpt lat="43.5971204" lon="6.8542672"><ele>220.5</ele><time>2026-04-12T06:10:42.917Z</time></trkpt><trkpt lat="43.5971192" lon="6.8540875"><ele>218.75</ele><time>2026-04-12T06:10:43.907Z</time></trkpt><trkpt lat="43.597113" lon="6.8539013"><ele>217.0</ele><time>2026-04-12T06:10:44.91Z</time></trkpt><trkpt lat="43.5971052" lon="6.8537163"><ele>217.0</ele><time>2026-04-12T06:10:45.916Z</time></trkpt><trkpt lat="43.5971151" lon="6.8535331"><ele>217.0</ele><time>2026-04-12T06:10:46.906Z</time></trkpt><trkpt lat="43.5971599" lon="6.8533594"><ele>217.0</ele><time>2026-04-12T06:10:47.914Z</time></trkpt><trkpt lat="43.5972377" lon="6.8532076"><ele>217.0</ele><time>2026-04-12T06:10:48.919Z</time></trkpt><trkpt lat="43.5973464" lon="6.8530964"><ele>212.0</ele><time>2026-04-12T06:10:49.913Z</time></trkpt><trkpt lat="43.5974766" lon="6.8530192"><ele>207.0</ele><time>2026-04-12T06:10:50.913Z</time></trkpt><trkpt lat="43.5976017" lon="6.85295"><ele>202.0</ele><time>2026-04-12T06:10:51.899Z</time></trkpt><trkpt lat="43.5977179" lon="6.8528797"><ele>197.0</ele><time>2026-04-12T06:10:52.914Z</time></trkpt><trkpt lat="43.5978015" lon="6.8527444"><ele>197.75</ele><time>2026-04-12T06:10:53.902Z</time></trkpt><trkpt lat="43.5978579" lon="6.8525543"><ele>198.5</ele><time>2026-04-12T06:10:54.942Z</time></trkpt><trkpt lat="43.597931" lon="6.8523853"><ele>199.25</ele><time>2026-04-12T06:10:55.884Z</time></trkpt><trkpt lat="43.5980273" lon="6.8522475"><ele>200.0</ele><time>2026-04-12T06:10:56.917Z</time></trkpt><trkpt lat="43.5981443" lon="6.8521445"><ele>200.0</ele><time>2026-04-12T06:10:57.914Z</time></trkpt><trkpt lat="43.5982405" lon="6.8520547"><ele>200.0</ele><time>2026-04-12T06:10:58.901Z</time></trkpt><trkpt lat="43.5983061" lon="6.8519361"><ele>200.0</ele><time>2026-04-12T06:10:59.892Z</time></trkpt><trkpt lat="43.598308" lon="6.8517884"><ele>200.0</ele><time>2026-04-12T06:11:00.9Z</time></trkpt><trkpt lat="43.598266" lon="6.851652"><ele>200.0</ele><time>2026-04-12T06:11:01.908Z</time></trkpt><trkpt lat="43.5981898" lon="6.8515321"><ele>197.25</ele><time>2026-04-12T06:11:02.91Z</time></trkpt><trkpt lat="43.5981105" lon="6.8514236"><ele>194.5</ele><time>2026-04-12T06:11:03.897Z</time></trkpt><trkpt lat="43.5980309" lon="6.8513122"><ele>191.75</ele><time>2026-04-12T06:11:04.898Z</time></trkpt><trkpt lat="43.5979537" lon="6.8511759"><ele>189.0</ele><time>2026-04-12T06:11:05.911Z</time></trkpt><trkpt lat="43.5978658" lon="6.8510579"><ele>182.5</ele><time>2026-04-12T06:11:06.928Z</time></trkpt><trkpt lat="43.5977689" lon="6.8509425"><ele>176.0</ele><time>2026-04-12T06:11:07.89Z</time></trkpt><trkpt lat="43.5976697" lon="6.8508231"><ele>169.5</ele><time>2026-04-12T06:11:08.927Z</time></trkpt><trkpt lat="43.5975739" lon="6.8507087"><ele>163.0</ele><time>2026-04-12T06:11:09.913Z</time></trkpt><trkpt lat="43.5974747" lon="6.8505839"><ele>163.0</ele><time>2026-04-12T06:11:10.918Z</time></trkpt><trkpt lat="43.5974068" lon="6.850426"><ele>163.0</ele><time>2026-04-12T06:11:11.923Z</time></trkpt><trkpt lat="43.5973806" lon="6.8502446"><ele>163.0</ele><time>2026-04-12T06:11:12.924Z</time></trkpt><trkpt lat="43.5973747" lon="6.8500595"><ele>163.0</ele><time>2026-04-12T06:11:13.917Z</time></trkpt><trkpt lat="43.5973916" lon="6.8498686"><ele>164.25</ele><time>2026-04-12T06:11:14.895Z</time></trkpt><trkpt lat="43.5974331" lon="6.8496759"><ele>165.5</ele><time>2026-04-12T06:11:15.894Z</time></trkpt><trkpt lat="43.5974939" lon="6.8494889"><ele>166.75</ele><time>2026-04-12T06:11:16.928Z</time></trkpt><trkpt lat="43.597572" lon="6.8493171"><ele>168.0</ele><time>2026-04-12T06:11:17.901Z</time></trkpt><trkpt lat="43.5976686" lon="6.8491601"><ele>169.33333333333334</ele><time>2026-04-12T06:11:18.878Z</time></trkpt><trkpt lat="43.5977762" lon="6.8490233"><ele>170.66666666666669</ele><time>2026-04-12T06:11:19.921Z</time></trkpt><trkpt lat="43.5979132" lon="6.8489206"><ele>172.0</ele><time>2026-04-12T06:11:20.917Z</time></trkpt><trkpt lat="43.5980585" lon="6.8488582"><ele>172.0</ele><time>2026-04-12T06:11:21.907Z</time></trkpt><trkpt lat="43.5981901" lon="6.848804"><ele>172.0</ele><time>2026-04-12T06:11:22.916Z</time></trkpt><trkpt lat="43.5983054" lon="6.8487194"><ele>172.0</ele><time>2026-04-12T06:11:23.91Z</time></trkpt><trkpt lat="43.5983814" lon="6.8485678"><ele>172.0</ele><time>2026-04-12T06:11:24.906Z</time></trkpt><trkpt lat="43.5984287" lon="6.8483917"><ele>167.0</ele><time>2026-04-12T06:11:25.913Z</time></trkpt><trkpt lat="43.5984478" lon="6.8482082"><ele>162.0</ele><time>2026-04-12T06:11:26.918Z</time></trkpt><trkpt lat="43.5984637" lon="6.8480244"><ele>157.0</ele><time>2026-04-12T06:11:27.915Z</time></trkpt><trkpt lat="43.5984742" lon="6.8478226"><ele>152.0</ele><time>2026-04-12T06:11:28.906Z</time></trkpt><trkpt lat="43.5984843" lon="6.8476209"><ele>149.75</ele><time>2026-04-12T06:11:29.919Z</time></trkpt><trkpt lat="43.5985054" lon="6.8474168"><ele>147.5</ele><time>2026-04-12T06:11:30.905Z</time></trkpt><trkpt lat="43.5985125" lon="6.8472143"><ele>145.25</ele><time>2026-04-12T06:11:31.873Z</time></trkpt><trkpt lat="43.5985048" lon="6.847014"><ele>143.0</ele><time>2026-04-12T06:11:32.917Z</time></trkpt><trkpt lat="43.5985083" lon="6.8468304"><ele>142.0</ele><time>2026-04-12T06:11:33.909Z</time></trkpt><trkpt lat="43.5985538" lon="6.8466652"><ele>141.0</ele><time>2026-04-12T06:11:34.899Z</time></trkpt><trkpt lat="43.5986388" lon="6.8465316"><ele>140.0</ele><time>2026-04-12T06:11:35.914Z</time></trkpt><trkpt lat="43.5987513" lon="6.8464528"><ele>139.0</ele><time>2026-04-12T06:11:36.937Z</time></trkpt><trkpt lat="43.598884" lon="6.8464304"><ele>139.0</ele><time>2026-04-12T06:11:37.913Z</time></trkpt><trkpt lat="43.5990051" lon="6.8464681"><ele>139.0</ele><time>2026-04-12T06:11:38.912Z</time></trkpt><trkpt lat="43.5991133" lon="6.8465722"><ele>139.0</ele><time>2026-04-12T06:11:39.918Z</time></trkpt><trkpt lat="43.5991725" lon="6.8467045"><ele>139.0</ele><time>2026-04-12T06:11:40.919Z</time></trkpt><trkpt lat="43.5991957" lon="6.8468715"><ele>142.4</ele><time>2026-04-12T06:11:41.915Z</time></trkpt><trkpt lat="43.5992455" lon="6.8470148"><ele>145.8</ele><time>2026-04-12T06:11:42.91Z</time></trkpt><trkpt lat="43.5993317" lon="6.8471155"><ele>149.2</ele><time>2026-04-12T06:11:43.915Z</time></trkpt><trkpt lat="43.5994341" lon="6.8471429"><ele>152.6</ele><time>2026-04-12T06:11:44.913Z</time></trkpt><trkpt lat="43.5995268" lon="6.8470946"><ele>156.0</ele><time>2026-04-12T06:11:45.906Z</time></trkpt><trkpt lat="43.5996198" lon="6.8470065"><ele>158.5</ele><time>2026-04-12T06:11:46.895Z</time></trkpt><trkpt lat="43.5997203" lon="6.8469092"><ele>161.0</ele><time>2026-04-12T06:11:47.885Z</time></trkpt><trkpt lat="43.5998215" lon="6.8468221"><ele>163.5</ele><time>2026-04-12T06:11:48.93Z</time></trkpt><trkpt lat="43.5999243" lon="6.8467284"><ele>166.0</ele><time>2026-04-12T06:11:49.925Z</time></trkpt><trkpt lat="43.6000342" lon="6.8466307"><ele>159.25</ele><time>2026-04-12T06:11:50.899Z</time></trkpt><trkpt lat="43.6001563" lon="6.8465398"><ele>152.5</ele><time>2026-04-12T06:11:51.914Z</time></trkpt><trkpt lat="43.6002968" lon="6.8464798"><ele>145.75</ele><time>2026-04-12T06:11:52.895Z</time></trkpt><trkpt lat="43.6004393" lon="6.8464471"><ele>139.0</ele><time>2026-04-12T06:11:53.904Z</time></trkpt><trkpt lat="43.6005864" lon="6.8464407"><ele>139.0</ele><time>2026-04-12T06:11:54.893Z</time></trkpt><trkpt lat="43.6007307" lon="6.846426"><ele>139.0</ele><time>2026-04-12T06:11:55.881Z</time></trkpt><trkpt lat="43.600876" lon="6.8463936"><ele>139.0</ele><time>2026-04-12T06:11:56.904Z</time></trkpt><trkpt lat="43.6010166" lon="6.8463297"><ele>139.0</ele><time>2026-04-12T06:11:57.86Z</time></trkpt><trkpt lat="43.6011526" lon="6.846257"><ele>139.0</ele><time>2026-04-12T06:11:58.906Z</time></trkpt><trkpt lat="43.6012881" lon="6.846169"><ele>139.0</ele><time>2026-04-12T06:11:59.915Z</time></trkpt><trkpt lat="43.6014255" lon="6.846071"><ele>139.0</ele><time>2026-04-12T06:12:00.914Z</time></trkpt><trkpt lat="43.6015605" lon="6.8459595"><ele>133.33333333333334</ele><time>2026-04-12T06:12:01.91Z</time></trkpt><trkpt lat="43.6016781" lon="6.8458332"><ele>127.66666666666666</ele><time>2026-04-12T06:12:02.907Z</time></trkpt><trkpt lat="43.6017667" lon="6.8456643"><ele>122.0</ele><time>2026-04-12T06:12:03.925Z</time></trkpt><trkpt lat="43.6018353" lon="6.8454755"><ele>122.0</ele><time>2026-04-12T06:12:04.885Z</time></trkpt><trkpt lat="43.6018846" lon="6.8452815"><ele>122.0</ele><time>2026-04-12T06:12:05.917Z</time></trkpt><trkpt lat="43.6019158" lon="6.8450798"><ele>122.0</ele><time>2026-04-12T06:12:06.909Z</time></trkpt><trkpt lat="43.6019319" lon="6.8448822"><ele>122.0</ele><time>2026-04-12T06:12:07.917Z</time></trkpt><trkpt lat="43.6019314" lon="6.8446732"><ele>117.5</ele><time>2026-04-12T06:12:08.917Z</time></trkpt><trkpt lat="43.6019172" lon="6.8444684"><ele>113.0</ele><time>2026-04-12T06:12:09.907Z</time></trkpt><trkpt lat="43.6018993" lon="6.8442583"><ele>108.5</ele><time>2026-04-12T06:12:10.92Z</time></trkpt><trkpt lat="43.6018881" lon="6.8440556"><ele>104.0</ele><time>2026-04-12T06:12:11.912Z</time></trkpt><trkpt lat="43.6018765" lon="6.8438477"><ele>103.75</ele><time>2026-04-12T06:12:12.902Z</time></trkpt><trkpt lat="43.6018587" lon="6.8436433"><ele>103.5</ele><time>2026-04-12T06:12:13.921Z</time></trkpt><trkpt lat="43.6018368" lon="6.8434418"><ele>103.25</ele><time>2026-04-12T06:12:14.885Z</time></trkpt><trkpt lat="43.6018071" lon="6.8432423"><ele>103.0</ele><time>2026-04-12T06:12:15.929Z</time></trkpt><trkpt lat="43.6017636" lon="6.8430636"><ele>102.80000000000001</ele><time>2026-04-12T06:12:16.913Z</time></trkpt><trkpt lat="43.6017382" lon="6.8429106"><ele>102.6</ele><time>2026-04-12T06:12:17.916Z</time></trkpt><trkpt lat="43.6017561" lon="6.8427607"><ele>102.4</ele><time>2026-04-12T06:12:18.885Z</time></trkpt><trkpt lat="43.6018137" lon="6.8426468"><ele>102.19999999999999</ele><time>2026-04-12T06:12:19.924Z</time></trkpt><trkpt lat="43.6019112" lon="6.8425577"><ele>102.0</ele><time>2026-04-12T06:12:20.934Z</time></trkpt><trkpt lat="43.6020197" lon="6.8425113"><ele>102.5</ele><time>2026-04-12T06:12:21.92Z</time></trkpt><trkpt lat="43.6021325" lon="6.8424855"><ele>103.0</ele><time>2026-04-12T06:12:22.893Z</time></trkpt><trkpt lat="43.6022505" lon="6.8424543"><ele>103.5</ele><time>2026-04-12T06:12:23.908Z</time></trkpt><trkpt lat="43.6023712" lon="6.8424056"><ele>104.0</ele><time>2026-04-12T06:12:24.916Z</time></trkpt><trkpt lat="43.6024976" lon="6.842374"><ele>104.0</ele><time>2026-04-12T06:12:25.92Z</time></trkpt><trkpt lat="43.602625" lon="6.8423444"><ele>104.0</ele><time>2026-04-12T06:12:26.891Z</time></trkpt><trkpt lat="43.6027577" lon="6.8423381"><ele>104.0</ele><time>2026-04-12T06:12:27.886Z</time></trkpt><trkpt lat="43.6028949" lon="6.8423285"><ele>104.0</ele><time>2026-04-12T06:12:28.926Z</time></trkpt><trkpt lat="43.6030335" lon="6.8423243"><ele>103.25</ele><time>2026-04-12T06:12:29.901Z</time></trkpt><trkpt lat="43.6031724" lon="6.8423217"><ele>102.5</ele><time>2026-04-12T06:12:30.915Z</time></trkpt><trkpt lat="43.6033109" lon="6.842317"><ele>101.75</ele><time>2026-04-12T06:12:31.905Z</time></trkpt><trkpt lat="43.6034604" lon="6.8423221"><ele>101.0</ele><time>2026-04-12T06:12:32.921Z</time></trkpt><trkpt lat="43.6036062" lon="6.8423342"><ele>98.0</ele><time>2026-04-12T06:12:33.881Z</time></trkpt><trkpt lat="43.6037524" lon="6.8423448"><ele>95.0</ele><time>2026-04-12T06:12:34.884Z</time></trkpt><trkpt lat="43.6039026" lon="6.8423683"><ele>92.0</ele><time>2026-04-12T06:12:35.896Z</time></trkpt><trkpt lat="43.6040534" lon="6.8423917"><ele>89.0</ele><time>2026-04-12T06:12:36.911Z</time></trkpt><trkpt lat="43.604201" lon="6.8424258"><ele>89.0</ele><time>2026-04-12T06:12:37.919Z</time></trkpt><trkpt lat="43.6043438" lon="6.8424645"><ele>89.0</ele><time>2026-04-12T06:12:38.873Z</time></trkpt><trkpt lat="43.6044675" lon="6.8425397"><ele>89.0</ele><time>2026-04-12T06:12:39.9Z</time></trkpt><trkpt lat="43.604556" lon="6.8426592"><ele>89.0</ele><time>2026-04-12T06:12:40.892Z</time></trkpt><trkpt lat="43.6045976" lon="6.8428064"><ele>88.0</ele><time>2026-04-12T06:12:41.93Z</time></trkpt><trkpt lat="43.6046027" lon="6.8429713"><ele>87.0</ele><time>2026-04-12T06:12:42.861Z</time></trkpt><trkpt lat="43.6045956" lon="6.8431531"><ele>86.0</ele><time>2026-04-12T06:12:43.883Z</time></trkpt><trkpt lat="43.6046232" lon="6.8433367"><ele>85.0</ele><time>2026-04-12T06:12:44.898Z</time></trkpt><trkpt lat="43.6046959" lon="6.8435243"><ele>85.0</ele><time>2026-04-12T06:12:45.87Z</time></trkpt><trkpt lat="43.604798" lon="6.8436555"><ele>85.0</ele><time>2026-04-12T06:12:46.854Z</time></trkpt><trkpt lat="43.6049028" lon="6.8438006"><ele>85.0</ele><time>2026-04-12T06:12:47.853Z</time></trkpt><trkpt lat="43.6049672" lon="6.8439345"><ele>85.0</ele><time>2026-04-12T06:12:48.876Z</time></trkpt><trkpt lat="43.6050043" lon="6.8440799"><ele>85.0</ele><time>2026-04-12T06:12:49.904Z</time></trkpt><trkpt lat="43.6050594" lon="6.8442363"><ele>85.0</ele><time>2026-04-12T06:12:50.907Z</time></trkpt><trkpt lat="43.6051169" lon="6.844358"><ele>85.0</ele><time>2026-04-12T06:12:51.902Z</time></trkpt><trkpt lat="43.6051923" lon="6.8444566"><ele>85.0</ele><time>2026-04-12T06:12:52.903Z</time></trkpt><trkpt lat="43.6052682" lon="6.8445015"><ele>85.0</ele><time>2026-04-12T06:12:53.907Z</time></trkpt><trkpt lat="43.6053705" lon="6.8445152"><ele>85.0</ele><time>2026-04-12T06:12:54.883Z</time></trkpt><trkpt lat="43.605454" lon="6.844474"><ele>85.0</ele><time>2026-04-12T06:12:55.925Z</time></trkpt><trkpt lat="43.6055313" lon="6.8444173"><ele>85.0</ele><time>2026-04-12T06:12:56.895Z</time></trkpt><trkpt lat="43.6056136" lon="6.8443617"><ele>85.0</ele><time>2026-04-12T06:12:57.876Z</time></trkpt><trkpt lat="43.6056957" lon="6.8442996"><ele>85.0</ele><time>2026-04-12T06:12:58.922Z</time></trkpt><trkpt lat="43.6057906" lon="6.8442785"><ele>84.6</ele><time>2026-04-12T06:12:59.916Z</time></trkpt><trkpt lat="43.6058896" lon="6.8443082"><ele>84.2</ele><time>2026-04-12T06:13:00.913Z</time></trkpt><trkpt lat="43.6059774" lon="6.8443673"><ele>83.80000000000001</ele><time>2026-04-12T06:13:01.914Z</time></trkpt><trkpt lat="43.6060665" lon="6.8444652"><ele>83.4</ele><time>2026-04-12T06:13:02.904Z</time></trkpt><trkpt lat="43.6061578" lon="6.8445644"><ele>83.0</ele><time>2026-04-12T06:13:03.897Z</time></trkpt><trkpt lat="43.606258" lon="6.8446594"><ele>82.75</ele><time>2026-04-12T06:13:04.907Z</time></trkpt><trkpt lat="43.6063637" lon="6.8447445"><ele>82.5</ele><time>2026-04-12T06:13:05.913Z</time></trkpt><trkpt lat="43.6064675" lon="6.8448312"><ele>82.25</ele><time>2026-04-12T06:13:06.923Z</time></trkpt><trkpt lat="43.6065679" lon="6.8449257"><ele>82.0</ele><time>2026-04-12T06:13:07.892Z</time></trkpt><trkpt lat="43.6066683" lon="6.8450343"><ele>80.75</ele><time>2026-04-12T06:13:08.914Z</time></trkpt><trkpt lat="43.606766" lon="6.8451436"><ele>79.5</ele><time>2026-04-12T06:13:09.918Z</time></trkpt><trkpt lat="43.6068588" lon="6.8452586"><ele>78.25</ele><time>2026-04-12T06:13:10.899Z</time></trkpt><trkpt lat="43.6069567" lon="6.8453648"><ele>77.0</ele><time>2026-04-12T06:13:11.886Z</time></trkpt><trkpt lat="43.6070613" lon="6.845452"><ele>76.0</ele><time>2026-04-12T06:13:12.909Z</time></trkpt><trkpt lat="43.6071799" lon="6.8455149"><ele>75.0</ele><time>2026-04-12T06:13:13.9Z</time></trkpt><trkpt lat="43.6072993" lon="6.8455651"><ele>74.0</ele><time>2026-04-12T06:13:14.922Z</time></trkpt><trkpt lat="43.6074266" lon="6.8455731"><ele>73.0</ele><time>2026-04-12T06:13:15.931Z</time></trkpt><trkpt lat="43.6075472" lon="6.8455544"><ele>73.0</ele><time>2026-04-12T06:13:16.891Z</time></trkpt><trkpt lat="43.6076609" lon="6.8455409"><ele>73.0</ele><time>2026-04-12T06:13:17.893Z</time></trkpt><trkpt lat="43.6077796" lon="6.8455197"><ele>73.0</ele><time>2026-04-12T06:13:18.923Z</time></trkpt><trkpt lat="43.6078919" lon="6.8454958"><ele>73.0</ele><time>2026-04-12T06:13:19.907Z</time></trkpt><trkpt lat="43.6080095" lon="6.8454649"><ele>73.25</ele><time>2026-04-12T06:13:20.895Z</time></trkpt><trkpt lat="43.6081221" lon="6.8454323"><ele>73.5</ele><time>2026-04-12T06:13:21.908Z</time></trkpt><trkpt lat="43.6082386" lon="6.8453963"><ele>73.75</ele><time>2026-04-12T06:13:22.894Z</time></trkpt><trkpt lat="43.6083535" lon="6.8453455"><ele>74.0</ele><time>2026-04-12T06:13:23.917Z</time></trkpt><trkpt lat="43.6084677" lon="6.8453011"><ele>74.0</ele><time>2026-04-12T06:13:24.903Z</time></trkpt><trkpt lat="43.6085814" lon="6.8452549"><ele>74.0</ele><time>2026-04-12T06:13:25.884Z</time></trkpt><trkpt lat="43.6087003" lon="6.845207"><ele>74.0</ele><time>2026-04-12T06:13:26.926Z</time></trkpt><trkpt lat="43.6088151" lon="6.8451554"><ele>74.0</ele><time>2026-04-12T06:13:27.899Z</time></trkpt><trkpt lat="43.6089304" lon="6.845111"><ele>74.0</ele><time>2026-04-12T06:13:28.902Z</time></trkpt><trkpt lat="43.6090464" lon="6.8450464"><ele>74.0</ele><time>2026-04-12T06:13:29.939Z</time></trkpt><trkpt lat="43.6091615" lon="6.8449998"><ele>74.0</ele><time>2026-04-12T06:13:30.907Z</time></trkpt><trkpt lat="43.609279" lon="6.8449701"><ele>74.0</ele><time>2026-04-12T06:13:31.907Z</time></trkpt><trkpt lat="43.6093946" lon="6.8449345"><ele>74.0</ele><time>2026-04-12T06:13:32.897Z</time></trkpt><trkpt lat="43.6095066" lon="6.8448879"><ele>74.0</ele><time>2026-04-12T06:13:33.905Z</time></trkpt><trkpt lat="43.6096201" lon="6.84484"><ele>74.0</ele><time>2026-04-12T06:13:34.867Z</time></trkpt><trkpt lat="43.6097326" lon="6.8447992"><ele>74.0</ele><time>2026-04-12T06:13:35.92Z</time></trkpt><trkpt lat="43.6098407" lon="6.8447699"><ele>74.0</ele><time>2026-04-12T06:13:36.916Z</time></trkpt><trkpt lat="43.6099499" lon="6.8447516"><ele>74.0</ele><time>2026-04-12T06:13:37.926Z</time></trkpt><trkpt lat="43.6100571" lon="6.8447488"><ele>74.0</ele><time>2026-04-12T06:13:38.916Z</time></trkpt><trkpt lat="43.6101662" lon="6.8447755"><ele>74.0</ele><time>2026-04-12T06:13:39.927Z</time></trkpt><trkpt lat="43.6102745" lon="6.8448057"><ele>74.0</ele><time>2026-04-12T06:13:40.881Z</time></trkpt><trkpt lat="43.6103807" lon="6.8448469"><ele>73.8</ele><time>2026-04-12T06:13:41.905Z</time></trkpt><trkpt lat="43.6104823" lon="6.8448847"><ele>73.60000000000001</ele><time>2026-04-12T06:13:42.911Z</time></trkpt><trkpt lat="43.6105762" lon="6.8449359"><ele>73.4</ele><time>2026-04-12T06:13:43.921Z</time></trkpt><trkpt lat="43.610672" lon="6.8449706"><ele>73.2</ele><time>2026-04-12T06:13:44.916Z</time></trkpt><trkpt lat="43.6107691" lon="6.8449822"><ele>73.0</ele><time>2026-04-12T06:13:45.883Z</time></trkpt><trkpt lat="43.610853" lon="6.8449443"><ele>73.0</ele><time>2026-04-12T06:13:46.919Z</time></trkpt><trkpt lat="43.6109259" lon="6.8448696"><ele>73.0</ele><time>2026-04-12T06:13:47.916Z</time></trkpt><trkpt lat="43.6109909" lon="6.8447932"><ele>73.0</ele><time>2026-04-12T06:13:48.903Z</time></trkpt><trkpt lat="43.6110556" lon="6.8447281"><ele>73.0</ele><time>2026-04-12T06:13:49.904Z</time></trkpt><trkpt lat="43.6111239" lon="6.8446706"><ele>73.0</ele><time>2026-04-12T06:13:50.882Z</time></trkpt><trkpt lat="43.6111886" lon="6.8446193"><ele>73.0</ele><time>2026-04-12T06:13:51.903Z</time></trkpt><trkpt lat="43.6112562" lon="6.8445677"><ele>73.0</ele><time>2026-04-12T06:13:52.894Z</time></trkpt><trkpt lat="43.6113193" lon="6.8445294"><ele>73.0</ele><time>2026-04-12T06:13:53.911Z</time></trkpt><trkpt lat="43.6113807" lon="6.8444947"><ele>73.0</ele><time>2026-04-12T06:13:54.915Z</time></trkpt><trkpt lat="43.6114973" lon="6.8444391"><ele>73.0</ele><time>2026-04-12T06:13:56.921Z</time></trkpt><trkpt lat="43.6116096" lon="6.8443803"><ele>73.0</ele><time>2026-04-12T06:13:58.924Z</time></trkpt><trkpt lat="43.6116704" lon="6.844354"><ele>73.0</ele><time>2026-04-12T06:13:59.91Z</time></trkpt><trkpt lat="43.6117792" lon="6.8442917"><ele>74.2</ele><time>2026-04-12T06:14:01.903Z</time></trkpt><trkpt lat="43.6118845" lon="6.8442383"><ele>75.4</ele><time>2026-04-12T06:14:03.917Z</time></trkpt><trkpt lat="43.6119796" lon="6.844193"><ele>76.60000000000001</ele><time>2026-04-12T06:14:05.903Z</time></trkpt><trkpt lat="43.6120748" lon="6.8441413"><ele>77.8</ele><time>2026-04-12T06:14:07.91Z</time></trkpt><trkpt lat="43.6121636" lon="6.8440871"><ele>79.0</ele><time>2026-04-12T06:14:09.911Z</time></trkpt><trkpt lat="43.6122399" lon="6.8440304"><ele>79.0</ele><time>2026-04-12T06:14:11.936Z</time></trkpt><trkpt lat="43.6123282" lon="6.8439722"><ele>79.0</ele><time>2026-04-12T06:14:13.875Z</time></trkpt><trkpt lat="43.6124112" lon="6.843893"><ele>79.0</ele><time>2026-04-12T06:14:15.886Z</time></trkpt><trkpt lat="43.6124732" lon="6.843779"><ele>79.0</ele><time>2026-04-12T06:14:17.907Z</time></trkpt><trkpt lat="43.6124766" lon="6.8436618"><ele>79.0</ele><time>2026-04-12T06:14:19.906Z</time></trkpt><trkpt lat="43.6124572" lon="6.8435509"><ele>80.2</ele><time>2026-04-12T06:14:21.902Z</time></trkpt><trkpt lat="43.6124152" lon="6.8434461"><ele>81.4</ele><time>2026-04-12T06:14:23.87Z</time></trkpt><trkpt lat="43.6123608" lon="6.8433488"><ele>82.6</ele><time>2026-04-12T06:14:25.862Z</time></trkpt><trkpt lat="43.6122797" lon="6.843295"><ele>83.8</ele><time>2026-04-12T06:14:27.927Z</time></trkpt><trkpt lat="43.6121844" lon="6.8432639"><ele>85.0</ele><time>2026-04-12T06:14:29.891Z</time></trkpt><trkpt lat="43.6121004" lon="6.8432261"><ele>85.0</ele><time>2026-04-12T06:14:31.911Z</time></trkpt><trkpt lat="43.6120122" lon="6.8432114"><ele>85.0</ele><time>2026-04-12T06:14:33.881Z</time></trkpt><trkpt lat="43.6119351" lon="6.8431868"><ele>85.0</ele><time>2026-04-12T06:14:35.919Z</time></trkpt><trkpt lat="43.6118619" lon="6.8431398"><ele>85.0</ele><time>2026-04-12T06:14:37.908Z</time></trkpt><trkpt lat="43.6117782" lon="6.8430797"><ele>85.0</ele><time>2026-04-12T06:14:39.933Z</time></trkpt><trkpt lat="43.6117047" lon="6.8430004"><ele>85.0</ele><time>2026-04-12T06:14:41.926Z</time></trkpt><trkpt lat="43.6116456" lon="6.842911"><ele>88.0</ele><time>2026-04-12T06:14:43.942Z</time></trkpt><trkpt lat="43.6116092" lon="6.842818"><ele>91.0</ele><time>2026-04-12T06:14:45.879Z</time></trkpt><trkpt lat="43.611561" lon="6.8427046"><ele>94.0</ele><time>2026-04-12T06:14:47.903Z</time></trkpt><trkpt lat="43.6115201" lon="6.8425755"><ele>97.0</ele><time>2026-04-12T06:14:49.927Z</time></trkpt><trkpt lat="43.6114988" lon="6.8424159"><ele>100.0</ele><time>2026-04-12T06:14:51.924Z</time></trkpt><trkpt lat="43.6114991" lon="6.8422503"><ele>100.0</ele><time>2026-04-12T06:14:53.926Z</time></trkpt><trkpt lat="43.6115096" lon="6.8421004"><ele>100.0</ele><time>2026-04-12T06:14:55.909Z</time></trkpt><trkpt lat="43.6115059" lon="6.8419448"><ele>100.0</ele><time>2026-04-12T06:14:57.867Z</time></trkpt><trkpt lat="43.6115162" lon="6.8418023"><ele>100.0</ele><time>2026-04-12T06:14:59.917Z</time></trkpt><trkpt lat="43.6115188" lon="6.8416749"><ele>100.0</ele><time>2026-04-12T06:15:01.903Z</time></trkpt><trkpt lat="43.6115278" lon="6.8415225"><ele>100.0</ele><time>2026-04-12T06:15:03.913Z</time></trkpt><trkpt lat="43.611532" lon="6.8413726"><ele>100.0</ele><time>2026-04-12T06:15:05.913Z</time></trkpt><trkpt lat="43.6115251" lon="6.8412391"><ele>100.0</ele><time>2026-04-12T06:15:07.905Z</time></trkpt><trkpt lat="43.6115507" lon="6.8411083"><ele>100.0</ele><time>2026-04-12T06:15:09.912Z</time></trkpt><trkpt lat="43.6116069" lon="6.8409932"><ele>100.0</ele><time>2026-04-12T06:15:11.89Z</time></trkpt><trkpt lat="43.6116798" lon="6.8409104"><ele>102.0</ele><time>2026-04-12T06:15:13.928Z</time></trkpt><trkpt lat="43.611765" lon="6.8408285"><ele>104.0</ele><time>2026-04-12T06:15:15.92Z</time></trkpt><trkpt lat="43.611818" lon="6.8406997"><ele>106.0</ele><time>2026-04-12T06:15:17.909Z</time></trkpt><trkpt lat="43.6118524" lon="6.8405613"><ele>108.0</ele><time>2026-04-12T06:15:19.912Z</time></trkpt><trkpt lat="43.6118863" lon="6.8404347"><ele>110.0</ele><time>2026-04-12T06:15:21.875Z</time></trkpt><trkpt lat="43.6119288" lon="6.84031"><ele>108.2</ele><time>2026-04-12T06:15:23.924Z</time></trkpt><trkpt lat="43.6120052" lon="6.8402217"><ele>106.4</ele><time>2026-04-12T06:15:25.935Z</time></trkpt><trkpt lat="43.6120964" lon="6.8402227"><ele>104.6</ele><time>2026-04-12T06:15:27.893Z</time></trkpt><trkpt lat="43.6121917" lon="6.8402497"><ele>102.8</ele><time>2026-04-12T06:15:29.927Z</time></trkpt><trkpt lat="43.6122821" lon="6.840237"><ele>101.0</ele><time>2026-04-12T06:15:31.908Z</time></trkpt><trkpt lat="43.6123272" lon="6.8401217"><ele>101.0</ele><time>2026-04-12T06:15:33.899Z</time></trkpt><trkpt lat="43.612337" lon="6.8399949"><ele>101.0</ele><time>2026-04-12T06:15:35.911Z</time></trkpt><trkpt lat="43.6123597" lon="6.8398697"><ele>101.0</ele><time>2026-04-12T06:15:37.91Z</time></trkpt><trkpt lat="43.6123732" lon="6.8397442"><ele>101.0</ele><time>2026-04-12T06:15:39.928Z</time></trkpt><trkpt lat="43.6123884" lon="6.8396261"><ele>101.0</ele><time>2026-04-12T06:15:41.923Z</time></trkpt><trkpt lat="43.6124149" lon="6.8395137"><ele>101.0</ele><time>2026-04-12T06:15:43.863Z</time></trkpt><trkpt lat="43.6124571" lon="6.8394099"><ele>101.0</ele><time>2026-04-12T06:15:45.921Z</time></trkpt><trkpt lat="43.6124943" lon="6.8392877"><ele>101.0</ele><time>2026-04-12T06:15:47.891Z</time></trkpt><trkpt lat="43.6125062" lon="6.8391586"><ele>101.0</ele><time>2026-04-12T06:15:49.933Z</time></trkpt><trkpt lat="43.6124929" lon="6.8390225"><ele>101.0</ele><time>2026-04-12T06:15:51.902Z</time></trkpt><trkpt lat="43.6124701" lon="6.8388982"><ele>103.49999999999999</ele><time>2026-04-12T06:15:53.874Z</time></trkpt><trkpt lat="43.6124508" lon="6.8387725"><ele>106.0</ele><time>2026-04-12T06:15:55.943Z</time></trkpt><trkpt lat="43.6124251" lon="6.838663"><ele>108.5</ele><time>2026-04-12T06:15:57.883Z</time></trkpt><trkpt lat="43.6124212" lon="6.8385355"><ele>111.0</ele><time>2026-04-12T06:15:59.92Z</time></trkpt><trkpt lat="43.6124584" lon="6.8384464"><ele>113.49999999999999</ele><time>2026-04-12T06:16:01.894Z</time></trkpt><trkpt lat="43.6125298" lon="6.8384271"><ele>116.0</ele><time>2026-04-12T06:16:03.887Z</time></trkpt><trkpt lat="43.612625" lon="6.8384322"><ele>113.8</ele><time>2026-04-12T06:16:05.897Z</time></trkpt><trkpt lat="43.6127352" lon="6.8384428"><ele>111.6</ele><time>2026-04-12T06:16:07.927Z</time></trkpt><trkpt lat="43.6128421" lon="6.8384152"><ele>109.4</ele><time>2026-04-12T06:16:09.902Z</time></trkpt><trkpt lat="43.6129347" lon="6.8383465"><ele>107.2</ele><time>2026-04-12T06:16:11.919Z</time></trkpt><trkpt lat="43.6130197" lon="6.838251"><ele>105.0</ele><time>2026-04-12T06:16:13.929Z</time></trkpt><trkpt lat="43.613096" lon="6.8381574"><ele>105.0</ele><time>2026-04-12T06:16:15.923Z</time></trkpt><trkpt lat="43.6131665" lon="6.8380402"><ele>105.0</ele><time>2026-04-12T06:16:17.909Z</time></trkpt><trkpt lat="43.6132278" lon="6.8379262"><ele>105.0</ele><time>2026-04-12T06:16:19.924Z</time></trkpt><trkpt lat="43.6132855" lon="6.8378167"><ele>105.0</ele><time>2026-04-12T06:16:21.923Z</time></trkpt><trkpt lat="43.6133411" lon="6.8377089"><ele>105.0</ele><time>2026-04-12T06:16:23.911Z</time></trkpt><trkpt lat="43.6133886" lon="6.8375993"><ele>110.4</ele><time>2026-04-12T06:16:25.874Z</time></trkpt><trkpt lat="43.6134376" lon="6.8374891"><ele>115.8</ele><time>2026-04-12T06:16:27.924Z</time></trkpt><trkpt lat="43.6134902" lon="6.8373959"><ele>121.19999999999999</ele><time>2026-04-12T06:16:29.888Z</time></trkpt><trkpt lat="43.6135271" lon="6.8372826"><ele>126.6</ele><time>2026-04-12T06:16:31.924Z</time></trkpt><trkpt lat="43.6135648" lon="6.8371735"><ele>132.0</ele><time>2026-04-12T06:16:33.898Z</time></trkpt><trkpt lat="43.6136101" lon="6.8370612"><ele>129.0</ele><time>2026-04-12T06:16:35.929Z</time></trkpt><trkpt lat="43.6136701" lon="6.8369503"><ele>125.99999999999999</ele><time>2026-04-12T06:16:37.918Z</time></trkpt><trkpt lat="43.6137367" lon="6.8368453"><ele>122.99999999999999</ele><time>2026-04-12T06:16:39.935Z</time></trkpt><trkpt lat="43.6137951" lon="6.8367397"><ele>120.0</ele><time>2026-04-12T06:16:41.909Z</time></trkpt><trkpt lat="43.613853" lon="6.8366275"><ele>117.0</ele><time>2026-04-12T06:16:43.907Z</time></trkpt><trkpt lat="43.6139147" lon="6.8365154"><ele>117.0</ele><time>2026-04-12T06:16:45.904Z</time></trkpt><trkpt lat="43.613967" lon="6.8363947"><ele>116.99999999999999</ele><time>2026-04-12T06:16:47.902Z</time></trkpt><trkpt lat="43.6140238" lon="6.8362656"><ele>116.99999999999999</ele><time>2026-04-12T06:16:49.919Z</time></trkpt><trkpt lat="43.6140636" lon="6.8361344"><ele>117.0</ele><time>2026-04-12T06:16:51.897Z</time></trkpt><trkpt lat="43.6140845" lon="6.8359993"><ele>117.0</ele><time>2026-04-12T06:16:53.911Z</time></trkpt><trkpt lat="43.6140763" lon="6.8358711"><ele>118.39999999999999</ele><time>2026-04-12T06:16:55.923Z</time></trkpt><trkpt lat="43.6140424" lon="6.8357416"><ele>119.79999999999998</ele><time>2026-04-12T06:16:57.877Z</time></trkpt><trkpt lat="43.6139927" lon="6.8356098"><ele>121.2</ele><time>2026-04-12T06:16:59.925Z</time></trkpt><trkpt lat="43.6139571" lon="6.8354776"><ele>122.6</ele><time>2026-04-12T06:17:01.908Z</time></trkpt><trkpt lat="43.6139211" lon="6.8353484"><ele>124.0</ele><time>2026-04-12T06:17:03.918Z</time></trkpt><trkpt lat="43.6138809" lon="6.8352111"><ele>123.2</ele><time>2026-04-12T06:17:05.888Z</time></trkpt><trkpt lat="43.6138414" lon="6.8350738"><ele>122.4</ele><time>2026-04-12T06:17:07.928Z</time></trkpt><trkpt lat="43.6137954" lon="6.8349403"><ele>121.6</ele><time>2026-04-12T06:17:09.88Z</time></trkpt><trkpt lat="43.6137615" lon="6.8348043"><ele>120.8</ele><time>2026-04-12T06:17:11.901Z</time></trkpt><trkpt lat="43.613725" lon="6.834667"><ele>120.0</ele><time>2026-04-12T06:17:13.919Z</time></trkpt><trkpt lat="43.613683" lon="6.8345302"><ele>126.0</ele><time>2026-04-12T06:17:15.883Z</time></trkpt><trkpt lat="43.6136413" lon="6.8343967"><ele>132.0</ele><time>2026-04-12T06:17:17.912Z</time></trkpt><trkpt lat="43.6135995" lon="6.8342578"><ele>138.0</ele><time>2026-04-12T06:17:19.905Z</time></trkpt><trkpt lat="43.6135592" lon="6.8341148"><ele>144.0</ele><time>2026-04-12T06:17:21.905Z</time></trkpt><trkpt lat="43.613516" lon="6.8339786"><ele>150.0</ele><time>2026-04-12T06:17:23.915Z</time></trkpt><trkpt lat="43.6134592" lon="6.8338536"><ele>150.0</ele><time>2026-04-12T06:17:25.905Z</time></trkpt><trkpt lat="43.6133745" lon="6.8337502"><ele>150.0</ele><time>2026-04-12T06:17:27.926Z</time></trkpt><trkpt lat="43.6132891" lon="6.8336621"><ele>150.0</ele><time>2026-04-12T06:17:29.927Z</time></trkpt><trkpt lat="43.6131997" lon="6.8335772"><ele>150.0</ele><time>2026-04-12T06:17:31.933Z</time></trkpt><trkpt lat="43.6131178" lon="6.8334942"><ele>150.0</ele><time>2026-04-12T06:17:33.901Z</time></trkpt><trkpt lat="43.6130417" lon="6.8333829"><ele>147.0</ele><time>2026-04-12T06:17:35.934Z</time></trkpt><trkpt lat="43.6129791" lon="6.8332696"><ele>144.0</ele><time>2026-04-12T06:17:37.918Z</time></trkpt><trkpt lat="43.6129066" lon="6.8331482"><ele>141.0</ele><time>2026-04-12T06:17:39.931Z</time></trkpt><trkpt lat="43.6128312" lon="6.8330428"><ele>138.0</ele><time>2026-04-12T06:17:41.893Z</time></trkpt><trkpt lat="43.6127496" lon="6.8329369"><ele>135.0</ele><time>2026-04-12T06:17:43.916Z</time></trkpt><trkpt lat="43.6126674" lon="6.8328473"><ele>137.4</ele><time>2026-04-12T06:17:45.923Z</time></trkpt><trkpt lat="43.6125804" lon="6.8327658"><ele>139.8</ele><time>2026-04-12T06:17:47.928Z</time></trkpt><trkpt lat="43.6124955" lon="6.8326783"><ele>142.2</ele><time>2026-04-12T06:17:49.92Z</time></trkpt><trkpt lat="43.6123956" lon="6.8325893"><ele>144.6</ele><time>2026-04-12T06:17:51.902Z</time></trkpt><trkpt lat="43.6123071" lon="6.8324952"><ele>147.0</ele><time>2026-04-12T06:17:53.871Z</time></trkpt><trkpt lat="43.6122183" lon="6.8323904"><ele>147.0</ele><time>2026-04-12T06:17:55.933Z</time></trkpt><trkpt lat="43.6121357" lon="6.8323005"><ele>147.0</ele><time>2026-04-12T06:17:57.864Z</time></trkpt><trkpt lat="43.6120588" lon="6.8322014"><ele>147.0</ele><time>2026-04-12T06:17:59.924Z</time></trkpt><trkpt lat="43.6119837" lon="6.832105"><ele>147.0</ele><time>2026-04-12T06:18:01.913Z</time></trkpt><trkpt lat="43.6119072" lon="6.8320089"><ele>147.0</ele><time>2026-04-12T06:18:03.917Z</time></trkpt><trkpt lat="43.6118361" lon="6.83192"><ele>149.4</ele><time>2026-04-12T06:18:05.905Z</time></trkpt><trkpt lat="43.6117654" lon="6.8318249"><ele>151.79999999999998</ele><time>2026-04-12T06:18:07.867Z</time></trkpt><trkpt lat="43.6116875" lon="6.8317457"><ele>154.2</ele><time>2026-04-12T06:18:09.886Z</time></trkpt><trkpt lat="43.6116173" lon="6.8316528"><ele>156.6</ele><time>2026-04-12T06:18:11.921Z</time></trkpt><trkpt lat="43.6115391" lon="6.8315591"><ele>159.0</ele><time>2026-04-12T06:18:13.897Z</time></trkpt><trkpt lat="43.6114644" lon="6.8314517"><ele>159.0</ele><time>2026-04-12T06:18:15.937Z</time></trkpt><trkpt lat="43.6113964" lon="6.8313521"><ele>159.0</ele><time>2026-04-12T06:18:17.911Z</time></trkpt><trkpt lat="43.6113275" lon="6.8312471"><ele>159.0</ele><time>2026-04-12T06:18:19.882Z</time></trkpt><trkpt lat="43.6112643" lon="6.8311402"><ele>159.0</ele><time>2026-04-12T06:18:21.915Z</time></trkpt><trkpt lat="43.6111883" lon="6.8310334"><ele>159.0</ele><time>2026-04-12T06:18:23.887Z</time></trkpt><trkpt lat="43.6111149" lon="6.830926"><ele>160.8</ele><time>2026-04-12T06:18:25.903Z</time></trkpt><trkpt lat="43.6110422" lon="6.8308309"><ele>162.60000000000002</ele><time>2026-04-12T06:18:27.903Z</time></trkpt><trkpt lat="43.6109681" lon="6.8307366"><ele>164.4</ele><time>2026-04-12T06:18:29.933Z</time></trkpt><trkpt lat="43.6108887" lon="6.8306396"><ele>166.20000000000002</ele><time>2026-04-12T06:18:31.927Z</time></trkpt><trkpt lat="43.6108112" lon="6.8305484"><ele>168.0</ele><time>2026-04-12T06:18:33.937Z</time></trkpt><trkpt lat="43.6107279" lon="6.8304753"><ele>168.0</ele><time>2026-04-12T06:18:35.923Z</time></trkpt><trkpt lat="43.6106395" lon="6.8304103"><ele>168.0</ele><time>2026-04-12T06:18:37.906Z</time></trkpt><trkpt lat="43.6105482" lon="6.8303587"><ele>168.0</ele><time>2026-04-12T06:18:39.904Z</time></trkpt><trkpt lat="43.6104579" lon="6.8302967"><ele>168.0</ele><time>2026-04-12T06:18:41.875Z</time></trkpt><trkpt lat="43.6103931" lon="6.8302184"><ele>168.0</ele><time>2026-04-12T06:18:43.908Z</time></trkpt><trkpt lat="43.6103369" lon="6.8301393"><ele>170.2</ele><time>2026-04-12T06:18:45.887Z</time></trkpt><trkpt lat="43.6102747" lon="6.8300474"><ele>172.4</ele><time>2026-04-12T06:18:47.91Z</time></trkpt><trkpt lat="43.6102096" lon="6.8299443"><ele>174.6</ele><time>2026-04-12T06:18:49.929Z</time></trkpt><trkpt lat="43.6101481" lon="6.8298362"><ele>176.79999999999998</ele><time>2026-04-12T06:18:51.925Z</time></trkpt><trkpt lat="43.6100702" lon="6.8297347"><ele>179.0</ele><time>2026-04-12T06:18:53.935Z</time></trkpt><trkpt lat="43.6100008" lon="6.829615"><ele>179.0</ele><time>2026-04-12T06:18:55.926Z</time></trkpt><trkpt lat="43.6099387" lon="6.8294985"><ele>179.0</ele><time>2026-04-12T06:18:57.878Z</time></trkpt><trkpt lat="43.6099003" lon="6.8293445"><ele>179.0</ele><time>2026-04-12T06:18:59.913Z</time></trkpt><trkpt lat="43.6098734" lon="6.8291832"><ele>179.0</ele><time>2026-04-12T06:19:01.927Z</time></trkpt><trkpt lat="43.6098543" lon="6.8290201"><ele>176.75</ele><time>2026-04-12T06:19:03.913Z</time></trkpt><trkpt lat="43.6098131" lon="6.8288634"><ele>174.5</ele><time>2026-04-12T06:19:05.922Z</time></trkpt><trkpt lat="43.6097423" lon="6.828736"><ele>172.25</ele><time>2026-04-12T06:19:07.892Z</time></trkpt><trkpt lat="43.6096545" lon="6.8286223"><ele>170.0</ele><time>2026-04-12T06:19:09.919Z</time></trkpt><trkpt lat="43.6095554" lon="6.8285384"><ele>172.75</ele><time>2026-04-12T06:19:11.928Z</time></trkpt><trkpt lat="43.6094587" lon="6.8284533"><ele>175.5</ele><time>2026-04-12T06:19:13.909Z</time></trkpt><trkpt lat="43.6093633" lon="6.828352"><ele>178.25</ele><time>2026-04-12T06:19:15.902Z</time></trkpt><trkpt lat="43.6092824" lon="6.8282517"><ele>181.0</ele><time>2026-04-12T06:19:17.922Z</time></trkpt><trkpt lat="43.6092368" lon="6.8281088"><ele>181.0</ele><time>2026-04-12T06:19:19.901Z</time></trkpt><trkpt lat="43.609231" lon="6.8279508"><ele>181.0</ele><time>2026-04-12T06:19:21.905Z</time></trkpt><trkpt lat="43.6092439" lon="6.8278028"><ele>181.0</ele><time>2026-04-12T06:19:23.925Z</time></trkpt><trkpt lat="43.60925" lon="6.8276444"><ele>181.0</ele><time>2026-04-12T06:19:25.904Z</time></trkpt><trkpt lat="43.6092463" lon="6.8274802"><ele>180.20000000000002</ele><time>2026-04-12T06:19:27.932Z</time></trkpt><trkpt lat="43.6092135" lon="6.8273164"><ele>179.4</ele><time>2026-04-12T06:19:29.907Z</time></trkpt><trkpt lat="43.6091543" lon="6.8271784"><ele>178.6</ele><time>2026-04-12T06:19:31.933Z</time></trkpt><trkpt lat="43.6090738" lon="6.8270547"><ele>177.8</ele><time>2026-04-12T06:19:33.932Z</time></trkpt><trkpt lat="43.6090338" lon="6.8269849"><ele>177.0</ele><time>2026-04-12T06:19:34.901Z</time></trkpt><trkpt lat="43.6089861" lon="6.8269197"><ele>177.0</ele><time>2026-04-12T06:19:35.93Z</time></trkpt><trkpt lat="43.6089329" lon="6.8268575"><ele>177.0</ele><time>2026-04-12T06:19:36.924Z</time></trkpt><trkpt lat="43.60888" lon="6.8267937"><ele>177.0</ele><time>2026-04-12T06:19:37.914Z</time></trkpt><trkpt lat="43.6088334" lon="6.8267169"><ele>177.0</ele><time>2026-04-12T06:19:38.911Z</time></trkpt><trkpt lat="43.6087851" lon="6.8266371"><ele>177.0</ele><time>2026-04-12T06:19:39.918Z</time></trkpt><trkpt lat="43.6087335" lon="6.8265606"><ele>177.0</ele><time>2026-04-12T06:19:40.917Z</time></trkpt><trkpt lat="43.6086793" lon="6.8264861"><ele>177.0</ele><time>2026-04-12T06:19:41.906Z</time></trkpt><trkpt lat="43.6086233" lon="6.8264146"><ele>176.16666666666666</ele><time>2026-04-12T06:19:42.921Z</time></trkpt><trkpt lat="43.6085677" lon="6.8263397"><ele>175.33333333333334</ele><time>2026-04-12T06:19:43.924Z</time></trkpt><trkpt lat="43.6085087" lon="6.8262704"><ele>174.5</ele><time>2026-04-12T06:19:44.916Z</time></trkpt><trkpt lat="43.6084439" lon="6.8262007"><ele>173.66666666666669</ele><time>2026-04-12T06:19:45.874Z</time></trkpt><trkpt lat="43.6083807" lon="6.8261343"><ele>172.83333333333334</ele><time>2026-04-12T06:19:46.92Z</time></trkpt><trkpt lat="43.6083199" lon="6.8260573"><ele>172.0</ele><time>2026-04-12T06:19:47.864Z</time></trkpt><trkpt lat="43.6082636" lon="6.825978"><ele>174.16666666666669</ele><time>2026-04-12T06:19:48.9Z</time></trkpt><trkpt lat="43.6082039" lon="6.8258891"><ele>176.33333333333334</ele><time>2026-04-12T06:19:49.905Z</time></trkpt><trkpt lat="43.6081476" lon="6.8258116"><ele>178.5</ele><time>2026-04-12T06:19:50.909Z</time></trkpt><trkpt lat="43.6080932" lon="6.825729"><ele>180.66666666666666</ele><time>2026-04-12T06:19:51.914Z</time></trkpt><trkpt lat="43.6080321" lon="6.8256454"><ele>182.83333333333331</ele><time>2026-04-12T06:19:52.902Z</time></trkpt><trkpt lat="43.6079688" lon="6.8255612"><ele>185.0</ele><time>2026-04-12T06:19:53.932Z</time></trkpt><trkpt lat="43.6079047" lon="6.825477"><ele>185.0</ele><time>2026-04-12T06:19:54.9Z</time></trkpt><trkpt lat="43.6078423" lon="6.8254018"><ele>185.0</ele><time>2026-04-12T06:19:55.923Z</time></trkpt><trkpt lat="43.6077785" lon="6.8253273"><ele>185.0</ele><time>2026-04-12T06:19:56.922Z</time></trkpt><trkpt lat="43.6077098" lon="6.8252522"><ele>185.0</ele><time>2026-04-12T06:19:57.898Z</time></trkpt><trkpt lat="43.60764" lon="6.82517"><ele>185.0</ele><time>2026-04-12T06:19:58.921Z</time></trkpt><trkpt lat="43.6075642" lon="6.8250964"><ele>185.0</ele><time>2026-04-12T06:19:59.897Z</time></trkpt><trkpt lat="43.6074934" lon="6.8250187"><ele>184.0</ele><time>2026-04-12T06:20:00.935Z</time></trkpt><trkpt lat="43.6074176" lon="6.8249414"><ele>183.0</ele><time>2026-04-12T06:20:01.92Z</time></trkpt><trkpt lat="43.6073426" lon="6.8248637"><ele>182.0</ele><time>2026-04-12T06:20:02.926Z</time></trkpt><trkpt lat="43.6072734" lon="6.8247761"><ele>181.0</ele><time>2026-04-12T06:20:03.912Z</time></trkpt><trkpt lat="43.6072023" lon="6.8246876"><ele>180.0</ele><time>2026-04-12T06:20:04.923Z</time></trkpt><trkpt lat="43.6071365" lon="6.8245893"><ele>180.0</ele><time>2026-04-12T06:20:05.891Z</time></trkpt><trkpt lat="43.6070805" lon="6.8244793"><ele>180.0</ele><time>2026-04-12T06:20:06.898Z</time></trkpt><trkpt lat="43.6070291" lon="6.8243661"><ele>180.0</ele><time>2026-04-12T06:20:07.907Z</time></trkpt><trkpt lat="43.606978" lon="6.8242522"><ele>180.0</ele><time>2026-04-12T06:20:08.929Z</time></trkpt><trkpt lat="43.6069352" lon="6.8241326"><ele>180.0</ele><time>2026-04-12T06:20:09.916Z</time></trkpt><trkpt lat="43.6068937" lon="6.8240122"><ele>180.0</ele><time>2026-04-12T06:20:10.926Z</time></trkpt><trkpt lat="43.6068545" lon="6.8238892"><ele>180.0</ele><time>2026-04-12T06:20:11.936Z</time></trkpt><trkpt lat="43.6068059" lon="6.8237604"><ele>180.0</ele><time>2026-04-12T06:20:12.911Z</time></trkpt><trkpt lat="43.6067653" lon="6.823632"><ele>180.0</ele><time>2026-04-12T06:20:13.914Z</time></trkpt><trkpt lat="43.6067197" lon="6.8235091"><ele>180.0</ele><time>2026-04-12T06:20:14.918Z</time></trkpt><trkpt lat="43.6066695" lon="6.8233894"><ele>180.0</ele><time>2026-04-12T06:20:15.911Z</time></trkpt><trkpt lat="43.6066182" lon="6.8232692"><ele>180.0</ele><time>2026-04-12T06:20:16.922Z</time></trkpt><trkpt lat="43.6065653" lon="6.8231464"><ele>180.0</ele><time>2026-04-12T06:20:17.898Z</time></trkpt><trkpt lat="43.6065115" lon="6.8230295"><ele>180.0</ele><time>2026-04-12T06:20:18.914Z</time></trkpt><trkpt lat="43.6064569" lon="6.8229169"><ele>180.0</ele><time>2026-04-12T06:20:19.91Z</time></trkpt><trkpt lat="43.6063982" lon="6.8228025"><ele>180.0</ele><time>2026-04-12T06:20:20.928Z</time></trkpt><trkpt lat="43.6063353" lon="6.8226946"><ele>180.0</ele><time>2026-04-12T06:20:21.9Z</time></trkpt><trkpt lat="43.60627" lon="6.822583"><ele>180.0</ele><time>2026-04-12T06:20:22.897Z</time></trkpt><trkpt lat="43.6061999" lon="6.8224748"><ele>180.0</ele><time>2026-04-12T06:20:23.935Z</time></trkpt><trkpt lat="43.6061356" lon="6.8223541"><ele>180.0</ele><time>2026-04-12T06:20:24.921Z</time></trkpt><trkpt lat="43.6060731" lon="6.8222446"><ele>179.4</ele><time>2026-04-12T06:20:25.907Z</time></trkpt><trkpt lat="43.6060108" lon="6.8221397"><ele>178.8</ele><time>2026-04-12T06:20:26.883Z</time></trkpt><trkpt lat="43.6059494" lon="6.8220364"><ele>178.2</ele><time>2026-04-12T06:20:27.926Z</time></trkpt><trkpt lat="43.605884" lon="6.8219302"><ele>177.6</ele><time>2026-04-12T06:20:28.906Z</time></trkpt><trkpt lat="43.6058187" lon="6.821825"><ele>177.0</ele><time>2026-04-12T06:20:29.916Z</time></trkpt><trkpt lat="43.6057571" lon="6.8217188"><ele>177.0</ele><time>2026-04-12T06:20:30.924Z</time></trkpt><trkpt lat="43.6057042" lon="6.8216054"><ele>177.0</ele><time>2026-04-12T06:20:31.944Z</time></trkpt><trkpt lat="43.6056586" lon="6.8214868"><ele>177.0</ele><time>2026-04-12T06:20:32.912Z</time></trkpt><trkpt lat="43.6056259" lon="6.8213618"><ele>177.0</ele><time>2026-04-12T06:20:33.921Z</time></trkpt><trkpt lat="43.6055959" lon="6.8212338"><ele>177.0</ele><time>2026-04-12T06:20:34.927Z</time></trkpt><trkpt lat="43.6055654" lon="6.8211125"><ele>177.0</ele><time>2026-04-12T06:20:35.899Z</time></trkpt><trkpt lat="43.6055343" lon="6.8209917"><ele>177.0</ele><time>2026-04-12T06:20:36.912Z</time></trkpt><trkpt lat="43.6055083" lon="6.820865"><ele>177.0</ele><time>2026-04-12T06:20:37.919Z</time></trkpt><trkpt lat="43.6054928" lon="6.8207414"><ele>177.0</ele><time>2026-04-12T06:20:38.923Z</time></trkpt><trkpt lat="43.6054857" lon="6.8206147"><ele>177.0</ele><time>2026-04-12T06:20:39.911Z</time></trkpt><trkpt lat="43.6054939" lon="6.8204851"><ele>179.2</ele><time>2026-04-12T06:20:40.913Z</time></trkpt><trkpt lat="43.605506" lon="6.8203606"><ele>181.39999999999998</ele><time>2026-04-12T06:20:41.904Z</time></trkpt><trkpt lat="43.6055146" lon="6.8202301"><ele>183.60000000000002</ele><time>2026-04-12T06:20:42.923Z</time></trkpt><trkpt lat="43.6055293" lon="6.8201029"><ele>185.8</ele><time>2026-04-12T06:20:43.905Z</time></trkpt><trkpt lat="43.6055443" lon="6.8199732"><ele>188.0</ele><time>2026-04-12T06:20:44.915Z</time></trkpt><trkpt lat="43.6055562" lon="6.8198465"><ele>187.8</ele><time>2026-04-12T06:20:45.93Z</time></trkpt><trkpt lat="43.6055643" lon="6.8197174"><ele>187.60000000000002</ele><time>2026-04-12T06:20:46.923Z</time></trkpt><trkpt lat="43.6055722" lon="6.8195905"><ele>187.39999999999998</ele><time>2026-04-12T06:20:47.913Z</time></trkpt><trkpt lat="43.6055748" lon="6.8194593"><ele>187.2</ele><time>2026-04-12T06:20:48.882Z</time></trkpt><trkpt lat="43.6055753" lon="6.819329"><ele>187.0</ele><time>2026-04-12T06:20:49.929Z</time></trkpt><trkpt lat="43.6055738" lon="6.8191967"><ele>187.0</ele><time>2026-04-12T06:20:50.941Z</time></trkpt><trkpt lat="43.605575" lon="6.8190675"><ele>187.0</ele><time>2026-04-12T06:20:51.923Z</time></trkpt><trkpt lat="43.6055783" lon="6.818939"><ele>187.0</ele><time>2026-04-12T06:20:52.899Z</time></trkpt><trkpt lat="43.6055829" lon="6.8188153"><ele>187.0</ele><time>2026-04-12T06:20:53.929Z</time></trkpt><trkpt lat="43.6055894" lon="6.8186904"><ele>187.0</ele><time>2026-04-12T06:20:54.933Z</time></trkpt><trkpt lat="43.6055971" lon="6.8185657"><ele>185.6</ele><time>2026-04-12T06:20:55.895Z</time></trkpt><trkpt lat="43.6056111" lon="6.8184441"><ele>184.2</ele><time>2026-04-12T06:20:56.923Z</time></trkpt><trkpt lat="43.6056256" lon="6.8183218"><ele>182.8</ele><time>2026-04-12T06:20:57.887Z</time></trkpt><trkpt lat="43.6056445" lon="6.8181963"><ele>181.4</ele><time>2026-04-12T06:20:58.925Z</time></trkpt><trkpt lat="43.6056717" lon="6.8180789"><ele>180.0</ele><time>2026-04-12T06:20:59.935Z</time></trkpt><trkpt lat="43.6057131" lon="6.8179616"><ele>180.0</ele><time>2026-04-12T06:21:00.918Z</time></trkpt><trkpt lat="43.6057563" lon="6.8178469"><ele>180.0</ele><time>2026-04-12T06:21:01.927Z</time></trkpt><trkpt lat="43.6058134" lon="6.8177555"><ele>180.0</ele><time>2026-04-12T06:21:02.927Z</time></trkpt><trkpt lat="43.6058828" lon="6.8176782"><ele>180.0</ele><time>2026-04-12T06:21:03.924Z</time></trkpt><trkpt lat="43.6059606" lon="6.8176189"><ele>180.0</ele><time>2026-04-12T06:21:04.908Z</time></trkpt><trkpt lat="43.6060447" lon="6.817581"><ele>180.0</ele><time>2026-04-12T06:21:05.909Z</time></trkpt><trkpt lat="43.6061301" lon="6.8175438"><ele>179.33333333333334</ele><time>2026-04-12T06:21:06.926Z</time></trkpt><trkpt lat="43.6062172" lon="6.8175176"><ele>178.66666666666666</ele><time>2026-04-12T06:21:07.909Z</time></trkpt><trkpt lat="43.6063017" lon="6.817489"><ele>178.0</ele><time>2026-04-12T06:21:08.917Z</time></trkpt><trkpt lat="43.6063888" lon="6.8174632"><ele>177.33333333333331</ele><time>2026-04-12T06:21:09.931Z</time></trkpt><trkpt lat="43.6064778" lon="6.8174388"><ele>176.66666666666666</ele><time>2026-04-12T06:21:10.944Z</time></trkpt><trkpt lat="43.6065688" lon="6.8174226"><ele>176.0</ele><time>2026-04-12T06:21:11.911Z</time></trkpt><trkpt lat="43.6066592" lon="6.8174243"><ele>176.0</ele><time>2026-04-12T06:21:12.923Z</time></trkpt><trkpt lat="43.6067496" lon="6.817454"><ele>176.0</ele><time>2026-04-12T06:21:13.918Z</time></trkpt><trkpt lat="43.6068396" lon="6.8174944"><ele>176.0</ele><time>2026-04-12T06:21:14.916Z</time></trkpt><trkpt lat="43.6069262" lon="6.8175352"><ele>176.0</ele><time>2026-04-12T06:21:15.896Z</time></trkpt><trkpt lat="43.6070138" lon="6.8175717"><ele>176.0</ele><time>2026-04-12T06:21:16.91Z</time></trkpt><trkpt lat="43.6071019" lon="6.8176161"><ele>177.8</ele><time>2026-04-12T06:21:17.858Z</time></trkpt><trkpt lat="43.6071876" lon="6.8176639"><ele>179.60000000000002</ele><time>2026-04-12T06:21:18.921Z</time></trkpt><trkpt lat="43.6072706" lon="6.8177094"><ele>181.4</ele><time>2026-04-12T06:21:19.934Z</time></trkpt><trkpt lat="43.6073528" lon="6.8177621"><ele>183.2</ele><time>2026-04-12T06:21:20.883Z</time></trkpt><trkpt lat="43.6074379" lon="6.8178099"><ele>185.0</ele><time>2026-04-12T06:21:21.908Z</time></trkpt><trkpt lat="43.6075201" lon="6.8178671"><ele>185.0</ele><time>2026-04-12T06:21:22.904Z</time></trkpt><trkpt lat="43.6076036" lon="6.817928"><ele>185.0</ele><time>2026-04-12T06:21:23.911Z</time></trkpt><trkpt lat="43.6076839" lon="6.8179942"><ele>185.0</ele><time>2026-04-12T06:21:24.895Z</time></trkpt><trkpt lat="43.6077631" lon="6.8180699"><ele>185.0</ele><time>2026-04-12T06:21:25.903Z</time></trkpt><trkpt lat="43.6078475" lon="6.8181398"><ele>185.0</ele><time>2026-04-12T06:21:26.906Z</time></trkpt><trkpt lat="43.6079295" lon="6.8182101"><ele>185.4</ele><time>2026-04-12T06:21:27.923Z</time></trkpt><trkpt lat="43.6080192" lon="6.8182812"><ele>185.8</ele><time>2026-04-12T06:21:28.894Z</time></trkpt><trkpt lat="43.6081054" lon="6.8183462"><ele>186.2</ele><time>2026-04-12T06:21:29.947Z</time></trkpt><trkpt lat="43.6081944" lon="6.8184156"><ele>186.6</ele><time>2026-04-12T06:21:30.879Z</time></trkpt><trkpt lat="43.6082835" lon="6.8184858"><ele>187.0</ele><time>2026-04-12T06:21:31.89Z</time></trkpt><trkpt lat="43.6083717" lon="6.8185489"><ele>187.0</ele><time>2026-04-12T06:21:32.918Z</time></trkpt><trkpt lat="43.6084579" lon="6.8186091"><ele>187.0</ele><time>2026-04-12T06:21:33.904Z</time></trkpt><trkpt lat="43.6085474" lon="6.8186675"><ele>187.0</ele><time>2026-04-12T06:21:34.924Z</time></trkpt><trkpt lat="43.6086331" lon="6.8187273"><ele>187.0</ele><time>2026-04-12T06:21:35.918Z</time></trkpt><trkpt lat="43.6087202" lon="6.8187931"><ele>187.0</ele><time>2026-04-12T06:21:36.922Z</time></trkpt><trkpt lat="43.6088062" lon="6.8188567"><ele>185.8</ele><time>2026-04-12T06:21:37.906Z</time></trkpt><trkpt lat="43.6088911" lon="6.8189224"><ele>184.6</ele><time>2026-04-12T06:21:38.914Z</time></trkpt><trkpt lat="43.6089785" lon="6.8189812"><ele>183.4</ele><time>2026-04-12T06:21:39.895Z</time></trkpt><trkpt lat="43.6090658" lon="6.8190458"><ele>182.20000000000002</ele><time>2026-04-12T06:21:40.911Z</time></trkpt><trkpt lat="43.6091534" lon="6.8191056"><ele>181.0</ele><time>2026-04-12T06:21:41.905Z</time></trkpt><trkpt lat="43.6092386" lon="6.8191682"><ele>181.0</ele><time>2026-04-12T06:21:42.92Z</time></trkpt><trkpt lat="43.609323" lon="6.8192236"><ele>181.0</ele><time>2026-04-12T06:21:43.908Z</time></trkpt><trkpt lat="43.6094129" lon="6.8192708"><ele>181.0</ele><time>2026-04-12T06:21:44.919Z</time></trkpt><trkpt lat="43.6095068" lon="6.8193021"><ele>181.0</ele><time>2026-04-12T06:21:45.905Z</time></trkpt><trkpt lat="43.6096067" lon="6.819326"><ele>181.0</ele><time>2026-04-12T06:21:46.935Z</time></trkpt><trkpt lat="43.6097035" lon="6.8193378"><ele>181.60000000000002</ele><time>2026-04-12T06:21:47.897Z</time></trkpt><trkpt lat="43.6098039" lon="6.8193411"><ele>182.2</ele><time>2026-04-12T06:21:48.914Z</time></trkpt><trkpt lat="43.6098987" lon="6.8193493"><ele>182.8</ele><time>2026-04-12T06:21:49.907Z</time></trkpt><trkpt lat="43.6099851" lon="6.8193788"><ele>183.39999999999998</ele><time>2026-04-12T06:21:50.912Z</time></trkpt><trkpt lat="43.6100659" lon="6.8194412"><ele>184.0</ele><time>2026-04-12T06:21:51.932Z</time></trkpt><trkpt lat="43.6101407" lon="6.819507"><ele>184.0</ele><time>2026-04-12T06:21:52.915Z</time></trkpt><trkpt lat="43.6102112" lon="6.8195761"><ele>184.0</ele><time>2026-04-12T06:21:53.896Z</time></trkpt><trkpt lat="43.6102713" lon="6.8196519"><ele>184.0</ele><time>2026-04-12T06:21:54.922Z</time></trkpt><trkpt lat="43.610339" lon="6.8197364"><ele>184.0</ele><time>2026-04-12T06:21:55.921Z</time></trkpt><trkpt lat="43.6104044" lon="6.8198195"><ele>184.0</ele><time>2026-04-12T06:21:56.919Z</time></trkpt><trkpt lat="43.6104707" lon="6.8199052"><ele>184.0</ele><time>2026-04-12T06:21:57.892Z</time></trkpt><trkpt lat="43.6105371" lon="6.8199871"><ele>184.5</ele><time>2026-04-12T06:21:58.88Z</time></trkpt><trkpt lat="43.6106016" lon="6.8200689"><ele>185.0</ele><time>2026-04-12T06:21:59.921Z</time></trkpt><trkpt lat="43.6106714" lon="6.8201494"><ele>185.5</ele><time>2026-04-12T06:22:00.918Z</time></trkpt><trkpt lat="43.6107452" lon="6.8202185"><ele>186.0</ele><time>2026-04-12T06:22:01.923Z</time></trkpt><trkpt lat="43.610828" lon="6.8202747"><ele>186.5</ele><time>2026-04-12T06:22:02.925Z</time></trkpt><trkpt lat="43.6109074" lon="6.820317"><ele>187.0</ele><time>2026-04-12T06:22:03.914Z</time></trkpt><trkpt lat="43.6109883" lon="6.82036"><ele>187.0</ele><time>2026-04-12T06:22:04.918Z</time></trkpt><trkpt lat="43.6110696" lon="6.8204002"><ele>187.0</ele><time>2026-04-12T06:22:05.928Z</time></trkpt><trkpt lat="43.6111514" lon="6.8204347"><ele>187.0</ele><time>2026-04-12T06:22:06.93Z</time></trkpt><trkpt lat="43.6112333" lon="6.8204661"><ele>187.0</ele><time>2026-04-12T06:22:07.907Z</time></trkpt><trkpt lat="43.6113155" lon="6.8204932"><ele>187.0</ele><time>2026-04-12T06:22:08.936Z</time></trkpt><trkpt lat="43.6113947" lon="6.8205138"><ele>187.0</ele><time>2026-04-12T06:22:09.922Z</time></trkpt><trkpt lat="43.6114747" lon="6.8205242"><ele>186.16666666666669</ele><time>2026-04-12T06:22:10.917Z</time></trkpt><trkpt lat="43.6115537" lon="6.8205247"><ele>185.33333333333334</ele><time>2026-04-12T06:22:11.927Z</time></trkpt><trkpt lat="43.6116358" lon="6.8205202"><ele>184.5</ele><time>2026-04-12T06:22:12.923Z</time></trkpt><trkpt lat="43.6117192" lon="6.8205026"><ele>183.66666666666666</ele><time>2026-04-12T06:22:13.928Z</time></trkpt><trkpt lat="43.6117941" lon="6.8204765"><ele>182.83333333333331</ele><time>2026-04-12T06:22:14.932Z</time></trkpt><trkpt lat="43.6118615" lon="6.8204228"><ele>182.0</ele><time>2026-04-12T06:22:15.916Z</time></trkpt><trkpt lat="43.6119251" lon="6.8203613"><ele>182.0</ele><time>2026-04-12T06:22:16.912Z</time></trkpt><trkpt lat="43.6119865" lon="6.8203052"><ele>182.0</ele><time>2026-04-12T06:22:17.931Z</time></trkpt><trkpt lat="43.6120455" lon="6.8202463"><ele>182.0</ele><time>2026-04-12T06:22:18.9Z</time></trkpt><trkpt lat="43.6121043" lon="6.8201842"><ele>182.0</ele><time>2026-04-12T06:22:19.924Z</time></trkpt><trkpt lat="43.612158" lon="6.8201212"><ele>182.0</ele><time>2026-04-12T06:22:20.909Z</time></trkpt><trkpt lat="43.6122095" lon="6.8200524"><ele>182.0</ele><time>2026-04-12T06:22:21.928Z</time></trkpt><trkpt lat="43.6122584" lon="6.819984"><ele>182.0</ele><time>2026-04-12T06:22:22.915Z</time></trkpt><trkpt lat="43.6122988" lon="6.8199125"><ele>182.16666666666666</ele><time>2026-04-12T06:22:23.914Z</time></trkpt><trkpt lat="43.6123383" lon="6.8198328"><ele>182.33333333333331</ele><time>2026-04-12T06:22:24.927Z</time></trkpt><trkpt lat="43.6123786" lon="6.8197498"><ele>182.5</ele><time>2026-04-12T06:22:25.922Z</time></trkpt><trkpt lat="43.6124072" lon="6.8196511"><ele>182.66666666666666</ele><time>2026-04-12T06:22:26.922Z</time></trkpt><trkpt lat="43.6124157" lon="6.8195414"><ele>182.83333333333334</ele><time>2026-04-12T06:22:27.912Z</time></trkpt><trkpt lat="43.6124076" lon="6.8194303"><ele>183.0</ele><time>2026-04-12T06:22:28.893Z</time></trkpt><trkpt lat="43.6123999" lon="6.8193268"><ele>183.0</ele><time>2026-04-12T06:22:29.906Z</time></trkpt><trkpt lat="43.6124086" lon="6.8192192"><ele>183.0</ele><time>2026-04-12T06:22:30.891Z</time></trkpt><trkpt lat="43.612431" lon="6.8191192"><ele>183.0</ele><time>2026-04-12T06:22:31.915Z</time></trkpt><trkpt lat="43.6124595" lon="6.8190258"><ele>183.0</ele><time>2026-04-12T06:22:32.916Z</time></trkpt><trkpt lat="43.612495" lon="6.8189418"><ele>183.0</ele><time>2026-04-12T06:22:33.927Z</time></trkpt><trkpt lat="43.6124891" lon="6.818762"><ele>183.0</ele><time>2026-04-12T06:22:35.924Z</time></trkpt><trkpt lat="43.6124482" lon="6.8186856"><ele>183.0</ele><time>2026-04-12T06:22:36.909Z</time></trkpt><trkpt lat="43.6124082" lon="6.8186046"><ele>183.0</ele><time>2026-04-12T06:22:37.916Z</time></trkpt><trkpt lat="43.6123812" lon="6.8185253"><ele>183.0</ele><time>2026-04-12T06:22:38.926Z</time></trkpt><trkpt lat="43.6123494" lon="6.8184383"><ele>183.0</ele><time>2026-04-12T06:22:39.912Z</time></trkpt><trkpt lat="43.6123124" lon="6.8183562"><ele>183.0</ele><time>2026-04-12T06:22:40.901Z</time></trkpt><trkpt lat="43.6122836" lon="6.8182766"><ele>183.0</ele><time>2026-04-12T06:22:41.895Z</time></trkpt><trkpt lat="43.6122318" lon="6.8181156"><ele>183.28571428571428</ele><time>2026-04-12T06:22:43.911Z</time></trkpt><trkpt lat="43.6122054" lon="6.8180322"><ele>183.57142857142858</ele><time>2026-04-12T06:22:44.932Z</time></trkpt><trkpt lat="43.6121875" lon="6.8179472"><ele>183.85714285714283</ele><time>2026-04-12T06:22:45.909Z</time></trkpt><trkpt lat="43.612167" lon="6.8178639"><ele>184.14285714285714</ele><time>2026-04-12T06:22:46.908Z</time></trkpt><trkpt lat="43.6121296" lon="6.8176938"><ele>184.42857142857142</ele><time>2026-04-12T06:22:48.876Z</time></trkpt><trkpt lat="43.6121157" lon="6.8176084"><ele>184.7142857142857</ele><time>2026-04-12T06:22:49.908Z</time></trkpt><trkpt lat="43.6121047" lon="6.8175225"><ele>185.0</ele><time>2026-04-12T06:22:50.916Z</time></trkpt><trkpt lat="43.612084" lon="6.8173611"><ele>185.4</ele><time>2026-04-12T06:22:52.915Z</time></trkpt><trkpt lat="43.6120631" lon="6.8172034"><ele>185.8</ele><time>2026-04-12T06:22:54.915Z</time></trkpt><trkpt lat="43.6120445" lon="6.8170513"><ele>186.2</ele><time>2026-04-12T06:22:56.907Z</time></trkpt><trkpt lat="43.6120251" lon="6.8169028"><ele>186.6</ele><time>2026-04-12T06:22:58.877Z</time></trkpt><trkpt lat="43.6120032" lon="6.8167523"><ele>187.0</ele><time>2026-04-12T06:23:00.927Z</time></trkpt><trkpt lat="43.6119706" lon="6.8166024"><ele>188.25</ele><time>2026-04-12T06:23:02.935Z</time></trkpt><trkpt lat="43.6119305" lon="6.8164486"><ele>189.5</ele><time>2026-04-12T06:23:04.926Z</time></trkpt><trkpt lat="43.61189" lon="6.8162922"><ele>190.75</ele><time>2026-04-12T06:23:06.918Z</time></trkpt><trkpt lat="43.611852" lon="6.8161457"><ele>192.0</ele><time>2026-04-12T06:23:08.917Z</time></trkpt><trkpt lat="43.6118075" lon="6.8160037"><ele>192.6</ele><time>2026-04-12T06:23:10.924Z</time></trkpt><trkpt lat="43.6117521" lon="6.815862"><ele>193.2</ele><time>2026-04-12T06:23:12.911Z</time></trkpt><trkpt lat="43.6116843" lon="6.8157295"><ele>193.8</ele><time>2026-04-12T06:23:14.921Z</time></trkpt><trkpt lat="43.6116001" lon="6.815597"><ele>194.4</ele><time>2026-04-12T06:23:16.905Z</time></trkpt><trkpt lat="43.6115562" lon="6.8155292"><ele>195.0</ele><time>2026-04-12T06:23:17.935Z</time></trkpt><trkpt lat="43.611509" lon="6.8154543"><ele>195.0</ele><time>2026-04-12T06:23:18.899Z</time></trkpt><trkpt lat="43.6114636" lon="6.8153828"><ele>195.0</ele><time>2026-04-12T06:23:19.909Z</time></trkpt><trkpt lat="43.6114206" lon="6.8153177"><ele>195.0</ele><time>2026-04-12T06:23:20.886Z</time></trkpt><trkpt lat="43.6113712" lon="6.8152571"><ele>195.0</ele><time>2026-04-12T06:23:21.912Z</time></trkpt><trkpt lat="43.6113186" lon="6.8151924"><ele>195.0</ele><time>2026-04-12T06:23:22.896Z</time></trkpt><trkpt lat="43.611267" lon="6.8151331"><ele>195.0</ele><time>2026-04-12T06:23:23.903Z</time></trkpt><trkpt lat="43.6111596" lon="6.8150261"><ele>195.0</ele><time>2026-04-12T06:23:25.903Z</time></trkpt><trkpt lat="43.6111022" lon="6.8149671"><ele>195.0</ele><time>2026-04-12T06:23:26.896Z</time></trkpt><trkpt lat="43.6110437" lon="6.8149071"><ele>195.0</ele><time>2026-04-12T06:23:27.925Z</time></trkpt><trkpt lat="43.6109834" lon="6.8148504"><ele>195.0</ele><time>2026-04-12T06:23:28.914Z</time></trkpt><trkpt lat="43.6109248" lon="6.8147931"><ele>195.0</ele><time>2026-04-12T06:23:29.936Z</time></trkpt><trkpt lat="43.6108683" lon="6.8147389"><ele>195.0</ele><time>2026-04-12T06:23:30.922Z</time></trkpt><trkpt lat="43.6108097" lon="6.8146827"><ele>195.0</ele><time>2026-04-12T06:23:31.929Z</time></trkpt><trkpt lat="43.6107539" lon="6.8146299"><ele>195.0</ele><time>2026-04-12T06:23:32.934Z</time></trkpt><trkpt lat="43.6106971" lon="6.8145802"><ele>195.0</ele><time>2026-04-12T06:23:33.924Z</time></trkpt><trkpt lat="43.6106402" lon="6.8145311"><ele>195.0</ele><time>2026-04-12T06:23:34.911Z</time></trkpt><trkpt lat="43.6105854" lon="6.8144826"><ele>195.0</ele><time>2026-04-12T06:23:35.912Z</time></trkpt><trkpt lat="43.6104841" lon="6.8143806"><ele>195.0</ele><time>2026-04-12T06:23:37.914Z</time></trkpt><trkpt lat="43.6103815" lon="6.8142922"><ele>195.0</ele><time>2026-04-12T06:23:39.931Z</time></trkpt><trkpt lat="43.6102944" lon="6.8142087"><ele>196.8</ele><time>2026-04-12T06:23:41.908Z</time></trkpt><trkpt lat="43.610216" lon="6.8141364"><ele>198.6</ele><time>2026-04-12T06:23:43.921Z</time></trkpt><trkpt lat="43.6101369" lon="6.8140652"><ele>200.39999999999998</ele><time>2026-04-12T06:23:45.925Z</time></trkpt><trkpt lat="43.6100624" lon="6.8139866"><ele>202.2</ele><time>2026-04-12T06:23:47.898Z</time></trkpt><trkpt lat="43.6099929" lon="6.8138914"><ele>204.0</ele><time>2026-04-12T06:23:49.918Z</time></trkpt><trkpt lat="43.6098995" lon="6.8138042"><ele>204.0</ele><time>2026-04-12T06:23:51.932Z</time></trkpt><trkpt lat="43.6098165" lon="6.8137171"><ele>204.0</ele><time>2026-04-12T06:23:53.918Z</time></trkpt><trkpt lat="43.6097318" lon="6.8136316"><ele>204.0</ele><time>2026-04-12T06:23:55.931Z</time></trkpt><trkpt lat="43.6096469" lon="6.8135431"><ele>204.0</ele><time>2026-04-12T06:23:57.887Z</time></trkpt><trkpt lat="43.6095663" lon="6.8134483"><ele>204.0</ele><time>2026-04-12T06:23:59.89Z</time></trkpt><trkpt lat="43.6094885" lon="6.8133411"><ele>204.2</ele><time>2026-04-12T06:24:01.919Z</time></trkpt><trkpt lat="43.6094172" lon="6.8132328"><ele>204.39999999999998</ele><time>2026-04-12T06:24:03.905Z</time></trkpt><trkpt lat="43.609352" lon="6.8131142"><ele>204.6</ele><time>2026-04-12T06:24:05.925Z</time></trkpt><trkpt lat="43.6092849" lon="6.8129908"><ele>204.8</ele><time>2026-04-12T06:24:07.916Z</time></trkpt><trkpt lat="43.6092284" lon="6.8128655"><ele>205.0</ele><time>2026-04-12T06:24:09.913Z</time></trkpt><trkpt lat="43.6091849" lon="6.8127293"><ele>206.8</ele><time>2026-04-12T06:24:11.914Z</time></trkpt><trkpt lat="43.6091669" lon="6.8125896"><ele>208.6</ele><time>2026-04-12T06:24:13.923Z</time></trkpt><trkpt lat="43.6091639" lon="6.8124613"><ele>210.39999999999998</ele><time>2026-04-12T06:24:15.91Z</time></trkpt><trkpt lat="43.6091679" lon="6.8123294"><ele>212.2</ele><time>2026-04-12T06:24:17.894Z</time></trkpt><trkpt lat="43.6091896" lon="6.812204"><ele>214.0</ele><time>2026-04-12T06:24:19.906Z</time></trkpt><trkpt lat="43.6092067" lon="6.8120662"><ele>214.0</ele><time>2026-04-12T06:24:21.912Z</time></trkpt><trkpt lat="43.6092236" lon="6.8119216"><ele>213.99999999999997</ele><time>2026-04-12T06:24:23.937Z</time></trkpt><trkpt lat="43.609229" lon="6.8117769"><ele>213.99999999999997</ele><time>2026-04-12T06:24:25.909Z</time></trkpt><trkpt lat="43.6092277" lon="6.8116304"><ele>214.0</ele><time>2026-04-12T06:24:27.858Z</time></trkpt><trkpt lat="43.6092193" lon="6.8114832"><ele>214.0</ele><time>2026-04-12T06:24:29.923Z</time></trkpt><trkpt lat="43.6091996" lon="6.811329"><ele>214.39999999999998</ele><time>2026-04-12T06:24:31.915Z</time></trkpt><trkpt lat="43.6091805" lon="6.8111803"><ele>214.79999999999998</ele><time>2026-04-12T06:24:33.899Z</time></trkpt><trkpt lat="43.6091453" lon="6.8110362"><ele>215.20000000000002</ele><time>2026-04-12T06:24:35.89Z</time></trkpt><trkpt lat="43.6091079" lon="6.8108969"><ele>215.60000000000002</ele><time>2026-04-12T06:24:37.924Z</time></trkpt><trkpt lat="43.6090567" lon="6.8107565"><ele>216.0</ele><time>2026-04-12T06:24:39.926Z</time></trkpt><trkpt lat="43.6089838" lon="6.8106379"><ele>216.0</ele><time>2026-04-12T06:24:41.927Z</time></trkpt><trkpt lat="43.6089163" lon="6.8105395"><ele>216.00000000000003</ele><time>2026-04-12T06:24:43.881Z</time></trkpt><trkpt lat="43.6088446" lon="6.810447"><ele>216.00000000000003</ele><time>2026-04-12T06:24:45.906Z</time></trkpt><trkpt lat="43.6087817" lon="6.8103797"><ele>216.0</ele><time>2026-04-12T06:24:47.909Z</time></trkpt><trkpt lat="43.6087008" lon="6.8103198"><ele>216.0</ele><time>2026-04-12T06:24:49.91Z</time></trkpt><trkpt lat="43.6086047" lon="6.8102371"><ele>216.0</ele><time>2026-04-12T06:24:51.932Z</time></trkpt><trkpt lat="43.608506" lon="6.8101787"><ele>216.00000000000003</ele><time>2026-04-12T06:24:53.914Z</time></trkpt><trkpt lat="43.6084051" lon="6.8101277"><ele>216.00000000000003</ele><time>2026-04-12T06:24:55.94Z</time></trkpt><trkpt lat="43.6082975" lon="6.8100827"><ele>216.0</ele><time>2026-04-12T06:24:57.888Z</time></trkpt><trkpt lat="43.6081881" lon="6.8100413"><ele>216.0</ele><time>2026-04-12T06:24:59.928Z</time></trkpt><trkpt lat="43.6080835" lon="6.8099937"><ele>218.0</ele><time>2026-04-12T06:25:01.919Z</time></trkpt><trkpt lat="43.607975" lon="6.8099522"><ele>220.0</ele><time>2026-04-12T06:25:03.918Z</time></trkpt><trkpt lat="43.607866" lon="6.8099066"><ele>222.0</ele><time>2026-04-12T06:25:05.901Z</time></trkpt><trkpt lat="43.6077593" lon="6.8098653"><ele>224.0</ele><time>2026-04-12T06:25:07.896Z</time></trkpt><trkpt lat="43.6076464" lon="6.8098203"><ele>224.0</ele><time>2026-04-12T06:25:09.931Z</time></trkpt><trkpt lat="43.6075868" lon="6.8097884"><ele>223.99999999999997</ele><time>2026-04-12T06:25:10.924Z</time></trkpt><trkpt lat="43.6074831" lon="6.8097183"><ele>223.99999999999997</ele><time>2026-04-12T06:25:12.918Z</time></trkpt><trkpt lat="43.6073761" lon="6.8096561"><ele>224.0</ele><time>2026-04-12T06:25:14.9Z</time></trkpt><trkpt lat="43.6072714" lon="6.8095844"><ele>224.0</ele><time>2026-04-12T06:25:16.936Z</time></trkpt><trkpt lat="43.6071708" lon="6.8095083"><ele>224.0</ele><time>2026-04-12T06:25:18.899Z</time></trkpt><trkpt lat="43.6071146" lon="6.8094665"><ele>223.99999999999997</ele><time>2026-04-12T06:25:19.898Z</time></trkpt><trkpt lat="43.6070015" lon="6.8093846"><ele>223.99999999999997</ele><time>2026-04-12T06:25:21.898Z</time></trkpt><trkpt lat="43.6068961" lon="6.8092931"><ele>224.0</ele><time>2026-04-12T06:25:23.934Z</time></trkpt><trkpt lat="43.606791" lon="6.8092027"><ele>224.0</ele><time>2026-04-12T06:25:25.916Z</time></trkpt><trkpt lat="43.6066972" lon="6.8091163"><ele>226.75</ele><time>2026-04-12T06:25:27.874Z</time></trkpt><trkpt lat="43.6066123" lon="6.8090389"><ele>229.5</ele><time>2026-04-12T06:25:29.909Z</time></trkpt><trkpt lat="43.6065224" lon="6.808944"><ele>232.25</ele><time>2026-04-12T06:25:31.911Z</time></trkpt><trkpt lat="43.606431" lon="6.808837"><ele>235.0</ele><time>2026-04-12T06:25:33.861Z</time></trkpt><trkpt lat="43.6063449" lon="6.8087288"><ele>235.0</ele><time>2026-04-12T06:25:35.888Z</time></trkpt><trkpt lat="43.6062722" lon="6.8086081"><ele>235.0</ele><time>2026-04-12T06:25:37.896Z</time></trkpt><trkpt lat="43.6062054" lon="6.8084915"><ele>235.0</ele><time>2026-04-12T06:25:39.928Z</time></trkpt><trkpt lat="43.606136" lon="6.8083565"><ele>235.0</ele><time>2026-04-12T06:25:41.888Z</time></trkpt><trkpt lat="43.6060647" lon="6.8082203"><ele>234.99999999999997</ele><time>2026-04-12T06:25:43.913Z</time></trkpt><trkpt lat="43.6060248" lon="6.8081485"><ele>235.0</ele><time>2026-04-12T06:25:44.938Z</time></trkpt><trkpt lat="43.605935" lon="6.8080274"><ele>235.0</ele><time>2026-04-12T06:25:46.921Z</time></trkpt><trkpt lat="43.6058865" lon="6.8079702"><ele>235.0</ele><time>2026-04-12T06:25:47.905Z</time></trkpt><trkpt lat="43.6058361" lon="6.8079165"><ele>234.99999999999997</ele><time>2026-04-12T06:25:48.897Z</time></trkpt><trkpt lat="43.6057853" lon="6.8078632"><ele>235.0</ele><time>2026-04-12T06:25:49.885Z</time></trkpt><trkpt lat="43.6056869" lon="6.8077683"><ele>235.0</ele><time>2026-04-12T06:25:51.867Z</time></trkpt><trkpt lat="43.6056333" lon="6.8077148"><ele>235.0</ele><time>2026-04-12T06:25:52.922Z</time></trkpt><trkpt lat="43.6055815" lon="6.8076606"><ele>235.0</ele><time>2026-04-12T06:25:53.923Z</time></trkpt><trkpt lat="43.6054776" lon="6.8075744"><ele>235.0</ele><time>2026-04-12T06:25:55.873Z</time></trkpt><trkpt lat="43.6053675" lon="6.8075011"><ele>235.0</ele><time>2026-04-12T06:25:57.888Z</time></trkpt><trkpt lat="43.6052517" lon="6.8074393"><ele>235.57142857142856</ele><time>2026-04-12T06:25:59.924Z</time></trkpt><trkpt lat="43.60519" lon="6.8074132"><ele>236.1428571428571</ele><time>2026-04-12T06:26:00.906Z</time></trkpt><trkpt lat="43.6051238" lon="6.8073811"><ele>236.71428571428572</ele><time>2026-04-12T06:26:01.897Z</time></trkpt><trkpt lat="43.6050556" lon="6.80735"><ele>237.28571428571428</ele><time>2026-04-12T06:26:02.917Z</time></trkpt><trkpt lat="43.6049869" lon="6.8073189"><ele>237.85714285714286</ele><time>2026-04-12T06:26:03.923Z</time></trkpt><trkpt lat="43.6049208" lon="6.807285"><ele>238.42857142857144</ele><time>2026-04-12T06:26:04.902Z</time></trkpt><trkpt lat="43.6048556" lon="6.8072591"><ele>239.00000000000003</ele><time>2026-04-12T06:26:05.861Z</time></trkpt><trkpt lat="43.6047845" lon="6.8072381"><ele>239.00000000000003</ele><time>2026-04-12T06:26:06.927Z</time></trkpt><trkpt lat="43.6047162" lon="6.8072081"><ele>239.0</ele><time>2026-04-12T06:26:07.918Z</time></trkpt><trkpt lat="43.6046467" lon="6.8071787"><ele>239.0</ele><time>2026-04-12T06:26:08.906Z</time></trkpt><trkpt lat="43.6045723" lon="6.8071495"><ele>239.0</ele><time>2026-04-12T06:26:09.902Z</time></trkpt><trkpt lat="43.6045" lon="6.8071218"><ele>239.00000000000003</ele><time>2026-04-12T06:26:10.903Z</time></trkpt><trkpt lat="43.6044216" lon="6.8070989"><ele>239.0</ele><time>2026-04-12T06:26:11.927Z</time></trkpt><trkpt lat="43.6043459" lon="6.8070759"><ele>238.16666666666669</ele><time>2026-04-12T06:26:12.92Z</time></trkpt><trkpt lat="43.6042624" lon="6.8070437"><ele>237.33333333333334</ele><time>2026-04-12T06:26:13.905Z</time></trkpt><trkpt lat="43.6041807" lon="6.8070104"><ele>236.5</ele><time>2026-04-12T06:26:14.916Z</time></trkpt><trkpt lat="43.6041022" lon="6.8069835"><ele>235.66666666666669</ele><time>2026-04-12T06:26:15.883Z</time></trkpt><trkpt lat="43.6040205" lon="6.8069492"><ele>234.83333333333334</ele><time>2026-04-12T06:26:16.919Z</time></trkpt><trkpt lat="43.6039388" lon="6.8069223"><ele>234.0</ele><time>2026-04-12T06:26:17.932Z</time></trkpt><trkpt lat="43.6038635" lon="6.8068949"><ele>234.0</ele><time>2026-04-12T06:26:18.884Z</time></trkpt><trkpt lat="43.6037851" lon="6.8068654"><ele>234.0</ele><time>2026-04-12T06:26:19.934Z</time></trkpt><trkpt lat="43.6037108" lon="6.8068374"><ele>234.0</ele><time>2026-04-12T06:26:20.91Z</time></trkpt><trkpt lat="43.6036437" lon="6.8068091"><ele>234.0</ele><time>2026-04-12T06:26:21.921Z</time></trkpt><trkpt lat="43.6035689" lon="6.8067765"><ele>234.0</ele><time>2026-04-12T06:26:22.923Z</time></trkpt><trkpt lat="43.6034972" lon="6.8067411"><ele>234.0</ele><time>2026-04-12T06:26:23.935Z</time></trkpt><trkpt lat="43.6034272" lon="6.8067033"><ele>235.42857142857144</ele><time>2026-04-12T06:26:24.926Z</time></trkpt><trkpt lat="43.6033611" lon="6.8066579"><ele>236.8571428571429</ele><time>2026-04-12T06:26:25.922Z</time></trkpt><trkpt lat="43.6032965" lon="6.8066173"><ele>238.28571428571428</ele><time>2026-04-12T06:26:26.926Z</time></trkpt><trkpt lat="43.6032318" lon="6.8065692"><ele>239.71428571428572</ele><time>2026-04-12T06:26:27.936Z</time></trkpt><trkpt lat="43.6031685" lon="6.8065158"><ele>241.14285714285714</ele><time>2026-04-12T06:26:28.941Z</time></trkpt><trkpt lat="43.6031079" lon="6.806456"><ele>242.57142857142856</ele><time>2026-04-12T06:26:29.928Z</time></trkpt><trkpt lat="43.6030511" lon="6.8063878"><ele>243.99999999999997</ele><time>2026-04-12T06:26:30.923Z</time></trkpt><trkpt lat="43.6029912" lon="6.8063148"><ele>243.99999999999997</ele><time>2026-04-12T06:26:31.882Z</time></trkpt><trkpt lat="43.6029314" lon="6.8062505"><ele>244.0</ele><time>2026-04-12T06:26:32.938Z</time></trkpt><trkpt lat="43.6028775" lon="6.8061842"><ele>244.0</ele><time>2026-04-12T06:26:33.926Z</time></trkpt><trkpt lat="43.6028166" lon="6.8061242"><ele>244.0</ele><time>2026-04-12T06:26:34.909Z</time></trkpt><trkpt lat="43.6027553" lon="6.8060565"><ele>243.99999999999997</ele><time>2026-04-12T06:26:35.909Z</time></trkpt><trkpt lat="43.6026924" lon="6.8059982"><ele>244.0</ele><time>2026-04-12T06:26:36.899Z</time></trkpt><trkpt lat="43.6026279" lon="6.8059457"><ele>244.66666666666666</ele><time>2026-04-12T06:26:37.918Z</time></trkpt><trkpt lat="43.6025621" lon="6.8058895"><ele>245.33333333333331</ele><time>2026-04-12T06:26:38.925Z</time></trkpt><trkpt lat="43.602504" lon="6.8058327"><ele>246.0</ele><time>2026-04-12T06:26:39.922Z</time></trkpt><trkpt lat="43.6024378" lon="6.8057836"><ele>246.66666666666669</ele><time>2026-04-12T06:26:40.922Z</time></trkpt><trkpt lat="43.6023671" lon="6.8057483"><ele>247.33333333333334</ele><time>2026-04-12T06:26:41.912Z</time></trkpt><trkpt lat="43.6022914" lon="6.8057097"><ele>248.0</ele><time>2026-04-12T06:26:42.911Z</time></trkpt><trkpt lat="43.6022169" lon="6.8056668"><ele>248.00000000000003</ele><time>2026-04-12T06:26:43.936Z</time></trkpt><trkpt lat="43.6021466" lon="6.8056206"><ele>248.0</ele><time>2026-04-12T06:26:44.92Z</time></trkpt><trkpt lat="43.6020749" lon="6.80558"><ele>248.0</ele><time>2026-04-12T06:26:45.936Z</time></trkpt><trkpt lat="43.6020013" lon="6.805538"><ele>248.0</ele><time>2026-04-12T06:26:46.902Z</time></trkpt><trkpt lat="43.6019322" lon="6.805495"><ele>248.00000000000003</ele><time>2026-04-12T06:26:47.939Z</time></trkpt><trkpt lat="43.6018584" lon="6.805442"><ele>248.0</ele><time>2026-04-12T06:26:48.929Z</time></trkpt><trkpt lat="43.6017909" lon="6.8053877"><ele>247.00000000000003</ele><time>2026-04-12T06:26:49.886Z</time></trkpt><trkpt lat="43.6017252" lon="6.8053321"><ele>246.0</ele><time>2026-04-12T06:26:50.924Z</time></trkpt><trkpt lat="43.6016601" lon="6.8052782"><ele>245.0</ele><time>2026-04-12T06:26:51.927Z</time></trkpt><trkpt lat="43.6015958" lon="6.8052172"><ele>244.0</ele><time>2026-04-12T06:26:52.909Z</time></trkpt><trkpt lat="43.6015301" lon="6.8051572"><ele>243.00000000000003</ele><time>2026-04-12T06:26:53.89Z</time></trkpt><trkpt lat="43.6014696" lon="6.8050927"><ele>242.0</ele><time>2026-04-12T06:26:54.908Z</time></trkpt><trkpt lat="43.601414" lon="6.8050268"><ele>242.57142857142856</ele><time>2026-04-12T06:26:55.884Z</time></trkpt><trkpt lat="43.6013541" lon="6.8049647"><ele>243.1428571428571</ele><time>2026-04-12T06:26:56.926Z</time></trkpt><trkpt lat="43.6012933" lon="6.8049049"><ele>243.71428571428572</ele><time>2026-04-12T06:26:57.894Z</time></trkpt><trkpt lat="43.6012315" lon="6.804837"><ele>244.28571428571428</ele><time>2026-04-12T06:26:58.928Z</time></trkpt><trkpt lat="43.6011753" lon="6.8047776"><ele>244.85714285714286</ele><time>2026-04-12T06:26:59.902Z</time></trkpt><trkpt lat="43.6011207" lon="6.80471"><ele>245.42857142857144</ele><time>2026-04-12T06:27:00.919Z</time></trkpt><trkpt lat="43.6010613" lon="6.8046468"><ele>246.00000000000003</ele><time>2026-04-12T06:27:01.9Z</time></trkpt><trkpt lat="43.6010031" lon="6.8045763"><ele>246.0</ele><time>2026-04-12T06:27:02.892Z</time></trkpt><trkpt lat="43.6009448" lon="6.8045023"><ele>246.0</ele><time>2026-04-12T06:27:03.942Z</time></trkpt><trkpt lat="43.6008883" lon="6.8044266"><ele>246.0</ele><time>2026-04-12T06:27:04.897Z</time></trkpt><trkpt lat="43.6008232" lon="6.8043563"><ele>246.0</ele><time>2026-04-12T06:27:05.93Z</time></trkpt><trkpt lat="43.600764" lon="6.8042855"><ele>246.0</ele><time>2026-04-12T06:27:06.899Z</time></trkpt><trkpt lat="43.6007084" lon="6.8042146"><ele>246.0</ele><time>2026-04-12T06:27:07.916Z</time></trkpt><trkpt lat="43.6006537" lon="6.8041387"><ele>247.83333333333334</ele><time>2026-04-12T06:27:08.914Z</time></trkpt><trkpt lat="43.6006003" lon="6.8040659"><ele>249.66666666666669</ele><time>2026-04-12T06:27:09.904Z</time></trkpt><trkpt lat="43.6005522" lon="6.8039824"><ele>251.5</ele><time>2026-04-12T06:27:10.913Z</time></trkpt><trkpt lat="43.6004996" lon="6.8038978"><ele>253.33333333333334</ele><time>2026-04-12T06:27:11.94Z</time></trkpt><trkpt lat="43.6004431" lon="6.8038162"><ele>255.16666666666669</ele><time>2026-04-12T06:27:12.924Z</time></trkpt><trkpt lat="43.6003935" lon="6.8037286"><ele>257.0</ele><time>2026-04-12T06:27:13.905Z</time></trkpt><trkpt lat="43.6003433" lon="6.8036422"><ele>256.33333333333337</ele><time>2026-04-12T06:27:14.926Z</time></trkpt><trkpt lat="43.6002922" lon="6.8035553"><ele>255.66666666666669</ele><time>2026-04-12T06:27:15.92Z</time></trkpt><trkpt lat="43.6002464" lon="6.8034678"><ele>255.0</ele><time>2026-04-12T06:27:16.922Z</time></trkpt><trkpt lat="43.6001974" lon="6.8033794"><ele>254.33333333333331</ele><time>2026-04-12T06:27:17.913Z</time></trkpt><trkpt lat="43.6001454" lon="6.8032908"><ele>253.66666666666666</ele><time>2026-04-12T06:27:18.891Z</time></trkpt><trkpt lat="43.600098" lon="6.8032056"><ele>253.0</ele><time>2026-04-12T06:27:19.917Z</time></trkpt><trkpt lat="43.6000486" lon="6.8031238"><ele>252.99999999999997</ele><time>2026-04-12T06:27:20.945Z</time></trkpt><trkpt lat="43.6000006" lon="6.8030423"><ele>253.0</ele><time>2026-04-12T06:27:21.913Z</time></trkpt><trkpt lat="43.599951" lon="6.8029667"><ele>253.0</ele><time>2026-04-12T06:27:22.919Z</time></trkpt><trkpt lat="43.5998947" lon="6.8028928"><ele>253.0</ele><time>2026-04-12T06:27:23.926Z</time></trkpt><trkpt lat="43.599843" lon="6.8028167"><ele>252.99999999999997</ele><time>2026-04-12T06:27:24.91Z</time></trkpt><trkpt lat="43.5997884" lon="6.8027431"><ele>253.0</ele><time>2026-04-12T06:27:25.937Z</time></trkpt><trkpt lat="43.5997312" lon="6.802674"><ele>253.16666666666666</ele><time>2026-04-12T06:27:26.883Z</time></trkpt><trkpt lat="43.5996722" lon="6.8026031"><ele>253.33333333333331</ele><time>2026-04-12T06:27:27.917Z</time></trkpt><trkpt lat="43.5996108" lon="6.802541"><ele>253.5</ele><time>2026-04-12T06:27:28.929Z</time></trkpt><trkpt lat="43.5995445" lon="6.8024792"><ele>253.66666666666669</ele><time>2026-04-12T06:27:29.915Z</time></trkpt><trkpt lat="43.5994798" lon="6.8024161"><ele>253.83333333333334</ele><time>2026-04-12T06:27:30.925Z</time></trkpt><trkpt lat="43.5994139" lon="6.8023475"><ele>254.0</ele><time>2026-04-12T06:27:31.905Z</time></trkpt><trkpt lat="43.5993408" lon="6.8022892"><ele>254.00000000000003</ele><time>2026-04-12T06:27:32.915Z</time></trkpt><trkpt lat="43.5992705" lon="6.8022221"><ele>254.0</ele><time>2026-04-12T06:27:33.922Z</time></trkpt><trkpt lat="43.5991999" lon="6.8021598"><ele>254.0</ele><time>2026-04-12T06:27:34.89Z</time></trkpt><trkpt lat="43.5991301" lon="6.8021023"><ele>254.0</ele><time>2026-04-12T06:27:35.913Z</time></trkpt><trkpt lat="43.599058" lon="6.8020341"><ele>254.00000000000003</ele><time>2026-04-12T06:27:36.929Z</time></trkpt><trkpt lat="43.5989847" lon="6.8019537"><ele>254.0</ele><time>2026-04-12T06:27:37.911Z</time></trkpt><trkpt lat="43.59891" lon="6.801873"><ele>254.0</ele><time>2026-04-12T06:27:38.933Z</time></trkpt><trkpt lat="43.5988372" lon="6.8017824"><ele>253.99999999999997</ele><time>2026-04-12T06:27:39.932Z</time></trkpt><trkpt lat="43.5987651" lon="6.8016861"><ele>253.99999999999997</ele><time>2026-04-12T06:27:40.91Z</time></trkpt><trkpt lat="43.5986987" lon="6.801581"><ele>254.0</ele><time>2026-04-12T06:27:41.927Z</time></trkpt><trkpt lat="43.5986259" lon="6.8014655"><ele>254.0</ele><time>2026-04-12T06:27:42.901Z</time></trkpt><trkpt lat="43.5985538" lon="6.8013516"><ele>254.0</ele><time>2026-04-12T06:27:43.92Z</time></trkpt><trkpt lat="43.5984797" lon="6.8012481"><ele>253.99999999999997</ele><time>2026-04-12T06:27:44.917Z</time></trkpt><trkpt lat="43.5984172" lon="6.8011368"><ele>253.99999999999997</ele><time>2026-04-12T06:27:45.932Z</time></trkpt><trkpt lat="43.5983489" lon="6.8010289"><ele>254.0</ele><time>2026-04-12T06:27:46.924Z</time></trkpt><trkpt lat="43.5982818" lon="6.8009185"><ele>254.0</ele><time>2026-04-12T06:27:47.93Z</time></trkpt><trkpt lat="43.5982134" lon="6.8008093"><ele>254.39999999999998</ele><time>2026-04-12T06:27:48.908Z</time></trkpt><trkpt lat="43.598145" lon="6.8007012"><ele>254.79999999999998</ele><time>2026-04-12T06:27:49.91Z</time></trkpt><trkpt lat="43.5980808" lon="6.8005921"><ele>255.20000000000002</ele><time>2026-04-12T06:27:50.937Z</time></trkpt><trkpt lat="43.5980213" lon="6.8004922"><ele>255.60000000000002</ele><time>2026-04-12T06:27:51.903Z</time></trkpt><trkpt lat="43.5979632" lon="6.8003903"><ele>256.0</ele><time>2026-04-12T06:27:52.928Z</time></trkpt><trkpt lat="43.597907" lon="6.8002872"><ele>255.99999999999997</ele><time>2026-04-12T06:27:53.901Z</time></trkpt><trkpt lat="43.5978461" lon="6.8001918"><ele>256.0</ele><time>2026-04-12T06:27:54.92Z</time></trkpt><trkpt lat="43.5977944" lon="6.8000997"><ele>256.0</ele><time>2026-04-12T06:27:55.922Z</time></trkpt><trkpt lat="43.5977454" lon="6.8000029"><ele>256.0</ele><time>2026-04-12T06:27:56.929Z</time></trkpt><trkpt lat="43.597704" lon="6.7999036"><ele>255.99999999999997</ele><time>2026-04-12T06:27:57.906Z</time></trkpt><trkpt lat="43.5976635" lon="6.7998014"><ele>256.0</ele><time>2026-04-12T06:27:58.886Z</time></trkpt><trkpt lat="43.5976239" lon="6.7996946"><ele>255.83333333333331</ele><time>2026-04-12T06:27:59.882Z</time></trkpt><trkpt lat="43.597589" lon="6.7995733"><ele>255.66666666666666</ele><time>2026-04-12T06:28:00.882Z</time></trkpt><trkpt lat="43.5975535" lon="6.7994662"><ele>255.5</ele><time>2026-04-12T06:28:01.885Z</time></trkpt><trkpt lat="43.5975175" lon="6.7993574"><ele>255.33333333333331</ele><time>2026-04-12T06:28:02.917Z</time></trkpt><trkpt lat="43.5974797" lon="6.7992477"><ele>255.16666666666666</ele><time>2026-04-12T06:28:03.934Z</time></trkpt><trkpt lat="43.5974435" lon="6.7991455"><ele>255.0</ele><time>2026-04-12T06:28:04.915Z</time></trkpt><trkpt lat="43.597408" lon="6.7990374"><ele>256.1666666666667</ele><time>2026-04-12T06:28:05.91Z</time></trkpt><trkpt lat="43.597373" lon="6.7989342"><ele>257.3333333333333</ele><time>2026-04-12T06:28:06.936Z</time></trkpt><trkpt lat="43.5973382" lon="6.7988296"><ele>258.5</ele><time>2026-04-12T06:28:07.926Z</time></trkpt><trkpt lat="43.5973064" lon="6.7987186"><ele>259.66666666666663</ele><time>2026-04-12T06:28:08.926Z</time></trkpt><trkpt lat="43.5972635" lon="6.7985994"><ele>260.8333333333333</ele><time>2026-04-12T06:28:09.914Z</time></trkpt><trkpt lat="43.59722" lon="6.7984861"><ele>262.0</ele><time>2026-04-12T06:28:10.914Z</time></trkpt><trkpt lat="43.5971841" lon="6.7983723"><ele>262.8</ele><time>2026-04-12T06:28:11.933Z</time></trkpt><trkpt lat="43.5971474" lon="6.7982618"><ele>263.6</ele><time>2026-04-12T06:28:12.928Z</time></trkpt><trkpt lat="43.5971091" lon="6.7981463"><ele>264.40000000000003</ele><time>2026-04-12T06:28:13.91Z</time></trkpt><trkpt lat="43.5970664" lon="6.7980327"><ele>265.2</ele><time>2026-04-12T06:28:14.919Z</time></trkpt><trkpt lat="43.5970154" lon="6.7979176"><ele>266.0</ele><time>2026-04-12T06:28:15.905Z</time></trkpt><trkpt lat="43.5969722" lon="6.7977941"><ele>264.0</ele><time>2026-04-12T06:28:16.933Z</time></trkpt><trkpt lat="43.5969273" lon="6.7976732"><ele>262.0</ele><time>2026-04-12T06:28:17.903Z</time></trkpt><trkpt lat="43.596883" lon="6.7975468"><ele>260.0</ele><time>2026-04-12T06:28:18.912Z</time></trkpt><trkpt lat="43.5968372" lon="6.7974215"><ele>258.0</ele><time>2026-04-12T06:28:19.944Z</time></trkpt><trkpt lat="43.5967938" lon="6.7972925"><ele>256.0</ele><time>2026-04-12T06:28:20.932Z</time></trkpt><trkpt lat="43.5967516" lon="6.7971677"><ele>256.0</ele><time>2026-04-12T06:28:21.914Z</time></trkpt><trkpt lat="43.5967019" lon="6.7970367"><ele>256.0</ele><time>2026-04-12T06:28:22.925Z</time></trkpt><trkpt lat="43.5966581" lon="6.796907"><ele>256.0</ele><time>2026-04-12T06:28:23.925Z</time></trkpt><trkpt lat="43.5966159" lon="6.7967799"><ele>256.0</ele><time>2026-04-12T06:28:24.917Z</time></trkpt><trkpt lat="43.5965787" lon="6.7966416"><ele>256.0</ele><time>2026-04-12T06:28:25.891Z</time></trkpt><trkpt lat="43.5965591" lon="6.7964897"><ele>256.75</ele><time>2026-04-12T06:28:26.905Z</time></trkpt><trkpt lat="43.5965456" lon="6.796338"><ele>257.5</ele><time>2026-04-12T06:28:27.914Z</time></trkpt><trkpt lat="43.5965429" lon="6.796182"><ele>258.25</ele><time>2026-04-12T06:28:28.904Z</time></trkpt><trkpt lat="43.5965495" lon="6.7960189"><ele>259.0</ele><time>2026-04-12T06:28:29.894Z</time></trkpt><trkpt lat="43.5965631" lon="6.7958539"><ele>259.0</ele><time>2026-04-12T06:28:30.921Z</time></trkpt><trkpt lat="43.5965827" lon="6.7956849"><ele>259.0</ele><time>2026-04-12T06:28:31.915Z</time></trkpt><trkpt lat="43.5966095" lon="6.7955108"><ele>259.0</ele><time>2026-04-12T06:28:32.883Z</time></trkpt><trkpt lat="43.5966505" lon="6.7953374"><ele>259.0</ele><time>2026-04-12T06:28:33.923Z</time></trkpt><trkpt lat="43.5967061" lon="6.7951686"><ele>257.5</ele><time>2026-04-12T06:28:34.92Z</time></trkpt><trkpt lat="43.5967653" lon="6.7950059"><ele>256.0</ele><time>2026-04-12T06:28:35.915Z</time></trkpt><trkpt lat="43.5968294" lon="6.794841"><ele>254.5</ele><time>2026-04-12T06:28:36.935Z</time></trkpt><trkpt lat="43.5968964" lon="6.7946816"><ele>253.0</ele><time>2026-04-12T06:28:37.938Z</time></trkpt><trkpt lat="43.5969737" lon="6.7945156"><ele>254.75</ele><time>2026-04-12T06:28:38.922Z</time></trkpt><trkpt lat="43.5970387" lon="6.7943492"><ele>256.5</ele><time>2026-04-12T06:28:39.9Z</time></trkpt><trkpt lat="43.5970901" lon="6.7941761"><ele>258.25</ele><time>2026-04-12T06:28:40.911Z</time></trkpt><trkpt lat="43.5971255" lon="6.793983"><ele>260.0</ele><time>2026-04-12T06:28:41.874Z</time></trkpt><trkpt lat="43.5971529" lon="6.7937872"><ele>260.0</ele><time>2026-04-12T06:28:42.917Z</time></trkpt><trkpt lat="43.5971757" lon="6.79359"><ele>260.0</ele><time>2026-04-12T06:28:43.912Z</time></trkpt><trkpt lat="43.5971821" lon="6.7933921"><ele>260.0</ele><time>2026-04-12T06:28:44.904Z</time></trkpt><trkpt lat="43.5971789" lon="6.7931947"><ele>260.0</ele><time>2026-04-12T06:28:45.914Z</time></trkpt><trkpt lat="43.5971787" lon="6.7929952"><ele>257.75</ele><time>2026-04-12T06:28:46.913Z</time></trkpt><trkpt lat="43.5971798" lon="6.7927958"><ele>255.5</ele><time>2026-04-12T06:28:47.895Z</time></trkpt><trkpt lat="43.5971773" lon="6.7925923"><ele>253.25</ele><time>2026-04-12T06:28:48.922Z</time></trkpt><trkpt lat="43.5971722" lon="6.7923881"><ele>251.0</ele><time>2026-04-12T06:28:49.866Z</time></trkpt><trkpt lat="43.5971673" lon="6.7921805"><ele>250.0</ele><time>2026-04-12T06:28:50.915Z</time></trkpt><trkpt lat="43.5971646" lon="6.7919711"><ele>249.0</ele><time>2026-04-12T06:28:51.916Z</time></trkpt><trkpt lat="43.5971645" lon="6.7917593"><ele>248.0</ele><time>2026-04-12T06:28:52.92Z</time></trkpt><trkpt lat="43.5971764" lon="6.791552"><ele>246.66666666666669</ele><time>2026-04-12T06:28:53.915Z</time></trkpt><trkpt lat="43.5972038" lon="6.7913492"><ele>245.33333333333331</ele><time>2026-04-12T06:28:54.911Z</time></trkpt><trkpt lat="43.5972481" lon="6.7911477"><ele>244.0</ele><time>2026-04-12T06:28:55.928Z</time></trkpt><trkpt lat="43.5973036" lon="6.7909509"><ele>242.0</ele><time>2026-04-12T06:28:56.9Z</time></trkpt><trkpt lat="43.5973619" lon="6.7907583"><ele>240.0</ele><time>2026-04-12T06:28:57.924Z</time></trkpt><trkpt lat="43.5974174" lon="6.7905652"><ele>238.0</ele><time>2026-04-12T06:28:58.904Z</time></trkpt><trkpt lat="43.5974714" lon="6.7903751"><ele>236.0</ele><time>2026-04-12T06:28:59.912Z</time></trkpt><trkpt lat="43.5975302" lon="6.7901853"><ele>234.0</ele><time>2026-04-12T06:29:00.898Z</time></trkpt><trkpt lat="43.5975928" lon="6.7899939"><ele>232.0</ele><time>2026-04-12T06:29:01.902Z</time></trkpt><trkpt lat="43.5976575" lon="6.7898063"><ele>230.0</ele><time>2026-04-12T06:29:02.924Z</time></trkpt><trkpt lat="43.5977289" lon="6.7896204"><ele>230.0</ele><time>2026-04-12T06:29:03.92Z</time></trkpt><trkpt lat="43.5978085" lon="6.7894405"><ele>230.0</ele><time>2026-04-12T06:29:04.913Z</time></trkpt><trkpt lat="43.5978944" lon="6.789266"><ele>230.0</ele><time>2026-04-12T06:29:05.935Z</time></trkpt><trkpt lat="43.5979801" lon="6.7890965"><ele>230.0</ele><time>2026-04-12T06:29:06.9Z</time></trkpt><trkpt lat="43.5980697" lon="6.7889257"><ele>230.0</ele><time>2026-04-12T06:29:07.923Z</time></trkpt><trkpt lat="43.5981592" lon="6.7887568"><ele>230.0</ele><time>2026-04-12T06:29:08.905Z</time></trkpt><trkpt lat="43.5982451" lon="6.7885825"><ele>228.66666666666669</ele><time>2026-04-12T06:29:09.924Z</time></trkpt><trkpt lat="43.5983264" lon="6.7884049"><ele>227.33333333333331</ele><time>2026-04-12T06:29:10.91Z</time></trkpt><trkpt lat="43.5984065" lon="6.7882264"><ele>226.0</ele><time>2026-04-12T06:29:11.934Z</time></trkpt><trkpt lat="43.5984795" lon="6.788049"><ele>226.0</ele><time>2026-04-12T06:29:12.921Z</time></trkpt><trkpt lat="43.598542" lon="6.7878697"><ele>226.0</ele><time>2026-04-12T06:29:13.915Z</time></trkpt><trkpt lat="43.5986041" lon="6.7876895"><ele>226.0</ele><time>2026-04-12T06:29:14.917Z</time></trkpt><trkpt lat="43.5986685" lon="6.7875143"><ele>226.0</ele><time>2026-04-12T06:29:15.923Z</time></trkpt><trkpt lat="43.5987327" lon="6.7873312"><ele>223.5</ele><time>2026-04-12T06:29:16.901Z</time></trkpt><trkpt lat="43.5988005" lon="6.7871521"><ele>221.0</ele><time>2026-04-12T06:29:17.925Z</time></trkpt><trkpt lat="43.5988613" lon="6.7869751"><ele>218.5</ele><time>2026-04-12T06:29:18.94Z</time></trkpt><trkpt lat="43.5989171" lon="6.7867953"><ele>216.0</ele><time>2026-04-12T06:29:19.937Z</time></trkpt><trkpt lat="43.598979" lon="6.7866364"><ele>214.0</ele><time>2026-04-12T06:29:20.867Z</time></trkpt><trkpt lat="43.5990549" lon="6.7864968"><ele>212.0</ele><time>2026-04-12T06:29:21.867Z</time></trkpt><trkpt lat="43.5991493" lon="6.7863921"><ele>210.0</ele><time>2026-04-12T06:29:22.937Z</time></trkpt><trkpt lat="43.5992563" lon="6.786318"><ele>208.0</ele><time>2026-04-12T06:29:23.918Z</time></trkpt><trkpt lat="43.5993817" lon="6.7862849"><ele>208.0</ele><time>2026-04-12T06:29:24.917Z</time></trkpt><trkpt lat="43.5994958" lon="6.7863074"><ele>208.0</ele><time>2026-04-12T06:29:25.913Z</time></trkpt><trkpt lat="43.5996036" lon="6.7863633"><ele>208.0</ele><time>2026-04-12T06:29:26.921Z</time></trkpt><trkpt lat="43.5997106" lon="6.7864403"><ele>208.0</ele><time>2026-04-12T06:29:27.925Z</time></trkpt><trkpt lat="43.5998135" lon="6.7865211"><ele>207.5</ele><time>2026-04-12T06:29:28.875Z</time></trkpt><trkpt lat="43.5999226" lon="6.7865784"><ele>207.0</ele><time>2026-04-12T06:29:29.919Z</time></trkpt><trkpt lat="43.6000378" lon="6.7866086"><ele>206.5</ele><time>2026-04-12T06:29:30.935Z</time></trkpt><trkpt lat="43.6001501" lon="6.7866246"><ele>206.0</ele><time>2026-04-12T06:29:31.94Z</time></trkpt><trkpt lat="43.6002593" lon="6.7865895"><ele>206.60000000000002</ele><time>2026-04-12T06:29:32.908Z</time></trkpt><trkpt lat="43.6003675" lon="6.7865364"><ele>207.2</ele><time>2026-04-12T06:29:33.884Z</time></trkpt><trkpt lat="43.6004661" lon="6.7864791"><ele>207.8</ele><time>2026-04-12T06:29:34.918Z</time></trkpt><trkpt lat="43.6005625" lon="6.7864078"><ele>208.39999999999998</ele><time>2026-04-12T06:29:35.917Z</time></trkpt><trkpt lat="43.6006513" lon="6.7863217"><ele>209.0</ele><time>2026-04-12T06:29:36.928Z</time></trkpt><trkpt lat="43.600735" lon="6.7862385"><ele>209.0</ele><time>2026-04-12T06:29:37.923Z</time></trkpt><trkpt lat="43.6008135" lon="6.7861544"><ele>209.0</ele><time>2026-04-12T06:29:38.903Z</time></trkpt><trkpt lat="43.6008923" lon="6.7860718"><ele>209.0</ele><time>2026-04-12T06:29:39.889Z</time></trkpt><trkpt lat="43.6009694" lon="6.785991"><ele>209.0</ele><time>2026-04-12T06:29:40.925Z</time></trkpt><trkpt lat="43.6010431" lon="6.7859081"><ele>209.0</ele><time>2026-04-12T06:29:41.933Z</time></trkpt><trkpt lat="43.6011201" lon="6.7858296"><ele>208.79999999999998</ele><time>2026-04-12T06:29:42.916Z</time></trkpt><trkpt lat="43.6012026" lon="6.7857622"><ele>208.6</ele><time>2026-04-12T06:29:43.936Z</time></trkpt><trkpt lat="43.6012834" lon="6.7856918"><ele>208.4</ele><time>2026-04-12T06:29:44.941Z</time></trkpt><trkpt lat="43.6013694" lon="6.7856274"><ele>208.2</ele><time>2026-04-12T06:29:45.918Z</time></trkpt><trkpt lat="43.6014593" lon="6.7855654"><ele>208.0</ele><time>2026-04-12T06:29:46.916Z</time></trkpt><trkpt lat="43.6015487" lon="6.785504"><ele>208.0</ele><time>2026-04-12T06:29:47.929Z</time></trkpt><trkpt lat="43.6016429" lon="6.7854343"><ele>208.0</ele><time>2026-04-12T06:29:48.925Z</time></trkpt><trkpt lat="43.6017422" lon="6.7853669"><ele>208.0</ele><time>2026-04-12T06:29:49.907Z</time></trkpt><trkpt lat="43.6018439" lon="6.7852924"><ele>208.0</ele><time>2026-04-12T06:29:50.908Z</time></trkpt><trkpt lat="43.6019411" lon="6.7852119"><ele>208.0</ele><time>2026-04-12T06:29:51.932Z</time></trkpt><trkpt lat="43.6020391" lon="6.7851234"><ele>206.0</ele><time>2026-04-12T06:29:52.903Z</time></trkpt><trkpt lat="43.6021386" lon="6.7850337"><ele>204.0</ele><time>2026-04-12T06:29:53.943Z</time></trkpt><trkpt lat="43.6022447" lon="6.7849388"><ele>202.0</ele><time>2026-04-12T06:29:54.909Z</time></trkpt><trkpt lat="43.602358" lon="6.7848459"><ele>200.0</ele><time>2026-04-12T06:29:55.918Z</time></trkpt><trkpt lat="43.6024686" lon="6.7847494"><ele>200.0</ele><time>2026-04-12T06:29:56.888Z</time></trkpt><trkpt lat="43.6025812" lon="6.7846484"><ele>200.0</ele><time>2026-04-12T06:29:57.935Z</time></trkpt><trkpt lat="43.6026907" lon="6.7845452"><ele>200.0</ele><time>2026-04-12T06:29:58.89Z</time></trkpt><trkpt lat="43.6027999" lon="6.7844415"><ele>200.0</ele><time>2026-04-12T06:29:59.892Z</time></trkpt><trkpt lat="43.6029111" lon="6.7843439"><ele>199.5</ele><time>2026-04-12T06:30:00.929Z</time></trkpt><trkpt lat="43.6030223" lon="6.7842455"><ele>199.0</ele><time>2026-04-12T06:30:01.901Z</time></trkpt><trkpt lat="43.6031291" lon="6.7841491"><ele>198.5</ele><time>2026-04-12T06:30:02.936Z</time></trkpt><trkpt lat="43.6032338" lon="6.7840494"><ele>198.0</ele><time>2026-04-12T06:30:03.943Z</time></trkpt><trkpt lat="43.6033373" lon="6.7839537"><ele>198.0</ele><time>2026-04-12T06:30:04.903Z</time></trkpt><trkpt lat="43.603446" lon="6.7838647"><ele>198.0</ele><time>2026-04-12T06:30:05.915Z</time></trkpt><trkpt lat="43.6035566" lon="6.7837774"><ele>198.0</ele><time>2026-04-12T06:30:06.893Z</time></trkpt><trkpt lat="43.6036655" lon="6.7836915"><ele>198.0</ele><time>2026-04-12T06:30:07.934Z</time></trkpt><trkpt lat="43.6037723" lon="6.7836042"><ele>198.25</ele><time>2026-04-12T06:30:08.929Z</time></trkpt><trkpt lat="43.6038722" lon="6.7835073"><ele>198.5</ele><time>2026-04-12T06:30:09.917Z</time></trkpt><trkpt lat="43.6039741" lon="6.7834115"><ele>198.75</ele><time>2026-04-12T06:30:10.925Z</time></trkpt><trkpt lat="43.6040808" lon="6.7833193"><ele>199.0</ele><time>2026-04-12T06:30:11.944Z</time></trkpt><trkpt lat="43.6041865" lon="6.7832274"><ele>199.0</ele><time>2026-04-12T06:30:12.926Z</time></trkpt><trkpt lat="43.6042969" lon="6.7831382"><ele>199.0</ele><time>2026-04-12T06:30:13.921Z</time></trkpt><trkpt lat="43.6044007" lon="6.7830473"><ele>199.0</ele><time>2026-04-12T06:30:14.914Z</time></trkpt><trkpt lat="43.6044997" lon="6.7829515"><ele>199.0</ele><time>2026-04-12T06:30:15.951Z</time></trkpt><trkpt lat="43.6045881" lon="6.7828485"><ele>198.75</ele><time>2026-04-12T06:30:16.934Z</time></trkpt><trkpt lat="43.6046742" lon="6.7827448"><ele>198.5</ele><time>2026-04-12T06:30:17.922Z</time></trkpt><trkpt lat="43.6047597" lon="6.7826387"><ele>198.25</ele><time>2026-04-12T06:30:18.901Z</time></trkpt><trkpt lat="43.6048434" lon="6.782533"><ele>198.0</ele><time>2026-04-12T06:30:19.928Z</time></trkpt><trkpt lat="43.6049284" lon="6.782433"><ele>198.0</ele><time>2026-04-12T06:30:20.919Z</time></trkpt><trkpt lat="43.6050088" lon="6.7823331"><ele>198.0</ele><time>2026-04-12T06:30:21.927Z</time></trkpt><trkpt lat="43.6050865" lon="6.7822316"><ele>198.0</ele><time>2026-04-12T06:30:22.921Z</time></trkpt><trkpt lat="43.6051562" lon="6.7821309"><ele>198.0</ele><time>2026-04-12T06:30:23.931Z</time></trkpt><trkpt lat="43.6052164" lon="6.7820137"><ele>198.0</ele><time>2026-04-12T06:30:24.933Z</time></trkpt><trkpt lat="43.6052738" lon="6.7818883"><ele>198.4</ele><time>2026-04-12T06:30:25.93Z</time></trkpt><trkpt lat="43.6053314" lon="6.7817604"><ele>198.8</ele><time>2026-04-12T06:30:26.897Z</time></trkpt><trkpt lat="43.6053848" lon="6.7816326"><ele>199.2</ele><time>2026-04-12T06:30:27.926Z</time></trkpt><trkpt lat="43.6054422" lon="6.7815073"><ele>199.6</ele><time>2026-04-12T06:30:28.9Z</time></trkpt><trkpt lat="43.6055067" lon="6.7813848"><ele>200.0</ele><time>2026-04-12T06:30:29.921Z</time></trkpt><trkpt lat="43.6055634" lon="6.7812566"><ele>200.0</ele><time>2026-04-12T06:30:30.926Z</time></trkpt><trkpt lat="43.605629" lon="6.781133"><ele>200.0</ele><time>2026-04-12T06:30:31.896Z</time></trkpt><trkpt lat="43.6056878" lon="6.7810079"><ele>200.0</ele><time>2026-04-12T06:30:32.903Z</time></trkpt><trkpt lat="43.6057548" lon="6.7808873"><ele>200.0</ele><time>2026-04-12T06:30:33.9Z</time></trkpt><trkpt lat="43.6058269" lon="6.7807702"><ele>200.0</ele><time>2026-04-12T06:30:34.93Z</time></trkpt><trkpt lat="43.6058974" lon="6.7806631"><ele>200.0</ele><time>2026-04-12T06:30:35.954Z</time></trkpt><trkpt lat="43.605962" lon="6.7805533"><ele>200.0</ele><time>2026-04-12T06:30:36.899Z</time></trkpt><trkpt lat="43.6060245" lon="6.7804419"><ele>200.0</ele><time>2026-04-12T06:30:37.909Z</time></trkpt><trkpt lat="43.6060859" lon="6.7803283"><ele>200.0</ele><time>2026-04-12T06:30:38.939Z</time></trkpt><trkpt lat="43.6061448" lon="6.7802201"><ele>200.0</ele><time>2026-04-12T06:30:39.923Z</time></trkpt><trkpt lat="43.6062025" lon="6.7801093"><ele>200.0</ele><time>2026-04-12T06:30:40.938Z</time></trkpt><trkpt lat="43.6062465" lon="6.7799834"><ele>200.0</ele><time>2026-04-12T06:30:41.941Z</time></trkpt><trkpt lat="43.606276" lon="6.7798558"><ele>200.0</ele><time>2026-04-12T06:30:42.928Z</time></trkpt><trkpt lat="43.6062974" lon="6.7797212"><ele>200.0</ele><time>2026-04-12T06:30:43.911Z</time></trkpt><trkpt lat="43.606315" lon="6.7795853"><ele>200.0</ele><time>2026-04-12T06:30:44.927Z</time></trkpt><trkpt lat="43.6063406" lon="6.7794566"><ele>200.0</ele><time>2026-04-12T06:30:45.93Z</time></trkpt><trkpt lat="43.6063629" lon="6.7793248"><ele>200.0</ele><time>2026-04-12T06:30:46.916Z</time></trkpt><trkpt lat="43.6063863" lon="6.779195"><ele>200.0</ele><time>2026-04-12T06:30:47.919Z</time></trkpt><trkpt lat="43.6064099" lon="6.7790648"><ele>200.0</ele><time>2026-04-12T06:30:48.924Z</time></trkpt><trkpt lat="43.606434" lon="6.7789348"><ele>200.0</ele><time>2026-04-12T06:30:49.915Z</time></trkpt><trkpt lat="43.6064594" lon="6.778805"><ele>200.0</ele><time>2026-04-12T06:30:50.917Z</time></trkpt><trkpt lat="43.6064858" lon="6.7786737"><ele>200.0</ele><time>2026-04-12T06:30:51.917Z</time></trkpt><trkpt lat="43.6065145" lon="6.7785444"><ele>200.0</ele><time>2026-04-12T06:30:52.91Z</time></trkpt><trkpt lat="43.6065494" lon="6.7784173"><ele>200.0</ele><time>2026-04-12T06:30:53.921Z</time></trkpt><trkpt lat="43.6065941" lon="6.7782972"><ele>200.0</ele><time>2026-04-12T06:30:54.917Z</time></trkpt><trkpt lat="43.606642" lon="6.778174"><ele>199.6</ele><time>2026-04-12T06:30:55.921Z</time></trkpt><trkpt lat="43.6066946" lon="6.7780645"><ele>199.2</ele><time>2026-04-12T06:30:56.918Z</time></trkpt><trkpt lat="43.6067523" lon="6.7779545"><ele>198.8</ele><time>2026-04-12T06:30:57.905Z</time></trkpt><trkpt lat="43.606808" lon="6.7778475"><ele>198.4</ele><time>2026-04-12T06:30:58.925Z</time></trkpt><trkpt lat="43.606859" lon="6.7777382"><ele>198.0</ele><time>2026-04-12T06:30:59.93Z</time></trkpt><trkpt lat="43.606905" lon="6.7776262"><ele>197.8</ele><time>2026-04-12T06:31:00.917Z</time></trkpt><trkpt lat="43.6069388" lon="6.7775015"><ele>197.60000000000002</ele><time>2026-04-12T06:31:01.912Z</time></trkpt><trkpt lat="43.6069718" lon="6.7773823"><ele>197.39999999999998</ele><time>2026-04-12T06:31:02.928Z</time></trkpt><trkpt lat="43.6070075" lon="6.7772687"><ele>197.2</ele><time>2026-04-12T06:31:03.921Z</time></trkpt><trkpt lat="43.6070605" lon="6.777164"><ele>197.0</ele><time>2026-04-12T06:31:04.927Z</time></trkpt><trkpt lat="43.6071196" lon="6.7770741"><ele>197.66666666666669</ele><time>2026-04-12T06:31:05.898Z</time></trkpt><trkpt lat="43.6071964" lon="6.7770046"><ele>198.33333333333334</ele><time>2026-04-12T06:31:06.944Z</time></trkpt><trkpt lat="43.6072759" lon="6.7769611"><ele>199.0</ele><time>2026-04-12T06:31:07.898Z</time></trkpt><trkpt lat="43.6073464" lon="6.7768991"><ele>199.66666666666669</ele><time>2026-04-12T06:31:08.924Z</time></trkpt><trkpt lat="43.6074077" lon="6.7768276"><ele>200.33333333333334</ele><time>2026-04-12T06:31:09.915Z</time></trkpt><trkpt lat="43.6074528" lon="6.7767339"><ele>201.0</ele><time>2026-04-12T06:31:10.927Z</time></trkpt><trkpt lat="43.6075016" lon="6.7766453"><ele>201.0</ele><time>2026-04-12T06:31:11.911Z</time></trkpt><trkpt lat="43.6075514" lon="6.7765542"><ele>201.0</ele><time>2026-04-12T06:31:12.905Z</time></trkpt><trkpt lat="43.607604" lon="6.7764725"><ele>201.0</ele><time>2026-04-12T06:31:13.921Z</time></trkpt><trkpt lat="43.6076543" lon="6.7763874"><ele>201.0</ele><time>2026-04-12T06:31:14.922Z</time></trkpt><trkpt lat="43.6076992" lon="6.776299"><ele>201.0</ele><time>2026-04-12T06:31:15.895Z</time></trkpt><trkpt lat="43.6077469" lon="6.7762217"><ele>201.0</ele><time>2026-04-12T06:31:16.935Z</time></trkpt><trkpt lat="43.6077884" lon="6.7761514"><ele>201.85714285714286</ele><time>2026-04-12T06:31:17.896Z</time></trkpt><trkpt lat="43.6078332" lon="6.7760822"><ele>202.71428571428572</ele><time>2026-04-12T06:31:18.893Z</time></trkpt><trkpt lat="43.6078753" lon="6.7760121"><ele>203.57142857142858</ele><time>2026-04-12T06:31:19.939Z</time></trkpt><trkpt lat="43.6079154" lon="6.7759427"><ele>204.42857142857144</ele><time>2026-04-12T06:31:20.945Z</time></trkpt><trkpt lat="43.607958" lon="6.7758746"><ele>205.28571428571428</ele><time>2026-04-12T06:31:21.93Z</time></trkpt><trkpt lat="43.6079974" lon="6.775804"><ele>206.14285714285717</ele><time>2026-04-12T06:31:22.898Z</time></trkpt><trkpt lat="43.6080354" lon="6.7757312"><ele>207.0</ele><time>2026-04-12T06:31:23.913Z</time></trkpt><trkpt lat="43.6080724" lon="6.7756608"><ele>207.5</ele><time>2026-04-12T06:31:24.935Z</time></trkpt><trkpt lat="43.6081401" lon="6.775521"><ele>208.0</ele><time>2026-04-12T06:31:26.931Z</time></trkpt><trkpt lat="43.6082202" lon="6.7753905"><ele>208.5</ele><time>2026-04-12T06:31:28.929Z</time></trkpt><trkpt lat="43.6082909" lon="6.7752694"><ele>209.0</ele><time>2026-04-12T06:31:30.929Z</time></trkpt><trkpt lat="43.6083581" lon="6.7751507"><ele>209.0</ele><time>2026-04-12T06:31:32.918Z</time></trkpt><trkpt lat="43.6084228" lon="6.7750387"><ele>209.0</ele><time>2026-04-12T06:31:34.882Z</time></trkpt><trkpt lat="43.6084825" lon="6.7749327"><ele>209.0</ele><time>2026-04-12T06:31:36.928Z</time></trkpt><trkpt lat="43.6085464" lon="6.7748288"><ele>209.0</ele><time>2026-04-12T06:31:38.915Z</time></trkpt><trkpt lat="43.6086011" lon="6.7747307"><ele>209.0</ele><time>2026-04-12T06:31:40.898Z</time></trkpt><trkpt lat="43.6086601" lon="6.7746254"><ele>210.66666666666669</ele><time>2026-04-12T06:31:42.908Z</time></trkpt><trkpt lat="43.6087237" lon="6.7745126"><ele>212.33333333333334</ele><time>2026-04-12T06:31:44.924Z</time></trkpt><trkpt lat="43.6087795" lon="6.7744096"><ele>214.0</ele><time>2026-04-12T06:31:46.935Z</time></trkpt><trkpt lat="43.6088302" lon="6.7743085"><ele>215.66666666666669</ele><time>2026-04-12T06:31:48.924Z</time></trkpt><trkpt lat="43.6088773" lon="6.7742209"><ele>217.33333333333334</ele><time>2026-04-12T06:31:50.899Z</time></trkpt><trkpt lat="43.6089285" lon="6.7741385"><ele>219.0</ele><time>2026-04-12T06:31:52.911Z</time></trkpt><trkpt lat="43.6089818" lon="6.7740498"><ele>219.0</ele><time>2026-04-12T06:31:54.935Z</time></trkpt><trkpt lat="43.6090318" lon="6.773964"><ele>219.0</ele><time>2026-04-12T06:31:56.926Z</time></trkpt><trkpt lat="43.6090854" lon="6.7738972"><ele>219.0</ele><time>2026-04-12T06:31:58.921Z</time></trkpt><trkpt lat="43.6091488" lon="6.773862"><ele>219.0</ele><time>2026-04-12T06:32:00.924Z</time></trkpt><trkpt lat="43.609235" lon="6.7739012"><ele>219.0</ele><time>2026-04-12T06:32:03.93Z</time></trkpt><trkpt lat="43.6092866" lon="6.7739862"><ele>219.0</ele><time>2026-04-12T06:32:05.883Z</time></trkpt><trkpt lat="43.6093415" lon="6.7740826"><ele>219.0</ele><time>2026-04-12T06:32:07.92Z</time></trkpt><trkpt lat="43.6093884" lon="6.7741693"><ele>219.0</ele><time>2026-04-12T06:32:09.928Z</time></trkpt><trkpt lat="43.6094385" lon="6.774249"><ele>219.0</ele><time>2026-04-12T06:32:11.92Z</time></trkpt><trkpt lat="43.6094929" lon="6.7743348"><ele>219.0</ele><time>2026-04-12T06:32:13.942Z</time></trkpt><trkpt lat="43.6095388" lon="6.7744251"><ele>219.0</ele><time>2026-04-12T06:32:15.883Z</time></trkpt><trkpt lat="43.6095891" lon="6.7745052"><ele>219.0</ele><time>2026-04-12T06:32:17.915Z</time></trkpt><trkpt lat="43.6096358" lon="6.7745929"><ele>221.5</ele><time>2026-04-12T06:32:19.907Z</time></trkpt><trkpt lat="43.6096845" lon="6.7746789"><ele>224.0</ele><time>2026-04-12T06:32:21.904Z</time></trkpt><trkpt lat="43.6097294" lon="6.7747734"><ele>226.5</ele><time>2026-04-12T06:32:23.898Z</time></trkpt><trkpt lat="43.6097672" lon="6.7748599"><ele>229.0</ele><time>2026-04-12T06:32:25.902Z</time></trkpt><trkpt lat="43.6098002" lon="6.7749498"><ele>231.5</ele><time>2026-04-12T06:32:27.874Z</time></trkpt><trkpt lat="43.6098318" lon="6.775039"><ele>234.0</ele><time>2026-04-12T06:32:29.938Z</time></trkpt><trkpt lat="43.6098636" lon="6.7751428"><ele>234.0</ele><time>2026-04-12T06:32:31.91Z</time></trkpt><trkpt lat="43.6098952" lon="6.7752469"><ele>234.0</ele><time>2026-04-12T06:32:33.881Z</time></trkpt><trkpt lat="43.6099236" lon="6.7753429"><ele>234.0</ele><time>2026-04-12T06:32:35.917Z</time></trkpt><trkpt lat="43.6099571" lon="6.7754482"><ele>234.0</ele><time>2026-04-12T06:32:37.911Z</time></trkpt><trkpt lat="43.6099887" lon="6.7755517"><ele>234.0</ele><time>2026-04-12T06:32:39.903Z</time></trkpt><trkpt lat="43.6100241" lon="6.7756564"><ele>234.0</ele><time>2026-04-12T06:32:41.904Z</time></trkpt><trkpt lat="43.6100652" lon="6.7757636"><ele>234.0</ele><time>2026-04-12T06:32:43.885Z</time></trkpt><trkpt lat="43.6100943" lon="6.775875"><ele>234.0</ele><time>2026-04-12T06:32:45.867Z</time></trkpt><trkpt lat="43.6101321" lon="6.7759889"><ele>234.0</ele><time>2026-04-12T06:32:47.902Z</time></trkpt><trkpt lat="43.6101506" lon="6.7761138"><ele>234.0</ele><time>2026-04-12T06:32:49.909Z</time></trkpt><trkpt lat="43.6101663" lon="6.7762341"><ele>234.0</ele><time>2026-04-12T06:32:51.921Z</time></trkpt><trkpt lat="43.6101834" lon="6.776322"><ele>234.0</ele><time>2026-04-12T06:32:53.895Z</time></trkpt><trkpt lat="43.6101983" lon="6.7764391"><ele>234.16666666666666</ele><time>2026-04-12T06:32:56.915Z</time></trkpt><trkpt lat="43.6102055" lon="6.776541"><ele>234.33333333333331</ele><time>2026-04-12T06:32:58.913Z</time></trkpt><trkpt lat="43.6102325" lon="6.7766398"><ele>234.5</ele><time>2026-04-12T06:33:00.899Z</time></trkpt><trkpt lat="43.6102756" lon="6.7767464"><ele>234.66666666666666</ele><time>2026-04-12T06:33:02.905Z</time></trkpt><trkpt lat="43.6103215" lon="6.7768272"><ele>234.83333333333331</ele><time>2026-04-12T06:33:04.914Z</time></trkpt><trkpt lat="43.6103856" lon="6.7768964"><ele>235.0</ele><time>2026-04-12T06:33:06.932Z</time></trkpt><trkpt lat="43.6104527" lon="6.7769467"><ele>234.99999999999997</ele><time>2026-04-12T06:33:08.902Z</time></trkpt><trkpt lat="43.6105241" lon="6.7769761"><ele>235.0</ele><time>2026-04-12T06:33:10.904Z</time></trkpt><trkpt lat="43.6106077" lon="6.7769836"><ele>235.0</ele><time>2026-04-12T06:33:12.869Z</time></trkpt><trkpt lat="43.6106894" lon="6.7769435"><ele>235.0</ele><time>2026-04-12T06:33:14.916Z</time></trkpt><trkpt lat="43.6107493" lon="6.7768586"><ele>234.99999999999997</ele><time>2026-04-12T06:33:16.919Z</time></trkpt><trkpt lat="43.6107696" lon="6.7767447"><ele>235.0</ele><time>2026-04-12T06:33:18.907Z</time></trkpt><trkpt lat="43.610744" lon="6.7766506"><ele>237.33333333333331</ele><time>2026-04-12T06:33:20.928Z</time></trkpt><trkpt lat="43.6107075" lon="6.7765479"><ele>239.66666666666666</ele><time>2026-04-12T06:33:22.919Z</time></trkpt><trkpt lat="43.6106544" lon="6.7764523"><ele>242.0</ele><time>2026-04-12T06:33:24.882Z</time></trkpt><trkpt lat="43.6106275" lon="6.7763518"><ele>244.33333333333331</ele><time>2026-04-12T06:33:26.925Z</time></trkpt><trkpt lat="43.610617" lon="6.7762557"><ele>246.66666666666666</ele><time>2026-04-12T06:33:28.927Z</time></trkpt><trkpt lat="43.6106108" lon="6.7761609"><ele>249.0</ele><time>2026-04-12T06:33:30.917Z</time></trkpt><trkpt lat="43.6106071" lon="6.7760399"><ele>250.16666666666666</ele><time>2026-04-12T06:33:32.937Z</time></trkpt><trkpt lat="43.610606" lon="6.7759113"><ele>251.33333333333331</ele><time>2026-04-12T06:33:34.903Z</time></trkpt><trkpt lat="43.6106159" lon="6.7758019"><ele>252.5</ele><time>2026-04-12T06:33:36.913Z</time></trkpt><trkpt lat="43.610642" lon="6.7757054"><ele>253.66666666666666</ele><time>2026-04-12T06:33:38.931Z</time></trkpt><trkpt lat="43.6106726" lon="6.7756151"><ele>254.83333333333331</ele><time>2026-04-12T06:33:40.902Z</time></trkpt><trkpt lat="43.6107031" lon="6.7755279"><ele>256.0</ele><time>2026-04-12T06:33:42.904Z</time></trkpt><trkpt lat="43.6107501" lon="6.775441"><ele>255.99999999999997</ele><time>2026-04-12T06:33:44.899Z</time></trkpt><trkpt lat="43.6107961" lon="6.775367"><ele>256.0</ele><time>2026-04-12T06:33:46.897Z</time></trkpt><trkpt lat="43.6108493" lon="6.7752984"><ele>256.0</ele><time>2026-04-12T06:33:48.924Z</time></trkpt><trkpt lat="43.6109075" lon="6.7752311"><ele>256.0</ele><time>2026-04-12T06:33:50.906Z</time></trkpt><trkpt lat="43.6109602" lon="6.7751585"><ele>255.99999999999997</ele><time>2026-04-12T06:33:52.908Z</time></trkpt><trkpt lat="43.611021" lon="6.7750899"><ele>256.0</ele><time>2026-04-12T06:33:54.916Z</time></trkpt><trkpt lat="43.6110853" lon="6.7750223"><ele>255.57142857142856</ele><time>2026-04-12T06:33:56.928Z</time></trkpt><trkpt lat="43.6111449" lon="6.7749607"><ele>255.1428571428571</ele><time>2026-04-12T06:33:58.953Z</time></trkpt><trkpt lat="43.6112064" lon="6.7749187"><ele>254.71428571428572</ele><time>2026-04-12T06:34:00.914Z</time></trkpt><trkpt lat="43.6112713" lon="6.7748762"><ele>254.28571428571428</ele><time>2026-04-12T06:34:02.913Z</time></trkpt><trkpt lat="43.6113374" lon="6.7748339"><ele>253.85714285714286</ele><time>2026-04-12T06:34:04.907Z</time></trkpt><trkpt lat="43.6114035" lon="6.7747975"><ele>253.42857142857144</ele><time>2026-04-12T06:34:06.916Z</time></trkpt><trkpt lat="43.6114646" lon="6.7747702"><ele>253.00000000000003</ele><time>2026-04-12T06:34:08.926Z</time></trkpt><trkpt lat="43.6115283" lon="6.774738"><ele>255.49999999999997</ele><time>2026-04-12T06:34:10.92Z</time></trkpt><trkpt lat="43.6116009" lon="6.7746988"><ele>258.0</ele><time>2026-04-12T06:34:12.93Z</time></trkpt><trkpt lat="43.6116672" lon="6.7746568"><ele>260.5</ele><time>2026-04-12T06:34:14.948Z</time></trkpt><trkpt lat="43.6117379" lon="6.7746108"><ele>263.0</ele><time>2026-04-12T06:34:16.922Z</time></trkpt><trkpt lat="43.6118001" lon="6.7745509"><ele>265.5</ele><time>2026-04-12T06:34:18.915Z</time></trkpt><trkpt lat="43.6118539" lon="6.7744828"><ele>268.0</ele><time>2026-04-12T06:34:20.887Z</time></trkpt><trkpt lat="43.6119147" lon="6.774419"><ele>268.0</ele><time>2026-04-12T06:34:22.91Z</time></trkpt><trkpt lat="43.6119709" lon="6.7743584"><ele>268.0</ele><time>2026-04-12T06:34:24.929Z</time></trkpt><trkpt lat="43.6120316" lon="6.7743028"><ele>268.0</ele><time>2026-04-12T06:34:26.911Z</time></trkpt><trkpt lat="43.6120939" lon="6.7742381"><ele>268.0</ele><time>2026-04-12T06:34:28.897Z</time></trkpt><trkpt lat="43.6121489" lon="6.7741827"><ele>268.0</ele><time>2026-04-12T06:34:30.89Z</time></trkpt><trkpt lat="43.6122029" lon="6.7741288"><ele>268.0</ele><time>2026-04-12T06:34:32.872Z</time></trkpt><trkpt lat="43.6122556" lon="6.7740707"><ele>268.0</ele><time>2026-04-12T06:34:34.899Z</time></trkpt><trkpt lat="43.6123205" lon="6.7740138"><ele>269.16666666666663</ele><time>2026-04-12T06:34:36.902Z</time></trkpt><trkpt lat="43.6123993" lon="6.7739564"><ele>270.3333333333333</ele><time>2026-04-12T06:34:38.91Z</time></trkpt><trkpt lat="43.6124653" lon="6.7739102"><ele>271.5</ele><time>2026-04-12T06:34:40.929Z</time></trkpt><trkpt lat="43.6125362" lon="6.7738558"><ele>272.6666666666667</ele><time>2026-04-12T06:34:42.914Z</time></trkpt><trkpt lat="43.6125993" lon="6.7738163"><ele>273.83333333333337</ele><time>2026-04-12T06:34:44.915Z</time></trkpt><trkpt lat="43.6126605" lon="6.7737871"><ele>275.0</ele><time>2026-04-12T06:34:46.945Z</time></trkpt><trkpt lat="43.6127536" lon="6.773743"><ele>275.0</ele><time>2026-04-12T06:34:49.894Z</time></trkpt><trkpt lat="43.6128149" lon="6.7736962"><ele>275.0</ele><time>2026-04-12T06:34:51.907Z</time></trkpt><trkpt lat="43.6128812" lon="6.7736548"><ele>275.0</ele><time>2026-04-12T06:34:53.924Z</time></trkpt><trkpt lat="43.6129618" lon="6.7736113"><ele>275.0</ele><time>2026-04-12T06:34:55.917Z</time></trkpt><trkpt lat="43.613037" lon="6.773574"><ele>275.0</ele><time>2026-04-12T06:34:57.928Z</time></trkpt><trkpt lat="43.6131031" lon="6.7735266"><ele>275.0</ele><time>2026-04-12T06:34:59.915Z</time></trkpt><trkpt lat="43.6131733" lon="6.7734747"><ele>276.6666666666667</ele><time>2026-04-12T06:35:01.909Z</time></trkpt><trkpt lat="43.613241" lon="6.7734381"><ele>278.33333333333337</ele><time>2026-04-12T06:35:03.912Z</time></trkpt><trkpt lat="43.6133064" lon="6.7733843"><ele>280.0</ele><time>2026-04-12T06:35:05.924Z</time></trkpt><trkpt lat="43.613389" lon="6.7733524"><ele>281.6666666666667</ele><time>2026-04-12T06:35:07.91Z</time></trkpt><trkpt lat="43.613457" lon="6.7733186"><ele>283.3333333333333</ele><time>2026-04-12T06:35:09.912Z</time></trkpt><trkpt lat="43.6135285" lon="6.7732808"><ele>285.0</ele><time>2026-04-12T06:35:11.921Z</time></trkpt><trkpt lat="43.6136064" lon="6.773249"><ele>286.6666666666667</ele><time>2026-04-12T06:35:13.913Z</time></trkpt><trkpt lat="43.6136834" lon="6.7732253"><ele>288.3333333333333</ele><time>2026-04-12T06:35:15.898Z</time></trkpt><trkpt lat="43.6137612" lon="6.7731945"><ele>290.0</ele><time>2026-04-12T06:35:17.89Z</time></trkpt><trkpt lat="43.6138399" lon="6.7731636"><ele>291.66666666666663</ele><time>2026-04-12T06:35:19.924Z</time></trkpt><trkpt lat="43.6139207" lon="6.7731365"><ele>293.3333333333333</ele><time>2026-04-12T06:35:21.902Z</time></trkpt><trkpt lat="43.6139909" lon="6.7731125"><ele>295.0</ele><time>2026-04-12T06:35:23.899Z</time></trkpt><trkpt lat="43.6140715" lon="6.7730898"><ele>295.00000000000006</ele><time>2026-04-12T06:35:25.928Z</time></trkpt><trkpt lat="43.6141498" lon="6.7730568"><ele>295.0</ele><time>2026-04-12T06:35:27.916Z</time></trkpt><trkpt lat="43.6142199" lon="6.7730133"><ele>295.0</ele><time>2026-04-12T06:35:29.915Z</time></trkpt><trkpt lat="43.6142865" lon="6.7729733"><ele>295.0</ele><time>2026-04-12T06:35:31.908Z</time></trkpt><trkpt lat="43.614353" lon="6.7729283"><ele>295.0</ele><time>2026-04-12T06:35:33.921Z</time></trkpt><trkpt lat="43.6144159" lon="6.7728845"><ele>295.00000000000006</ele><time>2026-04-12T06:35:35.894Z</time></trkpt><trkpt lat="43.6144832" lon="6.7728448"><ele>295.0</ele><time>2026-04-12T06:35:37.881Z</time></trkpt><trkpt lat="43.6145504" lon="6.7728171"><ele>296.16666666666663</ele><time>2026-04-12T06:35:39.943Z</time></trkpt><trkpt lat="43.6146161" lon="6.7727814"><ele>297.3333333333333</ele><time>2026-04-12T06:35:41.913Z</time></trkpt><trkpt lat="43.6146754" lon="6.7727295"><ele>298.5</ele><time>2026-04-12T06:35:43.93Z</time></trkpt><trkpt lat="43.6147354" lon="6.7726736"><ele>299.6666666666667</ele><time>2026-04-12T06:35:45.905Z</time></trkpt><trkpt lat="43.6148078" lon="6.7725989"><ele>300.83333333333337</ele><time>2026-04-12T06:35:47.934Z</time></trkpt><trkpt lat="43.6148666" lon="6.7724958"><ele>302.0</ele><time>2026-04-12T06:35:49.888Z</time></trkpt><trkpt lat="43.6149302" lon="6.7723819"><ele>302.0</ele><time>2026-04-12T06:35:51.936Z</time></trkpt><trkpt lat="43.6149819" lon="6.7722708"><ele>302.0</ele><time>2026-04-12T06:35:53.921Z</time></trkpt><trkpt lat="43.6150418" lon="6.7721631"><ele>302.0</ele><time>2026-04-12T06:35:55.911Z</time></trkpt><trkpt lat="43.6151038" lon="6.7720729"><ele>302.0</ele><time>2026-04-12T06:35:57.926Z</time></trkpt><trkpt lat="43.6151738" lon="6.7719966"><ele>302.0</ele><time>2026-04-12T06:35:59.91Z</time></trkpt><trkpt lat="43.6152378" lon="6.7719257"><ele>302.0</ele><time>2026-04-12T06:36:01.915Z</time></trkpt><trkpt lat="43.6153048" lon="6.7718573"><ele>302.0</ele><time>2026-04-12T06:36:03.928Z</time></trkpt><trkpt lat="43.6153633" lon="6.7717861"><ele>302.0</ele><time>2026-04-12T06:36:05.869Z</time></trkpt><trkpt lat="43.6154406" lon="6.7717093"><ele>302.0</ele><time>2026-04-12T06:36:07.923Z</time></trkpt><trkpt lat="43.6155187" lon="6.7716258"><ele>302.0</ele><time>2026-04-12T06:36:09.93Z</time></trkpt><trkpt lat="43.6155855" lon="6.7715075"><ele>303.4</ele><time>2026-04-12T06:36:11.911Z</time></trkpt><trkpt lat="43.6156452" lon="6.7713816"><ele>304.79999999999995</ele><time>2026-04-12T06:36:13.899Z</time></trkpt><trkpt lat="43.6157022" lon="6.7712528"><ele>306.2</ele><time>2026-04-12T06:36:15.92Z</time></trkpt><trkpt lat="43.6157641" lon="6.7711364"><ele>307.59999999999997</ele><time>2026-04-12T06:36:17.927Z</time></trkpt><trkpt lat="43.6158223" lon="6.7710228"><ele>309.0</ele><time>2026-04-12T06:36:19.882Z</time></trkpt><trkpt lat="43.6158719" lon="6.7708943"><ele>309.0</ele><time>2026-04-12T06:36:21.919Z</time></trkpt><trkpt lat="43.6158998" lon="6.7707653"><ele>309.0</ele><time>2026-04-12T06:36:23.89Z</time></trkpt><trkpt lat="43.6159393" lon="6.7706187"><ele>309.0</ele><time>2026-04-12T06:36:25.924Z</time></trkpt><trkpt lat="43.6159789" lon="6.7704633"><ele>309.0</ele><time>2026-04-12T06:36:27.93Z</time></trkpt><trkpt lat="43.6160135" lon="6.770312"><ele>309.0</ele><time>2026-04-12T06:36:29.926Z</time></trkpt><trkpt lat="43.6160415" lon="6.7701598"><ele>308.4</ele><time>2026-04-12T06:36:31.857Z</time></trkpt><trkpt lat="43.6160694" lon="6.7700132"><ele>307.79999999999995</ele><time>2026-04-12T06:36:33.915Z</time></trkpt><trkpt lat="43.6161127" lon="6.7698701"><ele>307.20000000000005</ele><time>2026-04-12T06:36:35.91Z</time></trkpt><trkpt lat="43.6161576" lon="6.76973"><ele>306.6</ele><time>2026-04-12T06:36:37.93Z</time></trkpt><trkpt lat="43.6162059" lon="6.7695941"><ele>306.0</ele><time>2026-04-12T06:36:39.901Z</time></trkpt><trkpt lat="43.6162435" lon="6.7694542"><ele>309.6</ele><time>2026-04-12T06:36:41.93Z</time></trkpt><trkpt lat="43.6162884" lon="6.7693278"><ele>313.20000000000005</ele><time>2026-04-12T06:36:43.928Z</time></trkpt><trkpt lat="43.6163513" lon="6.7692174"><ele>316.79999999999995</ele><time>2026-04-12T06:36:45.925Z</time></trkpt><trkpt lat="43.6164246" lon="6.7691094"><ele>320.4</ele><time>2026-04-12T06:36:47.93Z</time></trkpt><trkpt lat="43.6165048" lon="6.7690124"><ele>324.0</ele><time>2026-04-12T06:36:49.899Z</time></trkpt><trkpt lat="43.6165851" lon="6.7689191"><ele>324.0</ele><time>2026-04-12T06:36:51.892Z</time></trkpt><trkpt lat="43.6166556" lon="6.7688242"><ele>324.0</ele><time>2026-04-12T06:36:53.922Z</time></trkpt><trkpt lat="43.6167104" lon="6.7687285"><ele>324.0</ele><time>2026-04-12T06:36:55.914Z</time></trkpt><trkpt lat="43.6167634" lon="6.7686474"><ele>324.0</ele><time>2026-04-12T06:36:57.918Z</time></trkpt><trkpt lat="43.6168119" lon="6.7685562"><ele>324.0</ele><time>2026-04-12T06:36:59.923Z</time></trkpt><trkpt lat="43.6168579" lon="6.7684723"><ele>324.0</ele><time>2026-04-12T06:37:01.878Z</time></trkpt><trkpt lat="43.6169076" lon="6.7683783"><ele>322.3333333333333</ele><time>2026-04-12T06:37:03.914Z</time></trkpt><trkpt lat="43.6169579" lon="6.7682866"><ele>320.6666666666667</ele><time>2026-04-12T06:37:05.894Z</time></trkpt><trkpt lat="43.617008" lon="6.7681953"><ele>319.0</ele><time>2026-04-12T06:37:07.893Z</time></trkpt><trkpt lat="43.6170587" lon="6.7681206"><ele>317.33333333333337</ele><time>2026-04-12T06:37:09.886Z</time></trkpt><trkpt lat="43.6170986" lon="6.7680398"><ele>315.6666666666667</ele><time>2026-04-12T06:37:11.921Z</time></trkpt><trkpt lat="43.6171315" lon="6.7679432"><ele>314.0</ele><time>2026-04-12T06:37:13.897Z</time></trkpt><trkpt lat="43.6171498" lon="6.7678308"><ele>318.83333333333337</ele><time>2026-04-12T06:37:15.906Z</time></trkpt><trkpt lat="43.6171582" lon="6.7677232"><ele>323.6666666666667</ele><time>2026-04-12T06:37:17.933Z</time></trkpt><trkpt lat="43.6171704" lon="6.767619"><ele>328.5</ele><time>2026-04-12T06:37:19.904Z</time></trkpt><trkpt lat="43.6171827" lon="6.7675157"><ele>333.3333333333333</ele><time>2026-04-12T06:37:21.898Z</time></trkpt><trkpt lat="43.6171913" lon="6.7674216"><ele>338.16666666666663</ele><time>2026-04-12T06:37:23.914Z</time></trkpt><trkpt lat="43.6172003" lon="6.7673173"><ele>343.0</ele><time>2026-04-12T06:37:25.901Z</time></trkpt><trkpt lat="43.6172107" lon="6.7672125"><ele>343.0</ele><time>2026-04-12T06:37:27.911Z</time></trkpt><trkpt lat="43.6172116" lon="6.7671048"><ele>343.0</ele><time>2026-04-12T06:37:29.923Z</time></trkpt><trkpt lat="43.6172012" lon="6.7670017"><ele>343.0</ele><time>2026-04-12T06:37:31.902Z</time></trkpt><trkpt lat="43.617193" lon="6.7669008"><ele>343.0</ele><time>2026-04-12T06:37:33.894Z</time></trkpt><trkpt lat="43.6172013" lon="6.7667984"><ele>343.0</ele><time>2026-04-12T06:37:35.895Z</time></trkpt><trkpt lat="43.617205" lon="6.7667057"><ele>343.0</ele><time>2026-04-12T06:37:37.884Z</time></trkpt><trkpt lat="43.6172117" lon="6.7666081"><ele>343.0</ele><time>2026-04-12T06:37:39.888Z</time></trkpt><trkpt lat="43.6172173" lon="6.7665167"><ele>343.5</ele><time>2026-04-12T06:37:41.923Z</time></trkpt><trkpt lat="43.6172289" lon="6.7663842"><ele>344.0</ele><time>2026-04-12T06:37:44.907Z</time></trkpt><trkpt lat="43.6172414" lon="6.7662524"><ele>344.5</ele><time>2026-04-12T06:37:47.913Z</time></trkpt><trkpt lat="43.617261" lon="6.7661607"><ele>345.0</ele><time>2026-04-12T06:37:49.903Z</time></trkpt><trkpt lat="43.6172771" lon="6.7660597"><ele>345.5</ele><time>2026-04-12T06:37:51.91Z</time></trkpt><trkpt lat="43.6172985" lon="6.7659552"><ele>346.0</ele><time>2026-04-12T06:37:53.909Z</time></trkpt><trkpt lat="43.6173334" lon="6.7658626"><ele>346.16666666666663</ele><time>2026-04-12T06:37:55.909Z</time></trkpt><trkpt lat="43.6173609" lon="6.7657679"><ele>346.3333333333333</ele><time>2026-04-12T06:37:57.916Z</time></trkpt><trkpt lat="43.6174008" lon="6.765683"><ele>346.5</ele><time>2026-04-12T06:37:59.875Z</time></trkpt><trkpt lat="43.6174401" lon="6.765595"><ele>346.6666666666667</ele><time>2026-04-12T06:38:01.919Z</time></trkpt><trkpt lat="43.6174818" lon="6.7655071"><ele>346.83333333333337</ele><time>2026-04-12T06:38:03.911Z</time></trkpt><trkpt lat="43.6175251" lon="6.7654163"><ele>347.0</ele><time>2026-04-12T06:38:05.92Z</time></trkpt><trkpt lat="43.6175597" lon="6.7653226"><ele>347.0</ele><time>2026-04-12T06:38:07.906Z</time></trkpt><trkpt lat="43.6175774" lon="6.7652148"><ele>347.0</ele><time>2026-04-12T06:38:09.907Z</time></trkpt><trkpt lat="43.6175766" lon="6.7651194"><ele>347.0</ele><time>2026-04-12T06:38:11.909Z</time></trkpt><trkpt lat="43.6175573" lon="6.7650123"><ele>347.0</ele><time>2026-04-12T06:38:13.894Z</time></trkpt><trkpt lat="43.6175318" lon="6.7649116"><ele>347.0</ele><time>2026-04-12T06:38:15.885Z</time></trkpt><trkpt lat="43.6174972" lon="6.7648108"><ele>347.0</ele><time>2026-04-12T06:38:17.901Z</time></trkpt><trkpt lat="43.6174642" lon="6.7647089"><ele>347.0</ele><time>2026-04-12T06:38:19.914Z</time></trkpt><trkpt lat="43.617432" lon="6.7646079"><ele>347.0</ele><time>2026-04-12T06:38:21.898Z</time></trkpt><trkpt lat="43.6174044" lon="6.7645054"><ele>347.0</ele><time>2026-04-12T06:38:23.924Z</time></trkpt><trkpt lat="43.6173947" lon="6.7644062"><ele>347.0</ele><time>2026-04-12T06:38:25.895Z</time></trkpt><trkpt lat="43.6173954" lon="6.7643096"><ele>347.0</ele><time>2026-04-12T06:38:27.892Z</time></trkpt><trkpt lat="43.6174009" lon="6.7642052"><ele>347.0</ele><time>2026-04-12T06:38:29.909Z</time></trkpt><trkpt lat="43.6174219" lon="6.7641114"><ele>347.0</ele><time>2026-04-12T06:38:31.918Z</time></trkpt><trkpt lat="43.6175068" lon="6.7640869"><ele>347.0</ele><time>2026-04-12T06:38:34.898Z</time></trkpt><trkpt lat="43.6175525" lon="6.7641658"><ele>347.0</ele><time>2026-04-12T06:38:36.932Z</time></trkpt><trkpt lat="43.6175784" lon="6.7642632"><ele>347.0</ele><time>2026-04-12T06:38:38.901Z</time></trkpt><trkpt lat="43.6176233" lon="6.7643493"><ele>347.0</ele><time>2026-04-12T06:38:40.905Z</time></trkpt><trkpt lat="43.6176859" lon="6.7644098"><ele>347.0</ele><time>2026-04-12T06:38:42.922Z</time></trkpt><trkpt lat="43.61777" lon="6.7644125"><ele>347.0</ele><time>2026-04-12T06:38:44.919Z</time></trkpt><trkpt lat="43.6178594" lon="6.7644115"><ele>349.40000000000003</ele><time>2026-04-12T06:38:46.879Z</time></trkpt><trkpt lat="43.6179295" lon="6.7644943"><ele>351.8</ele><time>2026-04-12T06:38:48.886Z</time></trkpt><trkpt lat="43.6179703" lon="6.764643"><ele>354.2</ele><time>2026-04-12T06:38:50.91Z</time></trkpt><trkpt lat="43.6180059" lon="6.7647917"><ele>356.6</ele><time>2026-04-12T06:38:52.913Z</time></trkpt><trkpt lat="43.6180296" lon="6.7648745"><ele>359.0</ele><time>2026-04-12T06:38:53.91Z</time></trkpt><trkpt lat="43.618053" lon="6.7649614"><ele>359.0</ele><time>2026-04-12T06:38:54.928Z</time></trkpt><trkpt lat="43.6180887" lon="6.7651245"><ele>359.0</ele><time>2026-04-12T06:38:56.922Z</time></trkpt><trkpt lat="43.6181113" lon="6.7652117"><ele>359.0</ele><time>2026-04-12T06:38:57.906Z</time></trkpt><trkpt lat="43.618139" lon="6.7652966"><ele>359.0</ele><time>2026-04-12T06:38:58.914Z</time></trkpt><trkpt lat="43.6182471" lon="6.7653516"><ele>359.0</ele><time>2026-04-12T06:39:00.9Z</time></trkpt><trkpt lat="43.6183753" lon="6.7653081"><ele>359.0</ele><time>2026-04-12T06:39:02.899Z</time></trkpt><trkpt lat="43.6184416" lon="6.7652782"><ele>359.0</ele><time>2026-04-12T06:39:03.894Z</time></trkpt><trkpt lat="43.6185098" lon="6.7652552"><ele>359.0</ele><time>2026-04-12T06:39:04.893Z</time></trkpt><trkpt lat="43.6185708" lon="6.7652212"><ele>359.0</ele><time>2026-04-12T06:39:05.916Z</time></trkpt><trkpt lat="43.6186351" lon="6.7651867"><ele>359.0</ele><time>2026-04-12T06:39:06.927Z</time></trkpt><trkpt lat="43.6187036" lon="6.7651553"><ele>359.0</ele><time>2026-04-12T06:39:07.911Z</time></trkpt><trkpt lat="43.618774" lon="6.7651268"><ele>359.0</ele><time>2026-04-12T06:39:08.897Z</time></trkpt><trkpt lat="43.6188507" lon="6.765105"><ele>358.83333333333337</ele><time>2026-04-12T06:39:09.916Z</time></trkpt><trkpt lat="43.6189222" lon="6.7650708"><ele>358.6666666666667</ele><time>2026-04-12T06:39:10.943Z</time></trkpt><trkpt lat="43.6189936" lon="6.7650339"><ele>358.5</ele><time>2026-04-12T06:39:11.921Z</time></trkpt><trkpt lat="43.6190642" lon="6.7650075"><ele>358.3333333333333</ele><time>2026-04-12T06:39:12.925Z</time></trkpt><trkpt lat="43.6191276" lon="6.7650113"><ele>358.16666666666663</ele><time>2026-04-12T06:39:13.924Z</time></trkpt><trkpt lat="43.6191782" lon="6.7651118"><ele>358.0</ele><time>2026-04-12T06:39:14.933Z</time></trkpt><trkpt lat="43.6191982" lon="6.7652421"><ele>358.0</ele><time>2026-04-12T06:39:15.904Z</time></trkpt><trkpt lat="43.619219" lon="6.7653459"><ele>358.0</ele><time>2026-04-12T06:39:16.921Z</time></trkpt><trkpt lat="43.6192423" lon="6.7654625"><ele>358.0</ele><time>2026-04-12T06:39:17.907Z</time></trkpt><trkpt lat="43.619265" lon="6.7655666"><ele>358.0</ele><time>2026-04-12T06:39:18.901Z</time></trkpt><trkpt lat="43.6192902" lon="6.7656722"><ele>358.0</ele><time>2026-04-12T06:39:19.915Z</time></trkpt><trkpt lat="43.6193097" lon="6.7657801"><ele>358.0</ele><time>2026-04-12T06:39:20.912Z</time></trkpt><trkpt lat="43.6193296" lon="6.7658902"><ele>358.0</ele><time>2026-04-12T06:39:21.908Z</time></trkpt><trkpt lat="43.6193491" lon="6.7660057"><ele>358.0</ele><time>2026-04-12T06:39:22.928Z</time></trkpt><trkpt lat="43.6193694" lon="6.7661178"><ele>358.0</ele><time>2026-04-12T06:39:23.932Z</time></trkpt><trkpt lat="43.6193904" lon="6.7662331"><ele>358.0</ele><time>2026-04-12T06:39:24.915Z</time></trkpt><trkpt lat="43.6194226" lon="6.766347"><ele>358.0</ele><time>2026-04-12T06:39:25.934Z</time></trkpt><trkpt lat="43.6194785" lon="6.7664483"><ele>358.0</ele><time>2026-04-12T06:39:26.918Z</time></trkpt><trkpt lat="43.6195485" lon="6.766518"><ele>358.2</ele><time>2026-04-12T06:39:27.933Z</time></trkpt><trkpt lat="43.619625" lon="6.7665539"><ele>358.4</ele><time>2026-04-12T06:39:28.93Z</time></trkpt><trkpt lat="43.6197111" lon="6.7665737"><ele>358.59999999999997</ele><time>2026-04-12T06:39:29.916Z</time></trkpt><trkpt lat="43.6198198" lon="6.7665631"><ele>358.79999999999995</ele><time>2026-04-12T06:39:30.873Z</time></trkpt><trkpt lat="43.6199108" lon="6.7665457"><ele>359.0</ele><time>2026-04-12T06:39:31.907Z</time></trkpt><trkpt lat="43.6200047" lon="6.7665287"><ele>359.0</ele><time>2026-04-12T06:39:32.916Z</time></trkpt><trkpt lat="43.6201019" lon="6.7665166"><ele>359.0</ele><time>2026-04-12T06:39:33.914Z</time></trkpt><trkpt lat="43.6201849" lon="6.7664738"><ele>359.0</ele><time>2026-04-12T06:39:34.932Z</time></trkpt><trkpt lat="43.6202729" lon="6.7664439"><ele>359.0</ele><time>2026-04-12T06:39:35.92Z</time></trkpt><trkpt lat="43.6203625" lon="6.7664135"><ele>359.0</ele><time>2026-04-12T06:39:36.917Z</time></trkpt><trkpt lat="43.6204459" lon="6.7663821"><ele>360.6</ele><time>2026-04-12T06:39:37.918Z</time></trkpt><trkpt lat="43.6205332" lon="6.7663433"><ele>362.2</ele><time>2026-04-12T06:39:38.925Z</time></trkpt><trkpt lat="43.6206157" lon="6.7663001"><ele>363.8</ele><time>2026-04-12T06:39:39.93Z</time></trkpt><trkpt lat="43.6207124" lon="6.7662712"><ele>365.40000000000003</ele><time>2026-04-12T06:39:40.918Z</time></trkpt><trkpt lat="43.6208058" lon="6.7662406"><ele>367.0</ele><time>2026-04-12T06:39:41.918Z</time></trkpt><trkpt lat="43.6209002" lon="6.7662034"><ele>367.0</ele><time>2026-04-12T06:39:42.906Z</time></trkpt><trkpt lat="43.6209819" lon="6.7661532"><ele>367.0</ele><time>2026-04-12T06:39:43.924Z</time></trkpt><trkpt lat="43.6210606" lon="6.7660916"><ele>367.0</ele><time>2026-04-12T06:39:44.948Z</time></trkpt><trkpt lat="43.6211431" lon="6.7660146"><ele>367.0</ele><time>2026-04-12T06:39:45.907Z</time></trkpt><trkpt lat="43.6212229" lon="6.7659388"><ele>367.0</ele><time>2026-04-12T06:39:46.898Z</time></trkpt><trkpt lat="43.6213011" lon="6.7658478"><ele>365.8</ele><time>2026-04-12T06:39:47.91Z</time></trkpt><trkpt lat="43.6213807" lon="6.7657602"><ele>364.6</ele><time>2026-04-12T06:39:48.926Z</time></trkpt><trkpt lat="43.6214613" lon="6.7656776"><ele>363.40000000000003</ele><time>2026-04-12T06:39:49.887Z</time></trkpt><trkpt lat="43.6215479" lon="6.7656036"><ele>362.20000000000005</ele><time>2026-04-12T06:39:50.894Z</time></trkpt><trkpt lat="43.6216443" lon="6.7655378"><ele>361.0</ele><time>2026-04-12T06:39:51.937Z</time></trkpt><trkpt lat="43.6217421" lon="6.7654807"><ele>361.0</ele><time>2026-04-12T06:39:52.924Z</time></trkpt><trkpt lat="43.621842" lon="6.7654231"><ele>361.0</ele><time>2026-04-12T06:39:53.911Z</time></trkpt><trkpt lat="43.6219396" lon="6.7653611"><ele>361.0</ele><time>2026-04-12T06:39:54.912Z</time></trkpt><trkpt lat="43.6220346" lon="6.7652959"><ele>361.0</ele><time>2026-04-12T06:39:55.912Z</time></trkpt><trkpt lat="43.6221318" lon="6.7652263"><ele>361.0</ele><time>2026-04-12T06:39:56.916Z</time></trkpt><trkpt lat="43.6222289" lon="6.7651653"><ele>361.4</ele><time>2026-04-12T06:39:57.918Z</time></trkpt><trkpt lat="43.6223281" lon="6.765112"><ele>361.8</ele><time>2026-04-12T06:39:58.886Z</time></trkpt><trkpt lat="43.6224381" lon="6.7651062"><ele>362.2</ele><time>2026-04-12T06:39:59.884Z</time></trkpt><trkpt lat="43.622535" lon="6.7651268"><ele>362.59999999999997</ele><time>2026-04-12T06:40:00.926Z</time></trkpt><trkpt lat="43.6226219" lon="6.7652584"><ele>363.0</ele><time>2026-04-12T06:40:01.915Z</time></trkpt><trkpt lat="43.6226983" lon="6.7654456"><ele>363.0</ele><time>2026-04-12T06:40:02.924Z</time></trkpt><trkpt lat="43.6227976" lon="6.7656012"><ele>363.0</ele><time>2026-04-12T06:40:03.923Z</time></trkpt><trkpt lat="43.6229017" lon="6.7657222"><ele>363.0</ele><time>2026-04-12T06:40:04.861Z</time></trkpt><trkpt lat="43.6230163" lon="6.7658129"><ele>363.0</ele><time>2026-04-12T06:40:05.918Z</time></trkpt><trkpt lat="43.6231338" lon="6.7658865"><ele>363.25</ele><time>2026-04-12T06:40:06.921Z</time></trkpt><trkpt lat="43.6232495" lon="6.7659506"><ele>363.5</ele><time>2026-04-12T06:40:07.909Z</time></trkpt><trkpt lat="43.6233575" lon="6.7660182"><ele>363.75</ele><time>2026-04-12T06:40:08.926Z</time></trkpt><trkpt lat="43.6234602" lon="6.766092"><ele>364.0</ele><time>2026-04-12T06:40:09.916Z</time></trkpt><trkpt lat="43.6235661" lon="6.7661961"><ele>359.25</ele><time>2026-04-12T06:40:10.912Z</time></trkpt><trkpt lat="43.6236571" lon="6.7663008"><ele>354.5</ele><time>2026-04-12T06:40:11.919Z</time></trkpt><trkpt lat="43.6237459" lon="6.7664052"><ele>349.75</ele><time>2026-04-12T06:40:12.934Z</time></trkpt><trkpt lat="43.6238306" lon="6.7665132"><ele>345.0</ele><time>2026-04-12T06:40:13.914Z</time></trkpt><trkpt lat="43.6238971" lon="6.7666399"><ele>345.0</ele><time>2026-04-12T06:40:14.918Z</time></trkpt><trkpt lat="43.6239334" lon="6.7667882"><ele>345.0</ele><time>2026-04-12T06:40:15.911Z</time></trkpt><trkpt lat="43.6239645" lon="6.7669419"><ele>345.0</ele><time>2026-04-12T06:40:16.929Z</time></trkpt><trkpt lat="43.6239793" lon="6.7670893"><ele>345.0</ele><time>2026-04-12T06:40:17.911Z</time></trkpt><trkpt lat="43.623987" lon="6.7672387"><ele>345.0</ele><time>2026-04-12T06:40:18.89Z</time></trkpt><trkpt lat="43.6239825" lon="6.7673853"><ele>346.0</ele><time>2026-04-12T06:40:19.93Z</time></trkpt><trkpt lat="43.6239861" lon="6.7675308"><ele>347.0</ele><time>2026-04-12T06:40:20.915Z</time></trkpt><trkpt lat="43.6240024" lon="6.7676714"><ele>348.0</ele><time>2026-04-12T06:40:21.884Z</time></trkpt><trkpt lat="43.6240479" lon="6.7678059"><ele>349.0</ele><time>2026-04-12T06:40:22.915Z</time></trkpt><trkpt lat="43.6241373" lon="6.7678965"><ele>350.0</ele><time>2026-04-12T06:40:23.929Z</time></trkpt><trkpt lat="43.6242289" lon="6.7679225"><ele>352.6</ele><time>2026-04-12T06:40:24.922Z</time></trkpt><trkpt lat="43.6243268" lon="6.7679033"><ele>355.2</ele><time>2026-04-12T06:40:25.913Z</time></trkpt><trkpt lat="43.6244158" lon="6.7678667"><ele>357.79999999999995</ele><time>2026-04-12T06:40:26.914Z</time></trkpt><trkpt lat="43.6244983" lon="6.7678147"><ele>360.4</ele><time>2026-04-12T06:40:27.952Z</time></trkpt><trkpt lat="43.6245783" lon="6.7677689"><ele>363.0</ele><time>2026-04-12T06:40:28.922Z</time></trkpt><trkpt lat="43.6246623" lon="6.7677257"><ele>362.1666666666667</ele><time>2026-04-12T06:40:29.927Z</time></trkpt><trkpt lat="43.6247435" lon="6.7676824"><ele>361.3333333333333</ele><time>2026-04-12T06:40:30.908Z</time></trkpt><trkpt lat="43.6248189" lon="6.7676377"><ele>360.5</ele><time>2026-04-12T06:40:31.884Z</time></trkpt><trkpt lat="43.6248943" lon="6.7675903"><ele>359.66666666666663</ele><time>2026-04-12T06:40:32.927Z</time></trkpt><trkpt lat="43.6249585" lon="6.7675275"><ele>358.8333333333333</ele><time>2026-04-12T06:40:33.921Z</time></trkpt><trkpt lat="43.6250138" lon="6.7674552"><ele>358.0</ele><time>2026-04-12T06:40:34.93Z</time></trkpt><trkpt lat="43.6250689" lon="6.7673759"><ele>358.0</ele><time>2026-04-12T06:40:35.924Z</time></trkpt><trkpt lat="43.6251129" lon="6.7672926"><ele>358.0</ele><time>2026-04-12T06:40:36.932Z</time></trkpt><trkpt lat="43.6251452" lon="6.7671949"><ele>358.0</ele><time>2026-04-12T06:40:37.918Z</time></trkpt><trkpt lat="43.6251707" lon="6.7670994"><ele>358.0</ele><time>2026-04-12T06:40:38.916Z</time></trkpt><trkpt lat="43.6251793" lon="6.7669937"><ele>358.0</ele><time>2026-04-12T06:40:39.933Z</time></trkpt><trkpt lat="43.6251829" lon="6.7668904"><ele>358.0</ele><time>2026-04-12T06:40:40.921Z</time></trkpt><trkpt lat="43.6251747" lon="6.766786"><ele>357.16666666666663</ele><time>2026-04-12T06:40:41.923Z</time></trkpt><trkpt lat="43.6251649" lon="6.7666801"><ele>356.3333333333333</ele><time>2026-04-12T06:40:42.933Z</time></trkpt><trkpt lat="43.6251562" lon="6.7665723"><ele>355.5</ele><time>2026-04-12T06:40:43.931Z</time></trkpt><trkpt lat="43.6251355" lon="6.7664653"><ele>354.6666666666667</ele><time>2026-04-12T06:40:44.909Z</time></trkpt><trkpt lat="43.6251111" lon="6.7663525"><ele>353.83333333333337</ele><time>2026-04-12T06:40:45.918Z</time></trkpt><trkpt lat="43.6250878" lon="6.7662438"><ele>353.0</ele><time>2026-04-12T06:40:46.921Z</time></trkpt><trkpt lat="43.625047" lon="6.7661447"><ele>353.0</ele><time>2026-04-12T06:40:47.916Z</time></trkpt><trkpt lat="43.625016" lon="6.7660391"><ele>353.0</ele><time>2026-04-12T06:40:48.927Z</time></trkpt><trkpt lat="43.6250052" lon="6.7659179"><ele>353.0</ele><time>2026-04-12T06:40:49.937Z</time></trkpt><trkpt lat="43.6249959" lon="6.765792"><ele>353.0</ele><time>2026-04-12T06:40:50.944Z</time></trkpt><trkpt lat="43.6249891" lon="6.7656619"><ele>353.0</ele><time>2026-04-12T06:40:51.906Z</time></trkpt><trkpt lat="43.6249705" lon="6.7655276"><ele>353.4</ele><time>2026-04-12T06:40:52.919Z</time></trkpt><trkpt lat="43.6249523" lon="6.7653849"><ele>353.79999999999995</ele><time>2026-04-12T06:40:53.892Z</time></trkpt><trkpt lat="43.6249372" lon="6.7652387"><ele>354.2</ele><time>2026-04-12T06:40:54.942Z</time></trkpt><trkpt lat="43.6249238" lon="6.765101"><ele>354.6</ele><time>2026-04-12T06:40:55.891Z</time></trkpt><trkpt lat="43.6249251" lon="6.7649661"><ele>355.0</ele><time>2026-04-12T06:40:56.917Z</time></trkpt><trkpt lat="43.6249389" lon="6.7648274"><ele>355.2</ele><time>2026-04-12T06:40:57.92Z</time></trkpt><trkpt lat="43.6249537" lon="6.764697"><ele>355.4</ele><time>2026-04-12T06:40:58.934Z</time></trkpt><trkpt lat="43.6249708" lon="6.7645671"><ele>355.6</ele><time>2026-04-12T06:40:59.916Z</time></trkpt><trkpt lat="43.6249881" lon="6.7644317"><ele>355.8</ele><time>2026-04-12T06:41:00.915Z</time></trkpt><trkpt lat="43.6250065" lon="6.7642969"><ele>356.0</ele><time>2026-04-12T06:41:01.882Z</time></trkpt><trkpt lat="43.6250279" lon="6.764159"><ele>355.4</ele><time>2026-04-12T06:41:02.948Z</time></trkpt><trkpt lat="43.6250515" lon="6.7640202"><ele>354.8</ele><time>2026-04-12T06:41:03.935Z</time></trkpt><trkpt lat="43.6250752" lon="6.7638848"><ele>354.2</ele><time>2026-04-12T06:41:04.902Z</time></trkpt><trkpt lat="43.6251048" lon="6.763755"><ele>353.59999999999997</ele><time>2026-04-12T06:41:05.906Z</time></trkpt><trkpt lat="43.6251459" lon="6.7636199"><ele>353.0</ele><time>2026-04-12T06:41:06.932Z</time></trkpt><trkpt lat="43.6251978" lon="6.7634965"><ele>351.2</ele><time>2026-04-12T06:41:07.894Z</time></trkpt><trkpt lat="43.6252605" lon="6.7633849"><ele>349.4</ele><time>2026-04-12T06:41:08.906Z</time></trkpt><trkpt lat="43.6253226" lon="6.7632771"><ele>347.59999999999997</ele><time>2026-04-12T06:41:09.902Z</time></trkpt><trkpt lat="43.6253927" lon="6.7631759"><ele>345.79999999999995</ele><time>2026-04-12T06:41:10.906Z</time></trkpt><trkpt lat="43.6254708" lon="6.7630843"><ele>344.0</ele><time>2026-04-12T06:41:11.943Z</time></trkpt><trkpt lat="43.6255512" lon="6.7630019"><ele>345.2</ele><time>2026-04-12T06:41:12.918Z</time></trkpt><trkpt lat="43.6256301" lon="6.7629209"><ele>346.4</ele><time>2026-04-12T06:41:13.938Z</time></trkpt><trkpt lat="43.6257102" lon="6.7628386"><ele>347.6</ele><time>2026-04-12T06:41:14.915Z</time></trkpt><trkpt lat="43.6257912" lon="6.7627514"><ele>348.8</ele><time>2026-04-12T06:41:15.897Z</time></trkpt><trkpt lat="43.6258723" lon="6.7626642"><ele>350.0</ele><time>2026-04-12T06:41:16.94Z</time></trkpt><trkpt lat="43.625949" lon="6.7625813"><ele>350.0</ele><time>2026-04-12T06:41:17.899Z</time></trkpt><trkpt lat="43.626021" lon="6.7624879"><ele>350.0</ele><time>2026-04-12T06:41:18.942Z</time></trkpt><trkpt lat="43.6260885" lon="6.7623836"><ele>350.0</ele><time>2026-04-12T06:41:19.907Z</time></trkpt><trkpt lat="43.626144" lon="6.7622668"><ele>350.0</ele><time>2026-04-12T06:41:20.919Z</time></trkpt><trkpt lat="43.626195" lon="6.7621525"><ele>350.0</ele><time>2026-04-12T06:41:21.933Z</time></trkpt><trkpt lat="43.6262378" lon="6.762025"><ele>352.0</ele><time>2026-04-12T06:41:22.9Z</time></trkpt><trkpt lat="43.6262892" lon="6.7619112"><ele>354.0</ele><time>2026-04-12T06:41:23.92Z</time></trkpt><trkpt lat="43.6263442" lon="6.7617915"><ele>356.0</ele><time>2026-04-12T06:41:24.916Z</time></trkpt><trkpt lat="43.6263934" lon="6.7616691"><ele>358.0</ele><time>2026-04-12T06:41:25.924Z</time></trkpt><trkpt lat="43.6264536" lon="6.761561"><ele>360.0</ele><time>2026-04-12T06:41:26.911Z</time></trkpt><trkpt lat="43.626521" lon="6.7614617"><ele>360.0</ele><time>2026-04-12T06:41:27.922Z</time></trkpt><trkpt lat="43.6265998" lon="6.7613789"><ele>360.0</ele><time>2026-04-12T06:41:28.888Z</time></trkpt><trkpt lat="43.6266862" lon="6.7613146"><ele>360.0</ele><time>2026-04-12T06:41:29.926Z</time></trkpt><trkpt lat="43.6267737" lon="6.7612603"><ele>360.0</ele><time>2026-04-12T06:41:30.924Z</time></trkpt><trkpt lat="43.6268616" lon="6.7612109"><ele>360.0</ele><time>2026-04-12T06:41:31.871Z</time></trkpt><trkpt lat="43.6269464" lon="6.7611578"><ele>362.5</ele><time>2026-04-12T06:41:32.892Z</time></trkpt><trkpt lat="43.6270197" lon="6.7611189"><ele>365.0</ele><time>2026-04-12T06:41:33.922Z</time></trkpt><trkpt lat="43.6270873" lon="6.7611208"><ele>367.5</ele><time>2026-04-12T06:41:34.906Z</time></trkpt><trkpt lat="43.6271767" lon="6.7611907"><ele>370.0</ele><time>2026-04-12T06:41:36.899Z</time></trkpt><trkpt lat="43.6272509" lon="6.7612525"><ele>372.5</ele><time>2026-04-12T06:41:39.905Z</time></trkpt><trkpt lat="43.6273223" lon="6.7612971"><ele>375.0</ele><time>2026-04-12T06:41:43.928Z</time></trkpt><trkpt lat="43.6274043" lon="6.7613275"><ele>375.0</ele><time>2026-04-12T06:41:47.917Z</time></trkpt><trkpt lat="43.627466" lon="6.7613595"><ele>375.0</ele><time>2026-04-12T06:41:50.91Z</time></trkpt><trkpt lat="43.6275286" lon="6.7613834"><ele>375.0</ele><time>2026-04-12T06:41:53.914Z</time></trkpt><trkpt lat="43.627608" lon="6.7614073"><ele>375.0</ele><time>2026-04-12T06:41:57.896Z</time></trkpt><trkpt lat="43.6276849" lon="6.7614542"><ele>375.0</ele><time>2026-04-12T06:42:00.915Z</time></trkpt><trkpt lat="43.6277461" lon="6.76148"><ele>375.0</ele><time>2026-04-12T06:42:02.932Z</time></trkpt><trkpt lat="43.6278275" lon="6.7614951"><ele>375.0</ele><time>2026-04-12T06:42:05.904Z</time></trkpt><trkpt lat="43.6279165" lon="6.7614972"><ele>377.0</ele><time>2026-04-12T06:42:08.907Z</time></trkpt><trkpt lat="43.6279978" lon="6.7614742"><ele>379.0</ele><time>2026-04-12T06:42:11.893Z</time></trkpt><trkpt lat="43.6280713" lon="6.7614788"><ele>381.0</ele><time>2026-04-12T06:42:14.925Z</time></trkpt><trkpt lat="43.6281581" lon="6.761496"><ele>383.0</ele><time>2026-04-12T06:42:18.896Z</time></trkpt><trkpt lat="43.6282321" lon="6.7615147"><ele>385.0</ele><time>2026-04-12T06:42:21.912Z</time></trkpt><trkpt lat="43.6282999" lon="6.761538"><ele>387.0</ele><time>2026-04-12T06:42:24.923Z</time></trkpt><trkpt lat="43.6283802" lon="6.761566"><ele>387.0</ele><time>2026-04-12T06:42:27.905Z</time></trkpt><trkpt lat="43.6284488" lon="6.7615851"><ele>387.0</ele><time>2026-04-12T06:42:30.905Z</time></trkpt><trkpt lat="43.6285209" lon="6.7615983"><ele>387.0</ele><time>2026-04-12T06:42:33.921Z</time></trkpt><trkpt lat="43.6286079" lon="6.7616135"><ele>387.0</ele><time>2026-04-12T06:42:36.901Z</time></trkpt><trkpt lat="43.6286907" lon="6.7616271"><ele>387.0</ele><time>2026-04-12T06:42:39.913Z</time></trkpt><trkpt lat="43.6287583" lon="6.7616409"><ele>387.0</ele><time>2026-04-12T06:42:42.906Z</time></trkpt><trkpt lat="43.6288338" lon="6.761652"><ele>387.6666666666667</ele><time>2026-04-12T06:42:45.884Z</time></trkpt><trkpt lat="43.6289016" lon="6.7616422"><ele>388.33333333333337</ele><time>2026-04-12T06:42:48.864Z</time></trkpt><trkpt lat="43.628983" lon="6.7616561"><ele>389.0</ele><time>2026-04-12T06:42:52.892Z</time></trkpt><trkpt lat="43.6290661" lon="6.7616529"><ele>389.6666666666667</ele><time>2026-04-12T06:42:56.92Z</time></trkpt><trkpt lat="43.6291309" lon="6.7616641"><ele>390.33333333333337</ele><time>2026-04-12T06:42:59.922Z</time></trkpt><trkpt lat="43.6292175" lon="6.7616754"><ele>391.0</ele><time>2026-04-12T06:43:02.908Z</time></trkpt><trkpt lat="43.6292979" lon="6.7616882"><ele>391.0</ele><time>2026-04-12T06:43:04.91Z</time></trkpt><trkpt lat="43.6293696" lon="6.761689"><ele>391.0</ele><time>2026-04-12T06:43:06.898Z</time></trkpt><trkpt lat="43.6294446" lon="6.7616311"><ele>391.0</ele><time>2026-04-12T06:43:08.924Z</time></trkpt><trkpt lat="43.6295018" lon="6.761513"><ele>391.0</ele><time>2026-04-12T06:43:10.907Z</time></trkpt><trkpt lat="43.6295652" lon="6.7613582"><ele>391.0</ele><time>2026-04-12T06:43:12.918Z</time></trkpt><trkpt lat="43.6295957" lon="6.7612733"><ele>390.99999999999994</ele><time>2026-04-12T06:43:13.909Z</time></trkpt><trkpt lat="43.629623" lon="6.7611837"><ele>391.0</ele><time>2026-04-12T06:43:14.923Z</time></trkpt><trkpt lat="43.6296375" lon="6.7610974"><ele>391.0</ele><time>2026-04-12T06:43:15.915Z</time></trkpt><trkpt lat="43.6296552" lon="6.7610033"><ele>391.0</ele><time>2026-04-12T06:43:16.918Z</time></trkpt><trkpt lat="43.6296692" lon="6.7609167"><ele>391.0</ele><time>2026-04-12T06:43:17.93Z</time></trkpt><trkpt lat="43.6296824" lon="6.760826"><ele>390.99999999999994</ele><time>2026-04-12T06:43:18.927Z</time></trkpt><trkpt lat="43.6296989" lon="6.7607289"><ele>391.0</ele><time>2026-04-12T06:43:19.92Z</time></trkpt><trkpt lat="43.6297106" lon="6.7606272"><ele>390.99999999999994</ele><time>2026-04-12T06:43:20.922Z</time></trkpt><trkpt lat="43.6297245" lon="6.7605305"><ele>391.0</ele><time>2026-04-12T06:43:21.931Z</time></trkpt><trkpt lat="43.629739" lon="6.7604368"><ele>391.0</ele><time>2026-04-12T06:43:22.926Z</time></trkpt><trkpt lat="43.6297527" lon="6.7603394"><ele>391.0</ele><time>2026-04-12T06:43:23.922Z</time></trkpt><trkpt lat="43.6297665" lon="6.7602411"><ele>391.0</ele><time>2026-04-12T06:43:24.909Z</time></trkpt><trkpt lat="43.6297838" lon="6.7601419"><ele>390.99999999999994</ele><time>2026-04-12T06:43:25.906Z</time></trkpt><trkpt lat="43.6297986" lon="6.7600466"><ele>391.0</ele><time>2026-04-12T06:43:26.918Z</time></trkpt><trkpt lat="43.6298159" lon="6.7599567"><ele>390.85714285714283</ele><time>2026-04-12T06:43:27.913Z</time></trkpt><trkpt lat="43.6298328" lon="6.7598638"><ele>390.7142857142857</ele><time>2026-04-12T06:43:28.928Z</time></trkpt><trkpt lat="43.6298494" lon="6.7597705"><ele>390.57142857142856</ele><time>2026-04-12T06:43:29.895Z</time></trkpt><trkpt lat="43.6298646" lon="6.7596837"><ele>390.42857142857144</ele><time>2026-04-12T06:43:30.914Z</time></trkpt><trkpt lat="43.6298803" lon="6.7595953"><ele>390.2857142857143</ele><time>2026-04-12T06:43:31.924Z</time></trkpt><trkpt lat="43.6298921" lon="6.7595022"><ele>390.1428571428571</ele><time>2026-04-12T06:43:32.915Z</time></trkpt><trkpt lat="43.6299026" lon="6.7594076"><ele>390.0</ele><time>2026-04-12T06:43:33.913Z</time></trkpt><trkpt lat="43.6299167" lon="6.7593137"><ele>390.3333333333333</ele><time>2026-04-12T06:43:34.933Z</time></trkpt><trkpt lat="43.6299273" lon="6.7592197"><ele>390.66666666666663</ele><time>2026-04-12T06:43:35.918Z</time></trkpt><trkpt lat="43.6299308" lon="6.759119"><ele>391.0</ele><time>2026-04-12T06:43:36.923Z</time></trkpt><trkpt lat="43.6299413" lon="6.7590228"><ele>391.3333333333333</ele><time>2026-04-12T06:43:37.923Z</time></trkpt><trkpt lat="43.6299524" lon="6.758935"><ele>391.66666666666663</ele><time>2026-04-12T06:43:38.903Z</time></trkpt><trkpt lat="43.6299876" lon="6.758808"><ele>392.0</ele><time>2026-04-12T06:43:40.914Z</time></trkpt><trkpt lat="43.6300653" lon="6.75879"><ele>391.99999999999994</ele><time>2026-04-12T06:43:42.916Z</time></trkpt><trkpt lat="43.6301713" lon="6.7588819"><ele>392.0</ele><time>2026-04-12T06:43:44.884Z</time></trkpt><trkpt lat="43.630226" lon="6.7589428"><ele>392.0</ele><time>2026-04-12T06:43:45.915Z</time></trkpt><trkpt lat="43.6302902" lon="6.7589998"><ele>392.0</ele><time>2026-04-12T06:43:46.94Z</time></trkpt><trkpt lat="43.6303594" lon="6.7590629"><ele>391.99999999999994</ele><time>2026-04-12T06:43:47.925Z</time></trkpt><trkpt lat="43.6304364" lon="6.7591283"><ele>392.0</ele><time>2026-04-12T06:43:48.932Z</time></trkpt><trkpt lat="43.6305119" lon="6.759194"><ele>391.99999999999994</ele><time>2026-04-12T06:43:49.911Z</time></trkpt><trkpt lat="43.6305898" lon="6.7592608"><ele>392.0</ele><time>2026-04-12T06:43:50.897Z</time></trkpt><trkpt lat="43.6306691" lon="6.7593302"><ele>392.0</ele><time>2026-04-12T06:43:51.937Z</time></trkpt><trkpt lat="43.6307425" lon="6.7594005"><ele>392.0</ele><time>2026-04-12T06:43:52.921Z</time></trkpt><trkpt lat="43.6308144" lon="6.7594701"><ele>391.99999999999994</ele><time>2026-04-12T06:43:53.933Z</time></trkpt><trkpt lat="43.6308868" lon="6.7595361"><ele>392.0</ele><time>2026-04-12T06:43:54.929Z</time></trkpt><trkpt lat="43.6309576" lon="6.7596009"><ele>392.0</ele><time>2026-04-12T06:43:55.904Z</time></trkpt><trkpt lat="43.6310343" lon="6.7596754"><ele>392.0</ele><time>2026-04-12T06:43:56.922Z</time></trkpt><trkpt lat="43.6311141" lon="6.7597452"><ele>392.0</ele><time>2026-04-12T06:43:57.925Z</time></trkpt><trkpt lat="43.6311913" lon="6.7598169"><ele>392.0</ele><time>2026-04-12T06:43:58.935Z</time></trkpt><trkpt lat="43.6312657" lon="6.7598896"><ele>392.0</ele><time>2026-04-12T06:43:59.909Z</time></trkpt><trkpt lat="43.6313409" lon="6.7599612"><ele>392.0</ele><time>2026-04-12T06:44:00.902Z</time></trkpt><trkpt lat="43.6314199" lon="6.7600294"><ele>392.0</ele><time>2026-04-12T06:44:01.898Z</time></trkpt><trkpt lat="43.6315079" lon="6.7600975"><ele>392.0</ele><time>2026-04-12T06:44:02.899Z</time></trkpt><trkpt lat="43.6315948" lon="6.7601644"><ele>392.0</ele><time>2026-04-12T06:44:03.889Z</time></trkpt><trkpt lat="43.6316805" lon="6.7602258"><ele>392.0</ele><time>2026-04-12T06:44:04.893Z</time></trkpt><trkpt lat="43.6317702" lon="6.7602881"><ele>391.40000000000003</ele><time>2026-04-12T06:44:05.896Z</time></trkpt><trkpt lat="43.6318601" lon="6.7603463"><ele>390.8</ele><time>2026-04-12T06:44:06.896Z</time></trkpt><trkpt lat="43.6319525" lon="6.7603994"><ele>390.2</ele><time>2026-04-12T06:44:07.902Z</time></trkpt><trkpt lat="43.6320435" lon="6.7604543"><ele>389.6</ele><time>2026-04-12T06:44:08.93Z</time></trkpt><trkpt lat="43.6321364" lon="6.7605104"><ele>389.0</ele><time>2026-04-12T06:44:09.92Z</time></trkpt><trkpt lat="43.6322249" lon="6.7605688"><ele>389.0</ele><time>2026-04-12T06:44:10.885Z</time></trkpt><trkpt lat="43.6323107" lon="6.7606289"><ele>389.0</ele><time>2026-04-12T06:44:11.924Z</time></trkpt><trkpt lat="43.6323974" lon="6.760684"><ele>389.0</ele><time>2026-04-12T06:44:12.92Z</time></trkpt><trkpt lat="43.6324847" lon="6.760733"><ele>389.0</ele><time>2026-04-12T06:44:13.923Z</time></trkpt><trkpt lat="43.6325702" lon="6.7607883"><ele>389.0</ele><time>2026-04-12T06:44:14.919Z</time></trkpt><trkpt lat="43.6326568" lon="6.7608446"><ele>389.0</ele><time>2026-04-12T06:44:15.91Z</time></trkpt><trkpt lat="43.6327447" lon="6.760906"><ele>389.0</ele><time>2026-04-12T06:44:16.888Z</time></trkpt><trkpt lat="43.6328292" lon="6.7609601"><ele>389.0</ele><time>2026-04-12T06:44:17.905Z</time></trkpt><trkpt lat="43.6329121" lon="6.7610136"><ele>389.0</ele><time>2026-04-12T06:44:18.943Z</time></trkpt><trkpt lat="43.6329938" lon="6.7610733"><ele>389.0</ele><time>2026-04-12T06:44:19.927Z</time></trkpt><trkpt lat="43.6330741" lon="6.7611433"><ele>389.6</ele><time>2026-04-12T06:44:20.91Z</time></trkpt><trkpt lat="43.633149" lon="6.7612194"><ele>390.2</ele><time>2026-04-12T06:44:21.918Z</time></trkpt><trkpt lat="43.6332263" lon="6.7613047"><ele>390.8</ele><time>2026-04-12T06:44:22.909Z</time></trkpt><trkpt lat="43.6333053" lon="6.7613796"><ele>391.40000000000003</ele><time>2026-04-12T06:44:23.93Z</time></trkpt><trkpt lat="43.6333884" lon="6.7614375"><ele>392.0</ele><time>2026-04-12T06:44:24.919Z</time></trkpt><trkpt lat="43.6334759" lon="6.7614842"><ele>392.0</ele><time>2026-04-12T06:44:25.903Z</time></trkpt><trkpt lat="43.6335688" lon="6.7615121"><ele>392.0</ele><time>2026-04-12T06:44:26.917Z</time></trkpt><trkpt lat="43.633664" lon="6.7615365"><ele>392.0</ele><time>2026-04-12T06:44:27.915Z</time></trkpt><trkpt lat="43.6337549" lon="6.7615737"><ele>392.0</ele><time>2026-04-12T06:44:28.917Z</time></trkpt><trkpt lat="43.6338391" lon="6.7616238"><ele>392.0</ele><time>2026-04-12T06:44:29.915Z</time></trkpt><trkpt lat="43.6339211" lon="6.7616819"><ele>391.8</ele><time>2026-04-12T06:44:30.926Z</time></trkpt><trkpt lat="43.6340002" lon="6.7617564"><ele>391.6</ele><time>2026-04-12T06:44:31.917Z</time></trkpt><trkpt lat="43.6340768" lon="6.7618229"><ele>391.40000000000003</ele><time>2026-04-12T06:44:32.941Z</time></trkpt><trkpt lat="43.6341589" lon="6.7618941"><ele>391.20000000000005</ele><time>2026-04-12T06:44:33.933Z</time></trkpt><trkpt lat="43.6342428" lon="6.761954"><ele>391.0</ele><time>2026-04-12T06:44:34.925Z</time></trkpt><trkpt lat="43.6343271" lon="6.7620157"><ele>391.4</ele><time>2026-04-12T06:44:35.906Z</time></trkpt><trkpt lat="43.6344197" lon="6.7620757"><ele>391.8</ele><time>2026-04-12T06:44:36.92Z</time></trkpt><trkpt lat="43.6345126" lon="6.7621285"><ele>392.2</ele><time>2026-04-12T06:44:37.929Z</time></trkpt><trkpt lat="43.6346014" lon="6.762179"><ele>392.59999999999997</ele><time>2026-04-12T06:44:38.909Z</time></trkpt><trkpt lat="43.6346881" lon="6.7622271"><ele>393.0</ele><time>2026-04-12T06:44:39.92Z</time></trkpt><trkpt lat="43.6347748" lon="6.7622767"><ele>393.0</ele><time>2026-04-12T06:44:40.906Z</time></trkpt><trkpt lat="43.6348619" lon="6.7623372"><ele>393.0</ele><time>2026-04-12T06:44:41.899Z</time></trkpt><trkpt lat="43.6349364" lon="6.7624207"><ele>393.0</ele><time>2026-04-12T06:44:42.942Z</time></trkpt><trkpt lat="43.6349971" lon="6.762519"><ele>393.0</ele><time>2026-04-12T06:44:43.892Z</time></trkpt><trkpt lat="43.6350517" lon="6.7626228"><ele>393.0</ele><time>2026-04-12T06:44:44.918Z</time></trkpt><trkpt lat="43.6350981" lon="6.762733"><ele>392.8333333333333</ele><time>2026-04-12T06:44:45.909Z</time></trkpt><trkpt lat="43.6351389" lon="6.7628433"><ele>392.66666666666663</ele><time>2026-04-12T06:44:46.926Z</time></trkpt><trkpt lat="43.635175" lon="6.762956"><ele>392.5</ele><time>2026-04-12T06:44:47.927Z</time></trkpt><trkpt lat="43.6352136" lon="6.7630655"><ele>392.3333333333333</ele><time>2026-04-12T06:44:48.908Z</time></trkpt><trkpt lat="43.6352515" lon="6.7631672"><ele>392.16666666666663</ele><time>2026-04-12T06:44:49.931Z</time></trkpt><trkpt lat="43.6352962" lon="6.7632654"><ele>392.0</ele><time>2026-04-12T06:44:50.917Z</time></trkpt><trkpt lat="43.6353465" lon="6.7633619"><ele>392.3333333333333</ele><time>2026-04-12T06:44:51.943Z</time></trkpt><trkpt lat="43.6354007" lon="6.7634513"><ele>392.66666666666663</ele><time>2026-04-12T06:44:52.922Z</time></trkpt><trkpt lat="43.6354589" lon="6.7635491"><ele>393.0</ele><time>2026-04-12T06:44:53.941Z</time></trkpt><trkpt lat="43.6355169" lon="6.7636434"><ele>393.33333333333337</ele><time>2026-04-12T06:44:54.91Z</time></trkpt><trkpt lat="43.6355806" lon="6.7637305"><ele>393.6666666666667</ele><time>2026-04-12T06:44:55.924Z</time></trkpt><trkpt lat="43.6356558" lon="6.7637992"><ele>394.0</ele><time>2026-04-12T06:44:56.923Z</time></trkpt><trkpt lat="43.6357403" lon="6.7638493"><ele>394.0</ele><time>2026-04-12T06:44:57.911Z</time></trkpt><trkpt lat="43.6358221" lon="6.7638864"><ele>394.0</ele><time>2026-04-12T06:44:58.938Z</time></trkpt><trkpt lat="43.6359081" lon="6.7639248"><ele>394.0</ele><time>2026-04-12T06:44:59.916Z</time></trkpt><trkpt lat="43.635999" lon="6.7639636"><ele>394.0</ele><time>2026-04-12T06:45:00.898Z</time></trkpt><trkpt lat="43.6360882" lon="6.7640079"><ele>394.0</ele><time>2026-04-12T06:45:01.879Z</time></trkpt><trkpt lat="43.6361727" lon="6.7640524"><ele>394.0</ele><time>2026-04-12T06:45:02.932Z</time></trkpt><trkpt lat="43.6362537" lon="6.7641037"><ele>394.0</ele><time>2026-04-12T06:45:03.939Z</time></trkpt><trkpt lat="43.6363299" lon="6.764159"><ele>394.0</ele><time>2026-04-12T06:45:04.934Z</time></trkpt><trkpt lat="43.6364124" lon="6.7642174"><ele>394.0</ele><time>2026-04-12T06:45:05.919Z</time></trkpt><trkpt lat="43.6364928" lon="6.7642736"><ele>394.0</ele><time>2026-04-12T06:45:06.928Z</time></trkpt><trkpt lat="43.6365772" lon="6.764323"><ele>394.0</ele><time>2026-04-12T06:45:07.921Z</time></trkpt><trkpt lat="43.6366643" lon="6.7643664"><ele>394.0</ele><time>2026-04-12T06:45:08.937Z</time></trkpt><trkpt lat="43.6367486" lon="6.7644014"><ele>394.0</ele><time>2026-04-12T06:45:09.919Z</time></trkpt><trkpt lat="43.6368355" lon="6.7644409"><ele>394.0</ele><time>2026-04-12T06:45:10.927Z</time></trkpt><trkpt lat="43.6369252" lon="6.7644963"><ele>394.0</ele><time>2026-04-12T06:45:11.927Z</time></trkpt><trkpt lat="43.6369995" lon="6.76457"><ele>393.6</ele><time>2026-04-12T06:45:12.933Z</time></trkpt><trkpt lat="43.637066" lon="6.7646735"><ele>393.2</ele><time>2026-04-12T06:45:13.925Z</time></trkpt><trkpt lat="43.6371312" lon="6.7647893"><ele>392.8</ele><time>2026-04-12T06:45:14.925Z</time></trkpt><trkpt lat="43.6371993" lon="6.7649175"><ele>392.40000000000003</ele><time>2026-04-12T06:45:15.925Z</time></trkpt><trkpt lat="43.637271" lon="6.765033"><ele>392.0</ele><time>2026-04-12T06:45:16.934Z</time></trkpt><trkpt lat="43.6373431" lon="6.7651436"><ele>391.6</ele><time>2026-04-12T06:45:17.923Z</time></trkpt><trkpt lat="43.6374196" lon="6.7652523"><ele>391.20000000000005</ele><time>2026-04-12T06:45:18.937Z</time></trkpt><trkpt lat="43.6375041" lon="6.7653486"><ele>390.8</ele><time>2026-04-12T06:45:19.916Z</time></trkpt><trkpt lat="43.6375858" lon="6.7654458"><ele>390.4</ele><time>2026-04-12T06:45:20.914Z</time></trkpt><trkpt lat="43.6376591" lon="6.76555"><ele>390.0</ele><time>2026-04-12T06:45:21.908Z</time></trkpt><trkpt lat="43.6377314" lon="6.7656628"><ele>389.5</ele><time>2026-04-12T06:45:22.914Z</time></trkpt><trkpt lat="43.6378049" lon="6.7657764"><ele>389.0</ele><time>2026-04-12T06:45:23.93Z</time></trkpt><trkpt lat="43.6378819" lon="6.7658926"><ele>388.5</ele><time>2026-04-12T06:45:24.907Z</time></trkpt><trkpt lat="43.6379618" lon="6.76601"><ele>388.0</ele><time>2026-04-12T06:45:25.905Z</time></trkpt><trkpt lat="43.6380458" lon="6.7661233"><ele>388.0</ele><time>2026-04-12T06:45:26.931Z</time></trkpt><trkpt lat="43.6381242" lon="6.7662342"><ele>388.0</ele><time>2026-04-12T06:45:27.943Z</time></trkpt><trkpt lat="43.6382055" lon="6.7663467"><ele>388.0</ele><time>2026-04-12T06:45:28.91Z</time></trkpt><trkpt lat="43.6382911" lon="6.7664595"><ele>388.0</ele><time>2026-04-12T06:45:29.881Z</time></trkpt><trkpt lat="43.6383814" lon="6.7665688"><ele>388.0</ele><time>2026-04-12T06:45:30.927Z</time></trkpt><trkpt lat="43.6384841" lon="6.766671"><ele>388.0</ele><time>2026-04-12T06:45:31.897Z</time></trkpt><trkpt lat="43.6385887" lon="6.7667471"><ele>388.0</ele><time>2026-04-12T06:45:32.879Z</time></trkpt><trkpt lat="43.6386966" lon="6.7668044"><ele>388.0</ele><time>2026-04-12T06:45:33.913Z</time></trkpt><trkpt lat="43.6388053" lon="6.7668456"><ele>388.5</ele><time>2026-04-12T06:45:34.944Z</time></trkpt><trkpt lat="43.6389202" lon="6.7668859"><ele>389.0</ele><time>2026-04-12T06:45:35.902Z</time></trkpt><trkpt lat="43.6390318" lon="6.7669316"><ele>389.5</ele><time>2026-04-12T06:45:36.911Z</time></trkpt><trkpt lat="43.6391432" lon="6.7669817"><ele>390.0</ele><time>2026-04-12T06:45:37.903Z</time></trkpt><trkpt lat="43.6392557" lon="6.767027"><ele>390.0</ele><time>2026-04-12T06:45:38.875Z</time></trkpt><trkpt lat="43.639367" lon="6.7670648"><ele>390.0</ele><time>2026-04-12T06:45:39.937Z</time></trkpt><trkpt lat="43.6394742" lon="6.7671047"><ele>390.0</ele><time>2026-04-12T06:45:40.911Z</time></trkpt><trkpt lat="43.6395777" lon="6.7671517"><ele>390.0</ele><time>2026-04-12T06:45:41.935Z</time></trkpt><trkpt lat="43.6396764" lon="6.7672047"><ele>390.0</ele><time>2026-04-12T06:45:42.913Z</time></trkpt><trkpt lat="43.639766" lon="6.767265"><ele>389.8</ele><time>2026-04-12T06:45:43.918Z</time></trkpt><trkpt lat="43.6398489" lon="6.7673168"><ele>389.6</ele><time>2026-04-12T06:45:44.901Z</time></trkpt><trkpt lat="43.6399321" lon="6.7673641"><ele>389.4</ele><time>2026-04-12T06:45:45.893Z</time></trkpt><trkpt lat="43.6400215" lon="6.7674094"><ele>389.2</ele><time>2026-04-12T06:45:46.908Z</time></trkpt><trkpt lat="43.6401117" lon="6.7674506"><ele>389.0</ele><time>2026-04-12T06:45:47.892Z</time></trkpt><trkpt lat="43.6402021" lon="6.7674835"><ele>389.0</ele><time>2026-04-12T06:45:48.931Z</time></trkpt><trkpt lat="43.6402989" lon="6.76751"><ele>389.0</ele><time>2026-04-12T06:45:49.912Z</time></trkpt><trkpt lat="43.6403941" lon="6.7675392"><ele>389.0</ele><time>2026-04-12T06:45:50.933Z</time></trkpt><trkpt lat="43.6404853" lon="6.7675854"><ele>389.0</ele><time>2026-04-12T06:45:51.932Z</time></trkpt><trkpt lat="43.6405707" lon="6.7676418"><ele>389.0</ele><time>2026-04-12T06:45:52.915Z</time></trkpt><trkpt lat="43.6406484" lon="6.767709"><ele>389.8333333333333</ele><time>2026-04-12T06:45:53.902Z</time></trkpt><trkpt lat="43.6407227" lon="6.7677833"><ele>390.66666666666663</ele><time>2026-04-12T06:45:54.909Z</time></trkpt><trkpt lat="43.6407916" lon="6.7678639"><ele>391.5</ele><time>2026-04-12T06:45:55.902Z</time></trkpt><trkpt lat="43.6408581" lon="6.7679432"><ele>392.33333333333337</ele><time>2026-04-12T06:45:56.926Z</time></trkpt><trkpt lat="43.6409262" lon="6.7680146"><ele>393.1666666666667</ele><time>2026-04-12T06:45:57.919Z</time></trkpt><trkpt lat="43.6409921" lon="6.7680903"><ele>394.0</ele><time>2026-04-12T06:45:58.908Z</time></trkpt><trkpt lat="43.6410591" lon="6.768171"><ele>394.00000000000006</ele><time>2026-04-12T06:45:59.929Z</time></trkpt><trkpt lat="43.6411233" lon="6.7682459"><ele>394.0</ele><time>2026-04-12T06:46:00.894Z</time></trkpt><trkpt lat="43.6411878" lon="6.7683261"><ele>394.0</ele><time>2026-04-12T06:46:01.881Z</time></trkpt><trkpt lat="43.6412474" lon="6.7684036"><ele>394.0</ele><time>2026-04-12T06:46:02.882Z</time></trkpt><trkpt lat="43.6413072" lon="6.7684824"><ele>394.00000000000006</ele><time>2026-04-12T06:46:03.939Z</time></trkpt><trkpt lat="43.641367" lon="6.7685544"><ele>394.0</ele><time>2026-04-12T06:46:04.91Z</time></trkpt><trkpt lat="43.6414314" lon="6.7686257"><ele>394.1666666666667</ele><time>2026-04-12T06:46:05.903Z</time></trkpt><trkpt lat="43.6414967" lon="6.7687029"><ele>394.33333333333337</ele><time>2026-04-12T06:46:06.897Z</time></trkpt><trkpt lat="43.6415616" lon="6.76879"><ele>394.5</ele><time>2026-04-12T06:46:07.916Z</time></trkpt><trkpt lat="43.6416254" lon="6.7688715"><ele>394.66666666666663</ele><time>2026-04-12T06:46:08.92Z</time></trkpt><trkpt lat="43.6416948" lon="6.7689511"><ele>394.8333333333333</ele><time>2026-04-12T06:46:09.946Z</time></trkpt><trkpt lat="43.6417638" lon="6.7690299"><ele>395.0</ele><time>2026-04-12T06:46:10.926Z</time></trkpt><trkpt lat="43.6418405" lon="6.7691024"><ele>395.0</ele><time>2026-04-12T06:46:11.919Z</time></trkpt><trkpt lat="43.6419239" lon="6.7691569"><ele>395.0</ele><time>2026-04-12T06:46:12.919Z</time></trkpt><trkpt lat="43.6420139" lon="6.7691864"><ele>395.0</ele><time>2026-04-12T06:46:13.944Z</time></trkpt><trkpt lat="43.6421089" lon="6.7691999"><ele>395.0</ele><time>2026-04-12T06:46:14.912Z</time></trkpt><trkpt lat="43.6422037" lon="6.7692049"><ele>395.0</ele><time>2026-04-12T06:46:15.868Z</time></trkpt><trkpt lat="43.6422968" lon="6.7692154"><ele>394.4</ele><time>2026-04-12T06:46:16.931Z</time></trkpt><trkpt lat="43.6423843" lon="6.7692449"><ele>393.8</ele><time>2026-04-12T06:46:17.912Z</time></trkpt><trkpt lat="43.6424718" lon="6.7692972"><ele>393.20000000000005</ele><time>2026-04-12T06:46:18.912Z</time></trkpt><trkpt lat="43.6425493" lon="6.7693669"><ele>392.6</ele><time>2026-04-12T06:46:19.923Z</time></trkpt><trkpt lat="43.6426244" lon="6.7694458"><ele>392.0</ele><time>2026-04-12T06:46:20.934Z</time></trkpt><trkpt lat="43.6426942" lon="6.7695368"><ele>391.99999999999994</ele><time>2026-04-12T06:46:21.929Z</time></trkpt><trkpt lat="43.6427579" lon="6.7696345"><ele>392.0</ele><time>2026-04-12T06:46:22.916Z</time></trkpt><trkpt lat="43.6428168" lon="6.769735"><ele>392.0</ele><time>2026-04-12T06:46:23.9Z</time></trkpt><trkpt lat="43.6428671" lon="6.7698323"><ele>392.0</ele><time>2026-04-12T06:46:24.938Z</time></trkpt><trkpt lat="43.642912" lon="6.7699306"><ele>391.99999999999994</ele><time>2026-04-12T06:46:25.899Z</time></trkpt><trkpt lat="43.6429552" lon="6.7700158"><ele>392.0</ele><time>2026-04-12T06:46:26.888Z</time></trkpt><trkpt lat="43.6430077" lon="6.7701002"><ele>392.66666666666663</ele><time>2026-04-12T06:46:27.919Z</time></trkpt><trkpt lat="43.6430643" lon="6.7701737"><ele>393.3333333333333</ele><time>2026-04-12T06:46:28.895Z</time></trkpt><trkpt lat="43.6431236" lon="6.7702393"><ele>394.0</ele><time>2026-04-12T06:46:29.921Z</time></trkpt><trkpt lat="43.643186" lon="6.7703013"><ele>394.66666666666663</ele><time>2026-04-12T06:46:30.913Z</time></trkpt><trkpt lat="43.6432479" lon="6.7703604"><ele>395.3333333333333</ele><time>2026-04-12T06:46:31.916Z</time></trkpt><trkpt lat="43.6433085" lon="6.7704315"><ele>396.0</ele><time>2026-04-12T06:46:32.915Z</time></trkpt><trkpt lat="43.6433666" lon="6.7705138"><ele>396.0</ele><time>2026-04-12T06:46:33.93Z</time></trkpt><trkpt lat="43.6434229" lon="6.7705985"><ele>396.0</ele><time>2026-04-12T06:46:34.907Z</time></trkpt><trkpt lat="43.6434709" lon="6.7706922"><ele>396.0</ele><time>2026-04-12T06:46:35.916Z</time></trkpt><trkpt lat="43.6435152" lon="6.7707926"><ele>396.0</ele><time>2026-04-12T06:46:36.935Z</time></trkpt><trkpt lat="43.6435586" lon="6.7708891"><ele>396.0</ele><time>2026-04-12T06:46:37.923Z</time></trkpt><trkpt lat="43.6436002" lon="6.7709779"><ele>396.0</ele><time>2026-04-12T06:46:38.924Z</time></trkpt><trkpt lat="43.6436399" lon="6.7710602"><ele>396.8333333333333</ele><time>2026-04-12T06:46:39.925Z</time></trkpt><trkpt lat="43.643681" lon="6.7711361"><ele>397.66666666666663</ele><time>2026-04-12T06:46:40.932Z</time></trkpt><trkpt lat="43.643725" lon="6.7712166"><ele>398.5</ele><time>2026-04-12T06:46:41.933Z</time></trkpt><trkpt lat="43.6437715" lon="6.7712997"><ele>399.3333333333333</ele><time>2026-04-12T06:46:42.919Z</time></trkpt><trkpt lat="43.6438246" lon="6.7713772"><ele>400.16666666666663</ele><time>2026-04-12T06:46:43.919Z</time></trkpt><trkpt lat="43.6438783" lon="6.7714618"><ele>401.0</ele><time>2026-04-12T06:46:44.94Z</time></trkpt><trkpt lat="43.64393" lon="6.7715457"><ele>400.99999999999994</ele><time>2026-04-12T06:46:45.914Z</time></trkpt><trkpt lat="43.6439794" lon="6.7716268"><ele>401.0</ele><time>2026-04-12T06:46:46.908Z</time></trkpt><trkpt lat="43.6440276" lon="6.7717142"><ele>401.0</ele><time>2026-04-12T06:46:47.91Z</time></trkpt><trkpt lat="43.6440689" lon="6.7717972"><ele>401.0</ele><time>2026-04-12T06:46:48.922Z</time></trkpt><trkpt lat="43.6441067" lon="6.7718757"><ele>400.99999999999994</ele><time>2026-04-12T06:46:49.939Z</time></trkpt><trkpt lat="43.6441413" lon="6.7719488"><ele>401.0</ele><time>2026-04-12T06:46:50.931Z</time></trkpt><trkpt lat="43.644214" lon="6.7720875"><ele>400.8571428571429</ele><time>2026-04-12T06:46:52.923Z</time></trkpt><trkpt lat="43.6442492" lon="6.7721622"><ele>400.7142857142857</ele><time>2026-04-12T06:46:53.93Z</time></trkpt><trkpt lat="43.6442865" lon="6.7722389"><ele>400.57142857142856</ele><time>2026-04-12T06:46:54.892Z</time></trkpt><trkpt lat="43.6443254" lon="6.7723151"><ele>400.42857142857144</ele><time>2026-04-12T06:46:55.893Z</time></trkpt><trkpt lat="43.644369" lon="6.7723912"><ele>400.2857142857143</ele><time>2026-04-12T06:46:56.921Z</time></trkpt><trkpt lat="43.6444089" lon="6.7724722"><ele>400.14285714285717</ele><time>2026-04-12T06:46:57.928Z</time></trkpt><trkpt lat="43.6444536" lon="6.7725472"><ele>400.0</ele><time>2026-04-12T06:46:58.911Z</time></trkpt><trkpt lat="43.6444955" lon="6.7726268"><ele>400.5714285714286</ele><time>2026-04-12T06:46:59.919Z</time></trkpt><trkpt lat="43.6445369" lon="6.7726994"><ele>401.14285714285717</ele><time>2026-04-12T06:47:00.912Z</time></trkpt><trkpt lat="43.644584" lon="6.7727766"><ele>401.7142857142857</ele><time>2026-04-12T06:47:01.92Z</time></trkpt><trkpt lat="43.64463" lon="6.7728525"><ele>402.28571428571433</ele><time>2026-04-12T06:47:02.921Z</time></trkpt><trkpt lat="43.6446783" lon="6.7729357"><ele>402.85714285714283</ele><time>2026-04-12T06:47:03.942Z</time></trkpt><trkpt lat="43.6447255" lon="6.7730223"><ele>403.42857142857144</ele><time>2026-04-12T06:47:04.914Z</time></trkpt><trkpt lat="43.6447725" lon="6.7731114"><ele>404.0</ele><time>2026-04-12T06:47:05.912Z</time></trkpt><trkpt lat="43.6448175" lon="6.7732011"><ele>403.99999999999994</ele><time>2026-04-12T06:47:06.926Z</time></trkpt><trkpt lat="43.6448616" lon="6.7732859"><ele>404.0</ele><time>2026-04-12T06:47:07.916Z</time></trkpt><trkpt lat="43.6449136" lon="6.7733718"><ele>404.0</ele><time>2026-04-12T06:47:08.895Z</time></trkpt><trkpt lat="43.6449685" lon="6.7734635"><ele>404.0</ele><time>2026-04-12T06:47:09.916Z</time></trkpt><trkpt lat="43.6450224" lon="6.7735492"><ele>403.99999999999994</ele><time>2026-04-12T06:47:10.916Z</time></trkpt><trkpt lat="43.6450801" lon="6.773631"><ele>404.0</ele><time>2026-04-12T06:47:11.925Z</time></trkpt><trkpt lat="43.6451348" lon="6.7737138"><ele>403.49999999999994</ele><time>2026-04-12T06:47:12.94Z</time></trkpt><trkpt lat="43.6451943" lon="6.7737919"><ele>403.0</ele><time>2026-04-12T06:47:13.914Z</time></trkpt><trkpt lat="43.6452525" lon="6.7738644"><ele>402.5</ele><time>2026-04-12T06:47:14.871Z</time></trkpt><trkpt lat="43.645309" lon="6.7739412"><ele>402.0</ele><time>2026-04-12T06:47:15.899Z</time></trkpt><trkpt lat="43.645371" lon="6.7740144"><ele>401.49999999999994</ele><time>2026-04-12T06:47:16.915Z</time></trkpt><trkpt lat="43.645429" lon="6.7740833"><ele>401.0</ele><time>2026-04-12T06:47:17.88Z</time></trkpt><trkpt lat="43.645483" lon="6.7741499"><ele>402.20000000000005</ele><time>2026-04-12T06:47:18.896Z</time></trkpt><trkpt lat="43.645535" lon="6.7742134"><ele>403.40000000000003</ele><time>2026-04-12T06:47:19.928Z</time></trkpt><trkpt lat="43.6455908" lon="6.7742794"><ele>404.6</ele><time>2026-04-12T06:47:20.915Z</time></trkpt><trkpt lat="43.6456422" lon="6.7743424"><ele>405.8</ele><time>2026-04-12T06:47:21.925Z</time></trkpt><trkpt lat="43.6457322" lon="6.7744661"><ele>407.0</ele><time>2026-04-12T06:47:23.919Z</time></trkpt><trkpt lat="43.6458135" lon="6.7745953"><ele>407.0</ele><time>2026-04-12T06:47:25.916Z</time></trkpt><trkpt lat="43.6458895" lon="6.7747242"><ele>407.0</ele><time>2026-04-12T06:47:27.928Z</time></trkpt><trkpt lat="43.6459481" lon="6.7748488"><ele>407.0</ele><time>2026-04-12T06:47:29.915Z</time></trkpt><trkpt lat="43.6460107" lon="6.7749795"><ele>407.0</ele><time>2026-04-12T06:47:31.911Z</time></trkpt><trkpt lat="43.6460713" lon="6.7751127"><ele>407.0</ele><time>2026-04-12T06:47:33.942Z</time></trkpt><trkpt lat="43.6461263" lon="6.7752368"><ele>407.0</ele><time>2026-04-12T06:47:35.885Z</time></trkpt><trkpt lat="43.6461871" lon="6.7753536"><ele>407.0</ele><time>2026-04-12T06:47:37.922Z</time></trkpt><trkpt lat="43.6462405" lon="6.7754642"><ele>407.0</ele><time>2026-04-12T06:47:39.912Z</time></trkpt><trkpt lat="43.6462941" lon="6.7755811"><ele>407.0</ele><time>2026-04-12T06:47:41.919Z</time></trkpt><trkpt lat="43.6463501" lon="6.7756952"><ele>409.40000000000003</ele><time>2026-04-12T06:47:43.923Z</time></trkpt><trkpt lat="43.6464061" lon="6.7758062"><ele>411.8</ele><time>2026-04-12T06:47:45.897Z</time></trkpt><trkpt lat="43.6464601" lon="6.775919"><ele>414.2</ele><time>2026-04-12T06:47:47.917Z</time></trkpt><trkpt lat="43.6465172" lon="6.7760236"><ele>416.6</ele><time>2026-04-12T06:47:49.931Z</time></trkpt><trkpt lat="43.6465682" lon="6.7761242"><ele>419.0</ele><time>2026-04-12T06:47:51.928Z</time></trkpt><trkpt lat="43.6466202" lon="6.7762298"><ele>418.99999999999994</ele><time>2026-04-12T06:47:53.939Z</time></trkpt><trkpt lat="43.6466742" lon="6.7763352"><ele>419.0</ele><time>2026-04-12T06:47:55.917Z</time></trkpt><trkpt lat="43.6467256" lon="6.7764432"><ele>419.0</ele><time>2026-04-12T06:47:57.928Z</time></trkpt><trkpt lat="43.6467744" lon="6.7765439"><ele>419.0</ele><time>2026-04-12T06:47:59.923Z</time></trkpt><trkpt lat="43.6468144" lon="6.776655"><ele>418.99999999999994</ele><time>2026-04-12T06:48:01.885Z</time></trkpt><trkpt lat="43.6468391" lon="6.7767663"><ele>419.0</ele><time>2026-04-12T06:48:03.884Z</time></trkpt><trkpt lat="43.6468634" lon="6.7768851"><ele>419.49999999999994</ele><time>2026-04-12T06:48:05.9Z</time></trkpt><trkpt lat="43.6468826" lon="6.777014"><ele>420.0</ele><time>2026-04-12T06:48:07.912Z</time></trkpt><trkpt lat="43.646897" lon="6.777137"><ele>420.5</ele><time>2026-04-12T06:48:09.883Z</time></trkpt><trkpt lat="43.646906" lon="6.7772563"><ele>421.0</ele><time>2026-04-12T06:48:11.927Z</time></trkpt><trkpt lat="43.646915" lon="6.7773623"><ele>421.49999999999994</ele><time>2026-04-12T06:48:13.939Z</time></trkpt><trkpt lat="43.6469232" lon="6.777474"><ele>422.0</ele><time>2026-04-12T06:48:15.906Z</time></trkpt><trkpt lat="43.6469228" lon="6.777588"><ele>423.16666666666663</ele><time>2026-04-12T06:48:17.898Z</time></trkpt><trkpt lat="43.6469238" lon="6.7777019"><ele>424.3333333333333</ele><time>2026-04-12T06:48:19.898Z</time></trkpt><trkpt lat="43.6469235" lon="6.7778324"><ele>425.5</ele><time>2026-04-12T06:48:21.918Z</time></trkpt><trkpt lat="43.6469228" lon="6.7779518"><ele>426.66666666666663</ele><time>2026-04-12T06:48:23.886Z</time></trkpt><trkpt lat="43.6469163" lon="6.7780793"><ele>427.8333333333333</ele><time>2026-04-12T06:48:25.899Z</time></trkpt><trkpt lat="43.6469067" lon="6.778204"><ele>429.0</ele><time>2026-04-12T06:48:27.918Z</time></trkpt><trkpt lat="43.6468978" lon="6.7783382"><ele>429.0</ele><time>2026-04-12T06:48:29.892Z</time></trkpt><trkpt lat="43.6468802" lon="6.7784758"><ele>429.0</ele><time>2026-04-12T06:48:31.914Z</time></trkpt><trkpt lat="43.6468693" lon="6.7786126"><ele>429.0</ele><time>2026-04-12T06:48:33.904Z</time></trkpt><trkpt lat="43.6468605" lon="6.778764"><ele>429.0</ele><time>2026-04-12T06:48:35.9Z</time></trkpt><trkpt lat="43.6468542" lon="6.7789245"><ele>429.0</ele><time>2026-04-12T06:48:37.927Z</time></trkpt><trkpt lat="43.6468434" lon="6.7791037"><ele>429.0</ele><time>2026-04-12T06:48:39.91Z</time></trkpt><trkpt lat="43.6468188" lon="6.7792746"><ele>429.0</ele><time>2026-04-12T06:48:41.898Z</time></trkpt><trkpt lat="43.6468042" lon="6.7793668"><ele>429.0</ele><time>2026-04-12T06:48:42.922Z</time></trkpt><trkpt lat="43.6467859" lon="6.7794599"><ele>429.0</ele><time>2026-04-12T06:48:43.92Z</time></trkpt><trkpt lat="43.6467643" lon="6.7795579"><ele>429.0</ele><time>2026-04-12T06:48:44.921Z</time></trkpt><trkpt lat="43.6467383" lon="6.7796606"><ele>429.0</ele><time>2026-04-12T06:48:45.884Z</time></trkpt><trkpt lat="43.6467051" lon="6.7797709"><ele>428.1666666666667</ele><time>2026-04-12T06:48:46.923Z</time></trkpt><trkpt lat="43.6466746" lon="6.77988"><ele>427.33333333333337</ele><time>2026-04-12T06:48:47.894Z</time></trkpt><trkpt lat="43.646666" lon="6.7799896"><ele>426.5</ele><time>2026-04-12T06:48:48.93Z</time></trkpt><trkpt lat="43.6466814" lon="6.7800838"><ele>425.6666666666667</ele><time>2026-04-12T06:48:49.905Z</time></trkpt><trkpt lat="43.6467382" lon="6.7801548"><ele>424.83333333333337</ele><time>2026-04-12T06:48:50.914Z</time></trkpt><trkpt lat="43.6468274" lon="6.7801863"><ele>424.0</ele><time>2026-04-12T06:48:51.925Z</time></trkpt><trkpt lat="43.6469122" lon="6.7801836"><ele>422.4</ele><time>2026-04-12T06:48:52.929Z</time></trkpt><trkpt lat="43.6470053" lon="6.7801668"><ele>420.79999999999995</ele><time>2026-04-12T06:48:53.921Z</time></trkpt><trkpt lat="43.6471022" lon="6.7801359"><ele>419.20000000000005</ele><time>2026-04-12T06:48:54.909Z</time></trkpt><trkpt lat="43.6472058" lon="6.7801015"><ele>417.6</ele><time>2026-04-12T06:48:55.925Z</time></trkpt><trkpt lat="43.6473101" lon="6.7800489"><ele>416.0</ele><time>2026-04-12T06:48:56.93Z</time></trkpt><trkpt lat="43.6474108" lon="6.7799886"><ele>416.0</ele><time>2026-04-12T06:48:57.933Z</time></trkpt><trkpt lat="43.647516" lon="6.779922"><ele>416.0</ele><time>2026-04-12T06:48:58.914Z</time></trkpt><trkpt lat="43.6476235" lon="6.7798526"><ele>416.0</ele><time>2026-04-12T06:48:59.921Z</time></trkpt><trkpt lat="43.6477424" lon="6.7797923"><ele>416.0</ele><time>2026-04-12T06:49:00.919Z</time></trkpt><trkpt lat="43.6478699" lon="6.7797519"><ele>411.5</ele><time>2026-04-12T06:49:01.934Z</time></trkpt><trkpt lat="43.6479996" lon="6.7797492"><ele>407.0</ele><time>2026-04-12T06:49:02.92Z</time></trkpt><trkpt lat="43.6481309" lon="6.7797724"><ele>402.5</ele><time>2026-04-12T06:49:03.899Z</time></trkpt><trkpt lat="43.6482705" lon="6.7798015"><ele>398.0</ele><time>2026-04-12T06:49:04.906Z</time></trkpt><trkpt lat="43.6484197" lon="6.77982"><ele>398.0</ele><time>2026-04-12T06:49:05.903Z</time></trkpt><trkpt lat="43.6485737" lon="6.7798227"><ele>398.0</ele><time>2026-04-12T06:49:06.913Z</time></trkpt><trkpt lat="43.6487266" lon="6.7798164"><ele>398.0</ele><time>2026-04-12T06:49:07.888Z</time></trkpt><trkpt lat="43.6488784" lon="6.7798103"><ele>396.66666666666663</ele><time>2026-04-12T06:49:08.919Z</time></trkpt><trkpt lat="43.6490393" lon="6.7798092"><ele>395.33333333333337</ele><time>2026-04-12T06:49:09.935Z</time></trkpt><trkpt lat="43.649204" lon="6.7798119"><ele>394.0</ele><time>2026-04-12T06:49:10.923Z</time></trkpt><trkpt lat="43.6493674" lon="6.779811"><ele>392.6666666666667</ele><time>2026-04-12T06:49:11.941Z</time></trkpt><trkpt lat="43.6495302" lon="6.7798159"><ele>391.33333333333337</ele><time>2026-04-12T06:49:12.909Z</time></trkpt><trkpt lat="43.6496925" lon="6.7798294"><ele>390.0</ele><time>2026-04-12T06:49:13.925Z</time></trkpt><trkpt lat="43.6498522" lon="6.779839"><ele>390.0</ele><time>2026-04-12T06:49:14.909Z</time></trkpt><trkpt lat="43.6500115" lon="6.779836"><ele>390.0</ele><time>2026-04-12T06:49:15.902Z</time></trkpt><trkpt lat="43.6501691" lon="6.7798118"><ele>390.0</ele><time>2026-04-12T06:49:16.908Z</time></trkpt><trkpt lat="43.6503205" lon="6.7797553"><ele>381.0</ele><time>2026-04-12T06:49:17.923Z</time></trkpt><trkpt lat="43.6504672" lon="6.7796704"><ele>372.0</ele><time>2026-04-12T06:49:18.894Z</time></trkpt><trkpt lat="43.6506063" lon="6.7795561"><ele>363.0</ele><time>2026-04-12T06:49:19.923Z</time></trkpt><trkpt lat="43.6507386" lon="6.779425"><ele>373.33333333333337</ele><time>2026-04-12T06:49:20.92Z</time></trkpt><trkpt lat="43.6508632" lon="6.7792808"><ele>383.6666666666667</ele><time>2026-04-12T06:49:21.904Z</time></trkpt><trkpt lat="43.6509847" lon="6.7791332"><ele>394.0</ele><time>2026-04-12T06:49:22.899Z</time></trkpt><trkpt lat="43.6511056" lon="6.778983"><ele>386.6666666666667</ele><time>2026-04-12T06:49:23.907Z</time></trkpt><trkpt lat="43.6512296" lon="6.7788312"><ele>379.33333333333337</ele><time>2026-04-12T06:49:24.92Z</time></trkpt><trkpt lat="43.6513528" lon="6.7786743"><ele>372.0</ele><time>2026-04-12T06:49:25.899Z</time></trkpt><trkpt lat="43.651471" lon="6.7785138"><ele>372.0</ele><time>2026-04-12T06:49:26.908Z</time></trkpt><trkpt lat="43.6515801" lon="6.7783298"><ele>372.0</ele><time>2026-04-12T06:49:27.891Z</time></trkpt><trkpt lat="43.6516759" lon="6.7781372"><ele>372.0</ele><time>2026-04-12T06:49:28.925Z</time></trkpt><trkpt lat="43.6517654" lon="6.7779366"><ele>372.0</ele><time>2026-04-12T06:49:29.92Z</time></trkpt><trkpt lat="43.6518483" lon="6.7777331"><ele>372.0</ele><time>2026-04-12T06:49:30.906Z</time></trkpt><trkpt lat="43.6519227" lon="6.77753"><ele>372.0</ele><time>2026-04-12T06:49:31.926Z</time></trkpt><trkpt lat="43.6519939" lon="6.7773332"><ele>369.0</ele><time>2026-04-12T06:49:32.902Z</time></trkpt><trkpt lat="43.6520595" lon="6.7771394"><ele>366.0</ele><time>2026-04-12T06:49:33.898Z</time></trkpt><trkpt lat="43.652123" lon="6.776957"><ele>363.0</ele><time>2026-04-12T06:49:34.916Z</time></trkpt><trkpt lat="43.6521804" lon="6.776776"><ele>360.0</ele><time>2026-04-12T06:49:35.898Z</time></trkpt><trkpt lat="43.6522398" lon="6.7766167"><ele>360.0</ele><time>2026-04-12T06:49:36.921Z</time></trkpt><trkpt lat="43.6523023" lon="6.7764584"><ele>360.0</ele><time>2026-04-12T06:49:37.918Z</time></trkpt><trkpt lat="43.6523768" lon="6.7763189"><ele>360.0</ele><time>2026-04-12T06:49:38.905Z</time></trkpt><trkpt lat="43.6524658" lon="6.7761951"><ele>360.0</ele><time>2026-04-12T06:49:39.909Z</time></trkpt><trkpt lat="43.6525725" lon="6.7760864"><ele>355.25</ele><time>2026-04-12T06:49:40.917Z</time></trkpt><trkpt lat="43.6526793" lon="6.7759703"><ele>350.5</ele><time>2026-04-12T06:49:41.91Z</time></trkpt><trkpt lat="43.6527905" lon="6.7758649"><ele>345.75</ele><time>2026-04-12T06:49:42.9Z</time></trkpt><trkpt lat="43.6529" lon="6.7757541"><ele>341.0</ele><time>2026-04-12T06:49:43.886Z</time></trkpt><trkpt lat="43.653008" lon="6.775641"><ele>341.0</ele><time>2026-04-12T06:49:44.923Z</time></trkpt><trkpt lat="43.653113" lon="6.7755192"><ele>341.0</ele><time>2026-04-12T06:49:45.9Z</time></trkpt><trkpt lat="43.6532185" lon="6.7753905"><ele>341.0</ele><time>2026-04-12T06:49:46.911Z</time></trkpt><trkpt lat="43.6533197" lon="6.7752513"><ele>341.0</ele><time>2026-04-12T06:49:47.914Z</time></trkpt><trkpt lat="43.6534143" lon="6.7750933"><ele>335.0</ele><time>2026-04-12T06:49:48.9Z</time></trkpt><trkpt lat="43.6535087" lon="6.7749298"><ele>329.0</ele><time>2026-04-12T06:49:49.923Z</time></trkpt><trkpt lat="43.653606" lon="6.7747672"><ele>323.0</ele><time>2026-04-12T06:49:50.884Z</time></trkpt><trkpt lat="43.6537095" lon="6.7746055"><ele>323.0</ele><time>2026-04-12T06:49:51.912Z</time></trkpt><trkpt lat="43.6538176" lon="6.7744505"><ele>323.0</ele><time>2026-04-12T06:49:52.917Z</time></trkpt><trkpt lat="43.6539374" lon="6.7743121"><ele>323.0</ele><time>2026-04-12T06:49:53.902Z</time></trkpt><trkpt lat="43.6540578" lon="6.7741904"><ele>321.0</ele><time>2026-04-12T06:49:54.922Z</time></trkpt><trkpt lat="43.6541742" lon="6.7740718"><ele>319.0</ele><time>2026-04-12T06:49:55.879Z</time></trkpt><trkpt lat="43.654293" lon="6.7739624"><ele>317.0</ele><time>2026-04-12T06:49:56.918Z</time></trkpt><trkpt lat="43.654401" lon="6.7738475"><ele>315.0</ele><time>2026-04-12T06:49:57.927Z</time></trkpt><trkpt lat="43.6544972" lon="6.7737226"><ele>315.0</ele><time>2026-04-12T06:49:58.924Z</time></trkpt><trkpt lat="43.6545606" lon="6.7735624"><ele>315.0</ele><time>2026-04-12T06:49:59.906Z</time></trkpt><trkpt lat="43.6545964" lon="6.773387"><ele>315.0</ele><time>2026-04-12T06:50:00.913Z</time></trkpt><trkpt lat="43.6546149" lon="6.7732017"><ele>315.0</ele><time>2026-04-12T06:50:01.914Z</time></trkpt><trkpt lat="43.6546299" lon="6.7730137"><ele>318.75</ele><time>2026-04-12T06:50:02.92Z</time></trkpt><trkpt lat="43.6546545" lon="6.7728127"><ele>322.5</ele><time>2026-04-12T06:50:03.91Z</time></trkpt><trkpt lat="43.6546998" lon="6.7726228"><ele>326.25</ele><time>2026-04-12T06:50:04.871Z</time></trkpt><trkpt lat="43.6547629" lon="6.7724429"><ele>330.0</ele><time>2026-04-12T06:50:05.912Z</time></trkpt><trkpt lat="43.6548249" lon="6.7722512"><ele>331.6666666666667</ele><time>2026-04-12T06:50:06.916Z</time></trkpt><trkpt lat="43.6548933" lon="6.7720632"><ele>333.33333333333337</ele><time>2026-04-12T06:50:07.886Z</time></trkpt><trkpt lat="43.6549679" lon="6.771876"><ele>335.0</ele><time>2026-04-12T06:50:08.917Z</time></trkpt><trkpt lat="43.6550425" lon="6.7716951"><ele>337.0</ele><time>2026-04-12T06:50:09.911Z</time></trkpt><trkpt lat="43.6551094" lon="6.7715178"><ele>339.0</ele><time>2026-04-12T06:50:10.92Z</time></trkpt><trkpt lat="43.6551833" lon="6.7713462"><ele>341.0</ele><time>2026-04-12T06:50:11.913Z</time></trkpt><trkpt lat="43.6552792" lon="6.7711912"><ele>343.0</ele><time>2026-04-12T06:50:12.917Z</time></trkpt><trkpt lat="43.6553933" lon="6.7710657"><ele>339.0</ele><time>2026-04-12T06:50:13.931Z</time></trkpt><trkpt lat="43.6555186" lon="6.7709853"><ele>335.0</ele><time>2026-04-12T06:50:14.922Z</time></trkpt><trkpt lat="43.6556559" lon="6.770916"><ele>331.0</ele><time>2026-04-12T06:50:15.871Z</time></trkpt><trkpt lat="43.6557917" lon="6.7708477"><ele>327.0</ele><time>2026-04-12T06:50:16.911Z</time></trkpt><trkpt lat="43.6559337" lon="6.7707824"><ele>327.0</ele><time>2026-04-12T06:50:17.901Z</time></trkpt><trkpt lat="43.6560694" lon="6.7706892"><ele>327.0</ele><time>2026-04-12T06:50:18.934Z</time></trkpt><trkpt lat="43.6561964" lon="6.7705781"><ele>327.0</ele><time>2026-04-12T06:50:19.929Z</time></trkpt><trkpt lat="43.6563173" lon="6.7704497"><ele>325.3333333333333</ele><time>2026-04-12T06:50:20.895Z</time></trkpt><trkpt lat="43.6564406" lon="6.7703194"><ele>323.66666666666663</ele><time>2026-04-12T06:50:21.91Z</time></trkpt><trkpt lat="43.6565662" lon="6.770188"><ele>322.0</ele><time>2026-04-12T06:50:22.923Z</time></trkpt><trkpt lat="43.656692" lon="6.7700574"><ele>322.0</ele><time>2026-04-12T06:50:23.925Z</time></trkpt><trkpt lat="43.6568185" lon="6.7699405"><ele>322.0</ele><time>2026-04-12T06:50:24.891Z</time></trkpt><trkpt lat="43.6569485" lon="6.7698351"><ele>322.0</ele><time>2026-04-12T06:50:25.908Z</time></trkpt><trkpt lat="43.657085" lon="6.7697422"><ele>316.75</ele><time>2026-04-12T06:50:26.9Z</time></trkpt><trkpt lat="43.6572212" lon="6.7696645"><ele>311.5</ele><time>2026-04-12T06:50:27.937Z</time></trkpt><trkpt lat="43.6573427" lon="6.7695948"><ele>306.25</ele><time>2026-04-12T06:50:28.923Z</time></trkpt><trkpt lat="43.6574459" lon="6.7695331"><ele>301.0</ele><time>2026-04-12T06:50:29.902Z</time></trkpt><trkpt lat="43.6575316" lon="6.7694604"><ele>301.0</ele><time>2026-04-12T06:50:30.922Z</time></trkpt><trkpt lat="43.6576004" lon="6.7693734"><ele>301.0</ele><time>2026-04-12T06:50:31.93Z</time></trkpt><trkpt lat="43.6576522" lon="6.7692554"><ele>301.0</ele><time>2026-04-12T06:50:32.926Z</time></trkpt><trkpt lat="43.6576563" lon="6.7691069"><ele>301.0</ele><time>2026-04-12T06:50:33.91Z</time></trkpt><trkpt lat="43.6576448" lon="6.7689489"><ele>301.0</ele><time>2026-04-12T06:50:34.929Z</time></trkpt><trkpt lat="43.6576364" lon="6.7687898"><ele>303.75</ele><time>2026-04-12T06:50:35.899Z</time></trkpt><trkpt lat="43.6576355" lon="6.7686193"><ele>306.5</ele><time>2026-04-12T06:50:36.926Z</time></trkpt><trkpt lat="43.6576466" lon="6.7684558"><ele>309.25</ele><time>2026-04-12T06:50:37.878Z</time></trkpt><trkpt lat="43.6576679" lon="6.7683004"><ele>312.0</ele><time>2026-04-12T06:50:38.923Z</time></trkpt><trkpt lat="43.657719" lon="6.7681533"><ele>303.25</ele><time>2026-04-12T06:50:39.912Z</time></trkpt><trkpt lat="43.6578027" lon="6.7680432"><ele>294.5</ele><time>2026-04-12T06:50:40.894Z</time></trkpt><trkpt lat="43.6579083" lon="6.7679503"><ele>285.75</ele><time>2026-04-12T06:50:41.907Z</time></trkpt><trkpt lat="43.6580103" lon="6.7678626"><ele>277.0</ele><time>2026-04-12T06:50:42.915Z</time></trkpt><trkpt lat="43.6581202" lon="6.76776"><ele>283.5</ele><time>2026-04-12T06:50:43.899Z</time></trkpt><trkpt lat="43.6582236" lon="6.7676552"><ele>290.0</ele><time>2026-04-12T06:50:44.889Z</time></trkpt><trkpt lat="43.6583328" lon="6.7675492"><ele>296.5</ele><time>2026-04-12T06:50:45.879Z</time></trkpt><trkpt lat="43.6584426" lon="6.7674421"><ele>303.0</ele><time>2026-04-12T06:50:46.916Z</time></trkpt><trkpt lat="43.6585499" lon="6.7673255"><ele>296.5</ele><time>2026-04-12T06:50:47.912Z</time></trkpt><trkpt lat="43.6586555" lon="6.7672074"><ele>290.0</ele><time>2026-04-12T06:50:48.898Z</time></trkpt><trkpt lat="43.6587478" lon="6.7670926"><ele>283.5</ele><time>2026-04-12T06:50:49.901Z</time></trkpt><trkpt lat="43.6588307" lon="6.7669844"><ele>277.0</ele><time>2026-04-12T06:50:50.903Z</time></trkpt><trkpt lat="43.6589093" lon="6.7668552"><ele>277.0</ele><time>2026-04-12T06:50:51.891Z</time></trkpt><trkpt lat="43.6589649" lon="6.7667063"><ele>277.0</ele><time>2026-04-12T06:50:52.899Z</time></trkpt><trkpt lat="43.6590079" lon="6.7665418"><ele>277.0</ele><time>2026-04-12T06:50:53.902Z</time></trkpt><trkpt lat="43.6590628" lon="6.7663811"><ele>277.0</ele><time>2026-04-12T06:50:54.921Z</time></trkpt><trkpt lat="43.659131" lon="6.7662258"><ele>277.0</ele><time>2026-04-12T06:50:55.881Z</time></trkpt><trkpt lat="43.6591964" lon="6.7660578"><ele>277.0</ele><time>2026-04-12T06:50:56.898Z</time></trkpt><trkpt lat="43.6592497" lon="6.7658994"><ele>277.0</ele><time>2026-04-12T06:50:57.886Z</time></trkpt><trkpt lat="43.6593048" lon="6.7657608"><ele>277.0</ele><time>2026-04-12T06:50:58.885Z</time></trkpt><trkpt lat="43.6593601" lon="6.7656478"><ele>279.8</ele><time>2026-04-12T06:50:59.889Z</time></trkpt><trkpt lat="43.6594008" lon="6.7655438"><ele>282.6</ele><time>2026-04-12T06:51:00.926Z</time></trkpt><trkpt lat="43.6593782" lon="6.7654081"><ele>285.40000000000003</ele><time>2026-04-12T06:51:01.926Z</time></trkpt><trkpt lat="43.6593303" lon="6.7652644"><ele>288.2</ele><time>2026-04-12T06:51:02.917Z</time></trkpt><trkpt lat="43.6592971" lon="6.7651216"><ele>291.0</ele><time>2026-04-12T06:51:03.912Z</time></trkpt><trkpt lat="43.6593021" lon="6.7649884"><ele>294.2</ele><time>2026-04-12T06:51:04.906Z</time></trkpt><trkpt lat="43.6593436" lon="6.7648623"><ele>297.40000000000003</ele><time>2026-04-12T06:51:05.917Z</time></trkpt><trkpt lat="43.6594308" lon="6.7647732"><ele>300.6</ele><time>2026-04-12T06:51:06.926Z</time></trkpt><trkpt lat="43.6595256" lon="6.7646948"><ele>303.8</ele><time>2026-04-12T06:51:07.902Z</time></trkpt><trkpt lat="43.6596145" lon="6.7646055"><ele>307.0</ele><time>2026-04-12T06:51:08.913Z</time></trkpt><trkpt lat="43.6597001" lon="6.7645041"><ele>298.5</ele><time>2026-04-12T06:51:09.918Z</time></trkpt><trkpt lat="43.6597854" lon="6.7643957"><ele>290.0</ele><time>2026-04-12T06:51:10.897Z</time></trkpt><trkpt lat="43.6598722" lon="6.76429"><ele>281.5</ele><time>2026-04-12T06:51:11.92Z</time></trkpt><trkpt lat="43.6599488" lon="6.7641886"><ele>273.0</ele><time>2026-04-12T06:51:12.898Z</time></trkpt><trkpt lat="43.6600239" lon="6.7640625"><ele>273.0</ele><time>2026-04-12T06:51:13.918Z</time></trkpt><trkpt lat="43.6600626" lon="6.7638965"><ele>273.0</ele><time>2026-04-12T06:51:14.889Z</time></trkpt><trkpt lat="43.6600894" lon="6.7637302"><ele>273.0</ele><time>2026-04-12T06:51:15.919Z</time></trkpt><trkpt lat="43.6601299" lon="6.7635641"><ele>273.0</ele><time>2026-04-12T06:51:16.913Z</time></trkpt><trkpt lat="43.660205" lon="6.7634343"><ele>270.75</ele><time>2026-04-12T06:51:17.909Z</time></trkpt><trkpt lat="43.6603116" lon="6.7633446"><ele>268.5</ele><time>2026-04-12T06:51:18.903Z</time></trkpt><trkpt lat="43.6604378" lon="6.7633093"><ele>266.25</ele><time>2026-04-12T06:51:19.902Z</time></trkpt><trkpt lat="43.6605677" lon="6.7632914"><ele>264.0</ele><time>2026-04-12T06:51:20.917Z</time></trkpt><trkpt lat="43.66069" lon="6.7632481"><ele>264.0</ele><time>2026-04-12T06:51:21.874Z</time></trkpt><trkpt lat="43.6608101" lon="6.7631609"><ele>264.0</ele><time>2026-04-12T06:51:22.907Z</time></trkpt><trkpt lat="43.6609251" lon="6.7630569"><ele>264.0</ele><time>2026-04-12T06:51:23.896Z</time></trkpt><trkpt lat="43.6610331" lon="6.7629336"><ele>264.0</ele><time>2026-04-12T06:51:24.91Z</time></trkpt><trkpt lat="43.6611386" lon="6.7628078"><ele>262.5</ele><time>2026-04-12T06:51:25.904Z</time></trkpt><trkpt lat="43.66124" lon="6.7626708"><ele>261.0</ele><time>2026-04-12T06:51:26.89Z</time></trkpt><trkpt lat="43.6613422" lon="6.7625335"><ele>259.5</ele><time>2026-04-12T06:51:27.9Z</time></trkpt><trkpt lat="43.6614425" lon="6.7623974"><ele>258.0</ele><time>2026-04-12T06:51:28.91Z</time></trkpt><trkpt lat="43.6615439" lon="6.7622656"><ele>258.0</ele><time>2026-04-12T06:51:29.91Z</time></trkpt><trkpt lat="43.6616613" lon="6.7621507"><ele>258.0</ele><time>2026-04-12T06:51:30.911Z</time></trkpt><trkpt lat="43.6617856" lon="6.7620458"><ele>258.0</ele><time>2026-04-12T06:51:31.911Z</time></trkpt><trkpt lat="43.6619165" lon="6.7619552"><ele>258.0</ele><time>2026-04-12T06:51:32.91Z</time></trkpt><trkpt lat="43.6620574" lon="6.7618778"><ele>259.75</ele><time>2026-04-12T06:51:33.909Z</time></trkpt><trkpt lat="43.6622053" lon="6.761823"><ele>261.5</ele><time>2026-04-12T06:51:34.901Z</time></trkpt><trkpt lat="43.6623532" lon="6.7617843"><ele>263.25</ele><time>2026-04-12T06:51:35.907Z</time></trkpt><trkpt lat="43.6624962" lon="6.7617502"><ele>265.0</ele><time>2026-04-12T06:51:36.909Z</time></trkpt><trkpt lat="43.662645" lon="6.7617354"><ele>262.5</ele><time>2026-04-12T06:51:37.905Z</time></trkpt><trkpt lat="43.6627978" lon="6.7617381"><ele>260.0</ele><time>2026-04-12T06:51:38.914Z</time></trkpt><trkpt lat="43.6629458" lon="6.7617345"><ele>257.5</ele><time>2026-04-12T06:51:39.913Z</time></trkpt><trkpt lat="43.6630837" lon="6.7617054"><ele>255.0</ele><time>2026-04-12T06:51:40.897Z</time></trkpt><trkpt lat="43.6632169" lon="6.7616824"><ele>255.0</ele><time>2026-04-12T06:51:41.917Z</time></trkpt><trkpt lat="43.6633536" lon="6.7616934"><ele>255.0</ele><time>2026-04-12T06:51:42.909Z</time></trkpt><trkpt lat="43.6634911" lon="6.7617317"><ele>255.0</ele><time>2026-04-12T06:51:43.859Z</time></trkpt><trkpt lat="43.6636289" lon="6.7617395"><ele>255.0</ele><time>2026-04-12T06:51:44.883Z</time></trkpt><trkpt lat="43.66376" lon="6.7617436"><ele>251.75</ele><time>2026-04-12T06:51:45.912Z</time></trkpt><trkpt lat="43.6638849" lon="6.7617683"><ele>248.5</ele><time>2026-04-12T06:51:46.904Z</time></trkpt><trkpt lat="43.6640046" lon="6.7617917"><ele>245.25</ele><time>2026-04-12T06:51:47.917Z</time></trkpt><trkpt lat="43.6641219" lon="6.761787"><ele>242.0</ele><time>2026-04-12T06:51:48.91Z</time></trkpt><trkpt lat="43.6642463" lon="6.7617491"><ele>242.0</ele><time>2026-04-12T06:51:49.905Z</time></trkpt><trkpt lat="43.6643792" lon="6.7617086"><ele>242.0</ele><time>2026-04-12T06:51:50.905Z</time></trkpt><trkpt lat="43.6645237" lon="6.7616755"><ele>242.0</ele><time>2026-04-12T06:51:51.908Z</time></trkpt><trkpt lat="43.6646653" lon="6.7616304"><ele>242.0</ele><time>2026-04-12T06:51:52.903Z</time></trkpt><trkpt lat="43.6648087" lon="6.7615898"><ele>239.25</ele><time>2026-04-12T06:51:53.918Z</time></trkpt><trkpt lat="43.6649497" lon="6.7615598"><ele>236.5</ele><time>2026-04-12T06:51:54.906Z</time></trkpt><trkpt lat="43.6650805" lon="6.7615351"><ele>233.75</ele><time>2026-04-12T06:51:55.914Z</time></trkpt><trkpt lat="43.6651991" lon="6.7615199"><ele>231.0</ele><time>2026-04-12T06:51:56.903Z</time></trkpt><trkpt lat="43.6653118" lon="6.7614675"><ele>230.5</ele><time>2026-04-12T06:51:57.903Z</time></trkpt><trkpt lat="43.6654182" lon="6.761368"><ele>230.0</ele><time>2026-04-12T06:51:58.905Z</time></trkpt><trkpt lat="43.6655135" lon="6.7612499"><ele>229.5</ele><time>2026-04-12T06:51:59.901Z</time></trkpt><trkpt lat="43.6655982" lon="6.7611055"><ele>229.0</ele><time>2026-04-12T06:52:00.906Z</time></trkpt><trkpt lat="43.6656665" lon="6.7609666"><ele>228.6</ele><time>2026-04-12T06:52:01.908Z</time></trkpt><trkpt lat="43.6657296" lon="6.7608376"><ele>228.2</ele><time>2026-04-12T06:52:02.908Z</time></trkpt><trkpt lat="43.6657989" lon="6.7607184"><ele>227.79999999999998</ele><time>2026-04-12T06:52:03.907Z</time></trkpt><trkpt lat="43.6658658" lon="6.7606065"><ele>227.39999999999998</ele><time>2026-04-12T06:52:04.913Z</time></trkpt><trkpt lat="43.665935" lon="6.7605139"><ele>227.0</ele><time>2026-04-12T06:52:05.914Z</time></trkpt><trkpt lat="43.6660241" lon="6.760448"><ele>228.6</ele><time>2026-04-12T06:52:06.889Z</time></trkpt><trkpt lat="43.6661303" lon="6.7604248"><ele>230.2</ele><time>2026-04-12T06:52:07.907Z</time></trkpt><trkpt lat="43.6662457" lon="6.7604345"><ele>231.8</ele><time>2026-04-12T06:52:08.884Z</time></trkpt><trkpt lat="43.666362" lon="6.7604611"><ele>233.4</ele><time>2026-04-12T06:52:09.914Z</time></trkpt><trkpt lat="43.6664678" lon="6.7604924"><ele>235.0</ele><time>2026-04-12T06:52:10.909Z</time></trkpt><trkpt lat="43.666568" lon="6.7605163"><ele>234.99999999999997</ele><time>2026-04-12T06:52:11.897Z</time></trkpt><trkpt lat="43.6666522" lon="6.7605299"><ele>235.0</ele><time>2026-04-12T06:52:12.893Z</time></trkpt><trkpt lat="43.666729" lon="6.7605387"><ele>235.0</ele><time>2026-04-12T06:52:13.903Z</time></trkpt><trkpt lat="43.6668043" lon="6.7605627"><ele>235.0</ele><time>2026-04-12T06:52:14.912Z</time></trkpt><trkpt lat="43.6668731" lon="6.7605956"><ele>234.99999999999997</ele><time>2026-04-12T06:52:15.875Z</time></trkpt><trkpt lat="43.6669375" lon="6.7606246"><ele>235.0</ele><time>2026-04-12T06:52:16.922Z</time></trkpt><trkpt lat="43.6670363" lon="6.760627"><ele>235.0</ele><time>2026-04-12T06:52:18.91Z</time></trkpt><trkpt lat="43.6670689" lon="6.7605275"><ele>235.0</ele><time>2026-04-12T06:52:21.892Z</time></trkpt><trkpt lat="43.6670209" lon="6.7604524"><ele>235.0</ele><time>2026-04-12T06:52:23.884Z</time></trkpt><trkpt lat="43.666933" lon="6.7603554"><ele>235.0</ele><time>2026-04-12T06:52:25.909Z</time></trkpt><trkpt lat="43.6668407" lon="6.7602811"><ele>235.0</ele><time>2026-04-12T06:52:27.894Z</time></trkpt><trkpt lat="43.6667345" lon="6.7602503"><ele>235.0</ele><time>2026-04-12T06:52:29.913Z</time></trkpt><trkpt lat="43.6666218" lon="6.7602564"><ele>235.0</ele><time>2026-04-12T06:52:31.92Z</time></trkpt><trkpt lat="43.6665141" lon="6.7602482"><ele>235.0</ele><time>2026-04-12T06:52:33.917Z</time></trkpt><trkpt lat="43.6664241" lon="6.7601633"><ele>235.0</ele><time>2026-04-12T06:52:35.899Z</time></trkpt><trkpt lat="43.6664887" lon="6.7601153"><ele>235.0</ele><time>2026-04-12T06:52:38.914Z</time></trkpt><trkpt lat="43.6665677" lon="6.7601144"><ele>239.16666666666666</ele><time>2026-04-12T06:52:40.868Z</time></trkpt><trkpt lat="43.6666633" lon="6.7601024"><ele>243.33333333333331</ele><time>2026-04-12T06:52:42.924Z</time></trkpt><trkpt lat="43.6667503" lon="6.7600784"><ele>247.5</ele><time>2026-04-12T06:52:44.909Z</time></trkpt><trkpt lat="43.6668242" lon="6.7600716"><ele>251.66666666666669</ele><time>2026-04-12T06:52:46.891Z</time></trkpt><trkpt lat="43.6669075" lon="6.7600955"><ele>255.83333333333334</ele><time>2026-04-12T06:52:48.906Z</time></trkpt><trkpt lat="43.6669881" lon="6.7601315"><ele>260.0</ele><time>2026-04-12T06:52:50.905Z</time></trkpt><trkpt lat="43.6670698" lon="6.760164"><ele>258.1666666666667</ele><time>2026-04-12T06:52:52.89Z</time></trkpt><trkpt lat="43.6671459" lon="6.7602088"><ele>256.33333333333337</ele><time>2026-04-12T06:52:54.879Z</time></trkpt><trkpt lat="43.6672171" lon="6.7602456"><ele>254.5</ele><time>2026-04-12T06:52:56.885Z</time></trkpt><trkpt lat="43.6672934" lon="6.7602776"><ele>252.66666666666669</ele><time>2026-04-12T06:52:58.9Z</time></trkpt><trkpt lat="43.667376" lon="6.7603176"><ele>250.83333333333334</ele><time>2026-04-12T06:53:00.883Z</time></trkpt><trkpt lat="43.667453" lon="6.7603688"><ele>249.0</ele><time>2026-04-12T06:53:02.884Z</time></trkpt><trkpt lat="43.6675256" lon="6.7604149"><ele>249.0</ele><time>2026-04-12T06:53:04.859Z</time></trkpt><trkpt lat="43.6675882" lon="6.7604795"><ele>249.0</ele><time>2026-04-12T06:53:06.867Z</time></trkpt><trkpt lat="43.6676576" lon="6.7605237"><ele>249.0</ele><time>2026-04-12T06:53:08.92Z</time></trkpt><trkpt lat="43.6677255" lon="6.7605731"><ele>249.0</ele><time>2026-04-12T06:53:10.881Z</time></trkpt><trkpt lat="43.6678057" lon="6.7606615"><ele>249.0</ele><time>2026-04-12T06:53:12.896Z</time></trkpt><trkpt lat="43.6678663" lon="6.7607272"><ele>249.0</ele><time>2026-04-12T06:53:14.878Z</time></trkpt><trkpt lat="43.6679219" lon="6.7607933"><ele>247.83333333333334</ele><time>2026-04-12T06:53:16.88Z</time></trkpt><trkpt lat="43.6679957" lon="6.7608852"><ele>246.66666666666669</ele><time>2026-04-12T06:53:19.882Z</time></trkpt><trkpt lat="43.6680535" lon="6.7609387"><ele>245.5</ele><time>2026-04-12T06:53:21.915Z</time></trkpt><trkpt lat="43.668117" lon="6.7609996"><ele>244.33333333333334</ele><time>2026-04-12T06:53:23.907Z</time></trkpt><trkpt lat="43.6681878" lon="6.7610573"><ele>243.16666666666669</ele><time>2026-04-12T06:53:25.925Z</time></trkpt><trkpt lat="43.6682594" lon="6.7611035"><ele>242.0</ele><time>2026-04-12T06:53:27.926Z</time></trkpt><trkpt lat="43.668337" lon="6.7611312"><ele>242.00000000000003</ele><time>2026-04-12T06:53:29.893Z</time></trkpt><trkpt lat="43.6684175" lon="6.7611499"><ele>242.0</ele><time>2026-04-12T06:53:31.885Z</time></trkpt><trkpt lat="43.6684945" lon="6.7611542"><ele>242.0</ele><time>2026-04-12T06:53:33.881Z</time></trkpt><trkpt lat="43.6685682" lon="6.7611531"><ele>242.0</ele><time>2026-04-12T06:53:35.906Z</time></trkpt><trkpt lat="43.6686451" lon="6.7611536"><ele>242.00000000000003</ele><time>2026-04-12T06:53:37.893Z</time></trkpt><trkpt lat="43.6687213" lon="6.7611604"><ele>242.0</ele><time>2026-04-12T06:53:39.907Z</time></trkpt><trkpt lat="43.6688058" lon="6.7611466"><ele>243.33333333333334</ele><time>2026-04-12T06:53:41.898Z</time></trkpt><trkpt lat="43.6688866" lon="6.7611314"><ele>244.66666666666669</ele><time>2026-04-12T06:53:43.914Z</time></trkpt><trkpt lat="43.6689671" lon="6.7611178"><ele>246.0</ele><time>2026-04-12T06:53:45.918Z</time></trkpt><trkpt lat="43.6690484" lon="6.7611003"><ele>247.33333333333331</ele><time>2026-04-12T06:53:47.906Z</time></trkpt><trkpt lat="43.6691321" lon="6.7610822"><ele>248.66666666666666</ele><time>2026-04-12T06:53:49.869Z</time></trkpt><trkpt lat="43.6692034" lon="6.7610525"><ele>250.0</ele><time>2026-04-12T06:53:51.911Z</time></trkpt><trkpt lat="43.6692659" lon="6.7609941"><ele>250.66666666666666</ele><time>2026-04-12T06:53:53.875Z</time></trkpt><trkpt lat="43.6693328" lon="6.7609327"><ele>251.33333333333331</ele><time>2026-04-12T06:53:55.894Z</time></trkpt><trkpt lat="43.6694033" lon="6.7608763"><ele>252.0</ele><time>2026-04-12T06:53:57.905Z</time></trkpt><trkpt lat="43.6694619" lon="6.7608034"><ele>252.66666666666669</ele><time>2026-04-12T06:53:59.9Z</time></trkpt><trkpt lat="43.6695236" lon="6.7607278"><ele>253.33333333333334</ele><time>2026-04-12T06:54:01.903Z</time></trkpt><trkpt lat="43.6695782" lon="6.7606566"><ele>254.0</ele><time>2026-04-12T06:54:03.9Z</time></trkpt><trkpt lat="43.6696376" lon="6.7605836"><ele>254.00000000000003</ele><time>2026-04-12T06:54:05.898Z</time></trkpt><trkpt lat="43.6696993" lon="6.7605325"><ele>254.0</ele><time>2026-04-12T06:54:07.875Z</time></trkpt><trkpt lat="43.6697687" lon="6.7604654"><ele>254.0</ele><time>2026-04-12T06:54:09.911Z</time></trkpt><trkpt lat="43.6698444" lon="6.7604278"><ele>254.0</ele><time>2026-04-12T06:54:11.918Z</time></trkpt><trkpt lat="43.6699125" lon="6.7603959"><ele>254.00000000000003</ele><time>2026-04-12T06:54:13.879Z</time></trkpt><trkpt lat="43.669985" lon="6.7603452"><ele>254.0</ele><time>2026-04-12T06:54:15.907Z</time></trkpt><trkpt lat="43.6700327" lon="6.7602591"><ele>256.5</ele><time>2026-04-12T06:54:17.912Z</time></trkpt><trkpt lat="43.6700814" lon="6.7601811"><ele>259.0</ele><time>2026-04-12T06:54:19.904Z</time></trkpt><trkpt lat="43.6701619" lon="6.7601468"><ele>261.5</ele><time>2026-04-12T06:54:21.901Z</time></trkpt><trkpt lat="43.6702373" lon="6.7601162"><ele>264.0</ele><time>2026-04-12T06:54:23.904Z</time></trkpt><trkpt lat="43.6703128" lon="6.7601082"><ele>266.5</ele><time>2026-04-12T06:54:25.901Z</time></trkpt><trkpt lat="43.6703887" lon="6.7601116"><ele>269.0</ele><time>2026-04-12T06:54:27.874Z</time></trkpt><trkpt lat="43.6704647" lon="6.7601021"><ele>269.0</ele><time>2026-04-12T06:54:29.905Z</time></trkpt><trkpt lat="43.6705372" lon="6.760062"><ele>269.0</ele><time>2026-04-12T06:54:31.899Z</time></trkpt><trkpt lat="43.6705982" lon="6.7600079"><ele>269.0</ele><time>2026-04-12T06:54:33.893Z</time></trkpt><trkpt lat="43.6706664" lon="6.7599412"><ele>269.0</ele><time>2026-04-12T06:54:35.896Z</time></trkpt><trkpt lat="43.6707299" lon="6.7598677"><ele>269.0</ele><time>2026-04-12T06:54:37.888Z</time></trkpt><trkpt lat="43.6708011" lon="6.7598053"><ele>269.0</ele><time>2026-04-12T06:54:39.88Z</time></trkpt><trkpt lat="43.670876" lon="6.759756"><ele>269.0</ele><time>2026-04-12T06:54:41.922Z</time></trkpt><trkpt lat="43.6709514" lon="6.7597083"><ele>269.0</ele><time>2026-04-12T06:54:43.92Z</time></trkpt><trkpt lat="43.6710278" lon="6.759676"><ele>269.0</ele><time>2026-04-12T06:54:45.892Z</time></trkpt><trkpt lat="43.6711103" lon="6.7596546"><ele>269.0</ele><time>2026-04-12T06:54:47.902Z</time></trkpt><trkpt lat="43.6711894" lon="6.759629"><ele>269.0</ele><time>2026-04-12T06:54:49.917Z</time></trkpt><trkpt lat="43.6712697" lon="6.759602"><ele>269.0</ele><time>2026-04-12T06:54:51.876Z</time></trkpt><trkpt lat="43.6713521" lon="6.7595455"><ele>268.5</ele><time>2026-04-12T06:54:53.908Z</time></trkpt><trkpt lat="43.6714406" lon="6.7595275"><ele>268.0</ele><time>2026-04-12T06:54:55.909Z</time></trkpt><trkpt lat="43.6715248" lon="6.7595508"><ele>267.5</ele><time>2026-04-12T06:54:57.893Z</time></trkpt><trkpt lat="43.6716073" lon="6.7595544"><ele>267.0</ele><time>2026-04-12T06:54:59.875Z</time></trkpt><trkpt lat="43.671689" lon="6.7595416"><ele>266.5</ele><time>2026-04-12T06:55:01.892Z</time></trkpt><trkpt lat="43.6717648" lon="6.7595243"><ele>266.0</ele><time>2026-04-12T06:55:03.87Z</time></trkpt><trkpt lat="43.67184" lon="6.7595022"><ele>266.0</ele><time>2026-04-12T06:55:05.892Z</time></trkpt><trkpt lat="43.6719174" lon="6.7595017"><ele>266.0</ele><time>2026-04-12T06:55:07.866Z</time></trkpt><trkpt lat="43.6719864" lon="6.7595089"><ele>266.0</ele><time>2026-04-12T06:55:09.895Z</time></trkpt><trkpt lat="43.6720646" lon="6.7595098"><ele>266.0</ele><time>2026-04-12T06:55:11.891Z</time></trkpt><trkpt lat="43.6721473" lon="6.7595032"><ele>266.0</ele><time>2026-04-12T06:55:13.872Z</time></trkpt><trkpt lat="43.6722307" lon="6.7595013"><ele>266.0</ele><time>2026-04-12T06:55:15.896Z</time></trkpt><trkpt lat="43.6723128" lon="6.7595011"><ele>266.6666666666667</ele><time>2026-04-12T06:55:17.888Z</time></trkpt><trkpt lat="43.6723928" lon="6.7595067"><ele>267.33333333333337</ele><time>2026-04-12T06:55:19.902Z</time></trkpt><trkpt lat="43.6724754" lon="6.7595131"><ele>268.0</ele><time>2026-04-12T06:55:21.895Z</time></trkpt><trkpt lat="43.672549" lon="6.7595141"><ele>268.6666666666667</ele><time>2026-04-12T06:55:23.901Z</time></trkpt><trkpt lat="43.672629" lon="6.7595223"><ele>269.3333333333333</ele><time>2026-04-12T06:55:25.893Z</time></trkpt><trkpt lat="43.6727108" lon="6.7595372"><ele>270.0</ele><time>2026-04-12T06:55:27.886Z</time></trkpt><trkpt lat="43.6727898" lon="6.7595366"><ele>270.1666666666667</ele><time>2026-04-12T06:55:29.898Z</time></trkpt><trkpt lat="43.6728643" lon="6.7595164"><ele>270.3333333333333</ele><time>2026-04-12T06:55:31.915Z</time></trkpt><trkpt lat="43.6729295" lon="6.7594699"><ele>270.5</ele><time>2026-04-12T06:55:33.871Z</time></trkpt><trkpt lat="43.6729922" lon="6.7594064"><ele>270.66666666666663</ele><time>2026-04-12T06:55:35.893Z</time></trkpt><trkpt lat="43.6730356" lon="6.759328"><ele>270.8333333333333</ele><time>2026-04-12T06:55:37.871Z</time></trkpt><trkpt lat="43.6730856" lon="6.759231"><ele>271.0</ele><time>2026-04-12T06:55:39.896Z</time></trkpt><trkpt lat="43.6731335" lon="6.7591393"><ele>274.5</ele><time>2026-04-12T06:55:41.914Z</time></trkpt><trkpt lat="43.6731774" lon="6.7590505"><ele>278.0</ele><time>2026-04-12T06:55:43.9Z</time></trkpt><trkpt lat="43.6732301" lon="6.7589691"><ele>281.5</ele><time>2026-04-12T06:55:45.883Z</time></trkpt><trkpt lat="43.6732866" lon="6.758918"><ele>285.0</ele><time>2026-04-12T06:55:47.898Z</time></trkpt><trkpt lat="43.6733548" lon="6.758864"><ele>288.5</ele><time>2026-04-12T06:55:49.896Z</time></trkpt><trkpt lat="43.6734098" lon="6.7587893"><ele>292.0</ele><time>2026-04-12T06:55:51.91Z</time></trkpt><trkpt lat="43.6734556" lon="6.7586918"><ele>292.0</ele><time>2026-04-12T06:55:53.898Z</time></trkpt><trkpt lat="43.6735133" lon="6.7586088"><ele>292.0</ele><time>2026-04-12T06:55:55.902Z</time></trkpt><trkpt lat="43.6735996" lon="6.7585919"><ele>292.0</ele><time>2026-04-12T06:55:57.904Z</time></trkpt><trkpt lat="43.6736689" lon="6.7586204"><ele>292.0</ele><time>2026-04-12T06:55:59.888Z</time></trkpt><trkpt lat="43.6737506" lon="6.7586568"><ele>292.0</ele><time>2026-04-12T06:56:01.917Z</time></trkpt><trkpt lat="43.6738296" lon="6.7586556"><ele>292.0</ele><time>2026-04-12T06:56:03.91Z</time></trkpt><trkpt lat="43.6739109" lon="6.7586516"><ele>292.66666666666663</ele><time>2026-04-12T06:56:05.919Z</time></trkpt><trkpt lat="43.6739919" lon="6.7586483"><ele>293.3333333333333</ele><time>2026-04-12T06:56:07.907Z</time></trkpt><trkpt lat="43.6740753" lon="6.7586605"><ele>294.0</ele><time>2026-04-12T06:56:09.891Z</time></trkpt><trkpt lat="43.67416" lon="6.7586889"><ele>294.6666666666667</ele><time>2026-04-12T06:56:11.886Z</time></trkpt><trkpt lat="43.6742384" lon="6.7587453"><ele>295.33333333333337</ele><time>2026-04-12T06:56:13.904Z</time></trkpt><trkpt lat="43.6743016" lon="6.7588102"><ele>296.0</ele><time>2026-04-12T06:56:15.891Z</time></trkpt><trkpt lat="43.6743605" lon="6.7588927"><ele>296.0</ele><time>2026-04-12T06:56:17.916Z</time></trkpt><trkpt lat="43.6744157" lon="6.7589792"><ele>296.0</ele><time>2026-04-12T06:56:19.886Z</time></trkpt><trkpt lat="43.6744722" lon="6.7590709"><ele>296.0</ele><time>2026-04-12T06:56:21.897Z</time></trkpt><trkpt lat="43.6745194" lon="6.7591688"><ele>296.0</ele><time>2026-04-12T06:56:23.913Z</time></trkpt><trkpt lat="43.6745709" lon="6.7592583"><ele>296.0</ele><time>2026-04-12T06:56:25.907Z</time></trkpt><trkpt lat="43.6745972" lon="6.7593701"><ele>296.0</ele><time>2026-04-12T06:56:27.901Z</time></trkpt><trkpt lat="43.674625" lon="6.7594866"><ele>299.1666666666667</ele><time>2026-04-12T06:56:29.902Z</time></trkpt><trkpt lat="43.6746559" lon="6.7596006"><ele>302.33333333333337</ele><time>2026-04-12T06:56:31.904Z</time></trkpt><trkpt lat="43.674697" lon="6.7597088"><ele>305.5</ele><time>2026-04-12T06:56:33.892Z</time></trkpt><trkpt lat="43.6747517" lon="6.7597961"><ele>308.6666666666667</ele><time>2026-04-12T06:56:35.902Z</time></trkpt><trkpt lat="43.6747985" lon="6.759909"><ele>311.8333333333333</ele><time>2026-04-12T06:56:37.904Z</time></trkpt><trkpt lat="43.6748405" lon="6.7600098"><ele>315.0</ele><time>2026-04-12T06:56:39.908Z</time></trkpt><trkpt lat="43.6748862" lon="6.7601096"><ele>310.8333333333333</ele><time>2026-04-12T06:56:41.916Z</time></trkpt><trkpt lat="43.6749252" lon="6.7602065"><ele>306.6666666666667</ele><time>2026-04-12T06:56:43.921Z</time></trkpt><trkpt lat="43.6749701" lon="6.7603007"><ele>302.5</ele><time>2026-04-12T06:56:45.908Z</time></trkpt><trkpt lat="43.675026" lon="6.7603816"><ele>298.33333333333337</ele><time>2026-04-12T06:56:47.906Z</time></trkpt><trkpt lat="43.6751053" lon="6.760405"><ele>294.1666666666667</ele><time>2026-04-12T06:56:49.911Z</time></trkpt><trkpt lat="43.6751879" lon="6.7603592"><ele>290.0</ele><time>2026-04-12T06:56:51.916Z</time></trkpt><trkpt lat="43.6752626" lon="6.7602805"><ele>291.83333333333337</ele><time>2026-04-12T06:56:53.885Z</time></trkpt><trkpt lat="43.6753381" lon="6.7602258"><ele>293.6666666666667</ele><time>2026-04-12T06:56:55.914Z</time></trkpt><trkpt lat="43.675424" lon="6.7601997"><ele>295.5</ele><time>2026-04-12T06:56:57.926Z</time></trkpt><trkpt lat="43.6755092" lon="6.7601756"><ele>297.3333333333333</ele><time>2026-04-12T06:56:59.922Z</time></trkpt><trkpt lat="43.6755985" lon="6.7601532"><ele>299.16666666666663</ele><time>2026-04-12T06:57:01.905Z</time></trkpt><trkpt lat="43.6756808" lon="6.7601443"><ele>301.0</ele><time>2026-04-12T06:57:03.921Z</time></trkpt><trkpt lat="43.6757712" lon="6.76015"><ele>303.40000000000003</ele><time>2026-04-12T06:57:05.924Z</time></trkpt><trkpt lat="43.6758588" lon="6.7601633"><ele>305.8</ele><time>2026-04-12T06:57:07.908Z</time></trkpt><trkpt lat="43.6759395" lon="6.7601734"><ele>308.20000000000005</ele><time>2026-04-12T06:57:09.887Z</time></trkpt><trkpt lat="43.676026" lon="6.7601764"><ele>310.6</ele><time>2026-04-12T06:57:11.92Z</time></trkpt><trkpt lat="43.6761217" lon="6.7601907"><ele>313.0</ele><time>2026-04-12T06:57:13.895Z</time></trkpt><trkpt lat="43.6762205" lon="6.7601999"><ele>313.0</ele><time>2026-04-12T06:57:15.9Z</time></trkpt><trkpt lat="43.6763172" lon="6.7601919"><ele>313.0</ele><time>2026-04-12T06:57:17.917Z</time></trkpt><trkpt lat="43.6764054" lon="6.7602106"><ele>313.0</ele><time>2026-04-12T06:57:19.892Z</time></trkpt><trkpt lat="43.6764929" lon="6.7602261"><ele>313.0</ele><time>2026-04-12T06:57:21.917Z</time></trkpt><trkpt lat="43.6765734" lon="6.7602425"><ele>313.0</ele><time>2026-04-12T06:57:23.925Z</time></trkpt><trkpt lat="43.6766543" lon="6.7602597"><ele>313.0</ele><time>2026-04-12T06:57:25.93Z</time></trkpt><trkpt lat="43.6767406" lon="6.7602842"><ele>313.0</ele><time>2026-04-12T06:57:27.882Z</time></trkpt><trkpt lat="43.6768231" lon="6.7603178"><ele>313.0</ele><time>2026-04-12T06:57:29.907Z</time></trkpt><trkpt lat="43.6769053" lon="6.7603391"><ele>313.0</ele><time>2026-04-12T06:57:31.903Z</time></trkpt><trkpt lat="43.6769856" lon="6.7603567"><ele>313.0</ele><time>2026-04-12T06:57:33.91Z</time></trkpt><trkpt lat="43.677073" lon="6.7603826"><ele>313.0</ele><time>2026-04-12T06:57:35.919Z</time></trkpt><trkpt lat="43.677147" lon="6.7604222"><ele>313.0</ele><time>2026-04-12T06:57:37.915Z</time></trkpt><trkpt lat="43.6772206" lon="6.7604466"><ele>315.5</ele><time>2026-04-12T06:57:39.913Z</time></trkpt><trkpt lat="43.6772979" lon="6.7604274"><ele>318.0</ele><time>2026-04-12T06:57:41.903Z</time></trkpt><trkpt lat="43.6773121" lon="6.76033"><ele>320.5</ele><time>2026-04-12T06:57:43.873Z</time></trkpt><trkpt lat="43.6772474" lon="6.7602647"><ele>323.0</ele><time>2026-04-12T06:57:45.877Z</time></trkpt><trkpt lat="43.6771701" lon="6.7602366"><ele>325.5</ele><time>2026-04-12T06:57:47.911Z</time></trkpt><trkpt lat="43.677092" lon="6.7602238"><ele>328.0</ele><time>2026-04-12T06:57:49.912Z</time></trkpt><trkpt lat="43.6770144" lon="6.7602007"><ele>331.3333333333333</ele><time>2026-04-12T06:57:51.904Z</time></trkpt><trkpt lat="43.6769368" lon="6.7601582"><ele>334.66666666666663</ele><time>2026-04-12T06:57:53.898Z</time></trkpt><trkpt lat="43.676859" lon="6.7601262"><ele>338.0</ele><time>2026-04-12T06:57:55.908Z</time></trkpt><trkpt lat="43.6767844" lon="6.76009"><ele>341.3333333333333</ele><time>2026-04-12T06:57:57.916Z</time></trkpt><trkpt lat="43.6767152" lon="6.7600329"><ele>344.6666666666667</ele><time>2026-04-12T06:57:59.906Z</time></trkpt><trkpt lat="43.6766422" lon="6.7599896"><ele>348.0</ele><time>2026-04-12T06:58:01.918Z</time></trkpt><trkpt lat="43.6765712" lon="6.7599537"><ele>348.0</ele><time>2026-04-12T06:58:03.884Z</time></trkpt><trkpt lat="43.6765046" lon="6.7599153"><ele>348.0</ele><time>2026-04-12T06:58:05.881Z</time></trkpt><trkpt lat="43.6764415" lon="6.7598681"><ele>348.0</ele><time>2026-04-12T06:58:07.912Z</time></trkpt><trkpt lat="43.6763727" lon="6.7598282"><ele>348.0</ele><time>2026-04-12T06:58:09.883Z</time></trkpt><trkpt lat="43.676311" lon="6.7597815"><ele>348.0</ele><time>2026-04-12T06:58:11.909Z</time></trkpt><trkpt lat="43.6762425" lon="6.7597397"><ele>348.0</ele><time>2026-04-12T06:58:13.895Z</time></trkpt><trkpt lat="43.6761674" lon="6.7597142"><ele>348.0</ele><time>2026-04-12T06:58:15.913Z</time></trkpt><trkpt lat="43.6760799" lon="6.7597149"><ele>346.4</ele><time>2026-04-12T06:58:17.912Z</time></trkpt><trkpt lat="43.6759967" lon="6.7597222"><ele>344.79999999999995</ele><time>2026-04-12T06:58:19.898Z</time></trkpt><trkpt lat="43.6758996" lon="6.759716"><ele>343.2</ele><time>2026-04-12T06:58:21.928Z</time></trkpt><trkpt lat="43.6757996" lon="6.7597131"><ele>341.6</ele><time>2026-04-12T06:58:23.896Z</time></trkpt><trkpt lat="43.6757059" lon="6.7597001"><ele>340.0</ele><time>2026-04-12T06:58:25.887Z</time></trkpt><trkpt lat="43.6756228" lon="6.7596887"><ele>340.0</ele><time>2026-04-12T06:58:27.894Z</time></trkpt><trkpt lat="43.6755425" lon="6.7596818"><ele>340.0</ele><time>2026-04-12T06:58:29.871Z</time></trkpt><trkpt lat="43.6754706" lon="6.7596869"><ele>340.0</ele><time>2026-04-12T06:58:31.864Z</time></trkpt><trkpt lat="43.6753933" lon="6.7596781"><ele>340.0</ele><time>2026-04-12T06:58:33.888Z</time></trkpt><trkpt lat="43.6753392" lon="6.7595861"><ele>340.0</ele><time>2026-04-12T06:58:35.869Z</time></trkpt><trkpt lat="43.6752795" lon="6.7595102"><ele>340.0</ele><time>2026-04-12T06:58:37.886Z</time></trkpt><trkpt lat="43.6752515" lon="6.7594158"><ele>340.3333333333333</ele><time>2026-04-12T06:58:39.914Z</time></trkpt><trkpt lat="43.6752207" lon="6.7593086"><ele>340.66666666666663</ele><time>2026-04-12T06:58:41.91Z</time></trkpt><trkpt lat="43.6751944" lon="6.7592093"><ele>341.0</ele><time>2026-04-12T06:58:43.896Z</time></trkpt><trkpt lat="43.6751768" lon="6.7591118"><ele>341.3333333333333</ele><time>2026-04-12T06:58:45.925Z</time></trkpt><trkpt lat="43.6751472" lon="6.7590206"><ele>341.6666666666667</ele><time>2026-04-12T06:58:47.905Z</time></trkpt><trkpt lat="43.6751239" lon="6.7589252"><ele>342.0</ele><time>2026-04-12T06:58:49.917Z</time></trkpt><trkpt lat="43.6750973" lon="6.7588201"><ele>342.0</ele><time>2026-04-12T06:58:51.912Z</time></trkpt><trkpt lat="43.6750662" lon="6.7587097"><ele>342.0</ele><time>2026-04-12T06:58:53.88Z</time></trkpt><trkpt lat="43.6750319" lon="6.7586034"><ele>342.0</ele><time>2026-04-12T06:58:55.906Z</time></trkpt><trkpt lat="43.6750001" lon="6.7584975"><ele>342.0</ele><time>2026-04-12T06:58:57.92Z</time></trkpt><trkpt lat="43.6749689" lon="6.7584077"><ele>342.0</ele><time>2026-04-12T06:58:59.911Z</time></trkpt><trkpt lat="43.6749351" lon="6.7583258"><ele>342.0</ele><time>2026-04-12T06:59:01.907Z</time></trkpt><trkpt lat="43.67489" lon="6.7582381"><ele>346.5</ele><time>2026-04-12T06:59:03.887Z</time></trkpt><trkpt lat="43.6748617" lon="6.7581438"><ele>351.0</ele><time>2026-04-12T06:59:05.927Z</time></trkpt><trkpt lat="43.6748155" lon="6.7580554"><ele>355.5</ele><time>2026-04-12T06:59:07.893Z</time></trkpt><trkpt lat="43.6747639" lon="6.7579637"><ele>360.0</ele><time>2026-04-12T06:59:09.905Z</time></trkpt><trkpt lat="43.6747098" lon="6.7578729"><ele>364.5</ele><time>2026-04-12T06:59:11.916Z</time></trkpt><trkpt lat="43.6746508" lon="6.7577894"><ele>369.0</ele><time>2026-04-12T06:59:13.915Z</time></trkpt><trkpt lat="43.674595" lon="6.757727"><ele>370.5</ele><time>2026-04-12T06:59:15.931Z</time></trkpt><trkpt lat="43.6745313" lon="6.7576713"><ele>372.0</ele><time>2026-04-12T06:59:17.886Z</time></trkpt><trkpt lat="43.6744588" lon="6.7576464"><ele>373.5</ele><time>2026-04-12T06:59:19.906Z</time></trkpt><trkpt lat="43.674389" lon="6.7576082"><ele>375.0</ele><time>2026-04-12T06:59:21.915Z</time></trkpt><trkpt lat="43.6743128" lon="6.7575709"><ele>376.5</ele><time>2026-04-12T06:59:23.905Z</time></trkpt><trkpt lat="43.6742325" lon="6.7575625"><ele>378.0</ele><time>2026-04-12T06:59:25.889Z</time></trkpt><trkpt lat="43.6741427" lon="6.7575916"><ele>378.0</ele><time>2026-04-12T06:59:27.913Z</time></trkpt><trkpt lat="43.6740714" lon="6.7576505"><ele>378.0</ele><time>2026-04-12T06:59:29.869Z</time></trkpt><trkpt lat="43.6740066" lon="6.7577127"><ele>378.0</ele><time>2026-04-12T06:59:31.861Z</time></trkpt><trkpt lat="43.6739483" lon="6.7577488"><ele>378.0</ele><time>2026-04-12T06:59:33.92Z</time></trkpt><trkpt lat="43.673883" lon="6.7576964"><ele>378.0</ele><time>2026-04-12T06:59:36.859Z</time></trkpt><trkpt lat="43.6739008" lon="6.7576075"><ele>378.0</ele><time>2026-04-12T06:59:38.89Z</time></trkpt><trkpt lat="43.6739528" lon="6.7575447"><ele>378.0</ele><time>2026-04-12T06:59:40.898Z</time></trkpt><trkpt lat="43.6740211" lon="6.7574923"><ele>378.0</ele><time>2026-04-12T06:59:42.905Z</time></trkpt><trkpt lat="43.6740864" lon="6.757441"><ele>378.0</ele><time>2026-04-12T06:59:44.906Z</time></trkpt><trkpt lat="43.6741767" lon="6.7574005"><ele>378.0</ele><time>2026-04-12T06:59:46.901Z</time></trkpt><trkpt lat="43.6742637" lon="6.7573848"><ele>378.0</ele><time>2026-04-12T06:59:48.916Z</time></trkpt><trkpt lat="43.6743443" lon="6.7573936"><ele>378.0</ele><time>2026-04-12T06:59:50.915Z</time></trkpt><trkpt lat="43.6744254" lon="6.7574096"><ele>378.0</ele><time>2026-04-12T06:59:52.906Z</time></trkpt><trkpt lat="43.6745035" lon="6.7574369"><ele>376.5</ele><time>2026-04-12T06:59:54.888Z</time></trkpt><trkpt lat="43.6745828" lon="6.7574716"><ele>375.0</ele><time>2026-04-12T06:59:56.883Z</time></trkpt><trkpt lat="43.6746684" lon="6.7575213"><ele>373.5</ele><time>2026-04-12T06:59:58.902Z</time></trkpt><trkpt lat="43.6747475" lon="6.7575645"><ele>372.0</ele><time>2026-04-12T07:00:00.904Z</time></trkpt><trkpt lat="43.6748166" lon="6.7576222"><ele>370.5</ele><time>2026-04-12T07:00:02.922Z</time></trkpt><trkpt lat="43.6748853" lon="6.7576856"><ele>369.0</ele><time>2026-04-12T07:00:04.919Z</time></trkpt><trkpt lat="43.6749487" lon="6.7577505"><ele>369.0</ele><time>2026-04-12T07:00:06.905Z</time></trkpt><trkpt lat="43.6750099" lon="6.7578161"><ele>369.0</ele><time>2026-04-12T07:00:08.889Z</time></trkpt><trkpt lat="43.6750734" lon="6.7578752"><ele>369.0</ele><time>2026-04-12T07:00:10.912Z</time></trkpt><trkpt lat="43.6751349" lon="6.7579489"><ele>369.0</ele><time>2026-04-12T07:00:12.892Z</time></trkpt><trkpt lat="43.6751951" lon="6.7580083"><ele>369.0</ele><time>2026-04-12T07:00:14.924Z</time></trkpt><trkpt lat="43.6752526" lon="6.7580756"><ele>369.0</ele><time>2026-04-12T07:00:16.912Z</time></trkpt><trkpt lat="43.6753063" lon="6.7581386"><ele>370.6666666666667</ele><time>2026-04-12T07:00:18.912Z</time></trkpt><trkpt lat="43.6753544" lon="6.7582082"><ele>372.3333333333333</ele><time>2026-04-12T07:00:20.915Z</time></trkpt><trkpt lat="43.6753956" lon="6.7583028"><ele>374.0</ele><time>2026-04-12T07:00:22.914Z</time></trkpt><trkpt lat="43.6754349" lon="6.7584066"><ele>375.66666666666663</ele><time>2026-04-12T07:00:24.888Z</time></trkpt><trkpt lat="43.675476" lon="6.7585188"><ele>377.3333333333333</ele><time>2026-04-12T07:00:26.924Z</time></trkpt><trkpt lat="43.6755194" lon="6.7586338"><ele>379.0</ele><time>2026-04-12T07:00:28.906Z</time></trkpt><trkpt lat="43.6755689" lon="6.7587233"><ele>379.0</ele><time>2026-04-12T07:00:30.9Z</time></trkpt><trkpt lat="43.6756303" lon="6.7587866"><ele>379.0</ele><time>2026-04-12T07:00:32.894Z</time></trkpt><trkpt lat="43.6757018" lon="6.7588281"><ele>379.0</ele><time>2026-04-12T07:00:34.936Z</time></trkpt><trkpt lat="43.6757814" lon="6.7588507"><ele>379.0</ele><time>2026-04-12T07:00:36.889Z</time></trkpt><trkpt lat="43.6758643" lon="6.7588573"><ele>379.0</ele><time>2026-04-12T07:00:38.928Z</time></trkpt><trkpt lat="43.6759395" lon="6.7588598"><ele>379.0</ele><time>2026-04-12T07:00:40.9Z</time></trkpt><trkpt lat="43.6760258" lon="6.7588642"><ele>379.0</ele><time>2026-04-12T07:00:42.919Z</time></trkpt><trkpt lat="43.6760991" lon="6.7588642"><ele>379.0</ele><time>2026-04-12T07:00:44.908Z</time></trkpt><trkpt lat="43.6761706" lon="6.7588598"><ele>379.0</ele><time>2026-04-12T07:00:46.922Z</time></trkpt><trkpt lat="43.6762472" lon="6.7588671"><ele>379.0</ele><time>2026-04-12T07:00:48.908Z</time></trkpt><trkpt lat="43.676341" lon="6.7588687"><ele>379.0</ele><time>2026-04-12T07:00:50.907Z</time></trkpt><trkpt lat="43.6764263" lon="6.7588709"><ele>379.0</ele><time>2026-04-12T07:00:52.913Z</time></trkpt><trkpt lat="43.6765078" lon="6.7588674"><ele>381.3333333333333</ele><time>2026-04-12T07:00:54.928Z</time></trkpt><trkpt lat="43.6765925" lon="6.7588643"><ele>383.66666666666663</ele><time>2026-04-12T07:00:56.926Z</time></trkpt><trkpt lat="43.6766822" lon="6.7588716"><ele>386.0</ele><time>2026-04-12T07:00:58.884Z</time></trkpt><trkpt lat="43.6767727" lon="6.7588928"><ele>388.3333333333333</ele><time>2026-04-12T07:01:00.902Z</time></trkpt><trkpt lat="43.6768525" lon="6.7589293"><ele>390.6666666666667</ele><time>2026-04-12T07:01:02.883Z</time></trkpt><trkpt lat="43.6769261" lon="6.7589808"><ele>393.0</ele><time>2026-04-12T07:01:04.898Z</time></trkpt><trkpt lat="43.6770047" lon="6.7590262"><ele>394.8333333333333</ele><time>2026-04-12T07:01:06.92Z</time></trkpt><trkpt lat="43.6770814" lon="6.7590559"><ele>396.66666666666663</ele><time>2026-04-12T07:01:08.928Z</time></trkpt><trkpt lat="43.6771517" lon="6.7590837"><ele>398.5</ele><time>2026-04-12T07:01:10.91Z</time></trkpt><trkpt lat="43.6772281" lon="6.7591035"><ele>400.3333333333333</ele><time>2026-04-12T07:01:12.914Z</time></trkpt><trkpt lat="43.6773185" lon="6.7591228"><ele>402.16666666666663</ele><time>2026-04-12T07:01:14.896Z</time></trkpt><trkpt lat="43.6774027" lon="6.7591223"><ele>404.0</ele><time>2026-04-12T07:01:16.906Z</time></trkpt><trkpt lat="43.6774858" lon="6.7591366"><ele>403.99999999999994</ele><time>2026-04-12T07:01:18.907Z</time></trkpt><trkpt lat="43.6775655" lon="6.7591334"><ele>404.0</ele><time>2026-04-12T07:01:20.902Z</time></trkpt><trkpt lat="43.677642" lon="6.759135"><ele>404.0</ele><time>2026-04-12T07:01:22.921Z</time></trkpt><trkpt lat="43.6777199" lon="6.7591404"><ele>404.0</ele><time>2026-04-12T07:01:24.901Z</time></trkpt><trkpt lat="43.6778075" lon="6.7591474"><ele>403.99999999999994</ele><time>2026-04-12T07:01:26.902Z</time></trkpt><trkpt lat="43.6779039" lon="6.7591412"><ele>404.0</ele><time>2026-04-12T07:01:28.907Z</time></trkpt><trkpt lat="43.6779853" lon="6.7591278"><ele>404.49999999999994</ele><time>2026-04-12T07:01:30.897Z</time></trkpt><trkpt lat="43.6780659" lon="6.759095"><ele>405.0</ele><time>2026-04-12T07:01:32.911Z</time></trkpt><trkpt lat="43.6781421" lon="6.7590339"><ele>405.5</ele><time>2026-04-12T07:01:34.915Z</time></trkpt><trkpt lat="43.678221" lon="6.7589821"><ele>406.0</ele><time>2026-04-12T07:01:36.913Z</time></trkpt><trkpt lat="43.6783005" lon="6.7589404"><ele>406.49999999999994</ele><time>2026-04-12T07:01:38.908Z</time></trkpt><trkpt lat="43.6783716" lon="6.7589132"><ele>407.0</ele><time>2026-04-12T07:01:40.916Z</time></trkpt><trkpt lat="43.6784586" lon="6.7588902"><ele>406.99999999999994</ele><time>2026-04-12T07:01:42.906Z</time></trkpt><trkpt lat="43.6785396" lon="6.7588682"><ele>407.0</ele><time>2026-04-12T07:01:44.913Z</time></trkpt><trkpt lat="43.6786203" lon="6.7588482"><ele>407.0</ele><time>2026-04-12T07:01:46.914Z</time></trkpt><trkpt lat="43.6787015" lon="6.7588185"><ele>407.0</ele><time>2026-04-12T07:01:48.902Z</time></trkpt><trkpt lat="43.678775" lon="6.7587893"><ele>406.99999999999994</ele><time>2026-04-12T07:01:50.927Z</time></trkpt><trkpt lat="43.678855" lon="6.7587599"><ele>407.0</ele><time>2026-04-12T07:01:52.94Z</time></trkpt><trkpt lat="43.6789352" lon="6.7587211"><ele>404.49999999999994</ele><time>2026-04-12T07:01:54.909Z</time></trkpt><trkpt lat="43.6790153" lon="6.7586652"><ele>402.0</ele><time>2026-04-12T07:01:56.915Z</time></trkpt><trkpt lat="43.6790884" lon="6.7586026"><ele>399.5</ele><time>2026-04-12T07:01:58.927Z</time></trkpt><trkpt lat="43.6791495" lon="6.7585392"><ele>397.0</ele><time>2026-04-12T07:02:00.896Z</time></trkpt><trkpt lat="43.6792039" lon="6.7584623"><ele>394.49999999999994</ele><time>2026-04-12T07:02:02.922Z</time></trkpt><trkpt lat="43.6792592" lon="6.7583885"><ele>392.0</ele><time>2026-04-12T07:02:04.889Z</time></trkpt><trkpt lat="43.679311" lon="6.7583239"><ele>395.8333333333333</ele><time>2026-04-12T07:02:06.936Z</time></trkpt><trkpt lat="43.679371" lon="6.7582667"><ele>399.66666666666663</ele><time>2026-04-12T07:02:08.873Z</time></trkpt><trkpt lat="43.6794352" lon="6.7582144"><ele>403.5</ele><time>2026-04-12T07:02:10.901Z</time></trkpt><trkpt lat="43.6795099" lon="6.7581956"><ele>407.33333333333337</ele><time>2026-04-12T07:02:12.913Z</time></trkpt><trkpt lat="43.6795835" lon="6.7581783"><ele>411.1666666666667</ele><time>2026-04-12T07:02:14.902Z</time></trkpt><trkpt lat="43.6796646" lon="6.7581795"><ele>415.0</ele><time>2026-04-12T07:02:16.914Z</time></trkpt><trkpt lat="43.6797403" lon="6.7581636"><ele>415.00000000000006</ele><time>2026-04-12T07:02:18.909Z</time></trkpt><trkpt lat="43.6798222" lon="6.7581621"><ele>415.0</ele><time>2026-04-12T07:02:20.883Z</time></trkpt><trkpt lat="43.679902" lon="6.758158"><ele>415.0</ele><time>2026-04-12T07:02:22.91Z</time></trkpt><trkpt lat="43.6799791" lon="6.7581456"><ele>415.0</ele><time>2026-04-12T07:02:24.913Z</time></trkpt><trkpt lat="43.6800558" lon="6.7581152"><ele>415.00000000000006</ele><time>2026-04-12T07:02:26.918Z</time></trkpt><trkpt lat="43.6801271" lon="6.7580658"><ele>415.0</ele><time>2026-04-12T07:02:28.91Z</time></trkpt><trkpt lat="43.6801905" lon="6.7579864"><ele>415.00000000000006</ele><time>2026-04-12T07:02:30.917Z</time></trkpt><trkpt lat="43.6802396" lon="6.757897"><ele>415.0</ele><time>2026-04-12T07:02:32.901Z</time></trkpt><trkpt lat="43.6802771" lon="6.7578061"><ele>415.0</ele><time>2026-04-12T07:02:34.904Z</time></trkpt><trkpt lat="43.6803115" lon="6.7577072"><ele>415.0</ele><time>2026-04-12T07:02:36.918Z</time></trkpt><trkpt lat="43.6803454" lon="6.7576032"><ele>415.00000000000006</ele><time>2026-04-12T07:02:38.914Z</time></trkpt><trkpt lat="43.6803706" lon="6.7574815"><ele>415.0</ele><time>2026-04-12T07:02:40.911Z</time></trkpt><trkpt lat="43.6803885" lon="6.7573604"><ele>414.83333333333337</ele><time>2026-04-12T07:02:42.892Z</time></trkpt><trkpt lat="43.680402" lon="6.7572348"><ele>414.6666666666667</ele><time>2026-04-12T07:02:44.912Z</time></trkpt><trkpt lat="43.6804097" lon="6.7571085"><ele>414.5</ele><time>2026-04-12T07:02:46.915Z</time></trkpt><trkpt lat="43.6804199" lon="6.7569993"><ele>414.33333333333337</ele><time>2026-04-12T07:02:48.874Z</time></trkpt><trkpt lat="43.6804248" lon="6.7568881"><ele>414.1666666666667</ele><time>2026-04-12T07:02:50.913Z</time></trkpt><trkpt lat="43.6804382" lon="6.7567779"><ele>414.0</ele><time>2026-04-12T07:02:52.917Z</time></trkpt><trkpt lat="43.6804495" lon="6.7566544"><ele>414.6</ele><time>2026-04-12T07:02:54.917Z</time></trkpt><trkpt lat="43.6804474" lon="6.7565195"><ele>415.2</ele><time>2026-04-12T07:02:56.912Z</time></trkpt><trkpt lat="43.6804533" lon="6.7563857"><ele>415.8</ele><time>2026-04-12T07:02:58.921Z</time></trkpt><trkpt lat="43.680458" lon="6.7562554"><ele>416.40000000000003</ele><time>2026-04-12T07:03:00.912Z</time></trkpt><trkpt lat="43.6804562" lon="6.75613"><ele>417.0</ele><time>2026-04-12T07:03:02.912Z</time></trkpt><trkpt lat="43.680457" lon="6.7560086"><ele>418.0</ele><time>2026-04-12T07:03:04.921Z</time></trkpt><trkpt lat="43.6804681" lon="6.7558846"><ele>419.0</ele><time>2026-04-12T07:03:06.915Z</time></trkpt><trkpt lat="43.680469" lon="6.7557744"><ele>420.0</ele><time>2026-04-12T07:03:08.897Z</time></trkpt><trkpt lat="43.6804732" lon="6.7556595"><ele>421.0</ele><time>2026-04-12T07:03:10.923Z</time></trkpt><trkpt lat="43.6804753" lon="6.75554"><ele>422.0</ele><time>2026-04-12T07:03:12.924Z</time></trkpt><trkpt lat="43.680476" lon="6.755426"><ele>423.0</ele><time>2026-04-12T07:03:14.909Z</time></trkpt><trkpt lat="43.6804689" lon="6.7553111"><ele>423.0</ele><time>2026-04-12T07:03:16.905Z</time></trkpt><trkpt lat="43.6804329" lon="6.7551925"><ele>423.0</ele><time>2026-04-12T07:03:18.925Z</time></trkpt><trkpt lat="43.6803824" lon="6.7550857"><ele>423.0</ele><time>2026-04-12T07:03:20.927Z</time></trkpt><trkpt lat="43.680328" lon="6.7549857"><ele>423.0</ele><time>2026-04-12T07:03:22.927Z</time></trkpt><trkpt lat="43.6802828" lon="6.754894"><ele>423.0</ele><time>2026-04-12T07:03:24.896Z</time></trkpt><trkpt lat="43.6802351" lon="6.7548008"><ele>423.0</ele><time>2026-04-12T07:03:26.934Z</time></trkpt><trkpt lat="43.6801919" lon="6.7547189"><ele>428.6666666666667</ele><time>2026-04-12T07:03:28.909Z</time></trkpt><trkpt lat="43.6801587" lon="6.7546342"><ele>434.33333333333337</ele><time>2026-04-12T07:03:30.902Z</time></trkpt><trkpt lat="43.6801331" lon="6.7545403"><ele>440.0</ele><time>2026-04-12T07:03:32.922Z</time></trkpt><trkpt lat="43.6801054" lon="6.7544298"><ele>445.6666666666667</ele><time>2026-04-12T07:03:34.921Z</time></trkpt><trkpt lat="43.6800814" lon="6.7543219"><ele>451.33333333333337</ele><time>2026-04-12T07:03:36.903Z</time></trkpt><trkpt lat="43.6800718" lon="6.7542101"><ele>457.0</ele><time>2026-04-12T07:03:38.919Z</time></trkpt><trkpt lat="43.6800625" lon="6.7540887"><ele>457.00000000000006</ele><time>2026-04-12T07:03:40.905Z</time></trkpt><trkpt lat="43.6800622" lon="6.753976"><ele>457.0</ele><time>2026-04-12T07:03:42.894Z</time></trkpt><trkpt lat="43.68008" lon="6.7538493"><ele>457.0</ele><time>2026-04-12T07:03:44.898Z</time></trkpt><trkpt lat="43.6801002" lon="6.753738"><ele>457.0</ele><time>2026-04-12T07:03:46.906Z</time></trkpt><trkpt lat="43.6801339" lon="6.7536231"><ele>457.00000000000006</ele><time>2026-04-12T07:03:48.879Z</time></trkpt><trkpt lat="43.6801838" lon="6.7535171"><ele>457.0</ele><time>2026-04-12T07:03:50.901Z</time></trkpt><trkpt lat="43.6802317" lon="6.753415"><ele>457.50000000000006</ele><time>2026-04-12T07:03:52.905Z</time></trkpt><trkpt lat="43.6802778" lon="6.7533206"><ele>458.0</ele><time>2026-04-12T07:03:54.919Z</time></trkpt><trkpt lat="43.6803125" lon="6.753232"><ele>458.5</ele><time>2026-04-12T07:03:56.905Z</time></trkpt><trkpt lat="43.6803382" lon="6.7531263"><ele>459.0</ele><time>2026-04-12T07:03:58.918Z</time></trkpt><trkpt lat="43.6803595" lon="6.7530313"><ele>459.50000000000006</ele><time>2026-04-12T07:04:00.906Z</time></trkpt><trkpt lat="43.6803623" lon="6.7529002"><ele>460.0</ele><time>2026-04-12T07:04:02.872Z</time></trkpt><trkpt lat="43.6803581" lon="6.7527872"><ele>462.1666666666667</ele><time>2026-04-12T07:04:04.905Z</time></trkpt><trkpt lat="43.6803412" lon="6.7526744"><ele>464.33333333333337</ele><time>2026-04-12T07:04:06.909Z</time></trkpt><trkpt lat="43.6803222" lon="6.7525711"><ele>466.5</ele><time>2026-04-12T07:04:08.907Z</time></trkpt><trkpt lat="43.6803014" lon="6.7524636"><ele>468.66666666666663</ele><time>2026-04-12T07:04:10.92Z</time></trkpt><trkpt lat="43.6802777" lon="6.752347"><ele>470.8333333333333</ele><time>2026-04-12T07:04:12.893Z</time></trkpt><trkpt lat="43.6802563" lon="6.7522459"><ele>473.0</ele><time>2026-04-12T07:04:14.894Z</time></trkpt><trkpt lat="43.680244" lon="6.7521413"><ele>472.99999999999994</ele><time>2026-04-12T07:04:16.892Z</time></trkpt><trkpt lat="43.6802275" lon="6.7520428"><ele>473.0</ele><time>2026-04-12T07:04:18.908Z</time></trkpt><trkpt lat="43.6802079" lon="6.7519396"><ele>473.0</ele><time>2026-04-12T07:04:20.901Z</time></trkpt><trkpt lat="43.6801822" lon="6.751845"><ele>473.0</ele><time>2026-04-12T07:04:22.936Z</time></trkpt><trkpt lat="43.6801472" lon="6.7517494"><ele>472.99999999999994</ele><time>2026-04-12T07:04:24.89Z</time></trkpt><trkpt lat="43.6800976" lon="6.7516701"><ele>473.0</ele><time>2026-04-12T07:04:26.903Z</time></trkpt><trkpt lat="43.6800409" lon="6.7515891"><ele>472.8333333333333</ele><time>2026-04-12T07:04:28.91Z</time></trkpt><trkpt lat="43.6799815" lon="6.7515264"><ele>472.66666666666663</ele><time>2026-04-12T07:04:30.908Z</time></trkpt><trkpt lat="43.6799142" lon="6.7514532"><ele>472.5</ele><time>2026-04-12T07:04:32.902Z</time></trkpt><trkpt lat="43.6798565" lon="6.7513851"><ele>472.33333333333337</ele><time>2026-04-12T07:04:34.91Z</time></trkpt><trkpt lat="43.6797972" lon="6.7513206"><ele>472.1666666666667</ele><time>2026-04-12T07:04:36.905Z</time></trkpt><trkpt lat="43.6797472" lon="6.7512505"><ele>472.0</ele><time>2026-04-12T07:04:38.908Z</time></trkpt><trkpt lat="43.6796988" lon="6.7511814"><ele>472.00000000000006</ele><time>2026-04-12T07:04:40.914Z</time></trkpt><trkpt lat="43.6796486" lon="6.7511128"><ele>472.0</ele><time>2026-04-12T07:04:42.898Z</time></trkpt><trkpt lat="43.6796035" lon="6.7510337"><ele>472.0</ele><time>2026-04-12T07:04:44.906Z</time></trkpt><trkpt lat="43.6795632" lon="6.7509577"><ele>472.0</ele><time>2026-04-12T07:04:46.922Z</time></trkpt><trkpt lat="43.6795351" lon="6.7508527"><ele>472.00000000000006</ele><time>2026-04-12T07:04:48.91Z</time></trkpt><trkpt lat="43.6795118" lon="6.7507437"><ele>472.0</ele><time>2026-04-12T07:04:50.899Z</time></trkpt><trkpt lat="43.6794959" lon="6.7506275"><ele>473.20000000000005</ele><time>2026-04-12T07:04:52.907Z</time></trkpt><trkpt lat="43.6794879" lon="6.7505074"><ele>474.40000000000003</ele><time>2026-04-12T07:04:54.895Z</time></trkpt><trkpt lat="43.6794721" lon="6.7503776"><ele>475.59999999999997</ele><time>2026-04-12T07:04:56.899Z</time></trkpt><trkpt lat="43.6794741" lon="6.7502428"><ele>476.79999999999995</ele><time>2026-04-12T07:04:58.921Z</time></trkpt><trkpt lat="43.6794896" lon="6.7501055"><ele>478.0</ele><time>2026-04-12T07:05:00.927Z</time></trkpt><trkpt lat="43.6795203" lon="6.7499738"><ele>478.83333333333337</ele><time>2026-04-12T07:05:02.906Z</time></trkpt><trkpt lat="43.6795491" lon="6.7498755"><ele>479.6666666666667</ele><time>2026-04-12T07:05:04.887Z</time></trkpt><trkpt lat="43.6795902" lon="6.749784"><ele>480.5</ele><time>2026-04-12T07:05:06.916Z</time></trkpt><trkpt lat="43.6796314" lon="6.7496945"><ele>481.33333333333337</ele><time>2026-04-12T07:05:08.906Z</time></trkpt><trkpt lat="43.6796825" lon="6.749615"><ele>482.1666666666667</ele><time>2026-04-12T07:05:10.902Z</time></trkpt><trkpt lat="43.6797329" lon="6.749537"><ele>483.0</ele><time>2026-04-12T07:05:12.904Z</time></trkpt><trkpt lat="43.6797745" lon="6.7494476"><ele>483.5</ele><time>2026-04-12T07:05:14.89Z</time></trkpt><trkpt lat="43.6797974" lon="6.7493446"><ele>484.0</ele><time>2026-04-12T07:05:16.923Z</time></trkpt><trkpt lat="43.6797953" lon="6.7492354"><ele>484.5</ele><time>2026-04-12T07:05:18.895Z</time></trkpt><trkpt lat="43.6797556" lon="6.7491442"><ele>485.0</ele><time>2026-04-12T07:05:20.914Z</time></trkpt><trkpt lat="43.6797108" lon="6.7490526"><ele>485.5</ele><time>2026-04-12T07:05:22.913Z</time></trkpt><trkpt lat="43.6796685" lon="6.7489621"><ele>486.0</ele><time>2026-04-12T07:05:24.921Z</time></trkpt><trkpt lat="43.6796291" lon="6.7488743"><ele>486.0</ele><time>2026-04-12T07:05:26.892Z</time></trkpt><trkpt lat="43.6795916" lon="6.7487836"><ele>486.0</ele><time>2026-04-12T07:05:28.919Z</time></trkpt><trkpt lat="43.6795546" lon="6.7486945"><ele>486.0</ele><time>2026-04-12T07:05:30.881Z</time></trkpt><trkpt lat="43.6795075" lon="6.7486136"><ele>486.0</ele><time>2026-04-12T07:05:32.901Z</time></trkpt><trkpt lat="43.6794694" lon="6.7485235"><ele>486.0</ele><time>2026-04-12T07:05:34.903Z</time></trkpt><trkpt lat="43.6794258" lon="6.7484214"><ele>486.0</ele><time>2026-04-12T07:05:36.865Z</time></trkpt><trkpt lat="43.6793895" lon="6.7483302"><ele>487.3333333333333</ele><time>2026-04-12T07:05:38.901Z</time></trkpt><trkpt lat="43.679358" lon="6.7482287"><ele>488.66666666666663</ele><time>2026-04-12T07:05:40.914Z</time></trkpt><trkpt lat="43.6793446" lon="6.7481086"><ele>490.0</ele><time>2026-04-12T07:05:42.914Z</time></trkpt><trkpt lat="43.6793479" lon="6.7479862"><ele>491.3333333333333</ele><time>2026-04-12T07:05:44.889Z</time></trkpt><trkpt lat="43.6793608" lon="6.7478738"><ele>492.66666666666663</ele><time>2026-04-12T07:05:46.885Z</time></trkpt><trkpt lat="43.6793822" lon="6.7477506"><ele>494.0</ele><time>2026-04-12T07:05:48.919Z</time></trkpt><trkpt lat="43.6793892" lon="6.7476372"><ele>494.3333333333333</ele><time>2026-04-12T07:05:50.906Z</time></trkpt><trkpt lat="43.6793732" lon="6.7475333"><ele>494.66666666666663</ele><time>2026-04-12T07:05:52.896Z</time></trkpt><trkpt lat="43.6793451" lon="6.7474366"><ele>495.0</ele><time>2026-04-12T07:05:54.903Z</time></trkpt><trkpt lat="43.6792946" lon="6.747358"><ele>495.33333333333337</ele><time>2026-04-12T07:05:56.915Z</time></trkpt><trkpt lat="43.6792184" lon="6.7472956"><ele>495.6666666666667</ele><time>2026-04-12T07:05:58.899Z</time></trkpt><trkpt lat="43.6791427" lon="6.7472335"><ele>496.0</ele><time>2026-04-12T07:06:00.916Z</time></trkpt><trkpt lat="43.6790665" lon="6.7471753"><ele>496.00000000000006</ele><time>2026-04-12T07:06:02.905Z</time></trkpt><trkpt lat="43.6789866" lon="6.7471197"><ele>496.0</ele><time>2026-04-12T07:06:04.924Z</time></trkpt><trkpt lat="43.6789101" lon="6.7470681"><ele>496.0</ele><time>2026-04-12T07:06:06.9Z</time></trkpt><trkpt lat="43.6788423" lon="6.7470114"><ele>496.0</ele><time>2026-04-12T07:06:08.924Z</time></trkpt><trkpt lat="43.6787736" lon="6.7469446"><ele>496.00000000000006</ele><time>2026-04-12T07:06:10.917Z</time></trkpt><trkpt lat="43.6787031" lon="6.7468985"><ele>496.0</ele><time>2026-04-12T07:06:12.94Z</time></trkpt><trkpt lat="43.6786264" lon="6.7468442"><ele>497.83333333333337</ele><time>2026-04-12T07:06:14.916Z</time></trkpt><trkpt lat="43.6785437" lon="6.7467897"><ele>499.6666666666667</ele><time>2026-04-12T07:06:16.909Z</time></trkpt><trkpt lat="43.6784739" lon="6.746749"><ele>501.5</ele><time>2026-04-12T07:06:18.89Z</time></trkpt><trkpt lat="43.6783835" lon="6.746731"><ele>503.33333333333337</ele><time>2026-04-12T07:06:20.907Z</time></trkpt><trkpt lat="43.6782949" lon="6.7467146"><ele>505.1666666666667</ele><time>2026-04-12T07:06:22.888Z</time></trkpt><trkpt lat="43.6782093" lon="6.7467049"><ele>507.0</ele><time>2026-04-12T07:06:24.92Z</time></trkpt><trkpt lat="43.6781141" lon="6.7467012"><ele>507.0</ele><time>2026-04-12T07:06:26.908Z</time></trkpt><trkpt lat="43.6780196" lon="6.7466926"><ele>507.00000000000006</ele><time>2026-04-12T07:06:28.896Z</time></trkpt><trkpt lat="43.6779259" lon="6.7466926"><ele>507.00000000000006</ele><time>2026-04-12T07:06:30.908Z</time></trkpt><trkpt lat="43.6778298" lon="6.7467026"><ele>507.0</ele><time>2026-04-12T07:06:32.939Z</time></trkpt><trkpt lat="43.6777363" lon="6.746688"><ele>507.0</ele><time>2026-04-12T07:06:34.886Z</time></trkpt><trkpt lat="43.6776431" lon="6.7466569"><ele>507.8333333333333</ele><time>2026-04-12T07:06:36.885Z</time></trkpt><trkpt lat="43.6775601" lon="6.7466202"><ele>508.66666666666663</ele><time>2026-04-12T07:06:38.913Z</time></trkpt><trkpt lat="43.6774857" lon="6.7465738"><ele>509.5</ele><time>2026-04-12T07:06:40.878Z</time></trkpt><trkpt lat="43.6774026" lon="6.7465192"><ele>510.3333333333333</ele><time>2026-04-12T07:06:42.896Z</time></trkpt><trkpt lat="43.6773209" lon="6.746482"><ele>511.16666666666663</ele><time>2026-04-12T07:06:44.914Z</time></trkpt><trkpt lat="43.6772506" lon="6.746429"><ele>512.0</ele><time>2026-04-12T07:06:46.906Z</time></trkpt><trkpt lat="43.6771762" lon="6.7463573"><ele>512.0</ele><time>2026-04-12T07:06:48.905Z</time></trkpt><trkpt lat="43.6770968" lon="6.7463019"><ele>512.0</ele><time>2026-04-12T07:06:50.903Z</time></trkpt><trkpt lat="43.6770135" lon="6.7462474"><ele>512.0</ele><time>2026-04-12T07:06:52.891Z</time></trkpt><trkpt lat="43.6769447" lon="6.7461629"><ele>512.0</ele><time>2026-04-12T07:06:54.918Z</time></trkpt><trkpt lat="43.6768759" lon="6.7460626"><ele>512.0</ele><time>2026-04-12T07:06:56.899Z</time></trkpt><trkpt lat="43.6768102" lon="6.7459519"><ele>513.0</ele><time>2026-04-12T07:06:58.919Z</time></trkpt><trkpt lat="43.6767478" lon="6.7458376"><ele>514.0</ele><time>2026-04-12T07:07:00.917Z</time></trkpt><trkpt lat="43.6766959" lon="6.7457157"><ele>515.0</ele><time>2026-04-12T07:07:02.922Z</time></trkpt><trkpt lat="43.6766536" lon="6.7455973"><ele>516.0</ele><time>2026-04-12T07:07:04.93Z</time></trkpt><trkpt lat="43.6765959" lon="6.7454733"><ele>517.0</ele><time>2026-04-12T07:07:06.92Z</time></trkpt><trkpt lat="43.6765451" lon="6.7453587"><ele>517.0</ele><time>2026-04-12T07:07:08.907Z</time></trkpt><trkpt lat="43.676502" lon="6.7452373"><ele>517.0</ele><time>2026-04-12T07:07:10.91Z</time></trkpt><trkpt lat="43.6764591" lon="6.7451158"><ele>517.0</ele><time>2026-04-12T07:07:12.931Z</time></trkpt><trkpt lat="43.6764188" lon="6.7450026"><ele>517.0</ele><time>2026-04-12T07:07:14.915Z</time></trkpt><trkpt lat="43.6763867" lon="6.7448855"><ele>517.0</ele><time>2026-04-12T07:07:16.92Z</time></trkpt><trkpt lat="43.6763618" lon="6.7447674"><ele>518.0</ele><time>2026-04-12T07:07:18.922Z</time></trkpt><trkpt lat="43.6763488" lon="6.7446571"><ele>519.0</ele><time>2026-04-12T07:07:20.917Z</time></trkpt><trkpt lat="43.676355" lon="6.7445222"><ele>520.0</ele><time>2026-04-12T07:07:22.946Z</time></trkpt><trkpt lat="43.6763704" lon="6.7443672"><ele>521.0</ele><time>2026-04-12T07:07:24.932Z</time></trkpt><trkpt lat="43.6763994" lon="6.7442292"><ele>522.0</ele><time>2026-04-12T07:07:26.901Z</time></trkpt><trkpt lat="43.67642" lon="6.7441053"><ele>522.8000000000001</ele><time>2026-04-12T07:07:28.933Z</time></trkpt><trkpt lat="43.6764379" lon="6.7439759"><ele>523.6</ele><time>2026-04-12T07:07:30.888Z</time></trkpt><trkpt lat="43.6764668" lon="6.7438272"><ele>524.4000000000001</ele><time>2026-04-12T07:07:32.894Z</time></trkpt><trkpt lat="43.6764941" lon="6.7436912"><ele>525.2</ele><time>2026-04-12T07:07:34.925Z</time></trkpt><trkpt lat="43.6765257" lon="6.7435361"><ele>526.0</ele><time>2026-04-12T07:07:36.909Z</time></trkpt><trkpt lat="43.6765514" lon="6.7433841"><ele>526.0</ele><time>2026-04-12T07:07:38.934Z</time></trkpt><trkpt lat="43.6765607" lon="6.7432295"><ele>526.0</ele><time>2026-04-12T07:07:40.924Z</time></trkpt><trkpt lat="43.6765389" lon="6.7430694"><ele>526.0</ele><time>2026-04-12T07:07:42.946Z</time></trkpt><trkpt lat="43.6764945" lon="6.7429252"><ele>526.0</ele><time>2026-04-12T07:07:44.918Z</time></trkpt><trkpt lat="43.6764367" lon="6.7427913"><ele>526.4</ele><time>2026-04-12T07:07:46.937Z</time></trkpt><trkpt lat="43.6763767" lon="6.7426652"><ele>526.8</ele><time>2026-04-12T07:07:48.909Z</time></trkpt><trkpt lat="43.6763156" lon="6.7425367"><ele>527.1999999999999</ele><time>2026-04-12T07:07:50.921Z</time></trkpt><trkpt lat="43.676252" lon="6.7424113"><ele>527.6</ele><time>2026-04-12T07:07:52.898Z</time></trkpt><trkpt lat="43.6761954" lon="6.7422717"><ele>528.0</ele><time>2026-04-12T07:07:54.931Z</time></trkpt><trkpt lat="43.6761299" lon="6.7421322"><ele>528.6</ele><time>2026-04-12T07:07:56.92Z</time></trkpt><trkpt lat="43.6760659" lon="6.7420005"><ele>529.1999999999999</ele><time>2026-04-12T07:07:58.909Z</time></trkpt><trkpt lat="43.676008" lon="6.7418697"><ele>529.8</ele><time>2026-04-12T07:08:00.925Z</time></trkpt><trkpt lat="43.6759514" lon="6.7417364"><ele>530.4</ele><time>2026-04-12T07:08:02.916Z</time></trkpt><trkpt lat="43.6758905" lon="6.7416237"><ele>531.0</ele><time>2026-04-12T07:08:04.933Z</time></trkpt><trkpt lat="43.6758412" lon="6.7415084"><ele>531.0</ele><time>2026-04-12T07:08:06.933Z</time></trkpt><trkpt lat="43.6757847" lon="6.7413919"><ele>531.0</ele><time>2026-04-12T07:08:08.915Z</time></trkpt><trkpt lat="43.6757271" lon="6.7412691"><ele>531.0</ele><time>2026-04-12T07:08:10.923Z</time></trkpt><trkpt lat="43.6756702" lon="6.7411478"><ele>531.0</ele><time>2026-04-12T07:08:12.921Z</time></trkpt><trkpt lat="43.6756161" lon="6.7410257"><ele>531.0</ele><time>2026-04-12T07:08:14.922Z</time></trkpt><trkpt lat="43.6755551" lon="6.7409028"><ele>531.4</ele><time>2026-04-12T07:08:16.938Z</time></trkpt><trkpt lat="43.6754956" lon="6.7407866"><ele>531.8</ele><time>2026-04-12T07:08:18.921Z</time></trkpt><trkpt lat="43.6754425" lon="6.7406555"><ele>532.1999999999999</ele><time>2026-04-12T07:08:20.9Z</time></trkpt><trkpt lat="43.6753864" lon="6.7405239"><ele>532.6</ele><time>2026-04-12T07:08:22.934Z</time></trkpt><trkpt lat="43.6753266" lon="6.7403865"><ele>533.0</ele><time>2026-04-12T07:08:24.913Z</time></trkpt><trkpt lat="43.6752677" lon="6.7402465"><ele>534.25</ele><time>2026-04-12T07:08:26.915Z</time></trkpt><trkpt lat="43.6752078" lon="6.7401089"><ele>535.5</ele><time>2026-04-12T07:08:28.906Z</time></trkpt><trkpt lat="43.6751419" lon="6.7399779"><ele>536.75</ele><time>2026-04-12T07:08:30.922Z</time></trkpt><trkpt lat="43.6750802" lon="6.7398467"><ele>538.0</ele><time>2026-04-12T07:08:32.929Z</time></trkpt><trkpt lat="43.6750152" lon="6.739726"><ele>538.0</ele><time>2026-04-12T07:08:34.877Z</time></trkpt><trkpt lat="43.6749561" lon="6.7395963"><ele>538.0</ele><time>2026-04-12T07:08:36.91Z</time></trkpt><trkpt lat="43.674905" lon="6.7394547"><ele>538.0</ele><time>2026-04-12T07:08:38.916Z</time></trkpt><trkpt lat="43.6748465" lon="6.7393299"><ele>538.0</ele><time>2026-04-12T07:08:40.917Z</time></trkpt><trkpt lat="43.6747854" lon="6.7391966"><ele>538.0</ele><time>2026-04-12T07:08:42.933Z</time></trkpt><trkpt lat="43.6747182" lon="6.7390716"><ele>538.5</ele><time>2026-04-12T07:08:44.878Z</time></trkpt><trkpt lat="43.6746575" lon="6.7389367"><ele>539.0</ele><time>2026-04-12T07:08:46.922Z</time></trkpt><trkpt lat="43.6746012" lon="6.7387967"><ele>539.5</ele><time>2026-04-12T07:08:48.912Z</time></trkpt><trkpt lat="43.6745392" lon="6.7386647"><ele>540.0</ele><time>2026-04-12T07:08:50.932Z</time></trkpt><trkpt lat="43.674478" lon="6.7385226"><ele>540.5</ele><time>2026-04-12T07:08:52.907Z</time></trkpt><trkpt lat="43.6744148" lon="6.7383777"><ele>541.0</ele><time>2026-04-12T07:08:54.931Z</time></trkpt><trkpt lat="43.6743454" lon="6.7382457"><ele>541.5</ele><time>2026-04-12T07:08:56.898Z</time></trkpt><trkpt lat="43.6742894" lon="6.738119"><ele>542.0</ele><time>2026-04-12T07:08:58.931Z</time></trkpt><trkpt lat="43.6742301" lon="6.7379956"><ele>542.0</ele><time>2026-04-12T07:09:00.904Z</time></trkpt><trkpt lat="43.6741701" lon="6.7378678"><ele>542.0</ele><time>2026-04-12T07:09:02.924Z</time></trkpt><trkpt lat="43.6741177" lon="6.7377378"><ele>542.0</ele><time>2026-04-12T07:09:04.917Z</time></trkpt><trkpt lat="43.6740632" lon="6.7376142"><ele>542.0</ele><time>2026-04-12T07:09:06.927Z</time></trkpt><trkpt lat="43.6740084" lon="6.7374988"><ele>542.0</ele><time>2026-04-12T07:09:08.922Z</time></trkpt><trkpt lat="43.67395" lon="6.7373854"><ele>543.0</ele><time>2026-04-12T07:09:10.914Z</time></trkpt><trkpt lat="43.6738978" lon="6.7372659"><ele>544.0</ele><time>2026-04-12T07:09:12.902Z</time></trkpt><trkpt lat="43.6738454" lon="6.7371487"><ele>545.0</ele><time>2026-04-12T07:09:14.892Z</time></trkpt><trkpt lat="43.6737936" lon="6.737037"><ele>546.0</ele><time>2026-04-12T07:09:16.933Z</time></trkpt><trkpt lat="43.6737458" lon="6.7369221"><ele>547.0</ele><time>2026-04-12T07:09:18.89Z</time></trkpt><trkpt lat="43.6736939" lon="6.7367978"><ele>547.4</ele><time>2026-04-12T07:09:20.924Z</time></trkpt><trkpt lat="43.6736372" lon="6.7366621"><ele>547.8000000000001</ele><time>2026-04-12T07:09:22.93Z</time></trkpt><trkpt lat="43.6735839" lon="6.7365266"><ele>548.2</ele><time>2026-04-12T07:09:24.931Z</time></trkpt><trkpt lat="43.6735363" lon="6.7363798"><ele>548.6</ele><time>2026-04-12T07:09:26.918Z</time></trkpt><trkpt lat="43.6735156" lon="6.7362425"><ele>549.0</ele><time>2026-04-12T07:09:28.935Z</time></trkpt><trkpt lat="43.6734942" lon="6.7361024"><ele>550.0</ele><time>2026-04-12T07:09:30.917Z</time></trkpt><trkpt lat="43.6734828" lon="6.7359676"><ele>551.0</ele><time>2026-04-12T07:09:32.924Z</time></trkpt><trkpt lat="43.6734889" lon="6.7358361"><ele>552.0</ele><time>2026-04-12T07:09:34.886Z</time></trkpt><trkpt lat="43.6735119" lon="6.7357134"><ele>553.0</ele><time>2026-04-12T07:09:36.917Z</time></trkpt><trkpt lat="43.673545" lon="6.735594"><ele>554.0</ele><time>2026-04-12T07:09:38.923Z</time></trkpt><trkpt lat="43.6735898" lon="6.7354785"><ele>555.4</ele><time>2026-04-12T07:09:40.925Z</time></trkpt><trkpt lat="43.6736332" lon="6.735369"><ele>556.8</ele><time>2026-04-12T07:09:42.905Z</time></trkpt><trkpt lat="43.673677" lon="6.7352482"><ele>558.2</ele><time>2026-04-12T07:09:44.934Z</time></trkpt><trkpt lat="43.6737256" lon="6.7351359"><ele>559.6</ele><time>2026-04-12T07:09:46.938Z</time></trkpt><trkpt lat="43.673766" lon="6.735014"><ele>561.0</ele><time>2026-04-12T07:09:48.906Z</time></trkpt><trkpt lat="43.6737973" lon="6.7348828"><ele>561.6</ele><time>2026-04-12T07:09:50.931Z</time></trkpt><trkpt lat="43.6738001" lon="6.7347421"><ele>562.2</ele><time>2026-04-12T07:09:52.924Z</time></trkpt><trkpt lat="43.6737892" lon="6.7345949"><ele>562.8</ele><time>2026-04-12T07:09:54.918Z</time></trkpt><trkpt lat="43.6737606" lon="6.7344584"><ele>563.4</ele><time>2026-04-12T07:09:56.922Z</time></trkpt><trkpt lat="43.6737343" lon="6.7343177"><ele>564.0</ele><time>2026-04-12T07:09:58.922Z</time></trkpt><trkpt lat="43.673709" lon="6.7341793"><ele>564.8</ele><time>2026-04-12T07:10:00.932Z</time></trkpt><trkpt lat="43.6736858" lon="6.7340635"><ele>565.5999999999999</ele><time>2026-04-12T07:10:02.923Z</time></trkpt><trkpt lat="43.6736638" lon="6.7339459"><ele>566.4</ele><time>2026-04-12T07:10:04.908Z</time></trkpt><trkpt lat="43.6736472" lon="6.7338122"><ele>567.1999999999999</ele><time>2026-04-12T07:10:06.926Z</time></trkpt><trkpt lat="43.6736268" lon="6.7336883"><ele>568.0</ele><time>2026-04-12T07:10:08.933Z</time></trkpt><trkpt lat="43.6736033" lon="6.7335651"><ele>566.8</ele><time>2026-04-12T07:10:10.938Z</time></trkpt><trkpt lat="43.673593" lon="6.7334314"><ele>565.5999999999999</ele><time>2026-04-12T07:10:12.892Z</time></trkpt><trkpt lat="43.6736324" lon="6.7332969"><ele>564.4000000000001</ele><time>2026-04-12T07:10:14.917Z</time></trkpt><trkpt lat="43.6737092" lon="6.733264"><ele>563.2</ele><time>2026-04-12T07:10:16.893Z</time></trkpt><trkpt lat="43.673773" lon="6.7333418"><ele>562.0</ele><time>2026-04-12T07:10:18.918Z</time></trkpt><trkpt lat="43.6738358" lon="6.7334633"><ele>563.2</ele><time>2026-04-12T07:10:20.93Z</time></trkpt><trkpt lat="43.6739073" lon="6.733571"><ele>564.4000000000001</ele><time>2026-04-12T07:10:22.929Z</time></trkpt><trkpt lat="43.6739932" lon="6.7336544"><ele>565.5999999999999</ele><time>2026-04-12T07:10:24.946Z</time></trkpt><trkpt lat="43.6740856" lon="6.7336731"><ele>566.8</ele><time>2026-04-12T07:10:26.927Z</time></trkpt><trkpt lat="43.6741653" lon="6.7336392"><ele>568.0</ele><time>2026-04-12T07:10:28.917Z</time></trkpt><trkpt lat="43.674239" lon="6.7335905"><ele>568.8571428571429</ele><time>2026-04-12T07:10:30.904Z</time></trkpt><trkpt lat="43.6742927" lon="6.7335314"><ele>569.7142857142857</ele><time>2026-04-12T07:10:32.903Z</time></trkpt><trkpt lat="43.6743578" lon="6.7334686"><ele>570.5714285714286</ele><time>2026-04-12T07:10:34.899Z</time></trkpt><trkpt lat="43.6744188" lon="6.7334111"><ele>571.4285714285714</ele><time>2026-04-12T07:10:36.91Z</time></trkpt><trkpt lat="43.6744801" lon="6.7333516"><ele>572.2857142857142</ele><time>2026-04-12T07:10:38.913Z</time></trkpt><trkpt lat="43.6745442" lon="6.7333002"><ele>573.1428571428571</ele><time>2026-04-12T07:10:40.938Z</time></trkpt><trkpt lat="43.6746059" lon="6.7332617"><ele>574.0</ele><time>2026-04-12T07:10:42.917Z</time></trkpt><trkpt lat="43.6746647" lon="6.7332204"><ele>574.5714285714286</ele><time>2026-04-12T07:10:44.906Z</time></trkpt><trkpt lat="43.6747247" lon="6.733178"><ele>575.1428571428571</ele><time>2026-04-12T07:10:46.898Z</time></trkpt><trkpt lat="43.6748033" lon="6.7331142"><ele>575.7142857142858</ele><time>2026-04-12T07:10:49.879Z</time></trkpt><trkpt lat="43.6748583" lon="6.7330679"><ele>576.2857142857142</ele><time>2026-04-12T07:10:51.921Z</time></trkpt><trkpt lat="43.6749216" lon="6.7330137"><ele>576.8571428571429</ele><time>2026-04-12T07:10:53.933Z</time></trkpt><trkpt lat="43.6749815" lon="6.7329577"><ele>577.4285714285714</ele><time>2026-04-12T07:10:55.923Z</time></trkpt><trkpt lat="43.6750484" lon="6.7328998"><ele>578.0</ele><time>2026-04-12T07:10:57.934Z</time></trkpt><trkpt lat="43.6751104" lon="6.7328506"><ele>578.0</ele><time>2026-04-12T07:10:59.927Z</time></trkpt><trkpt lat="43.6751708" lon="6.7327978"><ele>578.0</ele><time>2026-04-12T07:11:01.934Z</time></trkpt><trkpt lat="43.6752307" lon="6.7327531"><ele>578.0</ele><time>2026-04-12T07:11:03.927Z</time></trkpt><trkpt lat="43.675293" lon="6.7327014"><ele>578.0</ele><time>2026-04-12T07:11:05.886Z</time></trkpt><trkpt lat="43.6753529" lon="6.7326511"><ele>578.0</ele><time>2026-04-12T07:11:07.905Z</time></trkpt><trkpt lat="43.675416" lon="6.7325988"><ele>578.0</ele><time>2026-04-12T07:11:09.895Z</time></trkpt><trkpt lat="43.6754663" lon="6.7325328"><ele>578.0</ele><time>2026-04-12T07:11:11.923Z</time></trkpt><trkpt lat="43.675521" lon="6.7324807"><ele>579.5714285714286</ele><time>2026-04-12T07:11:13.938Z</time></trkpt><trkpt lat="43.6755795" lon="6.7324337"><ele>581.1428571428571</ele><time>2026-04-12T07:11:15.929Z</time></trkpt><trkpt lat="43.6756356" lon="6.7323906"><ele>582.7142857142857</ele><time>2026-04-12T07:11:17.921Z</time></trkpt><trkpt lat="43.6757119" lon="6.7323228"><ele>584.2857142857142</ele><time>2026-04-12T07:11:20.913Z</time></trkpt><trkpt lat="43.6757652" lon="6.7322739"><ele>585.8571428571428</ele><time>2026-04-12T07:11:22.924Z</time></trkpt><trkpt lat="43.6758233" lon="6.7322265"><ele>587.4285714285714</ele><time>2026-04-12T07:11:24.93Z</time></trkpt><trkpt lat="43.6758826" lon="6.7321771"><ele>589.0</ele><time>2026-04-12T07:11:26.898Z</time></trkpt><trkpt lat="43.6759393" lon="6.7321234"><ele>589.0</ele><time>2026-04-12T07:11:28.881Z</time></trkpt><trkpt lat="43.6759908" lon="6.7320501"><ele>589.0</ele><time>2026-04-12T07:11:30.917Z</time></trkpt><trkpt lat="43.6760444" lon="6.73199"><ele>589.0</ele><time>2026-04-12T07:11:32.927Z</time></trkpt><trkpt lat="43.6760931" lon="6.7319295"><ele>589.0</ele><time>2026-04-12T07:11:34.932Z</time></trkpt><trkpt lat="43.6761418" lon="6.7318716"><ele>589.0</ele><time>2026-04-12T07:11:36.916Z</time></trkpt><trkpt lat="43.6762141" lon="6.7318018"><ele>589.0</ele><time>2026-04-12T07:11:39.898Z</time></trkpt><trkpt lat="43.6762849" lon="6.7317343"><ele>589.0</ele><time>2026-04-12T07:11:42.892Z</time></trkpt><trkpt lat="43.6763581" lon="6.731669"><ele>590.8333333333334</ele><time>2026-04-12T07:11:45.921Z</time></trkpt><trkpt lat="43.6764124" lon="6.7316222"><ele>592.6666666666667</ele><time>2026-04-12T07:11:47.926Z</time></trkpt><trkpt lat="43.676488" lon="6.7315484"><ele>594.5</ele><time>2026-04-12T07:11:50.92Z</time></trkpt><trkpt lat="43.6765531" lon="6.7314825"><ele>596.3333333333334</ele><time>2026-04-12T07:11:53.916Z</time></trkpt><trkpt lat="43.6766225" lon="6.7314214"><ele>598.1666666666666</ele><time>2026-04-12T07:11:56.946Z</time></trkpt><trkpt lat="43.6767037" lon="6.7313731"><ele>600.0</ele><time>2026-04-12T07:11:59.937Z</time></trkpt><trkpt lat="43.6767785" lon="6.7313206"><ele>599.9999999999999</ele><time>2026-04-12T07:12:02.902Z</time></trkpt><trkpt lat="43.6768507" lon="6.7312557"><ele>600.0</ele><time>2026-04-12T07:12:05.918Z</time></trkpt><trkpt lat="43.6769297" lon="6.7311899"><ele>600.0</ele><time>2026-04-12T07:12:08.921Z</time></trkpt><trkpt lat="43.6769866" lon="6.7311392"><ele>600.0</ele><time>2026-04-12T07:12:10.91Z</time></trkpt><trkpt lat="43.6770401" lon="6.7310885"><ele>600.0</ele><time>2026-04-12T07:12:12.927Z</time></trkpt><trkpt lat="43.6770975" lon="6.7310412"><ele>599.9999999999999</ele><time>2026-04-12T07:12:14.926Z</time></trkpt><trkpt lat="43.6771578" lon="6.7309992"><ele>600.0</ele><time>2026-04-12T07:12:16.887Z</time></trkpt><trkpt lat="43.6772183" lon="6.730952"><ele>601.4285714285713</ele><time>2026-04-12T07:12:18.941Z</time></trkpt><trkpt lat="43.6772827" lon="6.7309145"><ele>602.8571428571429</ele><time>2026-04-12T07:12:20.879Z</time></trkpt><trkpt lat="43.6773528" lon="6.7308748"><ele>604.2857142857142</ele><time>2026-04-12T07:12:22.91Z</time></trkpt><trkpt lat="43.6774157" lon="6.7308265"><ele>605.7142857142857</ele><time>2026-04-12T07:12:24.9Z</time></trkpt><trkpt lat="43.6774713" lon="6.7307792"><ele>607.1428571428571</ele><time>2026-04-12T07:12:26.926Z</time></trkpt><trkpt lat="43.6775372" lon="6.7307322"><ele>608.5714285714286</ele><time>2026-04-12T07:12:28.88Z</time></trkpt><trkpt lat="43.677594" lon="6.7306895"><ele>610.0</ele><time>2026-04-12T07:12:30.892Z</time></trkpt><trkpt lat="43.6776537" lon="6.7306452"><ele>610.0</ele><time>2026-04-12T07:12:32.894Z</time></trkpt><trkpt lat="43.6777205" lon="6.7306001"><ele>610.0</ele><time>2026-04-12T07:12:34.897Z</time></trkpt><trkpt lat="43.6777802" lon="6.730555"><ele>610.0</ele><time>2026-04-12T07:12:36.905Z</time></trkpt><trkpt lat="43.6778442" lon="6.7305069"><ele>610.0</ele><time>2026-04-12T07:12:38.909Z</time></trkpt><trkpt lat="43.6779124" lon="6.7304619"><ele>610.0</ele><time>2026-04-12T07:12:40.925Z</time></trkpt><trkpt lat="43.6779745" lon="6.7304041"><ele>610.0</ele><time>2026-04-12T07:12:42.939Z</time></trkpt><trkpt lat="43.6780408" lon="6.7303505"><ele>610.0</ele><time>2026-04-12T07:12:44.912Z</time></trkpt><trkpt lat="43.6780995" lon="6.7303014"><ele>610.6666666666667</ele><time>2026-04-12T07:12:46.935Z</time></trkpt><trkpt lat="43.6781504" lon="6.7302414"><ele>611.3333333333334</ele><time>2026-04-12T07:12:48.897Z</time></trkpt><trkpt lat="43.6782019" lon="6.7301723"><ele>612.0</ele><time>2026-04-12T07:12:50.91Z</time></trkpt><trkpt lat="43.6782515" lon="6.7301076"><ele>612.6666666666666</ele><time>2026-04-12T07:12:52.926Z</time></trkpt><trkpt lat="43.6783229" lon="6.7300285"><ele>613.3333333333333</ele><time>2026-04-12T07:12:55.92Z</time></trkpt><trkpt lat="43.6783762" lon="6.7299781"><ele>614.0</ele><time>2026-04-12T07:12:57.914Z</time></trkpt><trkpt lat="43.6784547" lon="6.7299066"><ele>614.7142857142857</ele><time>2026-04-12T07:13:00.921Z</time></trkpt><trkpt lat="43.6785071" lon="6.7298553"><ele>615.4285714285714</ele><time>2026-04-12T07:13:02.905Z</time></trkpt><trkpt lat="43.6785603" lon="6.7297945"><ele>616.1428571428571</ele><time>2026-04-12T07:13:04.932Z</time></trkpt><trkpt lat="43.6786012" lon="6.7297167"><ele>616.8571428571429</ele><time>2026-04-12T07:13:06.929Z</time></trkpt><trkpt lat="43.6786528" lon="6.7296487"><ele>617.5714285714286</ele><time>2026-04-12T07:13:08.915Z</time></trkpt><trkpt lat="43.6787003" lon="6.7295662"><ele>618.2857142857142</ele><time>2026-04-12T07:13:10.911Z</time></trkpt><trkpt lat="43.6787277" lon="6.7294747"><ele>619.0</ele><time>2026-04-12T07:13:12.926Z</time></trkpt><trkpt lat="43.6787596" lon="6.7293791"><ele>621.0</ele><time>2026-04-12T07:13:14.894Z</time></trkpt><trkpt lat="43.6787951" lon="6.7292881"><ele>623.0</ele><time>2026-04-12T07:13:16.91Z</time></trkpt><trkpt lat="43.6788404" lon="6.7292059"><ele>625.0</ele><time>2026-04-12T07:13:18.909Z</time></trkpt><trkpt lat="43.6788924" lon="6.7291288"><ele>627.0</ele><time>2026-04-12T07:13:20.929Z</time></trkpt><trkpt lat="43.6789469" lon="6.7290533"><ele>629.0</ele><time>2026-04-12T07:13:22.927Z</time></trkpt><trkpt lat="43.6790097" lon="6.7289885"><ele>631.0</ele><time>2026-04-12T07:13:24.936Z</time></trkpt><trkpt lat="43.6790718" lon="6.7289418"><ele>631.0</ele><time>2026-04-12T07:13:26.922Z</time></trkpt><trkpt lat="43.6791377" lon="6.728899"><ele>631.0</ele><time>2026-04-12T07:13:28.906Z</time></trkpt><trkpt lat="43.6792024" lon="6.7288634"><ele>631.0</ele><time>2026-04-12T07:13:30.911Z</time></trkpt><trkpt lat="43.6792719" lon="6.7288375"><ele>631.0</ele><time>2026-04-12T07:13:32.865Z</time></trkpt><trkpt lat="43.6793524" lon="6.7288139"><ele>631.0</ele><time>2026-04-12T07:13:34.874Z</time></trkpt><trkpt lat="43.6794161" lon="6.7287768"><ele>631.0</ele><time>2026-04-12T07:13:36.882Z</time></trkpt><trkpt lat="43.6794916" lon="6.7287412"><ele>631.0</ele><time>2026-04-12T07:13:38.924Z</time></trkpt><trkpt lat="43.6795774" lon="6.7287234"><ele>631.5</ele><time>2026-04-12T07:13:40.928Z</time></trkpt><trkpt lat="43.6796627" lon="6.7286808"><ele>632.0</ele><time>2026-04-12T07:13:42.908Z</time></trkpt><trkpt lat="43.6797423" lon="6.7286294"><ele>632.5</ele><time>2026-04-12T07:13:44.906Z</time></trkpt><trkpt lat="43.6798113" lon="6.7285822"><ele>633.0</ele><time>2026-04-12T07:13:46.903Z</time></trkpt><trkpt lat="43.6798984" lon="6.7285328"><ele>633.5</ele><time>2026-04-12T07:13:48.919Z</time></trkpt><trkpt lat="43.6799841" lon="6.7284651"><ele>634.0</ele><time>2026-04-12T07:13:50.905Z</time></trkpt><trkpt lat="43.6800807" lon="6.7284149"><ele>634.2</ele><time>2026-04-12T07:13:52.913Z</time></trkpt><trkpt lat="43.6801892" lon="6.7283595"><ele>634.4</ele><time>2026-04-12T07:13:54.918Z</time></trkpt><trkpt lat="43.6802911" lon="6.72829"><ele>634.6</ele><time>2026-04-12T07:13:56.914Z</time></trkpt><trkpt lat="43.6803848" lon="6.7282243"><ele>634.8</ele><time>2026-04-12T07:13:58.913Z</time></trkpt><trkpt lat="43.6804721" lon="6.7281674"><ele>635.0</ele><time>2026-04-12T07:14:00.903Z</time></trkpt><trkpt lat="43.6805553" lon="6.7281071"><ele>636.0</ele><time>2026-04-12T07:14:02.909Z</time></trkpt><trkpt lat="43.6806334" lon="6.7280483"><ele>637.0</ele><time>2026-04-12T07:14:04.921Z</time></trkpt><trkpt lat="43.6807125" lon="6.7279877"><ele>638.0</ele><time>2026-04-12T07:14:06.9Z</time></trkpt><trkpt lat="43.6807854" lon="6.7279331"><ele>639.0</ele><time>2026-04-12T07:14:08.927Z</time></trkpt><trkpt lat="43.680858" lon="6.7278788"><ele>640.0</ele><time>2026-04-12T07:14:10.926Z</time></trkpt><trkpt lat="43.6809292" lon="6.7278318"><ele>641.0</ele><time>2026-04-12T07:14:12.934Z</time></trkpt><trkpt lat="43.6810049" lon="6.7277875"><ele>641.0</ele><time>2026-04-12T07:14:14.922Z</time></trkpt><trkpt lat="43.6810773" lon="6.7277316"><ele>641.0</ele><time>2026-04-12T07:14:16.925Z</time></trkpt><trkpt lat="43.6811449" lon="6.7276824"><ele>641.0</ele><time>2026-04-12T07:14:18.901Z</time></trkpt><trkpt lat="43.6812165" lon="6.727638"><ele>641.0</ele><time>2026-04-12T07:14:20.913Z</time></trkpt><trkpt lat="43.6812969" lon="6.7275913"><ele>641.0</ele><time>2026-04-12T07:14:22.917Z</time></trkpt><trkpt lat="43.6813644" lon="6.7275423"><ele>641.0</ele><time>2026-04-12T07:14:24.942Z</time></trkpt><trkpt lat="43.6814343" lon="6.7274928"><ele>642.6666666666666</ele><time>2026-04-12T07:14:26.89Z</time></trkpt><trkpt lat="43.6814977" lon="6.7274464"><ele>644.3333333333333</ele><time>2026-04-12T07:14:28.902Z</time></trkpt><trkpt lat="43.6815703" lon="6.7273934"><ele>646.0</ele><time>2026-04-12T07:14:30.9Z</time></trkpt><trkpt lat="43.6816425" lon="6.7273338"><ele>647.6666666666666</ele><time>2026-04-12T07:14:32.917Z</time></trkpt><trkpt lat="43.6817122" lon="6.7272769"><ele>649.3333333333334</ele><time>2026-04-12T07:14:34.916Z</time></trkpt><trkpt lat="43.6817789" lon="6.7272122"><ele>651.0</ele><time>2026-04-12T07:14:36.908Z</time></trkpt><trkpt lat="43.6818518" lon="6.7271517"><ele>651.0</ele><time>2026-04-12T07:14:38.93Z</time></trkpt><trkpt lat="43.6819244" lon="6.7270894"><ele>651.0</ele><time>2026-04-12T07:14:40.896Z</time></trkpt><trkpt lat="43.6819993" lon="6.7270627"><ele>651.0</ele><time>2026-04-12T07:14:42.916Z</time></trkpt><trkpt lat="43.682076" lon="6.7270769"><ele>651.0</ele><time>2026-04-12T07:14:44.918Z</time></trkpt><trkpt lat="43.6821419" lon="6.7271366"><ele>651.0</ele><time>2026-04-12T07:14:46.9Z</time></trkpt><trkpt lat="43.6821808" lon="6.7272311"><ele>651.0</ele><time>2026-04-12T07:14:48.923Z</time></trkpt><trkpt lat="43.6821993" lon="6.7273454"><ele>652.6666666666666</ele><time>2026-04-12T07:14:50.924Z</time></trkpt><trkpt lat="43.6821918" lon="6.7274682"><ele>654.3333333333334</ele><time>2026-04-12T07:14:52.93Z</time></trkpt><trkpt lat="43.6821824" lon="6.7275806"><ele>656.0</ele><time>2026-04-12T07:14:54.922Z</time></trkpt><trkpt lat="43.6821781" lon="6.7277057"><ele>657.6666666666667</ele><time>2026-04-12T07:14:56.896Z</time></trkpt><trkpt lat="43.6821875" lon="6.7278226"><ele>659.3333333333334</ele><time>2026-04-12T07:14:58.884Z</time></trkpt><trkpt lat="43.6822" lon="6.7279461"><ele>661.0</ele><time>2026-04-12T07:15:00.923Z</time></trkpt><trkpt lat="43.6822251" lon="6.7280735"><ele>661.1666666666667</ele><time>2026-04-12T07:15:02.924Z</time></trkpt><trkpt lat="43.68225" lon="6.7281925"><ele>661.3333333333334</ele><time>2026-04-12T07:15:04.925Z</time></trkpt><trkpt lat="43.6822811" lon="6.7283094"><ele>661.5</ele><time>2026-04-12T07:15:06.934Z</time></trkpt><trkpt lat="43.6823088" lon="6.7284276"><ele>661.6666666666666</ele><time>2026-04-12T07:15:08.877Z</time></trkpt><trkpt lat="43.6823409" lon="6.7285443"><ele>661.8333333333333</ele><time>2026-04-12T07:15:10.901Z</time></trkpt><trkpt lat="43.6823688" lon="6.728657"><ele>662.0</ele><time>2026-04-12T07:15:12.894Z</time></trkpt><trkpt lat="43.6824094" lon="6.7287582"><ele>662.0</ele><time>2026-04-12T07:15:14.892Z</time></trkpt><trkpt lat="43.6824459" lon="6.7288631"><ele>662.0</ele><time>2026-04-12T07:15:16.919Z</time></trkpt><trkpt lat="43.6824904" lon="6.7289609"><ele>662.0</ele><time>2026-04-12T07:15:18.923Z</time></trkpt><trkpt lat="43.6825445" lon="6.7290595"><ele>662.0</ele><time>2026-04-12T07:15:20.894Z</time></trkpt><trkpt lat="43.682601" lon="6.7291468"><ele>662.0</ele><time>2026-04-12T07:15:22.898Z</time></trkpt><trkpt lat="43.6826571" lon="6.7292525"><ele>662.0</ele><time>2026-04-12T07:15:24.903Z</time></trkpt><trkpt lat="43.6827142" lon="6.729354"><ele>664.8</ele><time>2026-04-12T07:15:26.882Z</time></trkpt><trkpt lat="43.6827644" lon="6.7294611"><ele>667.6</ele><time>2026-04-12T07:15:28.895Z</time></trkpt><trkpt lat="43.6828129" lon="6.7295695"><ele>670.4</ele><time>2026-04-12T07:15:30.919Z</time></trkpt><trkpt lat="43.6828629" lon="6.7296709"><ele>673.1999999999999</ele><time>2026-04-12T07:15:32.912Z</time></trkpt><trkpt lat="43.6829021" lon="6.7297798"><ele>676.0</ele><time>2026-04-12T07:15:34.894Z</time></trkpt><trkpt lat="43.6829379" lon="6.7298918"><ele>676.0</ele><time>2026-04-12T07:15:36.925Z</time></trkpt><trkpt lat="43.6829603" lon="6.7300134"><ele>676.0</ele><time>2026-04-12T07:15:38.88Z</time></trkpt><trkpt lat="43.6829696" lon="6.7301334"><ele>676.0</ele><time>2026-04-12T07:15:40.912Z</time></trkpt><trkpt lat="43.6829833" lon="6.7302517"><ele>676.0</ele><time>2026-04-12T07:15:42.942Z</time></trkpt><trkpt lat="43.6829963" lon="6.7303595"><ele>676.0</ele><time>2026-04-12T07:15:44.902Z</time></trkpt><trkpt lat="43.6830207" lon="6.7304819"><ele>676.0</ele><time>2026-04-12T07:15:46.929Z</time></trkpt><trkpt lat="43.6830447" lon="6.7306023"><ele>676.1999999999999</ele><time>2026-04-12T07:15:48.918Z</time></trkpt><trkpt lat="43.683072" lon="6.7307197"><ele>676.4</ele><time>2026-04-12T07:15:50.945Z</time></trkpt><trkpt lat="43.6831234" lon="6.7308331"><ele>676.6</ele><time>2026-04-12T07:15:52.924Z</time></trkpt><trkpt lat="43.6831699" lon="6.7309524"><ele>676.8</ele><time>2026-04-12T07:15:54.923Z</time></trkpt><trkpt lat="43.6832118" lon="6.731057"><ele>677.0</ele><time>2026-04-12T07:15:56.893Z</time></trkpt><trkpt lat="43.683245" lon="6.7311702"><ele>677.0</ele><time>2026-04-12T07:15:58.919Z</time></trkpt><trkpt lat="43.6832865" lon="6.7312929"><ele>677.0</ele><time>2026-04-12T07:16:00.935Z</time></trkpt><trkpt lat="43.6833197" lon="6.7314059"><ele>677.0</ele><time>2026-04-12T07:16:02.881Z</time></trkpt><trkpt lat="43.6833567" lon="6.7315172"><ele>677.0</ele><time>2026-04-12T07:16:04.902Z</time></trkpt><trkpt lat="43.6834041" lon="6.7316245"><ele>677.0</ele><time>2026-04-12T07:16:06.9Z</time></trkpt><trkpt lat="43.6834463" lon="6.7317312"><ele>677.0</ele><time>2026-04-12T07:16:08.92Z</time></trkpt><trkpt lat="43.6834918" lon="6.7318234"><ele>677.0</ele><time>2026-04-12T07:16:10.913Z</time></trkpt><trkpt lat="43.6835388" lon="6.7319203"><ele>677.0</ele><time>2026-04-12T07:16:12.913Z</time></trkpt><trkpt lat="43.6835836" lon="6.7320335"><ele>677.0</ele><time>2026-04-12T07:16:14.946Z</time></trkpt><trkpt lat="43.6836302" lon="6.732126"><ele>677.0</ele><time>2026-04-12T07:16:16.905Z</time></trkpt><trkpt lat="43.6836668" lon="6.7322122"><ele>677.0</ele><time>2026-04-12T07:16:18.906Z</time></trkpt><trkpt lat="43.6837142" lon="6.7322981"><ele>677.4285714285713</ele><time>2026-04-12T07:16:20.907Z</time></trkpt><trkpt lat="43.6837551" lon="6.7323807"><ele>677.8571428571429</ele><time>2026-04-12T07:16:22.913Z</time></trkpt><trkpt lat="43.6837969" lon="6.7324629"><ele>678.2857142857142</ele><time>2026-04-12T07:16:24.901Z</time></trkpt><trkpt lat="43.6838433" lon="6.7325415"><ele>678.7142857142857</ele><time>2026-04-12T07:16:26.936Z</time></trkpt><trkpt lat="43.683898" lon="6.7326232"><ele>679.1428571428571</ele><time>2026-04-12T07:16:28.911Z</time></trkpt><trkpt lat="43.6839525" lon="6.7327006"><ele>679.5714285714286</ele><time>2026-04-12T07:16:30.934Z</time></trkpt><trkpt lat="43.6840113" lon="6.7327537"><ele>680.0</ele><time>2026-04-12T07:16:32.896Z</time></trkpt><trkpt lat="43.6840769" lon="6.7327411"><ele>681.8333333333333</ele><time>2026-04-12T07:16:34.91Z</time></trkpt><trkpt lat="43.6841035" lon="6.7326246"><ele>683.6666666666666</ele><time>2026-04-12T07:16:37.876Z</time></trkpt><trkpt lat="43.6841021" lon="6.7325289"><ele>685.5</ele><time>2026-04-12T07:16:39.9Z</time></trkpt><trkpt lat="43.684099" lon="6.7324253"><ele>687.3333333333334</ele><time>2026-04-12T07:16:41.902Z</time></trkpt><trkpt lat="43.6841171" lon="6.7323086"><ele>689.1666666666667</ele><time>2026-04-12T07:16:43.887Z</time></trkpt><trkpt lat="43.6841255" lon="6.7322038"><ele>691.0</ele><time>2026-04-12T07:16:45.897Z</time></trkpt><trkpt lat="43.6841262" lon="6.7320763"><ele>691.0</ele><time>2026-04-12T07:16:47.954Z</time></trkpt><trkpt lat="43.6841159" lon="6.7319605"><ele>691.0</ele><time>2026-04-12T07:16:49.89Z</time></trkpt><trkpt lat="43.6841002" lon="6.7318464"><ele>691.0</ele><time>2026-04-12T07:16:51.901Z</time></trkpt><trkpt lat="43.6840787" lon="6.7317339"><ele>691.0</ele><time>2026-04-12T07:16:53.891Z</time></trkpt><trkpt lat="43.6840665" lon="6.7316156"><ele>691.0</ele><time>2026-04-12T07:16:55.892Z</time></trkpt><trkpt lat="43.6840589" lon="6.7314989"><ele>691.0</ele><time>2026-04-12T07:16:57.894Z</time></trkpt><trkpt lat="43.6840625" lon="6.7313842"><ele>692.0</ele><time>2026-04-12T07:16:59.884Z</time></trkpt><trkpt lat="43.6840706" lon="6.7312759"><ele>693.0</ele><time>2026-04-12T07:17:01.898Z</time></trkpt><trkpt lat="43.6840865" lon="6.7311681"><ele>694.0</ele><time>2026-04-12T07:17:03.887Z</time></trkpt><trkpt lat="43.6841001" lon="6.7310774"><ele>695.0</ele><time>2026-04-12T07:17:05.867Z</time></trkpt><trkpt lat="43.684122" lon="6.7309713"><ele>696.0</ele><time>2026-04-12T07:17:07.926Z</time></trkpt><trkpt lat="43.6841486" lon="6.7308706"><ele>697.0</ele><time>2026-04-12T07:17:09.899Z</time></trkpt><trkpt lat="43.6841709" lon="6.7307602"><ele>696.8333333333334</ele><time>2026-04-12T07:17:11.902Z</time></trkpt><trkpt lat="43.6841982" lon="6.7306663"><ele>696.6666666666667</ele><time>2026-04-12T07:17:13.891Z</time></trkpt><trkpt lat="43.6842379" lon="6.7305674"><ele>696.5</ele><time>2026-04-12T07:17:15.893Z</time></trkpt><trkpt lat="43.6842717" lon="6.7304623"><ele>696.3333333333334</ele><time>2026-04-12T07:17:17.907Z</time></trkpt><trkpt lat="43.6843154" lon="6.7303591"><ele>696.1666666666666</ele><time>2026-04-12T07:17:19.909Z</time></trkpt><trkpt lat="43.6843678" lon="6.7302549"><ele>696.0</ele><time>2026-04-12T07:17:21.914Z</time></trkpt><trkpt lat="43.6844138" lon="6.7301567"><ele>699.6666666666666</ele><time>2026-04-12T07:17:23.887Z</time></trkpt><trkpt lat="43.6844684" lon="6.7300564"><ele>703.3333333333334</ele><time>2026-04-12T07:17:25.927Z</time></trkpt><trkpt lat="43.6845249" lon="6.7299577"><ele>707.0</ele><time>2026-04-12T07:17:27.93Z</time></trkpt><trkpt lat="43.6845748" lon="6.7298591"><ele>710.6666666666667</ele><time>2026-04-12T07:17:29.921Z</time></trkpt><trkpt lat="43.6846208" lon="6.7297671"><ele>714.3333333333334</ele><time>2026-04-12T07:17:31.905Z</time></trkpt><trkpt lat="43.6846721" lon="6.7296685"><ele>718.0</ele><time>2026-04-12T07:17:33.926Z</time></trkpt><trkpt lat="43.6847219" lon="6.7295747"><ele>718.0</ele><time>2026-04-12T07:17:35.917Z</time></trkpt><trkpt lat="43.6847641" lon="6.7294877"><ele>718.0</ele><time>2026-04-12T07:17:37.92Z</time></trkpt><trkpt lat="43.6848156" lon="6.7293933"><ele>718.0</ele><time>2026-04-12T07:17:39.909Z</time></trkpt><trkpt lat="43.684864" lon="6.729304"><ele>718.0</ele><time>2026-04-12T07:17:41.935Z</time></trkpt><trkpt lat="43.6849132" lon="6.7292182"><ele>718.0</ele><time>2026-04-12T07:17:43.913Z</time></trkpt><trkpt lat="43.6849635" lon="6.7291366"><ele>718.0</ele><time>2026-04-12T07:17:45.879Z</time></trkpt><trkpt lat="43.6850241" lon="6.7290628"><ele>716.8333333333334</ele><time>2026-04-12T07:17:47.935Z</time></trkpt><trkpt lat="43.6850813" lon="6.7289861"><ele>715.6666666666667</ele><time>2026-04-12T07:17:49.899Z</time></trkpt><trkpt lat="43.6851341" lon="6.7289074"><ele>714.5</ele><time>2026-04-12T07:17:51.919Z</time></trkpt><trkpt lat="43.6851866" lon="6.7288313"><ele>713.3333333333334</ele><time>2026-04-12T07:17:53.912Z</time></trkpt><trkpt lat="43.6852436" lon="6.7287464"><ele>712.1666666666666</ele><time>2026-04-12T07:17:55.91Z</time></trkpt><trkpt lat="43.6853" lon="6.7286723"><ele>711.0</ele><time>2026-04-12T07:17:57.918Z</time></trkpt><trkpt lat="43.6853572" lon="6.7286012"><ele>712.0</ele><time>2026-04-12T07:17:59.911Z</time></trkpt><trkpt lat="43.6854141" lon="6.7285166"><ele>713.0</ele><time>2026-04-12T07:18:01.915Z</time></trkpt><trkpt lat="43.6854699" lon="6.7284413"><ele>714.0</ele><time>2026-04-12T07:18:03.908Z</time></trkpt><trkpt lat="43.6855289" lon="6.7283737"><ele>715.0</ele><time>2026-04-12T07:18:05.919Z</time></trkpt><trkpt lat="43.6856002" lon="6.7283248"><ele>716.0</ele><time>2026-04-12T07:18:07.912Z</time></trkpt><trkpt lat="43.6856737" lon="6.72828"><ele>717.0</ele><time>2026-04-12T07:18:09.872Z</time></trkpt><trkpt lat="43.6857479" lon="6.7282513"><ele>717.0</ele><time>2026-04-12T07:18:11.909Z</time></trkpt><trkpt lat="43.685827" lon="6.7282442"><ele>717.0</ele><time>2026-04-12T07:18:13.9Z</time></trkpt><trkpt lat="43.6859085" lon="6.7282428"><ele>717.0</ele><time>2026-04-12T07:18:15.924Z</time></trkpt><trkpt lat="43.6859938" lon="6.7282372"><ele>717.0</ele><time>2026-04-12T07:18:17.9Z</time></trkpt><trkpt lat="43.6860722" lon="6.7282382"><ele>717.0</ele><time>2026-04-12T07:18:19.925Z</time></trkpt><trkpt lat="43.6861473" lon="6.7282331"><ele>717.0</ele><time>2026-04-12T07:18:21.926Z</time></trkpt><trkpt lat="43.6862196" lon="6.7282197"><ele>718.8571428571429</ele><time>2026-04-12T07:18:23.906Z</time></trkpt><trkpt lat="43.6862889" lon="6.7281955"><ele>720.7142857142857</ele><time>2026-04-12T07:18:25.909Z</time></trkpt><trkpt lat="43.6863596" lon="6.728177"><ele>722.5714285714287</ele><time>2026-04-12T07:18:27.912Z</time></trkpt><trkpt lat="43.6864252" lon="6.7281609"><ele>724.4285714285714</ele><time>2026-04-12T07:18:29.924Z</time></trkpt><trkpt lat="43.686495" lon="6.7281107"><ele>726.2857142857143</ele><time>2026-04-12T07:18:31.919Z</time></trkpt><trkpt lat="43.6865479" lon="6.7280528"><ele>728.1428571428572</ele><time>2026-04-12T07:18:33.91Z</time></trkpt><trkpt lat="43.6866136" lon="6.7279765"><ele>730.0</ele><time>2026-04-12T07:18:35.908Z</time></trkpt><trkpt lat="43.6866718" lon="6.7278979"><ele>730.0</ele><time>2026-04-12T07:18:37.929Z</time></trkpt><trkpt lat="43.6867194" lon="6.7278049"><ele>730.0</ele><time>2026-04-12T07:18:39.912Z</time></trkpt><trkpt lat="43.6867953" lon="6.7277313"><ele>730.0</ele><time>2026-04-12T07:18:41.916Z</time></trkpt><trkpt lat="43.6868832" lon="6.7276356"><ele>730.0</ele><time>2026-04-12T07:18:43.911Z</time></trkpt><trkpt lat="43.6869862" lon="6.7275436"><ele>730.0</ele><time>2026-04-12T07:18:45.925Z</time></trkpt><trkpt lat="43.6870957" lon="6.7274536"><ele>730.6</ele><time>2026-04-12T07:18:47.925Z</time></trkpt><trkpt lat="43.6871512" lon="6.7274096"><ele>731.2</ele><time>2026-04-12T07:18:48.929Z</time></trkpt><trkpt lat="43.6872612" lon="6.7273187"><ele>731.8</ele><time>2026-04-12T07:18:50.914Z</time></trkpt><trkpt lat="43.6873637" lon="6.7272303"><ele>732.4</ele><time>2026-04-12T07:18:52.932Z</time></trkpt><trkpt lat="43.6874609" lon="6.7271432"><ele>733.0</ele><time>2026-04-12T07:18:54.934Z</time></trkpt><trkpt lat="43.6875525" lon="6.7270634"><ele>733.0</ele><time>2026-04-12T07:18:56.897Z</time></trkpt><trkpt lat="43.6876489" lon="6.7270021"><ele>733.0</ele><time>2026-04-12T07:18:58.871Z</time></trkpt><trkpt lat="43.6877408" lon="6.7269467"><ele>733.0</ele><time>2026-04-12T07:19:00.911Z</time></trkpt><trkpt lat="43.6878429" lon="6.7268885"><ele>733.0</ele><time>2026-04-12T07:19:02.921Z</time></trkpt><trkpt lat="43.6879489" lon="6.726825"><ele>733.0</ele><time>2026-04-12T07:19:04.939Z</time></trkpt><trkpt lat="43.6880678" lon="6.7267738"><ele>732.6666666666667</ele><time>2026-04-12T07:19:06.929Z</time></trkpt><trkpt lat="43.6881316" lon="6.726754"><ele>732.3333333333334</ele><time>2026-04-12T07:19:07.905Z</time></trkpt><trkpt lat="43.6881958" lon="6.7267393"><ele>732.0</ele><time>2026-04-12T07:19:08.922Z</time></trkpt><trkpt lat="43.6882645" lon="6.7267293"><ele>731.6666666666666</ele><time>2026-04-12T07:19:09.927Z</time></trkpt><trkpt lat="43.6883274" lon="6.7267233"><ele>731.3333333333333</ele><time>2026-04-12T07:19:10.939Z</time></trkpt><trkpt lat="43.6884524" lon="6.7267053"><ele>731.0</ele><time>2026-04-12T07:19:12.913Z</time></trkpt><trkpt lat="43.6885148" lon="6.7266913"><ele>731.0</ele><time>2026-04-12T07:19:13.923Z</time></trkpt><trkpt lat="43.6885791" lon="6.7266868"><ele>731.0</ele><time>2026-04-12T07:19:14.908Z</time></trkpt><trkpt lat="43.6886425" lon="6.7266844"><ele>731.0</ele><time>2026-04-12T07:19:15.927Z</time></trkpt><trkpt lat="43.6887098" lon="6.7266869"><ele>731.0</ele><time>2026-04-12T07:19:16.918Z</time></trkpt><trkpt lat="43.6887768" lon="6.7266929"><ele>731.0</ele><time>2026-04-12T07:19:17.938Z</time></trkpt><trkpt lat="43.688841" lon="6.7267027"><ele>731.0</ele><time>2026-04-12T07:19:18.916Z</time></trkpt><trkpt lat="43.6889055" lon="6.7267148"><ele>731.0</ele><time>2026-04-12T07:19:19.922Z</time></trkpt><trkpt lat="43.6889703" lon="6.7267278"><ele>732.8</ele><time>2026-04-12T07:19:20.915Z</time></trkpt><trkpt lat="43.6890353" lon="6.7267443"><ele>734.5999999999999</ele><time>2026-04-12T07:19:21.94Z</time></trkpt><trkpt lat="43.6891603" lon="6.7267714"><ele>736.4</ele><time>2026-04-12T07:19:23.895Z</time></trkpt><trkpt lat="43.6892833" lon="6.7267911"><ele>738.2</ele><time>2026-04-12T07:19:25.868Z</time></trkpt><trkpt lat="43.689402" lon="6.7267893"><ele>740.0</ele><time>2026-04-12T07:19:27.919Z</time></trkpt><trkpt lat="43.6895033" lon="6.7267443"><ele>744.4</ele><time>2026-04-12T07:19:29.913Z</time></trkpt><trkpt lat="43.6895707" lon="6.7266391"><ele>748.8</ele><time>2026-04-12T07:19:31.928Z</time></trkpt><trkpt lat="43.6895704" lon="6.7265052"><ele>753.2</ele><time>2026-04-12T07:19:33.918Z</time></trkpt><trkpt lat="43.6895302" lon="6.7263596"><ele>757.6</ele><time>2026-04-12T07:19:35.891Z</time></trkpt><trkpt lat="43.6894979" lon="6.7262335"><ele>762.0</ele><time>2026-04-12T07:19:37.916Z</time></trkpt><trkpt lat="43.6894738" lon="6.7261015"><ele>761.2</ele><time>2026-04-12T07:19:39.87Z</time></trkpt><trkpt lat="43.6894552" lon="6.7259684"><ele>760.4000000000001</ele><time>2026-04-12T07:19:41.929Z</time></trkpt><trkpt lat="43.6894516" lon="6.7258365"><ele>759.5999999999999</ele><time>2026-04-12T07:19:43.907Z</time></trkpt><trkpt lat="43.6894814" lon="6.7257057"><ele>758.8</ele><time>2026-04-12T07:19:45.936Z</time></trkpt><trkpt lat="43.6895389" lon="6.7255974"><ele>758.0</ele><time>2026-04-12T07:19:47.926Z</time></trkpt><trkpt lat="43.6896141" lon="6.7254942"><ele>758.0</ele><time>2026-04-12T07:19:49.923Z</time></trkpt><trkpt lat="43.6897153" lon="6.725403"><ele>758.0</ele><time>2026-04-12T07:19:51.909Z</time></trkpt><trkpt lat="43.6897669" lon="6.7253519"><ele>758.0</ele><time>2026-04-12T07:19:52.871Z</time></trkpt><trkpt lat="43.6898217" lon="6.7253025"><ele>758.0</ele><time>2026-04-12T07:19:53.929Z</time></trkpt><trkpt lat="43.6898822" lon="6.7252519"><ele>758.0</ele><time>2026-04-12T07:19:54.925Z</time></trkpt><trkpt lat="43.6899494" lon="6.725203"><ele>758.0</ele><time>2026-04-12T07:19:55.917Z</time></trkpt><trkpt lat="43.6900227" lon="6.7251601"><ele>756.3333333333333</ele><time>2026-04-12T07:19:56.879Z</time></trkpt><trkpt lat="43.6900923" lon="6.7251214"><ele>754.6666666666666</ele><time>2026-04-12T07:19:57.916Z</time></trkpt><trkpt lat="43.6901635" lon="6.7250737"><ele>753.0</ele><time>2026-04-12T07:19:58.876Z</time></trkpt><trkpt lat="43.6902019" lon="6.7249701"><ele>751.3333333333334</ele><time>2026-04-12T07:19:59.894Z</time></trkpt><trkpt lat="43.6901882" lon="6.7248463"><ele>749.6666666666667</ele><time>2026-04-12T07:20:00.923Z</time></trkpt><trkpt lat="43.6901391" lon="6.7247461"><ele>748.0</ele><time>2026-04-12T07:20:01.914Z</time></trkpt><trkpt lat="43.690081" lon="6.7246676"><ele>748.0</ele><time>2026-04-12T07:20:02.862Z</time></trkpt><trkpt lat="43.6900243" lon="6.7246084"><ele>748.0</ele><time>2026-04-12T07:20:03.872Z</time></trkpt><trkpt lat="43.6899629" lon="6.7245543"><ele>748.0</ele><time>2026-04-12T07:20:04.922Z</time></trkpt><trkpt lat="43.689897" lon="6.7244961"><ele>748.0</ele><time>2026-04-12T07:20:05.89Z</time></trkpt><trkpt lat="43.6898429" lon="6.724444"><ele>748.0</ele><time>2026-04-12T07:20:06.899Z</time></trkpt><trkpt lat="43.6897382" lon="6.7243669"><ele>748.0</ele><time>2026-04-12T07:20:08.89Z</time></trkpt><trkpt lat="43.6896414" lon="6.724323"><ele>750.0</ele><time>2026-04-12T07:20:10.905Z</time></trkpt><trkpt lat="43.6895533" lon="6.7242851"><ele>752.0</ele><time>2026-04-12T07:20:12.912Z</time></trkpt><trkpt lat="43.6894869" lon="6.7242054"><ele>754.0</ele><time>2026-04-12T07:20:14.898Z</time></trkpt><trkpt lat="43.6894561" lon="6.7240931"><ele>756.0</ele><time>2026-04-12T07:20:16.915Z</time></trkpt><trkpt lat="43.6894537" lon="6.7239553"><ele>758.0</ele><time>2026-04-12T07:20:18.882Z</time></trkpt><trkpt lat="43.6894738" lon="6.7238017"><ele>758.0</ele><time>2026-04-12T07:20:20.917Z</time></trkpt><trkpt lat="43.6894989" lon="6.7236451"><ele>758.0</ele><time>2026-04-12T07:20:22.921Z</time></trkpt><trkpt lat="43.6895329" lon="6.7234886"><ele>758.0</ele><time>2026-04-12T07:20:24.897Z</time></trkpt><trkpt lat="43.6895814" lon="6.7233416"><ele>758.0</ele><time>2026-04-12T07:20:26.912Z</time></trkpt><trkpt lat="43.6896383" lon="6.723202"><ele>758.4</ele><time>2026-04-12T07:20:28.935Z</time></trkpt><trkpt lat="43.6897051" lon="6.7230873"><ele>758.8</ele><time>2026-04-12T07:20:30.912Z</time></trkpt><trkpt lat="43.6897914" lon="6.7229938"><ele>759.2</ele><time>2026-04-12T07:20:32.922Z</time></trkpt><trkpt lat="43.6898617" lon="6.7229022"><ele>759.6</ele><time>2026-04-12T07:20:34.895Z</time></trkpt><trkpt lat="43.6899326" lon="6.7228084"><ele>760.0</ele><time>2026-04-12T07:20:36.925Z</time></trkpt><trkpt lat="43.6900016" lon="6.7227095"><ele>758.6</ele><time>2026-04-12T07:20:38.928Z</time></trkpt><trkpt lat="43.6900708" lon="6.7226137"><ele>757.2</ele><time>2026-04-12T07:20:40.915Z</time></trkpt><trkpt lat="43.6901475" lon="6.7225329"><ele>755.8</ele><time>2026-04-12T07:20:42.919Z</time></trkpt><trkpt lat="43.690228" lon="6.7224482"><ele>754.4</ele><time>2026-04-12T07:20:44.92Z</time></trkpt><trkpt lat="43.690304" lon="6.7223606"><ele>753.0</ele><time>2026-04-12T07:20:46.905Z</time></trkpt><trkpt lat="43.6903902" lon="6.7222817"><ele>754.4</ele><time>2026-04-12T07:20:48.922Z</time></trkpt><trkpt lat="43.6904758" lon="6.722197"><ele>755.8</ele><time>2026-04-12T07:20:50.884Z</time></trkpt><trkpt lat="43.6905498" lon="6.7221129"><ele>757.2</ele><time>2026-04-12T07:20:52.915Z</time></trkpt><trkpt lat="43.6906268" lon="6.7220357"><ele>758.6</ele><time>2026-04-12T07:20:54.911Z</time></trkpt><trkpt lat="43.6907013" lon="6.7219589"><ele>760.0</ele><time>2026-04-12T07:20:56.916Z</time></trkpt><trkpt lat="43.6907703" lon="6.7218801"><ele>760.0</ele><time>2026-04-12T07:20:58.892Z</time></trkpt><trkpt lat="43.6908378" lon="6.7217909"><ele>760.0</ele><time>2026-04-12T07:21:00.901Z</time></trkpt><trkpt lat="43.6909046" lon="6.7216981"><ele>760.0</ele><time>2026-04-12T07:21:02.911Z</time></trkpt><trkpt lat="43.6909676" lon="6.7216026"><ele>760.0</ele><time>2026-04-12T07:21:04.916Z</time></trkpt><trkpt lat="43.6910299" lon="6.7215074"><ele>760.0</ele><time>2026-04-12T07:21:06.902Z</time></trkpt><trkpt lat="43.6910887" lon="6.7214078"><ele>762.3333333333334</ele><time>2026-04-12T07:21:08.907Z</time></trkpt><trkpt lat="43.6911507" lon="6.7213208"><ele>764.6666666666667</ele><time>2026-04-12T07:21:10.909Z</time></trkpt><trkpt lat="43.691211" lon="6.7212387"><ele>767.0</ele><time>2026-04-12T07:21:12.916Z</time></trkpt><trkpt lat="43.691285" lon="6.7211742"><ele>769.3333333333334</ele><time>2026-04-12T07:21:14.912Z</time></trkpt><trkpt lat="43.691348" lon="6.7211207"><ele>771.6666666666666</ele><time>2026-04-12T07:21:16.933Z</time></trkpt><trkpt lat="43.6914166" lon="6.7210757"><ele>774.0</ele><time>2026-04-12T07:21:18.905Z</time></trkpt><trkpt lat="43.6914838" lon="6.7210656"><ele>775.5</ele><time>2026-04-12T07:21:20.917Z</time></trkpt><trkpt lat="43.6914756" lon="6.7211824"><ele>777.0</ele><time>2026-04-12T07:21:23.904Z</time></trkpt><trkpt lat="43.6914138" lon="6.721242"><ele>778.5</ele><time>2026-04-12T07:21:25.912Z</time></trkpt><trkpt lat="43.6913461" lon="6.7213099"><ele>780.0</ele><time>2026-04-12T07:21:27.919Z</time></trkpt><trkpt lat="43.6912923" lon="6.7213954"><ele>781.5</ele><time>2026-04-12T07:21:29.917Z</time></trkpt><trkpt lat="43.6912381" lon="6.7214871"><ele>783.0</ele><time>2026-04-12T07:21:31.903Z</time></trkpt><trkpt lat="43.6911931" lon="6.7215938"><ele>783.0</ele><time>2026-04-12T07:21:33.903Z</time></trkpt><trkpt lat="43.6911549" lon="6.7216999"><ele>783.0</ele><time>2026-04-12T07:21:35.887Z</time></trkpt><trkpt lat="43.6911178" lon="6.7218054"><ele>783.0</ele><time>2026-04-12T07:21:37.911Z</time></trkpt><trkpt lat="43.6910817" lon="6.7219126"><ele>783.0</ele><time>2026-04-12T07:21:39.881Z</time></trkpt><trkpt lat="43.6910434" lon="6.7220099"><ele>783.0</ele><time>2026-04-12T07:21:41.906Z</time></trkpt><trkpt lat="43.6910131" lon="6.7221155"><ele>783.0</ele><time>2026-04-12T07:21:43.885Z</time></trkpt><trkpt lat="43.6909862" lon="6.7222244"><ele>782.0</ele><time>2026-04-12T07:21:45.914Z</time></trkpt><trkpt lat="43.6909621" lon="6.7223391"><ele>781.0</ele><time>2026-04-12T07:21:47.914Z</time></trkpt><trkpt lat="43.6909269" lon="6.722456"><ele>780.0</ele><time>2026-04-12T07:21:49.9Z</time></trkpt><trkpt lat="43.6909014" lon="6.7225748"><ele>779.0</ele><time>2026-04-12T07:21:51.907Z</time></trkpt><trkpt lat="43.6908783" lon="6.7226967"><ele>778.0</ele><time>2026-04-12T07:21:53.913Z</time></trkpt><trkpt lat="43.6908555" lon="6.7228215"><ele>777.9999999999999</ele><time>2026-04-12T07:21:55.862Z</time></trkpt><trkpt lat="43.6908238" lon="6.7229435"><ele>778.0</ele><time>2026-04-12T07:21:57.927Z</time></trkpt><trkpt lat="43.6907989" lon="6.7230567"><ele>778.0</ele><time>2026-04-12T07:21:59.888Z</time></trkpt><trkpt lat="43.6908252" lon="6.7231605"><ele>778.0</ele><time>2026-04-12T07:22:01.916Z</time></trkpt><trkpt lat="43.6908997" lon="6.7231621"><ele>777.9999999999999</ele><time>2026-04-12T07:22:03.906Z</time></trkpt><trkpt lat="43.6909502" lon="6.7230858"><ele>778.0</ele><time>2026-04-12T07:22:05.903Z</time></trkpt><trkpt lat="43.6910009" lon="6.7229869"><ele>778.0</ele><time>2026-04-12T07:22:07.896Z</time></trkpt><trkpt lat="43.691059" lon="6.7228797"><ele>778.0</ele><time>2026-04-12T07:22:09.955Z</time></trkpt><trkpt lat="43.6911198" lon="6.722774"><ele>778.0</ele><time>2026-04-12T07:22:11.915Z</time></trkpt><trkpt lat="43.6911825" lon="6.7226615"><ele>778.0</ele><time>2026-04-12T07:22:13.913Z</time></trkpt><trkpt lat="43.691246" lon="6.7225576"><ele>778.0</ele><time>2026-04-12T07:22:15.93Z</time></trkpt><trkpt lat="43.6913051" lon="6.7224545"><ele>780.5999999999999</ele><time>2026-04-12T07:22:17.911Z</time></trkpt><trkpt lat="43.691363" lon="6.7223535"><ele>783.1999999999999</ele><time>2026-04-12T07:22:19.938Z</time></trkpt><trkpt lat="43.6914202" lon="6.7222548"><ele>785.8</ele><time>2026-04-12T07:22:21.916Z</time></trkpt><trkpt lat="43.6914742" lon="6.7221495"><ele>788.4</ele><time>2026-04-12T07:22:23.887Z</time></trkpt><trkpt lat="43.6915301" lon="6.7220453"><ele>791.0</ele><time>2026-04-12T07:22:25.935Z</time></trkpt><trkpt lat="43.6915915" lon="6.7219448"><ele>789.4</ele><time>2026-04-12T07:22:27.935Z</time></trkpt><trkpt lat="43.6916561" lon="6.7218408"><ele>787.8</ele><time>2026-04-12T07:22:29.921Z</time></trkpt><trkpt lat="43.6917269" lon="6.7217329"><ele>786.1999999999999</ele><time>2026-04-12T07:22:31.933Z</time></trkpt><trkpt lat="43.6918018" lon="6.7216283"><ele>784.5999999999999</ele><time>2026-04-12T07:22:33.925Z</time></trkpt><trkpt lat="43.6918784" lon="6.7215246"><ele>783.0</ele><time>2026-04-12T07:22:35.933Z</time></trkpt><trkpt lat="43.6919528" lon="6.7214278"><ele>785.0</ele><time>2026-04-12T07:22:37.903Z</time></trkpt><trkpt lat="43.6920233" lon="6.721334"><ele>787.0</ele><time>2026-04-12T07:22:39.936Z</time></trkpt><trkpt lat="43.6920891" lon="6.7212394"><ele>789.0</ele><time>2026-04-12T07:22:41.903Z</time></trkpt><trkpt lat="43.6921581" lon="6.7211439"><ele>791.0</ele><time>2026-04-12T07:22:43.895Z</time></trkpt><trkpt lat="43.6922402" lon="6.7210621"><ele>793.0</ele><time>2026-04-12T07:22:45.925Z</time></trkpt><trkpt lat="43.6923247" lon="6.7209715"><ele>793.0</ele><time>2026-04-12T07:22:47.928Z</time></trkpt><trkpt lat="43.692415" lon="6.7208926"><ele>793.0</ele><time>2026-04-12T07:22:49.928Z</time></trkpt><trkpt lat="43.692506" lon="6.7208159"><ele>793.0</ele><time>2026-04-12T07:22:51.906Z</time></trkpt><trkpt lat="43.6925961" lon="6.7207273"><ele>793.0</ele><time>2026-04-12T07:22:53.899Z</time></trkpt><trkpt lat="43.6926604" lon="6.720604"><ele>793.0</ele><time>2026-04-12T07:22:55.941Z</time></trkpt><trkpt lat="43.6926923" lon="6.720449"><ele>793.0</ele><time>2026-04-12T07:22:57.932Z</time></trkpt><trkpt lat="43.6926769" lon="6.7203051"><ele>793.0</ele><time>2026-04-12T07:22:59.936Z</time></trkpt><trkpt lat="43.6926465" lon="6.7201641"><ele>793.0</ele><time>2026-04-12T07:23:01.889Z</time></trkpt><trkpt lat="43.6926095" lon="6.7200335"><ele>793.0</ele><time>2026-04-12T07:23:03.923Z</time></trkpt><trkpt lat="43.6925728" lon="6.719917"><ele>793.0</ele><time>2026-04-12T07:23:05.919Z</time></trkpt><trkpt lat="43.6925329" lon="6.7197795"><ele>793.4</ele><time>2026-04-12T07:23:07.914Z</time></trkpt><trkpt lat="43.6924863" lon="6.7196511"><ele>793.8</ele><time>2026-04-12T07:23:09.921Z</time></trkpt><trkpt lat="43.6924334" lon="6.7195311"><ele>794.2</ele><time>2026-04-12T07:23:11.927Z</time></trkpt><trkpt lat="43.6923674" lon="6.7194207"><ele>794.6</ele><time>2026-04-12T07:23:13.935Z</time></trkpt><trkpt lat="43.6922999" lon="6.7193166"><ele>795.0</ele><time>2026-04-12T07:23:15.924Z</time></trkpt><trkpt lat="43.692226" lon="6.7192264"><ele>794.6</ele><time>2026-04-12T07:23:17.9Z</time></trkpt><trkpt lat="43.6921514" lon="6.7191318"><ele>794.2</ele><time>2026-04-12T07:23:19.936Z</time></trkpt><trkpt lat="43.6920861" lon="6.7190282"><ele>793.8</ele><time>2026-04-12T07:23:21.921Z</time></trkpt><trkpt lat="43.692016" lon="6.7189245"><ele>793.4</ele><time>2026-04-12T07:23:23.939Z</time></trkpt><trkpt lat="43.6919532" lon="6.7188202"><ele>793.0</ele><time>2026-04-12T07:23:25.906Z</time></trkpt><trkpt lat="43.6918983" lon="6.718711"><ele>793.0</ele><time>2026-04-12T07:23:27.932Z</time></trkpt><trkpt lat="43.691859" lon="6.7185906"><ele>793.0</ele><time>2026-04-12T07:23:29.912Z</time></trkpt><trkpt lat="43.6918204" lon="6.7184743"><ele>793.0</ele><time>2026-04-12T07:23:31.943Z</time></trkpt><trkpt lat="43.6917826" lon="6.7183489"><ele>793.0</ele><time>2026-04-12T07:23:33.903Z</time></trkpt><trkpt lat="43.6917461" lon="6.7182407"><ele>793.0</ele><time>2026-04-12T07:23:35.926Z</time></trkpt><trkpt lat="43.6917125" lon="6.7181151"><ele>794.8</ele><time>2026-04-12T07:23:37.929Z</time></trkpt><trkpt lat="43.6916754" lon="6.7179817"><ele>796.5999999999999</ele><time>2026-04-12T07:23:39.937Z</time></trkpt><trkpt lat="43.6916558" lon="6.7178438"><ele>798.4000000000001</ele><time>2026-04-12T07:23:41.926Z</time></trkpt><trkpt lat="43.6916494" lon="6.7177104"><ele>800.2</ele><time>2026-04-12T07:23:43.943Z</time></trkpt><trkpt lat="43.6916475" lon="6.7175766"><ele>802.0</ele><time>2026-04-12T07:23:45.926Z</time></trkpt><trkpt lat="43.6916554" lon="6.7174331"><ele>802.6</ele><time>2026-04-12T07:23:47.902Z</time></trkpt><trkpt lat="43.6916841" lon="6.7172829"><ele>803.2</ele><time>2026-04-12T07:23:49.937Z</time></trkpt><trkpt lat="43.6917282" lon="6.7171318"><ele>803.8</ele><time>2026-04-12T07:23:51.935Z</time></trkpt><trkpt lat="43.6917708" lon="6.7169741"><ele>804.4</ele><time>2026-04-12T07:23:53.931Z</time></trkpt><trkpt lat="43.6918007" lon="6.71689"><ele>805.0</ele><time>2026-04-12T07:23:54.917Z</time></trkpt><trkpt lat="43.6918328" lon="6.7168032"><ele>803.8333333333333</ele><time>2026-04-12T07:23:55.93Z</time></trkpt><trkpt lat="43.6918665" lon="6.7167139"><ele>802.6666666666666</ele><time>2026-04-12T07:23:56.924Z</time></trkpt><trkpt lat="43.6919027" lon="6.7166188"><ele>801.5</ele><time>2026-04-12T07:23:57.919Z</time></trkpt><trkpt lat="43.6919462" lon="6.7165239"><ele>800.3333333333333</ele><time>2026-04-12T07:23:58.902Z</time></trkpt><trkpt lat="43.6919938" lon="6.7164276"><ele>799.1666666666666</ele><time>2026-04-12T07:23:59.936Z</time></trkpt><trkpt lat="43.6920423" lon="6.7163375"><ele>798.0</ele><time>2026-04-12T07:24:00.929Z</time></trkpt><trkpt lat="43.6920916" lon="6.7162451"><ele>800.1666666666666</ele><time>2026-04-12T07:24:01.926Z</time></trkpt><trkpt lat="43.6921446" lon="6.7161585"><ele>802.3333333333333</ele><time>2026-04-12T07:24:02.922Z</time></trkpt><trkpt lat="43.6922001" lon="6.7160605"><ele>804.5</ele><time>2026-04-12T07:24:03.905Z</time></trkpt><trkpt lat="43.6922505" lon="6.7159697"><ele>806.6666666666666</ele><time>2026-04-12T07:24:04.928Z</time></trkpt><trkpt lat="43.6922986" lon="6.7158737"><ele>808.8333333333333</ele><time>2026-04-12T07:24:05.873Z</time></trkpt><trkpt lat="43.6923424" lon="6.7157783"><ele>811.0</ele><time>2026-04-12T07:24:06.937Z</time></trkpt><trkpt lat="43.6923804" lon="6.7156771"><ele>810.9999999999999</ele><time>2026-04-12T07:24:07.924Z</time></trkpt><trkpt lat="43.6924082" lon="6.7155662"><ele>811.0</ele><time>2026-04-12T07:24:08.934Z</time></trkpt><trkpt lat="43.692433" lon="6.7154594"><ele>811.0</ele><time>2026-04-12T07:24:09.928Z</time></trkpt><trkpt lat="43.6924524" lon="6.7153568"><ele>811.0</ele><time>2026-04-12T07:24:10.935Z</time></trkpt><trkpt lat="43.6924609" lon="6.7152525"><ele>810.9999999999999</ele><time>2026-04-12T07:24:11.931Z</time></trkpt><trkpt lat="43.6924553" lon="6.7151469"><ele>811.0</ele><time>2026-04-12T07:24:12.919Z</time></trkpt><trkpt lat="43.6924314" lon="6.7150444"><ele>810.3333333333333</ele><time>2026-04-12T07:24:13.933Z</time></trkpt><trkpt lat="43.6923801" lon="6.714971"><ele>809.6666666666666</ele><time>2026-04-12T07:24:14.925Z</time></trkpt><trkpt lat="43.6923278" lon="6.7148955"><ele>809.0</ele><time>2026-04-12T07:24:15.927Z</time></trkpt><trkpt lat="43.6923081" lon="6.7148079"><ele>808.3333333333333</ele><time>2026-04-12T07:24:16.924Z</time></trkpt><trkpt lat="43.6923401" lon="6.7146452"><ele>807.6666666666666</ele><time>2026-04-12T07:24:18.908Z</time></trkpt><trkpt lat="43.6923569" lon="6.7145599"><ele>807.0</ele><time>2026-04-12T07:24:19.928Z</time></trkpt><trkpt lat="43.692404" lon="6.7144061"><ele>806.8333333333334</ele><time>2026-04-12T07:24:21.93Z</time></trkpt><trkpt lat="43.6924376" lon="6.7143084"><ele>806.6666666666667</ele><time>2026-04-12T07:24:22.928Z</time></trkpt><trkpt lat="43.6924676" lon="6.7142052"><ele>806.5</ele><time>2026-04-12T07:24:23.938Z</time></trkpt><trkpt lat="43.6924948" lon="6.7140904"><ele>806.3333333333334</ele><time>2026-04-12T07:24:24.937Z</time></trkpt><trkpt lat="43.692524" lon="6.7139758"><ele>806.1666666666667</ele><time>2026-04-12T07:24:25.917Z</time></trkpt><trkpt lat="43.6925551" lon="6.7138571"><ele>806.0</ele><time>2026-04-12T07:24:26.932Z</time></trkpt><trkpt lat="43.692577" lon="6.7137256"><ele>806.0</ele><time>2026-04-12T07:24:27.94Z</time></trkpt><trkpt lat="43.6925583" lon="6.713592"><ele>806.0</ele><time>2026-04-12T07:24:28.925Z</time></trkpt><trkpt lat="43.6924998" lon="6.713465"><ele>806.0</ele><time>2026-04-12T07:24:29.895Z</time></trkpt><trkpt lat="43.6924129" lon="6.7133683"><ele>806.0</ele><time>2026-04-12T07:24:30.924Z</time></trkpt><trkpt lat="43.692328" lon="6.7132683"><ele>806.0</ele><time>2026-04-12T07:24:31.921Z</time></trkpt><trkpt lat="43.6922364" lon="6.7131623"><ele>805.25</ele><time>2026-04-12T07:24:32.924Z</time></trkpt><trkpt lat="43.6921369" lon="6.7130479"><ele>804.5</ele><time>2026-04-12T07:24:33.914Z</time></trkpt><trkpt lat="43.6920377" lon="6.7129359"><ele>803.75</ele><time>2026-04-12T07:24:34.923Z</time></trkpt><trkpt lat="43.6919418" lon="6.7128276"><ele>803.0</ele><time>2026-04-12T07:24:35.927Z</time></trkpt><trkpt lat="43.6918494" lon="6.7127206"><ele>801.5</ele><time>2026-04-12T07:24:36.9Z</time></trkpt><trkpt lat="43.6917542" lon="6.712614"><ele>800.0</ele><time>2026-04-12T07:24:37.906Z</time></trkpt><trkpt lat="43.6916499" lon="6.7124974"><ele>798.5</ele><time>2026-04-12T07:24:38.927Z</time></trkpt><trkpt lat="43.6915528" lon="6.7123949"><ele>797.0</ele><time>2026-04-12T07:24:39.94Z</time></trkpt><trkpt lat="43.6914528" lon="6.7122878"><ele>797.0</ele><time>2026-04-12T07:24:40.887Z</time></trkpt><trkpt lat="43.6913584" lon="6.712178"><ele>797.0</ele><time>2026-04-12T07:24:41.926Z</time></trkpt><trkpt lat="43.6912614" lon="6.7120715"><ele>797.0</ele><time>2026-04-12T07:24:42.92Z</time></trkpt><trkpt lat="43.691166" lon="6.7119575"><ele>797.0</ele><time>2026-04-12T07:24:43.904Z</time></trkpt><trkpt lat="43.6910652" lon="6.7118417"><ele>796.25</ele><time>2026-04-12T07:24:44.921Z</time></trkpt><trkpt lat="43.6909655" lon="6.7117288"><ele>795.5</ele><time>2026-04-12T07:24:45.897Z</time></trkpt><trkpt lat="43.6908689" lon="6.7116158"><ele>794.75</ele><time>2026-04-12T07:24:46.903Z</time></trkpt><trkpt lat="43.6907735" lon="6.7115088"><ele>794.0</ele><time>2026-04-12T07:24:47.899Z</time></trkpt><trkpt lat="43.6906799" lon="6.7113998"><ele>794.0</ele><time>2026-04-12T07:24:48.925Z</time></trkpt><trkpt lat="43.6905909" lon="6.7112882"><ele>794.0</ele><time>2026-04-12T07:24:49.923Z</time></trkpt><trkpt lat="43.6905093" lon="6.7111778"><ele>794.0</ele><time>2026-04-12T07:24:50.937Z</time></trkpt><trkpt lat="43.6904252" lon="6.7110682"><ele>794.0</ele><time>2026-04-12T07:24:51.927Z</time></trkpt><trkpt lat="43.6903398" lon="6.7109643"><ele>793.6</ele><time>2026-04-12T07:24:52.921Z</time></trkpt><trkpt lat="43.6902501" lon="6.7108667"><ele>793.2</ele><time>2026-04-12T07:24:53.927Z</time></trkpt><trkpt lat="43.6901637" lon="6.7107738"><ele>792.8000000000001</ele><time>2026-04-12T07:24:54.921Z</time></trkpt><trkpt lat="43.6900832" lon="6.7106858"><ele>792.4000000000001</ele><time>2026-04-12T07:24:55.936Z</time></trkpt><trkpt lat="43.6900094" lon="6.7105985"><ele>792.0</ele><time>2026-04-12T07:24:56.876Z</time></trkpt><trkpt lat="43.6899361" lon="6.7105171"><ele>792.0</ele><time>2026-04-12T07:24:57.947Z</time></trkpt><trkpt lat="43.6898655" lon="6.7104328"><ele>792.0</ele><time>2026-04-12T07:24:58.887Z</time></trkpt><trkpt lat="43.6897989" lon="6.7103483"><ele>792.0</ele><time>2026-04-12T07:24:59.911Z</time></trkpt><trkpt lat="43.689735" lon="6.7102706"><ele>792.0</ele><time>2026-04-12T07:25:00.933Z</time></trkpt><trkpt lat="43.6896724" lon="6.7101971"><ele>792.0</ele><time>2026-04-12T07:25:01.878Z</time></trkpt><trkpt lat="43.6896121" lon="6.710124"><ele>792.0</ele><time>2026-04-12T07:25:02.918Z</time></trkpt><trkpt lat="43.6895468" lon="6.7100525"><ele>792.1666666666666</ele><time>2026-04-12T07:25:03.915Z</time></trkpt><trkpt lat="43.6894822" lon="6.7099794"><ele>792.3333333333333</ele><time>2026-04-12T07:25:04.916Z</time></trkpt><trkpt lat="43.6894189" lon="6.7099056"><ele>792.5</ele><time>2026-04-12T07:25:05.933Z</time></trkpt><trkpt lat="43.6893552" lon="6.7098419"><ele>792.6666666666666</ele><time>2026-04-12T07:25:06.924Z</time></trkpt><trkpt lat="43.6892921" lon="6.7097738"><ele>792.8333333333333</ele><time>2026-04-12T07:25:07.942Z</time></trkpt><trkpt lat="43.6892312" lon="6.7097085"><ele>793.0</ele><time>2026-04-12T07:25:08.918Z</time></trkpt><trkpt lat="43.6891711" lon="6.7096448"><ele>792.9999999999999</ele><time>2026-04-12T07:25:09.934Z</time></trkpt><trkpt lat="43.6891094" lon="6.7095767"><ele>793.0</ele><time>2026-04-12T07:25:10.887Z</time></trkpt><trkpt lat="43.689047" lon="6.7095045"><ele>793.0</ele><time>2026-04-12T07:25:11.938Z</time></trkpt><trkpt lat="43.6889833" lon="6.7094367"><ele>793.0</ele><time>2026-04-12T07:25:12.911Z</time></trkpt><trkpt lat="43.6889185" lon="6.7093655"><ele>792.9999999999999</ele><time>2026-04-12T07:25:13.946Z</time></trkpt><trkpt lat="43.6888533" lon="6.7092974"><ele>793.0</ele><time>2026-04-12T07:25:14.91Z</time></trkpt><trkpt lat="43.6887831" lon="6.709239"><ele>794.6666666666666</ele><time>2026-04-12T07:25:15.918Z</time></trkpt><trkpt lat="43.6887083" lon="6.7091783"><ele>796.3333333333333</ele><time>2026-04-12T07:25:16.914Z</time></trkpt><trkpt lat="43.6886359" lon="6.7091219"><ele>798.0</ele><time>2026-04-12T07:25:17.926Z</time></trkpt><trkpt lat="43.6885601" lon="6.7090716"><ele>799.6666666666667</ele><time>2026-04-12T07:25:18.928Z</time></trkpt><trkpt lat="43.6884844" lon="6.7090159"><ele>801.3333333333334</ele><time>2026-04-12T07:25:19.916Z</time></trkpt><trkpt lat="43.6884105" lon="6.7089492"><ele>803.0</ele><time>2026-04-12T07:25:20.923Z</time></trkpt><trkpt lat="43.6883375" lon="6.7088702"><ele>803.0000000000001</ele><time>2026-04-12T07:25:21.913Z</time></trkpt><trkpt lat="43.688269" lon="6.7087849"><ele>803.0</ele><time>2026-04-12T07:25:22.937Z</time></trkpt><trkpt lat="43.6882045" lon="6.7086979"><ele>803.0</ele><time>2026-04-12T07:25:23.926Z</time></trkpt><trkpt lat="43.6881435" lon="6.7086123"><ele>803.0</ele><time>2026-04-12T07:25:24.917Z</time></trkpt><trkpt lat="43.6880852" lon="6.7085287"><ele>803.0000000000001</ele><time>2026-04-12T07:25:25.941Z</time></trkpt><trkpt lat="43.6880309" lon="6.7084516"><ele>803.0</ele><time>2026-04-12T07:25:26.92Z</time></trkpt><trkpt lat="43.6879737" lon="6.7083726"><ele>803.2857142857142</ele><time>2026-04-12T07:25:27.925Z</time></trkpt><trkpt lat="43.687916" lon="6.708298"><ele>803.5714285714286</ele><time>2026-04-12T07:25:28.924Z</time></trkpt><trkpt lat="43.6878624" lon="6.7082318"><ele>803.8571428571429</ele><time>2026-04-12T07:25:29.932Z</time></trkpt><trkpt lat="43.6878119" lon="6.7081654"><ele>804.1428571428571</ele><time>2026-04-12T07:25:30.916Z</time></trkpt><trkpt lat="43.6877629" lon="6.7080948"><ele>804.4285714285714</ele><time>2026-04-12T07:25:31.93Z</time></trkpt><trkpt lat="43.6877068" lon="6.708025"><ele>804.7142857142857</ele><time>2026-04-12T07:25:32.906Z</time></trkpt><trkpt lat="43.6876538" lon="6.7079525"><ele>805.0</ele><time>2026-04-12T07:25:33.921Z</time></trkpt><trkpt lat="43.6875995" lon="6.7078868"><ele>804.9999999999999</ele><time>2026-04-12T07:25:34.924Z</time></trkpt><trkpt lat="43.6875434" lon="6.7078178"><ele>805.0</ele><time>2026-04-12T07:25:35.93Z</time></trkpt><trkpt lat="43.6874913" lon="6.7077406"><ele>805.0</ele><time>2026-04-12T07:25:36.92Z</time></trkpt><trkpt lat="43.6874338" lon="6.7076646"><ele>805.0</ele><time>2026-04-12T07:25:37.922Z</time></trkpt><trkpt lat="43.6873736" lon="6.7075833"><ele>804.9999999999999</ele><time>2026-04-12T07:25:38.929Z</time></trkpt><trkpt lat="43.6873071" lon="6.7074934"><ele>805.0</ele><time>2026-04-12T07:25:39.9Z</time></trkpt><trkpt lat="43.6872368" lon="6.7074039"><ele>806.2</ele><time>2026-04-12T07:25:40.924Z</time></trkpt><trkpt lat="43.6871655" lon="6.7073114"><ele>807.4</ele><time>2026-04-12T07:25:41.907Z</time></trkpt><trkpt lat="43.6870931" lon="6.70722"><ele>808.5999999999999</ele><time>2026-04-12T07:25:42.937Z</time></trkpt><trkpt lat="43.6870236" lon="6.7071257"><ele>809.8</ele><time>2026-04-12T07:25:43.934Z</time></trkpt><trkpt lat="43.6869589" lon="6.7070277"><ele>811.0</ele><time>2026-04-12T07:25:44.911Z</time></trkpt><trkpt lat="43.6868944" lon="6.7069238"><ele>808.4</ele><time>2026-04-12T07:25:45.866Z</time></trkpt><trkpt lat="43.6868472" lon="6.7068048"><ele>805.8</ele><time>2026-04-12T07:25:46.929Z</time></trkpt><trkpt lat="43.6868169" lon="6.7066771"><ele>803.1999999999999</ele><time>2026-04-12T07:25:47.913Z</time></trkpt><trkpt lat="43.6867858" lon="6.706549"><ele>800.5999999999999</ele><time>2026-04-12T07:25:48.927Z</time></trkpt><trkpt lat="43.6867381" lon="6.7064243"><ele>798.0</ele><time>2026-04-12T07:25:49.919Z</time></trkpt><trkpt lat="43.6866706" lon="6.706308"><ele>798.0</ele><time>2026-04-12T07:25:50.924Z</time></trkpt><trkpt lat="43.6865996" lon="6.7061938"><ele>798.0</ele><time>2026-04-12T07:25:51.901Z</time></trkpt><trkpt lat="43.6865241" lon="6.7060742"><ele>798.0</ele><time>2026-04-12T07:25:52.913Z</time></trkpt><trkpt lat="43.6864567" lon="6.7059546"><ele>798.0</ele><time>2026-04-12T07:25:53.872Z</time></trkpt><trkpt lat="43.6863908" lon="6.70582"><ele>800.75</ele><time>2026-04-12T07:25:54.92Z</time></trkpt><trkpt lat="43.6863163" lon="6.7056878"><ele>803.5</ele><time>2026-04-12T07:25:55.904Z</time></trkpt><trkpt lat="43.6862255" lon="6.7055795"><ele>806.25</ele><time>2026-04-12T07:25:56.933Z</time></trkpt><trkpt lat="43.6861334" lon="6.7054567"><ele>809.0</ele><time>2026-04-12T07:25:57.923Z</time></trkpt><trkpt lat="43.6860625" lon="6.7053105"><ele>804.0</ele><time>2026-04-12T07:25:58.905Z</time></trkpt><trkpt lat="43.6860002" lon="6.7051402"><ele>799.0</ele><time>2026-04-12T07:25:59.912Z</time></trkpt><trkpt lat="43.6859421" lon="6.7049697"><ele>794.0</ele><time>2026-04-12T07:26:00.908Z</time></trkpt><trkpt lat="43.6858804" lon="6.7047917"><ele>789.0</ele><time>2026-04-12T07:26:01.929Z</time></trkpt><trkpt lat="43.6858192" lon="6.7046162"><ele>789.0</ele><time>2026-04-12T07:26:02.927Z</time></trkpt><trkpt lat="43.6857588" lon="6.7044454"><ele>789.0</ele><time>2026-04-12T07:26:03.907Z</time></trkpt><trkpt lat="43.6856983" lon="6.7042638"><ele>789.0</ele><time>2026-04-12T07:26:04.927Z</time></trkpt><trkpt lat="43.6856343" lon="6.7040808"><ele>789.0</ele><time>2026-04-12T07:26:05.876Z</time></trkpt><trkpt lat="43.6855704" lon="6.7038978"><ele>786.75</ele><time>2026-04-12T07:26:06.92Z</time></trkpt><trkpt lat="43.6855033" lon="6.703715"><ele>784.5</ele><time>2026-04-12T07:26:07.918Z</time></trkpt><trkpt lat="43.6854332" lon="6.7035315"><ele>782.25</ele><time>2026-04-12T07:26:08.915Z</time></trkpt><trkpt lat="43.6853505" lon="6.7033603"><ele>780.0</ele><time>2026-04-12T07:26:09.917Z</time></trkpt><trkpt lat="43.6852506" lon="6.7032058"><ele>780.0</ele><time>2026-04-12T07:26:10.912Z</time></trkpt><trkpt lat="43.6851312" lon="6.7030821"><ele>780.0</ele><time>2026-04-12T07:26:11.937Z</time></trkpt><trkpt lat="43.6849904" lon="6.7029828"><ele>780.0</ele><time>2026-04-12T07:26:12.892Z</time></trkpt><trkpt lat="43.6848496" lon="6.7029061"><ele>780.0</ele><time>2026-04-12T07:26:13.911Z</time></trkpt><trkpt lat="43.6847092" lon="6.702828"><ele>780.0</ele><time>2026-04-12T07:26:14.904Z</time></trkpt><trkpt lat="43.6845685" lon="6.7027361"><ele>780.0</ele><time>2026-04-12T07:26:15.903Z</time></trkpt><trkpt lat="43.6844458" lon="6.7026137"><ele>777.0</ele><time>2026-04-12T07:26:16.895Z</time></trkpt><trkpt lat="43.6843376" lon="6.7024386"><ele>774.0</ele><time>2026-04-12T07:26:17.929Z</time></trkpt><trkpt lat="43.6842406" lon="6.7022514"><ele>771.0</ele><time>2026-04-12T07:26:18.894Z</time></trkpt><trkpt lat="43.6841293" lon="6.7020705"><ele>777.0</ele><time>2026-04-12T07:26:19.909Z</time></trkpt><trkpt lat="43.6840125" lon="6.7019118"><ele>783.0</ele><time>2026-04-12T07:26:20.917Z</time></trkpt><trkpt lat="43.6838796" lon="6.7017668"><ele>789.0</ele><time>2026-04-12T07:26:21.924Z</time></trkpt><trkpt lat="43.6837529" lon="6.7016156"><ele>789.0</ele><time>2026-04-12T07:26:22.89Z</time></trkpt><trkpt lat="43.6836276" lon="6.7014589"><ele>789.0</ele><time>2026-04-12T07:26:23.93Z</time></trkpt><trkpt lat="43.6835131" lon="6.7012907"><ele>789.0</ele><time>2026-04-12T07:26:24.923Z</time></trkpt><trkpt lat="43.6834216" lon="6.7010971"><ele>781.3333333333334</ele><time>2026-04-12T07:26:25.913Z</time></trkpt><trkpt lat="43.6833553" lon="6.7008799"><ele>773.6666666666667</ele><time>2026-04-12T07:26:26.915Z</time></trkpt><trkpt lat="43.683312" lon="6.7006379"><ele>766.0</ele><time>2026-04-12T07:26:27.907Z</time></trkpt><trkpt lat="43.6833008" lon="6.7003952"><ele>765.6666666666667</ele><time>2026-04-12T07:26:28.915Z</time></trkpt><trkpt lat="43.6832836" lon="6.7001511"><ele>765.3333333333334</ele><time>2026-04-12T07:26:29.921Z</time></trkpt><trkpt lat="43.6832649" lon="6.6999077"><ele>765.0</ele><time>2026-04-12T07:26:30.933Z</time></trkpt><trkpt lat="43.6832417" lon="6.6996651"><ele>765.0</ele><time>2026-04-12T07:26:31.919Z</time></trkpt><trkpt lat="43.6831955" lon="6.6994344"><ele>765.0</ele><time>2026-04-12T07:26:32.934Z</time></trkpt><trkpt lat="43.6831272" lon="6.6992125"><ele>765.0</ele><time>2026-04-12T07:26:33.9Z</time></trkpt><trkpt lat="43.6830276" lon="6.6990074"><ele>764.6666666666666</ele><time>2026-04-12T07:26:34.932Z</time></trkpt><trkpt lat="43.6829152" lon="6.6988175"><ele>764.3333333333333</ele><time>2026-04-12T07:26:35.916Z</time></trkpt><trkpt lat="43.6828074" lon="6.6986387"><ele>764.0</ele><time>2026-04-12T07:26:36.911Z</time></trkpt><trkpt lat="43.6827024" lon="6.6984492"><ele>760.3333333333333</ele><time>2026-04-12T07:26:37.922Z</time></trkpt><trkpt lat="43.6825947" lon="6.6982578"><ele>756.6666666666666</ele><time>2026-04-12T07:26:38.93Z</time></trkpt><trkpt lat="43.6824801" lon="6.6980776"><ele>753.0</ele><time>2026-04-12T07:26:39.924Z</time></trkpt><trkpt lat="43.6823608" lon="6.6979083"><ele>753.0</ele><time>2026-04-12T07:26:40.931Z</time></trkpt><trkpt lat="43.6822087" lon="6.6977732"><ele>753.0</ele><time>2026-04-12T07:26:41.935Z</time></trkpt><trkpt lat="43.6820512" lon="6.697643"><ele>753.0</ele><time>2026-04-12T07:26:42.891Z</time></trkpt><trkpt lat="43.6818894" lon="6.6975215"><ele>750.3333333333334</ele><time>2026-04-12T07:26:43.919Z</time></trkpt><trkpt lat="43.6817337" lon="6.6974084"><ele>747.6666666666667</ele><time>2026-04-12T07:26:44.929Z</time></trkpt><trkpt lat="43.6815765" lon="6.697283"><ele>745.0</ele><time>2026-04-12T07:26:45.906Z</time></trkpt><trkpt lat="43.6814238" lon="6.697158"><ele>745.0</ele><time>2026-04-12T07:26:46.884Z</time></trkpt><trkpt lat="43.6812755" lon="6.6970401"><ele>745.0</ele><time>2026-04-12T07:26:47.92Z</time></trkpt><trkpt lat="43.6811252" lon="6.69692"><ele>745.0</ele><time>2026-04-12T07:26:48.93Z</time></trkpt><trkpt lat="43.6809703" lon="6.6968038"><ele>741.3333333333334</ele><time>2026-04-12T07:26:49.911Z</time></trkpt><trkpt lat="43.6808279" lon="6.6966942"><ele>737.6666666666666</ele><time>2026-04-12T07:26:50.917Z</time></trkpt><trkpt lat="43.6806892" lon="6.6965989"><ele>734.0</ele><time>2026-04-12T07:26:51.911Z</time></trkpt><trkpt lat="43.6805419" lon="6.6965329"><ele>734.0</ele><time>2026-04-12T07:26:52.913Z</time></trkpt><trkpt lat="43.6803895" lon="6.696514"><ele>734.0</ele><time>2026-04-12T07:26:53.906Z</time></trkpt><trkpt lat="43.6802472" lon="6.6965538"><ele>734.0</ele><time>2026-04-12T07:26:54.919Z</time></trkpt><trkpt lat="43.680104" lon="6.6966084"><ele>734.0</ele><time>2026-04-12T07:26:55.876Z</time></trkpt><trkpt lat="43.6799741" lon="6.6966481"><ele>732.6</ele><time>2026-04-12T07:26:56.938Z</time></trkpt><trkpt lat="43.6798614" lon="6.6966256"><ele>731.2</ele><time>2026-04-12T07:26:57.913Z</time></trkpt><trkpt lat="43.6797852" lon="6.6965402"><ele>729.8000000000001</ele><time>2026-04-12T07:26:58.905Z</time></trkpt><trkpt lat="43.6797439" lon="6.6964046"><ele>728.4000000000001</ele><time>2026-04-12T07:26:59.907Z</time></trkpt><trkpt lat="43.6797596" lon="6.6962576"><ele>727.0</ele><time>2026-04-12T07:27:00.901Z</time></trkpt><trkpt lat="43.67983" lon="6.6961305"><ele>726.25</ele><time>2026-04-12T07:27:01.903Z</time></trkpt><trkpt lat="43.6799192" lon="6.6960196"><ele>725.5</ele><time>2026-04-12T07:27:02.923Z</time></trkpt><trkpt lat="43.6800191" lon="6.6959118"><ele>724.75</ele><time>2026-04-12T07:27:03.923Z</time></trkpt><trkpt lat="43.6801261" lon="6.6958069"><ele>724.0</ele><time>2026-04-12T07:27:04.913Z</time></trkpt><trkpt lat="43.6802389" lon="6.695701"><ele>724.75</ele><time>2026-04-12T07:27:05.921Z</time></trkpt><trkpt lat="43.6803531" lon="6.6956015"><ele>725.5</ele><time>2026-04-12T07:27:06.94Z</time></trkpt><trkpt lat="43.6804768" lon="6.6955198"><ele>726.25</ele><time>2026-04-12T07:27:07.914Z</time></trkpt><trkpt lat="43.6806091" lon="6.6954527"><ele>727.0</ele><time>2026-04-12T07:27:08.912Z</time></trkpt><trkpt lat="43.6807453" lon="6.6953736"><ele>724.5</ele><time>2026-04-12T07:27:09.914Z</time></trkpt><trkpt lat="43.6808688" lon="6.6952529"><ele>722.0</ele><time>2026-04-12T07:27:10.911Z</time></trkpt><trkpt lat="43.6809707" lon="6.6951111"><ele>719.5</ele><time>2026-04-12T07:27:11.947Z</time></trkpt><trkpt lat="43.6810693" lon="6.6949878"><ele>717.0</ele><time>2026-04-12T07:27:12.935Z</time></trkpt><trkpt lat="43.6811969" lon="6.6949193"><ele>716.75</ele><time>2026-04-12T07:27:13.91Z</time></trkpt><trkpt lat="43.6813367" lon="6.6949265"><ele>716.5</ele><time>2026-04-12T07:27:14.92Z</time></trkpt><trkpt lat="43.6814737" lon="6.6949882"><ele>716.25</ele><time>2026-04-12T07:27:15.92Z</time></trkpt><trkpt lat="43.6816041" lon="6.6950467"><ele>716.0</ele><time>2026-04-12T07:27:16.921Z</time></trkpt><trkpt lat="43.681729" lon="6.695105"><ele>716.0</ele><time>2026-04-12T07:27:17.913Z</time></trkpt><trkpt lat="43.6818433" lon="6.6951048"><ele>716.0</ele><time>2026-04-12T07:27:18.926Z</time></trkpt><trkpt lat="43.6819474" lon="6.6950318"><ele>716.0</ele><time>2026-04-12T07:27:19.913Z</time></trkpt><trkpt lat="43.6820228" lon="6.6948854"><ele>716.0</ele><time>2026-04-12T07:27:20.894Z</time></trkpt><trkpt lat="43.6820679" lon="6.6947166"><ele>715.25</ele><time>2026-04-12T07:27:21.918Z</time></trkpt><trkpt lat="43.6821026" lon="6.6945444"><ele>714.5</ele><time>2026-04-12T07:27:22.911Z</time></trkpt><trkpt lat="43.6821403" lon="6.6943684"><ele>713.75</ele><time>2026-04-12T07:27:23.925Z</time></trkpt><trkpt lat="43.6821838" lon="6.6941906"><ele>713.0</ele><time>2026-04-12T07:27:24.931Z</time></trkpt><trkpt lat="43.6822499" lon="6.6940136"><ele>713.0</ele><time>2026-04-12T07:27:25.903Z</time></trkpt><trkpt lat="43.6823318" lon="6.6938385"><ele>713.0</ele><time>2026-04-12T07:27:26.92Z</time></trkpt><trkpt lat="43.6824157" lon="6.6936632"><ele>713.0</ele><time>2026-04-12T07:27:27.933Z</time></trkpt><trkpt lat="43.6825131" lon="6.6935098"><ele>712.0</ele><time>2026-04-12T07:27:28.931Z</time></trkpt><trkpt lat="43.6826443" lon="6.6933971"><ele>711.0</ele><time>2026-04-12T07:27:29.925Z</time></trkpt><trkpt lat="43.682792" lon="6.6933199"><ele>710.0</ele><time>2026-04-12T07:27:30.903Z</time></trkpt><trkpt lat="43.6829361" lon="6.6932435"><ele>710.0</ele><time>2026-04-12T07:27:31.91Z</time></trkpt><trkpt lat="43.683075" lon="6.6931336"><ele>710.0</ele><time>2026-04-12T07:27:32.91Z</time></trkpt><trkpt lat="43.6831961" lon="6.6929868"><ele>710.0</ele><time>2026-04-12T07:27:33.916Z</time></trkpt><trkpt lat="43.6833015" lon="6.6928185"><ele>708.75</ele><time>2026-04-12T07:27:34.891Z</time></trkpt><trkpt lat="43.6833994" lon="6.6926454"><ele>707.5</ele><time>2026-04-12T07:27:35.901Z</time></trkpt><trkpt lat="43.6834934" lon="6.6924857"><ele>706.25</ele><time>2026-04-12T07:27:36.905Z</time></trkpt><trkpt lat="43.6835941" lon="6.6923505"><ele>705.0</ele><time>2026-04-12T07:27:37.921Z</time></trkpt><trkpt lat="43.6837015" lon="6.692235"><ele>705.0</ele><time>2026-04-12T07:27:38.919Z</time></trkpt><trkpt lat="43.683799" lon="6.6921367"><ele>705.0</ele><time>2026-04-12T07:27:39.891Z</time></trkpt><trkpt lat="43.6838718" lon="6.6920241"><ele>705.0</ele><time>2026-04-12T07:27:40.924Z</time></trkpt><trkpt lat="43.6838918" lon="6.6918954"><ele>705.0</ele><time>2026-04-12T07:27:41.91Z</time></trkpt><trkpt lat="43.6838485" lon="6.6917589"><ele>705.0</ele><time>2026-04-12T07:27:42.921Z</time></trkpt><trkpt lat="43.6837813" lon="6.6916501"><ele>702.6</ele><time>2026-04-12T07:27:43.925Z</time></trkpt><trkpt lat="43.6837055" lon="6.691569"><ele>700.2</ele><time>2026-04-12T07:27:44.92Z</time></trkpt><trkpt lat="43.6836193" lon="6.6914973"><ele>697.8</ele><time>2026-04-12T07:27:45.907Z</time></trkpt><trkpt lat="43.6835226" lon="6.6914729"><ele>695.4</ele><time>2026-04-12T07:27:46.908Z</time></trkpt><trkpt lat="43.6834253" lon="6.6914682"><ele>693.0</ele><time>2026-04-12T07:27:47.913Z</time></trkpt><trkpt lat="43.6833259" lon="6.6914782"><ele>692.8333333333334</ele><time>2026-04-12T07:27:48.915Z</time></trkpt><trkpt lat="43.683237" lon="6.6915017"><ele>692.6666666666666</ele><time>2026-04-12T07:27:49.909Z</time></trkpt><trkpt lat="43.6831533" lon="6.6915287"><ele>692.5</ele><time>2026-04-12T07:27:50.906Z</time></trkpt><trkpt lat="43.6830788" lon="6.6915644"><ele>692.3333333333333</ele><time>2026-04-12T07:27:51.92Z</time></trkpt><trkpt lat="43.6830135" lon="6.6915941"><ele>692.1666666666666</ele><time>2026-04-12T07:27:52.887Z</time></trkpt><trkpt lat="43.682944" lon="6.6916034"><ele>692.0</ele><time>2026-04-12T07:27:53.925Z</time></trkpt><trkpt lat="43.682871" lon="6.6915875"><ele>692.0</ele><time>2026-04-12T07:27:54.921Z</time></trkpt><trkpt lat="43.6828124" lon="6.6915402"><ele>692.0</ele><time>2026-04-12T07:27:55.915Z</time></trkpt><trkpt lat="43.6827617" lon="6.6914828"><ele>692.0</ele><time>2026-04-12T07:27:56.911Z</time></trkpt><trkpt lat="43.6826754" lon="6.6913699"><ele>692.0</ele><time>2026-04-12T07:27:58.885Z</time></trkpt><trkpt lat="43.6826017" lon="6.6912604"><ele>692.0</ele><time>2026-04-12T07:28:00.905Z</time></trkpt><trkpt lat="43.6825339" lon="6.6911481"><ele>696.8</ele><time>2026-04-12T07:28:02.883Z</time></trkpt><trkpt lat="43.6824541" lon="6.6910519"><ele>701.6</ele><time>2026-04-12T07:28:04.931Z</time></trkpt><trkpt lat="43.6823635" lon="6.6909809"><ele>706.4</ele><time>2026-04-12T07:28:06.933Z</time></trkpt><trkpt lat="43.6822678" lon="6.690935"><ele>711.1999999999999</ele><time>2026-04-12T07:28:08.91Z</time></trkpt><trkpt lat="43.6821728" lon="6.6909092"><ele>716.0</ele><time>2026-04-12T07:28:10.916Z</time></trkpt><trkpt lat="43.6820832" lon="6.6908722"><ele>716.0</ele><time>2026-04-12T07:28:12.912Z</time></trkpt><trkpt lat="43.6819891" lon="6.6908566"><ele>716.0</ele><time>2026-04-12T07:28:14.922Z</time></trkpt><trkpt lat="43.6818962" lon="6.6908498"><ele>716.0</ele><time>2026-04-12T07:28:16.928Z</time></trkpt><trkpt lat="43.681807" lon="6.6908422"><ele>716.0</ele><time>2026-04-12T07:28:18.926Z</time></trkpt><trkpt lat="43.6817105" lon="6.6908396"><ele>716.0</ele><time>2026-04-12T07:28:20.93Z</time></trkpt><trkpt lat="43.6816177" lon="6.6908542"><ele>715.5</ele><time>2026-04-12T07:28:22.912Z</time></trkpt><trkpt lat="43.6815271" lon="6.6908626"><ele>715.0</ele><time>2026-04-12T07:28:24.916Z</time></trkpt><trkpt lat="43.681436" lon="6.6908806"><ele>714.5</ele><time>2026-04-12T07:28:26.909Z</time></trkpt><trkpt lat="43.6813543" lon="6.6909015"><ele>714.0</ele><time>2026-04-12T07:28:28.912Z</time></trkpt><trkpt lat="43.6812706" lon="6.6909319"><ele>713.5</ele><time>2026-04-12T07:28:30.866Z</time></trkpt><trkpt lat="43.6811913" lon="6.6909682"><ele>713.0</ele><time>2026-04-12T07:28:32.912Z</time></trkpt><trkpt lat="43.6811212" lon="6.6910116"><ele>710.8</ele><time>2026-04-12T07:28:34.909Z</time></trkpt><trkpt lat="43.6810514" lon="6.691074"><ele>708.5999999999999</ele><time>2026-04-12T07:28:36.931Z</time></trkpt><trkpt lat="43.6809865" lon="6.6911626"><ele>706.4000000000001</ele><time>2026-04-12T07:28:38.917Z</time></trkpt><trkpt lat="43.680915" lon="6.6912481"><ele>704.2</ele><time>2026-04-12T07:28:40.906Z</time></trkpt><trkpt lat="43.6808479" lon="6.6913356"><ele>702.0</ele><time>2026-04-12T07:28:42.931Z</time></trkpt><trkpt lat="43.6807842" lon="6.6914224"><ele>702.0</ele><time>2026-04-12T07:28:44.918Z</time></trkpt><trkpt lat="43.6807155" lon="6.691503"><ele>702.0</ele><time>2026-04-12T07:28:46.904Z</time></trkpt><trkpt lat="43.6806464" lon="6.6915532"><ele>702.0</ele><time>2026-04-12T07:28:48.909Z</time></trkpt><trkpt lat="43.6805678" lon="6.6915813"><ele>702.0</ele><time>2026-04-12T07:28:50.898Z</time></trkpt><trkpt lat="43.6804864" lon="6.6915953"><ele>702.0</ele><time>2026-04-12T07:28:52.901Z</time></trkpt><trkpt lat="43.6804056" lon="6.691605"><ele>702.0</ele><time>2026-04-12T07:28:54.904Z</time></trkpt><trkpt lat="43.6803187" lon="6.6916284"><ele>704.6666666666666</ele><time>2026-04-12T07:28:56.889Z</time></trkpt><trkpt lat="43.6802406" lon="6.6916449"><ele>707.3333333333334</ele><time>2026-04-12T07:28:58.886Z</time></trkpt><trkpt lat="43.6801618" lon="6.691667"><ele>710.0</ele><time>2026-04-12T07:29:00.87Z</time></trkpt><trkpt lat="43.6800848" lon="6.691674"><ele>712.6666666666667</ele><time>2026-04-12T07:29:02.934Z</time></trkpt><trkpt lat="43.6799984" lon="6.6916812"><ele>715.3333333333334</ele><time>2026-04-12T07:29:04.897Z</time></trkpt><trkpt lat="43.6799192" lon="6.6916884"><ele>718.0</ele><time>2026-04-12T07:29:06.904Z</time></trkpt><trkpt lat="43.6798393" lon="6.6916905"><ele>718.0</ele><time>2026-04-12T07:29:08.905Z</time></trkpt><trkpt lat="43.6797539" lon="6.6916797"><ele>718.0</ele><time>2026-04-12T07:29:10.912Z</time></trkpt><trkpt lat="43.6796722" lon="6.6916685"><ele>718.0</ele><time>2026-04-12T07:29:12.896Z</time></trkpt><trkpt lat="43.6795912" lon="6.691643"><ele>718.0</ele><time>2026-04-12T07:29:14.931Z</time></trkpt><trkpt lat="43.6795101" lon="6.6916203"><ele>718.0</ele><time>2026-04-12T07:29:16.921Z</time></trkpt><trkpt lat="43.6794307" lon="6.6915942"><ele>718.0</ele><time>2026-04-12T07:29:18.916Z</time></trkpt><trkpt lat="43.6793478" lon="6.6915679"><ele>719.0</ele><time>2026-04-12T07:29:20.924Z</time></trkpt><trkpt lat="43.6792752" lon="6.6915305"><ele>720.0</ele><time>2026-04-12T07:29:22.9Z</time></trkpt><trkpt lat="43.6792022" lon="6.6914776"><ele>721.0</ele><time>2026-04-12T07:29:24.892Z</time></trkpt><trkpt lat="43.6791313" lon="6.6914058"><ele>722.0</ele><time>2026-04-12T07:29:26.93Z</time></trkpt><trkpt lat="43.6790644" lon="6.69132"><ele>723.0</ele><time>2026-04-12T07:29:28.926Z</time></trkpt><trkpt lat="43.6790183" lon="6.6912192"><ele>724.0</ele><time>2026-04-12T07:29:30.925Z</time></trkpt><trkpt lat="43.6789745" lon="6.6911006"><ele>725.2</ele><time>2026-04-12T07:29:32.928Z</time></trkpt><trkpt lat="43.6789509" lon="6.6909669"><ele>726.4000000000001</ele><time>2026-04-12T07:29:34.922Z</time></trkpt><trkpt lat="43.6789417" lon="6.6908349"><ele>727.6</ele><time>2026-04-12T07:29:36.908Z</time></trkpt><trkpt lat="43.6789581" lon="6.6906951"><ele>728.8</ele><time>2026-04-12T07:29:38.919Z</time></trkpt><trkpt lat="43.6789944" lon="6.6905605"><ele>730.0</ele><time>2026-04-12T07:29:40.926Z</time></trkpt><trkpt lat="43.6790339" lon="6.6904244"><ele>730.0</ele><time>2026-04-12T07:29:42.943Z</time></trkpt><trkpt lat="43.6790716" lon="6.6902972"><ele>730.0</ele><time>2026-04-12T07:29:44.932Z</time></trkpt><trkpt lat="43.6791035" lon="6.6901649"><ele>730.0</ele><time>2026-04-12T07:29:46.942Z</time></trkpt><trkpt lat="43.6791037" lon="6.6900298"><ele>730.0</ele><time>2026-04-12T07:29:48.886Z</time></trkpt><trkpt lat="43.6790829" lon="6.6898988"><ele>730.0</ele><time>2026-04-12T07:29:50.94Z</time></trkpt><trkpt lat="43.6790546" lon="6.6897584"><ele>730.4</ele><time>2026-04-12T07:29:52.917Z</time></trkpt><trkpt lat="43.678987" lon="6.6896446"><ele>730.8</ele><time>2026-04-12T07:29:54.931Z</time></trkpt><trkpt lat="43.6789111" lon="6.6895336"><ele>731.2</ele><time>2026-04-12T07:29:56.913Z</time></trkpt><trkpt lat="43.6788381" lon="6.6894258"><ele>731.6</ele><time>2026-04-12T07:29:58.909Z</time></trkpt><trkpt lat="43.6787599" lon="6.6893248"><ele>732.0</ele><time>2026-04-12T07:30:00.919Z</time></trkpt><trkpt lat="43.6786849" lon="6.6892163"><ele>733.1666666666666</ele><time>2026-04-12T07:30:02.875Z</time></trkpt><trkpt lat="43.6786146" lon="6.689098"><ele>734.3333333333334</ele><time>2026-04-12T07:30:04.928Z</time></trkpt><trkpt lat="43.6785366" lon="6.6889726"><ele>735.5</ele><time>2026-04-12T07:30:06.934Z</time></trkpt><trkpt lat="43.6784953" lon="6.6889065"><ele>736.6666666666667</ele><time>2026-04-12T07:30:07.898Z</time></trkpt><trkpt lat="43.6784552" lon="6.6888332"><ele>737.8333333333334</ele><time>2026-04-12T07:30:08.894Z</time></trkpt><trkpt lat="43.6784127" lon="6.688756"><ele>739.0</ele><time>2026-04-12T07:30:09.953Z</time></trkpt><trkpt lat="43.6783695" lon="6.6886803"><ele>737.5</ele><time>2026-04-12T07:30:10.929Z</time></trkpt><trkpt lat="43.6783272" lon="6.6885957"><ele>736.0</ele><time>2026-04-12T07:30:11.904Z</time></trkpt><trkpt lat="43.6782948" lon="6.6885059"><ele>734.5</ele><time>2026-04-12T07:30:12.933Z</time></trkpt><trkpt lat="43.6782683" lon="6.6884106"><ele>733.0</ele><time>2026-04-12T07:30:13.935Z</time></trkpt><trkpt lat="43.6782591" lon="6.688301"><ele>731.5</ele><time>2026-04-12T07:30:14.907Z</time></trkpt><trkpt lat="43.6782588" lon="6.6881883"><ele>730.0</ele><time>2026-04-12T07:30:15.907Z</time></trkpt><trkpt lat="43.6782652" lon="6.6880762"><ele>730.0</ele><time>2026-04-12T07:30:16.945Z</time></trkpt><trkpt lat="43.678275" lon="6.6879589"><ele>730.0</ele><time>2026-04-12T07:30:17.932Z</time></trkpt><trkpt lat="43.6782865" lon="6.6878439"><ele>730.0</ele><time>2026-04-12T07:30:18.92Z</time></trkpt><trkpt lat="43.6782955" lon="6.6877342"><ele>730.0</ele><time>2026-04-12T07:30:19.936Z</time></trkpt><trkpt lat="43.6783058" lon="6.6876243"><ele>730.0</ele><time>2026-04-12T07:30:20.923Z</time></trkpt><trkpt lat="43.6783142" lon="6.6875124"><ele>730.0</ele><time>2026-04-12T07:30:21.95Z</time></trkpt><trkpt lat="43.6783225" lon="6.6874093"><ele>729.8333333333334</ele><time>2026-04-12T07:30:22.928Z</time></trkpt><trkpt lat="43.6783364" lon="6.6873041"><ele>729.6666666666667</ele><time>2026-04-12T07:30:23.929Z</time></trkpt><trkpt lat="43.6783477" lon="6.6871987"><ele>729.5</ele><time>2026-04-12T07:30:24.907Z</time></trkpt><trkpt lat="43.6783641" lon="6.6870855"><ele>729.3333333333334</ele><time>2026-04-12T07:30:25.926Z</time></trkpt><trkpt lat="43.6783834" lon="6.6869731"><ele>729.1666666666666</ele><time>2026-04-12T07:30:26.929Z</time></trkpt><trkpt lat="43.6784152" lon="6.6868565"><ele>729.0</ele><time>2026-04-12T07:30:27.914Z</time></trkpt><trkpt lat="43.6784535" lon="6.6867487"><ele>729.0</ele><time>2026-04-12T07:30:28.912Z</time></trkpt><trkpt lat="43.6784952" lon="6.6866424"><ele>729.0</ele><time>2026-04-12T07:30:29.909Z</time></trkpt><trkpt lat="43.6785449" lon="6.6865402"><ele>729.0</ele><time>2026-04-12T07:30:30.915Z</time></trkpt><trkpt lat="43.6785955" lon="6.6864426"><ele>729.0</ele><time>2026-04-12T07:30:31.926Z</time></trkpt><trkpt lat="43.6786408" lon="6.6863446"><ele>729.0</ele><time>2026-04-12T07:30:32.92Z</time></trkpt><trkpt lat="43.6786842" lon="6.6862339"><ele>729.0</ele><time>2026-04-12T07:30:33.931Z</time></trkpt><trkpt lat="43.678724" lon="6.6861095"><ele>730.6666666666666</ele><time>2026-04-12T07:30:34.932Z</time></trkpt><trkpt lat="43.6787433" lon="6.6859845"><ele>732.3333333333334</ele><time>2026-04-12T07:30:35.921Z</time></trkpt><trkpt lat="43.6787491" lon="6.6858594"><ele>734.0</ele><time>2026-04-12T07:30:36.914Z</time></trkpt><trkpt lat="43.6787456" lon="6.6857335"><ele>735.6666666666667</ele><time>2026-04-12T07:30:37.933Z</time></trkpt><trkpt lat="43.6787347" lon="6.6856184"><ele>737.3333333333334</ele><time>2026-04-12T07:30:38.942Z</time></trkpt><trkpt lat="43.6787205" lon="6.6854986"><ele>739.0</ele><time>2026-04-12T07:30:39.912Z</time></trkpt><trkpt lat="43.6787039" lon="6.6853813"><ele>739.0</ele><time>2026-04-12T07:30:40.933Z</time></trkpt><trkpt lat="43.6786866" lon="6.6852598"><ele>739.0</ele><time>2026-04-12T07:30:41.894Z</time></trkpt><trkpt lat="43.6786718" lon="6.6851344"><ele>739.0</ele><time>2026-04-12T07:30:42.904Z</time></trkpt><trkpt lat="43.6786568" lon="6.6850126"><ele>739.0</ele><time>2026-04-12T07:30:43.887Z</time></trkpt><trkpt lat="43.6786416" lon="6.6848908"><ele>739.0</ele><time>2026-04-12T07:30:44.929Z</time></trkpt><trkpt lat="43.6786262" lon="6.6847671"><ele>739.0</ele><time>2026-04-12T07:30:45.897Z</time></trkpt><trkpt lat="43.6786116" lon="6.6846422"><ele>739.0</ele><time>2026-04-12T07:30:46.92Z</time></trkpt><trkpt lat="43.6785936" lon="6.6845204"><ele>739.0</ele><time>2026-04-12T07:30:47.9Z</time></trkpt><trkpt lat="43.6785773" lon="6.6844016"><ele>739.0</ele><time>2026-04-12T07:30:48.925Z</time></trkpt><trkpt lat="43.6785643" lon="6.6842781"><ele>739.0</ele><time>2026-04-12T07:30:49.926Z</time></trkpt><trkpt lat="43.6785535" lon="6.6841578"><ele>739.0</ele><time>2026-04-12T07:30:50.921Z</time></trkpt><trkpt lat="43.6785415" lon="6.6840324"><ele>737.5</ele><time>2026-04-12T07:30:51.941Z</time></trkpt><trkpt lat="43.678527" lon="6.6839094"><ele>736.0</ele><time>2026-04-12T07:30:52.933Z</time></trkpt><trkpt lat="43.6785127" lon="6.6837888"><ele>734.5</ele><time>2026-04-12T07:30:53.927Z</time></trkpt><trkpt lat="43.6784977" lon="6.6836754"><ele>733.0</ele><time>2026-04-12T07:30:54.934Z</time></trkpt><trkpt lat="43.6784792" lon="6.6835599"><ele>731.5</ele><time>2026-04-12T07:30:55.93Z</time></trkpt><trkpt lat="43.678463" lon="6.6834363"><ele>730.0</ele><time>2026-04-12T07:30:56.925Z</time></trkpt><trkpt lat="43.6784503" lon="6.6833138"><ele>730.0</ele><time>2026-04-12T07:30:57.927Z</time></trkpt><trkpt lat="43.6784351" lon="6.6832006"><ele>730.0</ele><time>2026-04-12T07:30:58.919Z</time></trkpt><trkpt lat="43.6784162" lon="6.6830918"><ele>730.0</ele><time>2026-04-12T07:30:59.915Z</time></trkpt><trkpt lat="43.678403" lon="6.6829769"><ele>730.0</ele><time>2026-04-12T07:31:00.894Z</time></trkpt><trkpt lat="43.6783936" lon="6.6828684"><ele>730.0</ele><time>2026-04-12T07:31:01.923Z</time></trkpt><trkpt lat="43.6783843" lon="6.6827556"><ele>730.0</ele><time>2026-04-12T07:31:02.917Z</time></trkpt><trkpt lat="43.6783662" lon="6.6826446"><ele>730.1666666666667</ele><time>2026-04-12T07:31:03.925Z</time></trkpt><trkpt lat="43.6783355" lon="6.6825302"><ele>730.3333333333334</ele><time>2026-04-12T07:31:04.92Z</time></trkpt><trkpt lat="43.6782943" lon="6.6824249"><ele>730.5</ele><time>2026-04-12T07:31:05.932Z</time></trkpt><trkpt lat="43.6782407" lon="6.6823255"><ele>730.6666666666666</ele><time>2026-04-12T07:31:06.943Z</time></trkpt><trkpt lat="43.6781813" lon="6.6822303"><ele>730.8333333333333</ele><time>2026-04-12T07:31:07.927Z</time></trkpt><trkpt lat="43.6781133" lon="6.6821433"><ele>731.0</ele><time>2026-04-12T07:31:08.92Z</time></trkpt><trkpt lat="43.6780458" lon="6.6820514"><ele>731.0</ele><time>2026-04-12T07:31:09.932Z</time></trkpt><trkpt lat="43.6779785" lon="6.6819624"><ele>731.0</ele><time>2026-04-12T07:31:10.935Z</time></trkpt><trkpt lat="43.6779152" lon="6.6818788"><ele>731.0</ele><time>2026-04-12T07:31:11.933Z</time></trkpt><trkpt lat="43.6778531" lon="6.6817938"><ele>731.0</ele><time>2026-04-12T07:31:12.883Z</time></trkpt><trkpt lat="43.6777884" lon="6.6817168"><ele>731.0</ele><time>2026-04-12T07:31:13.95Z</time></trkpt><trkpt lat="43.677722" lon="6.6816311"><ele>731.0</ele><time>2026-04-12T07:31:14.939Z</time></trkpt><trkpt lat="43.6776583" lon="6.6815486"><ele>731.0</ele><time>2026-04-12T07:31:15.896Z</time></trkpt><trkpt lat="43.6775928" lon="6.6814704"><ele>731.0</ele><time>2026-04-12T07:31:16.934Z</time></trkpt><trkpt lat="43.6775279" lon="6.68139"><ele>731.0</ele><time>2026-04-12T07:31:17.936Z</time></trkpt><trkpt lat="43.6774662" lon="6.6813094"><ele>731.0</ele><time>2026-04-12T07:31:18.941Z</time></trkpt><trkpt lat="43.6774045" lon="6.6812309"><ele>731.0</ele><time>2026-04-12T07:31:19.927Z</time></trkpt><trkpt lat="43.6773457" lon="6.6811529"><ele>731.0</ele><time>2026-04-12T07:31:20.903Z</time></trkpt><trkpt lat="43.6772847" lon="6.6810711"><ele>731.0</ele><time>2026-04-12T07:31:21.87Z</time></trkpt><trkpt lat="43.6772226" lon="6.6809984"><ele>731.0</ele><time>2026-04-12T07:31:22.938Z</time></trkpt><trkpt lat="43.6771622" lon="6.6809276"><ele>731.0</ele><time>2026-04-12T07:31:23.942Z</time></trkpt><trkpt lat="43.6771028" lon="6.680851"><ele>731.0</ele><time>2026-04-12T07:31:24.925Z</time></trkpt><trkpt lat="43.6770369" lon="6.6807682"><ele>731.0</ele><time>2026-04-12T07:31:25.95Z</time></trkpt><trkpt lat="43.6769709" lon="6.6806848"><ele>731.0</ele><time>2026-04-12T07:31:26.946Z</time></trkpt><trkpt lat="43.676905" lon="6.6806021"><ele>731.0</ele><time>2026-04-12T07:31:27.936Z</time></trkpt><trkpt lat="43.6768361" lon="6.6805226"><ele>731.0</ele><time>2026-04-12T07:31:28.894Z</time></trkpt><trkpt lat="43.6767668" lon="6.6804442"><ele>731.0</ele><time>2026-04-12T07:31:29.916Z</time></trkpt><trkpt lat="43.6766977" lon="6.6803732"><ele>731.0</ele><time>2026-04-12T07:31:30.881Z</time></trkpt><trkpt lat="43.676626" lon="6.6803149"><ele>731.0</ele><time>2026-04-12T07:31:31.929Z</time></trkpt><trkpt lat="43.6765471" lon="6.6802574"><ele>731.0</ele><time>2026-04-12T07:31:32.928Z</time></trkpt><trkpt lat="43.6764707" lon="6.680212"><ele>731.6666666666666</ele><time>2026-04-12T07:31:33.926Z</time></trkpt><trkpt lat="43.6763941" lon="6.6801627"><ele>732.3333333333333</ele><time>2026-04-12T07:31:34.932Z</time></trkpt><trkpt lat="43.6763194" lon="6.6801121"><ele>733.0</ele><time>2026-04-12T07:31:35.934Z</time></trkpt><trkpt lat="43.6762426" lon="6.6800638"><ele>733.6666666666666</ele><time>2026-04-12T07:31:36.922Z</time></trkpt><trkpt lat="43.6761647" lon="6.6800092"><ele>734.3333333333334</ele><time>2026-04-12T07:31:37.899Z</time></trkpt><trkpt lat="43.6760912" lon="6.679966"><ele>735.0</ele><time>2026-04-12T07:31:38.945Z</time></trkpt><trkpt lat="43.676016" lon="6.6799276"><ele>735.0</ele><time>2026-04-12T07:31:39.917Z</time></trkpt><trkpt lat="43.675933" lon="6.6799002"><ele>735.0</ele><time>2026-04-12T07:31:40.923Z</time></trkpt><trkpt lat="43.6758499" lon="6.6798891"><ele>735.0</ele><time>2026-04-12T07:31:41.927Z</time></trkpt><trkpt lat="43.6757691" lon="6.6798872"><ele>735.0</ele><time>2026-04-12T07:31:42.916Z</time></trkpt><trkpt lat="43.6756886" lon="6.6798794"><ele>735.0</ele><time>2026-04-12T07:31:43.945Z</time></trkpt><trkpt lat="43.6756145" lon="6.679873"><ele>735.0</ele><time>2026-04-12T07:31:44.887Z</time></trkpt><trkpt lat="43.6755481" lon="6.6798674"><ele>735.0</ele><time>2026-04-12T07:31:45.902Z</time></trkpt><trkpt lat="43.6754275" lon="6.6798582"><ele>735.0</ele><time>2026-04-12T07:31:47.881Z</time></trkpt><trkpt lat="43.6753129" lon="6.6798453"><ele>735.0</ele><time>2026-04-12T07:31:49.912Z</time></trkpt><trkpt lat="43.6752042" lon="6.6798204"><ele>735.0</ele><time>2026-04-12T07:31:51.934Z</time></trkpt><trkpt lat="43.675099" lon="6.6797754"><ele>736.0</ele><time>2026-04-12T07:31:53.914Z</time></trkpt><trkpt lat="43.675005" lon="6.67971"><ele>737.0</ele><time>2026-04-12T07:31:55.926Z</time></trkpt><trkpt lat="43.6749147" lon="6.6796195"><ele>738.0</ele><time>2026-04-12T07:31:57.931Z</time></trkpt><trkpt lat="43.6748396" lon="6.6795223"><ele>739.0</ele><time>2026-04-12T07:31:59.929Z</time></trkpt><trkpt lat="43.6747728" lon="6.6794532"><ele>740.0</ele><time>2026-04-12T07:32:01.892Z</time></trkpt><trkpt lat="43.6746924" lon="6.6793645"><ele>740.2</ele><time>2026-04-12T07:32:03.926Z</time></trkpt><trkpt lat="43.6746172" lon="6.6792757"><ele>740.4</ele><time>2026-04-12T07:32:05.894Z</time></trkpt><trkpt lat="43.6745489" lon="6.6791886"><ele>740.5999999999999</ele><time>2026-04-12T07:32:07.915Z</time></trkpt><trkpt lat="43.6744796" lon="6.6790963"><ele>740.8</ele><time>2026-04-12T07:32:09.894Z</time></trkpt><trkpt lat="43.6744045" lon="6.6789947"><ele>741.0</ele><time>2026-04-12T07:32:11.942Z</time></trkpt><trkpt lat="43.6743319" lon="6.6789164"><ele>741.8333333333334</ele><time>2026-04-12T07:32:13.927Z</time></trkpt><trkpt lat="43.6742598" lon="6.6788409"><ele>742.6666666666666</ele><time>2026-04-12T07:32:15.933Z</time></trkpt><trkpt lat="43.6741939" lon="6.6787678"><ele>743.5</ele><time>2026-04-12T07:32:17.899Z</time></trkpt><trkpt lat="43.6741258" lon="6.6786952"><ele>744.3333333333333</ele><time>2026-04-12T07:32:19.931Z</time></trkpt><trkpt lat="43.6740596" lon="6.6786248"><ele>745.1666666666666</ele><time>2026-04-12T07:32:21.936Z</time></trkpt><trkpt lat="43.6739928" lon="6.6785455"><ele>746.0</ele><time>2026-04-12T07:32:23.918Z</time></trkpt><trkpt lat="43.6739241" lon="6.6784683"><ele>746.3333333333333</ele><time>2026-04-12T07:32:25.922Z</time></trkpt><trkpt lat="43.6738607" lon="6.678395"><ele>746.6666666666666</ele><time>2026-04-12T07:32:27.904Z</time></trkpt><trkpt lat="43.6737903" lon="6.6783129"><ele>747.0</ele><time>2026-04-12T07:32:29.906Z</time></trkpt><trkpt lat="43.6737252" lon="6.6782364"><ele>747.3333333333334</ele><time>2026-04-12T07:32:31.939Z</time></trkpt><trkpt lat="43.6736607" lon="6.6781606"><ele>747.6666666666667</ele><time>2026-04-12T07:32:33.929Z</time></trkpt><trkpt lat="43.6735976" lon="6.678082"><ele>748.0</ele><time>2026-04-12T07:32:35.933Z</time></trkpt><trkpt lat="43.6735328" lon="6.678007"><ele>749.1666666666667</ele><time>2026-04-12T07:32:37.911Z</time></trkpt><trkpt lat="43.6734665" lon="6.6779365"><ele>750.3333333333334</ele><time>2026-04-12T07:32:39.898Z</time></trkpt><trkpt lat="43.6734029" lon="6.6778634"><ele>751.5</ele><time>2026-04-12T07:32:41.924Z</time></trkpt><trkpt lat="43.673342" lon="6.6777904"><ele>752.6666666666666</ele><time>2026-04-12T07:32:43.931Z</time></trkpt><trkpt lat="43.673282" lon="6.6777167"><ele>753.8333333333333</ele><time>2026-04-12T07:32:45.93Z</time></trkpt><trkpt lat="43.6732198" lon="6.677638"><ele>755.0</ele><time>2026-04-12T07:32:47.923Z</time></trkpt><trkpt lat="43.6731591" lon="6.6775645"><ele>755.0</ele><time>2026-04-12T07:32:49.872Z</time></trkpt><trkpt lat="43.6730972" lon="6.6774925"><ele>755.0</ele><time>2026-04-12T07:32:51.911Z</time></trkpt><trkpt lat="43.6730348" lon="6.6774148"><ele>755.0</ele><time>2026-04-12T07:32:53.883Z</time></trkpt><trkpt lat="43.6729696" lon="6.6773438"><ele>755.0</ele><time>2026-04-12T07:32:55.907Z</time></trkpt><trkpt lat="43.6729084" lon="6.6772775"><ele>755.0</ele><time>2026-04-12T07:32:57.911Z</time></trkpt><trkpt lat="43.6728468" lon="6.6772043"><ele>755.0</ele><time>2026-04-12T07:32:59.939Z</time></trkpt><trkpt lat="43.6727786" lon="6.6771417"><ele>756.1666666666666</ele><time>2026-04-12T07:33:01.926Z</time></trkpt><trkpt lat="43.6727057" lon="6.6770912"><ele>757.3333333333333</ele><time>2026-04-12T07:33:03.926Z</time></trkpt><trkpt lat="43.6726245" lon="6.6770636"><ele>758.5</ele><time>2026-04-12T07:33:05.91Z</time></trkpt><trkpt lat="43.6725391" lon="6.6770532"><ele>759.6666666666666</ele><time>2026-04-12T07:33:07.914Z</time></trkpt><trkpt lat="43.6724621" lon="6.6770758"><ele>760.8333333333334</ele><time>2026-04-12T07:33:09.918Z</time></trkpt><trkpt lat="43.6723848" lon="6.6771128"><ele>762.0</ele><time>2026-04-12T07:33:11.908Z</time></trkpt><trkpt lat="43.6723085" lon="6.6771591"><ele>762.0</ele><time>2026-04-12T07:33:13.883Z</time></trkpt><trkpt lat="43.6722314" lon="6.6771979"><ele>762.0</ele><time>2026-04-12T07:33:15.914Z</time></trkpt><trkpt lat="43.6721555" lon="6.67725"><ele>762.0</ele><time>2026-04-12T07:33:17.909Z</time></trkpt><trkpt lat="43.6720814" lon="6.677307"><ele>762.0</ele><time>2026-04-12T07:33:19.908Z</time></trkpt><trkpt lat="43.6720066" lon="6.6773785"><ele>762.0</ele><time>2026-04-12T07:33:21.931Z</time></trkpt><trkpt lat="43.6719353" lon="6.6774598"><ele>762.0</ele><time>2026-04-12T07:33:23.906Z</time></trkpt><trkpt lat="43.6718802" lon="6.6775489"><ele>763.1666666666666</ele><time>2026-04-12T07:33:25.915Z</time></trkpt><trkpt lat="43.6718454" lon="6.6776478"><ele>764.3333333333333</ele><time>2026-04-12T07:33:27.932Z</time></trkpt><trkpt lat="43.6718156" lon="6.6777618"><ele>765.5</ele><time>2026-04-12T07:33:29.928Z</time></trkpt><trkpt lat="43.6717931" lon="6.6778724"><ele>766.6666666666666</ele><time>2026-04-12T07:33:31.917Z</time></trkpt><trkpt lat="43.6717747" lon="6.6779844"><ele>767.8333333333333</ele><time>2026-04-12T07:33:33.929Z</time></trkpt><trkpt lat="43.6717565" lon="6.6780888"><ele>769.0</ele><time>2026-04-12T07:33:35.925Z</time></trkpt><trkpt lat="43.6717379" lon="6.678198"><ele>769.3333333333333</ele><time>2026-04-12T07:33:37.932Z</time></trkpt><trkpt lat="43.6717198" lon="6.6783119"><ele>769.6666666666666</ele><time>2026-04-12T07:33:39.92Z</time></trkpt><trkpt lat="43.6717053" lon="6.6784145"><ele>770.0</ele><time>2026-04-12T07:33:41.932Z</time></trkpt><trkpt lat="43.67169" lon="6.6785226"><ele>770.3333333333333</ele><time>2026-04-12T07:33:43.914Z</time></trkpt><trkpt lat="43.6716743" lon="6.6786272"><ele>770.6666666666666</ele><time>2026-04-12T07:33:45.924Z</time></trkpt><trkpt lat="43.671654" lon="6.6787357"><ele>771.0</ele><time>2026-04-12T07:33:47.928Z</time></trkpt><trkpt lat="43.671632" lon="6.6788408"><ele>771.1666666666666</ele><time>2026-04-12T07:33:49.883Z</time></trkpt><trkpt lat="43.6715842" lon="6.6789359"><ele>771.3333333333333</ele><time>2026-04-12T07:33:51.942Z</time></trkpt><trkpt lat="43.6715228" lon="6.6790195"><ele>771.5</ele><time>2026-04-12T07:33:53.924Z</time></trkpt><trkpt lat="43.6714501" lon="6.6790746"><ele>771.6666666666666</ele><time>2026-04-12T07:33:55.93Z</time></trkpt><trkpt lat="43.671366" lon="6.6791177"><ele>771.8333333333333</ele><time>2026-04-12T07:33:57.92Z</time></trkpt><trkpt lat="43.6712818" lon="6.6791561"><ele>772.0</ele><time>2026-04-12T07:33:59.929Z</time></trkpt><trkpt lat="43.6711953" lon="6.6791935"><ele>772.0</ele><time>2026-04-12T07:34:01.934Z</time></trkpt><trkpt lat="43.6711101" lon="6.6792296"><ele>772.0</ele><time>2026-04-12T07:34:03.934Z</time></trkpt><trkpt lat="43.6710235" lon="6.6792655"><ele>772.0</ele><time>2026-04-12T07:34:05.93Z</time></trkpt><trkpt lat="43.6709321" lon="6.6793162"><ele>772.0</ele><time>2026-04-12T07:34:07.929Z</time></trkpt><trkpt lat="43.6708392" lon="6.6793592"><ele>772.0</ele><time>2026-04-12T07:34:09.912Z</time></trkpt><trkpt lat="43.6707489" lon="6.6794017"><ele>773.4000000000001</ele><time>2026-04-12T07:34:11.938Z</time></trkpt><trkpt lat="43.6706569" lon="6.6794527"><ele>774.8000000000001</ele><time>2026-04-12T07:34:13.94Z</time></trkpt><trkpt lat="43.6705604" lon="6.6794882"><ele>776.2</ele><time>2026-04-12T07:34:15.922Z</time></trkpt><trkpt lat="43.6704546" lon="6.6794877"><ele>777.6</ele><time>2026-04-12T07:34:17.924Z</time></trkpt><trkpt lat="43.6703409" lon="6.6794596"><ele>779.0</ele><time>2026-04-12T07:34:19.923Z</time></trkpt><trkpt lat="43.6702281" lon="6.679414"><ele>779.0000000000001</ele><time>2026-04-12T07:34:21.933Z</time></trkpt><trkpt lat="43.6701246" lon="6.6793345"><ele>779.0</ele><time>2026-04-12T07:34:23.921Z</time></trkpt><trkpt lat="43.6700209" lon="6.6792412"><ele>779.0</ele><time>2026-04-12T07:34:25.93Z</time></trkpt><trkpt lat="43.6699662" lon="6.6791954"><ele>779.0</ele><time>2026-04-12T07:34:26.923Z</time></trkpt><trkpt lat="43.6699082" lon="6.6791424"><ele>779.0000000000001</ele><time>2026-04-12T07:34:27.937Z</time></trkpt><trkpt lat="43.6698471" lon="6.6790913"><ele>779.0</ele><time>2026-04-12T07:34:28.922Z</time></trkpt><trkpt lat="43.669778" lon="6.6790276"><ele>779.0</ele><time>2026-04-12T07:34:29.917Z</time></trkpt><trkpt lat="43.6697049" lon="6.6789666"><ele>779.0</ele><time>2026-04-12T07:34:30.918Z</time></trkpt><trkpt lat="43.6696304" lon="6.6788903"><ele>779.0</ele><time>2026-04-12T07:34:31.936Z</time></trkpt><trkpt lat="43.6695573" lon="6.6788022"><ele>779.0</ele><time>2026-04-12T07:34:32.918Z</time></trkpt><trkpt lat="43.6694864" lon="6.6787034"><ele>779.0</ele><time>2026-04-12T07:34:33.934Z</time></trkpt><trkpt lat="43.669423" lon="6.6785806"><ele>777.75</ele><time>2026-04-12T07:34:34.932Z</time></trkpt><trkpt lat="43.669367" lon="6.678445"><ele>776.5</ele><time>2026-04-12T07:34:35.902Z</time></trkpt><trkpt lat="43.6693185" lon="6.6783096"><ele>775.25</ele><time>2026-04-12T07:34:36.925Z</time></trkpt><trkpt lat="43.6692652" lon="6.6781669"><ele>774.0</ele><time>2026-04-12T07:34:37.934Z</time></trkpt><trkpt lat="43.6692075" lon="6.6780245"><ele>774.0</ele><time>2026-04-12T07:34:38.928Z</time></trkpt><trkpt lat="43.6691466" lon="6.677877"><ele>774.0</ele><time>2026-04-12T07:34:39.93Z</time></trkpt><trkpt lat="43.6690725" lon="6.6777416"><ele>774.0</ele><time>2026-04-12T07:34:40.926Z</time></trkpt><trkpt lat="43.668981" lon="6.6776228"><ele>774.0</ele><time>2026-04-12T07:34:41.926Z</time></trkpt><trkpt lat="43.6688768" lon="6.6775339"><ele>775.2</ele><time>2026-04-12T07:34:42.884Z</time></trkpt><trkpt lat="43.6687697" lon="6.6774911"><ele>776.4000000000001</ele><time>2026-04-12T07:34:43.925Z</time></trkpt><trkpt lat="43.6686728" lon="6.6775213"><ele>777.6</ele><time>2026-04-12T07:34:44.915Z</time></trkpt><trkpt lat="43.6685995" lon="6.6776209"><ele>778.8</ele><time>2026-04-12T07:34:45.906Z</time></trkpt><trkpt lat="43.668565" lon="6.6777532"><ele>780.0</ele><time>2026-04-12T07:34:46.913Z</time></trkpt><trkpt lat="43.6685654" lon="6.6778904"><ele>774.75</ele><time>2026-04-12T07:34:47.925Z</time></trkpt><trkpt lat="43.6685829" lon="6.6780354"><ele>769.5</ele><time>2026-04-12T07:34:48.889Z</time></trkpt><trkpt lat="43.6685975" lon="6.6781968"><ele>764.25</ele><time>2026-04-12T07:34:49.926Z</time></trkpt><trkpt lat="43.6686026" lon="6.6783579"><ele>759.0</ele><time>2026-04-12T07:34:50.928Z</time></trkpt><trkpt lat="43.6686089" lon="6.678525"><ele>758.75</ele><time>2026-04-12T07:34:51.934Z</time></trkpt><trkpt lat="43.6686112" lon="6.6786966"><ele>758.5</ele><time>2026-04-12T07:34:52.921Z</time></trkpt><trkpt lat="43.6686033" lon="6.6788807"><ele>758.25</ele><time>2026-04-12T07:34:53.931Z</time></trkpt><trkpt lat="43.6685682" lon="6.67906"><ele>758.0</ele><time>2026-04-12T07:34:54.914Z</time></trkpt><trkpt lat="43.6685137" lon="6.6792247"><ele>758.0</ele><time>2026-04-12T07:34:55.918Z</time></trkpt><trkpt lat="43.6684366" lon="6.6793795"><ele>758.0</ele><time>2026-04-12T07:34:56.93Z</time></trkpt><trkpt lat="43.6683458" lon="6.6795167"><ele>758.0</ele><time>2026-04-12T07:34:57.93Z</time></trkpt><trkpt lat="43.6682452" lon="6.6796473"><ele>758.0</ele><time>2026-04-12T07:34:58.926Z</time></trkpt><trkpt lat="43.6681467" lon="6.6797822"><ele>757.75</ele><time>2026-04-12T07:34:59.926Z</time></trkpt><trkpt lat="43.6680579" lon="6.6799298"><ele>757.5</ele><time>2026-04-12T07:35:00.914Z</time></trkpt><trkpt lat="43.6679801" lon="6.6800873"><ele>757.25</ele><time>2026-04-12T07:35:01.921Z</time></trkpt><trkpt lat="43.6679184" lon="6.6802468"><ele>757.0</ele><time>2026-04-12T07:35:02.912Z</time></trkpt><trkpt lat="43.6678847" lon="6.6803818"><ele>757.1666666666667</ele><time>2026-04-12T07:35:03.939Z</time></trkpt><trkpt lat="43.6678614" lon="6.6804814"><ele>757.3333333333334</ele><time>2026-04-12T07:35:04.937Z</time></trkpt><trkpt lat="43.6678525" lon="6.6805741"><ele>757.5</ele><time>2026-04-12T07:35:06.931Z</time></trkpt><trkpt lat="43.6678842" lon="6.6804613"><ele>757.6666666666666</ele><time>2026-04-12T07:35:10.931Z</time></trkpt><trkpt lat="43.667848" lon="6.68036"><ele>757.8333333333333</ele><time>2026-04-12T07:35:12.922Z</time></trkpt><trkpt lat="43.6677555" lon="6.6802598"><ele>758.0</ele><time>2026-04-12T07:35:14.914Z</time></trkpt><trkpt lat="43.6676641" lon="6.6801208"><ele>758.0</ele><time>2026-04-12T07:35:16.912Z</time></trkpt><trkpt lat="43.6676098" lon="6.6800462"><ele>758.0</ele><time>2026-04-12T07:35:17.934Z</time></trkpt><trkpt lat="43.6675548" lon="6.679968"><ele>758.0</ele><time>2026-04-12T07:35:18.915Z</time></trkpt><trkpt lat="43.6675007" lon="6.6798802"><ele>758.0</ele><time>2026-04-12T07:35:19.895Z</time></trkpt><trkpt lat="43.6674466" lon="6.6797831"><ele>758.0</ele><time>2026-04-12T07:35:20.919Z</time></trkpt><trkpt lat="43.6673871" lon="6.6796811"><ele>758.0</ele><time>2026-04-12T07:35:21.934Z</time></trkpt><trkpt lat="43.6673299" lon="6.6795743"><ele>758.0</ele><time>2026-04-12T07:35:22.921Z</time></trkpt><trkpt lat="43.6672636" lon="6.679462"><ele>758.0</ele><time>2026-04-12T07:35:23.932Z</time></trkpt><trkpt lat="43.6671974" lon="6.6793448"><ele>758.0</ele><time>2026-04-12T07:35:24.932Z</time></trkpt><trkpt lat="43.6671318" lon="6.6792264"><ele>758.0</ele><time>2026-04-12T07:35:25.898Z</time></trkpt><trkpt lat="43.6670596" lon="6.679092"><ele>758.0</ele><time>2026-04-12T07:35:26.948Z</time></trkpt><trkpt lat="43.6669839" lon="6.6789595"><ele>758.75</ele><time>2026-04-12T07:35:27.911Z</time></trkpt><trkpt lat="43.6668998" lon="6.6788294"><ele>759.5</ele><time>2026-04-12T07:35:28.926Z</time></trkpt><trkpt lat="43.6668068" lon="6.6787023"><ele>760.25</ele><time>2026-04-12T07:35:29.908Z</time></trkpt><trkpt lat="43.6667106" lon="6.6785819"><ele>761.0</ele><time>2026-04-12T07:35:30.931Z</time></trkpt><trkpt lat="43.6666047" lon="6.6784656"><ele>756.75</ele><time>2026-04-12T07:35:31.899Z</time></trkpt><trkpt lat="43.6664908" lon="6.6783483"><ele>752.5</ele><time>2026-04-12T07:35:32.915Z</time></trkpt><trkpt lat="43.6663745" lon="6.6782397"><ele>748.25</ele><time>2026-04-12T07:35:33.922Z</time></trkpt><trkpt lat="43.6662603" lon="6.678129"><ele>744.0</ele><time>2026-04-12T07:35:34.941Z</time></trkpt><trkpt lat="43.6661485" lon="6.6780219"><ele>743.0</ele><time>2026-04-12T07:35:35.935Z</time></trkpt><trkpt lat="43.6660343" lon="6.6779203"><ele>742.0</ele><time>2026-04-12T07:35:36.929Z</time></trkpt><trkpt lat="43.6659158" lon="6.6778106"><ele>741.0</ele><time>2026-04-12T07:35:37.919Z</time></trkpt><trkpt lat="43.6657946" lon="6.6776989"><ele>740.0</ele><time>2026-04-12T07:35:38.928Z</time></trkpt><trkpt lat="43.6656738" lon="6.677582"><ele>740.0</ele><time>2026-04-12T07:35:39.901Z</time></trkpt><trkpt lat="43.6655559" lon="6.6774642"><ele>740.0</ele><time>2026-04-12T07:35:40.932Z</time></trkpt><trkpt lat="43.6654381" lon="6.6773404"><ele>740.0</ele><time>2026-04-12T07:35:41.921Z</time></trkpt><trkpt lat="43.6653331" lon="6.6772059"><ele>740.0</ele><time>2026-04-12T07:35:42.917Z</time></trkpt><trkpt lat="43.6652358" lon="6.6770723"><ele>740.75</ele><time>2026-04-12T07:35:43.923Z</time></trkpt><trkpt lat="43.6651428" lon="6.6769433"><ele>741.5</ele><time>2026-04-12T07:35:44.909Z</time></trkpt><trkpt lat="43.6650511" lon="6.6768156"><ele>742.25</ele><time>2026-04-12T07:35:45.915Z</time></trkpt><trkpt lat="43.6649623" lon="6.6766869"><ele>743.0</ele><time>2026-04-12T07:35:46.945Z</time></trkpt><trkpt lat="43.6648783" lon="6.67655"><ele>743.0</ele><time>2026-04-12T07:35:47.905Z</time></trkpt><trkpt lat="43.6647933" lon="6.6764089"><ele>743.0</ele><time>2026-04-12T07:35:48.878Z</time></trkpt><trkpt lat="43.6647109" lon="6.6762652"><ele>743.0</ele><time>2026-04-12T07:35:49.933Z</time></trkpt><trkpt lat="43.664632" lon="6.6761177"><ele>743.0</ele><time>2026-04-12T07:35:50.901Z</time></trkpt><trkpt lat="43.6645551" lon="6.6759665"><ele>744.25</ele><time>2026-04-12T07:35:51.919Z</time></trkpt><trkpt lat="43.6644832" lon="6.6758123"><ele>745.5</ele><time>2026-04-12T07:35:52.927Z</time></trkpt><trkpt lat="43.6644139" lon="6.6756617"><ele>746.75</ele><time>2026-04-12T07:35:53.892Z</time></trkpt><trkpt lat="43.6643494" lon="6.6754999"><ele>748.0</ele><time>2026-04-12T07:35:54.905Z</time></trkpt><trkpt lat="43.6642811" lon="6.6753442"><ele>746.25</ele><time>2026-04-12T07:35:55.939Z</time></trkpt><trkpt lat="43.6642118" lon="6.675187"><ele>744.5</ele><time>2026-04-12T07:35:56.924Z</time></trkpt><trkpt lat="43.6641395" lon="6.6750285"><ele>742.75</ele><time>2026-04-12T07:35:57.944Z</time></trkpt><trkpt lat="43.6640728" lon="6.6748673"><ele>741.0</ele><time>2026-04-12T07:35:58.93Z</time></trkpt><trkpt lat="43.6640038" lon="6.674704"><ele>741.0</ele><time>2026-04-12T07:35:59.917Z</time></trkpt><trkpt lat="43.6639316" lon="6.6745517"><ele>741.0</ele><time>2026-04-12T07:36:00.915Z</time></trkpt><trkpt lat="43.6638579" lon="6.6744123"><ele>741.0</ele><time>2026-04-12T07:36:01.905Z</time></trkpt><trkpt lat="43.6637802" lon="6.6742766"><ele>741.0</ele><time>2026-04-12T07:36:02.936Z</time></trkpt><trkpt lat="43.6636963" lon="6.6741482"><ele>742.25</ele><time>2026-04-12T07:36:03.905Z</time></trkpt><trkpt lat="43.6636034" lon="6.6740209"><ele>743.5</ele><time>2026-04-12T07:36:04.917Z</time></trkpt><trkpt lat="43.6635052" lon="6.6739001"><ele>744.75</ele><time>2026-04-12T07:36:05.911Z</time></trkpt><trkpt lat="43.6634057" lon="6.6737812"><ele>746.0</ele><time>2026-04-12T07:36:06.934Z</time></trkpt><trkpt lat="43.6633061" lon="6.6736575"><ele>742.5</ele><time>2026-04-12T07:36:07.931Z</time></trkpt><trkpt lat="43.6632151" lon="6.6735125"><ele>739.0</ele><time>2026-04-12T07:36:08.926Z</time></trkpt><trkpt lat="43.6631321" lon="6.6733619"><ele>735.5</ele><time>2026-04-12T07:36:09.924Z</time></trkpt><trkpt lat="43.6630531" lon="6.6732078"><ele>732.0</ele><time>2026-04-12T07:36:10.934Z</time></trkpt><trkpt lat="43.662979" lon="6.6730524"><ele>732.0</ele><time>2026-04-12T07:36:11.923Z</time></trkpt><trkpt lat="43.6629096" lon="6.6728991"><ele>732.0</ele><time>2026-04-12T07:36:12.911Z</time></trkpt><trkpt lat="43.6628464" lon="6.6727477"><ele>732.0</ele><time>2026-04-12T07:36:13.883Z</time></trkpt><trkpt lat="43.6627859" lon="6.6725917"><ele>732.0</ele><time>2026-04-12T07:36:14.931Z</time></trkpt><trkpt lat="43.6627295" lon="6.6724397"><ele>731.75</ele><time>2026-04-12T07:36:15.9Z</time></trkpt><trkpt lat="43.6626746" lon="6.6722776"><ele>731.5</ele><time>2026-04-12T07:36:16.894Z</time></trkpt><trkpt lat="43.6626154" lon="6.6721206"><ele>731.25</ele><time>2026-04-12T07:36:17.923Z</time></trkpt><trkpt lat="43.662556" lon="6.6719591"><ele>731.0</ele><time>2026-04-12T07:36:18.881Z</time></trkpt><trkpt lat="43.6624884" lon="6.6717985"><ele>731.0</ele><time>2026-04-12T07:36:19.905Z</time></trkpt><trkpt lat="43.6624095" lon="6.6716548"><ele>731.0</ele><time>2026-04-12T07:36:20.913Z</time></trkpt><trkpt lat="43.6623081" lon="6.6715352"><ele>731.0</ele><time>2026-04-12T07:36:21.904Z</time></trkpt><trkpt lat="43.6622011" lon="6.6714364"><ele>731.0</ele><time>2026-04-12T07:36:22.922Z</time></trkpt><trkpt lat="43.6620848" lon="6.6713565"><ele>731.0</ele><time>2026-04-12T07:36:23.926Z</time></trkpt><trkpt lat="43.6619639" lon="6.6712961"><ele>731.0</ele><time>2026-04-12T07:36:24.912Z</time></trkpt><trkpt lat="43.661838" lon="6.6712715"><ele>731.0</ele><time>2026-04-12T07:36:25.928Z</time></trkpt><trkpt lat="43.6617098" lon="6.6712787"><ele>731.0</ele><time>2026-04-12T07:36:26.906Z</time></trkpt><trkpt lat="43.6615816" lon="6.6713147"><ele>730.5</ele><time>2026-04-12T07:36:27.901Z</time></trkpt><trkpt lat="43.6614537" lon="6.6713675"><ele>730.0</ele><time>2026-04-12T07:36:28.917Z</time></trkpt><trkpt lat="43.6613274" lon="6.6714257"><ele>729.5</ele><time>2026-04-12T07:36:29.926Z</time></trkpt><trkpt lat="43.6611943" lon="6.6714794"><ele>729.0</ele><time>2026-04-12T07:36:30.93Z</time></trkpt><trkpt lat="43.661062" lon="6.6715369"><ele>727.75</ele><time>2026-04-12T07:36:31.925Z</time></trkpt><trkpt lat="43.6609276" lon="6.6715999"><ele>726.5</ele><time>2026-04-12T07:36:32.923Z</time></trkpt><trkpt lat="43.6607942" lon="6.6716622"><ele>725.25</ele><time>2026-04-12T07:36:33.915Z</time></trkpt><trkpt lat="43.6606563" lon="6.6717258"><ele>724.0</ele><time>2026-04-12T07:36:34.946Z</time></trkpt><trkpt lat="43.6605147" lon="6.671787"><ele>724.0</ele><time>2026-04-12T07:36:35.919Z</time></trkpt><trkpt lat="43.660372" lon="6.6718395"><ele>724.0</ele><time>2026-04-12T07:36:36.93Z</time></trkpt><trkpt lat="43.6602333" lon="6.6718653"><ele>724.0</ele><time>2026-04-12T07:36:37.925Z</time></trkpt><trkpt lat="43.6600949" lon="6.6718566"><ele>724.0</ele><time>2026-04-12T07:36:38.922Z</time></trkpt><trkpt lat="43.6599491" lon="6.6718309"><ele>723.0</ele><time>2026-04-12T07:36:39.917Z</time></trkpt><trkpt lat="43.6598092" lon="6.6718091"><ele>722.0</ele><time>2026-04-12T07:36:40.91Z</time></trkpt><trkpt lat="43.6596727" lon="6.671785"><ele>721.0</ele><time>2026-04-12T07:36:41.921Z</time></trkpt><trkpt lat="43.6595347" lon="6.6717656"><ele>720.0</ele><time>2026-04-12T07:36:42.931Z</time></trkpt><trkpt lat="43.6594019" lon="6.6717378"><ele>719.75</ele><time>2026-04-12T07:36:43.913Z</time></trkpt><trkpt lat="43.6592695" lon="6.6716871"><ele>719.5</ele><time>2026-04-12T07:36:44.921Z</time></trkpt><trkpt lat="43.6591413" lon="6.6716203"><ele>719.25</ele><time>2026-04-12T07:36:45.917Z</time></trkpt><trkpt lat="43.6590215" lon="6.6715241"><ele>719.0</ele><time>2026-04-12T07:36:46.923Z</time></trkpt><trkpt lat="43.6589074" lon="6.6714148"><ele>719.0</ele><time>2026-04-12T07:36:47.91Z</time></trkpt><trkpt lat="43.6588081" lon="6.6712901"><ele>719.0</ele><time>2026-04-12T07:36:48.919Z</time></trkpt><trkpt lat="43.6587162" lon="6.6711579"><ele>719.0</ele><time>2026-04-12T07:36:49.923Z</time></trkpt><trkpt lat="43.6586318" lon="6.6710171"><ele>719.0</ele><time>2026-04-12T07:36:50.923Z</time></trkpt><trkpt lat="43.6585507" lon="6.6708728"><ele>720.5</ele><time>2026-04-12T07:36:51.905Z</time></trkpt><trkpt lat="43.6584737" lon="6.6707286"><ele>722.0</ele><time>2026-04-12T07:36:52.918Z</time></trkpt><trkpt lat="43.6583933" lon="6.6705917"><ele>723.5</ele><time>2026-04-12T07:36:53.925Z</time></trkpt><trkpt lat="43.6583127" lon="6.6704527"><ele>725.0</ele><time>2026-04-12T07:36:54.918Z</time></trkpt><trkpt lat="43.6582347" lon="6.6703156"><ele>723.75</ele><time>2026-04-12T07:36:55.921Z</time></trkpt><trkpt lat="43.6581563" lon="6.6701704"><ele>722.5</ele><time>2026-04-12T07:36:56.931Z</time></trkpt><trkpt lat="43.6580792" lon="6.6700324"><ele>721.25</ele><time>2026-04-12T07:36:57.909Z</time></trkpt><trkpt lat="43.6579969" lon="6.6698969"><ele>720.0</ele><time>2026-04-12T07:36:58.922Z</time></trkpt><trkpt lat="43.6579173" lon="6.6697513"><ele>720.0</ele><time>2026-04-12T07:36:59.908Z</time></trkpt><trkpt lat="43.657845" lon="6.6696133"><ele>720.0</ele><time>2026-04-12T07:37:00.918Z</time></trkpt><trkpt lat="43.657769" lon="6.6694804"><ele>720.0</ele><time>2026-04-12T07:37:01.913Z</time></trkpt><trkpt lat="43.6576934" lon="6.6693462"><ele>720.0</ele><time>2026-04-12T07:37:02.913Z</time></trkpt><trkpt lat="43.6576181" lon="6.6692279"><ele>720.6</ele><time>2026-04-12T07:37:03.901Z</time></trkpt><trkpt lat="43.6575527" lon="6.6691007"><ele>721.2</ele><time>2026-04-12T07:37:04.919Z</time></trkpt><trkpt lat="43.6574816" lon="6.6689831"><ele>721.8</ele><time>2026-04-12T07:37:05.915Z</time></trkpt><trkpt lat="43.6574109" lon="6.6688639"><ele>722.4</ele><time>2026-04-12T07:37:06.92Z</time></trkpt><trkpt lat="43.6573412" lon="6.6687562"><ele>723.0</ele><time>2026-04-12T07:37:07.918Z</time></trkpt><trkpt lat="43.6572763" lon="6.6686287"><ele>723.5999999999999</ele><time>2026-04-12T07:37:08.918Z</time></trkpt><trkpt lat="43.6572093" lon="6.6685062"><ele>724.1999999999999</ele><time>2026-04-12T07:37:09.909Z</time></trkpt><trkpt lat="43.6571413" lon="6.6683867"><ele>724.8</ele><time>2026-04-12T07:37:10.936Z</time></trkpt><trkpt lat="43.6570725" lon="6.6682646"><ele>725.4</ele><time>2026-04-12T07:37:11.944Z</time></trkpt><trkpt lat="43.6569986" lon="6.6681426"><ele>726.0</ele><time>2026-04-12T07:37:12.91Z</time></trkpt><trkpt lat="43.6569249" lon="6.6680175"><ele>726.0</ele><time>2026-04-12T07:37:13.921Z</time></trkpt><trkpt lat="43.6568523" lon="6.6678944"><ele>726.0</ele><time>2026-04-12T07:37:14.924Z</time></trkpt><trkpt lat="43.6567809" lon="6.6677801"><ele>726.0</ele><time>2026-04-12T07:37:15.897Z</time></trkpt><trkpt lat="43.656705" lon="6.6676652"><ele>726.0</ele><time>2026-04-12T07:37:16.938Z</time></trkpt><trkpt lat="43.6566164" lon="6.6675523"><ele>724.0</ele><time>2026-04-12T07:37:17.924Z</time></trkpt><trkpt lat="43.6565224" lon="6.6674429"><ele>722.0</ele><time>2026-04-12T07:37:18.922Z</time></trkpt><trkpt lat="43.6564269" lon="6.6673355"><ele>720.0</ele><time>2026-04-12T07:37:19.933Z</time></trkpt><trkpt lat="43.6563321" lon="6.667229"><ele>718.0</ele><time>2026-04-12T07:37:20.898Z</time></trkpt><trkpt lat="43.6562367" lon="6.6671206"><ele>718.0</ele><time>2026-04-12T07:37:21.925Z</time></trkpt><trkpt lat="43.6561405" lon="6.6670135"><ele>718.0</ele><time>2026-04-12T07:37:22.923Z</time></trkpt><trkpt lat="43.6560445" lon="6.6669064"><ele>718.0</ele><time>2026-04-12T07:37:23.924Z</time></trkpt><trkpt lat="43.6559513" lon="6.666798"><ele>718.0</ele><time>2026-04-12T07:37:24.91Z</time></trkpt><trkpt lat="43.6558568" lon="6.6666861"><ele>718.0</ele><time>2026-04-12T07:37:25.931Z</time></trkpt><trkpt lat="43.655758" lon="6.6665752"><ele>718.0</ele><time>2026-04-12T07:37:26.923Z</time></trkpt><trkpt lat="43.6556681" lon="6.6664706"><ele>718.0</ele><time>2026-04-12T07:37:27.931Z</time></trkpt><trkpt lat="43.6555805" lon="6.6663653"><ele>718.0</ele><time>2026-04-12T07:37:28.919Z</time></trkpt><trkpt lat="43.655491" lon="6.6662697"><ele>718.0</ele><time>2026-04-12T07:37:29.909Z</time></trkpt><trkpt lat="43.6554004" lon="6.6661756"><ele>718.0</ele><time>2026-04-12T07:37:30.921Z</time></trkpt><trkpt lat="43.6553126" lon="6.6660803"><ele>718.0</ele><time>2026-04-12T07:37:31.93Z</time></trkpt><trkpt lat="43.6552256" lon="6.6659875"><ele>718.0</ele><time>2026-04-12T07:37:32.926Z</time></trkpt><trkpt lat="43.6551374" lon="6.6658998"><ele>718.0</ele><time>2026-04-12T07:37:33.936Z</time></trkpt><trkpt lat="43.6550448" lon="6.665817"><ele>716.75</ele><time>2026-04-12T07:37:34.889Z</time></trkpt><trkpt lat="43.6549524" lon="6.6657378"><ele>715.5</ele><time>2026-04-12T07:37:35.888Z</time></trkpt><trkpt lat="43.6548612" lon="6.6656547"><ele>714.25</ele><time>2026-04-12T07:37:36.936Z</time></trkpt><trkpt lat="43.6547627" lon="6.6655627"><ele>713.0</ele><time>2026-04-12T07:37:37.915Z</time></trkpt><trkpt lat="43.6546568" lon="6.6654699"><ele>713.0</ele><time>2026-04-12T07:37:38.931Z</time></trkpt><trkpt lat="43.6545479" lon="6.6653728"><ele>713.0</ele><time>2026-04-12T07:37:39.919Z</time></trkpt><trkpt lat="43.6544454" lon="6.665273"><ele>713.0</ele><time>2026-04-12T07:37:40.925Z</time></trkpt><trkpt lat="43.654337" lon="6.6651736"><ele>713.0</ele><time>2026-04-12T07:37:41.922Z</time></trkpt><trkpt lat="43.6542353" lon="6.6650713"><ele>712.0</ele><time>2026-04-12T07:37:42.92Z</time></trkpt><trkpt lat="43.6541385" lon="6.664949"><ele>711.0</ele><time>2026-04-12T07:37:43.913Z</time></trkpt><trkpt lat="43.6540669" lon="6.6648027"><ele>710.0</ele><time>2026-04-12T07:37:44.913Z</time></trkpt><trkpt lat="43.654014" lon="6.6646377"><ele>709.0</ele><time>2026-04-12T07:37:45.87Z</time></trkpt><trkpt lat="43.6539786" lon="6.6644556"><ele>707.75</ele><time>2026-04-12T07:37:46.918Z</time></trkpt><trkpt lat="43.6539619" lon="6.664272"><ele>706.5</ele><time>2026-04-12T07:37:47.929Z</time></trkpt><trkpt lat="43.6539646" lon="6.6640913"><ele>705.25</ele><time>2026-04-12T07:37:48.918Z</time></trkpt><trkpt lat="43.6539821" lon="6.6639113"><ele>704.0</ele><time>2026-04-12T07:37:49.918Z</time></trkpt><trkpt lat="43.6540117" lon="6.6637369"><ele>702.75</ele><time>2026-04-12T07:37:50.921Z</time></trkpt><trkpt lat="43.6540456" lon="6.6635585"><ele>701.5</ele><time>2026-04-12T07:37:51.919Z</time></trkpt><trkpt lat="43.6540799" lon="6.663377"><ele>700.25</ele><time>2026-04-12T07:37:52.91Z</time></trkpt><trkpt lat="43.654108" lon="6.663199"><ele>699.0</ele><time>2026-04-12T07:37:53.934Z</time></trkpt><trkpt lat="43.654133" lon="6.6630187"><ele>699.0</ele><time>2026-04-12T07:37:54.904Z</time></trkpt><trkpt lat="43.6541401" lon="6.6628409"><ele>699.0</ele><time>2026-04-12T07:37:55.871Z</time></trkpt><trkpt lat="43.6541273" lon="6.6626597"><ele>699.0</ele><time>2026-04-12T07:37:56.94Z</time></trkpt><trkpt lat="43.6540922" lon="6.6624835"><ele>699.0</ele><time>2026-04-12T07:37:57.918Z</time></trkpt><trkpt lat="43.6540428" lon="6.6623122"><ele>698.5</ele><time>2026-04-12T07:37:58.908Z</time></trkpt><trkpt lat="43.653992" lon="6.6621328"><ele>698.0</ele><time>2026-04-12T07:37:59.914Z</time></trkpt><trkpt lat="43.6539376" lon="6.6619555"><ele>697.5</ele><time>2026-04-12T07:38:00.92Z</time></trkpt><trkpt lat="43.6538896" lon="6.6617706"><ele>697.0</ele><time>2026-04-12T07:38:01.912Z</time></trkpt><trkpt lat="43.6538348" lon="6.6615882"><ele>697.0</ele><time>2026-04-12T07:38:02.918Z</time></trkpt><trkpt lat="43.6537866" lon="6.6614014"><ele>697.0</ele><time>2026-04-12T07:38:03.927Z</time></trkpt><trkpt lat="43.6537547" lon="6.6612138"><ele>697.0</ele><time>2026-04-12T07:38:04.902Z</time></trkpt><trkpt lat="43.6537622" lon="6.6610347"><ele>697.0</ele><time>2026-04-12T07:38:05.917Z</time></trkpt><trkpt lat="43.6538115" lon="6.6608479"><ele>696.75</ele><time>2026-04-12T07:38:06.912Z</time></trkpt><trkpt lat="43.6538774" lon="6.660687"><ele>696.5</ele><time>2026-04-12T07:38:07.908Z</time></trkpt><trkpt lat="43.6539553" lon="6.66052"><ele>696.25</ele><time>2026-04-12T07:38:08.94Z</time></trkpt><trkpt lat="43.6540265" lon="6.6603511"><ele>696.0</ele><time>2026-04-12T07:38:09.907Z</time></trkpt><trkpt lat="43.6540952" lon="6.6601759"><ele>694.25</ele><time>2026-04-12T07:38:10.922Z</time></trkpt><trkpt lat="43.6541601" lon="6.6600148"><ele>692.5</ele><time>2026-04-12T07:38:11.91Z</time></trkpt><trkpt lat="43.6542245" lon="6.6598698"><ele>690.75</ele><time>2026-04-12T07:38:12.932Z</time></trkpt><trkpt lat="43.6542813" lon="6.6597328"><ele>689.0</ele><time>2026-04-12T07:38:13.92Z</time></trkpt><trkpt lat="43.6543246" lon="6.6596112"><ele>689.0</ele><time>2026-04-12T07:38:14.887Z</time></trkpt><trkpt lat="43.6543626" lon="6.6595061"><ele>689.0</ele><time>2026-04-12T07:38:15.913Z</time></trkpt><trkpt lat="43.6543867" lon="6.6594215"><ele>689.0</ele><time>2026-04-12T07:38:16.935Z</time></trkpt><trkpt lat="43.654386" lon="6.6593313"><ele>689.0</ele><time>2026-04-12T07:38:17.926Z</time></trkpt><trkpt lat="43.6543523" lon="6.6592498"><ele>689.0</ele><time>2026-04-12T07:38:18.901Z</time></trkpt><trkpt lat="43.6542837" lon="6.6592155"><ele>689.0</ele><time>2026-04-12T07:38:19.926Z</time></trkpt><trkpt lat="43.6542176" lon="6.6592428"><ele>689.0</ele><time>2026-04-12T07:38:20.934Z</time></trkpt><trkpt lat="43.6541564" lon="6.6592949"><ele>689.0</ele><time>2026-04-12T07:38:21.93Z</time></trkpt><trkpt lat="43.654097" lon="6.6593709"><ele>689.0</ele><time>2026-04-12T07:38:22.916Z</time></trkpt><trkpt lat="43.6540226" lon="6.6594334"><ele>689.0</ele><time>2026-04-12T07:38:23.92Z</time></trkpt><trkpt lat="43.6539552" lon="6.6595218"><ele>689.0</ele><time>2026-04-12T07:38:24.899Z</time></trkpt><trkpt lat="43.6538854" lon="6.6596178"><ele>689.0</ele><time>2026-04-12T07:38:25.92Z</time></trkpt><trkpt lat="43.6538064" lon="6.6597031"><ele>689.0</ele><time>2026-04-12T07:38:26.91Z</time></trkpt><trkpt lat="43.6537069" lon="6.6597578"><ele>689.0</ele><time>2026-04-12T07:38:27.908Z</time></trkpt><trkpt lat="43.6535859" lon="6.6597822"><ele>689.0</ele><time>2026-04-12T07:38:28.922Z</time></trkpt><trkpt lat="43.6534618" lon="6.6597727"><ele>689.0</ele><time>2026-04-12T07:38:29.924Z</time></trkpt><trkpt lat="43.653327" lon="6.6597416"><ele>686.0</ele><time>2026-04-12T07:38:30.906Z</time></trkpt><trkpt lat="43.6532019" lon="6.6597182"><ele>683.0</ele><time>2026-04-12T07:38:31.916Z</time></trkpt><trkpt lat="43.6530814" lon="6.6596953"><ele>680.0</ele><time>2026-04-12T07:38:32.918Z</time></trkpt><trkpt lat="43.652968" lon="6.6597035"><ele>677.0</ele><time>2026-04-12T07:38:33.926Z</time></trkpt><trkpt lat="43.6528678" lon="6.6597764"><ele>677.75</ele><time>2026-04-12T07:38:34.911Z</time></trkpt><trkpt lat="43.6527891" lon="6.6598822"><ele>678.5</ele><time>2026-04-12T07:38:35.887Z</time></trkpt><trkpt lat="43.6527044" lon="6.660003"><ele>679.25</ele><time>2026-04-12T07:38:36.922Z</time></trkpt><trkpt lat="43.6526208" lon="6.6601232"><ele>680.0</ele><time>2026-04-12T07:38:37.919Z</time></trkpt><trkpt lat="43.6525342" lon="6.660244"><ele>677.25</ele><time>2026-04-12T07:38:38.867Z</time></trkpt><trkpt lat="43.652444" lon="6.6603722"><ele>674.5</ele><time>2026-04-12T07:38:39.928Z</time></trkpt><trkpt lat="43.6523452" lon="6.6604955"><ele>671.75</ele><time>2026-04-12T07:38:40.916Z</time></trkpt><trkpt lat="43.6522491" lon="6.6606227"><ele>669.0</ele><time>2026-04-12T07:38:41.889Z</time></trkpt><trkpt lat="43.652155" lon="6.6607498"><ele>669.0</ele><time>2026-04-12T07:38:42.93Z</time></trkpt><trkpt lat="43.6520571" lon="6.6608772"><ele>669.0</ele><time>2026-04-12T07:38:43.902Z</time></trkpt><trkpt lat="43.6519692" lon="6.6610005"><ele>669.0</ele><time>2026-04-12T07:38:44.907Z</time></trkpt><trkpt lat="43.6518824" lon="6.6610975"><ele>669.0</ele><time>2026-04-12T07:38:45.905Z</time></trkpt><trkpt lat="43.6517896" lon="6.6611668"><ele>668.75</ele><time>2026-04-12T07:38:46.912Z</time></trkpt><trkpt lat="43.6516893" lon="6.6611843"><ele>668.5</ele><time>2026-04-12T07:38:47.921Z</time></trkpt><trkpt lat="43.6515896" lon="6.661103"><ele>668.25</ele><time>2026-04-12T07:38:48.903Z</time></trkpt><trkpt lat="43.651509" lon="6.6609793"><ele>668.0</ele><time>2026-04-12T07:38:49.907Z</time></trkpt><trkpt lat="43.6514396" lon="6.6608399"><ele>668.0</ele><time>2026-04-12T07:38:50.929Z</time></trkpt><trkpt lat="43.6513729" lon="6.6607015"><ele>668.0</ele><time>2026-04-12T07:38:51.919Z</time></trkpt><trkpt lat="43.6512978" lon="6.660576"><ele>668.0</ele><time>2026-04-12T07:38:52.916Z</time></trkpt><trkpt lat="43.6512055" lon="6.6604658"><ele>668.0</ele><time>2026-04-12T07:38:53.954Z</time></trkpt><trkpt lat="43.6510896" lon="6.6603847"><ele>664.75</ele><time>2026-04-12T07:38:54.906Z</time></trkpt><trkpt lat="43.650959" lon="6.6603375"><ele>661.5</ele><time>2026-04-12T07:38:55.921Z</time></trkpt><trkpt lat="43.6508334" lon="6.6603107"><ele>658.25</ele><time>2026-04-12T07:38:56.923Z</time></trkpt><trkpt lat="43.6507042" lon="6.6603079"><ele>655.0</ele><time>2026-04-12T07:38:57.924Z</time></trkpt><trkpt lat="43.6505703" lon="6.660321"><ele>655.0</ele><time>2026-04-12T07:38:58.896Z</time></trkpt><trkpt lat="43.6504327" lon="6.6603304"><ele>655.0</ele><time>2026-04-12T07:38:59.934Z</time></trkpt><trkpt lat="43.6502979" lon="6.6603309"><ele>655.0</ele><time>2026-04-12T07:39:00.918Z</time></trkpt><trkpt lat="43.6501595" lon="6.6603122"><ele>655.0</ele><time>2026-04-12T07:39:01.921Z</time></trkpt><trkpt lat="43.6500155" lon="6.6602795"><ele>655.25</ele><time>2026-04-12T07:39:02.919Z</time></trkpt><trkpt lat="43.6498709" lon="6.6602409"><ele>655.5</ele><time>2026-04-12T07:39:03.918Z</time></trkpt><trkpt lat="43.6497291" lon="6.6601963"><ele>655.75</ele><time>2026-04-12T07:39:04.911Z</time></trkpt><trkpt lat="43.6495845" lon="6.660157"><ele>656.0</ele><time>2026-04-12T07:39:05.921Z</time></trkpt><trkpt lat="43.6494339" lon="6.6601136"><ele>656.0</ele><time>2026-04-12T07:39:06.911Z</time></trkpt><trkpt lat="43.6492789" lon="6.6600709"><ele>656.0</ele><time>2026-04-12T07:39:07.92Z</time></trkpt><trkpt lat="43.6491233" lon="6.6600169"><ele>656.0</ele><time>2026-04-12T07:39:08.895Z</time></trkpt><trkpt lat="43.6489651" lon="6.6599687"><ele>656.0</ele><time>2026-04-12T07:39:09.92Z</time></trkpt><trkpt lat="43.6488165" lon="6.6599377"><ele>656.0</ele><time>2026-04-12T07:39:10.914Z</time></trkpt><trkpt lat="43.6486675" lon="6.6599431"><ele>656.0</ele><time>2026-04-12T07:39:11.906Z</time></trkpt><trkpt lat="43.6485203" lon="6.6599609"><ele>656.0</ele><time>2026-04-12T07:39:12.914Z</time></trkpt><trkpt lat="43.6483669" lon="6.659987"><ele>653.3333333333333</ele><time>2026-04-12T07:39:13.908Z</time></trkpt><trkpt lat="43.6482087" lon="6.6600103"><ele>650.6666666666666</ele><time>2026-04-12T07:39:14.942Z</time></trkpt><trkpt lat="43.64805" lon="6.6600367"><ele>648.0</ele><time>2026-04-12T07:39:15.923Z</time></trkpt><trkpt lat="43.6478909" lon="6.6600558"><ele>645.6666666666666</ele><time>2026-04-12T07:39:16.901Z</time></trkpt><trkpt lat="43.647723" lon="6.6600714"><ele>643.3333333333333</ele><time>2026-04-12T07:39:17.922Z</time></trkpt><trkpt lat="43.6475588" lon="6.660076"><ele>641.0</ele><time>2026-04-12T07:39:18.924Z</time></trkpt><trkpt lat="43.6473927" lon="6.6600561"><ele>641.0</ele><time>2026-04-12T07:39:19.905Z</time></trkpt><trkpt lat="43.6472287" lon="6.6600159"><ele>641.0</ele><time>2026-04-12T07:39:20.899Z</time></trkpt><trkpt lat="43.6470732" lon="6.6599746"><ele>641.0</ele><time>2026-04-12T07:39:21.897Z</time></trkpt><trkpt lat="43.646924" lon="6.6599549"><ele>638.1999999999999</ele><time>2026-04-12T07:39:22.919Z</time></trkpt><trkpt lat="43.6467903" lon="6.6599524"><ele>635.4</ele><time>2026-04-12T07:39:23.92Z</time></trkpt><trkpt lat="43.6466736" lon="6.6599521"><ele>632.6</ele><time>2026-04-12T07:39:24.927Z</time></trkpt><trkpt lat="43.646572" lon="6.6599332"><ele>629.8</ele><time>2026-04-12T07:39:25.931Z</time></trkpt><trkpt lat="43.6464983" lon="6.6598703"><ele>627.0</ele><time>2026-04-12T07:39:26.922Z</time></trkpt><trkpt lat="43.6464594" lon="6.6597699"><ele>627.0</ele><time>2026-04-12T07:39:27.912Z</time></trkpt><trkpt lat="43.6464416" lon="6.6596471"><ele>627.0</ele><time>2026-04-12T07:39:28.881Z</time></trkpt><trkpt lat="43.6464464" lon="6.6595072"><ele>627.0</ele><time>2026-04-12T07:39:29.919Z</time></trkpt><trkpt lat="43.6464549" lon="6.6593584"><ele>627.0</ele><time>2026-04-12T07:39:30.915Z</time></trkpt><trkpt lat="43.6464603" lon="6.6592074"><ele>627.0</ele><time>2026-04-12T07:39:31.922Z</time></trkpt><trkpt lat="43.6464881" lon="6.659051"><ele>626.0</ele><time>2026-04-12T07:39:32.874Z</time></trkpt><trkpt lat="43.646536" lon="6.6588865"><ele>625.0</ele><time>2026-04-12T07:39:33.931Z</time></trkpt><trkpt lat="43.6465997" lon="6.6587251"><ele>624.0</ele><time>2026-04-12T07:39:34.93Z</time></trkpt><trkpt lat="43.646672" lon="6.658581"><ele>623.0</ele><time>2026-04-12T07:39:35.925Z</time></trkpt><trkpt lat="43.6467354" lon="6.6584371"><ele>623.0</ele><time>2026-04-12T07:39:36.904Z</time></trkpt><trkpt lat="43.6467908" lon="6.658302"><ele>623.0</ele><time>2026-04-12T07:39:37.932Z</time></trkpt><trkpt lat="43.6468232" lon="6.6581702"><ele>623.0</ele><time>2026-04-12T07:39:38.895Z</time></trkpt><trkpt lat="43.6468114" lon="6.6580296"><ele>623.0</ele><time>2026-04-12T07:39:39.932Z</time></trkpt><trkpt lat="43.646756" lon="6.6579084"><ele>623.0</ele><time>2026-04-12T07:39:40.923Z</time></trkpt><trkpt lat="43.6466589" lon="6.6578083"><ele>625.0</ele><time>2026-04-12T07:39:41.944Z</time></trkpt><trkpt lat="43.6465527" lon="6.6577459"><ele>627.0</ele><time>2026-04-12T07:39:42.908Z</time></trkpt><trkpt lat="43.646433" lon="6.657716"><ele>629.0</ele><time>2026-04-12T07:39:43.899Z</time></trkpt><trkpt lat="43.6463114" lon="6.657668"><ele>631.0</ele><time>2026-04-12T07:39:44.914Z</time></trkpt><trkpt lat="43.6461933" lon="6.6576129"><ele>624.0</ele><time>2026-04-12T07:39:45.905Z</time></trkpt><trkpt lat="43.6460747" lon="6.6575508"><ele>617.0</ele><time>2026-04-12T07:39:46.935Z</time></trkpt><trkpt lat="43.6459718" lon="6.6574488"><ele>610.0</ele><time>2026-04-12T07:39:47.925Z</time></trkpt><trkpt lat="43.6458928" lon="6.6573154"><ele>603.0</ele><time>2026-04-12T07:39:48.902Z</time></trkpt><trkpt lat="43.6458564" lon="6.6571498"><ele>603.0</ele><time>2026-04-12T07:39:49.884Z</time></trkpt><trkpt lat="43.6458481" lon="6.6569818"><ele>603.0</ele><time>2026-04-12T07:39:50.953Z</time></trkpt><trkpt lat="43.6458596" lon="6.6568066"><ele>603.0</ele><time>2026-04-12T07:39:51.894Z</time></trkpt><trkpt lat="43.645861" lon="6.6566272"><ele>603.0</ele><time>2026-04-12T07:39:52.921Z</time></trkpt><trkpt lat="43.6458332" lon="6.6564519"><ele>604.25</ele><time>2026-04-12T07:39:53.916Z</time></trkpt><trkpt lat="43.6457871" lon="6.6562779"><ele>605.5</ele><time>2026-04-12T07:39:54.93Z</time></trkpt><trkpt lat="43.6457227" lon="6.6561172"><ele>606.75</ele><time>2026-04-12T07:39:55.917Z</time></trkpt><trkpt lat="43.645631" lon="6.6559719"><ele>608.0</ele><time>2026-04-12T07:39:56.91Z</time></trkpt><trkpt lat="43.645522" lon="6.6558498"><ele>609.25</ele><time>2026-04-12T07:39:57.93Z</time></trkpt><trkpt lat="43.6454012" lon="6.6557518"><ele>610.5</ele><time>2026-04-12T07:39:58.913Z</time></trkpt><trkpt lat="43.6452892" lon="6.6556347"><ele>611.75</ele><time>2026-04-12T07:39:59.913Z</time></trkpt><trkpt lat="43.6451841" lon="6.6554788"><ele>613.0</ele><time>2026-04-12T07:40:00.915Z</time></trkpt><trkpt lat="43.6450878" lon="6.6553107"><ele>607.6666666666667</ele><time>2026-04-12T07:40:01.941Z</time></trkpt><trkpt lat="43.6449969" lon="6.6551304"><ele>602.3333333333334</ele><time>2026-04-12T07:40:02.92Z</time></trkpt><trkpt lat="43.6449055" lon="6.654938"><ele>597.0</ele><time>2026-04-12T07:40:03.931Z</time></trkpt><trkpt lat="43.6448222" lon="6.6547487"><ele>597.0</ele><time>2026-04-12T07:40:04.915Z</time></trkpt><trkpt lat="43.6447487" lon="6.6545536"><ele>597.0</ele><time>2026-04-12T07:40:05.943Z</time></trkpt><trkpt lat="43.6446815" lon="6.654353"><ele>597.0</ele><time>2026-04-12T07:40:06.911Z</time></trkpt><trkpt lat="43.6446201" lon="6.6541629"><ele>597.5</ele><time>2026-04-12T07:40:07.924Z</time></trkpt><trkpt lat="43.6445686" lon="6.6539841"><ele>598.0</ele><time>2026-04-12T07:40:08.932Z</time></trkpt><trkpt lat="43.6445316" lon="6.6538092"><ele>598.5</ele><time>2026-04-12T07:40:09.91Z</time></trkpt><trkpt lat="43.6445206" lon="6.6536399"><ele>599.0</ele><time>2026-04-12T07:40:10.928Z</time></trkpt><trkpt lat="43.6445483" lon="6.6534721"><ele>597.5</ele><time>2026-04-12T07:40:11.931Z</time></trkpt><trkpt lat="43.6446031" lon="6.6533169"><ele>596.0</ele><time>2026-04-12T07:40:12.881Z</time></trkpt><trkpt lat="43.6446883" lon="6.6531696"><ele>594.5</ele><time>2026-04-12T07:40:13.925Z</time></trkpt><trkpt lat="43.6447783" lon="6.6530361"><ele>593.0</ele><time>2026-04-12T07:40:14.897Z</time></trkpt><trkpt lat="43.6448745" lon="6.6529123"><ele>589.75</ele><time>2026-04-12T07:40:15.925Z</time></trkpt><trkpt lat="43.6449813" lon="6.6527802"><ele>586.5</ele><time>2026-04-12T07:40:16.964Z</time></trkpt><trkpt lat="43.6450873" lon="6.6526539"><ele>583.25</ele><time>2026-04-12T07:40:17.925Z</time></trkpt><trkpt lat="43.6451887" lon="6.6525403"><ele>580.0</ele><time>2026-04-12T07:40:18.929Z</time></trkpt><trkpt lat="43.6452717" lon="6.6524463"><ele>580.0</ele><time>2026-04-12T07:40:19.869Z</time></trkpt><trkpt lat="43.6453261" lon="6.6523679"><ele>580.0</ele><time>2026-04-12T07:40:20.914Z</time></trkpt><trkpt lat="43.6453539" lon="6.652283"><ele>580.0</ele><time>2026-04-12T07:40:21.915Z</time></trkpt><trkpt lat="43.6453221" lon="6.6522008"><ele>580.0</ele><time>2026-04-12T07:40:22.886Z</time></trkpt><trkpt lat="43.645255" lon="6.652157"><ele>580.0</ele><time>2026-04-12T07:40:23.916Z</time></trkpt><trkpt lat="43.6451721" lon="6.6521819"><ele>580.0</ele><time>2026-04-12T07:40:24.924Z</time></trkpt><trkpt lat="43.6450946" lon="6.6522564"><ele>580.0</ele><time>2026-04-12T07:40:25.912Z</time></trkpt><trkpt lat="43.6450151" lon="6.6523433"><ele>580.0</ele><time>2026-04-12T07:40:26.911Z</time></trkpt><trkpt lat="43.6449217" lon="6.6524182"><ele>580.0</ele><time>2026-04-12T07:40:27.939Z</time></trkpt><trkpt lat="43.6448251" lon="6.6524806"><ele>580.0</ele><time>2026-04-12T07:40:28.943Z</time></trkpt><trkpt lat="43.6447147" lon="6.6525351"><ele>580.0</ele><time>2026-04-12T07:40:29.907Z</time></trkpt><trkpt lat="43.6446012" lon="6.6525973"><ele>580.0</ele><time>2026-04-12T07:40:30.904Z</time></trkpt><trkpt lat="43.644487" lon="6.6526693"><ele>580.0</ele><time>2026-04-12T07:40:31.933Z</time></trkpt><trkpt lat="43.6443746" lon="6.6527655"><ele>580.0</ele><time>2026-04-12T07:40:32.91Z</time></trkpt><trkpt lat="43.6442682" lon="6.6528801"><ele>580.0</ele><time>2026-04-12T07:40:33.924Z</time></trkpt><trkpt lat="43.6441683" lon="6.6530203"><ele>578.5</ele><time>2026-04-12T07:40:34.927Z</time></trkpt><trkpt lat="43.6440862" lon="6.6531844"><ele>577.0</ele><time>2026-04-12T07:40:35.904Z</time></trkpt><trkpt lat="43.6440163" lon="6.6533603"><ele>575.5</ele><time>2026-04-12T07:40:36.894Z</time></trkpt><trkpt lat="43.6439491" lon="6.6535451"><ele>574.0</ele><time>2026-04-12T07:40:37.884Z</time></trkpt><trkpt lat="43.6438866" lon="6.6537355"><ele>574.0</ele><time>2026-04-12T07:40:38.906Z</time></trkpt><trkpt lat="43.6438297" lon="6.6539334"><ele>574.0</ele><time>2026-04-12T07:40:39.91Z</time></trkpt><trkpt lat="43.6437786" lon="6.6541331"><ele>574.0</ele><time>2026-04-12T07:40:40.896Z</time></trkpt><trkpt lat="43.6445206" lon="6.6536399"><ele>578.75</ele><time>2026-04-12T07:40:10.928Z</time></trkpt><trkpt lat="43.6445483" lon="6.6534721"><ele>583.5</ele><time>2026-04-12T07:40:11.931Z</time></trkpt><trkpt lat="43.6446031" lon="6.6533169"><ele>588.25</ele><time>2026-04-12T07:40:12.881Z</time></trkpt><trkpt lat="43.6446883" lon="6.6531696"><ele>593.0</ele><time>2026-04-12T07:40:13.925Z</time></trkpt><trkpt lat="43.6447783" lon="6.6530361"><ele>593.0</ele><time>2026-04-12T07:40:14.897Z</time></trkpt><trkpt lat="43.6448745" lon="6.6529123"><ele>593.0</ele><time>2026-04-12T07:40:15.925Z</time></trkpt><trkpt lat="43.6449813" lon="6.6527802"><ele>593.0</ele><time>2026-04-12T07:40:16.964Z</time></trkpt><trkpt lat="43.6450873" lon="6.6526539"><ele>593.0</ele><time>2026-04-12T07:40:17.925Z</time></trkpt><trkpt lat="43.6451887" lon="6.6525403"><ele>593.1666666666666</ele><time>2026-04-12T07:40:18.929Z</time></trkpt><trkpt lat="43.6452717" lon="6.6524463"><ele>593.3333333333333</ele><time>2026-04-12T07:40:19.869Z</time></trkpt><trkpt lat="43.6453261" lon="6.6523679"><ele>593.5</ele><time>2026-04-12T07:40:20.914Z</time></trkpt><trkpt lat="43.6453539" lon="6.652283"><ele>593.6666666666666</ele><time>2026-04-12T07:40:21.915Z</time></trkpt><trkpt lat="43.6453221" lon="6.6522008"><ele>593.8333333333334</ele><time>2026-04-12T07:40:22.886Z</time></trkpt><trkpt lat="43.645255" lon="6.652157"><ele>594.0</ele><time>2026-04-12T07:40:23.916Z</time></trkpt><trkpt lat="43.6451721" lon="6.6521819"><ele>591.2</ele><time>2026-04-12T07:40:24.924Z</time></trkpt><trkpt lat="43.6450946" lon="6.6522564"><ele>588.4</ele><time>2026-04-12T07:40:25.912Z</time></trkpt><trkpt lat="43.6450151" lon="6.6523433"><ele>585.6</ele><time>2026-04-12T07:40:26.911Z</time></trkpt><trkpt lat="43.6449217" lon="6.6524182"><ele>582.8</ele><time>2026-04-12T07:40:27.939Z</time></trkpt><trkpt lat="43.6448251" lon="6.6524806"><ele>580.0</ele><time>2026-04-12T07:40:28.943Z</time></trkpt><trkpt lat="43.6447147" lon="6.6525351"><ele>580.0</ele><time>2026-04-12T07:40:29.907Z</time></trkpt><trkpt lat="43.6446012" lon="6.6525973"><ele>580.0</ele><time>2026-04-12T07:40:30.904Z</time></trkpt><trkpt lat="43.644487" lon="6.6526693"><ele>580.0</ele><time>2026-04-12T07:40:31.933Z</time></trkpt><trkpt lat="43.6443746" lon="6.6527655"><ele>580.0</ele><time>2026-04-12T07:40:32.91Z</time></trkpt><trkpt lat="43.6442682" lon="6.6528801"><ele>577.75</ele><time>2026-04-12T07:40:33.924Z</time></trkpt><trkpt lat="43.6441683" lon="6.6530203"><ele>575.5</ele><time>2026-04-12T07:40:34.927Z</time></trkpt><trkpt lat="43.6440862" lon="6.6531844"><ele>573.25</ele><time>2026-04-12T07:40:35.904Z</time></trkpt><trkpt lat="43.6440163" lon="6.6533603"><ele>571.0</ele><time>2026-04-12T07:40:36.894Z</time></trkpt><trkpt lat="43.6439491" lon="6.6535451"><ele>572.0</ele><time>2026-04-12T07:40:37.884Z</time></trkpt><trkpt lat="43.6438866" lon="6.6537355"><ele>573.0</ele><time>2026-04-12T07:40:38.906Z</time></trkpt><trkpt lat="43.6438297" lon="6.6539334"><ele>574.0</ele><time>2026-04-12T07:40:39.91Z</time></trkpt><trkpt lat="43.6437786" lon="6.6541331"><ele>574.0</ele><time>2026-04-12T07:40:40.896Z</time></trkpt><trkpt lat="43.6437369" lon="6.6543412"><ele>574.0</ele><time>2026-04-12T07:40:41.921Z</time></trkpt><trkpt lat="43.6437035" lon="6.6545494"><ele>574.0</ele><time>2026-04-12T07:40:42.932Z</time></trkpt><trkpt lat="43.6436739" lon="6.6547402"><ele>573.75</ele><time>2026-04-12T07:40:43.918Z</time></trkpt><trkpt lat="43.643651" lon="6.65493"><ele>573.5</ele><time>2026-04-12T07:40:44.91Z</time></trkpt><trkpt lat="43.6436488" lon="6.6551257"><ele>573.25</ele><time>2026-04-12T07:40:45.894Z</time></trkpt><trkpt lat="43.6436777" lon="6.6553141"><ele>573.0</ele><time>2026-04-12T07:40:46.908Z</time></trkpt><trkpt lat="43.6437228" lon="6.6555032"><ele>571.75</ele><time>2026-04-12T07:40:47.938Z</time></trkpt><trkpt lat="43.643726" lon="6.6556833"><ele>570.5</ele><time>2026-04-12T07:40:48.948Z</time></trkpt><trkpt lat="43.6436856" lon="6.655867"><ele>569.25</ele><time>2026-04-12T07:40:49.913Z</time></trkpt><trkpt lat="43.6436256" lon="6.6560396"><ele>568.0</ele><time>2026-04-12T07:40:50.913Z</time></trkpt><trkpt lat="43.6435691" lon="6.6562053"><ele>560.75</ele><time>2026-04-12T07:40:51.92Z</time></trkpt><trkpt lat="43.6435297" lon="6.6563793"><ele>553.5</ele><time>2026-04-12T07:40:52.922Z</time></trkpt><trkpt lat="43.6435053" lon="6.6565495"><ele>546.25</ele><time>2026-04-12T07:40:53.919Z</time></trkpt><trkpt lat="43.6435168" lon="6.6567145"><ele>539.0</ele><time>2026-04-12T07:40:54.921Z</time></trkpt><trkpt lat="43.6435675" lon="6.6568539"><ele>543.25</ele><time>2026-04-12T07:40:55.927Z</time></trkpt><trkpt lat="43.6436576" lon="6.6569791"><ele>547.5</ele><time>2026-04-12T07:40:56.917Z</time></trkpt><trkpt lat="43.6437313" lon="6.6571247"><ele>551.75</ele><time>2026-04-12T07:40:57.922Z</time></trkpt><trkpt lat="43.6437562" lon="6.6572978"><ele>556.0</ele><time>2026-04-12T07:40:58.927Z</time></trkpt><trkpt lat="43.6437557" lon="6.6574924"><ele>556.0</ele><time>2026-04-12T07:40:59.941Z</time></trkpt><trkpt lat="43.6437593" lon="6.6576794"><ele>556.0</ele><time>2026-04-12T07:41:00.912Z</time></trkpt><trkpt lat="43.6437811" lon="6.6578552"><ele>556.0</ele><time>2026-04-12T07:41:01.886Z</time></trkpt><trkpt lat="43.6438442" lon="6.6579963"><ele>556.0</ele><time>2026-04-12T07:41:02.885Z</time></trkpt><trkpt lat="43.6439406" lon="6.6581023"><ele>554.1666666666667</ele><time>2026-04-12T07:41:03.883Z</time></trkpt><trkpt lat="43.6440371" lon="6.6581885"><ele>552.3333333333334</ele><time>2026-04-12T07:41:04.901Z</time></trkpt><trkpt lat="43.644097" lon="6.6582683"><ele>550.5</ele><time>2026-04-12T07:41:05.883Z</time></trkpt><trkpt lat="43.6441091" lon="6.6583639"><ele>548.6666666666666</ele><time>2026-04-12T07:41:06.906Z</time></trkpt><trkpt lat="43.6440791" lon="6.6584515"><ele>546.8333333333333</ele><time>2026-04-12T07:41:07.888Z</time></trkpt><trkpt lat="43.6440002" lon="6.6584623"><ele>545.0</ele><time>2026-04-12T07:41:08.889Z</time></trkpt><trkpt lat="43.6439176" lon="6.6584291"><ele>545.0</ele><time>2026-04-12T07:41:09.88Z</time></trkpt><trkpt lat="43.6438317" lon="6.6583744"><ele>545.0</ele><time>2026-04-12T07:41:10.903Z</time></trkpt><trkpt lat="43.6437471" lon="6.6582964"><ele>545.0</ele><time>2026-04-12T07:41:11.916Z</time></trkpt><trkpt lat="43.6436703" lon="6.6582026"><ele>545.0</ele><time>2026-04-12T07:41:12.93Z</time></trkpt><trkpt lat="43.643601" lon="6.6580767"><ele>545.0</ele><time>2026-04-12T07:41:13.919Z</time></trkpt><trkpt lat="43.6435388" lon="6.6579371"><ele>542.25</ele><time>2026-04-12T07:41:14.911Z</time></trkpt><trkpt lat="43.6434701" lon="6.6577837"><ele>539.5</ele><time>2026-04-12T07:41:15.928Z</time></trkpt><trkpt lat="43.6433892" lon="6.6576503"><ele>536.75</ele><time>2026-04-12T07:41:16.937Z</time></trkpt><trkpt lat="43.6432844" lon="6.6575502"><ele>534.0</ele><time>2026-04-12T07:41:17.934Z</time></trkpt><trkpt lat="43.64317" lon="6.6574808"><ele>534.0</ele><time>2026-04-12T07:41:18.906Z</time></trkpt><trkpt lat="43.6430883" lon="6.6573579"><ele>534.0</ele><time>2026-04-12T07:41:19.933Z</time></trkpt><trkpt lat="43.6430462" lon="6.6571735"><ele>534.0</ele><time>2026-04-12T07:41:20.92Z</time></trkpt><trkpt lat="43.6430234" lon="6.6569895"><ele>534.0</ele><time>2026-04-12T07:41:21.904Z</time></trkpt><trkpt lat="43.6429972" lon="6.6568022"><ele>535.25</ele><time>2026-04-12T07:41:22.939Z</time></trkpt><trkpt lat="43.6429432" lon="6.6566249"><ele>536.5</ele><time>2026-04-12T07:41:23.964Z</time></trkpt><trkpt lat="43.6428668" lon="6.6564495"><ele>537.75</ele><time>2026-04-12T07:41:24.885Z</time></trkpt><trkpt lat="43.642795" lon="6.6562725"><ele>539.0</ele><time>2026-04-12T07:41:25.947Z</time></trkpt><trkpt lat="43.6427406" lon="6.6560893"><ele>533.5</ele><time>2026-04-12T07:41:26.918Z</time></trkpt><trkpt lat="43.6427023" lon="6.655898"><ele>528.0</ele><time>2026-04-12T07:41:27.917Z</time></trkpt><trkpt lat="43.6426294" lon="6.6557225"><ele>522.5</ele><time>2026-04-12T07:41:28.889Z</time></trkpt><trkpt lat="43.6425235" lon="6.6555807"><ele>517.0</ele><time>2026-04-12T07:41:29.899Z</time></trkpt><trkpt lat="43.6424203" lon="6.6554487"><ele>518.75</ele><time>2026-04-12T07:41:30.918Z</time></trkpt><trkpt lat="43.6423497" lon="6.6552803"><ele>520.5</ele><time>2026-04-12T07:41:31.931Z</time></trkpt><trkpt lat="43.6423171" lon="6.6551082"><ele>522.25</ele><time>2026-04-12T07:41:32.946Z</time></trkpt><trkpt lat="43.6423016" lon="6.6549288"><ele>524.0</ele><time>2026-04-12T07:41:33.891Z</time></trkpt><trkpt lat="43.6422961" lon="6.6547316"><ele>524.0</ele><time>2026-04-12T07:41:34.923Z</time></trkpt><trkpt lat="43.6422943" lon="6.6545368"><ele>524.0</ele><time>2026-04-12T07:41:35.921Z</time></trkpt><trkpt lat="43.6422893" lon="6.6543398"><ele>524.0</ele><time>2026-04-12T07:41:36.918Z</time></trkpt><trkpt lat="43.6422826" lon="6.6541371"><ele>524.0</ele><time>2026-04-12T07:41:37.916Z</time></trkpt><trkpt lat="43.6422764" lon="6.6539318"><ele>523.3333333333333</ele><time>2026-04-12T07:41:38.952Z</time></trkpt><trkpt lat="43.6422745" lon="6.6537254"><ele>522.6666666666666</ele><time>2026-04-12T07:41:39.935Z</time></trkpt><trkpt lat="43.6422786" lon="6.6535204"><ele>522.0</ele><time>2026-04-12T07:41:40.903Z</time></trkpt><trkpt lat="43.6422971" lon="6.6533122"><ele>519.6666666666666</ele><time>2026-04-12T07:41:41.933Z</time></trkpt><trkpt lat="43.6423316" lon="6.653101"><ele>517.3333333333333</ele><time>2026-04-12T07:41:42.912Z</time></trkpt><trkpt lat="43.6423739" lon="6.6528942"><ele>515.0</ele><time>2026-04-12T07:41:43.919Z</time></trkpt><trkpt lat="43.6424155" lon="6.6526804"><ele>512.3333333333333</ele><time>2026-04-12T07:41:44.944Z</time></trkpt><trkpt lat="43.642457" lon="6.6524627"><ele>509.66666666666663</ele><time>2026-04-12T07:41:45.912Z</time></trkpt><trkpt lat="43.6424874" lon="6.6522376"><ele>507.0</ele><time>2026-04-12T07:41:46.923Z</time></trkpt><trkpt lat="43.6425157" lon="6.6520227"><ele>503.0</ele><time>2026-04-12T07:41:47.91Z</time></trkpt><trkpt lat="43.6425679" lon="6.6518128"><ele>499.0</ele><time>2026-04-12T07:41:48.939Z</time></trkpt><trkpt lat="43.6426418" lon="6.6516193"><ele>495.0</ele><time>2026-04-12T07:41:49.942Z</time></trkpt><trkpt lat="43.6427424" lon="6.6514473"><ele>497.0</ele><time>2026-04-12T07:41:50.917Z</time></trkpt><trkpt lat="43.6428586" lon="6.6513012"><ele>499.0</ele><time>2026-04-12T07:41:51.898Z</time></trkpt><trkpt lat="43.6429964" lon="6.6511683"><ele>501.0</ele><time>2026-04-12T07:41:52.894Z</time></trkpt><trkpt lat="43.6431158" lon="6.6510382"><ele>501.0</ele><time>2026-04-12T07:41:53.893Z</time></trkpt><trkpt lat="43.643215" lon="6.6508762"><ele>501.0</ele><time>2026-04-12T07:41:54.92Z</time></trkpt><trkpt lat="43.6433049" lon="6.6507046"><ele>501.0</ele><time>2026-04-12T07:41:55.912Z</time></trkpt><trkpt lat="43.6433834" lon="6.6505256"><ele>501.0</ele><time>2026-04-12T07:41:56.936Z</time></trkpt><trkpt lat="43.643467" lon="6.6503627"><ele>501.0</ele><time>2026-04-12T07:41:57.921Z</time></trkpt><trkpt lat="43.6435726" lon="6.650259"><ele>501.0</ele><time>2026-04-12T07:41:58.909Z</time></trkpt><trkpt lat="43.6437096" lon="6.6501909"><ele>501.0</ele><time>2026-04-12T07:41:59.92Z</time></trkpt><trkpt lat="43.643823" lon="6.6500661"><ele>500.5</ele><time>2026-04-12T07:42:00.909Z</time></trkpt><trkpt lat="43.6439036" lon="6.6498969"><ele>500.0</ele><time>2026-04-12T07:42:01.924Z</time></trkpt><trkpt lat="43.643997" lon="6.6497441"><ele>499.5</ele><time>2026-04-12T07:42:02.927Z</time></trkpt><trkpt lat="43.6441093" lon="6.6496783"><ele>499.0</ele><time>2026-04-12T07:42:03.921Z</time></trkpt><trkpt lat="43.6442341" lon="6.6496777"><ele>499.00000000000006</ele><time>2026-04-12T07:42:04.914Z</time></trkpt><trkpt lat="43.6443409" lon="6.6496598"><ele>499.0</ele><time>2026-04-12T07:42:05.914Z</time></trkpt><trkpt lat="43.6444061" lon="6.6496054"><ele>499.0</ele><time>2026-04-12T07:42:06.919Z</time></trkpt><trkpt lat="43.6444234" lon="6.6495201"><ele>499.0</ele><time>2026-04-12T07:42:07.909Z</time></trkpt><trkpt lat="43.6443752" lon="6.6494619"><ele>499.00000000000006</ele><time>2026-04-12T07:42:08.925Z</time></trkpt><trkpt lat="43.6443022" lon="6.6494634"><ele>499.0</ele><time>2026-04-12T07:42:09.925Z</time></trkpt><trkpt lat="43.6442218" lon="6.6495154"><ele>499.0</ele><time>2026-04-12T07:42:10.916Z</time></trkpt><trkpt lat="43.6441442" lon="6.6495711"><ele>499.0</ele><time>2026-04-12T07:42:11.91Z</time></trkpt><trkpt lat="43.6440638" lon="6.6496125"><ele>499.0</ele><time>2026-04-12T07:42:12.923Z</time></trkpt><trkpt lat="43.6439759" lon="6.6496533"><ele>499.0</ele><time>2026-04-12T07:42:13.94Z</time></trkpt><trkpt lat="43.6438792" lon="6.6496913"><ele>499.0</ele><time>2026-04-12T07:42:14.911Z</time></trkpt><trkpt lat="43.6437708" lon="6.6497311"><ele>499.0</ele><time>2026-04-12T07:42:15.916Z</time></trkpt><trkpt lat="43.643657" lon="6.6497913"><ele>499.0</ele><time>2026-04-12T07:42:16.867Z</time></trkpt><trkpt lat="43.6435534" lon="6.6498907"><ele>499.0</ele><time>2026-04-12T07:42:17.945Z</time></trkpt><trkpt lat="43.6434471" lon="6.649978"><ele>499.0</ele><time>2026-04-12T07:42:18.925Z</time></trkpt><trkpt lat="43.6433298" lon="6.6500338"><ele>494.0</ele><time>2026-04-12T07:42:19.912Z</time></trkpt><trkpt lat="43.6431965" lon="6.65004"><ele>489.0</ele><time>2026-04-12T07:42:20.933Z</time></trkpt><trkpt lat="43.6430805" lon="6.6500897"><ele>484.0</ele><time>2026-04-12T07:42:21.926Z</time></trkpt><trkpt lat="43.6429675" lon="6.6501804"><ele>479.0</ele><time>2026-04-12T07:42:22.928Z</time></trkpt><trkpt lat="43.6428533" lon="6.6502723"><ele>479.5</ele><time>2026-04-12T07:42:23.907Z</time></trkpt><trkpt lat="43.6427232" lon="6.6503458"><ele>480.0</ele><time>2026-04-12T07:42:24.923Z</time></trkpt><trkpt lat="43.6425788" lon="6.6503832"><ele>480.5</ele><time>2026-04-12T07:42:25.922Z</time></trkpt><trkpt lat="43.6424279" lon="6.6504171"><ele>481.0</ele><time>2026-04-12T07:42:26.896Z</time></trkpt><trkpt lat="43.6422764" lon="6.6504303"><ele>481.0</ele><time>2026-04-12T07:42:27.93Z</time></trkpt><trkpt lat="43.6421276" lon="6.6504631"><ele>481.0</ele><time>2026-04-12T07:42:28.911Z</time></trkpt><trkpt lat="43.6419733" lon="6.6505056"><ele>481.0</ele><time>2026-04-12T07:42:29.924Z</time></trkpt><trkpt lat="43.6418185" lon="6.6505521"><ele>477.75</ele><time>2026-04-12T07:42:30.914Z</time></trkpt><trkpt lat="43.6416661" lon="6.6506062"><ele>474.5</ele><time>2026-04-12T07:42:31.919Z</time></trkpt><trkpt lat="43.6415166" lon="6.6506414"><ele>471.25</ele><time>2026-04-12T07:42:32.932Z</time></trkpt><trkpt lat="43.6413819" lon="6.6506473"><ele>468.0</ele><time>2026-04-12T07:42:33.929Z</time></trkpt><trkpt lat="43.6412616" lon="6.6506233"><ele>468.0</ele><time>2026-04-12T07:42:34.935Z</time></trkpt><trkpt lat="43.6411504" lon="6.6506186"><ele>468.0</ele><time>2026-04-12T07:42:35.921Z</time></trkpt><trkpt lat="43.6410485" lon="6.6506616"><ele>468.0</ele><time>2026-04-12T07:42:36.93Z</time></trkpt><trkpt lat="43.6409696" lon="6.650775"><ele>468.0</ele><time>2026-04-12T07:42:37.939Z</time></trkpt><trkpt lat="43.6409239" lon="6.6509315"><ele>463.25</ele><time>2026-04-12T07:42:38.892Z</time></trkpt><trkpt lat="43.640912" lon="6.6510845"><ele>458.5</ele><time>2026-04-12T07:42:39.906Z</time></trkpt><trkpt lat="43.6409148" lon="6.6512552"><ele>453.75</ele><time>2026-04-12T07:42:40.91Z</time></trkpt><trkpt lat="43.6409118" lon="6.6514225"><ele>449.0</ele><time>2026-04-12T07:42:41.928Z</time></trkpt><trkpt lat="43.6409038" lon="6.6516121"><ele>449.0</ele><time>2026-04-12T07:42:42.909Z</time></trkpt><trkpt lat="43.6408796" lon="6.6518004"><ele>449.0</ele><time>2026-04-12T07:42:43.918Z</time></trkpt><trkpt lat="43.6408434" lon="6.6519841"><ele>449.0</ele><time>2026-04-12T07:42:44.869Z</time></trkpt><trkpt lat="43.6407952" lon="6.6521643"><ele>449.0</ele><time>2026-04-12T07:42:45.925Z</time></trkpt><trkpt lat="43.640716" lon="6.6523083"><ele>450.75</ele><time>2026-04-12T07:42:46.936Z</time></trkpt><trkpt lat="43.6406019" lon="6.652409"><ele>452.5</ele><time>2026-04-12T07:42:47.876Z</time></trkpt><trkpt lat="43.6404765" lon="6.652463"><ele>454.25</ele><time>2026-04-12T07:42:48.898Z</time></trkpt><trkpt lat="43.6403433" lon="6.6525011"><ele>456.0</ele><time>2026-04-12T07:42:49.938Z</time></trkpt><trkpt lat="43.6402075" lon="6.6525492"><ele>454.25</ele><time>2026-04-12T07:42:50.917Z</time></trkpt><trkpt lat="43.6400702" lon="6.6526067"><ele>452.5</ele><time>2026-04-12T07:42:51.924Z</time></trkpt><trkpt lat="43.6399357" lon="6.6526871"><ele>450.75</ele><time>2026-04-12T07:42:52.885Z</time></trkpt><trkpt lat="43.6397985" lon="6.6527615"><ele>449.0</ele><time>2026-04-12T07:42:53.943Z</time></trkpt><trkpt lat="43.6396652" lon="6.6528464"><ele>449.0</ele><time>2026-04-12T07:42:54.887Z</time></trkpt><trkpt lat="43.6395356" lon="6.6529491"><ele>449.0</ele><time>2026-04-12T07:42:55.916Z</time></trkpt><trkpt lat="43.6394162" lon="6.6530794"><ele>449.0</ele><time>2026-04-12T07:42:56.906Z</time></trkpt><trkpt lat="43.6393204" lon="6.6532369"><ele>444.0</ele><time>2026-04-12T07:42:57.924Z</time></trkpt><trkpt lat="43.6392719" lon="6.6534084"><ele>439.0</ele><time>2026-04-12T07:42:58.926Z</time></trkpt><trkpt lat="43.6392648" lon="6.6535724"><ele>434.0</ele><time>2026-04-12T07:42:59.931Z</time></trkpt><trkpt lat="43.6393044" lon="6.6537317"><ele>429.0</ele><time>2026-04-12T07:43:00.89Z</time></trkpt><trkpt lat="43.6393908" lon="6.6538717"><ele>427.6</ele><time>2026-04-12T07:43:01.941Z</time></trkpt><trkpt lat="43.6394647" lon="6.6539817"><ele>426.2</ele><time>2026-04-12T07:43:02.923Z</time></trkpt><trkpt lat="43.6394914" lon="6.6540897"><ele>424.8</ele><time>2026-04-12T07:43:03.925Z</time></trkpt><trkpt lat="43.6394533" lon="6.6541969"><ele>423.40000000000003</ele><time>2026-04-12T07:43:04.918Z</time></trkpt><trkpt lat="43.6393623" lon="6.6542444"><ele>422.0</ele><time>2026-04-12T07:43:05.944Z</time></trkpt><trkpt lat="43.6392738" lon="6.6542135"><ele>422.0</ele><time>2026-04-12T07:43:06.921Z</time></trkpt><trkpt lat="43.6392087" lon="6.6541317"><ele>422.0</ele><time>2026-04-12T07:43:07.915Z</time></trkpt><trkpt lat="43.6391462" lon="6.6540245"><ele>422.0</ele><time>2026-04-12T07:43:08.912Z</time></trkpt><trkpt lat="43.6390811" lon="6.6539112"><ele>422.0</ele><time>2026-04-12T07:43:09.934Z</time></trkpt><trkpt lat="43.6390127" lon="6.6537834"><ele>422.0</ele><time>2026-04-12T07:43:10.915Z</time></trkpt><trkpt lat="43.6389445" lon="6.653652"><ele>423.75</ele><time>2026-04-12T07:43:11.898Z</time></trkpt><trkpt lat="43.6388697" lon="6.6535046"><ele>425.5</ele><time>2026-04-12T07:43:12.91Z</time></trkpt><trkpt lat="43.638801" lon="6.6533506"><ele>427.25</ele><time>2026-04-12T07:43:13.922Z</time></trkpt><trkpt lat="43.6387443" lon="6.6531806"><ele>429.0</ele><time>2026-04-12T07:43:14.917Z</time></trkpt><trkpt lat="43.6386959" lon="6.6530197"><ele>429.0</ele><time>2026-04-12T07:43:15.876Z</time></trkpt><trkpt lat="43.6386868" lon="6.652864"><ele>429.0</ele><time>2026-04-12T07:43:16.921Z</time></trkpt><trkpt lat="43.638727" lon="6.6527277"><ele>429.0</ele><time>2026-04-12T07:43:17.936Z</time></trkpt><trkpt lat="43.6388121" lon="6.6526155"><ele>429.0</ele><time>2026-04-12T07:43:18.91Z</time></trkpt><trkpt lat="43.6389267" lon="6.6525315"><ele>427.25</ele><time>2026-04-12T07:43:19.924Z</time></trkpt><trkpt lat="43.6390369" lon="6.6524274"><ele>425.5</ele><time>2026-04-12T07:43:20.93Z</time></trkpt><trkpt lat="43.6391477" lon="6.6523182"><ele>423.75</ele><time>2026-04-12T07:43:21.93Z</time></trkpt><trkpt lat="43.6392451" lon="6.6521986"><ele>422.0</ele><time>2026-04-12T07:43:22.915Z</time></trkpt><trkpt lat="43.6393346" lon="6.6520654"><ele>418.75</ele><time>2026-04-12T07:43:23.922Z</time></trkpt><trkpt lat="43.639388" lon="6.6519061"><ele>415.5</ele><time>2026-04-12T07:43:24.926Z</time></trkpt><trkpt lat="43.6393963" lon="6.6517267"><ele>412.25</ele><time>2026-04-12T07:43:25.93Z</time></trkpt><trkpt lat="43.6393784" lon="6.6515396"><ele>409.0</ele><time>2026-04-12T07:43:26.932Z</time></trkpt><trkpt lat="43.6393598" lon="6.6513547"><ele>409.0</ele><time>2026-04-12T07:43:27.917Z</time></trkpt><trkpt lat="43.6393381" lon="6.651176"><ele>409.0</ele><time>2026-04-12T07:43:28.902Z</time></trkpt><trkpt lat="43.6393158" lon="6.6509959"><ele>409.0</ele><time>2026-04-12T07:43:29.93Z</time></trkpt><trkpt lat="43.6392955" lon="6.6508121"><ele>409.0</ele><time>2026-04-12T07:43:30.94Z</time></trkpt><trkpt lat="43.639275" lon="6.6506305"><ele>407.5</ele><time>2026-04-12T07:43:31.904Z</time></trkpt><trkpt lat="43.6392686" lon="6.6504495"><ele>406.0</ele><time>2026-04-12T07:43:32.911Z</time></trkpt><trkpt lat="43.639277" lon="6.6502604"><ele>404.5</ele><time>2026-04-12T07:43:33.901Z</time></trkpt><trkpt lat="43.6392993" lon="6.6500747"><ele>403.0</ele><time>2026-04-12T07:43:34.944Z</time></trkpt><trkpt lat="43.6393304" lon="6.6498841"><ele>401.75</ele><time>2026-04-12T07:43:35.92Z</time></trkpt><trkpt lat="43.6393676" lon="6.6497136"><ele>400.5</ele><time>2026-04-12T07:43:36.931Z</time></trkpt><trkpt lat="43.6393974" lon="6.6495489"><ele>399.25</ele><time>2026-04-12T07:43:37.927Z</time></trkpt><trkpt lat="43.6394082" lon="6.6493895"><ele>398.0</ele><time>2026-04-12T07:43:38.927Z</time></trkpt><trkpt lat="43.639383" lon="6.6492274"><ele>398.0</ele><time>2026-04-12T07:43:39.922Z</time></trkpt><trkpt lat="43.6393099" lon="6.6490834"><ele>398.0</ele><time>2026-04-12T07:43:40.925Z</time></trkpt><trkpt lat="43.639225" lon="6.6489581"><ele>398.0</ele><time>2026-04-12T07:43:41.927Z</time></trkpt><trkpt lat="43.6391241" lon="6.648847"><ele>398.0</ele><time>2026-04-12T07:43:42.917Z</time></trkpt><trkpt lat="43.6390053" lon="6.6487728"><ele>398.0</ele><time>2026-04-12T07:43:43.924Z</time></trkpt><trkpt lat="43.6388811" lon="6.6487063"><ele>398.0</ele><time>2026-04-12T07:43:44.901Z</time></trkpt><trkpt lat="43.6387713" lon="6.6486081"><ele>398.0</ele><time>2026-04-12T07:43:45.911Z</time></trkpt><trkpt lat="43.638688" lon="6.6484858"><ele>398.0</ele><time>2026-04-12T07:43:46.935Z</time></trkpt><trkpt lat="43.6386143" lon="6.648349"><ele>397.25</ele><time>2026-04-12T07:43:47.926Z</time></trkpt><trkpt lat="43.6385374" lon="6.648212"><ele>396.5</ele><time>2026-04-12T07:43:48.941Z</time></trkpt><trkpt lat="43.6384692" lon="6.6480533"><ele>395.75</ele><time>2026-04-12T07:43:49.919Z</time></trkpt><trkpt lat="43.6384021" lon="6.6478938"><ele>395.0</ele><time>2026-04-12T07:43:50.933Z</time></trkpt><trkpt lat="43.6383406" lon="6.6477374"><ele>394.4</ele><time>2026-04-12T07:43:51.893Z</time></trkpt><trkpt lat="43.6382782" lon="6.6475841"><ele>393.8</ele><time>2026-04-12T07:43:52.915Z</time></trkpt><trkpt lat="43.6382147" lon="6.6474597"><ele>393.20000000000005</ele><time>2026-04-12T07:43:53.942Z</time></trkpt><trkpt lat="43.6381577" lon="6.6473592"><ele>392.6</ele><time>2026-04-12T07:43:54.894Z</time></trkpt><trkpt lat="43.6381023" lon="6.6473042"><ele>392.0</ele><time>2026-04-12T07:43:55.914Z</time></trkpt><trkpt lat="43.6380345" lon="6.6472878"><ele>392.0</ele><time>2026-04-12T07:43:56.921Z</time></trkpt><trkpt lat="43.6379598" lon="6.6473275"><ele>392.0</ele><time>2026-04-12T07:43:57.915Z</time></trkpt><trkpt lat="43.6378815" lon="6.6473943"><ele>392.0</ele><time>2026-04-12T07:43:58.936Z</time></trkpt><trkpt lat="43.6377868" lon="6.6474608"><ele>392.0</ele><time>2026-04-12T07:43:59.909Z</time></trkpt><trkpt lat="43.6376672" lon="6.6475052"><ele>392.0</ele><time>2026-04-12T07:44:00.926Z</time></trkpt><trkpt lat="43.6375387" lon="6.6475382"><ele>389.25</ele><time>2026-04-12T07:44:01.929Z</time></trkpt><trkpt lat="43.637409" lon="6.6475639"><ele>386.5</ele><time>2026-04-12T07:44:02.929Z</time></trkpt><trkpt lat="43.6372757" lon="6.6475839"><ele>383.75</ele><time>2026-04-12T07:44:03.931Z</time></trkpt><trkpt lat="43.6371279" lon="6.6475763"><ele>381.0</ele><time>2026-04-12T07:44:04.919Z</time></trkpt><trkpt lat="43.6369825" lon="6.647564"><ele>379.5</ele><time>2026-04-12T07:44:05.936Z</time></trkpt><trkpt lat="43.6368331" lon="6.6475507"><ele>378.0</ele><time>2026-04-12T07:44:06.919Z</time></trkpt><trkpt lat="43.6366832" lon="6.6475433"><ele>376.5</ele><time>2026-04-12T07:44:07.924Z</time></trkpt><trkpt lat="43.6365337" lon="6.6475384"><ele>375.0</ele><time>2026-04-12T07:44:08.926Z</time></trkpt><trkpt lat="43.6363878" lon="6.6475224"><ele>375.0</ele><time>2026-04-12T07:44:09.866Z</time></trkpt><trkpt lat="43.6362506" lon="6.6475188"><ele>375.0</ele><time>2026-04-12T07:44:10.922Z</time></trkpt><trkpt lat="43.6361308" lon="6.6475582"><ele>375.0</ele><time>2026-04-12T07:44:11.938Z</time></trkpt><trkpt lat="43.6360376" lon="6.6476712"><ele>375.0</ele><time>2026-04-12T07:44:12.928Z</time></trkpt><trkpt lat="43.6359758" lon="6.6478252"><ele>373.25</ele><time>2026-04-12T07:44:13.925Z</time></trkpt><trkpt lat="43.6359417" lon="6.6480109"><ele>371.5</ele><time>2026-04-12T07:44:14.918Z</time></trkpt><trkpt lat="43.6358942" lon="6.6481786"><ele>369.75</ele><time>2026-04-12T07:44:15.915Z</time></trkpt><trkpt lat="43.6358189" lon="6.6483312"><ele>368.0</ele><time>2026-04-12T07:44:16.935Z</time></trkpt><trkpt lat="43.6356992" lon="6.6484544"><ele>368.0</ele><time>2026-04-12T07:44:17.93Z</time></trkpt><trkpt lat="43.6355715" lon="6.6485601"><ele>368.0</ele><time>2026-04-12T07:44:18.946Z</time></trkpt><trkpt lat="43.6354398" lon="6.6486583"><ele>368.0</ele><time>2026-04-12T07:44:19.923Z</time></trkpt><trkpt lat="43.6353041" lon="6.6487583"><ele>365.33333333333337</ele><time>2026-04-12T07:44:20.93Z</time></trkpt><trkpt lat="43.6351647" lon="6.6488665"><ele>362.6666666666667</ele><time>2026-04-12T07:44:21.919Z</time></trkpt><trkpt lat="43.6350336" lon="6.6489857"><ele>360.0</ele><time>2026-04-12T07:44:22.922Z</time></trkpt><trkpt lat="43.6349126" lon="6.6491306"><ele>360.0</ele><time>2026-04-12T07:44:23.882Z</time></trkpt><trkpt lat="43.6347982" lon="6.6492916"><ele>360.0</ele><time>2026-04-12T07:44:24.894Z</time></trkpt><trkpt lat="43.6346855" lon="6.6494526"><ele>360.0</ele><time>2026-04-12T07:44:25.943Z</time></trkpt><trkpt lat="43.6345714" lon="6.6496147"><ele>358.3333333333333</ele><time>2026-04-12T07:44:26.92Z</time></trkpt><trkpt lat="43.6344664" lon="6.6497786"><ele>356.66666666666663</ele><time>2026-04-12T07:44:27.921Z</time></trkpt><trkpt lat="43.6343771" lon="6.6499531"><ele>355.0</ele><time>2026-04-12T07:44:28.944Z</time></trkpt><trkpt lat="43.6343003" lon="6.6501319"><ele>354.5</ele><time>2026-04-12T07:44:29.91Z</time></trkpt><trkpt lat="43.6342371" lon="6.6503156"><ele>354.0</ele><time>2026-04-12T07:44:30.937Z</time></trkpt><trkpt lat="43.6341856" lon="6.6504738"><ele>353.5</ele><time>2026-04-12T07:44:31.927Z</time></trkpt><trkpt lat="43.6341222" lon="6.6505814"><ele>353.0</ele><time>2026-04-12T07:44:32.903Z</time></trkpt><trkpt lat="43.6340432" lon="6.6506157"><ele>353.0</ele><time>2026-04-12T07:44:33.936Z</time></trkpt><trkpt lat="43.6339526" lon="6.6505902"><ele>353.0</ele><time>2026-04-12T07:44:34.909Z</time></trkpt><trkpt lat="43.6338719" lon="6.6505279"><ele>353.0</ele><time>2026-04-12T07:44:35.923Z</time></trkpt><trkpt lat="43.6337855" lon="6.6504579"><ele>353.0</ele><time>2026-04-12T07:44:36.921Z</time></trkpt><trkpt lat="43.6336929" lon="6.6503932"><ele>353.0</ele><time>2026-04-12T07:44:37.921Z</time></trkpt><trkpt lat="43.6335963" lon="6.6503273"><ele>351.75</ele><time>2026-04-12T07:44:38.921Z</time></trkpt><trkpt lat="43.6334948" lon="6.6502594"><ele>350.5</ele><time>2026-04-12T07:44:39.907Z</time></trkpt><trkpt lat="43.6333929" lon="6.6501876"><ele>349.25</ele><time>2026-04-12T07:44:40.928Z</time></trkpt><trkpt lat="43.6332811" lon="6.6501042"><ele>348.0</ele><time>2026-04-12T07:44:41.912Z</time></trkpt><trkpt lat="43.6331703" lon="6.6500189"><ele>348.0</ele><time>2026-04-12T07:44:42.925Z</time></trkpt><trkpt lat="43.6330559" lon="6.6499369"><ele>348.0</ele><time>2026-04-12T07:44:43.92Z</time></trkpt><trkpt lat="43.6329383" lon="6.6498473"><ele>348.0</ele><time>2026-04-12T07:44:44.915Z</time></trkpt><trkpt lat="43.6328228" lon="6.6497565"><ele>348.0</ele><time>2026-04-12T07:44:45.915Z</time></trkpt><trkpt lat="43.6327062" lon="6.6496661"><ele>347.0</ele><time>2026-04-12T07:44:46.916Z</time></trkpt><trkpt lat="43.6325847" lon="6.6495773"><ele>346.0</ele><time>2026-04-12T07:44:47.905Z</time></trkpt><trkpt lat="43.6324627" lon="6.6494899"><ele>345.0</ele><time>2026-04-12T07:44:48.917Z</time></trkpt><trkpt lat="43.6323347" lon="6.6494046"><ele>344.0</ele><time>2026-04-12T07:44:49.936Z</time></trkpt><trkpt lat="43.6322133" lon="6.6493241"><ele>344.0</ele><time>2026-04-12T07:44:50.923Z</time></trkpt><trkpt lat="43.6321167" lon="6.6492593"><ele>344.0</ele><time>2026-04-12T07:44:51.916Z</time></trkpt><trkpt lat="43.6320473" lon="6.6492075"><ele>344.0</ele><time>2026-04-12T07:44:52.935Z</time></trkpt><trkpt lat="43.6319903" lon="6.6491656"><ele>344.0</ele><time>2026-04-12T07:44:53.941Z</time></trkpt><trkpt lat="43.6319268" lon="6.6491277"><ele>344.0</ele><time>2026-04-12T07:44:54.916Z</time></trkpt><trkpt lat="43.6318588" lon="6.6490853"><ele>344.0</ele><time>2026-04-12T07:44:55.926Z</time></trkpt><trkpt lat="43.6317882" lon="6.6490417"><ele>343.33333333333337</ele><time>2026-04-12T07:44:56.926Z</time></trkpt><trkpt lat="43.631716" lon="6.6490033"><ele>342.6666666666667</ele><time>2026-04-12T07:44:57.932Z</time></trkpt><trkpt lat="43.631637" lon="6.6489864"><ele>342.0</ele><time>2026-04-12T07:44:58.92Z</time></trkpt><trkpt lat="43.6315489" lon="6.648992"><ele>341.3333333333333</ele><time>2026-04-12T07:44:59.947Z</time></trkpt><trkpt lat="43.6314646" lon="6.6490113"><ele>340.66666666666663</ele><time>2026-04-12T07:45:00.929Z</time></trkpt><trkpt lat="43.6313776" lon="6.6490468"><ele>340.0</ele><time>2026-04-12T07:45:01.932Z</time></trkpt><trkpt lat="43.6312951" lon="6.6491027"><ele>340.0</ele><time>2026-04-12T07:45:02.913Z</time></trkpt><trkpt lat="43.6312403" lon="6.6491922"><ele>340.0</ele><time>2026-04-12T07:45:03.908Z</time></trkpt><trkpt lat="43.6311989" lon="6.6493016"><ele>340.0</ele><time>2026-04-12T07:45:04.919Z</time></trkpt><trkpt lat="43.6311676" lon="6.6494103"><ele>340.0</ele><time>2026-04-12T07:45:05.883Z</time></trkpt><trkpt lat="43.6311367" lon="6.6495147"><ele>340.0</ele><time>2026-04-12T07:45:06.908Z</time></trkpt><trkpt lat="43.631099" lon="6.6496112"><ele>340.0</ele><time>2026-04-12T07:45:07.925Z</time></trkpt><trkpt lat="43.6310468" lon="6.6496942"><ele>340.16666666666663</ele><time>2026-04-12T07:45:08.948Z</time></trkpt><trkpt lat="43.6309889" lon="6.6497631"><ele>340.3333333333333</ele><time>2026-04-12T07:45:09.911Z</time></trkpt><trkpt lat="43.6309295" lon="6.6498245"><ele>340.5</ele><time>2026-04-12T07:45:10.938Z</time></trkpt><trkpt lat="43.6308646" lon="6.6498791"><ele>340.6666666666667</ele><time>2026-04-12T07:45:11.933Z</time></trkpt><trkpt lat="43.6307929" lon="6.6499264"><ele>340.83333333333337</ele><time>2026-04-12T07:45:12.934Z</time></trkpt><trkpt lat="43.6307157" lon="6.6499572"><ele>341.0</ele><time>2026-04-12T07:45:13.925Z</time></trkpt><trkpt lat="43.6306321" lon="6.6499701"><ele>341.0</ele><time>2026-04-12T07:45:14.919Z</time></trkpt><trkpt lat="43.6305515" lon="6.6499825"><ele>341.0</ele><time>2026-04-12T07:45:15.918Z</time></trkpt><trkpt lat="43.6304659" lon="6.6499778"><ele>341.0</ele><time>2026-04-12T07:45:16.894Z</time></trkpt><trkpt lat="43.6303782" lon="6.6499598"><ele>341.0</ele><time>2026-04-12T07:45:17.922Z</time></trkpt><trkpt lat="43.6302884" lon="6.6499352"><ele>341.0</ele><time>2026-04-12T07:45:18.918Z</time></trkpt><trkpt lat="43.6301976" lon="6.6498969"><ele>341.0</ele><time>2026-04-12T07:45:19.923Z</time></trkpt><trkpt lat="43.6301068" lon="6.6498602"><ele>341.0</ele><time>2026-04-12T07:45:20.939Z</time></trkpt><trkpt lat="43.6300125" lon="6.6498169"><ele>341.0</ele><time>2026-04-12T07:45:21.917Z</time></trkpt><trkpt lat="43.6299145" lon="6.6497814"><ele>341.0</ele><time>2026-04-12T07:45:22.941Z</time></trkpt><trkpt lat="43.6298125" lon="6.649752"><ele>341.0</ele><time>2026-04-12T07:45:23.918Z</time></trkpt><trkpt lat="43.6297056" lon="6.6497322"><ele>341.0</ele><time>2026-04-12T07:45:24.952Z</time></trkpt><trkpt lat="43.6295925" lon="6.6497364"><ele>341.0</ele><time>2026-04-12T07:45:25.934Z</time></trkpt><trkpt lat="43.6294841" lon="6.6497708"><ele>341.0</ele><time>2026-04-12T07:45:26.903Z</time></trkpt><trkpt lat="43.6293777" lon="6.6498229"><ele>341.0</ele><time>2026-04-12T07:45:27.917Z</time></trkpt><trkpt lat="43.6292774" lon="6.6498864"><ele>341.0</ele><time>2026-04-12T07:45:28.924Z</time></trkpt><trkpt lat="43.6291803" lon="6.6499551"><ele>341.0</ele><time>2026-04-12T07:45:29.914Z</time></trkpt><trkpt lat="43.6290894" lon="6.6500311"><ele>341.0</ele><time>2026-04-12T07:45:30.942Z</time></trkpt><trkpt lat="43.6290102" lon="6.650125"><ele>341.0</ele><time>2026-04-12T07:45:31.936Z</time></trkpt><trkpt lat="43.6289436" lon="6.6502253"><ele>341.0</ele><time>2026-04-12T07:45:32.921Z</time></trkpt><trkpt lat="43.6288912" lon="6.6503367"><ele>341.0</ele><time>2026-04-12T07:45:33.918Z</time></trkpt><trkpt lat="43.6288422" lon="6.6504408"><ele>341.0</ele><time>2026-04-12T07:45:34.927Z</time></trkpt><trkpt lat="43.6287926" lon="6.6505409"><ele>340.8</ele><time>2026-04-12T07:45:35.93Z</time></trkpt><trkpt lat="43.6287406" lon="6.6506396"><ele>340.6</ele><time>2026-04-12T07:45:36.918Z</time></trkpt><trkpt lat="43.6286804" lon="6.65073"><ele>340.4</ele><time>2026-04-12T07:45:37.931Z</time></trkpt><trkpt lat="43.628595" lon="6.6507953"><ele>340.2</ele><time>2026-04-12T07:45:38.94Z</time></trkpt><trkpt lat="43.6285025" lon="6.6508201"><ele>340.0</ele><time>2026-04-12T07:45:39.908Z</time></trkpt><trkpt lat="43.6283953" lon="6.6508153"><ele>340.4</ele><time>2026-04-12T07:45:40.955Z</time></trkpt><trkpt lat="43.6282856" lon="6.6507941"><ele>340.8</ele><time>2026-04-12T07:45:41.917Z</time></trkpt><trkpt lat="43.6281816" lon="6.6507778"><ele>341.20000000000005</ele><time>2026-04-12T07:45:42.91Z</time></trkpt><trkpt lat="43.6280701" lon="6.6507571"><ele>341.6</ele><time>2026-04-12T07:45:43.938Z</time></trkpt><trkpt lat="43.6279549" lon="6.6507459"><ele>342.0</ele><time>2026-04-12T07:45:44.936Z</time></trkpt><trkpt lat="43.6278387" lon="6.6507275"><ele>340.0</ele><time>2026-04-12T07:45:45.929Z</time></trkpt><trkpt lat="43.6277215" lon="6.6506999"><ele>338.0</ele><time>2026-04-12T07:45:46.924Z</time></trkpt><trkpt lat="43.6276045" lon="6.6506711"><ele>336.0</ele><time>2026-04-12T07:45:47.901Z</time></trkpt><trkpt lat="43.6274865" lon="6.6506302"><ele>334.0</ele><time>2026-04-12T07:45:48.895Z</time></trkpt><trkpt lat="43.6273649" lon="6.6505925"><ele>334.0</ele><time>2026-04-12T07:45:49.888Z</time></trkpt><trkpt lat="43.6272371" lon="6.6505777"><ele>334.0</ele><time>2026-04-12T07:45:50.926Z</time></trkpt><trkpt lat="43.6271082" lon="6.6505972"><ele>334.0</ele><time>2026-04-12T07:45:51.927Z</time></trkpt><trkpt lat="43.6269795" lon="6.6506409"><ele>334.0</ele><time>2026-04-12T07:45:52.922Z</time></trkpt><trkpt lat="43.6268567" lon="6.6506921"><ele>332.5</ele><time>2026-04-12T07:45:53.921Z</time></trkpt><trkpt lat="43.6267332" lon="6.6507386"><ele>331.0</ele><time>2026-04-12T07:45:54.945Z</time></trkpt><trkpt lat="43.6266112" lon="6.6507872"><ele>329.5</ele><time>2026-04-12T07:45:55.924Z</time></trkpt><trkpt lat="43.626491" lon="6.6508344"><ele>328.0</ele><time>2026-04-12T07:45:56.945Z</time></trkpt><trkpt lat="43.6263701" lon="6.6508867"><ele>328.0</ele><time>2026-04-12T07:45:57.916Z</time></trkpt><trkpt lat="43.6262495" lon="6.6509321"><ele>328.0</ele><time>2026-04-12T07:45:58.945Z</time></trkpt><trkpt lat="43.6261293" lon="6.6509781"><ele>328.0</ele><time>2026-04-12T07:45:59.94Z</time></trkpt><trkpt lat="43.6260136" lon="6.6510268"><ele>328.0</ele><time>2026-04-12T07:46:00.914Z</time></trkpt><trkpt lat="43.625898" lon="6.6510868"><ele>328.0</ele><time>2026-04-12T07:46:01.914Z</time></trkpt><trkpt lat="43.6257933" lon="6.6511522"><ele>328.0</ele><time>2026-04-12T07:46:02.931Z</time></trkpt><trkpt lat="43.6256951" lon="6.6512227"><ele>328.0</ele><time>2026-04-12T07:46:03.91Z</time></trkpt><trkpt lat="43.625597" lon="6.6512944"><ele>328.0</ele><time>2026-04-12T07:46:04.903Z</time></trkpt><trkpt lat="43.6255043" lon="6.6513697"><ele>328.0</ele><time>2026-04-12T07:46:05.919Z</time></trkpt><trkpt lat="43.6254225" lon="6.6514383"><ele>328.0</ele><time>2026-04-12T07:46:06.912Z</time></trkpt><trkpt lat="43.6253437" lon="6.6515075"><ele>328.0</ele><time>2026-04-12T07:46:07.917Z</time></trkpt><trkpt lat="43.6252679" lon="6.651573"><ele>328.0</ele><time>2026-04-12T07:46:08.924Z</time></trkpt><trkpt lat="43.6251958" lon="6.6516376"><ele>328.0</ele><time>2026-04-12T07:46:09.92Z</time></trkpt><trkpt lat="43.6251258" lon="6.6517063"><ele>328.0</ele><time>2026-04-12T07:46:10.943Z</time></trkpt><trkpt lat="43.6250648" lon="6.6517846"><ele>328.0</ele><time>2026-04-12T07:46:11.938Z</time></trkpt><trkpt lat="43.6250021" lon="6.6518621"><ele>328.8333333333333</ele><time>2026-04-12T07:46:12.921Z</time></trkpt><trkpt lat="43.624941" lon="6.6519437"><ele>329.66666666666663</ele><time>2026-04-12T07:46:13.899Z</time></trkpt><trkpt lat="43.6248798" lon="6.6520283"><ele>330.5</ele><time>2026-04-12T07:46:14.928Z</time></trkpt><trkpt lat="43.6248195" lon="6.6521154"><ele>331.3333333333333</ele><time>2026-04-12T07:46:15.933Z</time></trkpt><trkpt lat="43.6247607" lon="6.6522012"><ele>332.1666666666667</ele><time>2026-04-12T07:46:16.923Z</time></trkpt><trkpt lat="43.6247015" lon="6.6522863"><ele>333.0</ele><time>2026-04-12T07:46:17.933Z</time></trkpt><trkpt lat="43.6246477" lon="6.6523699"><ele>333.0</ele><time>2026-04-12T07:46:18.913Z</time></trkpt><trkpt lat="43.6245931" lon="6.6524493"><ele>333.0</ele><time>2026-04-12T07:46:19.944Z</time></trkpt><trkpt lat="43.6245362" lon="6.6525296"><ele>333.0</ele><time>2026-04-12T07:46:20.918Z</time></trkpt><trkpt lat="43.6244755" lon="6.6526099"><ele>333.0</ele><time>2026-04-12T07:46:21.886Z</time></trkpt><trkpt lat="43.6244179" lon="6.6526875"><ele>333.0</ele><time>2026-04-12T07:46:22.912Z</time></trkpt><trkpt lat="43.62436" lon="6.6527658"><ele>333.0</ele><time>2026-04-12T07:46:23.939Z</time></trkpt><trkpt lat="43.6243048" lon="6.6528409"><ele>334.6666666666667</ele><time>2026-04-12T07:46:24.911Z</time></trkpt><trkpt lat="43.6242528" lon="6.6529136"><ele>336.3333333333333</ele><time>2026-04-12T07:46:25.924Z</time></trkpt><trkpt lat="43.6241981" lon="6.6529966"><ele>338.0</ele><time>2026-04-12T07:46:26.912Z</time></trkpt><trkpt lat="43.6241521" lon="6.6530896"><ele>339.66666666666663</ele><time>2026-04-12T07:46:27.922Z</time></trkpt><trkpt lat="43.6241139" lon="6.6531856"><ele>341.3333333333333</ele><time>2026-04-12T07:46:28.945Z</time></trkpt><trkpt lat="43.6240784" lon="6.6532874"><ele>343.0</ele><time>2026-04-12T07:46:29.907Z</time></trkpt><trkpt lat="43.6240406" lon="6.6533858"><ele>343.0</ele><time>2026-04-12T07:46:30.91Z</time></trkpt><trkpt lat="43.6239874" lon="6.6534765"><ele>343.0</ele><time>2026-04-12T07:46:31.963Z</time></trkpt><trkpt lat="43.623927" lon="6.6535668"><ele>343.0</ele><time>2026-04-12T07:46:32.941Z</time></trkpt><trkpt lat="43.6238634" lon="6.6536382"><ele>343.0</ele><time>2026-04-12T07:46:33.927Z</time></trkpt><trkpt lat="43.6237878" lon="6.6536956"><ele>343.0</ele><time>2026-04-12T07:46:34.935Z</time></trkpt><trkpt lat="43.6237017" lon="6.6537308"><ele>343.0</ele><time>2026-04-12T07:46:35.935Z</time></trkpt><trkpt lat="43.6236109" lon="6.6537264"><ele>342.59999999999997</ele><time>2026-04-12T07:46:36.929Z</time></trkpt><trkpt lat="43.6235141" lon="6.6537119"><ele>342.2</ele><time>2026-04-12T07:46:37.925Z</time></trkpt><trkpt lat="43.623414" lon="6.6536913"><ele>341.8</ele><time>2026-04-12T07:46:38.913Z</time></trkpt><trkpt lat="43.6233084" lon="6.6536645"><ele>341.4</ele><time>2026-04-12T07:46:39.922Z</time></trkpt><trkpt lat="43.6231965" lon="6.6536503"><ele>341.0</ele><time>2026-04-12T07:46:40.924Z</time></trkpt><trkpt lat="43.623083" lon="6.6536515"><ele>341.0</ele><time>2026-04-12T07:46:41.933Z</time></trkpt><trkpt lat="43.6229812" lon="6.6536595"><ele>341.0</ele><time>2026-04-12T07:46:42.922Z</time></trkpt><trkpt lat="43.6228781" lon="6.6536733"><ele>341.0</ele><time>2026-04-12T07:46:43.918Z</time></trkpt><trkpt lat="43.6227786" lon="6.6536884"><ele>341.0</ele><time>2026-04-12T07:46:44.93Z</time></trkpt><trkpt lat="43.6226832" lon="6.6537024"><ele>341.0</ele><time>2026-04-12T07:46:45.91Z</time></trkpt><trkpt lat="43.6225906" lon="6.6537035"><ele>341.33333333333337</ele><time>2026-04-12T07:46:46.933Z</time></trkpt><trkpt lat="43.622499" lon="6.6537098"><ele>341.6666666666667</ele><time>2026-04-12T07:46:47.916Z</time></trkpt><trkpt lat="43.6224076" lon="6.6537227"><ele>342.0</ele><time>2026-04-12T07:46:48.927Z</time></trkpt><trkpt lat="43.6223208" lon="6.6537345"><ele>342.3333333333333</ele><time>2026-04-12T07:46:49.898Z</time></trkpt><trkpt lat="43.6222349" lon="6.6537448"><ele>342.66666666666663</ele><time>2026-04-12T07:46:50.932Z</time></trkpt><trkpt lat="43.6221543" lon="6.6537518"><ele>343.0</ele><time>2026-04-12T07:46:51.932Z</time></trkpt><trkpt lat="43.6220766" lon="6.6537637"><ele>343.0</ele><time>2026-04-12T07:46:52.945Z</time></trkpt><trkpt lat="43.6219991" lon="6.6537769"><ele>343.0</ele><time>2026-04-12T07:46:53.931Z</time></trkpt><trkpt lat="43.6219186" lon="6.6537891"><ele>343.0</ele><time>2026-04-12T07:46:54.917Z</time></trkpt><trkpt lat="43.6218384" lon="6.6538003"><ele>343.0</ele><time>2026-04-12T07:46:55.942Z</time></trkpt><trkpt lat="43.621762" lon="6.6538126"><ele>343.0</ele><time>2026-04-12T07:46:56.925Z</time></trkpt><trkpt lat="43.6216827" lon="6.6538203"><ele>343.0</ele><time>2026-04-12T07:46:57.928Z</time></trkpt><trkpt lat="43.6216004" lon="6.6538277"><ele>343.16666666666663</ele><time>2026-04-12T07:46:58.907Z</time></trkpt><trkpt lat="43.6215184" lon="6.6538371"><ele>343.3333333333333</ele><time>2026-04-12T07:46:59.93Z</time></trkpt><trkpt lat="43.6214409" lon="6.6538406"><ele>343.5</ele><time>2026-04-12T07:47:00.932Z</time></trkpt><trkpt lat="43.621364" lon="6.6538423"><ele>343.6666666666667</ele><time>2026-04-12T07:47:01.905Z</time></trkpt><trkpt lat="43.6212894" lon="6.6538444"><ele>343.83333333333337</ele><time>2026-04-12T07:47:02.932Z</time></trkpt><trkpt lat="43.6212126" lon="6.6538452"><ele>344.0</ele><time>2026-04-12T07:47:03.896Z</time></trkpt><trkpt lat="43.6211341" lon="6.6538528"><ele>344.0</ele><time>2026-04-12T07:47:04.915Z</time></trkpt><trkpt lat="43.6210559" lon="6.6538494"><ele>344.0</ele><time>2026-04-12T07:47:05.917Z</time></trkpt><trkpt lat="43.6209786" lon="6.6538339"><ele>344.0</ele><time>2026-04-12T07:47:06.922Z</time></trkpt><trkpt lat="43.6208998" lon="6.653808"><ele>344.0</ele><time>2026-04-12T07:47:07.923Z</time></trkpt><trkpt lat="43.6208203" lon="6.6537831"><ele>344.0</ele><time>2026-04-12T07:47:08.918Z</time></trkpt><trkpt lat="43.6207466" lon="6.6537575"><ele>344.0</ele><time>2026-04-12T07:47:09.922Z</time></trkpt><trkpt lat="43.6206725" lon="6.6537273"><ele>344.0</ele><time>2026-04-12T07:47:10.903Z</time></trkpt><trkpt lat="43.6206004" lon="6.6536956"><ele>344.0</ele><time>2026-04-12T07:47:11.932Z</time></trkpt><trkpt lat="43.6205298" lon="6.6536653"><ele>344.0</ele><time>2026-04-12T07:47:12.898Z</time></trkpt><trkpt lat="43.6204548" lon="6.6536359"><ele>344.0</ele><time>2026-04-12T07:47:13.918Z</time></trkpt><trkpt lat="43.6203776" lon="6.6536127"><ele>344.0</ele><time>2026-04-12T07:47:14.916Z</time></trkpt><trkpt lat="43.6203025" lon="6.6535845"><ele>344.0</ele><time>2026-04-12T07:47:15.926Z</time></trkpt><trkpt lat="43.6202257" lon="6.6535537"><ele>344.5</ele><time>2026-04-12T07:47:16.919Z</time></trkpt><trkpt lat="43.620145" lon="6.6535257"><ele>345.0</ele><time>2026-04-12T07:47:17.934Z</time></trkpt><trkpt lat="43.6200671" lon="6.653492"><ele>345.5</ele><time>2026-04-12T07:47:18.923Z</time></trkpt><trkpt lat="43.6199902" lon="6.6534568"><ele>346.0</ele><time>2026-04-12T07:47:19.92Z</time></trkpt><trkpt lat="43.6199111" lon="6.6534148"><ele>346.5</ele><time>2026-04-12T07:47:20.939Z</time></trkpt><trkpt lat="43.6198355" lon="6.6533712"><ele>347.0</ele><time>2026-04-12T07:47:21.929Z</time></trkpt><trkpt lat="43.619759" lon="6.6533191"><ele>347.0</ele><time>2026-04-12T07:47:22.932Z</time></trkpt><trkpt lat="43.6196845" lon="6.65326"><ele>347.0</ele><time>2026-04-12T07:47:23.941Z</time></trkpt><trkpt lat="43.619614" lon="6.6531967"><ele>347.0</ele><time>2026-04-12T07:47:24.945Z</time></trkpt><trkpt lat="43.6195405" lon="6.6531316"><ele>347.0</ele><time>2026-04-12T07:47:25.908Z</time></trkpt><trkpt lat="43.6194656" lon="6.653063"><ele>347.0</ele><time>2026-04-12T07:47:26.925Z</time></trkpt><trkpt lat="43.6193858" lon="6.6529898"><ele>347.0</ele><time>2026-04-12T07:47:27.911Z</time></trkpt><trkpt lat="43.619303" lon="6.6529175"><ele>346.8</ele><time>2026-04-12T07:47:28.938Z</time></trkpt><trkpt lat="43.6192207" lon="6.6528435"><ele>346.6</ele><time>2026-04-12T07:47:29.906Z</time></trkpt><trkpt lat="43.6191376" lon="6.6527713"><ele>346.40000000000003</ele><time>2026-04-12T07:47:30.893Z</time></trkpt><trkpt lat="43.6190548" lon="6.6527004"><ele>346.20000000000005</ele><time>2026-04-12T07:47:31.942Z</time></trkpt><trkpt lat="43.6189725" lon="6.6526223"><ele>346.0</ele><time>2026-04-12T07:47:32.931Z</time></trkpt><trkpt lat="43.6188891" lon="6.6525455"><ele>346.0</ele><time>2026-04-12T07:47:33.935Z</time></trkpt><trkpt lat="43.6188049" lon="6.6524672"><ele>346.0</ele><time>2026-04-12T07:47:34.925Z</time></trkpt><trkpt lat="43.6187194" lon="6.6523878"><ele>346.0</ele><time>2026-04-12T07:47:35.89Z</time></trkpt><trkpt lat="43.6186306" lon="6.652315"><ele>346.0</ele><time>2026-04-12T07:47:36.933Z</time></trkpt><trkpt lat="43.6185365" lon="6.6522446"><ele>346.0</ele><time>2026-04-12T07:47:37.913Z</time></trkpt><trkpt lat="43.618439" lon="6.6521856"><ele>345.20000000000005</ele><time>2026-04-12T07:47:38.924Z</time></trkpt><trkpt lat="43.618344" lon="6.6521351"><ele>344.40000000000003</ele><time>2026-04-12T07:47:39.923Z</time></trkpt><trkpt lat="43.6182516" lon="6.6521215"><ele>343.6</ele><time>2026-04-12T07:47:40.923Z</time></trkpt><trkpt lat="43.6181536" lon="6.6520908"><ele>342.8</ele><time>2026-04-12T07:47:41.915Z</time></trkpt><trkpt lat="43.6180459" lon="6.6520542"><ele>342.0</ele><time>2026-04-12T07:47:42.929Z</time></trkpt><trkpt lat="43.6179343" lon="6.6520307"><ele>341.25</ele><time>2026-04-12T07:47:43.929Z</time></trkpt><trkpt lat="43.6178184" lon="6.6520219"><ele>340.5</ele><time>2026-04-12T07:47:44.93Z</time></trkpt><trkpt lat="43.617701" lon="6.6520147"><ele>339.75</ele><time>2026-04-12T07:47:45.889Z</time></trkpt><trkpt lat="43.6175781" lon="6.6520068"><ele>339.0</ele><time>2026-04-12T07:47:46.904Z</time></trkpt><trkpt lat="43.6174533" lon="6.6520105"><ele>339.0</ele><time>2026-04-12T07:47:47.943Z</time></trkpt><trkpt lat="43.6173247" lon="6.6520188"><ele>339.0</ele><time>2026-04-12T07:47:48.907Z</time></trkpt><trkpt lat="43.617195" lon="6.6520353"><ele>339.0</ele><time>2026-04-12T07:47:49.935Z</time></trkpt><trkpt lat="43.6170671" lon="6.6520504"><ele>339.0</ele><time>2026-04-12T07:47:50.932Z</time></trkpt><trkpt lat="43.6169367" lon="6.6520624"><ele>337.25</ele><time>2026-04-12T07:47:51.915Z</time></trkpt><trkpt lat="43.6168067" lon="6.6520657"><ele>335.5</ele><time>2026-04-12T07:47:52.921Z</time></trkpt><trkpt lat="43.6166806" lon="6.6520485"><ele>333.75</ele><time>2026-04-12T07:47:53.921Z</time></trkpt><trkpt lat="43.616554" lon="6.6520081"><ele>332.0</ele><time>2026-04-12T07:47:54.916Z</time></trkpt><trkpt lat="43.6164254" lon="6.6519684"><ele>332.5</ele><time>2026-04-12T07:47:55.922Z</time></trkpt><trkpt lat="43.6162881" lon="6.6519402"><ele>333.0</ele><time>2026-04-12T07:47:56.949Z</time></trkpt><trkpt lat="43.6161428" lon="6.6519448"><ele>333.5</ele><time>2026-04-12T07:47:57.93Z</time></trkpt><trkpt lat="43.6159995" lon="6.6519828"><ele>334.0</ele><time>2026-04-12T07:47:58.931Z</time></trkpt><trkpt lat="43.6158543" lon="6.6520226"><ele>331.66666666666663</ele><time>2026-04-12T07:47:59.946Z</time></trkpt><trkpt lat="43.6157047" lon="6.6520529"><ele>329.3333333333333</ele><time>2026-04-12T07:48:00.92Z</time></trkpt><trkpt lat="43.6155512" lon="6.6520796"><ele>327.0</ele><time>2026-04-12T07:48:01.936Z</time></trkpt><trkpt lat="43.6153997" lon="6.6521084"><ele>325.5</ele><time>2026-04-12T07:48:02.902Z</time></trkpt><trkpt lat="43.61525" lon="6.6521374"><ele>324.0</ele><time>2026-04-12T07:48:03.922Z</time></trkpt><trkpt lat="43.6151046" lon="6.6521627"><ele>322.5</ele><time>2026-04-12T07:48:04.933Z</time></trkpt><trkpt lat="43.6149634" lon="6.6521757"><ele>321.0</ele><time>2026-04-12T07:48:05.926Z</time></trkpt><trkpt lat="43.614826" lon="6.6521946"><ele>321.0</ele><time>2026-04-12T07:48:06.928Z</time></trkpt><trkpt lat="43.6146908" lon="6.652216"><ele>321.0</ele><time>2026-04-12T07:48:07.937Z</time></trkpt><trkpt lat="43.6145627" lon="6.6522414"><ele>321.0</ele><time>2026-04-12T07:48:08.943Z</time></trkpt><trkpt lat="43.6144381" lon="6.6522564"><ele>321.0</ele><time>2026-04-12T07:48:09.932Z</time></trkpt><trkpt lat="43.6143152" lon="6.6522674"><ele>321.0</ele><time>2026-04-12T07:48:10.929Z</time></trkpt><trkpt lat="43.6141946" lon="6.6522625"><ele>321.0</ele><time>2026-04-12T07:48:11.939Z</time></trkpt><trkpt lat="43.6140741" lon="6.6522524"><ele>321.0</ele><time>2026-04-12T07:48:12.919Z</time></trkpt><trkpt lat="43.6139544" lon="6.652228"><ele>321.0</ele><time>2026-04-12T07:48:13.945Z</time></trkpt><trkpt lat="43.6138443" lon="6.6521682"><ele>321.0</ele><time>2026-04-12T07:48:14.915Z</time></trkpt><trkpt lat="43.6137482" lon="6.6520775"><ele>321.0</ele><time>2026-04-12T07:48:15.923Z</time></trkpt><trkpt lat="43.6136622" lon="6.6519716"><ele>321.0</ele><time>2026-04-12T07:48:16.916Z</time></trkpt><trkpt lat="43.6135749" lon="6.6518677"><ele>321.0</ele><time>2026-04-12T07:48:17.934Z</time></trkpt><trkpt lat="43.6134756" lon="6.6517965"><ele>322.20000000000005</ele><time>2026-04-12T07:48:18.924Z</time></trkpt><trkpt lat="43.6133747" lon="6.6517399"><ele>323.40000000000003</ele><time>2026-04-12T07:48:19.94Z</time></trkpt><trkpt lat="43.6132759" lon="6.6517009"><ele>324.6</ele><time>2026-04-12T07:48:20.901Z</time></trkpt><trkpt lat="43.613176" lon="6.651712"><ele>325.8</ele><time>2026-04-12T07:48:21.933Z</time></trkpt><trkpt lat="43.6130912" lon="6.6517545"><ele>327.0</ele><time>2026-04-12T07:48:22.91Z</time></trkpt><trkpt lat="43.6130192" lon="6.6518163"><ele>327.0</ele><time>2026-04-12T07:48:23.918Z</time></trkpt><trkpt lat="43.6129547" lon="6.651883"><ele>327.0</ele><time>2026-04-12T07:48:24.912Z</time></trkpt><trkpt lat="43.6128948" lon="6.6519514"><ele>327.0</ele><time>2026-04-12T07:48:25.936Z</time></trkpt><trkpt lat="43.6128353" lon="6.6520193"><ele>327.0</ele><time>2026-04-12T07:48:26.934Z</time></trkpt><trkpt lat="43.6127756" lon="6.6520889"><ele>327.0</ele><time>2026-04-12T07:48:27.927Z</time></trkpt><trkpt lat="43.6127152" lon="6.6521503"><ele>327.0</ele><time>2026-04-12T07:48:28.883Z</time></trkpt><trkpt lat="43.6126498" lon="6.6522105"><ele>327.5</ele><time>2026-04-12T07:48:29.943Z</time></trkpt><trkpt lat="43.612588" lon="6.6522676"><ele>328.0</ele><time>2026-04-12T07:48:30.929Z</time></trkpt><trkpt lat="43.6125208" lon="6.6523221"><ele>328.5</ele><time>2026-04-12T07:48:31.918Z</time></trkpt><trkpt lat="43.6124523" lon="6.6523689"><ele>329.0</ele><time>2026-04-12T07:48:32.94Z</time></trkpt><trkpt lat="43.6123779" lon="6.652403"><ele>329.5</ele><time>2026-04-12T07:48:33.915Z</time></trkpt><trkpt lat="43.6123023" lon="6.6524363"><ele>330.0</ele><time>2026-04-12T07:48:34.923Z</time></trkpt><trkpt lat="43.6122292" lon="6.6524726"><ele>330.00000000000006</ele><time>2026-04-12T07:48:35.914Z</time></trkpt><trkpt lat="43.6121572" lon="6.6525083"><ele>330.0</ele><time>2026-04-12T07:48:36.92Z</time></trkpt><trkpt lat="43.61209" lon="6.652543"><ele>330.0</ele><time>2026-04-12T07:48:37.903Z</time></trkpt><trkpt lat="43.6120227" lon="6.6525779"><ele>330.0</ele><time>2026-04-12T07:48:38.938Z</time></trkpt><trkpt lat="43.6119585" lon="6.6526103"><ele>330.0</ele><time>2026-04-12T07:48:39.911Z</time></trkpt><trkpt lat="43.6118913" lon="6.652643"><ele>330.00000000000006</ele><time>2026-04-12T07:48:40.912Z</time></trkpt><trkpt lat="43.6118297" lon="6.6526766"><ele>330.0</ele><time>2026-04-12T07:48:41.937Z</time></trkpt><trkpt lat="43.6117679" lon="6.6527103"><ele>330.0</ele><time>2026-04-12T07:48:42.921Z</time></trkpt><trkpt lat="43.6116545" lon="6.6527742"><ele>330.0</ele><time>2026-04-12T07:48:44.911Z</time></trkpt><trkpt lat="43.6115967" lon="6.6528094"><ele>330.0</ele><time>2026-04-12T07:48:45.921Z</time></trkpt><trkpt lat="43.6115378" lon="6.6528479"><ele>330.0</ele><time>2026-04-12T07:48:46.9Z</time></trkpt><trkpt lat="43.6114759" lon="6.6528793"><ele>330.0</ele><time>2026-04-12T07:48:47.937Z</time></trkpt><trkpt lat="43.6114147" lon="6.6529062"><ele>330.0</ele><time>2026-04-12T07:48:48.929Z</time></trkpt><trkpt lat="43.611299" lon="6.6529674"><ele>330.0</ele><time>2026-04-12T07:48:50.87Z</time></trkpt><trkpt lat="43.6111858" lon="6.6530165"><ele>330.0</ele><time>2026-04-12T07:48:52.928Z</time></trkpt><trkpt lat="43.6111222" lon="6.6530366"><ele>330.0</ele><time>2026-04-12T07:48:53.941Z</time></trkpt><trkpt lat="43.6110013" lon="6.653075"><ele>330.0</ele><time>2026-04-12T07:48:55.928Z</time></trkpt><trkpt lat="43.6108775" lon="6.6531046"><ele>330.0</ele><time>2026-04-12T07:48:57.912Z</time></trkpt><trkpt lat="43.6108143" lon="6.6531228"><ele>330.8</ele><time>2026-04-12T07:48:58.908Z</time></trkpt><trkpt lat="43.6107519" lon="6.6531363"><ele>331.6</ele><time>2026-04-12T07:48:59.885Z</time></trkpt><trkpt lat="43.6106331" lon="6.6531623"><ele>332.4</ele><time>2026-04-12T07:49:01.936Z</time></trkpt><trkpt lat="43.6105143" lon="6.6531686"><ele>333.2</ele><time>2026-04-12T07:49:03.909Z</time></trkpt><trkpt lat="43.6103952" lon="6.6531733"><ele>334.0</ele><time>2026-04-12T07:49:05.931Z</time></trkpt><trkpt lat="43.6103287" lon="6.6531675"><ele>335.0</ele><time>2026-04-12T07:49:06.926Z</time></trkpt><trkpt lat="43.610262" lon="6.653171"><ele>336.0</ele><time>2026-04-12T07:49:07.929Z</time></trkpt><trkpt lat="43.6101948" lon="6.653172"><ele>337.0</ele><time>2026-04-12T07:49:08.917Z</time></trkpt><trkpt lat="43.6101312" lon="6.6531744"><ele>338.0</ele><time>2026-04-12T07:49:09.94Z</time></trkpt><trkpt lat="43.6100635" lon="6.6531713"><ele>339.0</ele><time>2026-04-12T07:49:10.921Z</time></trkpt><trkpt lat="43.6099964" lon="6.6531511"><ele>340.0</ele><time>2026-04-12T07:49:11.933Z</time></trkpt><trkpt lat="43.6098795" lon="6.6531112"><ele>340.0</ele><time>2026-04-12T07:49:13.93Z</time></trkpt><trkpt lat="43.6097522" lon="6.6530836"><ele>340.0</ele><time>2026-04-12T07:49:15.928Z</time></trkpt><trkpt lat="43.6096844" lon="6.6530797"><ele>340.0</ele><time>2026-04-12T07:49:16.924Z</time></trkpt><trkpt lat="43.609619" lon="6.6530734"><ele>340.0</ele><time>2026-04-12T07:49:17.934Z</time></trkpt><trkpt lat="43.6094932" lon="6.6530553"><ele>340.0</ele><time>2026-04-12T07:49:19.94Z</time></trkpt><trkpt lat="43.6094295" lon="6.6530498"><ele>339.8333333333333</ele><time>2026-04-12T07:49:20.935Z</time></trkpt><trkpt lat="43.6093051" lon="6.6530458"><ele>339.66666666666663</ele><time>2026-04-12T07:49:22.939Z</time></trkpt><trkpt lat="43.6092381" lon="6.6530479"><ele>339.5</ele><time>2026-04-12T07:49:23.943Z</time></trkpt><trkpt lat="43.6091713" lon="6.6530611"><ele>339.3333333333333</ele><time>2026-04-12T07:49:24.928Z</time></trkpt><trkpt lat="43.6091049" lon="6.6530843"><ele>339.1666666666667</ele><time>2026-04-12T07:49:25.921Z</time></trkpt><trkpt lat="43.6090406" lon="6.6531085"><ele>339.0</ele><time>2026-04-12T07:49:26.931Z</time></trkpt><trkpt lat="43.6089779" lon="6.6531375"><ele>339.0</ele><time>2026-04-12T07:49:27.933Z</time></trkpt><trkpt lat="43.6089143" lon="6.6531694"><ele>339.0</ele><time>2026-04-12T07:49:28.891Z</time></trkpt><trkpt lat="43.6088495" lon="6.6532021"><ele>339.0</ele><time>2026-04-12T07:49:29.918Z</time></trkpt><trkpt lat="43.6087837" lon="6.6532361"><ele>339.0</ele><time>2026-04-12T07:49:30.935Z</time></trkpt><trkpt lat="43.6087189" lon="6.6532667"><ele>339.0</ele><time>2026-04-12T07:49:31.9Z</time></trkpt><trkpt lat="43.6086492" lon="6.6532967"><ele>339.0</ele><time>2026-04-12T07:49:32.917Z</time></trkpt><trkpt lat="43.6085775" lon="6.653328"><ele>339.0</ele><time>2026-04-12T07:49:33.927Z</time></trkpt><trkpt lat="43.6085088" lon="6.6533561"><ele>339.7142857142857</ele><time>2026-04-12T07:49:34.917Z</time></trkpt><trkpt lat="43.6084421" lon="6.6533915"><ele>340.42857142857144</ele><time>2026-04-12T07:49:35.934Z</time></trkpt><trkpt lat="43.6083726" lon="6.6534283"><ele>341.14285714285717</ele><time>2026-04-12T07:49:36.932Z</time></trkpt><trkpt lat="43.6083021" lon="6.6534655"><ele>341.8571428571429</ele><time>2026-04-12T07:49:37.924Z</time></trkpt><trkpt lat="43.6082321" lon="6.6535001"><ele>342.57142857142856</ele><time>2026-04-12T07:49:38.939Z</time></trkpt><trkpt lat="43.6081633" lon="6.6535303"><ele>343.28571428571433</ele><time>2026-04-12T07:49:39.92Z</time></trkpt><trkpt lat="43.6080898" lon="6.6535568"><ele>344.0</ele><time>2026-04-12T07:49:40.91Z</time></trkpt><trkpt lat="43.6080132" lon="6.6535785"><ele>344.0</ele><time>2026-04-12T07:49:41.929Z</time></trkpt><trkpt lat="43.6079348" lon="6.653609"><ele>344.0</ele><time>2026-04-12T07:49:42.892Z</time></trkpt><trkpt lat="43.6078579" lon="6.6536411"><ele>344.0</ele><time>2026-04-12T07:49:43.911Z</time></trkpt><trkpt lat="43.6077791" lon="6.6536693"><ele>344.0</ele><time>2026-04-12T07:49:44.941Z</time></trkpt><trkpt lat="43.6077082" lon="6.6536993"><ele>344.0</ele><time>2026-04-12T07:49:45.93Z</time></trkpt><trkpt lat="43.607636" lon="6.6537246"><ele>344.0</ele><time>2026-04-12T07:49:46.926Z</time></trkpt><trkpt lat="43.6075631" lon="6.6537502"><ele>342.83333333333337</ele><time>2026-04-12T07:49:47.9Z</time></trkpt><trkpt lat="43.6074924" lon="6.6537722"><ele>341.6666666666667</ele><time>2026-04-12T07:49:48.928Z</time></trkpt><trkpt lat="43.6074202" lon="6.6537958"><ele>340.5</ele><time>2026-04-12T07:49:49.93Z</time></trkpt><trkpt lat="43.6073452" lon="6.6538174"><ele>339.3333333333333</ele><time>2026-04-12T07:49:50.902Z</time></trkpt><trkpt lat="43.607265" lon="6.6538398"><ele>338.16666666666663</ele><time>2026-04-12T07:49:51.925Z</time></trkpt><trkpt lat="43.607182" lon="6.653865"><ele>337.0</ele><time>2026-04-12T07:49:52.916Z</time></trkpt><trkpt lat="43.607097" lon="6.6538892"><ele>337.0</ele><time>2026-04-12T07:49:53.92Z</time></trkpt><trkpt lat="43.6070146" lon="6.6539162"><ele>337.0</ele><time>2026-04-12T07:49:54.945Z</time></trkpt><trkpt lat="43.6069295" lon="6.6539427"><ele>337.0</ele><time>2026-04-12T07:49:55.894Z</time></trkpt><trkpt lat="43.6068433" lon="6.6539724"><ele>337.0</ele><time>2026-04-12T07:49:56.918Z</time></trkpt><trkpt lat="43.6067602" lon="6.6540006"><ele>337.0</ele><time>2026-04-12T07:49:57.89Z</time></trkpt><trkpt lat="43.6066805" lon="6.6540301"><ele>337.0</ele><time>2026-04-12T07:49:58.942Z</time></trkpt><trkpt lat="43.6066012" lon="6.6540581"><ele>337.5</ele><time>2026-04-12T07:49:59.932Z</time></trkpt><trkpt lat="43.6065209" lon="6.6540795"><ele>338.0</ele><time>2026-04-12T07:50:00.91Z</time></trkpt><trkpt lat="43.6064375" lon="6.6540935"><ele>338.5</ele><time>2026-04-12T07:50:01.931Z</time></trkpt><trkpt lat="43.6063595" lon="6.654097"><ele>339.0</ele><time>2026-04-12T07:50:02.917Z</time></trkpt><trkpt lat="43.6062776" lon="6.6540851"><ele>339.5</ele><time>2026-04-12T07:50:03.929Z</time></trkpt><trkpt lat="43.6062009" lon="6.6540505"><ele>340.0</ele><time>2026-04-12T07:50:04.912Z</time></trkpt><trkpt lat="43.6061317" lon="6.6539809"><ele>340.16666666666663</ele><time>2026-04-12T07:50:05.919Z</time></trkpt><trkpt lat="43.6060834" lon="6.6538894"><ele>340.3333333333333</ele><time>2026-04-12T07:50:06.933Z</time></trkpt><trkpt lat="43.6060488" lon="6.6537847"><ele>340.5</ele><time>2026-04-12T07:50:07.934Z</time></trkpt><trkpt lat="43.6060401" lon="6.6536743"><ele>340.6666666666667</ele><time>2026-04-12T07:50:08.918Z</time></trkpt><trkpt lat="43.6060337" lon="6.6535552"><ele>340.83333333333337</ele><time>2026-04-12T07:50:09.921Z</time></trkpt><trkpt lat="43.6060238" lon="6.6534288"><ele>341.0</ele><time>2026-04-12T07:50:10.925Z</time></trkpt><trkpt lat="43.6060163" lon="6.6532976"><ele>341.0</ele><time>2026-04-12T07:50:11.929Z</time></trkpt><trkpt lat="43.6060027" lon="6.6531619"><ele>341.0</ele><time>2026-04-12T07:50:12.918Z</time></trkpt><trkpt lat="43.6059697" lon="6.6530314"><ele>341.0</ele><time>2026-04-12T07:50:13.935Z</time></trkpt><trkpt lat="43.6059121" lon="6.6529164"><ele>341.0</ele><time>2026-04-12T07:50:14.933Z</time></trkpt><trkpt lat="43.6058317" lon="6.6528227"><ele>341.0</ele><time>2026-04-12T07:50:15.894Z</time></trkpt><trkpt lat="43.6057346" lon="6.6527516"><ele>340.5</ele><time>2026-04-12T07:50:16.936Z</time></trkpt><trkpt lat="43.6056261" lon="6.6526883"><ele>340.0</ele><time>2026-04-12T07:50:17.934Z</time></trkpt><trkpt lat="43.6055132" lon="6.6526394"><ele>339.5</ele><time>2026-04-12T07:50:18.921Z</time></trkpt><trkpt lat="43.6053953" lon="6.6525838"><ele>339.0</ele><time>2026-04-12T07:50:19.929Z</time></trkpt><trkpt lat="43.6052846" lon="6.6525103"><ele>338.5</ele><time>2026-04-12T07:50:20.935Z</time></trkpt><trkpt lat="43.6051841" lon="6.6524021"><ele>338.0</ele><time>2026-04-12T07:50:21.916Z</time></trkpt><trkpt lat="43.6050934" lon="6.6522781"><ele>337.5</ele><time>2026-04-12T07:50:22.929Z</time></trkpt><trkpt lat="43.6050038" lon="6.6521716"><ele>337.0</ele><time>2026-04-12T07:50:23.912Z</time></trkpt><trkpt lat="43.6049004" lon="6.6520706"><ele>337.0</ele><time>2026-04-12T07:50:24.928Z</time></trkpt><trkpt lat="43.6047849" lon="6.6519932"><ele>337.0</ele><time>2026-04-12T07:50:25.918Z</time></trkpt><trkpt lat="43.6046581" lon="6.6519297"><ele>337.0</ele><time>2026-04-12T07:50:26.935Z</time></trkpt><trkpt lat="43.604528" lon="6.651882"><ele>337.0</ele><time>2026-04-12T07:50:27.92Z</time></trkpt><trkpt lat="43.6043967" lon="6.6518621"><ele>335.0</ele><time>2026-04-12T07:50:28.905Z</time></trkpt><trkpt lat="43.6042685" lon="6.651854"><ele>333.0</ele><time>2026-04-12T07:50:29.943Z</time></trkpt><trkpt lat="43.6041384" lon="6.6518642"><ele>331.0</ele><time>2026-04-12T07:50:30.925Z</time></trkpt><trkpt lat="43.6040037" lon="6.651882"><ele>329.0</ele><time>2026-04-12T07:50:31.917Z</time></trkpt><trkpt lat="43.6038684" lon="6.6519027"><ele>329.0</ele><time>2026-04-12T07:50:32.936Z</time></trkpt><trkpt lat="43.6037293" lon="6.6519177"><ele>329.0</ele><time>2026-04-12T07:50:33.938Z</time></trkpt><trkpt lat="43.6035867" lon="6.6519387"><ele>329.0</ele><time>2026-04-12T07:50:34.927Z</time></trkpt><trkpt lat="43.6034505" lon="6.6520025"><ele>329.0</ele><time>2026-04-12T07:50:35.912Z</time></trkpt><trkpt lat="43.6033269" lon="6.6520876"><ele>330.0</ele><time>2026-04-12T07:50:36.908Z</time></trkpt><trkpt lat="43.6032087" lon="6.6521897"><ele>331.0</ele><time>2026-04-12T07:50:37.944Z</time></trkpt><trkpt lat="43.6030814" lon="6.6522571"><ele>332.0</ele><time>2026-04-12T07:50:38.949Z</time></trkpt><trkpt lat="43.6029466" lon="6.6523089"><ele>333.0</ele><time>2026-04-12T07:50:39.906Z</time></trkpt><trkpt lat="43.602803" lon="6.6523293"><ele>330.75</ele><time>2026-04-12T07:50:40.934Z</time></trkpt><trkpt lat="43.602657" lon="6.6523338"><ele>328.5</ele><time>2026-04-12T07:50:41.926Z</time></trkpt><trkpt lat="43.6025118" lon="6.6523366"><ele>326.25</ele><time>2026-04-12T07:50:42.934Z</time></trkpt><trkpt lat="43.6023636" lon="6.6523512"><ele>324.0</ele><time>2026-04-12T07:50:43.924Z</time></trkpt><trkpt lat="43.6022165" lon="6.6523956"><ele>324.0</ele><time>2026-04-12T07:50:44.939Z</time></trkpt><trkpt lat="43.6020751" lon="6.6524549"><ele>324.0</ele><time>2026-04-12T07:50:45.94Z</time></trkpt><trkpt lat="43.6019408" lon="6.6525285"><ele>324.0</ele><time>2026-04-12T07:50:46.921Z</time></trkpt><trkpt lat="43.6018104" lon="6.6526066"><ele>324.0</ele><time>2026-04-12T07:50:47.9Z</time></trkpt><trkpt lat="43.6016767" lon="6.6526808"><ele>324.25</ele><time>2026-04-12T07:50:48.949Z</time></trkpt><trkpt lat="43.6015514" lon="6.6527542"><ele>324.5</ele><time>2026-04-12T07:50:49.939Z</time></trkpt><trkpt lat="43.6014298" lon="6.6528207"><ele>324.75</ele><time>2026-04-12T07:50:50.924Z</time></trkpt><trkpt lat="43.6013176" lon="6.6528823"><ele>325.0</ele><time>2026-04-12T07:50:51.912Z</time></trkpt><trkpt lat="43.6012041" lon="6.6529198"><ele>321.6</ele><time>2026-04-12T07:50:52.917Z</time></trkpt><trkpt lat="43.6010946" lon="6.652915"><ele>318.2</ele><time>2026-04-12T07:50:53.923Z</time></trkpt><trkpt lat="43.6009964" lon="6.6528756"><ele>314.8</ele><time>2026-04-12T07:50:54.915Z</time></trkpt><trkpt lat="43.6009268" lon="6.6527905"><ele>311.4</ele><time>2026-04-12T07:50:55.943Z</time></trkpt><trkpt lat="43.6008785" lon="6.6526642"><ele>308.0</ele><time>2026-04-12T07:50:56.932Z</time></trkpt><trkpt lat="43.6008654" lon="6.6525199"><ele>307.0</ele><time>2026-04-12T07:50:57.94Z</time></trkpt><trkpt lat="43.6008721" lon="6.6523697"><ele>306.0</ele><time>2026-04-12T07:50:58.915Z</time></trkpt><trkpt lat="43.6009058" lon="6.6522166"><ele>305.0</ele><time>2026-04-12T07:50:59.897Z</time></trkpt><trkpt lat="43.6009448" lon="6.6520613"><ele>304.0</ele><time>2026-04-12T07:51:00.916Z</time></trkpt><trkpt lat="43.6009856" lon="6.6518963"><ele>303.5</ele><time>2026-04-12T07:51:01.941Z</time></trkpt><trkpt lat="43.6010091" lon="6.6517282"><ele>303.0</ele><time>2026-04-12T07:51:02.914Z</time></trkpt><trkpt lat="43.6010077" lon="6.651562"><ele>302.5</ele><time>2026-04-12T07:51:03.919Z</time></trkpt><trkpt lat="43.600959" lon="6.6514107"><ele>302.0</ele><time>2026-04-12T07:51:04.938Z</time></trkpt><trkpt lat="43.6008775" lon="6.6512987"><ele>302.0</ele><time>2026-04-12T07:51:05.911Z</time></trkpt><trkpt lat="43.6007813" lon="6.6512231"><ele>302.0</ele><time>2026-04-12T07:51:06.932Z</time></trkpt><trkpt lat="43.6006695" lon="6.6511711"><ele>302.0</ele><time>2026-04-12T07:51:07.904Z</time></trkpt><trkpt lat="43.6005511" lon="6.6511302"><ele>302.0</ele><time>2026-04-12T07:51:08.906Z</time></trkpt><trkpt lat="43.6004403" lon="6.651101"><ele>302.6</ele><time>2026-04-12T07:51:09.926Z</time></trkpt><trkpt lat="43.6003301" lon="6.6510669"><ele>303.2</ele><time>2026-04-12T07:51:10.88Z</time></trkpt><trkpt lat="43.6002238" lon="6.6510306"><ele>303.8</ele><time>2026-04-12T07:51:11.943Z</time></trkpt><trkpt lat="43.600129" lon="6.6510063"><ele>304.4</ele><time>2026-04-12T07:51:12.943Z</time></trkpt><trkpt lat="43.600041" lon="6.6509851"><ele>305.0</ele><time>2026-04-12T07:51:13.951Z</time></trkpt><trkpt lat="43.599956" lon="6.6509664"><ele>305.0</ele><time>2026-04-12T07:51:14.927Z</time></trkpt><trkpt lat="43.5998756" lon="6.6509444"><ele>305.0</ele><time>2026-04-12T07:51:15.943Z</time></trkpt><trkpt lat="43.599799" lon="6.6509222"><ele>305.0</ele><time>2026-04-12T07:51:16.941Z</time></trkpt><trkpt lat="43.5997194" lon="6.6509003"><ele>305.0</ele><time>2026-04-12T07:51:17.943Z</time></trkpt><trkpt lat="43.5996385" lon="6.6508766"><ele>305.0</ele><time>2026-04-12T07:51:18.926Z</time></trkpt><trkpt lat="43.5995569" lon="6.6508557"><ele>305.0</ele><time>2026-04-12T07:51:19.935Z</time></trkpt><trkpt lat="43.5994716" lon="6.6508428"><ele>305.83333333333337</ele><time>2026-04-12T07:51:20.935Z</time></trkpt><trkpt lat="43.5993821" lon="6.650823"><ele>306.6666666666667</ele><time>2026-04-12T07:51:21.901Z</time></trkpt><trkpt lat="43.5992998" lon="6.6508106"><ele>307.5</ele><time>2026-04-12T07:51:22.92Z</time></trkpt><trkpt lat="43.5992173" lon="6.6508019"><ele>308.3333333333333</ele><time>2026-04-12T07:51:23.947Z</time></trkpt><trkpt lat="43.5991378" lon="6.6507949"><ele>309.16666666666663</ele><time>2026-04-12T07:51:24.923Z</time></trkpt><trkpt lat="43.5990577" lon="6.6507902"><ele>310.0</ele><time>2026-04-12T07:51:25.943Z</time></trkpt><trkpt lat="43.5989797" lon="6.6507783"><ele>310.0</ele><time>2026-04-12T07:51:26.92Z</time></trkpt><trkpt lat="43.5989107" lon="6.6507636"><ele>310.0</ele><time>2026-04-12T07:51:27.949Z</time></trkpt><trkpt lat="43.5988403" lon="6.6507433"><ele>310.0</ele><time>2026-04-12T07:51:28.929Z</time></trkpt><trkpt lat="43.5987744" lon="6.6507244"><ele>310.0</ele><time>2026-04-12T07:51:29.888Z</time></trkpt><trkpt lat="43.59871" lon="6.6506994"><ele>310.0</ele><time>2026-04-12T07:51:30.941Z</time></trkpt><trkpt lat="43.5986441" lon="6.6506811"><ele>310.0</ele><time>2026-04-12T07:51:31.913Z</time></trkpt><trkpt lat="43.5985783" lon="6.6506661"><ele>310.0</ele><time>2026-04-12T07:51:32.942Z</time></trkpt><trkpt lat="43.5985139" lon="6.6506501"><ele>310.66666666666663</ele><time>2026-04-12T07:51:33.923Z</time></trkpt><trkpt lat="43.5984004" lon="6.6506094"><ele>311.3333333333333</ele><time>2026-04-12T07:51:35.933Z</time></trkpt><trkpt lat="43.5983281" lon="6.6506032"><ele>312.0</ele><time>2026-04-12T07:51:36.926Z</time></trkpt><trkpt lat="43.5982565" lon="6.6506035"><ele>312.6666666666667</ele><time>2026-04-12T07:51:37.912Z</time></trkpt><trkpt lat="43.5981918" lon="6.6505974"><ele>313.33333333333337</ele><time>2026-04-12T07:51:38.921Z</time></trkpt><trkpt lat="43.5981267" lon="6.6505896"><ele>314.0</ele><time>2026-04-12T07:51:39.945Z</time></trkpt><trkpt lat="43.598057" lon="6.6505715"><ele>314.0</ele><time>2026-04-12T07:51:40.938Z</time></trkpt><trkpt lat="43.5979878" lon="6.6505435"><ele>314.0</ele><time>2026-04-12T07:51:41.903Z</time></trkpt><trkpt lat="43.5979164" lon="6.6505015"><ele>314.0</ele><time>2026-04-12T07:51:42.917Z</time></trkpt><trkpt lat="43.5978425" lon="6.6504575"><ele>314.0</ele><time>2026-04-12T07:51:43.938Z</time></trkpt><trkpt lat="43.5977662" lon="6.6504046"><ele>314.0</ele><time>2026-04-12T07:51:44.89Z</time></trkpt><trkpt lat="43.5976832" lon="6.6503622"><ele>314.0</ele><time>2026-04-12T07:51:45.904Z</time></trkpt><trkpt lat="43.5976022" lon="6.6503152"><ele>314.2</ele><time>2026-04-12T07:51:46.918Z</time></trkpt><trkpt lat="43.5975162" lon="6.6502714"><ele>314.4</ele><time>2026-04-12T07:51:47.941Z</time></trkpt><trkpt lat="43.5974307" lon="6.650231"><ele>314.6</ele><time>2026-04-12T07:51:48.933Z</time></trkpt><trkpt lat="43.5973433" lon="6.650189"><ele>314.8</ele><time>2026-04-12T07:51:49.948Z</time></trkpt><trkpt lat="43.597251" lon="6.6501467"><ele>315.0</ele><time>2026-04-12T07:51:50.932Z</time></trkpt><trkpt lat="43.5971586" lon="6.650097"><ele>315.0</ele><time>2026-04-12T07:51:51.934Z</time></trkpt><trkpt lat="43.5970691" lon="6.6500508"><ele>315.0</ele><time>2026-04-12T07:51:52.925Z</time></trkpt><trkpt lat="43.5969819" lon="6.6500074"><ele>315.0</ele><time>2026-04-12T07:51:53.918Z</time></trkpt><trkpt lat="43.5968904" lon="6.6499614"><ele>315.0</ele><time>2026-04-12T07:51:54.93Z</time></trkpt><trkpt lat="43.5968015" lon="6.6499141"><ele>315.0</ele><time>2026-04-12T07:51:55.939Z</time></trkpt><trkpt lat="43.5967159" lon="6.6498582"><ele>314.2</ele><time>2026-04-12T07:51:56.912Z</time></trkpt><trkpt lat="43.5966309" lon="6.6497947"><ele>313.4</ele><time>2026-04-12T07:51:57.877Z</time></trkpt><trkpt lat="43.5965494" lon="6.6497231"><ele>312.6</ele><time>2026-04-12T07:51:58.936Z</time></trkpt><trkpt lat="43.5964668" lon="6.6496472"><ele>311.8</ele><time>2026-04-12T07:51:59.946Z</time></trkpt><trkpt lat="43.596388" lon="6.6495587"><ele>311.0</ele><time>2026-04-12T07:52:00.925Z</time></trkpt><trkpt lat="43.5963163" lon="6.6494326"><ele>311.0</ele><time>2026-04-12T07:52:01.92Z</time></trkpt><trkpt lat="43.596248" lon="6.6492944"><ele>311.0</ele><time>2026-04-12T07:52:02.909Z</time></trkpt><trkpt lat="43.5961909" lon="6.6491433"><ele>311.0</ele><time>2026-04-12T07:52:03.916Z</time></trkpt><trkpt lat="43.5961383" lon="6.6489868"><ele>311.0</ele><time>2026-04-12T07:52:04.939Z</time></trkpt><trkpt lat="43.5960839" lon="6.6488341"><ele>309.25</ele><time>2026-04-12T07:52:05.936Z</time></trkpt><trkpt lat="43.5960236" lon="6.6486765"><ele>307.5</ele><time>2026-04-12T07:52:06.932Z</time></trkpt><trkpt lat="43.5959531" lon="6.6485285"><ele>305.75</ele><time>2026-04-12T07:52:07.935Z</time></trkpt><trkpt lat="43.595869" lon="6.6483831"><ele>304.0</ele><time>2026-04-12T07:52:08.938Z</time></trkpt><trkpt lat="43.5957744" lon="6.6482601"><ele>304.0</ele><time>2026-04-12T07:52:09.922Z</time></trkpt><trkpt lat="43.5956698" lon="6.6481472"><ele>304.0</ele><time>2026-04-12T07:52:10.895Z</time></trkpt><trkpt lat="43.595566" lon="6.6480487"><ele>304.0</ele><time>2026-04-12T07:52:11.925Z</time></trkpt><trkpt lat="43.5954625" lon="6.6479406"><ele>304.0</ele><time>2026-04-12T07:52:12.929Z</time></trkpt><trkpt lat="43.5953633" lon="6.6478331"><ele>303.5</ele><time>2026-04-12T07:52:13.942Z</time></trkpt><trkpt lat="43.5952693" lon="6.6477177"><ele>303.0</ele><time>2026-04-12T07:52:14.924Z</time></trkpt><trkpt lat="43.5951734" lon="6.6476043"><ele>302.5</ele><time>2026-04-12T07:52:15.927Z</time></trkpt><trkpt lat="43.5950743" lon="6.6474916"><ele>302.0</ele><time>2026-04-12T07:52:16.921Z</time></trkpt><trkpt lat="43.5949766" lon="6.6473786"><ele>302.0</ele><time>2026-04-12T07:52:17.923Z</time></trkpt><trkpt lat="43.59488" lon="6.6472691"><ele>302.0</ele><time>2026-04-12T07:52:18.896Z</time></trkpt><trkpt lat="43.5947825" lon="6.647148"><ele>302.0</ele><time>2026-04-12T07:52:19.916Z</time></trkpt><trkpt lat="43.5946834" lon="6.6470257"><ele>302.0</ele><time>2026-04-12T07:52:20.94Z</time></trkpt><trkpt lat="43.5945833" lon="6.6469009"><ele>301.0</ele><time>2026-04-12T07:52:21.949Z</time></trkpt><trkpt lat="43.5944828" lon="6.64677"><ele>300.0</ele><time>2026-04-12T07:52:22.917Z</time></trkpt><trkpt lat="43.5943778" lon="6.6466377"><ele>299.0</ele><time>2026-04-12T07:52:23.898Z</time></trkpt><trkpt lat="43.5942716" lon="6.6464985"><ele>298.0</ele><time>2026-04-12T07:52:24.936Z</time></trkpt><trkpt lat="43.5941751" lon="6.6463549"><ele>298.0</ele><time>2026-04-12T07:52:25.934Z</time></trkpt><trkpt lat="43.5940785" lon="6.6462087"><ele>298.0</ele><time>2026-04-12T07:52:26.922Z</time></trkpt><trkpt lat="43.5939878" lon="6.6460541"><ele>298.0</ele><time>2026-04-12T07:52:27.922Z</time></trkpt><trkpt lat="43.593901" lon="6.6458956"><ele>298.0</ele><time>2026-04-12T07:52:28.935Z</time></trkpt><trkpt lat="43.5938021" lon="6.6457402"><ele>297.75</ele><time>2026-04-12T07:52:29.915Z</time></trkpt><trkpt lat="43.5937042" lon="6.6455835"><ele>297.5</ele><time>2026-04-12T07:52:30.945Z</time></trkpt><trkpt lat="43.5936123" lon="6.6454309"><ele>297.25</ele><time>2026-04-12T07:52:31.923Z</time></trkpt><trkpt lat="43.5935186" lon="6.6452714"><ele>297.0</ele><time>2026-04-12T07:52:32.913Z</time></trkpt><trkpt lat="43.5934245" lon="6.6451174"><ele>295.25</ele><time>2026-04-12T07:52:33.931Z</time></trkpt><trkpt lat="43.5933262" lon="6.6449608"><ele>293.5</ele><time>2026-04-12T07:52:34.922Z</time></trkpt><trkpt lat="43.5932256" lon="6.6448034"><ele>291.75</ele><time>2026-04-12T07:52:35.899Z</time></trkpt><trkpt lat="43.5931315" lon="6.6446526"><ele>290.0</ele><time>2026-04-12T07:52:36.94Z</time></trkpt><trkpt lat="43.5930373" lon="6.6444986"><ele>290.0</ele><time>2026-04-12T07:52:37.932Z</time></trkpt><trkpt lat="43.5929487" lon="6.6443454"><ele>290.0</ele><time>2026-04-12T07:52:38.944Z</time></trkpt><trkpt lat="43.5928589" lon="6.6441845"><ele>290.0</ele><time>2026-04-12T07:52:39.92Z</time></trkpt><trkpt lat="43.5927679" lon="6.64403"><ele>290.0</ele><time>2026-04-12T07:52:40.932Z</time></trkpt><trkpt lat="43.5926805" lon="6.6438716"><ele>288.6666666666667</ele><time>2026-04-12T07:52:41.923Z</time></trkpt><trkpt lat="43.5925946" lon="6.6437094"><ele>287.3333333333333</ele><time>2026-04-12T07:52:42.908Z</time></trkpt><trkpt lat="43.5925149" lon="6.6435278"><ele>286.0</ele><time>2026-04-12T07:52:43.938Z</time></trkpt><trkpt lat="43.592442" lon="6.6433402"><ele>285.3333333333333</ele><time>2026-04-12T07:52:44.925Z</time></trkpt><trkpt lat="43.5923694" lon="6.6431559"><ele>284.6666666666667</ele><time>2026-04-12T07:52:45.96Z</time></trkpt><trkpt lat="43.5922916" lon="6.6429764"><ele>284.0</ele><time>2026-04-12T07:52:46.894Z</time></trkpt><trkpt lat="43.5922156" lon="6.6427926"><ele>284.0</ele><time>2026-04-12T07:52:47.935Z</time></trkpt><trkpt lat="43.5921332" lon="6.6426124"><ele>284.0</ele><time>2026-04-12T07:52:48.932Z</time></trkpt><trkpt lat="43.5920526" lon="6.6424316"><ele>284.0</ele><time>2026-04-12T07:52:49.934Z</time></trkpt><trkpt lat="43.591977" lon="6.6422553"><ele>283.0</ele><time>2026-04-12T07:52:50.94Z</time></trkpt><trkpt lat="43.5918982" lon="6.6420916"><ele>282.0</ele><time>2026-04-12T07:52:51.927Z</time></trkpt><trkpt lat="43.5918156" lon="6.6419393"><ele>281.0</ele><time>2026-04-12T07:52:52.908Z</time></trkpt><trkpt lat="43.5917291" lon="6.641794"><ele>280.0</ele><time>2026-04-12T07:52:53.922Z</time></trkpt><trkpt lat="43.5916357" lon="6.6416605"><ele>280.0</ele><time>2026-04-12T07:52:54.935Z</time></trkpt><trkpt lat="43.5915382" lon="6.6415366"><ele>280.0</ele><time>2026-04-12T07:52:55.926Z</time></trkpt><trkpt lat="43.5914402" lon="6.6414196"><ele>280.0</ele><time>2026-04-12T07:52:56.922Z</time></trkpt><trkpt lat="43.591341" lon="6.6413116"><ele>280.0</ele><time>2026-04-12T07:52:57.925Z</time></trkpt><trkpt lat="43.5912446" lon="6.6412066"><ele>280.0</ele><time>2026-04-12T07:52:58.933Z</time></trkpt><trkpt lat="43.5911542" lon="6.6411002"><ele>280.0</ele><time>2026-04-12T07:52:59.937Z</time></trkpt><trkpt lat="43.5910586" lon="6.641005"><ele>280.0</ele><time>2026-04-12T07:53:00.938Z</time></trkpt><trkpt lat="43.5909516" lon="6.64093"><ele>280.0</ele><time>2026-04-12T07:53:01.92Z</time></trkpt><trkpt lat="43.5908366" lon="6.6408873"><ele>280.0</ele><time>2026-04-12T07:53:02.926Z</time></trkpt><trkpt lat="43.5907136" lon="6.6408769"><ele>280.0</ele><time>2026-04-12T07:53:03.935Z</time></trkpt><trkpt lat="43.5905896" lon="6.6409004"><ele>280.0</ele><time>2026-04-12T07:53:04.936Z</time></trkpt><trkpt lat="43.5904669" lon="6.6409379"><ele>280.0</ele><time>2026-04-12T07:53:05.943Z</time></trkpt><trkpt lat="43.5903456" lon="6.6409758"><ele>279.25</ele><time>2026-04-12T07:53:06.942Z</time></trkpt><trkpt lat="43.5902271" lon="6.6410111"><ele>278.5</ele><time>2026-04-12T07:53:07.927Z</time></trkpt><trkpt lat="43.5900992" lon="6.6410497"><ele>277.75</ele><time>2026-04-12T07:53:08.926Z</time></trkpt><trkpt lat="43.5899778" lon="6.6410955"><ele>277.0</ele><time>2026-04-12T07:53:09.93Z</time></trkpt><trkpt lat="43.5898524" lon="6.6411414"><ele>276.5</ele><time>2026-04-12T07:53:10.931Z</time></trkpt><trkpt lat="43.5897309" lon="6.6411956"><ele>276.0</ele><time>2026-04-12T07:53:11.949Z</time></trkpt><trkpt lat="43.5896134" lon="6.641255"><ele>275.5</ele><time>2026-04-12T07:53:12.92Z</time></trkpt><trkpt lat="43.5894973" lon="6.6413146"><ele>275.0</ele><time>2026-04-12T07:53:13.924Z</time></trkpt><trkpt lat="43.5893811" lon="6.6413825"><ele>274.75</ele><time>2026-04-12T07:53:14.931Z</time></trkpt><trkpt lat="43.5892612" lon="6.6414581"><ele>274.5</ele><time>2026-04-12T07:53:15.92Z</time></trkpt><trkpt lat="43.5891455" lon="6.6415407"><ele>274.25</ele><time>2026-04-12T07:53:16.926Z</time></trkpt><trkpt lat="43.589038" lon="6.641645"><ele>274.0</ele><time>2026-04-12T07:53:17.925Z</time></trkpt><trkpt lat="43.5889424" lon="6.6417589"><ele>274.0</ele><time>2026-04-12T07:53:18.9Z</time></trkpt><trkpt lat="43.5888545" lon="6.6418814"><ele>274.0</ele><time>2026-04-12T07:53:19.925Z</time></trkpt><trkpt lat="43.5887701" lon="6.6420081"><ele>274.0</ele><time>2026-04-12T07:53:20.93Z</time></trkpt><trkpt lat="43.5886787" lon="6.6421245"><ele>274.0</ele><time>2026-04-12T07:53:21.936Z</time></trkpt><trkpt lat="43.5885777" lon="6.6422189"><ele>272.75</ele><time>2026-04-12T07:53:22.93Z</time></trkpt><trkpt lat="43.5884731" lon="6.6422916"><ele>271.5</ele><time>2026-04-12T07:53:23.939Z</time></trkpt><trkpt lat="43.5883634" lon="6.6423548"><ele>270.25</ele><time>2026-04-12T07:53:24.902Z</time></trkpt><trkpt lat="43.5882538" lon="6.6424099"><ele>269.0</ele><time>2026-04-12T07:53:25.908Z</time></trkpt><trkpt lat="43.5881418" lon="6.6424605"><ele>269.0</ele><time>2026-04-12T07:53:26.923Z</time></trkpt><trkpt lat="43.5880363" lon="6.642504"><ele>269.0</ele><time>2026-04-12T07:53:27.926Z</time></trkpt><trkpt lat="43.5879294" lon="6.6425426"><ele>269.0</ele><time>2026-04-12T07:53:28.947Z</time></trkpt><trkpt lat="43.5878215" lon="6.6425765"><ele>269.0</ele><time>2026-04-12T07:53:29.938Z</time></trkpt><trkpt lat="43.5877108" lon="6.6426126"><ele>269.0</ele><time>2026-04-12T07:53:30.947Z</time></trkpt><trkpt lat="43.587599" lon="6.6426511"><ele>269.5</ele><time>2026-04-12T07:53:31.923Z</time></trkpt><trkpt lat="43.5874812" lon="6.642686"><ele>270.0</ele><time>2026-04-12T07:53:32.932Z</time></trkpt><trkpt lat="43.5873681" lon="6.64272"><ele>270.5</ele><time>2026-04-12T07:53:33.919Z</time></trkpt><trkpt lat="43.5872527" lon="6.6427591"><ele>271.0</ele><time>2026-04-12T07:53:34.943Z</time></trkpt><trkpt lat="43.5871402" lon="6.6427994"><ele>270.0</ele><time>2026-04-12T07:53:35.939Z</time></trkpt><trkpt lat="43.5870291" lon="6.6428347"><ele>269.0</ele><time>2026-04-12T07:53:36.91Z</time></trkpt><trkpt lat="43.5869168" lon="6.6428604"><ele>268.0</ele><time>2026-04-12T07:53:37.929Z</time></trkpt><trkpt lat="43.5868116" lon="6.6428669"><ele>267.0</ele><time>2026-04-12T07:53:38.904Z</time></trkpt><trkpt lat="43.5867167" lon="6.642853"><ele>266.0</ele><time>2026-04-12T07:53:39.936Z</time></trkpt><trkpt lat="43.5866364" lon="6.6428107"><ele>266.0</ele><time>2026-04-12T07:53:40.932Z</time></trkpt><trkpt lat="43.5865523" lon="6.6427459"><ele>266.0</ele><time>2026-04-12T07:53:41.926Z</time></trkpt><trkpt lat="43.5864609" lon="6.6426915"><ele>266.0</ele><time>2026-04-12T07:53:42.934Z</time></trkpt><trkpt lat="43.5863708" lon="6.6426895"><ele>266.0</ele><time>2026-04-12T07:53:43.924Z</time></trkpt><trkpt lat="43.5862864" lon="6.6427342"><ele>266.0</ele><time>2026-04-12T07:53:44.912Z</time></trkpt><trkpt lat="43.5862205" lon="6.6428109"><ele>265.8</ele><time>2026-04-12T07:53:45.929Z</time></trkpt><trkpt lat="43.5861461" lon="6.6429042"><ele>265.6</ele><time>2026-04-12T07:53:46.903Z</time></trkpt><trkpt lat="43.5860925" lon="6.6430136"><ele>265.4</ele><time>2026-04-12T07:53:47.935Z</time></trkpt><trkpt lat="43.5860327" lon="6.6431321"><ele>265.2</ele><time>2026-04-12T07:53:48.936Z</time></trkpt><trkpt lat="43.5859792" lon="6.6432455"><ele>265.0</ele><time>2026-04-12T07:53:49.936Z</time></trkpt><trkpt lat="43.5859262" lon="6.6433638"><ele>265.0</ele><time>2026-04-12T07:53:50.933Z</time></trkpt><trkpt lat="43.585867" lon="6.6434835"><ele>265.0</ele><time>2026-04-12T07:53:51.935Z</time></trkpt><trkpt lat="43.5858089" lon="6.6436045"><ele>265.0</ele><time>2026-04-12T07:53:52.937Z</time></trkpt><trkpt lat="43.585749" lon="6.6437217"><ele>265.0</ele><time>2026-04-12T07:53:53.883Z</time></trkpt><trkpt lat="43.5856931" lon="6.6438442"><ele>265.0</ele><time>2026-04-12T07:53:54.932Z</time></trkpt><trkpt lat="43.585631" lon="6.6439662"><ele>264.4</ele><time>2026-04-12T07:53:55.919Z</time></trkpt><trkpt lat="43.5855702" lon="6.6440927"><ele>263.8</ele><time>2026-04-12T07:53:56.939Z</time></trkpt><trkpt lat="43.5855148" lon="6.6442161"><ele>263.2</ele><time>2026-04-12T07:53:57.932Z</time></trkpt><trkpt lat="43.585461" lon="6.6443435"><ele>262.6</ele><time>2026-04-12T07:53:58.93Z</time></trkpt><trkpt lat="43.585399" lon="6.644468"><ele>262.0</ele><time>2026-04-12T07:53:59.935Z</time></trkpt><trkpt lat="43.5853402" lon="6.64459"><ele>262.0</ele><time>2026-04-12T07:54:00.901Z</time></trkpt><trkpt lat="43.5852811" lon="6.6447086"><ele>262.0</ele><time>2026-04-12T07:54:01.922Z</time></trkpt><trkpt lat="43.5852272" lon="6.6448303"><ele>262.0</ele><time>2026-04-12T07:54:02.933Z</time></trkpt><trkpt lat="43.5851708" lon="6.6449569"><ele>262.0</ele><time>2026-04-12T07:54:03.9Z</time></trkpt><trkpt lat="43.5851162" lon="6.645081"><ele>262.0</ele><time>2026-04-12T07:54:04.937Z</time></trkpt><trkpt lat="43.5850609" lon="6.6452107"><ele>261.4</ele><time>2026-04-12T07:54:05.935Z</time></trkpt><trkpt lat="43.5850069" lon="6.6453431"><ele>260.79999999999995</ele><time>2026-04-12T07:54:06.941Z</time></trkpt><trkpt lat="43.5849567" lon="6.6454839"><ele>260.2</ele><time>2026-04-12T07:54:07.936Z</time></trkpt><trkpt lat="43.5849184" lon="6.6456278"><ele>259.59999999999997</ele><time>2026-04-12T07:54:08.934Z</time></trkpt><trkpt lat="43.5848927" lon="6.6457772"><ele>259.0</ele><time>2026-04-12T07:54:09.923Z</time></trkpt><trkpt lat="43.5848723" lon="6.6459314"><ele>259.0</ele><time>2026-04-12T07:54:10.923Z</time></trkpt><trkpt lat="43.5848519" lon="6.6460944"><ele>259.0</ele><time>2026-04-12T07:54:11.932Z</time></trkpt><trkpt lat="43.5848358" lon="6.646254"><ele>259.0</ele><time>2026-04-12T07:54:12.938Z</time></trkpt><trkpt lat="43.5848211" lon="6.6464174"><ele>259.0</ele><time>2026-04-12T07:54:13.93Z</time></trkpt><trkpt lat="43.5848128" lon="6.6465768"><ele>257.75</ele><time>2026-04-12T07:54:14.901Z</time></trkpt><trkpt lat="43.5848039" lon="6.6467428"><ele>256.5</ele><time>2026-04-12T07:54:15.919Z</time></trkpt><trkpt lat="43.5847926" lon="6.6469144"><ele>255.25</ele><time>2026-04-12T07:54:16.936Z</time></trkpt><trkpt lat="43.5847813" lon="6.6470842"><ele>254.0</ele><time>2026-04-12T07:54:17.914Z</time></trkpt><trkpt lat="43.5847708" lon="6.6472557"><ele>253.5</ele><time>2026-04-12T07:54:18.917Z</time></trkpt><trkpt lat="43.5847731" lon="6.6474265"><ele>253.0</ele><time>2026-04-12T07:54:19.922Z</time></trkpt><trkpt lat="43.5847845" lon="6.6476045"><ele>252.5</ele><time>2026-04-12T07:54:20.937Z</time></trkpt><trkpt lat="43.5848294" lon="6.6477671"><ele>252.0</ele><time>2026-04-12T07:54:21.934Z</time></trkpt><trkpt lat="43.5848916" lon="6.647928"><ele>251.5</ele><time>2026-04-12T07:54:22.897Z</time></trkpt><trkpt lat="43.5849545" lon="6.6480842"><ele>251.0</ele><time>2026-04-12T07:54:23.913Z</time></trkpt><trkpt lat="43.585007" lon="6.6482408"><ele>250.5</ele><time>2026-04-12T07:54:24.92Z</time></trkpt><trkpt lat="43.5850448" lon="6.6484147"><ele>250.0</ele><time>2026-04-12T07:54:25.91Z</time></trkpt><trkpt lat="43.5850512" lon="6.6485971"><ele>249.75</ele><time>2026-04-12T07:54:26.921Z</time></trkpt><trkpt lat="43.5850493" lon="6.6487821"><ele>249.5</ele><time>2026-04-12T07:54:27.906Z</time></trkpt><trkpt lat="43.5850391" lon="6.6489568"><ele>249.25</ele><time>2026-04-12T07:54:28.934Z</time></trkpt><trkpt lat="43.5850145" lon="6.6491328"><ele>249.0</ele><time>2026-04-12T07:54:29.937Z</time></trkpt><trkpt lat="43.5849829" lon="6.6493085"><ele>247.25</ele><time>2026-04-12T07:54:30.915Z</time></trkpt><trkpt lat="43.5849535" lon="6.6494849"><ele>245.5</ele><time>2026-04-12T07:54:31.905Z</time></trkpt><trkpt lat="43.584924" lon="6.6496643"><ele>243.75</ele><time>2026-04-12T07:54:32.936Z</time></trkpt><trkpt lat="43.5848967" lon="6.6498477"><ele>242.0</ele><time>2026-04-12T07:54:33.895Z</time></trkpt><trkpt lat="43.5848721" lon="6.6500269"><ele>242.0</ele><time>2026-04-12T07:54:34.902Z</time></trkpt><trkpt lat="43.5848559" lon="6.6502052"><ele>242.0</ele><time>2026-04-12T07:54:35.929Z</time></trkpt><trkpt lat="43.5848485" lon="6.6503874"><ele>242.0</ele><time>2026-04-12T07:54:36.938Z</time></trkpt><trkpt lat="43.5848506" lon="6.650569"><ele>242.0</ele><time>2026-04-12T07:54:37.921Z</time></trkpt><trkpt lat="43.5848622" lon="6.6507476"><ele>241.0</ele><time>2026-04-12T07:54:38.918Z</time></trkpt><trkpt lat="43.5848923" lon="6.6509112"><ele>240.0</ele><time>2026-04-12T07:54:39.911Z</time></trkpt><trkpt lat="43.5849337" lon="6.6510716"><ele>239.0</ele><time>2026-04-12T07:54:40.897Z</time></trkpt><trkpt lat="43.5849873" lon="6.651227"><ele>238.0</ele><time>2026-04-12T07:54:41.919Z</time></trkpt><trkpt lat="43.5850448" lon="6.6513793"><ele>237.75</ele><time>2026-04-12T07:54:42.904Z</time></trkpt><trkpt lat="43.5851115" lon="6.6515167"><ele>237.5</ele><time>2026-04-12T07:54:43.888Z</time></trkpt><trkpt lat="43.5851771" lon="6.6516541"><ele>237.25</ele><time>2026-04-12T07:54:44.879Z</time></trkpt><trkpt lat="43.585245" lon="6.6517872"><ele>237.0</ele><time>2026-04-12T07:54:45.911Z</time></trkpt><trkpt lat="43.5853034" lon="6.6519309"><ele>237.5</ele><time>2026-04-12T07:54:46.882Z</time></trkpt><trkpt lat="43.5853505" lon="6.6520916"><ele>238.0</ele><time>2026-04-12T07:54:47.934Z</time></trkpt><trkpt lat="43.5853734" lon="6.6522451"><ele>238.5</ele><time>2026-04-12T07:54:48.941Z</time></trkpt><trkpt lat="43.5853904" lon="6.652403"><ele>239.0</ele><time>2026-04-12T07:54:49.921Z</time></trkpt><trkpt lat="43.5853912" lon="6.6525512"><ele>239.0</ele><time>2026-04-12T07:54:50.918Z</time></trkpt><trkpt lat="43.5853834" lon="6.6527011"><ele>238.99999999999997</ele><time>2026-04-12T07:54:51.936Z</time></trkpt><trkpt lat="43.5853764" lon="6.6528512"><ele>238.99999999999997</ele><time>2026-04-12T07:54:52.932Z</time></trkpt><trkpt lat="43.5853712" lon="6.6530024"><ele>239.0</ele><time>2026-04-12T07:54:53.937Z</time></trkpt><trkpt lat="43.5853709" lon="6.6531514"><ele>239.0</ele><time>2026-04-12T07:54:54.929Z</time></trkpt><trkpt lat="43.5853707" lon="6.6533048"><ele>239.0</ele><time>2026-04-12T07:54:55.952Z</time></trkpt><trkpt lat="43.5853683" lon="6.6534569"><ele>238.99999999999997</ele><time>2026-04-12T07:54:56.902Z</time></trkpt><trkpt lat="43.5853648" lon="6.653607"><ele>238.99999999999997</ele><time>2026-04-12T07:54:57.921Z</time></trkpt><trkpt lat="43.58536" lon="6.65376"><ele>239.0</ele><time>2026-04-12T07:54:58.932Z</time></trkpt><trkpt lat="43.5853557" lon="6.6539134"><ele>239.0</ele><time>2026-04-12T07:54:59.905Z</time></trkpt><trkpt lat="43.5853536" lon="6.6540631"><ele>239.39999999999998</ele><time>2026-04-12T07:55:00.939Z</time></trkpt><trkpt lat="43.5853535" lon="6.6542116"><ele>239.79999999999998</ele><time>2026-04-12T07:55:01.934Z</time></trkpt><trkpt lat="43.5853517" lon="6.6543567"><ele>240.20000000000002</ele><time>2026-04-12T07:55:02.919Z</time></trkpt><trkpt lat="43.5853532" lon="6.6544981"><ele>240.60000000000002</ele><time>2026-04-12T07:55:03.877Z</time></trkpt><trkpt lat="43.5853523" lon="6.6546417"><ele>241.0</ele><time>2026-04-12T07:55:04.942Z</time></trkpt><trkpt lat="43.5853522" lon="6.6547886"><ele>241.60000000000002</ele><time>2026-04-12T07:55:05.95Z</time></trkpt><trkpt lat="43.5853551" lon="6.6549365"><ele>242.20000000000002</ele><time>2026-04-12T07:55:06.897Z</time></trkpt><trkpt lat="43.5853566" lon="6.6550859"><ele>242.79999999999998</ele><time>2026-04-12T07:55:07.924Z</time></trkpt><trkpt lat="43.5853573" lon="6.6552266"><ele>243.39999999999998</ele><time>2026-04-12T07:55:08.942Z</time></trkpt><trkpt lat="43.585361" lon="6.6553616"><ele>244.0</ele><time>2026-04-12T07:55:09.917Z</time></trkpt><trkpt lat="43.5853626" lon="6.6555004"><ele>244.2</ele><time>2026-04-12T07:55:10.927Z</time></trkpt><trkpt lat="43.5853621" lon="6.6556384"><ele>244.39999999999998</ele><time>2026-04-12T07:55:11.931Z</time></trkpt><trkpt lat="43.5853624" lon="6.6557727"><ele>244.6</ele><time>2026-04-12T07:55:12.935Z</time></trkpt><trkpt lat="43.5853674" lon="6.6559039"><ele>244.8</ele><time>2026-04-12T07:55:13.95Z</time></trkpt><trkpt lat="43.5853647" lon="6.6560378"><ele>245.0</ele><time>2026-04-12T07:55:14.914Z</time></trkpt><trkpt lat="43.5853606" lon="6.6561729"><ele>245.0</ele><time>2026-04-12T07:55:15.91Z</time></trkpt><trkpt lat="43.5853577" lon="6.6563056"><ele>245.0</ele><time>2026-04-12T07:55:16.913Z</time></trkpt><trkpt lat="43.5853558" lon="6.6564398"><ele>245.0</ele><time>2026-04-12T07:55:17.935Z</time></trkpt><trkpt lat="43.5853543" lon="6.6565686"><ele>245.0</ele><time>2026-04-12T07:55:18.925Z</time></trkpt><trkpt lat="43.5853494" lon="6.6567002"><ele>245.0</ele><time>2026-04-12T07:55:19.942Z</time></trkpt><trkpt lat="43.5853485" lon="6.656829"><ele>244.6</ele><time>2026-04-12T07:55:20.933Z</time></trkpt><trkpt lat="43.5853485" lon="6.6569544"><ele>244.2</ele><time>2026-04-12T07:55:21.921Z</time></trkpt><trkpt lat="43.5853421" lon="6.6570814"><ele>243.8</ele><time>2026-04-12T07:55:22.921Z</time></trkpt><trkpt lat="43.5853393" lon="6.6572056"><ele>243.4</ele><time>2026-04-12T07:55:23.925Z</time></trkpt><trkpt lat="43.5853297" lon="6.6573355"><ele>243.0</ele><time>2026-04-12T07:55:24.929Z</time></trkpt><trkpt lat="43.5853154" lon="6.6574548"><ele>242.66666666666666</ele><time>2026-04-12T07:55:25.91Z</time></trkpt><trkpt lat="43.5852951" lon="6.6575687"><ele>242.33333333333331</ele><time>2026-04-12T07:55:26.928Z</time></trkpt><trkpt lat="43.5852692" lon="6.6576785"><ele>242.0</ele><time>2026-04-12T07:55:27.94Z</time></trkpt><trkpt lat="43.5852357" lon="6.6577829"><ele>241.66666666666666</ele><time>2026-04-12T07:55:28.915Z</time></trkpt><trkpt lat="43.5851971" lon="6.6578847"><ele>241.33333333333331</ele><time>2026-04-12T07:55:29.893Z</time></trkpt><trkpt lat="43.5851564" lon="6.6579823"><ele>241.0</ele><time>2026-04-12T07:55:30.946Z</time></trkpt><trkpt lat="43.5851148" lon="6.6580759"><ele>241.85714285714286</ele><time>2026-04-12T07:55:31.923Z</time></trkpt><trkpt lat="43.585071" lon="6.6581609"><ele>242.71428571428572</ele><time>2026-04-12T07:55:32.901Z</time></trkpt><trkpt lat="43.5850208" lon="6.6582418"><ele>243.57142857142858</ele><time>2026-04-12T07:55:33.928Z</time></trkpt><trkpt lat="43.5849705" lon="6.6583149"><ele>244.42857142857144</ele><time>2026-04-12T07:55:34.918Z</time></trkpt><trkpt lat="43.5849223" lon="6.6583795"><ele>245.28571428571428</ele><time>2026-04-12T07:55:35.927Z</time></trkpt><trkpt lat="43.5848694" lon="6.658442"><ele>246.14285714285717</ele><time>2026-04-12T07:55:36.912Z</time></trkpt><trkpt lat="43.5848202" lon="6.6585012"><ele>247.0</ele><time>2026-04-12T07:55:37.904Z</time></trkpt><trkpt lat="43.584769" lon="6.6585669"><ele>248.8</ele><time>2026-04-12T07:55:38.903Z</time></trkpt><trkpt lat="43.5846833" lon="6.6587003"><ele>250.6</ele><time>2026-04-12T07:55:40.901Z</time></trkpt><trkpt lat="43.5846067" lon="6.6588309"><ele>252.40000000000003</ele><time>2026-04-12T07:55:42.923Z</time></trkpt><trkpt lat="43.5845564" lon="6.658986"><ele>254.20000000000002</ele><time>2026-04-12T07:55:44.882Z</time></trkpt><trkpt lat="43.5845408" lon="6.6590725"><ele>256.0</ele><time>2026-04-12T07:55:45.928Z</time></trkpt><trkpt lat="43.584515" lon="6.6592298"><ele>256.0</ele><time>2026-04-12T07:55:47.922Z</time></trkpt><trkpt lat="43.5845253" lon="6.6593969"><ele>256.0</ele><time>2026-04-12T07:55:49.9Z</time></trkpt><trkpt lat="43.584552" lon="6.6595513"><ele>256.0</ele><time>2026-04-12T07:55:51.915Z</time></trkpt><trkpt lat="43.5845934" lon="6.6597003"><ele>256.0</ele><time>2026-04-12T07:55:53.931Z</time></trkpt><trkpt lat="43.5846617" lon="6.6598194"><ele>256.0</ele><time>2026-04-12T07:55:55.926Z</time></trkpt><trkpt lat="43.5847421" lon="6.6599154"><ele>256.0</ele><time>2026-04-12T07:55:57.896Z</time></trkpt><trkpt lat="43.5848359" lon="6.6599893"><ele>256.0</ele><time>2026-04-12T07:55:59.93Z</time></trkpt><trkpt lat="43.5849377" lon="6.6600467"><ele>256.0</ele><time>2026-04-12T07:56:01.921Z</time></trkpt><trkpt lat="43.5850376" lon="6.6601168"><ele>256.0</ele><time>2026-04-12T07:56:03.933Z</time></trkpt><trkpt lat="43.5851443" lon="6.660189"><ele>256.0</ele><time>2026-04-12T07:56:05.944Z</time></trkpt><trkpt lat="43.5852373" lon="6.6602638"><ele>256.0</ele><time>2026-04-12T07:56:07.907Z</time></trkpt><trkpt lat="43.5853155" lon="6.6603738"><ele>256.0</ele><time>2026-04-12T07:56:09.925Z</time></trkpt><trkpt lat="43.5853588" lon="6.6605038"><ele>256.0</ele><time>2026-04-12T07:56:11.931Z</time></trkpt><trkpt lat="43.5853533" lon="6.6606474"><ele>256.0</ele><time>2026-04-12T07:56:13.915Z</time></trkpt><trkpt lat="43.5853112" lon="6.6607843"><ele>256.40000000000003</ele><time>2026-04-12T07:56:15.917Z</time></trkpt><trkpt lat="43.5852516" lon="6.6608991"><ele>256.8</ele><time>2026-04-12T07:56:17.908Z</time></trkpt><trkpt lat="43.5851844" lon="6.6610033"><ele>257.20000000000005</ele><time>2026-04-12T07:56:19.947Z</time></trkpt><trkpt lat="43.585115" lon="6.6610884"><ele>257.6</ele><time>2026-04-12T07:56:21.927Z</time></trkpt><trkpt lat="43.5850399" lon="6.6611843"><ele>258.0</ele><time>2026-04-12T07:56:23.909Z</time></trkpt><trkpt lat="43.5849647" lon="6.6612758"><ele>259.8</ele><time>2026-04-12T07:56:25.899Z</time></trkpt><trkpt lat="43.584889" lon="6.661367"><ele>261.6</ele><time>2026-04-12T07:56:27.877Z</time></trkpt><trkpt lat="43.5848217" lon="6.6614782"><ele>263.4</ele><time>2026-04-12T07:56:29.942Z</time></trkpt><trkpt lat="43.5847686" lon="6.6615917"><ele>265.2</ele><time>2026-04-12T07:56:31.924Z</time></trkpt><trkpt lat="43.5847167" lon="6.6617148"><ele>267.0</ele><time>2026-04-12T07:56:33.927Z</time></trkpt><trkpt lat="43.5846865" lon="6.661849"><ele>268.2</ele><time>2026-04-12T07:56:35.911Z</time></trkpt><trkpt lat="43.5846621" lon="6.6619913"><ele>269.4</ele><time>2026-04-12T07:56:37.93Z</time></trkpt><trkpt lat="43.5846478" lon="6.6621382"><ele>270.6</ele><time>2026-04-12T07:56:39.929Z</time></trkpt><trkpt lat="43.5846426" lon="6.6622946"><ele>271.8</ele><time>2026-04-12T07:56:41.928Z</time></trkpt><trkpt lat="43.5846417" lon="6.6624495"><ele>273.0</ele><time>2026-04-12T07:56:43.927Z</time></trkpt><trkpt lat="43.5853155" lon="6.6603738"><ele>271.0</ele><time>2026-04-12T07:56:09.925Z</time></trkpt><trkpt lat="43.5853588" lon="6.6605038"><ele>269.0</ele><time>2026-04-12T07:56:11.931Z</time></trkpt><trkpt lat="43.5853533" lon="6.6606474"><ele>267.0</ele><time>2026-04-12T07:56:13.915Z</time></trkpt><trkpt lat="43.5853112" lon="6.6607843"><ele>265.0</ele><time>2026-04-12T07:56:15.917Z</time></trkpt><trkpt lat="43.5852516" lon="6.6608991"><ele>263.0</ele><time>2026-04-12T07:56:17.908Z</time></trkpt><trkpt lat="43.5851844" lon="6.6610033"><ele>263.8</ele><time>2026-04-12T07:56:19.947Z</time></trkpt><trkpt lat="43.585115" lon="6.6610884"><ele>264.6</ele><time>2026-04-12T07:56:21.927Z</time></trkpt><trkpt lat="43.5850399" lon="6.6611843"><ele>265.4</ele><time>2026-04-12T07:56:23.909Z</time></trkpt><trkpt lat="43.5849647" lon="6.6612758"><ele>266.2</ele><time>2026-04-12T07:56:25.899Z</time></trkpt><trkpt lat="43.584889" lon="6.661367"><ele>267.0</ele><time>2026-04-12T07:56:27.877Z</time></trkpt><trkpt lat="43.5848217" lon="6.6614782"><ele>267.0</ele><time>2026-04-12T07:56:29.942Z</time></trkpt><trkpt lat="43.5847686" lon="6.6615917"><ele>267.0</ele><time>2026-04-12T07:56:31.924Z</time></trkpt><trkpt lat="43.5847167" lon="6.6617148"><ele>267.0</ele><time>2026-04-12T07:56:33.927Z</time></trkpt><trkpt lat="43.5846865" lon="6.661849"><ele>267.0</ele><time>2026-04-12T07:56:35.911Z</time></trkpt><trkpt lat="43.5846621" lon="6.6619913"><ele>267.0</ele><time>2026-04-12T07:56:37.93Z</time></trkpt><trkpt lat="43.5846478" lon="6.6621382"><ele>268.5</ele><time>2026-04-12T07:56:39.929Z</time></trkpt><trkpt lat="43.5846426" lon="6.6622946"><ele>270.0</ele><time>2026-04-12T07:56:41.928Z</time></trkpt><trkpt lat="43.5846417" lon="6.6624495"><ele>271.5</ele><time>2026-04-12T07:56:43.927Z</time></trkpt><trkpt lat="43.5846185" lon="6.6626016"><ele>273.0</ele><time>2026-04-12T07:56:45.921Z</time></trkpt><trkpt lat="43.5845975" lon="6.6627614"><ele>274.6</ele><time>2026-04-12T07:56:47.926Z</time></trkpt><trkpt lat="43.5845815" lon="6.6629222"><ele>276.20000000000005</ele><time>2026-04-12T07:56:49.92Z</time></trkpt><trkpt lat="43.5845659" lon="6.663069"><ele>277.8</ele><time>2026-04-12T07:56:51.919Z</time></trkpt><trkpt lat="43.584554" lon="6.6632151"><ele>279.40000000000003</ele><time>2026-04-12T07:56:53.92Z</time></trkpt><trkpt lat="43.5845402" lon="6.6633611"><ele>281.0</ele><time>2026-04-12T07:56:55.915Z</time></trkpt><trkpt lat="43.5845264" lon="6.6635039"><ele>279.40000000000003</ele><time>2026-04-12T07:56:57.917Z</time></trkpt><trkpt lat="43.5845106" lon="6.6636532"><ele>277.8</ele><time>2026-04-12T07:56:59.917Z</time></trkpt><trkpt lat="43.5844892" lon="6.6637944"><ele>276.20000000000005</ele><time>2026-04-12T07:57:01.918Z</time></trkpt><trkpt lat="43.5844423" lon="6.6639304"><ele>274.6</ele><time>2026-04-12T07:57:03.917Z</time></trkpt><trkpt lat="43.5843852" lon="6.664044"><ele>273.0</ele><time>2026-04-12T07:57:05.916Z</time></trkpt><trkpt lat="43.5843401" lon="6.6641749"><ele>273.0</ele><time>2026-04-12T07:57:07.929Z</time></trkpt><trkpt lat="43.5842825" lon="6.6643075"><ele>273.0</ele><time>2026-04-12T07:57:09.929Z</time></trkpt><trkpt lat="43.5842155" lon="6.6644294"><ele>273.0</ele><time>2026-04-12T07:57:11.907Z</time></trkpt><trkpt lat="43.5841355" lon="6.6645351"><ele>273.0</ele><time>2026-04-12T07:57:13.928Z</time></trkpt><trkpt lat="43.5840514" lon="6.6646244"><ele>273.0</ele><time>2026-04-12T07:57:15.873Z</time></trkpt><trkpt lat="43.5839538" lon="6.6647085"><ele>273.2</ele><time>2026-04-12T07:57:17.923Z</time></trkpt><trkpt lat="43.5838619" lon="6.6647943"><ele>273.4</ele><time>2026-04-12T07:57:19.93Z</time></trkpt><trkpt lat="43.5837666" lon="6.6648727"><ele>273.59999999999997</ele><time>2026-04-12T07:57:21.924Z</time></trkpt><trkpt lat="43.5836747" lon="6.6649577"><ele>273.8</ele><time>2026-04-12T07:57:23.925Z</time></trkpt><trkpt lat="43.583587" lon="6.6650567"><ele>274.0</ele><time>2026-04-12T07:57:25.91Z</time></trkpt><trkpt lat="43.5835001" lon="6.6651615"><ele>274.0</ele><time>2026-04-12T07:57:27.915Z</time></trkpt><trkpt lat="43.5834183" lon="6.6652749"><ele>274.0</ele><time>2026-04-12T07:57:29.923Z</time></trkpt><trkpt lat="43.5833445" lon="6.665399"><ele>274.0</ele><time>2026-04-12T07:57:31.917Z</time></trkpt><trkpt lat="43.5833104" lon="6.6654752"><ele>274.0</ele><time>2026-04-12T07:57:32.92Z</time></trkpt><trkpt lat="43.5832765" lon="6.6655528"><ele>274.0</ele><time>2026-04-12T07:57:33.922Z</time></trkpt><trkpt lat="43.5832466" lon="6.6656305"><ele>274.0</ele><time>2026-04-12T07:57:34.927Z</time></trkpt><trkpt lat="43.5832148" lon="6.6657159"><ele>274.8333333333333</ele><time>2026-04-12T07:57:35.932Z</time></trkpt><trkpt lat="43.5831921" lon="6.6658124"><ele>275.66666666666663</ele><time>2026-04-12T07:57:36.935Z</time></trkpt><trkpt lat="43.5831777" lon="6.6659165"><ele>276.5</ele><time>2026-04-12T07:57:37.913Z</time></trkpt><trkpt lat="43.5831706" lon="6.6660195"><ele>277.3333333333333</ele><time>2026-04-12T07:57:38.925Z</time></trkpt><trkpt lat="43.5831671" lon="6.6661205"><ele>278.1666666666667</ele><time>2026-04-12T07:57:39.934Z</time></trkpt><trkpt lat="43.5831637" lon="6.6662249"><ele>279.0</ele><time>2026-04-12T07:57:40.92Z</time></trkpt><trkpt lat="43.5831642" lon="6.6663335"><ele>279.0</ele><time>2026-04-12T07:57:41.931Z</time></trkpt><trkpt lat="43.5831719" lon="6.6664433"><ele>279.0</ele><time>2026-04-12T07:57:42.915Z</time></trkpt><trkpt lat="43.5831849" lon="6.6665503"><ele>279.0</ele><time>2026-04-12T07:57:43.921Z</time></trkpt><trkpt lat="43.5831994" lon="6.6666603"><ele>279.0</ele><time>2026-04-12T07:57:44.935Z</time></trkpt><trkpt lat="43.5832174" lon="6.6667661"><ele>279.0</ele><time>2026-04-12T07:57:45.907Z</time></trkpt><trkpt lat="43.5832365" lon="6.6668743"><ele>279.0</ele><time>2026-04-12T07:57:46.911Z</time></trkpt><trkpt lat="43.5832573" lon="6.6669838"><ele>278.6666666666667</ele><time>2026-04-12T07:57:47.933Z</time></trkpt><trkpt lat="43.5832806" lon="6.6670957"><ele>278.3333333333333</ele><time>2026-04-12T07:57:48.931Z</time></trkpt><trkpt lat="43.5833031" lon="6.6672039"><ele>278.0</ele><time>2026-04-12T07:57:49.928Z</time></trkpt><trkpt lat="43.5833201" lon="6.6673092"><ele>277.66666666666663</ele><time>2026-04-12T07:57:50.914Z</time></trkpt><trkpt lat="43.583338" lon="6.6674248"><ele>277.3333333333333</ele><time>2026-04-12T07:57:51.887Z</time></trkpt><trkpt lat="43.5833589" lon="6.6675366"><ele>277.0</ele><time>2026-04-12T07:57:52.947Z</time></trkpt><trkpt lat="43.5833853" lon="6.6676518"><ele>277.0</ele><time>2026-04-12T07:57:53.942Z</time></trkpt><trkpt lat="43.5834135" lon="6.6677697"><ele>277.0</ele><time>2026-04-12T07:57:54.919Z</time></trkpt><trkpt lat="43.583439" lon="6.6678885"><ele>277.0</ele><time>2026-04-12T07:57:55.936Z</time></trkpt><trkpt lat="43.5834572" lon="6.668014"><ele>277.0</ele><time>2026-04-12T07:57:56.928Z</time></trkpt><trkpt lat="43.583474" lon="6.6681425"><ele>277.0</ele><time>2026-04-12T07:57:57.909Z</time></trkpt><trkpt lat="43.5834978" lon="6.6682695"><ele>277.0</ele><time>2026-04-12T07:57:58.929Z</time></trkpt><trkpt lat="43.5835186" lon="6.6683894"><ele>277.0</ele><time>2026-04-12T07:58:00.004Z</time></trkpt><trkpt lat="43.5835493" lon="6.6685044"><ele>277.0</ele><time>2026-04-12T07:58:00.913Z</time></trkpt><trkpt lat="43.5835787" lon="6.6686107"><ele>277.0</ele><time>2026-04-12T07:58:01.909Z</time></trkpt><trkpt lat="43.5836134" lon="6.6687222"><ele>277.0</ele><time>2026-04-12T07:58:02.903Z</time></trkpt><trkpt lat="43.5836562" lon="6.6688245"><ele>277.0</ele><time>2026-04-12T07:58:03.908Z</time></trkpt><trkpt lat="43.583711" lon="6.6689214"><ele>278.0</ele><time>2026-04-12T07:58:04.907Z</time></trkpt><trkpt lat="43.5837724" lon="6.6690028"><ele>279.0</ele><time>2026-04-12T07:58:05.931Z</time></trkpt><trkpt lat="43.5838381" lon="6.6690786"><ele>280.0</ele><time>2026-04-12T07:58:06.926Z</time></trkpt><trkpt lat="43.583915" lon="6.6691451"><ele>281.0</ele><time>2026-04-12T07:58:07.914Z</time></trkpt><trkpt lat="43.5839963" lon="6.6692059"><ele>282.0</ele><time>2026-04-12T07:58:08.93Z</time></trkpt><trkpt lat="43.5840747" lon="6.6692495"><ele>283.0</ele><time>2026-04-12T07:58:09.931Z</time></trkpt><trkpt lat="43.584156" lon="6.6692824"><ele>283.0</ele><time>2026-04-12T07:58:10.933Z</time></trkpt><trkpt lat="43.5842377" lon="6.6693143"><ele>283.0</ele><time>2026-04-12T07:58:11.925Z</time></trkpt><trkpt lat="43.5843212" lon="6.6693481"><ele>283.0</ele><time>2026-04-12T07:58:12.937Z</time></trkpt><trkpt lat="43.5844084" lon="6.6693815"><ele>283.0</ele><time>2026-04-12T07:58:13.942Z</time></trkpt><trkpt lat="43.5844994" lon="6.6694158"><ele>283.0</ele><time>2026-04-12T07:58:14.925Z</time></trkpt><trkpt lat="43.5845934" lon="6.6694468"><ele>281.6</ele><time>2026-04-12T07:58:15.931Z</time></trkpt><trkpt lat="43.5846834" lon="6.6694874"><ele>280.20000000000005</ele><time>2026-04-12T07:58:16.929Z</time></trkpt><trkpt lat="43.5847735" lon="6.6695264"><ele>278.8</ele><time>2026-04-12T07:58:17.938Z</time></trkpt><trkpt lat="43.5848608" lon="6.6695615"><ele>277.40000000000003</ele><time>2026-04-12T07:58:18.916Z</time></trkpt><trkpt lat="43.584947" lon="6.6696018"><ele>276.0</ele><time>2026-04-12T07:58:19.936Z</time></trkpt><trkpt lat="43.5850285" lon="6.6696511"><ele>276.0</ele><time>2026-04-12T07:58:20.928Z</time></trkpt><trkpt lat="43.5851101" lon="6.6697076"><ele>276.0</ele><time>2026-04-12T07:58:21.946Z</time></trkpt><trkpt lat="43.5851827" lon="6.6697668"><ele>276.0</ele><time>2026-04-12T07:58:22.908Z</time></trkpt><trkpt lat="43.5852562" lon="6.6698329"><ele>276.0</ele><time>2026-04-12T07:58:23.915Z</time></trkpt><trkpt lat="43.5853325" lon="6.6699028"><ele>276.0</ele><time>2026-04-12T07:58:24.93Z</time></trkpt><trkpt lat="43.5854059" lon="6.6699621"><ele>276.0</ele><time>2026-04-12T07:58:25.926Z</time></trkpt><trkpt lat="43.5854814" lon="6.6700217"><ele>275.5</ele><time>2026-04-12T07:58:26.91Z</time></trkpt><trkpt lat="43.5855573" lon="6.6700678"><ele>275.0</ele><time>2026-04-12T07:58:27.918Z</time></trkpt><trkpt lat="43.5856315" lon="6.6701155"><ele>274.5</ele><time>2026-04-12T07:58:28.903Z</time></trkpt><trkpt lat="43.5857076" lon="6.6701636"><ele>274.0</ele><time>2026-04-12T07:58:29.922Z</time></trkpt><trkpt lat="43.5857822" lon="6.6702117"><ele>273.5</ele><time>2026-04-12T07:58:30.904Z</time></trkpt><trkpt lat="43.585862" lon="6.6702501"><ele>273.0</ele><time>2026-04-12T07:58:31.903Z</time></trkpt><trkpt lat="43.5859424" lon="6.6702848"><ele>273.0</ele><time>2026-04-12T07:58:32.911Z</time></trkpt><trkpt lat="43.5860254" lon="6.6703096"><ele>273.0</ele><time>2026-04-12T07:58:33.92Z</time></trkpt><trkpt lat="43.5861138" lon="6.6703219"><ele>273.0</ele><time>2026-04-12T07:58:34.932Z</time></trkpt><trkpt lat="43.5861982" lon="6.6703154"><ele>273.0</ele><time>2026-04-12T07:58:35.933Z</time></trkpt><trkpt lat="43.5862831" lon="6.6703038"><ele>273.0</ele><time>2026-04-12T07:58:36.916Z</time></trkpt><trkpt lat="43.5863671" lon="6.670276"><ele>273.0</ele><time>2026-04-12T07:58:37.917Z</time></trkpt><trkpt lat="43.5864432" lon="6.6702318"><ele>274.6666666666667</ele><time>2026-04-12T07:58:38.896Z</time></trkpt><trkpt lat="43.5865128" lon="6.6701778"><ele>276.3333333333333</ele><time>2026-04-12T07:58:39.928Z</time></trkpt><trkpt lat="43.5865849" lon="6.6701126"><ele>278.0</ele><time>2026-04-12T07:58:40.909Z</time></trkpt><trkpt lat="43.5866509" lon="6.6700375"><ele>279.66666666666663</ele><time>2026-04-12T07:58:41.932Z</time></trkpt><trkpt lat="43.586717" lon="6.6699607"><ele>281.3333333333333</ele><time>2026-04-12T07:58:42.934Z</time></trkpt><trkpt lat="43.5867818" lon="6.6698835"><ele>283.0</ele><time>2026-04-12T07:58:43.923Z</time></trkpt><trkpt lat="43.5868545" lon="6.6698084"><ele>283.0</ele><time>2026-04-12T07:58:44.918Z</time></trkpt><trkpt lat="43.5869265" lon="6.6697373"><ele>283.0</ele><time>2026-04-12T07:58:45.92Z</time></trkpt><trkpt lat="43.5870052" lon="6.6696621"><ele>283.0</ele><time>2026-04-12T07:58:46.897Z</time></trkpt><trkpt lat="43.5870823" lon="6.6695925"><ele>283.0</ele><time>2026-04-12T07:58:47.914Z</time></trkpt><trkpt lat="43.5871667" lon="6.6695342"><ele>283.0</ele><time>2026-04-12T07:58:48.919Z</time></trkpt><trkpt lat="43.5872522" lon="6.6694908"><ele>282.0</ele><time>2026-04-12T07:58:49.919Z</time></trkpt><trkpt lat="43.5873405" lon="6.6694659"><ele>281.0</ele><time>2026-04-12T07:58:50.919Z</time></trkpt><trkpt lat="43.5874337" lon="6.6694664"><ele>280.0</ele><time>2026-04-12T07:58:51.915Z</time></trkpt><trkpt lat="43.5875264" lon="6.6695062"><ele>279.0</ele><time>2026-04-12T07:58:52.948Z</time></trkpt><trkpt lat="43.5876003" lon="6.6695697"><ele>278.0</ele><time>2026-04-12T07:58:53.917Z</time></trkpt><trkpt lat="43.5876635" lon="6.6696642"><ele>278.0</ele><time>2026-04-12T07:58:54.927Z</time></trkpt><trkpt lat="43.5877121" lon="6.6697777"><ele>278.0</ele><time>2026-04-12T07:58:55.939Z</time></trkpt><trkpt lat="43.5877353" lon="6.6699019"><ele>278.0</ele><time>2026-04-12T07:58:56.912Z</time></trkpt><trkpt lat="43.5877406" lon="6.6700292"><ele>278.0</ele><time>2026-04-12T07:58:57.89Z</time></trkpt><trkpt lat="43.5877305" lon="6.6701484"><ele>278.0</ele><time>2026-04-12T07:58:58.929Z</time></trkpt><trkpt lat="43.5877083" lon="6.6702685"><ele>278.6666666666667</ele><time>2026-04-12T07:58:59.923Z</time></trkpt><trkpt lat="43.5876788" lon="6.6703805"><ele>279.33333333333337</ele><time>2026-04-12T07:59:00.917Z</time></trkpt><trkpt lat="43.5876482" lon="6.6704884"><ele>280.0</ele><time>2026-04-12T07:59:01.921Z</time></trkpt><trkpt lat="43.5876149" lon="6.6705873"><ele>280.6666666666667</ele><time>2026-04-12T07:59:02.924Z</time></trkpt><trkpt lat="43.5875745" lon="6.6706884"><ele>281.3333333333333</ele><time>2026-04-12T07:59:03.915Z</time></trkpt><trkpt lat="43.5875299" lon="6.6707852"><ele>282.0</ele><time>2026-04-12T07:59:04.937Z</time></trkpt><trkpt lat="43.5874917" lon="6.6708821"><ele>282.0</ele><time>2026-04-12T07:59:05.884Z</time></trkpt><trkpt lat="43.5874516" lon="6.6709732"><ele>282.0</ele><time>2026-04-12T07:59:06.883Z</time></trkpt><trkpt lat="43.5874156" lon="6.6710692"><ele>282.0</ele><time>2026-04-12T07:59:07.914Z</time></trkpt><trkpt lat="43.5873803" lon="6.6711651"><ele>282.0</ele><time>2026-04-12T07:59:08.928Z</time></trkpt><trkpt lat="43.5873381" lon="6.6712583"><ele>282.0</ele><time>2026-04-12T07:59:09.906Z</time></trkpt><trkpt lat="43.5872985" lon="6.6713531"><ele>282.0</ele><time>2026-04-12T07:59:10.93Z</time></trkpt><trkpt lat="43.5872517" lon="6.6714487"><ele>283.0</ele><time>2026-04-12T07:59:11.929Z</time></trkpt><trkpt lat="43.5872116" lon="6.6715465"><ele>284.0</ele><time>2026-04-12T07:59:12.934Z</time></trkpt><trkpt lat="43.5871683" lon="6.6716417"><ele>285.0</ele><time>2026-04-12T07:59:13.925Z</time></trkpt><trkpt lat="43.5871258" lon="6.6717428"><ele>286.0</ele><time>2026-04-12T07:59:14.927Z</time></trkpt><trkpt lat="43.5870831" lon="6.6718434"><ele>287.0</ele><time>2026-04-12T07:59:15.925Z</time></trkpt><trkpt lat="43.5870345" lon="6.671942"><ele>288.0</ele><time>2026-04-12T07:59:16.921Z</time></trkpt><trkpt lat="43.5869896" lon="6.6720419"><ele>288.0</ele><time>2026-04-12T07:59:17.925Z</time></trkpt><trkpt lat="43.5869456" lon="6.6721459"><ele>288.0</ele><time>2026-04-12T07:59:18.875Z</time></trkpt><trkpt lat="43.586908" lon="6.6722529"><ele>288.0</ele><time>2026-04-12T07:59:19.917Z</time></trkpt><trkpt lat="43.5868688" lon="6.6723559"><ele>288.0</ele><time>2026-04-12T07:59:20.939Z</time></trkpt><trkpt lat="43.5868346" lon="6.6724594"><ele>288.0</ele><time>2026-04-12T07:59:21.912Z</time></trkpt><trkpt lat="43.5868138" lon="6.672561"><ele>288.0</ele><time>2026-04-12T07:59:22.932Z</time></trkpt><trkpt lat="43.5867944" lon="6.6726678"><ele>287.8333333333333</ele><time>2026-04-12T07:59:23.92Z</time></trkpt><trkpt lat="43.5867827" lon="6.6727745"><ele>287.6666666666667</ele><time>2026-04-12T07:59:24.926Z</time></trkpt><trkpt lat="43.5867709" lon="6.6728757"><ele>287.5</ele><time>2026-04-12T07:59:25.943Z</time></trkpt><trkpt lat="43.5867696" lon="6.67298"><ele>287.33333333333337</ele><time>2026-04-12T07:59:26.923Z</time></trkpt><trkpt lat="43.5867765" lon="6.6730793"><ele>287.1666666666667</ele><time>2026-04-12T07:59:27.879Z</time></trkpt><trkpt lat="43.5867856" lon="6.6731838"><ele>287.0</ele><time>2026-04-12T07:59:28.926Z</time></trkpt><trkpt lat="43.5868015" lon="6.6732895"><ele>287.0</ele><time>2026-04-12T07:59:29.953Z</time></trkpt><trkpt lat="43.5868275" lon="6.6733865"><ele>287.0</ele><time>2026-04-12T07:59:30.911Z</time></trkpt><trkpt lat="43.5868502" lon="6.6734844"><ele>287.0</ele><time>2026-04-12T07:59:31.931Z</time></trkpt><trkpt lat="43.5868794" lon="6.6735852"><ele>287.0</ele><time>2026-04-12T07:59:32.932Z</time></trkpt><trkpt lat="43.5869045" lon="6.6736785"><ele>287.0</ele><time>2026-04-12T07:59:33.941Z</time></trkpt><trkpt lat="43.5869247" lon="6.673782"><ele>287.0</ele><time>2026-04-12T07:59:34.93Z</time></trkpt><trkpt lat="43.5869449" lon="6.6738843"><ele>286.6666666666667</ele><time>2026-04-12T07:59:35.947Z</time></trkpt><trkpt lat="43.5869672" lon="6.6739834"><ele>286.33333333333337</ele><time>2026-04-12T07:59:36.937Z</time></trkpt><trkpt lat="43.5869934" lon="6.6740869"><ele>286.0</ele><time>2026-04-12T07:59:37.905Z</time></trkpt><trkpt lat="43.5870162" lon="6.6741902"><ele>285.6666666666667</ele><time>2026-04-12T07:59:38.924Z</time></trkpt><trkpt lat="43.5870374" lon="6.6742904"><ele>285.3333333333333</ele><time>2026-04-12T07:59:39.882Z</time></trkpt><trkpt lat="43.5870637" lon="6.6743943"><ele>285.0</ele><time>2026-04-12T07:59:40.889Z</time></trkpt><trkpt lat="43.5870871" lon="6.6745054"><ele>285.8333333333333</ele><time>2026-04-12T07:59:41.919Z</time></trkpt><trkpt lat="43.5871143" lon="6.6746088"><ele>286.6666666666667</ele><time>2026-04-12T07:59:42.899Z</time></trkpt><trkpt lat="43.5871389" lon="6.674711"><ele>287.5</ele><time>2026-04-12T07:59:43.929Z</time></trkpt><trkpt lat="43.5871601" lon="6.6748168"><ele>288.33333333333337</ele><time>2026-04-12T07:59:44.904Z</time></trkpt><trkpt lat="43.5871833" lon="6.6749207"><ele>289.1666666666667</ele><time>2026-04-12T07:59:45.894Z</time></trkpt><trkpt lat="43.5872113" lon="6.6750257"><ele>290.0</ele><time>2026-04-12T07:59:46.936Z</time></trkpt><trkpt lat="43.5872358" lon="6.675137"><ele>290.0</ele><time>2026-04-12T07:59:47.873Z</time></trkpt><trkpt lat="43.5872614" lon="6.6752446"><ele>290.0</ele><time>2026-04-12T07:59:48.94Z</time></trkpt><trkpt lat="43.5872874" lon="6.6753505"><ele>290.0</ele><time>2026-04-12T07:59:49.919Z</time></trkpt><trkpt lat="43.5873155" lon="6.6754545"><ele>290.0</ele><time>2026-04-12T07:59:50.911Z</time></trkpt><trkpt lat="43.587344" lon="6.6755489"><ele>290.0</ele><time>2026-04-12T07:59:51.935Z</time></trkpt><trkpt lat="43.5873767" lon="6.6756385"><ele>290.0</ele><time>2026-04-12T07:59:52.915Z</time></trkpt><trkpt lat="43.5874228" lon="6.6757207"><ele>290.0</ele><time>2026-04-12T07:59:53.934Z</time></trkpt><trkpt lat="43.5874705" lon="6.6757989"><ele>290.0</ele><time>2026-04-12T07:59:54.916Z</time></trkpt><trkpt lat="43.587528" lon="6.6758643"><ele>290.0</ele><time>2026-04-12T07:59:55.894Z</time></trkpt><trkpt lat="43.5875927" lon="6.6759166"><ele>290.0</ele><time>2026-04-12T07:59:56.93Z</time></trkpt><trkpt lat="43.5876634" lon="6.6759659"><ele>290.0</ele><time>2026-04-12T07:59:57.932Z</time></trkpt><trkpt lat="43.5877426" lon="6.6760068"><ele>290.0</ele><time>2026-04-12T07:59:58.927Z</time></trkpt><trkpt lat="43.5878222" lon="6.6760373"><ele>289.83333333333337</ele><time>2026-04-12T07:59:59.922Z</time></trkpt><trkpt lat="43.5879022" lon="6.676056"><ele>289.6666666666667</ele><time>2026-04-12T08:00:00.908Z</time></trkpt><trkpt lat="43.5879797" lon="6.6760783"><ele>289.5</ele><time>2026-04-12T08:00:01.922Z</time></trkpt><trkpt lat="43.5880591" lon="6.6760985"><ele>289.3333333333333</ele><time>2026-04-12T08:00:02.91Z</time></trkpt><trkpt lat="43.5881372" lon="6.6761258"><ele>289.16666666666663</ele><time>2026-04-12T08:00:03.922Z</time></trkpt><trkpt lat="43.5882182" lon="6.6761556"><ele>289.0</ele><time>2026-04-12T08:00:04.925Z</time></trkpt><trkpt lat="43.588302" lon="6.6761777"><ele>289.0</ele><time>2026-04-12T08:00:05.942Z</time></trkpt><trkpt lat="43.5883874" lon="6.6761946"><ele>289.0</ele><time>2026-04-12T08:00:06.927Z</time></trkpt><trkpt lat="43.5884691" lon="6.6762104"><ele>289.0</ele><time>2026-04-12T08:00:07.94Z</time></trkpt><trkpt lat="43.5885507" lon="6.6762318"><ele>289.0</ele><time>2026-04-12T08:00:08.922Z</time></trkpt><trkpt lat="43.5886291" lon="6.6762539"><ele>289.0</ele><time>2026-04-12T08:00:09.934Z</time></trkpt><trkpt lat="43.5887115" lon="6.6762754"><ele>289.0</ele><time>2026-04-12T08:00:10.882Z</time></trkpt><trkpt lat="43.5887929" lon="6.6762932"><ele>289.5</ele><time>2026-04-12T08:00:11.913Z</time></trkpt><trkpt lat="43.5888721" lon="6.67631"><ele>290.0</ele><time>2026-04-12T08:00:12.902Z</time></trkpt><trkpt lat="43.5889553" lon="6.6763305"><ele>290.5</ele><time>2026-04-12T08:00:13.921Z</time></trkpt><trkpt lat="43.5890375" lon="6.6763516"><ele>291.0</ele><time>2026-04-12T08:00:14.906Z</time></trkpt><trkpt lat="43.589122" lon="6.6763729"><ele>291.5</ele><time>2026-04-12T08:00:15.917Z</time></trkpt><trkpt lat="43.589208" lon="6.6763986"><ele>292.0</ele><time>2026-04-12T08:00:16.932Z</time></trkpt><trkpt lat="43.5892949" lon="6.6764281"><ele>292.0</ele><time>2026-04-12T08:00:17.92Z</time></trkpt><trkpt lat="43.589384" lon="6.6764477"><ele>292.0</ele><time>2026-04-12T08:00:18.942Z</time></trkpt><trkpt lat="43.5894739" lon="6.6764662"><ele>292.0</ele><time>2026-04-12T08:00:19.928Z</time></trkpt><trkpt lat="43.5895604" lon="6.6764867"><ele>292.0</ele><time>2026-04-12T08:00:20.92Z</time></trkpt><trkpt lat="43.5896475" lon="6.6765117"><ele>292.0</ele><time>2026-04-12T08:00:21.923Z</time></trkpt><trkpt lat="43.5897318" lon="6.6765352"><ele>292.0</ele><time>2026-04-12T08:00:22.938Z</time></trkpt><trkpt lat="43.5898169" lon="6.6765636"><ele>292.4</ele><time>2026-04-12T08:00:23.899Z</time></trkpt><trkpt lat="43.5899012" lon="6.6766067"><ele>292.79999999999995</ele><time>2026-04-12T08:00:24.949Z</time></trkpt><trkpt lat="43.5899794" lon="6.6766652"><ele>293.2</ele><time>2026-04-12T08:00:25.939Z</time></trkpt><trkpt lat="43.5900541" lon="6.6767402"><ele>293.59999999999997</ele><time>2026-04-12T08:00:26.923Z</time></trkpt><trkpt lat="43.5901151" lon="6.6768335"><ele>294.0</ele><time>2026-04-12T08:00:27.933Z</time></trkpt><trkpt lat="43.5901701" lon="6.6769402"><ele>294.0</ele><time>2026-04-12T08:00:28.925Z</time></trkpt><trkpt lat="43.5902092" lon="6.6770548"><ele>294.0</ele><time>2026-04-12T08:00:29.915Z</time></trkpt><trkpt lat="43.5902359" lon="6.6771782"><ele>294.0</ele><time>2026-04-12T08:00:30.909Z</time></trkpt><trkpt lat="43.5902518" lon="6.6773053"><ele>294.0</ele><time>2026-04-12T08:00:31.944Z</time></trkpt><trkpt lat="43.5902547" lon="6.6774217"><ele>294.0</ele><time>2026-04-12T08:00:32.936Z</time></trkpt><trkpt lat="43.5902511" lon="6.6775465"><ele>294.0</ele><time>2026-04-12T08:00:33.927Z</time></trkpt><trkpt lat="43.5902415" lon="6.6776686"><ele>294.0</ele><time>2026-04-12T08:00:34.913Z</time></trkpt><trkpt lat="43.5902199" lon="6.6777821"><ele>294.0</ele><time>2026-04-12T08:00:35.918Z</time></trkpt><trkpt lat="43.5901878" lon="6.6778902"><ele>294.0</ele><time>2026-04-12T08:00:36.906Z</time></trkpt><trkpt lat="43.5901461" lon="6.6779865"><ele>294.0</ele><time>2026-04-12T08:00:37.93Z</time></trkpt><trkpt lat="43.590103" lon="6.6780816"><ele>294.0</ele><time>2026-04-12T08:00:38.913Z</time></trkpt><trkpt lat="43.5900541" lon="6.678169"><ele>294.7142857142857</ele><time>2026-04-12T08:00:39.914Z</time></trkpt><trkpt lat="43.5900052" lon="6.6782525"><ele>295.42857142857144</ele><time>2026-04-12T08:00:40.926Z</time></trkpt><trkpt lat="43.5899595" lon="6.6783317"><ele>296.1428571428571</ele><time>2026-04-12T08:00:41.925Z</time></trkpt><trkpt lat="43.5899158" lon="6.6784102"><ele>296.8571428571429</ele><time>2026-04-12T08:00:42.9Z</time></trkpt><trkpt lat="43.5898647" lon="6.6784847"><ele>297.57142857142856</ele><time>2026-04-12T08:00:43.914Z</time></trkpt><trkpt lat="43.5898208" lon="6.678563"><ele>298.2857142857143</ele><time>2026-04-12T08:00:44.928Z</time></trkpt><trkpt lat="43.5897775" lon="6.6786439"><ele>299.0</ele><time>2026-04-12T08:00:45.908Z</time></trkpt><trkpt lat="43.5897266" lon="6.678724"><ele>299.1428571428571</ele><time>2026-04-12T08:00:46.926Z</time></trkpt><trkpt lat="43.5896783" lon="6.6788063"><ele>299.2857142857143</ele><time>2026-04-12T08:00:47.922Z</time></trkpt><trkpt lat="43.5896291" lon="6.6788856"><ele>299.42857142857144</ele><time>2026-04-12T08:00:48.9Z</time></trkpt><trkpt lat="43.5895842" lon="6.6789673"><ele>299.57142857142856</ele><time>2026-04-12T08:00:49.935Z</time></trkpt><trkpt lat="43.5895369" lon="6.6790468"><ele>299.7142857142857</ele><time>2026-04-12T08:00:50.885Z</time></trkpt><trkpt lat="43.5894881" lon="6.6791242"><ele>299.85714285714283</ele><time>2026-04-12T08:00:51.928Z</time></trkpt><trkpt lat="43.5894383" lon="6.6791963"><ele>300.0</ele><time>2026-04-12T08:00:52.917Z</time></trkpt><trkpt lat="43.5893891" lon="6.6792621"><ele>299.99999999999994</ele><time>2026-04-12T08:00:53.957Z</time></trkpt><trkpt lat="43.5893408" lon="6.6793341"><ele>300.0</ele><time>2026-04-12T08:00:54.923Z</time></trkpt><trkpt lat="43.5893026" lon="6.6794141"><ele>300.0</ele><time>2026-04-12T08:00:55.924Z</time></trkpt><trkpt lat="43.5892605" lon="6.6794883"><ele>300.0</ele><time>2026-04-12T08:00:56.926Z</time></trkpt><trkpt lat="43.5892195" lon="6.6795591"><ele>300.0</ele><time>2026-04-12T08:00:57.939Z</time></trkpt><trkpt lat="43.589175" lon="6.6796251"><ele>299.99999999999994</ele><time>2026-04-12T08:00:58.927Z</time></trkpt><trkpt lat="43.5891327" lon="6.6796963"><ele>300.0</ele><time>2026-04-12T08:00:59.92Z</time></trkpt><trkpt lat="43.5890929" lon="6.6797704"><ele>300.57142857142856</ele><time>2026-04-12T08:01:00.931Z</time></trkpt><trkpt lat="43.5890613" lon="6.6798492"><ele>301.1428571428571</ele><time>2026-04-12T08:01:01.939Z</time></trkpt><trkpt lat="43.5890337" lon="6.6799355"><ele>301.71428571428567</ele><time>2026-04-12T08:01:02.925Z</time></trkpt><trkpt lat="43.5890088" lon="6.6800233"><ele>302.2857142857143</ele><time>2026-04-12T08:01:03.875Z</time></trkpt><trkpt lat="43.5889922" lon="6.6801162"><ele>302.8571428571429</ele><time>2026-04-12T08:01:04.919Z</time></trkpt><trkpt lat="43.5889828" lon="6.6802155"><ele>303.4285714285714</ele><time>2026-04-12T08:01:05.933Z</time></trkpt><trkpt lat="43.5889768" lon="6.680315"><ele>304.0</ele><time>2026-04-12T08:01:06.941Z</time></trkpt><trkpt lat="43.5889836" lon="6.6804123"><ele>304.0</ele><time>2026-04-12T08:01:07.923Z</time></trkpt><trkpt lat="43.5889877" lon="6.6805112"><ele>304.0</ele><time>2026-04-12T08:01:08.923Z</time></trkpt><trkpt lat="43.5890041" lon="6.6806057"><ele>304.0</ele><time>2026-04-12T08:01:09.934Z</time></trkpt><trkpt lat="43.5890227" lon="6.6806967"><ele>304.0</ele><time>2026-04-12T08:01:10.925Z</time></trkpt><trkpt lat="43.5890504" lon="6.6807823"><ele>304.0</ele><time>2026-04-12T08:01:11.938Z</time></trkpt><trkpt lat="43.5890858" lon="6.6808592"><ele>304.0</ele><time>2026-04-12T08:01:12.904Z</time></trkpt><trkpt lat="43.5891252" lon="6.6809377"><ele>304.0</ele><time>2026-04-12T08:01:13.911Z</time></trkpt><trkpt lat="43.5891685" lon="6.6810136"><ele>304.0</ele><time>2026-04-12T08:01:14.93Z</time></trkpt><trkpt lat="43.589224" lon="6.681074"><ele>304.0</ele><time>2026-04-12T08:01:15.94Z</time></trkpt><trkpt lat="43.5892877" lon="6.6811312"><ele>304.0</ele><time>2026-04-12T08:01:16.932Z</time></trkpt><trkpt lat="43.5893599" lon="6.6811817"><ele>304.0</ele><time>2026-04-12T08:01:17.957Z</time></trkpt><trkpt lat="43.589435" lon="6.6812271"><ele>304.0</ele><time>2026-04-12T08:01:18.92Z</time></trkpt><trkpt lat="43.5895121" lon="6.6812618"><ele>304.0</ele><time>2026-04-12T08:01:19.924Z</time></trkpt><trkpt lat="43.5895869" lon="6.6812931"><ele>304.0</ele><time>2026-04-12T08:01:20.927Z</time></trkpt><trkpt lat="43.5896673" lon="6.681332"><ele>304.0</ele><time>2026-04-12T08:01:21.92Z</time></trkpt><trkpt lat="43.5897492" lon="6.6813675"><ele>304.0</ele><time>2026-04-12T08:01:22.908Z</time></trkpt><trkpt lat="43.5898357" lon="6.6814109"><ele>304.0</ele><time>2026-04-12T08:01:23.932Z</time></trkpt><trkpt lat="43.5899245" lon="6.6814503"><ele>304.0</ele><time>2026-04-12T08:01:24.939Z</time></trkpt><trkpt lat="43.590022" lon="6.6814905"><ele>304.0</ele><time>2026-04-12T08:01:26.002Z</time></trkpt><trkpt lat="43.5901153" lon="6.6815303"><ele>304.0</ele><time>2026-04-12T08:01:26.944Z</time></trkpt><trkpt lat="43.5902127" lon="6.6815704"><ele>304.0</ele><time>2026-04-12T08:01:27.931Z</time></trkpt><trkpt lat="43.5903112" lon="6.681617"><ele>304.0</ele><time>2026-04-12T08:01:28.916Z</time></trkpt><trkpt lat="43.5904108" lon="6.6816591"><ele>304.0</ele><time>2026-04-12T08:01:29.928Z</time></trkpt><trkpt lat="43.5905175" lon="6.6817061"><ele>303.75</ele><time>2026-04-12T08:01:30.946Z</time></trkpt><trkpt lat="43.5906124" lon="6.6817693"><ele>303.5</ele><time>2026-04-12T08:01:31.94Z</time></trkpt><trkpt lat="43.5907129" lon="6.6818343"><ele>303.25</ele><time>2026-04-12T08:01:32.936Z</time></trkpt><trkpt lat="43.5908253" lon="6.6818782"><ele>303.0</ele><time>2026-04-12T08:01:33.92Z</time></trkpt><trkpt lat="43.5909446" lon="6.6819183"><ele>300.5</ele><time>2026-04-12T08:01:34.932Z</time></trkpt><trkpt lat="43.5910685" lon="6.6819638"><ele>298.0</ele><time>2026-04-12T08:01:35.91Z</time></trkpt><trkpt lat="43.5911875" lon="6.6820087"><ele>295.5</ele><time>2026-04-12T08:01:36.927Z</time></trkpt><trkpt lat="43.591313" lon="6.6820611"><ele>293.0</ele><time>2026-04-12T08:01:37.957Z</time></trkpt><trkpt lat="43.5914299" lon="6.6821104"><ele>292.75</ele><time>2026-04-12T08:01:38.932Z</time></trkpt><trkpt lat="43.5915459" lon="6.6821581"><ele>292.5</ele><time>2026-04-12T08:01:39.939Z</time></trkpt><trkpt lat="43.5916645" lon="6.6822061"><ele>292.25</ele><time>2026-04-12T08:01:40.936Z</time></trkpt><trkpt lat="43.5917838" lon="6.6822573"><ele>292.0</ele><time>2026-04-12T08:01:41.932Z</time></trkpt><trkpt lat="43.5919012" lon="6.6823005"><ele>292.25</ele><time>2026-04-12T08:01:42.933Z</time></trkpt><trkpt lat="43.5920199" lon="6.6823459"><ele>292.5</ele><time>2026-04-12T08:01:43.947Z</time></trkpt><trkpt lat="43.5921432" lon="6.6824038"><ele>292.75</ele><time>2026-04-12T08:01:44.924Z</time></trkpt><trkpt lat="43.5922677" lon="6.682464"><ele>293.0</ele><time>2026-04-12T08:01:45.902Z</time></trkpt><trkpt lat="43.5923928" lon="6.6825218"><ele>293.0</ele><time>2026-04-12T08:01:46.944Z</time></trkpt><trkpt lat="43.5925213" lon="6.6825807"><ele>293.0</ele><time>2026-04-12T08:01:47.907Z</time></trkpt><trkpt lat="43.5926516" lon="6.6826321"><ele>293.0</ele><time>2026-04-12T08:01:48.937Z</time></trkpt><trkpt lat="43.5927829" lon="6.6826834"><ele>293.0</ele><time>2026-04-12T08:01:49.927Z</time></trkpt><trkpt lat="43.592919" lon="6.6827304"><ele>292.75</ele><time>2026-04-12T08:01:50.94Z</time></trkpt><trkpt lat="43.5930571" lon="6.6827759"><ele>292.5</ele><time>2026-04-12T08:01:51.94Z</time></trkpt><trkpt lat="43.5931978" lon="6.6828085"><ele>292.25</ele><time>2026-04-12T08:01:52.898Z</time></trkpt><trkpt lat="43.5933437" lon="6.6828416"><ele>292.0</ele><time>2026-04-12T08:01:53.948Z</time></trkpt><trkpt lat="43.5934866" lon="6.6828721"><ele>292.0</ele><time>2026-04-12T08:01:54.936Z</time></trkpt><trkpt lat="43.5936335" lon="6.6828901"><ele>292.0</ele><time>2026-04-12T08:01:55.918Z</time></trkpt><trkpt lat="43.5937841" lon="6.68291"><ele>292.0</ele><time>2026-04-12T08:01:56.939Z</time></trkpt><trkpt lat="43.5939329" lon="6.6829291"><ele>292.0</ele><time>2026-04-12T08:01:57.938Z</time></trkpt><trkpt lat="43.5940852" lon="6.6829506"><ele>291.25</ele><time>2026-04-12T08:01:58.925Z</time></trkpt><trkpt lat="43.5942315" lon="6.6829735"><ele>290.5</ele><time>2026-04-12T08:01:59.93Z</time></trkpt><trkpt lat="43.5943737" lon="6.6830137"><ele>289.75</ele><time>2026-04-12T08:02:00.939Z</time></trkpt><trkpt lat="43.5945029" lon="6.683088"><ele>289.0</ele><time>2026-04-12T08:02:01.899Z</time></trkpt><trkpt lat="43.5945986" lon="6.6832131"><ele>286.5</ele><time>2026-04-12T08:02:02.933Z</time></trkpt><trkpt lat="43.5946727" lon="6.6833592"><ele>284.0</ele><time>2026-04-12T08:02:03.898Z</time></trkpt><trkpt lat="43.5947132" lon="6.6835443"><ele>281.5</ele><time>2026-04-12T08:02:04.916Z</time></trkpt><trkpt lat="43.5947262" lon="6.6837435"><ele>279.0</ele><time>2026-04-12T08:02:05.925Z</time></trkpt><trkpt lat="43.5947114" lon="6.6839528"><ele>278.25</ele><time>2026-04-12T08:02:06.932Z</time></trkpt><trkpt lat="43.5946754" lon="6.6841477"><ele>277.5</ele><time>2026-04-12T08:02:07.928Z</time></trkpt><trkpt lat="43.5946286" lon="6.684346"><ele>276.75</ele><time>2026-04-12T08:02:08.916Z</time></trkpt><trkpt lat="43.594577" lon="6.684538"><ele>276.0</ele><time>2026-04-12T08:02:09.919Z</time></trkpt><trkpt lat="43.5945137" lon="6.6847311"><ele>276.6666666666667</ele><time>2026-04-12T08:02:10.938Z</time></trkpt><trkpt lat="43.5944445" lon="6.6849327"><ele>277.33333333333337</ele><time>2026-04-12T08:02:11.917Z</time></trkpt><trkpt lat="43.5943852" lon="6.6851354"><ele>278.0</ele><time>2026-04-12T08:02:12.943Z</time></trkpt><trkpt lat="43.5943288" lon="6.6853391"><ele>275.6666666666667</ele><time>2026-04-12T08:02:13.941Z</time></trkpt><trkpt lat="43.594272" lon="6.6855399"><ele>273.3333333333333</ele><time>2026-04-12T08:02:14.947Z</time></trkpt><trkpt lat="43.5942002" lon="6.6857324"><ele>271.0</ele><time>2026-04-12T08:02:15.933Z</time></trkpt><trkpt lat="43.5941269" lon="6.6859315"><ele>270.66666666666663</ele><time>2026-04-12T08:02:16.907Z</time></trkpt><trkpt lat="43.5940616" lon="6.6861353"><ele>270.3333333333333</ele><time>2026-04-12T08:02:17.93Z</time></trkpt><trkpt lat="43.5940007" lon="6.6863395"><ele>270.0</ele><time>2026-04-12T08:02:18.939Z</time></trkpt><trkpt lat="43.5939371" lon="6.6865424"><ele>270.0</ele><time>2026-04-12T08:02:19.928Z</time></trkpt><trkpt lat="43.5938711" lon="6.6867462"><ele>270.0</ele><time>2026-04-12T08:02:20.92Z</time></trkpt><trkpt lat="43.5938041" lon="6.6869466"><ele>270.0</ele><time>2026-04-12T08:02:21.946Z</time></trkpt><trkpt lat="43.593741" lon="6.6871485"><ele>270.3333333333333</ele><time>2026-04-12T08:02:22.951Z</time></trkpt><trkpt lat="43.5936838" lon="6.6873531"><ele>270.66666666666663</ele><time>2026-04-12T08:02:23.956Z</time></trkpt><trkpt lat="43.5936363" lon="6.687553"><ele>271.0</ele><time>2026-04-12T08:02:24.923Z</time></trkpt><trkpt lat="43.5936108" lon="6.6877603"><ele>269.75</ele><time>2026-04-12T08:02:25.908Z</time></trkpt><trkpt lat="43.593612" lon="6.6879691"><ele>268.5</ele><time>2026-04-12T08:02:26.925Z</time></trkpt><trkpt lat="43.5936409" lon="6.6881665"><ele>267.25</ele><time>2026-04-12T08:02:27.881Z</time></trkpt><trkpt lat="43.5936984" lon="6.6883521"><ele>266.0</ele><time>2026-04-12T08:02:28.951Z</time></trkpt><trkpt lat="43.5937638" lon="6.688531"><ele>263.33333333333337</ele><time>2026-04-12T08:02:29.949Z</time></trkpt><trkpt lat="43.5938684" lon="6.6886772"><ele>260.6666666666667</ele><time>2026-04-12T08:02:30.942Z</time></trkpt><trkpt lat="43.5939959" lon="6.6887925"><ele>258.0</ele><time>2026-04-12T08:02:31.921Z</time></trkpt><trkpt lat="43.5941213" lon="6.688908"><ele>258.0</ele><time>2026-04-12T08:02:32.913Z</time></trkpt><trkpt lat="43.5942524" lon="6.6890278"><ele>258.0</ele><time>2026-04-12T08:02:33.951Z</time></trkpt><trkpt lat="43.594381" lon="6.6891398"><ele>258.0</ele><time>2026-04-12T08:02:34.907Z</time></trkpt><trkpt lat="43.5945091" lon="6.6892482"><ele>257.3333333333333</ele><time>2026-04-12T08:02:35.935Z</time></trkpt><trkpt lat="43.5946457" lon="6.6893261"><ele>256.66666666666663</ele><time>2026-04-12T08:02:36.913Z</time></trkpt><trkpt lat="43.5947941" lon="6.6893626"><ele>256.0</ele><time>2026-04-12T08:02:37.929Z</time></trkpt><trkpt lat="43.5949462" lon="6.6893768"><ele>256.0</ele><time>2026-04-12T08:02:38.93Z</time></trkpt><trkpt lat="43.5950984" lon="6.6893705"><ele>256.0</ele><time>2026-04-12T08:02:39.936Z</time></trkpt><trkpt lat="43.595247" lon="6.6893535"><ele>256.0</ele><time>2026-04-12T08:02:40.917Z</time></trkpt><trkpt lat="43.5953979" lon="6.689338"><ele>254.66666666666666</ele><time>2026-04-12T08:02:41.926Z</time></trkpt><trkpt lat="43.5955517" lon="6.6893315"><ele>253.33333333333331</ele><time>2026-04-12T08:02:42.919Z</time></trkpt><trkpt lat="43.5957039" lon="6.6893216"><ele>252.0</ele><time>2026-04-12T08:02:43.919Z</time></trkpt><trkpt lat="43.5958562" lon="6.6893252"><ele>252.0</ele><time>2026-04-12T08:02:44.912Z</time></trkpt><trkpt lat="43.5960054" lon="6.6893418"><ele>252.0</ele><time>2026-04-12T08:02:45.949Z</time></trkpt><trkpt lat="43.596153" lon="6.6893773"><ele>252.0</ele><time>2026-04-12T08:02:46.921Z</time></trkpt><trkpt lat="43.5963022" lon="6.6894453"><ele>250.0</ele><time>2026-04-12T08:02:47.945Z</time></trkpt><trkpt lat="43.5964451" lon="6.6895384"><ele>248.0</ele><time>2026-04-12T08:02:48.89Z</time></trkpt><trkpt lat="43.5965729" lon="6.6896508"><ele>246.0</ele><time>2026-04-12T08:02:49.903Z</time></trkpt><trkpt lat="43.59669" lon="6.6897703"><ele>246.0</ele><time>2026-04-12T08:02:50.933Z</time></trkpt><trkpt lat="43.5967901" lon="6.6898915"><ele>246.0</ele><time>2026-04-12T08:02:51.927Z</time></trkpt><trkpt lat="43.5968702" lon="6.6900236"><ele>246.0</ele><time>2026-04-12T08:02:52.922Z</time></trkpt><trkpt lat="43.5969326" lon="6.6901551"><ele>246.0</ele><time>2026-04-12T08:02:53.938Z</time></trkpt><trkpt lat="43.5969607" lon="6.6902976"><ele>245.75</ele><time>2026-04-12T08:02:54.931Z</time></trkpt><trkpt lat="43.5969574" lon="6.6904518"><ele>245.5</ele><time>2026-04-12T08:02:55.934Z</time></trkpt><trkpt lat="43.5969598" lon="6.6906038"><ele>245.25</ele><time>2026-04-12T08:02:56.943Z</time></trkpt><trkpt lat="43.5970246" lon="6.6907351"><ele>245.0</ele><time>2026-04-12T08:02:57.924Z</time></trkpt><trkpt lat="43.5971073" lon="6.6908559"><ele>245.0</ele><time>2026-04-12T08:02:58.909Z</time></trkpt><trkpt lat="43.5971688" lon="6.6909914"><ele>245.0</ele><time>2026-04-12T08:02:59.925Z</time></trkpt><trkpt lat="43.5971903" lon="6.6911349"><ele>245.0</ele><time>2026-04-12T08:03:00.933Z</time></trkpt><trkpt lat="43.5971877" lon="6.6913016"><ele>245.0</ele><time>2026-04-12T08:03:01.945Z</time></trkpt><trkpt lat="43.5971805" lon="6.6914649"><ele>245.0</ele><time>2026-04-12T08:03:02.925Z</time></trkpt><trkpt lat="43.5971614" lon="6.6916246"><ele>245.0</ele><time>2026-04-12T08:03:03.896Z</time></trkpt><trkpt lat="43.5971362" lon="6.6917869"><ele>245.0</ele><time>2026-04-12T08:03:04.93Z</time></trkpt><trkpt lat="43.5971022" lon="6.6919474"><ele>245.0</ele><time>2026-04-12T08:03:05.933Z</time></trkpt><trkpt lat="43.597065" lon="6.6921132"><ele>245.0</ele><time>2026-04-12T08:03:06.926Z</time></trkpt><trkpt lat="43.5970326" lon="6.6922809"><ele>245.0</ele><time>2026-04-12T08:03:07.921Z</time></trkpt><trkpt lat="43.596988" lon="6.6924453"><ele>245.0</ele><time>2026-04-12T08:03:08.949Z</time></trkpt><trkpt lat="43.5969356" lon="6.6926077"><ele>245.0</ele><time>2026-04-12T08:03:09.921Z</time></trkpt><trkpt lat="43.5968733" lon="6.6927557"><ele>244.75</ele><time>2026-04-12T08:03:10.934Z</time></trkpt><trkpt lat="43.5968118" lon="6.6929016"><ele>244.5</ele><time>2026-04-12T08:03:11.921Z</time></trkpt><trkpt lat="43.596751" lon="6.6930454"><ele>244.25</ele><time>2026-04-12T08:03:12.926Z</time></trkpt><trkpt lat="43.59669" lon="6.6931856"><ele>244.0</ele><time>2026-04-12T08:03:13.943Z</time></trkpt><trkpt lat="43.5966288" lon="6.6933218"><ele>244.0</ele><time>2026-04-12T08:03:14.902Z</time></trkpt><trkpt lat="43.5965684" lon="6.6934495"><ele>243.99999999999997</ele><time>2026-04-12T08:03:15.94Z</time></trkpt><trkpt lat="43.5965047" lon="6.6935745"><ele>243.99999999999997</ele><time>2026-04-12T08:03:16.922Z</time></trkpt><trkpt lat="43.5964402" lon="6.6937017"><ele>244.0</ele><time>2026-04-12T08:03:17.93Z</time></trkpt><trkpt lat="43.5963782" lon="6.6938315"><ele>244.0</ele><time>2026-04-12T08:03:18.939Z</time></trkpt><trkpt lat="43.5963208" lon="6.6939646"><ele>244.39999999999998</ele><time>2026-04-12T08:03:19.914Z</time></trkpt><trkpt lat="43.596271" lon="6.6940962"><ele>244.79999999999998</ele><time>2026-04-12T08:03:20.936Z</time></trkpt><trkpt lat="43.5962231" lon="6.6942287"><ele>245.20000000000002</ele><time>2026-04-12T08:03:21.925Z</time></trkpt><trkpt lat="43.5961811" lon="6.6943659"><ele>245.60000000000002</ele><time>2026-04-12T08:03:22.918Z</time></trkpt><trkpt lat="43.5961433" lon="6.6945101"><ele>246.0</ele><time>2026-04-12T08:03:23.931Z</time></trkpt><trkpt lat="43.5961116" lon="6.6946591"><ele>246.0</ele><time>2026-04-12T08:03:24.95Z</time></trkpt><trkpt lat="43.5960861" lon="6.6948051"><ele>246.00000000000003</ele><time>2026-04-12T08:03:25.934Z</time></trkpt><trkpt lat="43.5960636" lon="6.6949432"><ele>246.00000000000003</ele><time>2026-04-12T08:03:26.941Z</time></trkpt><trkpt lat="43.5960437" lon="6.6950849"><ele>246.0</ele><time>2026-04-12T08:03:27.924Z</time></trkpt><trkpt lat="43.5960402" lon="6.6952324"><ele>246.0</ele><time>2026-04-12T08:03:28.928Z</time></trkpt><trkpt lat="43.5960527" lon="6.6953835"><ele>245.8</ele><time>2026-04-12T08:03:29.946Z</time></trkpt><trkpt lat="43.5960682" lon="6.6955298"><ele>245.60000000000002</ele><time>2026-04-12T08:03:30.932Z</time></trkpt><trkpt lat="43.5960924" lon="6.6956801"><ele>245.4</ele><time>2026-04-12T08:03:31.937Z</time></trkpt><trkpt lat="43.5961252" lon="6.6958165"><ele>245.2</ele><time>2026-04-12T08:03:32.935Z</time></trkpt><trkpt lat="43.5961631" lon="6.6959562"><ele>245.0</ele><time>2026-04-12T08:03:33.938Z</time></trkpt><trkpt lat="43.5962093" lon="6.6960896"><ele>245.4</ele><time>2026-04-12T08:03:34.946Z</time></trkpt><trkpt lat="43.5962558" lon="6.6962257"><ele>245.8</ele><time>2026-04-12T08:03:35.938Z</time></trkpt><trkpt lat="43.5963062" lon="6.6963594"><ele>246.2</ele><time>2026-04-12T08:03:36.941Z</time></trkpt><trkpt lat="43.5963566" lon="6.6964863"><ele>246.6</ele><time>2026-04-12T08:03:37.921Z</time></trkpt><trkpt lat="43.5964058" lon="6.6966187"><ele>247.0</ele><time>2026-04-12T08:03:38.937Z</time></trkpt><trkpt lat="43.5964546" lon="6.6967453"><ele>247.0</ele><time>2026-04-12T08:03:39.919Z</time></trkpt><trkpt lat="43.5965029" lon="6.696873"><ele>247.0</ele><time>2026-04-12T08:03:40.933Z</time></trkpt><trkpt lat="43.596552" lon="6.697002"><ele>247.0</ele><time>2026-04-12T08:03:41.931Z</time></trkpt><trkpt lat="43.596602" lon="6.6971364"><ele>247.0</ele><time>2026-04-12T08:03:42.94Z</time></trkpt><trkpt lat="43.5966524" lon="6.6972711"><ele>247.0</ele><time>2026-04-12T08:03:43.912Z</time></trkpt><trkpt lat="43.5967056" lon="6.697403"><ele>246.8</ele><time>2026-04-12T08:03:44.951Z</time></trkpt><trkpt lat="43.5967667" lon="6.6975251"><ele>246.6</ele><time>2026-04-12T08:03:45.931Z</time></trkpt><trkpt lat="43.5968371" lon="6.6976394"><ele>246.40000000000003</ele><time>2026-04-12T08:03:46.926Z</time></trkpt><trkpt lat="43.5969115" lon="6.6977492"><ele>246.20000000000002</ele><time>2026-04-12T08:03:47.926Z</time></trkpt><trkpt lat="43.5969879" lon="6.6978531"><ele>246.0</ele><time>2026-04-12T08:03:48.928Z</time></trkpt><trkpt lat="43.5970669" lon="6.6979543"><ele>245.8</ele><time>2026-04-12T08:03:49.935Z</time></trkpt><trkpt lat="43.5971484" lon="6.6980534"><ele>245.60000000000002</ele><time>2026-04-12T08:03:50.92Z</time></trkpt><trkpt lat="43.5972341" lon="6.6981479"><ele>245.4</ele><time>2026-04-12T08:03:51.902Z</time></trkpt><trkpt lat="43.5973294" lon="6.6982335"><ele>245.2</ele><time>2026-04-12T08:03:52.942Z</time></trkpt><trkpt lat="43.5974183" lon="6.6983107"><ele>245.0</ele><time>2026-04-12T08:03:53.925Z</time></trkpt><trkpt lat="43.5975093" lon="6.6983827"><ele>245.0</ele><time>2026-04-12T08:03:54.931Z</time></trkpt><trkpt lat="43.59761" lon="6.6984475"><ele>245.0</ele><time>2026-04-12T08:03:55.918Z</time></trkpt><trkpt lat="43.5977151" lon="6.6985054"><ele>245.0</ele><time>2026-04-12T08:03:56.931Z</time></trkpt><trkpt lat="43.5978157" lon="6.6985552"><ele>245.0</ele><time>2026-04-12T08:03:57.933Z</time></trkpt><trkpt lat="43.5979215" lon="6.6985975"><ele>245.0</ele><time>2026-04-12T08:03:58.903Z</time></trkpt><trkpt lat="43.598029" lon="6.6986343"><ele>244.75</ele><time>2026-04-12T08:03:59.907Z</time></trkpt><trkpt lat="43.598141" lon="6.6986674"><ele>244.5</ele><time>2026-04-12T08:04:00.921Z</time></trkpt><trkpt lat="43.5982572" lon="6.6987003"><ele>244.25</ele><time>2026-04-12T08:04:01.906Z</time></trkpt><trkpt lat="43.5983705" lon="6.6987342"><ele>244.0</ele><time>2026-04-12T08:04:02.897Z</time></trkpt><trkpt lat="43.5984885" lon="6.6987663"><ele>244.0</ele><time>2026-04-12T08:04:03.927Z</time></trkpt><trkpt lat="43.5986056" lon="6.698802"><ele>244.0</ele><time>2026-04-12T08:04:04.911Z</time></trkpt><trkpt lat="43.5987257" lon="6.6988254"><ele>244.0</ele><time>2026-04-12T08:04:05.939Z</time></trkpt><trkpt lat="43.5988474" lon="6.6988541"><ele>244.0</ele><time>2026-04-12T08:04:06.925Z</time></trkpt><trkpt lat="43.5989739" lon="6.6988851"><ele>242.75</ele><time>2026-04-12T08:04:07.924Z</time></trkpt><trkpt lat="43.5991006" lon="6.6989132"><ele>241.5</ele><time>2026-04-12T08:04:08.937Z</time></trkpt><trkpt lat="43.599224" lon="6.6989412"><ele>240.25</ele><time>2026-04-12T08:04:09.926Z</time></trkpt><trkpt lat="43.5993492" lon="6.6989769"><ele>239.0</ele><time>2026-04-12T08:04:10.922Z</time></trkpt><trkpt lat="43.5994756" lon="6.6990116"><ele>238.25</ele><time>2026-04-12T08:04:11.922Z</time></trkpt><trkpt lat="43.5996032" lon="6.6990411"><ele>237.5</ele><time>2026-04-12T08:04:12.915Z</time></trkpt><trkpt lat="43.5997368" lon="6.6990681"><ele>236.75</ele><time>2026-04-12T08:04:13.936Z</time></trkpt><trkpt lat="43.5998654" lon="6.6991022"><ele>236.0</ele><time>2026-04-12T08:04:14.942Z</time></trkpt><trkpt lat="43.5999968" lon="6.6991347"><ele>236.0</ele><time>2026-04-12T08:04:15.931Z</time></trkpt><trkpt lat="43.6001213" lon="6.699167"><ele>236.0</ele><time>2026-04-12T08:04:16.931Z</time></trkpt><trkpt lat="43.6002475" lon="6.6992019"><ele>236.0</ele><time>2026-04-12T08:04:17.938Z</time></trkpt><trkpt lat="43.6003808" lon="6.6992346"><ele>236.0</ele><time>2026-04-12T08:04:18.933Z</time></trkpt><trkpt lat="43.6005123" lon="6.699268"><ele>235.75</ele><time>2026-04-12T08:04:19.928Z</time></trkpt><trkpt lat="43.6006473" lon="6.6993008"><ele>235.5</ele><time>2026-04-12T08:04:20.909Z</time></trkpt><trkpt lat="43.6007832" lon="6.6993374"><ele>235.25</ele><time>2026-04-12T08:04:21.944Z</time></trkpt><trkpt lat="43.6009169" lon="6.6993949"><ele>235.0</ele><time>2026-04-12T08:04:22.92Z</time></trkpt><trkpt lat="43.6010479" lon="6.6994397"><ele>234.0</ele><time>2026-04-12T08:04:23.934Z</time></trkpt><trkpt lat="43.6011897" lon="6.6994705"><ele>233.0</ele><time>2026-04-12T08:04:24.93Z</time></trkpt><trkpt lat="43.6013316" lon="6.6995053"><ele>232.0</ele><time>2026-04-12T08:04:25.924Z</time></trkpt><trkpt lat="43.6014737" lon="6.6995426"><ele>231.0</ele><time>2026-04-12T08:04:26.943Z</time></trkpt><trkpt lat="43.6016109" lon="6.6995751"><ele>231.0</ele><time>2026-04-12T08:04:27.956Z</time></trkpt><trkpt lat="43.6017482" lon="6.6996068"><ele>231.0</ele><time>2026-04-12T08:04:28.937Z</time></trkpt><trkpt lat="43.6018898" lon="6.6996414"><ele>231.0</ele><time>2026-04-12T08:04:29.914Z</time></trkpt><trkpt lat="43.6020314" lon="6.6996736"><ele>231.0</ele><time>2026-04-12T08:04:30.934Z</time></trkpt><trkpt lat="43.602175" lon="6.6997104"><ele>229.0</ele><time>2026-04-12T08:04:31.939Z</time></trkpt><trkpt lat="43.6023109" lon="6.699743"><ele>227.0</ele><time>2026-04-12T08:04:32.932Z</time></trkpt><trkpt lat="43.6024482" lon="6.6997729"><ele>225.0</ele><time>2026-04-12T08:04:33.931Z</time></trkpt><trkpt lat="43.6025855" lon="6.6998064"><ele>223.0</ele><time>2026-04-12T08:04:34.934Z</time></trkpt><trkpt lat="43.6027224" lon="6.6998386"><ele>222.25</ele><time>2026-04-12T08:04:35.925Z</time></trkpt><trkpt lat="43.6028582" lon="6.699871"><ele>221.5</ele><time>2026-04-12T08:04:36.936Z</time></trkpt><trkpt lat="43.6029884" lon="6.6999074"><ele>220.75</ele><time>2026-04-12T08:04:37.934Z</time></trkpt><trkpt lat="43.6031198" lon="6.6999444"><ele>220.0</ele><time>2026-04-12T08:04:38.942Z</time></trkpt><trkpt lat="43.6032501" lon="6.6999772"><ele>220.0</ele><time>2026-04-12T08:04:39.942Z</time></trkpt><trkpt lat="43.6033754" lon="6.7000181"><ele>220.0</ele><time>2026-04-12T08:04:40.888Z</time></trkpt><trkpt lat="43.6034981" lon="6.7000625"><ele>220.0</ele><time>2026-04-12T08:04:41.938Z</time></trkpt><trkpt lat="43.6036208" lon="6.7001159"><ele>220.0</ele><time>2026-04-12T08:04:42.946Z</time></trkpt><trkpt lat="43.6037382" lon="6.7001696"><ele>220.0</ele><time>2026-04-12T08:04:43.933Z</time></trkpt><trkpt lat="43.603853" lon="6.7002223"><ele>220.0</ele><time>2026-04-12T08:04:44.924Z</time></trkpt><trkpt lat="43.6039689" lon="6.7002744"><ele>220.0</ele><time>2026-04-12T08:04:45.928Z</time></trkpt><trkpt lat="43.6040896" lon="6.7003308"><ele>220.0</ele><time>2026-04-12T08:04:46.918Z</time></trkpt><trkpt lat="43.6042094" lon="6.7003861"><ele>219.25</ele><time>2026-04-12T08:04:47.906Z</time></trkpt><trkpt lat="43.6043331" lon="6.7004465"><ele>218.5</ele><time>2026-04-12T08:04:48.942Z</time></trkpt><trkpt lat="43.6044562" lon="6.7005038"><ele>217.75</ele><time>2026-04-12T08:04:49.911Z</time></trkpt><trkpt lat="43.6045765" lon="6.700568"><ele>217.0</ele><time>2026-04-12T08:04:50.939Z</time></trkpt><trkpt lat="43.6046956" lon="6.7006232"><ele>217.0</ele><time>2026-04-12T08:04:51.937Z</time></trkpt><trkpt lat="43.6048158" lon="6.7006811"><ele>217.0</ele><time>2026-04-12T08:04:52.921Z</time></trkpt><trkpt lat="43.6049315" lon="6.7007345"><ele>217.0</ele><time>2026-04-12T08:04:53.95Z</time></trkpt><trkpt lat="43.6050505" lon="6.7007908"><ele>217.0</ele><time>2026-04-12T08:04:54.93Z</time></trkpt><trkpt lat="43.6051715" lon="6.7008427"><ele>217.0</ele><time>2026-04-12T08:04:55.919Z</time></trkpt><trkpt lat="43.6052983" lon="6.7008956"><ele>217.0</ele><time>2026-04-12T08:04:56.922Z</time></trkpt><trkpt lat="43.6054198" lon="6.7009439"><ele>217.0</ele><time>2026-04-12T08:04:57.898Z</time></trkpt><trkpt lat="43.6055376" lon="6.7009987"><ele>217.0</ele><time>2026-04-12T08:04:58.933Z</time></trkpt><trkpt lat="43.60565" lon="6.7010562"><ele>217.0</ele><time>2026-04-12T08:04:59.928Z</time></trkpt><trkpt lat="43.6057575" lon="6.7011093"><ele>217.0</ele><time>2026-04-12T08:05:00.94Z</time></trkpt><trkpt lat="43.6058651" lon="6.7011608"><ele>217.0</ele><time>2026-04-12T08:05:01.932Z</time></trkpt><trkpt lat="43.6059682" lon="6.7012076"><ele>217.0</ele><time>2026-04-12T08:05:02.948Z</time></trkpt><trkpt lat="43.6060687" lon="6.7012617"><ele>217.0</ele><time>2026-04-12T08:05:03.932Z</time></trkpt><trkpt lat="43.606169" lon="6.7013188"><ele>217.0</ele><time>2026-04-12T08:05:04.929Z</time></trkpt><trkpt lat="43.6062672" lon="6.7013895"><ele>217.0</ele><time>2026-04-12T08:05:05.933Z</time></trkpt><trkpt lat="43.6063601" lon="6.7014748"><ele>217.0</ele><time>2026-04-12T08:05:06.951Z</time></trkpt><trkpt lat="43.6064494" lon="6.7015727"><ele>217.0</ele><time>2026-04-12T08:05:07.928Z</time></trkpt><trkpt lat="43.6065329" lon="6.7016782"><ele>217.0</ele><time>2026-04-12T08:05:08.94Z</time></trkpt><trkpt lat="43.6066029" lon="6.701791"><ele>216.8</ele><time>2026-04-12T08:05:09.935Z</time></trkpt><trkpt lat="43.6066675" lon="6.7019158"><ele>216.6</ele><time>2026-04-12T08:05:10.898Z</time></trkpt><trkpt lat="43.6067209" lon="6.7020406"><ele>216.40000000000003</ele><time>2026-04-12T08:05:11.943Z</time></trkpt><trkpt lat="43.6067743" lon="6.7021697"><ele>216.20000000000002</ele><time>2026-04-12T08:05:12.908Z</time></trkpt><trkpt lat="43.6068178" lon="6.7023025"><ele>216.0</ele><time>2026-04-12T08:05:13.908Z</time></trkpt><trkpt lat="43.6068553" lon="6.7024406"><ele>216.0</ele><time>2026-04-12T08:05:14.937Z</time></trkpt><trkpt lat="43.606889" lon="6.7025806"><ele>216.00000000000003</ele><time>2026-04-12T08:05:15.93Z</time></trkpt><trkpt lat="43.6069173" lon="6.7027246"><ele>216.00000000000003</ele><time>2026-04-12T08:05:16.928Z</time></trkpt><trkpt lat="43.6069388" lon="6.7028725"><ele>216.0</ele><time>2026-04-12T08:05:17.934Z</time></trkpt><trkpt lat="43.6069517" lon="6.7030076"><ele>216.0</ele><time>2026-04-12T08:05:18.93Z</time></trkpt><trkpt lat="43.6069681" lon="6.703153"><ele>215.75</ele><time>2026-04-12T08:05:19.93Z</time></trkpt><trkpt lat="43.606994" lon="6.7033189"><ele>215.5</ele><time>2026-04-12T08:05:20.912Z</time></trkpt><trkpt lat="43.6070028" lon="6.703471"><ele>215.25</ele><time>2026-04-12T08:05:21.901Z</time></trkpt><trkpt lat="43.6070227" lon="6.7036287"><ele>215.0</ele><time>2026-04-12T08:05:22.882Z</time></trkpt><trkpt lat="43.6070498" lon="6.7037792"><ele>214.5</ele><time>2026-04-12T08:05:23.904Z</time></trkpt><trkpt lat="43.6070639" lon="6.7039385"><ele>214.0</ele><time>2026-04-12T08:05:24.913Z</time></trkpt><trkpt lat="43.6070908" lon="6.7040895"><ele>213.5</ele><time>2026-04-12T08:05:25.915Z</time></trkpt><trkpt lat="43.6071179" lon="6.7042439"><ele>213.0</ele><time>2026-04-12T08:05:26.898Z</time></trkpt><trkpt lat="43.6071364" lon="6.7043989"><ele>212.8</ele><time>2026-04-12T08:05:27.892Z</time></trkpt><trkpt lat="43.6071581" lon="6.7045475"><ele>212.60000000000002</ele><time>2026-04-12T08:05:28.893Z</time></trkpt><trkpt lat="43.6071738" lon="6.7046939"><ele>212.39999999999998</ele><time>2026-04-12T08:05:29.901Z</time></trkpt><trkpt lat="43.6071891" lon="6.7048423"><ele>212.2</ele><time>2026-04-12T08:05:30.925Z</time></trkpt><trkpt lat="43.6072054" lon="6.7049931"><ele>212.0</ele><time>2026-04-12T08:05:31.926Z</time></trkpt><trkpt lat="43.607223" lon="6.7051362"><ele>212.39999999999998</ele><time>2026-04-12T08:05:32.917Z</time></trkpt><trkpt lat="43.6072406" lon="6.7052747"><ele>212.79999999999998</ele><time>2026-04-12T08:05:33.935Z</time></trkpt><trkpt lat="43.6072605" lon="6.7054182"><ele>213.2</ele><time>2026-04-12T08:05:34.937Z</time></trkpt><trkpt lat="43.6072818" lon="6.7055612"><ele>213.6</ele><time>2026-04-12T08:05:35.936Z</time></trkpt><trkpt lat="43.6073033" lon="6.7056995"><ele>214.0</ele><time>2026-04-12T08:05:36.924Z</time></trkpt><trkpt lat="43.6073245" lon="6.7058393"><ele>214.0</ele><time>2026-04-12T08:05:37.914Z</time></trkpt><trkpt lat="43.6073467" lon="6.7059806"><ele>213.99999999999997</ele><time>2026-04-12T08:05:38.914Z</time></trkpt><trkpt lat="43.6073713" lon="6.70612"><ele>213.99999999999997</ele><time>2026-04-12T08:05:39.937Z</time></trkpt><trkpt lat="43.6073944" lon="6.7062585"><ele>214.0</ele><time>2026-04-12T08:05:40.934Z</time></trkpt><trkpt lat="43.6074226" lon="6.706393"><ele>214.0</ele><time>2026-04-12T08:05:41.931Z</time></trkpt><trkpt lat="43.6074511" lon="6.706529"><ele>213.79999999999998</ele><time>2026-04-12T08:05:42.918Z</time></trkpt><trkpt lat="43.6074742" lon="6.70666"><ele>213.59999999999997</ele><time>2026-04-12T08:05:43.917Z</time></trkpt><trkpt lat="43.6074941" lon="6.7067934"><ele>213.4</ele><time>2026-04-12T08:05:44.932Z</time></trkpt><trkpt lat="43.6075107" lon="6.7069264"><ele>213.2</ele><time>2026-04-12T08:05:45.918Z</time></trkpt><trkpt lat="43.6075265" lon="6.7070568"><ele>213.0</ele><time>2026-04-12T08:05:46.891Z</time></trkpt><trkpt lat="43.6075432" lon="6.707193"><ele>213.0</ele><time>2026-04-12T08:05:47.949Z</time></trkpt><trkpt lat="43.6075637" lon="6.7073254"><ele>213.0</ele><time>2026-04-12T08:05:48.925Z</time></trkpt><trkpt lat="43.6075781" lon="6.707459"><ele>213.0</ele><time>2026-04-12T08:05:49.949Z</time></trkpt><trkpt lat="43.6075938" lon="6.7075976"><ele>213.0</ele><time>2026-04-12T08:05:50.903Z</time></trkpt><trkpt lat="43.6076086" lon="6.7077396"><ele>213.0</ele><time>2026-04-12T08:05:51.925Z</time></trkpt><trkpt lat="43.607625" lon="6.7078845"><ele>213.0</ele><time>2026-04-12T08:05:52.907Z</time></trkpt><trkpt lat="43.607642" lon="6.7080335"><ele>213.0</ele><time>2026-04-12T08:05:53.943Z</time></trkpt><trkpt lat="43.6076584" lon="6.7081778"><ele>213.0</ele><time>2026-04-12T08:05:54.955Z</time></trkpt><trkpt lat="43.6076687" lon="6.708321"><ele>213.0</ele><time>2026-04-12T08:05:55.909Z</time></trkpt><trkpt lat="43.6076876" lon="6.708461"><ele>213.0</ele><time>2026-04-12T08:05:56.938Z</time></trkpt><trkpt lat="43.6076991" lon="6.7086017"><ele>213.2</ele><time>2026-04-12T08:05:57.918Z</time></trkpt><trkpt lat="43.6077152" lon="6.7087398"><ele>213.4</ele><time>2026-04-12T08:05:58.953Z</time></trkpt><trkpt lat="43.6077291" lon="6.7088805"><ele>213.59999999999997</ele><time>2026-04-12T08:05:59.921Z</time></trkpt><trkpt lat="43.6077463" lon="6.7090165"><ele>213.79999999999998</ele><time>2026-04-12T08:06:00.931Z</time></trkpt><trkpt lat="43.6077653" lon="6.7091599"><ele>214.0</ele><time>2026-04-12T08:06:01.943Z</time></trkpt><trkpt lat="43.6077859" lon="6.7093021"><ele>214.0</ele><time>2026-04-12T08:06:02.953Z</time></trkpt><trkpt lat="43.6078058" lon="6.7094453"><ele>213.99999999999997</ele><time>2026-04-12T08:06:03.938Z</time></trkpt><trkpt lat="43.6078277" lon="6.7095828"><ele>213.99999999999997</ele><time>2026-04-12T08:06:04.92Z</time></trkpt><trkpt lat="43.6078435" lon="6.7097241"><ele>214.0</ele><time>2026-04-12T08:06:05.934Z</time></trkpt><trkpt lat="43.6078574" lon="6.709865"><ele>214.0</ele><time>2026-04-12T08:06:06.931Z</time></trkpt><trkpt lat="43.607873" lon="6.710011"><ele>214.0</ele><time>2026-04-12T08:06:07.94Z</time></trkpt><trkpt lat="43.6078939" lon="6.7101556"><ele>213.99999999999997</ele><time>2026-04-12T08:06:08.94Z</time></trkpt><trkpt lat="43.6079143" lon="6.7103012"><ele>213.99999999999997</ele><time>2026-04-12T08:06:09.936Z</time></trkpt><trkpt lat="43.6079356" lon="6.7104508"><ele>214.0</ele><time>2026-04-12T08:06:10.928Z</time></trkpt><trkpt lat="43.6079568" lon="6.7106017"><ele>214.0</ele><time>2026-04-12T08:06:11.919Z</time></trkpt><trkpt lat="43.6079809" lon="6.7107525"><ele>213.79999999999998</ele><time>2026-04-12T08:06:12.932Z</time></trkpt><trkpt lat="43.6079993" lon="6.7109005"><ele>213.59999999999997</ele><time>2026-04-12T08:06:13.919Z</time></trkpt><trkpt lat="43.608001" lon="6.7110507"><ele>213.4</ele><time>2026-04-12T08:06:14.937Z</time></trkpt><trkpt lat="43.6079818" lon="6.711197"><ele>213.2</ele><time>2026-04-12T08:06:15.931Z</time></trkpt><trkpt lat="43.6079592" lon="6.7113407"><ele>213.0</ele><time>2026-04-12T08:06:16.926Z</time></trkpt><trkpt lat="43.6079766" lon="6.7114832"><ele>213.0</ele><time>2026-04-12T08:06:17.935Z</time></trkpt><trkpt lat="43.6080342" lon="6.7116122"><ele>213.0</ele><time>2026-04-12T08:06:18.931Z</time></trkpt><trkpt lat="43.6080913" lon="6.7117401"><ele>213.0</ele><time>2026-04-12T08:06:19.946Z</time></trkpt><trkpt lat="43.6081256" lon="6.7118839"><ele>213.0</ele><time>2026-04-12T08:06:20.946Z</time></trkpt><trkpt lat="43.6081524" lon="6.7120442"><ele>213.0</ele><time>2026-04-12T08:06:21.913Z</time></trkpt><trkpt lat="43.6081814" lon="6.7122063"><ele>213.0</ele><time>2026-04-12T08:06:22.921Z</time></trkpt><trkpt lat="43.6082009" lon="6.7123715"><ele>213.0</ele><time>2026-04-12T08:06:23.934Z</time></trkpt><trkpt lat="43.6082206" lon="6.7125382"><ele>213.0</ele><time>2026-04-12T08:06:24.941Z</time></trkpt><trkpt lat="43.6082432" lon="6.7127011"><ele>213.0</ele><time>2026-04-12T08:06:25.951Z</time></trkpt><trkpt lat="43.6082671" lon="6.712864"><ele>212.75</ele><time>2026-04-12T08:06:26.948Z</time></trkpt><trkpt lat="43.6082864" lon="6.7130261"><ele>212.5</ele><time>2026-04-12T08:06:27.893Z</time></trkpt><trkpt lat="43.6083076" lon="6.7131799"><ele>212.25</ele><time>2026-04-12T08:06:28.923Z</time></trkpt><trkpt lat="43.6083278" lon="6.7133413"><ele>212.0</ele><time>2026-04-12T08:06:29.924Z</time></trkpt><trkpt lat="43.6083496" lon="6.7135043"><ele>211.75</ele><time>2026-04-12T08:06:30.921Z</time></trkpt><trkpt lat="43.6083687" lon="6.7136692"><ele>211.5</ele><time>2026-04-12T08:06:31.913Z</time></trkpt><trkpt lat="43.6083906" lon="6.7138322"><ele>211.25</ele><time>2026-04-12T08:06:32.942Z</time></trkpt><trkpt lat="43.6084117" lon="6.7139967"><ele>211.0</ele><time>2026-04-12T08:06:33.932Z</time></trkpt><trkpt lat="43.6084397" lon="6.7141585"><ele>211.0</ele><time>2026-04-12T08:06:34.927Z</time></trkpt><trkpt lat="43.6084681" lon="6.7143175"><ele>211.0</ele><time>2026-04-12T08:06:35.936Z</time></trkpt><trkpt lat="43.6085044" lon="6.7144753"><ele>211.0</ele><time>2026-04-12T08:06:36.94Z</time></trkpt><trkpt lat="43.6085419" lon="6.7146244"><ele>211.0</ele><time>2026-04-12T08:06:37.928Z</time></trkpt><trkpt lat="43.6085899" lon="6.7147754"><ele>211.0</ele><time>2026-04-12T08:06:38.894Z</time></trkpt><trkpt lat="43.6086418" lon="6.7149228"><ele>211.0</ele><time>2026-04-12T08:06:39.925Z</time></trkpt><trkpt lat="43.6086935" lon="6.71507"><ele>211.0</ele><time>2026-04-12T08:06:40.908Z</time></trkpt><trkpt lat="43.608746" lon="6.7152152"><ele>211.0</ele><time>2026-04-12T08:06:41.927Z</time></trkpt><trkpt lat="43.6088026" lon="6.7153641"><ele>211.0</ele><time>2026-04-12T08:06:42.884Z</time></trkpt><trkpt lat="43.6088568" lon="6.7155174"><ele>211.0</ele><time>2026-04-12T08:06:43.94Z</time></trkpt><trkpt lat="43.6089156" lon="6.7156661"><ele>211.0</ele><time>2026-04-12T08:06:44.89Z</time></trkpt><trkpt lat="43.6089716" lon="6.7158137"><ele>211.0</ele><time>2026-04-12T08:06:45.938Z</time></trkpt><trkpt lat="43.6090237" lon="6.7159589"><ele>211.20000000000002</ele><time>2026-04-12T08:06:46.919Z</time></trkpt><trkpt lat="43.6090772" lon="6.7161026"><ele>211.4</ele><time>2026-04-12T08:06:47.952Z</time></trkpt><trkpt lat="43.6091303" lon="6.7162411"><ele>211.6</ele><time>2026-04-12T08:06:48.914Z</time></trkpt><trkpt lat="43.6091778" lon="6.7163758"><ele>211.8</ele><time>2026-04-12T08:06:49.891Z</time></trkpt><trkpt lat="43.6092266" lon="6.7165091"><ele>212.0</ele><time>2026-04-12T08:06:50.946Z</time></trkpt><trkpt lat="43.6092761" lon="6.7166367"><ele>212.0</ele><time>2026-04-12T08:06:51.918Z</time></trkpt><trkpt lat="43.6093276" lon="6.7167622"><ele>212.0</ele><time>2026-04-12T08:06:52.926Z</time></trkpt><trkpt lat="43.6093785" lon="6.7168863"><ele>212.0</ele><time>2026-04-12T08:06:53.924Z</time></trkpt><trkpt lat="43.6094302" lon="6.7170074"><ele>212.0</ele><time>2026-04-12T08:06:54.908Z</time></trkpt><trkpt lat="43.6094734" lon="6.7171314"><ele>212.0</ele><time>2026-04-12T08:06:55.928Z</time></trkpt><trkpt lat="43.6095144" lon="6.7172559"><ele>212.0</ele><time>2026-04-12T08:06:56.932Z</time></trkpt><trkpt lat="43.6095577" lon="6.7173794"><ele>212.0</ele><time>2026-04-12T08:06:57.942Z</time></trkpt><trkpt lat="43.609594" lon="6.7175056"><ele>212.0</ele><time>2026-04-12T08:06:58.941Z</time></trkpt><trkpt lat="43.6096264" lon="6.7176326"><ele>212.0</ele><time>2026-04-12T08:06:59.907Z</time></trkpt><trkpt lat="43.6096601" lon="6.7177601"><ele>212.0</ele><time>2026-04-12T08:07:00.935Z</time></trkpt><trkpt lat="43.6096896" lon="6.7178873"><ele>212.0</ele><time>2026-04-12T08:07:01.917Z</time></trkpt><trkpt lat="43.609719" lon="6.7180148"><ele>212.0</ele><time>2026-04-12T08:07:02.897Z</time></trkpt><trkpt lat="43.6097427" lon="6.7181481"><ele>212.0</ele><time>2026-04-12T08:07:03.943Z</time></trkpt><trkpt lat="43.6097624" lon="6.718287"><ele>212.0</ele><time>2026-04-12T08:07:04.915Z</time></trkpt><trkpt lat="43.6097801" lon="6.7184188"><ele>212.0</ele><time>2026-04-12T08:07:05.933Z</time></trkpt><trkpt lat="43.6097951" lon="6.7185486"><ele>212.0</ele><time>2026-04-12T08:07:06.919Z</time></trkpt><trkpt lat="43.6098047" lon="6.7186839"><ele>212.0</ele><time>2026-04-12T08:07:07.928Z</time></trkpt><trkpt lat="43.6098171" lon="6.7188164"><ele>212.0</ele><time>2026-04-12T08:07:08.928Z</time></trkpt><trkpt lat="43.60983" lon="6.7189481"><ele>212.0</ele><time>2026-04-12T08:07:09.949Z</time></trkpt><trkpt lat="43.6098427" lon="6.719079"><ele>212.0</ele><time>2026-04-12T08:07:10.952Z</time></trkpt><trkpt lat="43.6098544" lon="6.7192125"><ele>212.0</ele><time>2026-04-12T08:07:11.907Z</time></trkpt><trkpt lat="43.609867" lon="6.7193492"><ele>212.0</ele><time>2026-04-12T08:07:12.939Z</time></trkpt><trkpt lat="43.6098802" lon="6.7194839"><ele>212.0</ele><time>2026-04-12T08:07:13.957Z</time></trkpt><trkpt lat="43.6098941" lon="6.7196151"><ele>212.0</ele><time>2026-04-12T08:07:14.925Z</time></trkpt><trkpt lat="43.6099105" lon="6.7197438"><ele>212.0</ele><time>2026-04-12T08:07:15.935Z</time></trkpt><trkpt lat="43.609924" lon="6.7198755"><ele>211.8</ele><time>2026-04-12T08:07:16.931Z</time></trkpt><trkpt lat="43.6099355" lon="6.7200063"><ele>211.6</ele><time>2026-04-12T08:07:17.931Z</time></trkpt><trkpt lat="43.6099497" lon="6.7201356"><ele>211.4</ele><time>2026-04-12T08:07:18.939Z</time></trkpt><trkpt lat="43.6099658" lon="6.7202635"><ele>211.20000000000002</ele><time>2026-04-12T08:07:19.931Z</time></trkpt><trkpt lat="43.6099822" lon="6.7203849"><ele>211.0</ele><time>2026-04-12T08:07:20.937Z</time></trkpt><trkpt lat="43.6099972" lon="6.7205044"><ele>211.33333333333331</ele><time>2026-04-12T08:07:21.955Z</time></trkpt><trkpt lat="43.6100133" lon="6.7206277"><ele>211.66666666666666</ele><time>2026-04-12T08:07:22.932Z</time></trkpt><trkpt lat="43.6100236" lon="6.7207495"><ele>212.0</ele><time>2026-04-12T08:07:23.935Z</time></trkpt><trkpt lat="43.6100331" lon="6.7208694"><ele>212.33333333333331</ele><time>2026-04-12T08:07:24.925Z</time></trkpt><trkpt lat="43.6100474" lon="6.7209864"><ele>212.66666666666666</ele><time>2026-04-12T08:07:25.929Z</time></trkpt><trkpt lat="43.6100586" lon="6.7211018"><ele>213.0</ele><time>2026-04-12T08:07:26.941Z</time></trkpt><trkpt lat="43.6100729" lon="6.7212165"><ele>213.5</ele><time>2026-04-12T08:07:27.957Z</time></trkpt><trkpt lat="43.6100815" lon="6.7213281"><ele>214.0</ele><time>2026-04-12T08:07:28.901Z</time></trkpt><trkpt lat="43.610095" lon="6.7214372"><ele>214.5</ele><time>2026-04-12T08:07:29.979Z</time></trkpt><trkpt lat="43.6101058" lon="6.721537"><ele>215.0</ele><time>2026-04-12T08:07:30.919Z</time></trkpt><trkpt lat="43.6101186" lon="6.7216404"><ele>215.5</ele><time>2026-04-12T08:07:31.937Z</time></trkpt><trkpt lat="43.6101344" lon="6.7217421"><ele>216.0</ele><time>2026-04-12T08:07:32.924Z</time></trkpt><trkpt lat="43.6101507" lon="6.7218425"><ele>215.83333333333334</ele><time>2026-04-12T08:07:33.953Z</time></trkpt><trkpt lat="43.6101642" lon="6.7219434"><ele>215.66666666666669</ele><time>2026-04-12T08:07:34.923Z</time></trkpt><trkpt lat="43.6101792" lon="6.7220438"><ele>215.5</ele><time>2026-04-12T08:07:35.895Z</time></trkpt><trkpt lat="43.6101952" lon="6.7221532"><ele>215.33333333333334</ele><time>2026-04-12T08:07:36.932Z</time></trkpt><trkpt lat="43.6102132" lon="6.7222662"><ele>215.16666666666669</ele><time>2026-04-12T08:07:37.947Z</time></trkpt><trkpt lat="43.6102346" lon="6.7223835"><ele>215.0</ele><time>2026-04-12T08:07:38.945Z</time></trkpt><trkpt lat="43.6102499" lon="6.7225012"><ele>215.00000000000003</ele><time>2026-04-12T08:07:39.934Z</time></trkpt><trkpt lat="43.6102653" lon="6.7226198"><ele>215.0</ele><time>2026-04-12T08:07:40.906Z</time></trkpt><trkpt lat="43.6102799" lon="6.7227417"><ele>215.0</ele><time>2026-04-12T08:07:41.901Z</time></trkpt><trkpt lat="43.610289" lon="6.722864"><ele>215.0</ele><time>2026-04-12T08:07:42.937Z</time></trkpt><trkpt lat="43.6102943" lon="6.7229827"><ele>215.00000000000003</ele><time>2026-04-12T08:07:43.936Z</time></trkpt><trkpt lat="43.610301" lon="6.7231023"><ele>215.0</ele><time>2026-04-12T08:07:44.942Z</time></trkpt><trkpt lat="43.610306" lon="6.7232257"><ele>215.0</ele><time>2026-04-12T08:07:45.927Z</time></trkpt><trkpt lat="43.6103112" lon="6.7233494"><ele>215.0</ele><time>2026-04-12T08:07:46.95Z</time></trkpt><trkpt lat="43.6103163" lon="6.7234697"><ele>215.0</ele><time>2026-04-12T08:07:47.915Z</time></trkpt><trkpt lat="43.6103168" lon="6.7235979"><ele>215.0</ele><time>2026-04-12T08:07:48.946Z</time></trkpt><trkpt lat="43.6103215" lon="6.723729"><ele>215.0</ele><time>2026-04-12T08:07:49.893Z</time></trkpt><trkpt lat="43.6103307" lon="6.7238574"><ele>215.6</ele><time>2026-04-12T08:07:50.931Z</time></trkpt><trkpt lat="43.6103403" lon="6.7239854"><ele>216.2</ele><time>2026-04-12T08:07:51.945Z</time></trkpt><trkpt lat="43.610351" lon="6.7241129"><ele>216.8</ele><time>2026-04-12T08:07:52.917Z</time></trkpt><trkpt lat="43.6103609" lon="6.7242423"><ele>217.4</ele><time>2026-04-12T08:07:53.917Z</time></trkpt><trkpt lat="43.6103724" lon="6.7243692"><ele>218.0</ele><time>2026-04-12T08:07:54.903Z</time></trkpt><trkpt lat="43.6103826" lon="6.7244945"><ele>218.33333333333334</ele><time>2026-04-12T08:07:55.934Z</time></trkpt><trkpt lat="43.610397" lon="6.7246182"><ele>218.66666666666669</ele><time>2026-04-12T08:07:56.931Z</time></trkpt><trkpt lat="43.6104139" lon="6.724731"><ele>219.0</ele><time>2026-04-12T08:07:57.948Z</time></trkpt><trkpt lat="43.6104371" lon="6.7248524"><ele>219.33333333333331</ele><time>2026-04-12T08:07:58.938Z</time></trkpt><trkpt lat="43.6104589" lon="6.7249696"><ele>219.66666666666666</ele><time>2026-04-12T08:07:59.923Z</time></trkpt><trkpt lat="43.6104838" lon="6.7250831"><ele>220.0</ele><time>2026-04-12T08:08:00.928Z</time></trkpt><trkpt lat="43.6105098" lon="6.725197"><ele>220.33333333333331</ele><time>2026-04-12T08:08:01.941Z</time></trkpt><trkpt lat="43.610536" lon="6.725312"><ele>220.66666666666666</ele><time>2026-04-12T08:08:02.926Z</time></trkpt><trkpt lat="43.6105612" lon="6.7254312"><ele>221.0</ele><time>2026-04-12T08:08:03.946Z</time></trkpt><trkpt lat="43.6105827" lon="6.7255488"><ele>221.33333333333331</ele><time>2026-04-12T08:08:04.929Z</time></trkpt><trkpt lat="43.6105941" lon="6.7256626"><ele>221.66666666666666</ele><time>2026-04-12T08:08:05.931Z</time></trkpt><trkpt lat="43.6106074" lon="6.7257829"><ele>222.0</ele><time>2026-04-12T08:08:06.927Z</time></trkpt><trkpt lat="43.6106194" lon="6.7258995"><ele>222.0</ele><time>2026-04-12T08:08:07.934Z</time></trkpt><trkpt lat="43.6106219" lon="6.7260196"><ele>222.0</ele><time>2026-04-12T08:08:08.916Z</time></trkpt><trkpt lat="43.6106228" lon="6.7261345"><ele>222.0</ele><time>2026-04-12T08:08:09.934Z</time></trkpt><trkpt lat="43.6106203" lon="6.7262487"><ele>222.0</ele><time>2026-04-12T08:08:10.87Z</time></trkpt><trkpt lat="43.6106133" lon="6.7263634"><ele>222.0</ele><time>2026-04-12T08:08:11.917Z</time></trkpt><trkpt lat="43.6106121" lon="6.7264759"><ele>222.0</ele><time>2026-04-12T08:08:12.933Z</time></trkpt><trkpt lat="43.6106052" lon="6.7265864"><ele>222.83333333333334</ele><time>2026-04-12T08:08:13.93Z</time></trkpt><trkpt lat="43.6105939" lon="6.7267029"><ele>223.66666666666669</ele><time>2026-04-12T08:08:14.941Z</time></trkpt><trkpt lat="43.6105879" lon="6.7268102"><ele>224.5</ele><time>2026-04-12T08:08:15.934Z</time></trkpt><trkpt lat="43.6105809" lon="6.7269194"><ele>225.33333333333334</ele><time>2026-04-12T08:08:16.929Z</time></trkpt><trkpt lat="43.6105711" lon="6.7270271"><ele>226.16666666666669</ele><time>2026-04-12T08:08:17.942Z</time></trkpt><trkpt lat="43.6105622" lon="6.7271358"><ele>227.0</ele><time>2026-04-12T08:08:18.913Z</time></trkpt><trkpt lat="43.6105463" lon="6.7272429"><ele>227.00000000000003</ele><time>2026-04-12T08:08:19.949Z</time></trkpt><trkpt lat="43.6105303" lon="6.7273509"><ele>227.0</ele><time>2026-04-12T08:08:20.936Z</time></trkpt><trkpt lat="43.6105242" lon="6.7274604"><ele>227.0</ele><time>2026-04-12T08:08:21.925Z</time></trkpt><trkpt lat="43.6105262" lon="6.7275753"><ele>227.0</ele><time>2026-04-12T08:08:22.932Z</time></trkpt><trkpt lat="43.6105201" lon="6.7276912"><ele>227.00000000000003</ele><time>2026-04-12T08:08:23.923Z</time></trkpt><trkpt lat="43.6105003" lon="6.7278056"><ele>227.0</ele><time>2026-04-12T08:08:24.925Z</time></trkpt><trkpt lat="43.6104867" lon="6.7279167"><ele>227.0</ele><time>2026-04-12T08:08:25.938Z</time></trkpt><trkpt lat="43.610472" lon="6.7280463"><ele>227.0</ele><time>2026-04-12T08:08:26.957Z</time></trkpt><trkpt lat="43.6104561" lon="6.728176"><ele>227.0</ele><time>2026-04-12T08:08:27.941Z</time></trkpt><trkpt lat="43.6104438" lon="6.7283101"><ele>227.0</ele><time>2026-04-12T08:08:28.931Z</time></trkpt><trkpt lat="43.6104291" lon="6.7284431"><ele>227.0</ele><time>2026-04-12T08:08:29.936Z</time></trkpt><trkpt lat="43.6104163" lon="6.7285817"><ele>226.39999999999998</ele><time>2026-04-12T08:08:30.947Z</time></trkpt><trkpt lat="43.6103999" lon="6.7287233"><ele>225.79999999999998</ele><time>2026-04-12T08:08:31.948Z</time></trkpt><trkpt lat="43.6103838" lon="6.7288622"><ele>225.2</ele><time>2026-04-12T08:08:32.904Z</time></trkpt><trkpt lat="43.6103714" lon="6.7290094"><ele>224.6</ele><time>2026-04-12T08:08:33.925Z</time></trkpt><trkpt lat="43.6103592" lon="6.7291576"><ele>224.0</ele><time>2026-04-12T08:08:34.938Z</time></trkpt><trkpt lat="43.6103483" lon="6.7293058"><ele>223.39999999999998</ele><time>2026-04-12T08:08:35.946Z</time></trkpt><trkpt lat="43.610338" lon="6.7294559"><ele>222.79999999999998</ele><time>2026-04-12T08:08:36.92Z</time></trkpt><trkpt lat="43.6103237" lon="6.7296105"><ele>222.20000000000002</ele><time>2026-04-12T08:08:37.927Z</time></trkpt><trkpt lat="43.6103041" lon="6.7297622"><ele>221.60000000000002</ele><time>2026-04-12T08:08:38.899Z</time></trkpt><trkpt lat="43.6102895" lon="6.7299113"><ele>221.0</ele><time>2026-04-12T08:08:39.928Z</time></trkpt><trkpt lat="43.6102755" lon="6.7300661"><ele>219.75</ele><time>2026-04-12T08:08:40.919Z</time></trkpt><trkpt lat="43.6102606" lon="6.7302247"><ele>218.5</ele><time>2026-04-12T08:08:41.925Z</time></trkpt><trkpt lat="43.6102372" lon="6.7303824"><ele>217.25</ele><time>2026-04-12T08:08:42.912Z</time></trkpt><trkpt lat="43.6102125" lon="6.730536"><ele>216.0</ele><time>2026-04-12T08:08:43.929Z</time></trkpt><trkpt lat="43.6101852" lon="6.7306899"><ele>216.0</ele><time>2026-04-12T08:08:44.936Z</time></trkpt><trkpt lat="43.6101543" lon="6.7308427"><ele>216.0</ele><time>2026-04-12T08:08:45.93Z</time></trkpt><trkpt lat="43.6101248" lon="6.7309949"><ele>216.0</ele><time>2026-04-12T08:08:46.921Z</time></trkpt><trkpt lat="43.6101008" lon="6.7311417"><ele>216.0</ele><time>2026-04-12T08:08:47.943Z</time></trkpt><trkpt lat="43.610079" lon="6.7312979"><ele>216.0</ele><time>2026-04-12T08:08:48.911Z</time></trkpt><trkpt lat="43.6100731" lon="6.7314566"><ele>216.0</ele><time>2026-04-12T08:08:49.938Z</time></trkpt><trkpt lat="43.6100752" lon="6.7316087"><ele>216.0</ele><time>2026-04-12T08:08:50.932Z</time></trkpt><trkpt lat="43.61007" lon="6.731765"><ele>216.0</ele><time>2026-04-12T08:08:51.942Z</time></trkpt><trkpt lat="43.6100667" lon="6.7319252"><ele>216.0</ele><time>2026-04-12T08:08:52.929Z</time></trkpt><trkpt lat="43.6100833" lon="6.7320803"><ele>216.0</ele><time>2026-04-12T08:08:53.921Z</time></trkpt><trkpt lat="43.6101087" lon="6.7322381"><ele>216.0</ele><time>2026-04-12T08:08:54.914Z</time></trkpt><trkpt lat="43.6101266" lon="6.7323981"><ele>216.0</ele><time>2026-04-12T08:08:55.924Z</time></trkpt><trkpt lat="43.610129" lon="6.732553"><ele>216.0</ele><time>2026-04-12T08:08:56.924Z</time></trkpt><trkpt lat="43.6101164" lon="6.7327101"><ele>216.0</ele><time>2026-04-12T08:08:57.944Z</time></trkpt><trkpt lat="43.6100927" lon="6.7328724"><ele>216.0</ele><time>2026-04-12T08:08:58.934Z</time></trkpt><trkpt lat="43.6100627" lon="6.7330323"><ele>216.0</ele><time>2026-04-12T08:08:59.896Z</time></trkpt><trkpt lat="43.6100367" lon="6.7331916"><ele>216.25</ele><time>2026-04-12T08:09:00.939Z</time></trkpt><trkpt lat="43.6100084" lon="6.7333502"><ele>216.5</ele><time>2026-04-12T08:09:01.952Z</time></trkpt><trkpt lat="43.6099802" lon="6.733513"><ele>216.75</ele><time>2026-04-12T08:09:02.932Z</time></trkpt><trkpt lat="43.6099475" lon="6.7336708"><ele>217.0</ele><time>2026-04-12T08:09:03.948Z</time></trkpt><trkpt lat="43.6099137" lon="6.7338312"><ele>215.75</ele><time>2026-04-12T08:09:04.922Z</time></trkpt><trkpt lat="43.6098767" lon="6.7339942"><ele>214.5</ele><time>2026-04-12T08:09:05.931Z</time></trkpt><trkpt lat="43.6098389" lon="6.7341611"><ele>213.25</ele><time>2026-04-12T08:09:06.943Z</time></trkpt><trkpt lat="43.6097968" lon="6.7343353"><ele>212.0</ele><time>2026-04-12T08:09:07.922Z</time></trkpt><trkpt lat="43.6097546" lon="6.7345136"><ele>211.25</ele><time>2026-04-12T08:09:08.938Z</time></trkpt><trkpt lat="43.6097138" lon="6.7346981"><ele>210.5</ele><time>2026-04-12T08:09:09.932Z</time></trkpt><trkpt lat="43.60967" lon="6.7348878"><ele>209.75</ele><time>2026-04-12T08:09:10.944Z</time></trkpt><trkpt lat="43.6096266" lon="6.7350762"><ele>209.0</ele><time>2026-04-12T08:09:11.935Z</time></trkpt><trkpt lat="43.6095848" lon="6.735268"><ele>208.75</ele><time>2026-04-12T08:09:12.933Z</time></trkpt><trkpt lat="43.6095394" lon="6.7354643"><ele>208.5</ele><time>2026-04-12T08:09:13.933Z</time></trkpt><trkpt lat="43.6094919" lon="6.7356562"><ele>208.25</ele><time>2026-04-12T08:09:14.915Z</time></trkpt><trkpt lat="43.6094458" lon="6.7358519"><ele>208.0</ele><time>2026-04-12T08:09:15.919Z</time></trkpt><trkpt lat="43.6093996" lon="6.7360421"><ele>206.75</ele><time>2026-04-12T08:09:16.909Z</time></trkpt><trkpt lat="43.6093538" lon="6.7362344"><ele>205.5</ele><time>2026-04-12T08:09:17.929Z</time></trkpt><trkpt lat="43.6093085" lon="6.7364269"><ele>204.25</ele><time>2026-04-12T08:09:18.932Z</time></trkpt><trkpt lat="43.6092632" lon="6.7366215"><ele>203.0</ele><time>2026-04-12T08:09:19.942Z</time></trkpt><trkpt lat="43.6092197" lon="6.7368123"><ele>203.0</ele><time>2026-04-12T08:09:20.908Z</time></trkpt><trkpt lat="43.6091747" lon="6.7370035"><ele>203.0</ele><time>2026-04-12T08:09:21.954Z</time></trkpt><trkpt lat="43.609131" lon="6.7371954"><ele>203.0</ele><time>2026-04-12T08:09:22.934Z</time></trkpt><trkpt lat="43.6090875" lon="6.737381"><ele>203.0</ele><time>2026-04-12T08:09:23.92Z</time></trkpt><trkpt lat="43.6090435" lon="6.73757"><ele>202.75</ele><time>2026-04-12T08:09:24.947Z</time></trkpt><trkpt lat="43.608998" lon="6.7377598"><ele>202.5</ele><time>2026-04-12T08:09:25.934Z</time></trkpt><trkpt lat="43.6089555" lon="6.7379454"><ele>202.25</ele><time>2026-04-12T08:09:26.941Z</time></trkpt><trkpt lat="43.6089124" lon="6.7381305"><ele>202.0</ele><time>2026-04-12T08:09:27.919Z</time></trkpt><trkpt lat="43.6088704" lon="6.7383137"><ele>202.0</ele><time>2026-04-12T08:09:28.932Z</time></trkpt><trkpt lat="43.6088262" lon="6.7384932"><ele>202.0</ele><time>2026-04-12T08:09:29.897Z</time></trkpt><trkpt lat="43.6087824" lon="6.7386777"><ele>202.0</ele><time>2026-04-12T08:09:30.918Z</time></trkpt><trkpt lat="43.6087404" lon="6.738861"><ele>202.0</ele><time>2026-04-12T08:09:31.952Z</time></trkpt><trkpt lat="43.6086985" lon="6.7390476"><ele>201.5</ele><time>2026-04-12T08:09:32.909Z</time></trkpt><trkpt lat="43.6086518" lon="6.7392375"><ele>201.0</ele><time>2026-04-12T08:09:33.919Z</time></trkpt><trkpt lat="43.6086081" lon="6.7394283"><ele>200.5</ele><time>2026-04-12T08:09:34.961Z</time></trkpt><trkpt lat="43.6085656" lon="6.7396174"><ele>200.0</ele><time>2026-04-12T08:09:35.919Z</time></trkpt><trkpt lat="43.6085234" lon="6.7398021"><ele>199.5</ele><time>2026-04-12T08:09:36.925Z</time></trkpt><trkpt lat="43.6084809" lon="6.7399882"><ele>199.0</ele><time>2026-04-12T08:09:37.92Z</time></trkpt><trkpt lat="43.6084356" lon="6.7401744"><ele>198.5</ele><time>2026-04-12T08:09:38.934Z</time></trkpt><trkpt lat="43.6083946" lon="6.7403581"><ele>198.0</ele><time>2026-04-12T08:09:39.948Z</time></trkpt><trkpt lat="43.6083526" lon="6.7405404"><ele>198.0</ele><time>2026-04-12T08:09:40.921Z</time></trkpt><trkpt lat="43.6083077" lon="6.7407214"><ele>198.0</ele><time>2026-04-12T08:09:41.922Z</time></trkpt><trkpt lat="43.6082603" lon="6.7408987"><ele>198.0</ele><time>2026-04-12T08:09:42.937Z</time></trkpt><trkpt lat="43.6082126" lon="6.7410719"><ele>198.0</ele><time>2026-04-12T08:09:43.929Z</time></trkpt><trkpt lat="43.6081654" lon="6.7412398"><ele>197.75</ele><time>2026-04-12T08:09:44.912Z</time></trkpt><trkpt lat="43.6081209" lon="6.7414118"><ele>197.5</ele><time>2026-04-12T08:09:45.94Z</time></trkpt><trkpt lat="43.6080853" lon="6.7415787"><ele>197.25</ele><time>2026-04-12T08:09:46.924Z</time></trkpt><trkpt lat="43.6080517" lon="6.7417457"><ele>197.0</ele><time>2026-04-12T08:09:47.929Z</time></trkpt><trkpt lat="43.608024" lon="6.7419138"><ele>196.25</ele><time>2026-04-12T08:09:48.933Z</time></trkpt><trkpt lat="43.6079991" lon="6.7420809"><ele>195.5</ele><time>2026-04-12T08:09:49.911Z</time></trkpt><trkpt lat="43.6079685" lon="6.7422449"><ele>194.75</ele><time>2026-04-12T08:09:50.889Z</time></trkpt><trkpt lat="43.6079102" lon="6.7423996"><ele>194.0</ele><time>2026-04-12T08:09:51.927Z</time></trkpt><trkpt lat="43.6078625" lon="6.7425577"><ele>193.75</ele><time>2026-04-12T08:09:52.931Z</time></trkpt><trkpt lat="43.6078543" lon="6.7427146"><ele>193.5</ele><time>2026-04-12T08:09:53.936Z</time></trkpt><trkpt lat="43.6078832" lon="6.7428813"><ele>193.25</ele><time>2026-04-12T08:09:54.933Z</time></trkpt><trkpt lat="43.6079034" lon="6.7430554"><ele>193.0</ele><time>2026-04-12T08:09:55.94Z</time></trkpt><trkpt lat="43.607901" lon="6.7432206"><ele>193.0</ele><time>2026-04-12T08:09:56.945Z</time></trkpt><trkpt lat="43.6078756" lon="6.7433928"><ele>193.0</ele><time>2026-04-12T08:09:57.929Z</time></trkpt><trkpt lat="43.6078514" lon="6.7435682"><ele>193.0</ele><time>2026-04-12T08:09:58.954Z</time></trkpt><trkpt lat="43.6078275" lon="6.7437459"><ele>193.0</ele><time>2026-04-12T08:09:59.932Z</time></trkpt><trkpt lat="43.6078126" lon="6.7439141"><ele>193.25</ele><time>2026-04-12T08:10:00.933Z</time></trkpt><trkpt lat="43.6077952" lon="6.7440814"><ele>193.5</ele><time>2026-04-12T08:10:01.919Z</time></trkpt><trkpt lat="43.6077803" lon="6.7442536"><ele>193.75</ele><time>2026-04-12T08:10:02.939Z</time></trkpt><trkpt lat="43.6077674" lon="6.7444327"><ele>194.0</ele><time>2026-04-12T08:10:03.938Z</time></trkpt><trkpt lat="43.6077583" lon="6.7446127"><ele>193.25</ele><time>2026-04-12T08:10:04.925Z</time></trkpt><trkpt lat="43.6077522" lon="6.7447887"><ele>192.5</ele><time>2026-04-12T08:10:05.93Z</time></trkpt><trkpt lat="43.6077452" lon="6.7449614"><ele>191.75</ele><time>2026-04-12T08:10:06.94Z</time></trkpt><trkpt lat="43.6077362" lon="6.7451367"><ele>191.0</ele><time>2026-04-12T08:10:07.947Z</time></trkpt><trkpt lat="43.6077232" lon="6.7453081"><ele>190.75</ele><time>2026-04-12T08:10:08.909Z</time></trkpt><trkpt lat="43.607708" lon="6.7454821"><ele>190.5</ele><time>2026-04-12T08:10:09.935Z</time></trkpt><trkpt lat="43.6076927" lon="6.7456432"><ele>190.25</ele><time>2026-04-12T08:10:10.931Z</time></trkpt><trkpt lat="43.6076761" lon="6.7458111"><ele>190.0</ele><time>2026-04-12T08:10:11.936Z</time></trkpt><trkpt lat="43.6076602" lon="6.745977"><ele>190.5</ele><time>2026-04-12T08:10:12.936Z</time></trkpt><trkpt lat="43.6076356" lon="6.746142"><ele>191.0</ele><time>2026-04-12T08:10:13.937Z</time></trkpt><trkpt lat="43.607605" lon="6.7463045"><ele>191.5</ele><time>2026-04-12T08:10:14.896Z</time></trkpt><trkpt lat="43.6075731" lon="6.7464671"><ele>192.0</ele><time>2026-04-12T08:10:15.925Z</time></trkpt><trkpt lat="43.6075353" lon="6.7466319"><ele>192.0</ele><time>2026-04-12T08:10:16.917Z</time></trkpt><trkpt lat="43.6074975" lon="6.746796"><ele>192.0</ele><time>2026-04-12T08:10:17.924Z</time></trkpt><trkpt lat="43.6074528" lon="6.746957"><ele>192.0</ele><time>2026-04-12T08:10:18.956Z</time></trkpt><trkpt lat="43.6074094" lon="6.7471144"><ele>192.0</ele><time>2026-04-12T08:10:19.904Z</time></trkpt><trkpt lat="43.6073674" lon="6.7472736"><ele>192.0</ele><time>2026-04-12T08:10:20.94Z</time></trkpt><trkpt lat="43.6073257" lon="6.7474338"><ele>192.0</ele><time>2026-04-12T08:10:21.941Z</time></trkpt><trkpt lat="43.6072855" lon="6.7475885"><ele>192.0</ele><time>2026-04-12T08:10:22.931Z</time></trkpt><trkpt lat="43.6072418" lon="6.7477478"><ele>192.0</ele><time>2026-04-12T08:10:23.891Z</time></trkpt><trkpt lat="43.6071996" lon="6.7479021"><ele>192.0</ele><time>2026-04-12T08:10:24.922Z</time></trkpt><trkpt lat="43.6071596" lon="6.748059"><ele>192.0</ele><time>2026-04-12T08:10:25.947Z</time></trkpt><trkpt lat="43.607116" lon="6.7482117"><ele>192.0</ele><time>2026-04-12T08:10:26.93Z</time></trkpt><trkpt lat="43.607078" lon="6.7483665"><ele>192.0</ele><time>2026-04-12T08:10:27.925Z</time></trkpt><trkpt lat="43.6070376" lon="6.7485235"><ele>191.5</ele><time>2026-04-12T08:10:28.934Z</time></trkpt><trkpt lat="43.6069963" lon="6.7486803"><ele>191.0</ele><time>2026-04-12T08:10:29.92Z</time></trkpt><trkpt lat="43.6069514" lon="6.7488405"><ele>190.5</ele><time>2026-04-12T08:10:30.931Z</time></trkpt><trkpt lat="43.6069087" lon="6.7490006"><ele>190.0</ele><time>2026-04-12T08:10:31.933Z</time></trkpt><trkpt lat="43.6068626" lon="6.7491621"><ele>189.75</ele><time>2026-04-12T08:10:32.937Z</time></trkpt><trkpt lat="43.6068141" lon="6.7493214"><ele>189.5</ele><time>2026-04-12T08:10:33.933Z</time></trkpt><trkpt lat="43.6067663" lon="6.7494874"><ele>189.25</ele><time>2026-04-12T08:10:34.928Z</time></trkpt><trkpt lat="43.6067182" lon="6.7496466"><ele>189.0</ele><time>2026-04-12T08:10:35.928Z</time></trkpt><trkpt lat="43.6066668" lon="6.7498123"><ele>189.0</ele><time>2026-04-12T08:10:36.938Z</time></trkpt><trkpt lat="43.6066225" lon="6.7499699"><ele>189.0</ele><time>2026-04-12T08:10:37.914Z</time></trkpt><trkpt lat="43.606588" lon="6.7501314"><ele>189.0</ele><time>2026-04-12T08:10:38.937Z</time></trkpt><trkpt lat="43.6065585" lon="6.7502928"><ele>189.0</ele><time>2026-04-12T08:10:39.933Z</time></trkpt><trkpt lat="43.6065285" lon="6.7504541"><ele>189.0</ele><time>2026-04-12T08:10:40.916Z</time></trkpt><trkpt lat="43.6064929" lon="6.7506173"><ele>189.0</ele><time>2026-04-12T08:10:41.944Z</time></trkpt><trkpt lat="43.6064594" lon="6.7507841"><ele>189.0</ele><time>2026-04-12T08:10:42.926Z</time></trkpt><trkpt lat="43.6064332" lon="6.7509458"><ele>189.0</ele><time>2026-04-12T08:10:43.937Z</time></trkpt><trkpt lat="43.606402" lon="6.7511081"><ele>188.5</ele><time>2026-04-12T08:10:44.924Z</time></trkpt><trkpt lat="43.6063714" lon="6.7512705"><ele>188.0</ele><time>2026-04-12T08:10:45.941Z</time></trkpt><trkpt lat="43.60634" lon="6.7514387"><ele>187.5</ele><time>2026-04-12T08:10:46.941Z</time></trkpt><trkpt lat="43.6063063" lon="6.7516035"><ele>187.0</ele><time>2026-04-12T08:10:47.931Z</time></trkpt><trkpt lat="43.6062744" lon="6.7517665"><ele>187.0</ele><time>2026-04-12T08:10:48.934Z</time></trkpt><trkpt lat="43.6062431" lon="6.751928"><ele>187.0</ele><time>2026-04-12T08:10:49.955Z</time></trkpt><trkpt lat="43.6062116" lon="6.7520866"><ele>187.0</ele><time>2026-04-12T08:10:50.888Z</time></trkpt><trkpt lat="43.6061777" lon="6.7522465"><ele>187.0</ele><time>2026-04-12T08:10:51.948Z</time></trkpt><trkpt lat="43.6061454" lon="6.7524056"><ele>186.5</ele><time>2026-04-12T08:10:52.938Z</time></trkpt><trkpt lat="43.6061127" lon="6.7525643"><ele>186.0</ele><time>2026-04-12T08:10:53.946Z</time></trkpt><trkpt lat="43.606079" lon="6.7527201"><ele>185.5</ele><time>2026-04-12T08:10:54.934Z</time></trkpt><trkpt lat="43.6060475" lon="6.7528836"><ele>185.0</ele><time>2026-04-12T08:10:55.893Z</time></trkpt><trkpt lat="43.6060221" lon="6.7530423"><ele>185.0</ele><time>2026-04-12T08:10:56.932Z</time></trkpt><trkpt lat="43.6060045" lon="6.7532032"><ele>185.0</ele><time>2026-04-12T08:10:57.918Z</time></trkpt><trkpt lat="43.6059833" lon="6.7533674"><ele>185.0</ele><time>2026-04-12T08:10:58.914Z</time></trkpt><trkpt lat="43.6059642" lon="6.7535308"><ele>185.0</ele><time>2026-04-12T08:10:59.918Z</time></trkpt><trkpt lat="43.6059499" lon="6.7536898"><ele>184.75</ele><time>2026-04-12T08:11:00.92Z</time></trkpt><trkpt lat="43.605932" lon="6.7538475"><ele>184.5</ele><time>2026-04-12T08:11:01.939Z</time></trkpt><trkpt lat="43.6059095" lon="6.7540082"><ele>184.25</ele><time>2026-04-12T08:11:02.919Z</time></trkpt><trkpt lat="43.6059001" lon="6.7541678"><ele>184.0</ele><time>2026-04-12T08:11:03.913Z</time></trkpt><trkpt lat="43.6059236" lon="6.7543295"><ele>184.0</ele><time>2026-04-12T08:11:04.935Z</time></trkpt><trkpt lat="43.6058918" lon="6.7544903"><ele>184.0</ele><time>2026-04-12T08:11:05.944Z</time></trkpt><trkpt lat="43.6058469" lon="6.7546381"><ele>184.0</ele><time>2026-04-12T08:11:06.919Z</time></trkpt><trkpt lat="43.6057963" lon="6.7547812"><ele>184.0</ele><time>2026-04-12T08:11:07.937Z</time></trkpt><trkpt lat="43.6057379" lon="6.7549185"><ele>184.0</ele><time>2026-04-12T08:11:08.922Z</time></trkpt><trkpt lat="43.605677" lon="6.7550467"><ele>184.0</ele><time>2026-04-12T08:11:09.944Z</time></trkpt><trkpt lat="43.6056284" lon="6.7551742"><ele>184.0</ele><time>2026-04-12T08:11:10.933Z</time></trkpt><trkpt lat="43.6056119" lon="6.7553144"><ele>184.0</ele><time>2026-04-12T08:11:11.931Z</time></trkpt><trkpt lat="43.6056436" lon="6.755451"><ele>184.0</ele><time>2026-04-12T08:11:12.931Z</time></trkpt><trkpt lat="43.605687" lon="6.7555844"><ele>184.0</ele><time>2026-04-12T08:11:13.95Z</time></trkpt><trkpt lat="43.6057128" lon="6.7557254"><ele>184.0</ele><time>2026-04-12T08:11:14.922Z</time></trkpt><trkpt lat="43.6057088" lon="6.7558751"><ele>184.0</ele><time>2026-04-12T08:11:15.947Z</time></trkpt><trkpt lat="43.605704" lon="6.75603"><ele>184.0</ele><time>2026-04-12T08:11:16.932Z</time></trkpt><trkpt lat="43.6056953" lon="6.7561936"><ele>184.0</ele><time>2026-04-12T08:11:17.925Z</time></trkpt><trkpt lat="43.6056891" lon="6.7563572"><ele>184.0</ele><time>2026-04-12T08:11:18.925Z</time></trkpt><trkpt lat="43.6056782" lon="6.7565285"><ele>184.0</ele><time>2026-04-12T08:11:19.926Z</time></trkpt><trkpt lat="43.605663" lon="6.7567037"><ele>184.0</ele><time>2026-04-12T08:11:20.938Z</time></trkpt><trkpt lat="43.6056429" lon="6.7568812"><ele>184.0</ele><time>2026-04-12T08:11:21.939Z</time></trkpt><trkpt lat="43.6056147" lon="6.757059"><ele>183.75</ele><time>2026-04-12T08:11:22.945Z</time></trkpt><trkpt lat="43.6055829" lon="6.7572368"><ele>183.5</ele><time>2026-04-12T08:11:23.935Z</time></trkpt><trkpt lat="43.6055532" lon="6.7574111"><ele>183.25</ele><time>2026-04-12T08:11:24.928Z</time></trkpt><trkpt lat="43.605528" lon="6.7575898"><ele>183.0</ele><time>2026-04-12T08:11:25.947Z</time></trkpt><trkpt lat="43.6055032" lon="6.7577589"><ele>182.75</ele><time>2026-04-12T08:11:26.92Z</time></trkpt><trkpt lat="43.6054877" lon="6.7579353"><ele>182.5</ele><time>2026-04-12T08:11:27.942Z</time></trkpt><trkpt lat="43.6054808" lon="6.7581027"><ele>182.25</ele><time>2026-04-12T08:11:28.925Z</time></trkpt><trkpt lat="43.6054753" lon="6.7582657"><ele>182.0</ele><time>2026-04-12T08:11:29.919Z</time></trkpt><trkpt lat="43.6054721" lon="6.7584356"><ele>182.0</ele><time>2026-04-12T08:11:30.919Z</time></trkpt><trkpt lat="43.6054736" lon="6.7586011"><ele>182.0</ele><time>2026-04-12T08:11:31.939Z</time></trkpt><trkpt lat="43.6054715" lon="6.7587648"><ele>182.0</ele><time>2026-04-12T08:11:32.913Z</time></trkpt><trkpt lat="43.6054746" lon="6.7589326"><ele>182.0</ele><time>2026-04-12T08:11:33.925Z</time></trkpt><trkpt lat="43.6054769" lon="6.7590952"><ele>182.0</ele><time>2026-04-12T08:11:34.938Z</time></trkpt><trkpt lat="43.6054827" lon="6.7592639"><ele>182.0</ele><time>2026-04-12T08:11:35.924Z</time></trkpt><trkpt lat="43.6054932" lon="6.7594241"><ele>182.0</ele><time>2026-04-12T08:11:36.936Z</time></trkpt><trkpt lat="43.6055059" lon="6.7595825"><ele>182.0</ele><time>2026-04-12T08:11:37.938Z</time></trkpt><trkpt lat="43.6055212" lon="6.7597385"><ele>182.0</ele><time>2026-04-12T08:11:38.922Z</time></trkpt><trkpt lat="43.6055327" lon="6.7598905"><ele>182.0</ele><time>2026-04-12T08:11:39.939Z</time></trkpt><trkpt lat="43.6055455" lon="6.7600428"><ele>182.0</ele><time>2026-04-12T08:11:40.918Z</time></trkpt><trkpt lat="43.6055575" lon="6.7601863"><ele>182.0</ele><time>2026-04-12T08:11:41.932Z</time></trkpt><trkpt lat="43.6055762" lon="6.7603352"><ele>182.0</ele><time>2026-04-12T08:11:42.922Z</time></trkpt><trkpt lat="43.6055938" lon="6.760487"><ele>181.8</ele><time>2026-04-12T08:11:43.89Z</time></trkpt><trkpt lat="43.6056092" lon="6.760633"><ele>181.6</ele><time>2026-04-12T08:11:44.921Z</time></trkpt><trkpt lat="43.6056227" lon="6.7607787"><ele>181.4</ele><time>2026-04-12T08:11:45.91Z</time></trkpt><trkpt lat="43.6056413" lon="6.7609222"><ele>181.20000000000002</ele><time>2026-04-12T08:11:46.929Z</time></trkpt><trkpt lat="43.6056556" lon="6.761078"><ele>181.0</ele><time>2026-04-12T08:11:47.933Z</time></trkpt><trkpt lat="43.6056693" lon="6.761223"><ele>180.8</ele><time>2026-04-12T08:11:48.928Z</time></trkpt><trkpt lat="43.6056847" lon="6.7613589"><ele>180.60000000000002</ele><time>2026-04-12T08:11:49.905Z</time></trkpt><trkpt lat="43.6056979" lon="6.7614871"><ele>180.4</ele><time>2026-04-12T08:11:50.917Z</time></trkpt><trkpt lat="43.6057063" lon="6.7616171"><ele>180.2</ele><time>2026-04-12T08:11:51.933Z</time></trkpt><trkpt lat="43.6057106" lon="6.7617407"><ele>180.0</ele><time>2026-04-12T08:11:52.937Z</time></trkpt><trkpt lat="43.6057093" lon="6.7618523"><ele>180.16666666666666</ele><time>2026-04-12T08:11:53.927Z</time></trkpt><trkpt lat="43.605698" lon="6.7619577"><ele>180.33333333333334</ele><time>2026-04-12T08:11:54.955Z</time></trkpt><trkpt lat="43.605682" lon="6.7620474"><ele>180.5</ele><time>2026-04-12T08:11:55.914Z</time></trkpt><trkpt lat="43.6056656" lon="6.7621324"><ele>180.66666666666669</ele><time>2026-04-12T08:11:56.924Z</time></trkpt><trkpt lat="43.6056717" lon="6.7622477"><ele>180.83333333333334</ele><time>2026-04-12T08:11:58.944Z</time></trkpt><trkpt lat="43.6057034" lon="6.7623617"><ele>181.0</ele><time>2026-04-12T08:12:00.919Z</time></trkpt><trkpt lat="43.6056991" lon="6.7625338"><ele>181.0</ele><time>2026-04-12T08:12:02.936Z</time></trkpt><trkpt lat="43.6056927" lon="6.7626372"><ele>181.0</ele><time>2026-04-12T08:12:03.909Z</time></trkpt><trkpt lat="43.6056941" lon="6.762745"><ele>181.0</ele><time>2026-04-12T08:12:04.946Z</time></trkpt><trkpt lat="43.6056978" lon="6.7628645"><ele>181.0</ele><time>2026-04-12T08:12:05.939Z</time></trkpt><trkpt lat="43.6057019" lon="6.7629905"><ele>181.0</ele><time>2026-04-12T08:12:06.926Z</time></trkpt><trkpt lat="43.6056944" lon="6.7631212"><ele>181.0</ele><time>2026-04-12T08:12:07.921Z</time></trkpt><trkpt lat="43.6056936" lon="6.7632531"><ele>181.0</ele><time>2026-04-12T08:12:08.908Z</time></trkpt><trkpt lat="43.6056956" lon="6.7633944"><ele>181.0</ele><time>2026-04-12T08:12:09.917Z</time></trkpt><trkpt lat="43.6056995" lon="6.7635358"><ele>181.0</ele><time>2026-04-12T08:12:10.933Z</time></trkpt><trkpt lat="43.6056988" lon="6.7636893"><ele>181.0</ele><time>2026-04-12T08:12:11.926Z</time></trkpt><trkpt lat="43.6056968" lon="6.7638433"><ele>181.0</ele><time>2026-04-12T08:12:12.934Z</time></trkpt><trkpt lat="43.605697" lon="6.7639934"><ele>181.0</ele><time>2026-04-12T08:12:13.888Z</time></trkpt><trkpt lat="43.6057045" lon="6.7641449"><ele>181.0</ele><time>2026-04-12T08:12:14.938Z</time></trkpt><trkpt lat="43.6057146" lon="6.7642929"><ele>181.0</ele><time>2026-04-12T08:12:15.93Z</time></trkpt><trkpt lat="43.605723" lon="6.764439"><ele>181.0</ele><time>2026-04-12T08:12:16.928Z</time></trkpt><trkpt lat="43.6057336" lon="6.7645906"><ele>181.0</ele><time>2026-04-12T08:12:17.941Z</time></trkpt><trkpt lat="43.6057436" lon="6.7647415"><ele>181.0</ele><time>2026-04-12T08:12:18.913Z</time></trkpt><trkpt lat="43.6057554" lon="6.7648991"><ele>181.0</ele><time>2026-04-12T08:12:19.919Z</time></trkpt><trkpt lat="43.6057608" lon="6.7650507"><ele>181.0</ele><time>2026-04-12T08:12:20.929Z</time></trkpt><trkpt lat="43.6057602" lon="6.7652029"><ele>181.0</ele><time>2026-04-12T08:12:21.935Z</time></trkpt><trkpt lat="43.6057598" lon="6.7653521"><ele>181.0</ele><time>2026-04-12T08:12:22.933Z</time></trkpt><trkpt lat="43.6057546" lon="6.7655082"><ele>181.0</ele><time>2026-04-12T08:12:23.916Z</time></trkpt><trkpt lat="43.605757" lon="6.7656629"><ele>181.0</ele><time>2026-04-12T08:12:24.923Z</time></trkpt><trkpt lat="43.6057564" lon="6.7658201"><ele>181.0</ele><time>2026-04-12T08:12:25.936Z</time></trkpt><trkpt lat="43.6057558" lon="6.7659737"><ele>181.0</ele><time>2026-04-12T08:12:26.949Z</time></trkpt><trkpt lat="43.605758" lon="6.7661312"><ele>180.5</ele><time>2026-04-12T08:12:27.897Z</time></trkpt><trkpt lat="43.605761" lon="6.7662894"><ele>180.0</ele><time>2026-04-12T08:12:28.924Z</time></trkpt><trkpt lat="43.6057604" lon="6.7664494"><ele>179.5</ele><time>2026-04-12T08:12:29.921Z</time></trkpt><trkpt lat="43.6057586" lon="6.7666171"><ele>179.0</ele><time>2026-04-12T08:12:30.939Z</time></trkpt><trkpt lat="43.6057526" lon="6.7667815"><ele>179.0</ele><time>2026-04-12T08:12:31.938Z</time></trkpt><trkpt lat="43.6057412" lon="6.7669432"><ele>179.0</ele><time>2026-04-12T08:12:32.946Z</time></trkpt><trkpt lat="43.6057243" lon="6.7671054"><ele>179.0</ele><time>2026-04-12T08:12:33.945Z</time></trkpt><trkpt lat="43.6057053" lon="6.7672693"><ele>179.0</ele><time>2026-04-12T08:12:34.927Z</time></trkpt><trkpt lat="43.6056853" lon="6.7674345"><ele>179.0</ele><time>2026-04-12T08:12:35.93Z</time></trkpt><trkpt lat="43.605657" lon="6.7675959"><ele>179.0</ele><time>2026-04-12T08:12:36.916Z</time></trkpt><trkpt lat="43.6056278" lon="6.7677568"><ele>179.0</ele><time>2026-04-12T08:12:37.939Z</time></trkpt><trkpt lat="43.6055918" lon="6.767912"><ele>179.0</ele><time>2026-04-12T08:12:38.944Z</time></trkpt><trkpt lat="43.6055487" lon="6.7680635"><ele>179.5</ele><time>2026-04-12T08:12:39.883Z</time></trkpt><trkpt lat="43.6055069" lon="6.7682106"><ele>180.0</ele><time>2026-04-12T08:12:40.926Z</time></trkpt><trkpt lat="43.605461" lon="6.7683574"><ele>180.5</ele><time>2026-04-12T08:12:41.933Z</time></trkpt><trkpt lat="43.6054133" lon="6.7684994"><ele>181.0</ele><time>2026-04-12T08:12:42.926Z</time></trkpt><trkpt lat="43.6053653" lon="6.7686449"><ele>180.0</ele><time>2026-04-12T08:12:43.927Z</time></trkpt><trkpt lat="43.6053241" lon="6.7687912"><ele>179.0</ele><time>2026-04-12T08:12:44.95Z</time></trkpt><trkpt lat="43.6052795" lon="6.7689351"><ele>178.0</ele><time>2026-04-12T08:12:45.939Z</time></trkpt><trkpt lat="43.6052402" lon="6.769073"><ele>177.0</ele><time>2026-04-12T08:12:46.936Z</time></trkpt><trkpt lat="43.6052001" lon="6.7692136"><ele>176.0</ele><time>2026-04-12T08:12:47.93Z</time></trkpt><trkpt lat="43.6051555" lon="6.7693491"><ele>176.20000000000002</ele><time>2026-04-12T08:12:48.92Z</time></trkpt><trkpt lat="43.6051095" lon="6.7694747"><ele>176.4</ele><time>2026-04-12T08:12:49.944Z</time></trkpt><trkpt lat="43.6050591" lon="6.7695946"><ele>176.6</ele><time>2026-04-12T08:12:50.915Z</time></trkpt><trkpt lat="43.6050152" lon="6.7697181"><ele>176.8</ele><time>2026-04-12T08:12:51.915Z</time></trkpt><trkpt lat="43.6049898" lon="6.7698507"><ele>177.0</ele><time>2026-04-12T08:12:52.919Z</time></trkpt><trkpt lat="43.6049851" lon="6.7699986"><ele>177.0</ele><time>2026-04-12T08:12:53.94Z</time></trkpt><trkpt lat="43.604986" lon="6.7701345"><ele>177.0</ele><time>2026-04-12T08:12:54.933Z</time></trkpt><trkpt lat="43.6049577" lon="6.7702737"><ele>177.0</ele><time>2026-04-12T08:12:55.927Z</time></trkpt><trkpt lat="43.6049086" lon="6.7703929"><ele>177.0</ele><time>2026-04-12T08:12:56.912Z</time></trkpt><trkpt lat="43.6048457" lon="6.7705093"><ele>177.0</ele><time>2026-04-12T08:12:57.953Z</time></trkpt><trkpt lat="43.6047849" lon="6.7706211"><ele>177.39999999999998</ele><time>2026-04-12T08:12:58.924Z</time></trkpt><trkpt lat="43.6047224" lon="6.7707343"><ele>177.79999999999998</ele><time>2026-04-12T08:12:59.89Z</time></trkpt><trkpt lat="43.6046621" lon="6.770854"><ele>178.2</ele><time>2026-04-12T08:13:00.931Z</time></trkpt><trkpt lat="43.6046067" lon="6.770969"><ele>178.6</ele><time>2026-04-12T08:13:01.925Z</time></trkpt><trkpt lat="43.604555" lon="6.7710917"><ele>179.0</ele><time>2026-04-12T08:13:02.925Z</time></trkpt><trkpt lat="43.6045075" lon="6.7712144"><ele>179.0</ele><time>2026-04-12T08:13:03.932Z</time></trkpt><trkpt lat="43.6044599" lon="6.7713387"><ele>179.0</ele><time>2026-04-12T08:13:04.913Z</time></trkpt><trkpt lat="43.6044156" lon="6.7714644"><ele>179.0</ele><time>2026-04-12T08:13:05.939Z</time></trkpt><trkpt lat="43.6043733" lon="6.7715896"><ele>179.0</ele><time>2026-04-12T08:13:06.897Z</time></trkpt><trkpt lat="43.6043329" lon="6.7717096"><ele>179.0</ele><time>2026-04-12T08:13:07.934Z</time></trkpt><trkpt lat="43.6042932" lon="6.7718309"><ele>179.39999999999998</ele><time>2026-04-12T08:13:08.939Z</time></trkpt><trkpt lat="43.6042542" lon="6.7719533"><ele>179.8</ele><time>2026-04-12T08:13:09.942Z</time></trkpt><trkpt lat="43.604218" lon="6.7720753"><ele>180.2</ele><time>2026-04-12T08:13:10.897Z</time></trkpt><trkpt lat="43.6041761" lon="6.7721955"><ele>180.60000000000002</ele><time>2026-04-12T08:13:11.915Z</time></trkpt><trkpt lat="43.6041328" lon="6.7723214"><ele>181.0</ele><time>2026-04-12T08:13:12.957Z</time></trkpt><trkpt lat="43.6040903" lon="6.7724395"><ele>181.0</ele><time>2026-04-12T08:13:13.937Z</time></trkpt><trkpt lat="43.6040441" lon="6.7725628"><ele>181.0</ele><time>2026-04-12T08:13:14.887Z</time></trkpt><trkpt lat="43.6039972" lon="6.7726851"><ele>181.0</ele><time>2026-04-12T08:13:15.948Z</time></trkpt><trkpt lat="43.6039555" lon="6.7728088"><ele>181.0</ele><time>2026-04-12T08:13:16.929Z</time></trkpt><trkpt lat="43.6039115" lon="6.7729274"><ele>181.0</ele><time>2026-04-12T08:13:17.939Z</time></trkpt><trkpt lat="43.6038657" lon="6.7730527"><ele>181.20000000000002</ele><time>2026-04-12T08:13:18.917Z</time></trkpt><trkpt lat="43.6038217" lon="6.7731786"><ele>181.4</ele><time>2026-04-12T08:13:19.901Z</time></trkpt><trkpt lat="43.6037779" lon="6.7732973"><ele>181.6</ele><time>2026-04-12T08:13:20.946Z</time></trkpt><trkpt lat="43.6037364" lon="6.7734203"><ele>181.8</ele><time>2026-04-12T08:13:21.937Z</time></trkpt><trkpt lat="43.6036944" lon="6.7735424"><ele>182.0</ele><time>2026-04-12T08:13:22.945Z</time></trkpt><trkpt lat="43.6036502" lon="6.7736692"><ele>182.2</ele><time>2026-04-12T08:13:23.922Z</time></trkpt><trkpt lat="43.6036099" lon="6.7737853"><ele>182.39999999999998</ele><time>2026-04-12T08:13:24.939Z</time></trkpt><trkpt lat="43.6035691" lon="6.7739121"><ele>182.60000000000002</ele><time>2026-04-12T08:13:25.947Z</time></trkpt><trkpt lat="43.6035248" lon="6.774036"><ele>182.8</ele><time>2026-04-12T08:13:26.933Z</time></trkpt><trkpt lat="43.6034838" lon="6.7741593"><ele>183.0</ele><time>2026-04-12T08:13:27.938Z</time></trkpt><trkpt lat="43.6034446" lon="6.77428"><ele>183.2</ele><time>2026-04-12T08:13:28.937Z</time></trkpt><trkpt lat="43.6034005" lon="6.7743993"><ele>183.4</ele><time>2026-04-12T08:13:29.91Z</time></trkpt><trkpt lat="43.6033611" lon="6.774521"><ele>183.6</ele><time>2026-04-12T08:13:30.913Z</time></trkpt><trkpt lat="43.6033166" lon="6.7746439"><ele>183.79999999999998</ele><time>2026-04-12T08:13:31.931Z</time></trkpt><trkpt lat="43.6032724" lon="6.7747646"><ele>184.0</ele><time>2026-04-12T08:13:32.943Z</time></trkpt><trkpt lat="43.6032278" lon="6.7748849"><ele>184.0</ele><time>2026-04-12T08:13:33.945Z</time></trkpt><trkpt lat="43.6031833" lon="6.7750057"><ele>184.0</ele><time>2026-04-12T08:13:34.922Z</time></trkpt><trkpt lat="43.6031348" lon="6.7751245"><ele>184.0</ele><time>2026-04-12T08:13:35.947Z</time></trkpt><trkpt lat="43.6030882" lon="6.7752481"><ele>184.0</ele><time>2026-04-12T08:13:36.951Z</time></trkpt><trkpt lat="43.6030433" lon="6.7753756"><ele>184.0</ele><time>2026-04-12T08:13:37.938Z</time></trkpt><trkpt lat="43.6029965" lon="6.7754995"><ele>183.79999999999998</ele><time>2026-04-12T08:13:38.94Z</time></trkpt><trkpt lat="43.6029517" lon="6.7756217"><ele>183.6</ele><time>2026-04-12T08:13:39.939Z</time></trkpt><trkpt lat="43.6029083" lon="6.7757468"><ele>183.4</ele><time>2026-04-12T08:13:40.929Z</time></trkpt><trkpt lat="43.6028682" lon="6.7758745"><ele>183.2</ele><time>2026-04-12T08:13:41.927Z</time></trkpt><trkpt lat="43.6028249" lon="6.7759952"><ele>183.0</ele><time>2026-04-12T08:13:42.96Z</time></trkpt><trkpt lat="43.6027796" lon="6.7761163"><ele>183.0</ele><time>2026-04-12T08:13:43.935Z</time></trkpt><trkpt lat="43.6027354" lon="6.7762407"><ele>183.0</ele><time>2026-04-12T08:13:44.928Z</time></trkpt><trkpt lat="43.6026953" lon="6.776366"><ele>183.0</ele><time>2026-04-12T08:13:45.916Z</time></trkpt><trkpt lat="43.6026484" lon="6.7764976"><ele>183.0</ele><time>2026-04-12T08:13:46.921Z</time></trkpt><trkpt lat="43.6026049" lon="6.776635"><ele>183.0</ele><time>2026-04-12T08:13:47.94Z</time></trkpt><trkpt lat="43.6025582" lon="6.7767682"><ele>183.0</ele><time>2026-04-12T08:13:48.946Z</time></trkpt><trkpt lat="43.6025132" lon="6.7768997"><ele>183.0</ele><time>2026-04-12T08:13:49.957Z</time></trkpt><trkpt lat="43.6024695" lon="6.7770374"><ele>183.0</ele><time>2026-04-12T08:13:50.931Z</time></trkpt><trkpt lat="43.6024212" lon="6.7771757"><ele>183.0</ele><time>2026-04-12T08:13:51.955Z</time></trkpt><trkpt lat="43.6023687" lon="6.7773161"><ele>183.0</ele><time>2026-04-12T08:13:52.919Z</time></trkpt><trkpt lat="43.6023183" lon="6.7774515"><ele>183.0</ele><time>2026-04-12T08:13:53.932Z</time></trkpt><trkpt lat="43.6022726" lon="6.7775835"><ele>183.0</ele><time>2026-04-12T08:13:54.92Z</time></trkpt><trkpt lat="43.6022225" lon="6.7777118"><ele>183.0</ele><time>2026-04-12T08:13:55.946Z</time></trkpt><trkpt lat="43.6021771" lon="6.7778419"><ele>183.0</ele><time>2026-04-12T08:13:56.918Z</time></trkpt><trkpt lat="43.6021303" lon="6.77797"><ele>183.0</ele><time>2026-04-12T08:13:57.939Z</time></trkpt><trkpt lat="43.6020826" lon="6.7780924"><ele>182.8</ele><time>2026-04-12T08:13:58.929Z</time></trkpt><trkpt lat="43.6020237" lon="6.7781992"><ele>182.60000000000002</ele><time>2026-04-12T08:13:59.924Z</time></trkpt><trkpt lat="43.6019556" lon="6.7782902"><ele>182.39999999999998</ele><time>2026-04-12T08:14:00.934Z</time></trkpt><trkpt lat="43.6018774" lon="6.7783741"><ele>182.2</ele><time>2026-04-12T08:14:01.923Z</time></trkpt><trkpt lat="43.601823" lon="6.7784873"><ele>182.0</ele><time>2026-04-12T08:14:02.943Z</time></trkpt><trkpt lat="43.6017989" lon="6.7786219"><ele>182.6</ele><time>2026-04-12T08:14:03.94Z</time></trkpt><trkpt lat="43.6017915" lon="6.7787527"><ele>183.2</ele><time>2026-04-12T08:14:04.928Z</time></trkpt><trkpt lat="43.6017808" lon="6.7788862"><ele>183.8</ele><time>2026-04-12T08:14:05.935Z</time></trkpt><trkpt lat="43.6017491" lon="6.7790165"><ele>184.4</ele><time>2026-04-12T08:14:06.917Z</time></trkpt><trkpt lat="43.6017053" lon="6.7791524"><ele>185.0</ele><time>2026-04-12T08:14:07.941Z</time></trkpt><trkpt lat="43.6016629" lon="6.779282"><ele>185.6</ele><time>2026-04-12T08:14:08.947Z</time></trkpt><trkpt lat="43.6016127" lon="6.7794084"><ele>186.2</ele><time>2026-04-12T08:14:09.94Z</time></trkpt><trkpt lat="43.6015601" lon="6.779531"><ele>186.8</ele><time>2026-04-12T08:14:10.927Z</time></trkpt><trkpt lat="43.6015129" lon="6.7796522"><ele>187.4</ele><time>2026-04-12T08:14:11.915Z</time></trkpt><trkpt lat="43.6014695" lon="6.7797755"><ele>188.0</ele><time>2026-04-12T08:14:12.937Z</time></trkpt><trkpt lat="43.6014225" lon="6.7798973"><ele>188.0</ele><time>2026-04-12T08:14:13.924Z</time></trkpt><trkpt lat="43.6013801" lon="6.7800247"><ele>188.0</ele><time>2026-04-12T08:14:14.941Z</time></trkpt><trkpt lat="43.601336" lon="6.7801502"><ele>188.0</ele><time>2026-04-12T08:14:15.92Z</time></trkpt><trkpt lat="43.6012899" lon="6.7802623"><ele>188.0</ele><time>2026-04-12T08:14:16.94Z</time></trkpt><trkpt lat="43.6012449" lon="6.7803754"><ele>188.0</ele><time>2026-04-12T08:14:17.939Z</time></trkpt><trkpt lat="43.6011994" lon="6.7804904"><ele>187.8</ele><time>2026-04-12T08:14:18.931Z</time></trkpt><trkpt lat="43.6011565" lon="6.780608"><ele>187.60000000000002</ele><time>2026-04-12T08:14:19.915Z</time></trkpt><trkpt lat="43.6011113" lon="6.7807308"><ele>187.39999999999998</ele><time>2026-04-12T08:14:20.902Z</time></trkpt><trkpt lat="43.6010623" lon="6.7808567"><ele>187.2</ele><time>2026-04-12T08:14:21.94Z</time></trkpt><trkpt lat="43.6010131" lon="6.7809775"><ele>187.0</ele><time>2026-04-12T08:14:22.945Z</time></trkpt><trkpt lat="43.6009628" lon="6.7811001"><ele>187.8</ele><time>2026-04-12T08:14:23.926Z</time></trkpt><trkpt lat="43.600916" lon="6.7812202"><ele>188.6</ele><time>2026-04-12T08:14:24.941Z</time></trkpt><trkpt lat="43.6008708" lon="6.7813386"><ele>189.4</ele><time>2026-04-12T08:14:25.952Z</time></trkpt><trkpt lat="43.6008246" lon="6.7814489"><ele>190.20000000000002</ele><time>2026-04-12T08:14:26.953Z</time></trkpt><trkpt lat="43.6007809" lon="6.781556"><ele>191.0</ele><time>2026-04-12T08:14:27.919Z</time></trkpt><trkpt lat="43.6007413" lon="6.7816613"><ele>191.0</ele><time>2026-04-12T08:14:28.931Z</time></trkpt><trkpt lat="43.6007003" lon="6.7817669"><ele>191.0</ele><time>2026-04-12T08:14:29.935Z</time></trkpt><trkpt lat="43.6006628" lon="6.7818617"><ele>191.0</ele><time>2026-04-12T08:14:30.936Z</time></trkpt><trkpt lat="43.6006236" lon="6.7819572"><ele>191.0</ele><time>2026-04-12T08:14:31.94Z</time></trkpt><trkpt lat="43.6005905" lon="6.7820503"><ele>191.0</ele><time>2026-04-12T08:14:32.925Z</time></trkpt><trkpt lat="43.600558" lon="6.7821435"><ele>191.0</ele><time>2026-04-12T08:14:33.959Z</time></trkpt><trkpt lat="43.6005235" lon="6.7822418"><ele>191.14285714285714</ele><time>2026-04-12T08:14:34.94Z</time></trkpt><trkpt lat="43.6004929" lon="6.7823376"><ele>191.28571428571428</ele><time>2026-04-12T08:14:35.94Z</time></trkpt><trkpt lat="43.6004566" lon="6.7824342"><ele>191.42857142857142</ele><time>2026-04-12T08:14:36.931Z</time></trkpt><trkpt lat="43.6004231" lon="6.7825257"><ele>191.57142857142856</ele><time>2026-04-12T08:14:37.936Z</time></trkpt><trkpt lat="43.6003906" lon="6.7826143"><ele>191.71428571428572</ele><time>2026-04-12T08:14:38.938Z</time></trkpt><trkpt lat="43.6003579" lon="6.7827055"><ele>191.85714285714283</ele><time>2026-04-12T08:14:39.939Z</time></trkpt><trkpt lat="43.6003243" lon="6.7827956"><ele>192.0</ele><time>2026-04-12T08:14:40.95Z</time></trkpt><trkpt lat="43.6002917" lon="6.7828841"><ele>192.14285714285714</ele><time>2026-04-12T08:14:41.922Z</time></trkpt><trkpt lat="43.6002572" lon="6.7829707"><ele>192.28571428571428</ele><time>2026-04-12T08:14:42.943Z</time></trkpt><trkpt lat="43.6002235" lon="6.7830569"><ele>192.42857142857144</ele><time>2026-04-12T08:14:43.911Z</time></trkpt><trkpt lat="43.6001901" lon="6.7831426"><ele>192.57142857142856</ele><time>2026-04-12T08:14:44.92Z</time></trkpt><trkpt lat="43.6001561" lon="6.7832312"><ele>192.71428571428572</ele><time>2026-04-12T08:14:45.885Z</time></trkpt><trkpt lat="43.6001213" lon="6.7833173"><ele>192.85714285714286</ele><time>2026-04-12T08:14:46.901Z</time></trkpt><trkpt lat="43.6000897" lon="6.7834046"><ele>193.0</ele><time>2026-04-12T08:14:47.933Z</time></trkpt><trkpt lat="43.6000594" lon="6.7834871"><ele>193.42857142857144</ele><time>2026-04-12T08:14:48.927Z</time></trkpt><trkpt lat="43.6000296" lon="6.7835697"><ele>193.85714285714286</ele><time>2026-04-12T08:14:49.94Z</time></trkpt><trkpt lat="43.5999986" lon="6.7836501"><ele>194.28571428571428</ele><time>2026-04-12T08:14:50.95Z</time></trkpt><trkpt lat="43.5999716" lon="6.7837294"><ele>194.71428571428572</ele><time>2026-04-12T08:14:51.883Z</time></trkpt><trkpt lat="43.5999431" lon="6.783808"><ele>195.14285714285714</ele><time>2026-04-12T08:14:52.953Z</time></trkpt><trkpt lat="43.5999149" lon="6.7838858"><ele>195.57142857142858</ele><time>2026-04-12T08:14:53.916Z</time></trkpt><trkpt lat="43.5998649" lon="6.7840335"><ele>196.0</ele><time>2026-04-12T08:14:55.882Z</time></trkpt><trkpt lat="43.599797" lon="6.7841933"><ele>196.0</ele><time>2026-04-12T08:14:57.9Z</time></trkpt><trkpt lat="43.5997486" lon="6.7842538"><ele>196.0</ele><time>2026-04-12T08:14:58.9Z</time></trkpt><trkpt lat="43.5997038" lon="6.7844022"><ele>196.0</ele><time>2026-04-12T08:15:00.884Z</time></trkpt><trkpt lat="43.5996627" lon="6.7845323"><ele>196.0</ele><time>2026-04-12T08:15:02.907Z</time></trkpt><trkpt lat="43.5996119" lon="6.7846619"><ele>196.0</ele><time>2026-04-12T08:15:04.912Z</time></trkpt><trkpt lat="43.5995677" lon="6.7847887"><ele>196.20000000000002</ele><time>2026-04-12T08:15:06.886Z</time></trkpt><trkpt lat="43.5995143" lon="6.7849055"><ele>196.4</ele><time>2026-04-12T08:15:08.938Z</time></trkpt><trkpt lat="43.5994722" lon="6.7850269"><ele>196.6</ele><time>2026-04-12T08:15:10.949Z</time></trkpt><trkpt lat="43.5994232" lon="6.7851547"><ele>196.8</ele><time>2026-04-12T08:15:12.952Z</time></trkpt><trkpt lat="43.5993734" lon="6.7852613"><ele>197.0</ele><time>2026-04-12T08:15:14.949Z</time></trkpt><trkpt lat="43.5993286" lon="6.7853804"><ele>197.6</ele><time>2026-04-12T08:15:16.939Z</time></trkpt><trkpt lat="43.5992725" lon="6.7855001"><ele>198.2</ele><time>2026-04-12T08:15:18.912Z</time></trkpt><trkpt lat="43.5991986" lon="6.7855965"><ele>198.8</ele><time>2026-04-12T08:15:20.89Z</time></trkpt><trkpt lat="43.5991391" lon="6.7856312"><ele>199.4</ele><time>2026-04-12T08:15:21.887Z</time></trkpt><trkpt lat="43.5990251" lon="6.785693"><ele>200.0</ele><time>2026-04-12T08:15:23.886Z</time></trkpt><trkpt lat="43.598971" lon="6.7857438"><ele>200.00000000000003</ele><time>2026-04-12T08:15:24.91Z</time></trkpt><trkpt lat="43.5989194" lon="6.7858013"><ele>200.0</ele><time>2026-04-12T08:15:25.906Z</time></trkpt><trkpt lat="43.5988699" lon="6.7858626"><ele>200.0</ele><time>2026-04-12T08:15:26.879Z</time></trkpt><trkpt lat="43.5988178" lon="6.7859123"><ele>200.0</ele><time>2026-04-12T08:15:27.89Z</time></trkpt><trkpt lat="43.5986937" lon="6.7859567"><ele>200.00000000000003</ele><time>2026-04-12T08:15:29.884Z</time></trkpt><trkpt lat="43.5986236" lon="6.7859601"><ele>200.0</ele><time>2026-04-12T08:15:30.879Z</time></trkpt><trkpt lat="43.5985563" lon="6.7859586"><ele>200.00000000000003</ele><time>2026-04-12T08:15:31.885Z</time></trkpt><trkpt lat="43.598482" lon="6.7859601"><ele>200.0</ele><time>2026-04-12T08:15:32.884Z</time></trkpt><trkpt lat="43.5984086" lon="6.7859634"><ele>200.0</ele><time>2026-04-12T08:15:33.886Z</time></trkpt><trkpt lat="43.598332" lon="6.7859669"><ele>200.0</ele><time>2026-04-12T08:15:34.887Z</time></trkpt><trkpt lat="43.5982476" lon="6.7859786"><ele>200.00000000000003</ele><time>2026-04-12T08:15:35.878Z</time></trkpt><trkpt lat="43.5981632" lon="6.7860048"><ele>200.0</ele><time>2026-04-12T08:15:36.881Z</time></trkpt><trkpt lat="43.5980743" lon="6.7860348"><ele>201.4</ele><time>2026-04-12T08:15:37.884Z</time></trkpt><trkpt lat="43.5979875" lon="6.7860701"><ele>202.8</ele><time>2026-04-12T08:15:38.88Z</time></trkpt><trkpt lat="43.5979054" lon="6.7861171"><ele>204.2</ele><time>2026-04-12T08:15:39.897Z</time></trkpt><trkpt lat="43.5978213" lon="6.7861663"><ele>205.6</ele><time>2026-04-12T08:15:40.923Z</time></trkpt><trkpt lat="43.5977396" lon="6.7862221"><ele>207.0</ele><time>2026-04-12T08:15:41.952Z</time></trkpt><trkpt lat="43.5976597" lon="6.7862822"><ele>207.0</ele><time>2026-04-12T08:15:42.913Z</time></trkpt><trkpt lat="43.5975826" lon="6.7863433"><ele>207.0</ele><time>2026-04-12T08:15:43.929Z</time></trkpt><trkpt lat="43.5975119" lon="6.7864042"><ele>207.0</ele><time>2026-04-12T08:15:44.93Z</time></trkpt><trkpt lat="43.5974413" lon="6.7864789"><ele>207.0</ele><time>2026-04-12T08:15:45.931Z</time></trkpt><trkpt lat="43.5973747" lon="6.7865537"><ele>207.0</ele><time>2026-04-12T08:15:46.94Z</time></trkpt><trkpt lat="43.5973139" lon="6.7866309"><ele>207.0</ele><time>2026-04-12T08:15:47.908Z</time></trkpt><trkpt lat="43.5972492" lon="6.7867047"><ele>207.0</ele><time>2026-04-12T08:15:48.942Z</time></trkpt><trkpt lat="43.5971832" lon="6.7867779"><ele>207.0</ele><time>2026-04-12T08:15:49.946Z</time></trkpt><trkpt lat="43.5971171" lon="6.7868516"><ele>207.0</ele><time>2026-04-12T08:15:50.924Z</time></trkpt><trkpt lat="43.5970513" lon="6.7869297"><ele>207.0</ele><time>2026-04-12T08:15:51.93Z</time></trkpt><trkpt lat="43.5969839" lon="6.7870027"><ele>207.0</ele><time>2026-04-12T08:15:52.906Z</time></trkpt><trkpt lat="43.5969149" lon="6.7870758"><ele>207.0</ele><time>2026-04-12T08:15:53.934Z</time></trkpt><trkpt lat="43.5968511" lon="6.7871432"><ele>207.16666666666666</ele><time>2026-04-12T08:15:54.927Z</time></trkpt><trkpt lat="43.596791" lon="6.7872122"><ele>207.33333333333331</ele><time>2026-04-12T08:15:55.938Z</time></trkpt><trkpt lat="43.5967339" lon="6.7872839"><ele>207.5</ele><time>2026-04-12T08:15:56.919Z</time></trkpt><trkpt lat="43.5966742" lon="6.7873531"><ele>207.66666666666666</ele><time>2026-04-12T08:15:57.955Z</time></trkpt><trkpt lat="43.5966172" lon="6.7874242"><ele>207.83333333333331</ele><time>2026-04-12T08:15:58.942Z</time></trkpt><trkpt lat="43.5965594" lon="6.7874951"><ele>208.0</ele><time>2026-04-12T08:15:59.902Z</time></trkpt><trkpt lat="43.5965029" lon="6.7875678"><ele>207.99999999999997</ele><time>2026-04-12T08:16:00.947Z</time></trkpt><trkpt lat="43.5964438" lon="6.7876352"><ele>208.0</ele><time>2026-04-12T08:16:01.9Z</time></trkpt><trkpt lat="43.5963833" lon="6.7877029"><ele>208.0</ele><time>2026-04-12T08:16:02.911Z</time></trkpt><trkpt lat="43.5963239" lon="6.7877661"><ele>208.0</ele><time>2026-04-12T08:16:03.878Z</time></trkpt><trkpt lat="43.5962585" lon="6.7878292"><ele>207.99999999999997</ele><time>2026-04-12T08:16:04.935Z</time></trkpt><trkpt lat="43.5961939" lon="6.7878911"><ele>208.0</ele><time>2026-04-12T08:16:05.943Z</time></trkpt><trkpt lat="43.5961278" lon="6.787942"><ele>208.49999999999997</ele><time>2026-04-12T08:16:06.933Z</time></trkpt><trkpt lat="43.5960611" lon="6.7879932"><ele>209.0</ele><time>2026-04-12T08:16:07.916Z</time></trkpt><trkpt lat="43.5959946" lon="6.7880564"><ele>209.5</ele><time>2026-04-12T08:16:08.918Z</time></trkpt><trkpt lat="43.5959305" lon="6.788122"><ele>210.0</ele><time>2026-04-12T08:16:09.933Z</time></trkpt><trkpt lat="43.5958712" lon="6.7882041"><ele>210.49999999999997</ele><time>2026-04-12T08:16:10.944Z</time></trkpt><trkpt lat="43.5958285" lon="6.7883077"><ele>211.0</ele><time>2026-04-12T08:16:11.927Z</time></trkpt><trkpt lat="43.5958029" lon="6.7884241"><ele>211.20000000000002</ele><time>2026-04-12T08:16:12.915Z</time></trkpt><trkpt lat="43.5957834" lon="6.7885464"><ele>211.4</ele><time>2026-04-12T08:16:13.937Z</time></trkpt><trkpt lat="43.5957503" lon="6.7886656"><ele>211.6</ele><time>2026-04-12T08:16:14.892Z</time></trkpt><trkpt lat="43.5956849" lon="6.7887527"><ele>211.8</ele><time>2026-04-12T08:16:15.882Z</time></trkpt><trkpt lat="43.5955969" lon="6.7888056"><ele>212.0</ele><time>2026-04-12T08:16:16.929Z</time></trkpt><trkpt lat="43.5954964" lon="6.7888288"><ele>212.0</ele><time>2026-04-12T08:16:17.885Z</time></trkpt><trkpt lat="43.5953734" lon="6.7888449"><ele>212.0</ele><time>2026-04-12T08:16:18.927Z</time></trkpt><trkpt lat="43.5952551" lon="6.7888732"><ele>212.0</ele><time>2026-04-12T08:16:19.93Z</time></trkpt><trkpt lat="43.5951303" lon="6.7889133"><ele>212.0</ele><time>2026-04-12T08:16:20.915Z</time></trkpt><trkpt lat="43.5950098" lon="6.7889663"><ele>209.75</ele><time>2026-04-12T08:16:21.924Z</time></trkpt><trkpt lat="43.5948817" lon="6.789018"><ele>207.5</ele><time>2026-04-12T08:16:22.925Z</time></trkpt><trkpt lat="43.5947512" lon="6.7890638"><ele>205.25</ele><time>2026-04-12T08:16:23.929Z</time></trkpt><trkpt lat="43.5946177" lon="6.7891112"><ele>203.0</ele><time>2026-04-12T08:16:24.952Z</time></trkpt><trkpt lat="43.594483" lon="6.7891634"><ele>202.5</ele><time>2026-04-12T08:16:25.923Z</time></trkpt><trkpt lat="43.5943455" lon="6.7892228"><ele>202.0</ele><time>2026-04-12T08:16:26.932Z</time></trkpt><trkpt lat="43.5942128" lon="6.7892961"><ele>201.5</ele><time>2026-04-12T08:16:27.938Z</time></trkpt><trkpt lat="43.594079" lon="6.789374"><ele>201.0</ele><time>2026-04-12T08:16:28.91Z</time></trkpt><trkpt lat="43.5939467" lon="6.7894556"><ele>198.0</ele><time>2026-04-12T08:16:29.932Z</time></trkpt><trkpt lat="43.5937998" lon="6.7895199"><ele>195.0</ele><time>2026-04-12T08:16:30.915Z</time></trkpt><trkpt lat="43.5936537" lon="6.7895503"><ele>192.0</ele><time>2026-04-12T08:16:31.931Z</time></trkpt><trkpt lat="43.5934974" lon="6.7895509"><ele>191.0</ele><time>2026-04-12T08:16:32.935Z</time></trkpt><trkpt lat="43.593347" lon="6.7895413"><ele>190.0</ele><time>2026-04-12T08:16:33.935Z</time></trkpt><trkpt lat="43.5931919" lon="6.7895313"><ele>189.0</ele><time>2026-04-12T08:16:34.92Z</time></trkpt><trkpt lat="43.5930344" lon="6.7895403"><ele>189.0</ele><time>2026-04-12T08:16:35.908Z</time></trkpt><trkpt lat="43.592875" lon="6.789553"><ele>189.0</ele><time>2026-04-12T08:16:36.939Z</time></trkpt><trkpt lat="43.5927144" lon="6.7895433"><ele>189.0</ele><time>2026-04-12T08:16:37.923Z</time></trkpt><trkpt lat="43.5925617" lon="6.7894922"><ele>189.66666666666666</ele><time>2026-04-12T08:16:38.908Z</time></trkpt><trkpt lat="43.5924205" lon="6.7893982"><ele>190.33333333333331</ele><time>2026-04-12T08:16:39.944Z</time></trkpt><trkpt lat="43.5922817" lon="6.789289"><ele>191.0</ele><time>2026-04-12T08:16:40.92Z</time></trkpt><trkpt lat="43.5921362" lon="6.7892023"><ele>189.66666666666666</ele><time>2026-04-12T08:16:41.949Z</time></trkpt><trkpt lat="43.5919792" lon="6.7891514"><ele>188.33333333333334</ele><time>2026-04-12T08:16:42.923Z</time></trkpt><trkpt lat="43.5918157" lon="6.789132"><ele>187.0</ele><time>2026-04-12T08:16:43.939Z</time></trkpt><trkpt lat="43.5916492" lon="6.789132"><ele>187.0</ele><time>2026-04-12T08:16:44.945Z</time></trkpt><trkpt lat="43.5914825" lon="6.789154"><ele>187.0</ele><time>2026-04-12T08:16:45.938Z</time></trkpt><trkpt lat="43.5913207" lon="6.78921"><ele>187.0</ele><time>2026-04-12T08:16:46.923Z</time></trkpt><trkpt lat="43.5911665" lon="6.7892892"><ele>185.0</ele><time>2026-04-12T08:16:47.919Z</time></trkpt><trkpt lat="43.591014" lon="6.7893659"><ele>183.0</ele><time>2026-04-12T08:16:48.935Z</time></trkpt><trkpt lat="43.5908531" lon="6.789426"><ele>181.0</ele><time>2026-04-12T08:16:49.929Z</time></trkpt><trkpt lat="43.5906888" lon="6.789463"><ele>181.0</ele><time>2026-04-12T08:16:50.916Z</time></trkpt><trkpt lat="43.590523" lon="6.7894781"><ele>181.0</ele><time>2026-04-12T08:16:51.928Z</time></trkpt><trkpt lat="43.590357" lon="6.7894777"><ele>181.0</ele><time>2026-04-12T08:16:52.935Z</time></trkpt><trkpt lat="43.5901908" lon="6.7894737"><ele>179.66666666666669</ele><time>2026-04-12T08:16:53.942Z</time></trkpt><trkpt lat="43.5900214" lon="6.7894874"><ele>178.33333333333334</ele><time>2026-04-12T08:16:54.895Z</time></trkpt><trkpt lat="43.5898528" lon="6.7895244"><ele>177.0</ele><time>2026-04-12T08:16:55.933Z</time></trkpt><trkpt lat="43.5896916" lon="6.7895902"><ele>177.0</ele><time>2026-04-12T08:16:56.92Z</time></trkpt><trkpt lat="43.5895318" lon="6.789683"><ele>177.0</ele><time>2026-04-12T08:16:57.95Z</time></trkpt><trkpt lat="43.589385" lon="6.7897884"><ele>177.0</ele><time>2026-04-12T08:16:58.919Z</time></trkpt><trkpt lat="43.5892409" lon="6.7899075"><ele>178.33333333333334</ele><time>2026-04-12T08:16:59.887Z</time></trkpt><trkpt lat="43.5891088" lon="6.7900306"><ele>179.66666666666669</ele><time>2026-04-12T08:17:00.931Z</time></trkpt><trkpt lat="43.5889821" lon="6.7901594"><ele>181.0</ele><time>2026-04-12T08:17:01.9Z</time></trkpt><trkpt lat="43.5888562" lon="6.7902756"><ele>181.0</ele><time>2026-04-12T08:17:02.94Z</time></trkpt><trkpt lat="43.5887295" lon="6.7903874"><ele>181.0</ele><time>2026-04-12T08:17:03.928Z</time></trkpt><trkpt lat="43.5886057" lon="6.790464"><ele>181.0</ele><time>2026-04-12T08:17:04.919Z</time></trkpt><trkpt lat="43.5884789" lon="6.7905113"><ele>181.0</ele><time>2026-04-12T08:17:05.904Z</time></trkpt><trkpt lat="43.5883536" lon="6.7905352"><ele>178.75</ele><time>2026-04-12T08:17:06.941Z</time></trkpt><trkpt lat="43.5882375" lon="6.7905638"><ele>176.5</ele><time>2026-04-12T08:17:07.914Z</time></trkpt><trkpt lat="43.5881267" lon="6.7906236"><ele>174.25</ele><time>2026-04-12T08:17:08.929Z</time></trkpt><trkpt lat="43.5880293" lon="6.7907105"><ele>172.0</ele><time>2026-04-12T08:17:09.905Z</time></trkpt><trkpt lat="43.5879485" lon="6.790822"><ele>172.0</ele><time>2026-04-12T08:17:10.926Z</time></trkpt><trkpt lat="43.5878959" lon="6.7909522"><ele>172.0</ele><time>2026-04-12T08:17:11.889Z</time></trkpt><trkpt lat="43.5878661" lon="6.7910863"><ele>172.0</ele><time>2026-04-12T08:17:12.931Z</time></trkpt><trkpt lat="43.5878572" lon="6.791221"><ele>172.0</ele><time>2026-04-12T08:17:13.94Z</time></trkpt><trkpt lat="43.5878635" lon="6.7913613"><ele>172.0</ele><time>2026-04-12T08:17:14.924Z</time></trkpt><trkpt lat="43.5878794" lon="6.7914837"><ele>173.00000000000003</ele><time>2026-04-12T08:17:15.93Z</time></trkpt><trkpt lat="43.5878976" lon="6.7915955"><ele>174.0</ele><time>2026-04-12T08:17:16.95Z</time></trkpt><trkpt lat="43.5879145" lon="6.7916962"><ele>175.0</ele><time>2026-04-12T08:17:17.941Z</time></trkpt><trkpt lat="43.587921" lon="6.791785"><ele>176.0</ele><time>2026-04-12T08:17:18.942Z</time></trkpt><trkpt lat="43.5879251" lon="6.7918759"><ele>177.0</ele><time>2026-04-12T08:17:19.92Z</time></trkpt><trkpt lat="43.58791" lon="6.791967"><ele>178.00000000000003</ele><time>2026-04-12T08:17:20.934Z</time></trkpt><trkpt lat="43.5878883" lon="6.7920568"><ele>179.0</ele><time>2026-04-12T08:17:21.891Z</time></trkpt><trkpt lat="43.5878544" lon="6.7921426"><ele>179.2857142857143</ele><time>2026-04-12T08:17:22.95Z</time></trkpt><trkpt lat="43.5878093" lon="6.7922156"><ele>179.57142857142858</ele><time>2026-04-12T08:17:23.936Z</time></trkpt><trkpt lat="43.5877584" lon="6.7922814"><ele>179.85714285714286</ele><time>2026-04-12T08:17:24.915Z</time></trkpt><trkpt lat="43.587702" lon="6.7923282"><ele>180.14285714285717</ele><time>2026-04-12T08:17:25.944Z</time></trkpt><trkpt lat="43.5876396" lon="6.7923608"><ele>180.42857142857142</ele><time>2026-04-12T08:17:26.947Z</time></trkpt><trkpt lat="43.5875727" lon="6.7923825"><ele>180.71428571428572</ele><time>2026-04-12T08:17:27.927Z</time></trkpt><trkpt lat="43.5875082" lon="6.792395"><ele>181.0</ele><time>2026-04-12T08:17:28.924Z</time></trkpt><trkpt lat="43.5873881" lon="6.7923902"><ele>181.0</ele><time>2026-04-12T08:17:30.94Z</time></trkpt><trkpt lat="43.5872736" lon="6.7923702"><ele>181.0</ele><time>2026-04-12T08:17:32.923Z</time></trkpt><trkpt lat="43.5871671" lon="6.7923489"><ele>181.0</ele><time>2026-04-12T08:17:34.945Z</time></trkpt><trkpt lat="43.5870506" lon="6.7923306"><ele>181.0</ele><time>2026-04-12T08:17:36.934Z</time></trkpt><trkpt lat="43.586936" lon="6.7923441"><ele>181.5</ele><time>2026-04-12T08:17:38.924Z</time></trkpt><trkpt lat="43.5868291" lon="6.7924073"><ele>182.0</ele><time>2026-04-12T08:17:40.903Z</time></trkpt><trkpt lat="43.5867313" lon="6.7924988"><ele>182.5</ele><time>2026-04-12T08:17:42.928Z</time></trkpt><trkpt lat="43.5866574" lon="6.7926173"><ele>183.0</ele><time>2026-04-12T08:17:44.929Z</time></trkpt><trkpt lat="43.5866032" lon="6.7927605"><ele>183.0</ele><time>2026-04-12T08:17:46.926Z</time></trkpt><trkpt lat="43.5865836" lon="6.792847"><ele>183.0</ele><time>2026-04-12T08:17:47.941Z</time></trkpt><trkpt lat="43.5865721" lon="6.7929389"><ele>183.0</ele><time>2026-04-12T08:17:48.915Z</time></trkpt><trkpt lat="43.5865704" lon="6.7930334"><ele>183.0</ele><time>2026-04-12T08:17:49.95Z</time></trkpt><trkpt lat="43.5865729" lon="6.7931331"><ele>183.0</ele><time>2026-04-12T08:17:50.937Z</time></trkpt><trkpt lat="43.5865819" lon="6.7932286"><ele>183.0</ele><time>2026-04-12T08:17:51.941Z</time></trkpt><trkpt lat="43.5865932" lon="6.7933226"><ele>183.0</ele><time>2026-04-12T08:17:52.941Z</time></trkpt><trkpt lat="43.5866051" lon="6.7934235"><ele>184.33333333333334</ele><time>2026-04-12T08:17:53.95Z</time></trkpt><trkpt lat="43.5866111" lon="6.7935282"><ele>185.66666666666666</ele><time>2026-04-12T08:17:54.933Z</time></trkpt><trkpt lat="43.5866151" lon="6.7936362"><ele>187.0</ele><time>2026-04-12T08:17:55.931Z</time></trkpt><trkpt lat="43.5866088" lon="6.7937407"><ele>188.33333333333331</ele><time>2026-04-12T08:17:56.939Z</time></trkpt><trkpt lat="43.5865968" lon="6.7938424"><ele>189.66666666666666</ele><time>2026-04-12T08:17:57.934Z</time></trkpt><trkpt lat="43.5865767" lon="6.79394"><ele>191.0</ele><time>2026-04-12T08:17:58.919Z</time></trkpt><trkpt lat="43.5865461" lon="6.7940297"><ele>191.0</ele><time>2026-04-12T08:17:59.885Z</time></trkpt><trkpt lat="43.5865043" lon="6.7941229"><ele>191.0</ele><time>2026-04-12T08:18:00.921Z</time></trkpt><trkpt lat="43.5864497" lon="6.7942055"><ele>191.0</ele><time>2026-04-12T08:18:01.947Z</time></trkpt><trkpt lat="43.586385" lon="6.7942818"><ele>191.0</ele><time>2026-04-12T08:18:02.919Z</time></trkpt><trkpt lat="43.5863124" lon="6.7943405"><ele>191.0</ele><time>2026-04-12T08:18:03.936Z</time></trkpt><trkpt lat="43.5862318" lon="6.7943897"><ele>191.0</ele><time>2026-04-12T08:18:04.933Z</time></trkpt><trkpt lat="43.5861496" lon="6.7944338"><ele>190.20000000000002</ele><time>2026-04-12T08:18:05.946Z</time></trkpt><trkpt lat="43.5860654" lon="6.7944796"><ele>189.4</ele><time>2026-04-12T08:18:06.936Z</time></trkpt><trkpt lat="43.5859856" lon="6.7945316"><ele>188.6</ele><time>2026-04-12T08:18:07.931Z</time></trkpt><trkpt lat="43.5859095" lon="6.7945964"><ele>187.8</ele><time>2026-04-12T08:18:08.926Z</time></trkpt><trkpt lat="43.5858366" lon="6.7946802"><ele>187.0</ele><time>2026-04-12T08:18:09.946Z</time></trkpt><trkpt lat="43.5857669" lon="6.7947709"><ele>187.0</ele><time>2026-04-12T08:18:10.932Z</time></trkpt><trkpt lat="43.5856999" lon="6.7948705"><ele>187.0</ele><time>2026-04-12T08:18:11.928Z</time></trkpt><trkpt lat="43.5856361" lon="6.794987"><ele>187.0</ele><time>2026-04-12T08:18:12.935Z</time></trkpt><trkpt lat="43.5855716" lon="6.7951102"><ele>187.0</ele><time>2026-04-12T08:18:13.906Z</time></trkpt><trkpt lat="43.5855094" lon="6.7952436"><ele>187.0</ele><time>2026-04-12T08:18:14.933Z</time></trkpt><trkpt lat="43.5854481" lon="6.7953795"><ele>189.25</ele><time>2026-04-12T08:18:15.928Z</time></trkpt><trkpt lat="43.5853814" lon="6.7955173"><ele>191.5</ele><time>2026-04-12T08:18:16.931Z</time></trkpt><trkpt lat="43.585316" lon="6.7956577"><ele>193.75</ele><time>2026-04-12T08:18:17.933Z</time></trkpt><trkpt lat="43.5852508" lon="6.7957969"><ele>196.0</ele><time>2026-04-12T08:18:18.91Z</time></trkpt><trkpt lat="43.5851872" lon="6.795938"><ele>189.75</ele><time>2026-04-12T08:18:19.923Z</time></trkpt><trkpt lat="43.5851233" lon="6.796085"><ele>183.5</ele><time>2026-04-12T08:18:20.938Z</time></trkpt><trkpt lat="43.5850615" lon="6.7962353"><ele>177.25</ele><time>2026-04-12T08:18:21.938Z</time></trkpt><trkpt lat="43.5850029" lon="6.7963834"><ele>171.0</ele><time>2026-04-12T08:18:22.941Z</time></trkpt><trkpt lat="43.5849507" lon="6.7965415"><ele>171.0</ele><time>2026-04-12T08:18:23.936Z</time></trkpt><trkpt lat="43.5849157" lon="6.7967125"><ele>171.0</ele><time>2026-04-12T08:18:24.939Z</time></trkpt><trkpt lat="43.5848968" lon="6.7968944"><ele>171.0</ele><time>2026-04-12T08:18:25.937Z</time></trkpt><trkpt lat="43.5848926" lon="6.7970811"><ele>171.0</ele><time>2026-04-12T08:18:26.933Z</time></trkpt><trkpt lat="43.5848988" lon="6.7972627"><ele>170.5</ele><time>2026-04-12T08:18:27.939Z</time></trkpt><trkpt lat="43.5849116" lon="6.7974538"><ele>170.0</ele><time>2026-04-12T08:18:28.945Z</time></trkpt><trkpt lat="43.5849318" lon="6.7976452"><ele>169.5</ele><time>2026-04-12T08:18:29.949Z</time></trkpt><trkpt lat="43.584961" lon="6.797836"><ele>169.0</ele><time>2026-04-12T08:18:30.928Z</time></trkpt><trkpt lat="43.5849977" lon="6.7980243"><ele>168.25</ele><time>2026-04-12T08:18:31.921Z</time></trkpt><trkpt lat="43.5850304" lon="6.7982214"><ele>167.5</ele><time>2026-04-12T08:18:32.908Z</time></trkpt><trkpt lat="43.5850604" lon="6.7984204"><ele>166.75</ele><time>2026-04-12T08:18:33.949Z</time></trkpt><trkpt lat="43.5850726" lon="6.798616"><ele>166.0</ele><time>2026-04-12T08:18:34.939Z</time></trkpt><trkpt lat="43.5850474" lon="6.7988241"><ele>165.75</ele><time>2026-04-12T08:18:35.944Z</time></trkpt><trkpt lat="43.5849928" lon="6.7990082"><ele>165.5</ele><time>2026-04-12T08:18:36.927Z</time></trkpt><trkpt lat="43.5849134" lon="6.7991791"><ele>165.25</ele><time>2026-04-12T08:18:37.92Z</time></trkpt><trkpt lat="43.5848247" lon="6.7993379"><ele>165.0</ele><time>2026-04-12T08:18:38.937Z</time></trkpt><trkpt lat="43.5847294" lon="6.7994988"><ele>165.66666666666666</ele><time>2026-04-12T08:18:39.959Z</time></trkpt><trkpt lat="43.5846372" lon="6.7996721"><ele>166.33333333333331</ele><time>2026-04-12T08:18:40.925Z</time></trkpt><trkpt lat="43.5845453" lon="6.7998464"><ele>167.0</ele><time>2026-04-12T08:18:41.934Z</time></trkpt><trkpt lat="43.5844572" lon="6.8000279"><ele>161.66666666666666</ele><time>2026-04-12T08:18:42.935Z</time></trkpt><trkpt lat="43.58437" lon="6.8002052"><ele>156.33333333333334</ele><time>2026-04-12T08:18:43.929Z</time></trkpt><trkpt lat="43.5842852" lon="6.800376"><ele>151.0</ele><time>2026-04-12T08:18:44.917Z</time></trkpt><trkpt lat="43.5841961" lon="6.8005513"><ele>151.0</ele><time>2026-04-12T08:18:45.92Z</time></trkpt><trkpt lat="43.5841028" lon="6.8007225"><ele>151.0</ele><time>2026-04-12T08:18:46.947Z</time></trkpt><trkpt lat="43.5840133" lon="6.8008898"><ele>151.0</ele><time>2026-04-12T08:18:47.943Z</time></trkpt><trkpt lat="43.5839279" lon="6.8010526"><ele>149.75</ele><time>2026-04-12T08:18:48.954Z</time></trkpt><trkpt lat="43.5838421" lon="6.8012103"><ele>148.5</ele><time>2026-04-12T08:18:49.943Z</time></trkpt><trkpt lat="43.5837587" lon="6.8013705"><ele>147.25</ele><time>2026-04-12T08:18:50.939Z</time></trkpt><trkpt lat="43.5836777" lon="6.801528"><ele>146.0</ele><time>2026-04-12T08:18:51.939Z</time></trkpt><trkpt lat="43.5836024" lon="6.8016778"><ele>145.75</ele><time>2026-04-12T08:18:52.931Z</time></trkpt><trkpt lat="43.5835235" lon="6.8018252"><ele>145.5</ele><time>2026-04-12T08:18:53.941Z</time></trkpt><trkpt lat="43.5834437" lon="6.8019713"><ele>145.25</ele><time>2026-04-12T08:18:54.936Z</time></trkpt><trkpt lat="43.5833698" lon="6.8021122"><ele>145.0</ele><time>2026-04-12T08:18:55.937Z</time></trkpt><trkpt lat="43.5832957" lon="6.8022486"><ele>145.0</ele><time>2026-04-12T08:18:56.937Z</time></trkpt><trkpt lat="43.5832226" lon="6.8023783"><ele>145.0</ele><time>2026-04-12T08:18:57.913Z</time></trkpt><trkpt lat="43.5831534" lon="6.8025095"><ele>145.0</ele><time>2026-04-12T08:18:58.954Z</time></trkpt><trkpt lat="43.5830828" lon="6.802641"><ele>145.0</ele><time>2026-04-12T08:18:59.893Z</time></trkpt><trkpt lat="43.5830136" lon="6.8027678"><ele>145.0</ele><time>2026-04-12T08:19:00.948Z</time></trkpt><trkpt lat="43.5829469" lon="6.802891"><ele>145.0</ele><time>2026-04-12T08:19:01.949Z</time></trkpt><trkpt lat="43.5828791" lon="6.8030215"><ele>145.0</ele><time>2026-04-12T08:19:02.936Z</time></trkpt><trkpt lat="43.5828118" lon="6.8031477"><ele>145.0</ele><time>2026-04-12T08:19:03.926Z</time></trkpt><trkpt lat="43.5827471" lon="6.8032741"><ele>145.0</ele><time>2026-04-12T08:19:04.94Z</time></trkpt><trkpt lat="43.5826794" lon="6.8034034"><ele>145.0</ele><time>2026-04-12T08:19:05.942Z</time></trkpt><trkpt lat="43.582612" lon="6.8035288"><ele>145.0</ele><time>2026-04-12T08:19:06.947Z</time></trkpt><trkpt lat="43.5825441" lon="6.8036532"><ele>145.0</ele><time>2026-04-12T08:19:07.948Z</time></trkpt><trkpt lat="43.5824766" lon="6.8037766"><ele>145.2</ele><time>2026-04-12T08:19:08.932Z</time></trkpt><trkpt lat="43.5824079" lon="6.8039039"><ele>145.4</ele><time>2026-04-12T08:19:09.913Z</time></trkpt><trkpt lat="43.5823433" lon="6.8040298"><ele>145.6</ele><time>2026-04-12T08:19:10.943Z</time></trkpt><trkpt lat="43.5822797" lon="6.8041558"><ele>145.8</ele><time>2026-04-12T08:19:11.947Z</time></trkpt><trkpt lat="43.5822157" lon="6.8042769"><ele>146.0</ele><time>2026-04-12T08:19:12.942Z</time></trkpt><trkpt lat="43.5821486" lon="6.8043997"><ele>147.2</ele><time>2026-04-12T08:19:13.939Z</time></trkpt><trkpt lat="43.5820844" lon="6.8045207"><ele>148.39999999999998</ele><time>2026-04-12T08:19:14.936Z</time></trkpt><trkpt lat="43.5820193" lon="6.8046429"><ele>149.6</ele><time>2026-04-12T08:19:15.924Z</time></trkpt><trkpt lat="43.5819549" lon="6.804761"><ele>150.79999999999998</ele><time>2026-04-12T08:19:16.928Z</time></trkpt><trkpt lat="43.5818926" lon="6.8048765"><ele>152.0</ele><time>2026-04-12T08:19:17.947Z</time></trkpt><trkpt lat="43.5818294" lon="6.8049871"><ele>152.0</ele><time>2026-04-12T08:19:18.931Z</time></trkpt><trkpt lat="43.5817704" lon="6.8051004"><ele>152.0</ele><time>2026-04-12T08:19:19.921Z</time></trkpt><trkpt lat="43.581714" lon="6.805225"><ele>152.0</ele><time>2026-04-12T08:19:20.932Z</time></trkpt><trkpt lat="43.581679" lon="6.8053582"><ele>152.0</ele><time>2026-04-12T08:19:21.946Z</time></trkpt><trkpt lat="43.581664" lon="6.8054987"><ele>152.0</ele><time>2026-04-12T08:19:22.922Z</time></trkpt><trkpt lat="43.5816598" lon="6.8056495"><ele>152.0</ele><time>2026-04-12T08:19:23.908Z</time></trkpt><trkpt lat="43.5816698" lon="6.8057962"><ele>152.0</ele><time>2026-04-12T08:19:24.946Z</time></trkpt><trkpt lat="43.5817006" lon="6.8059341"><ele>152.0</ele><time>2026-04-12T08:19:25.929Z</time></trkpt><trkpt lat="43.5817436" lon="6.8060666"><ele>152.0</ele><time>2026-04-12T08:19:26.95Z</time></trkpt><trkpt lat="43.5817954" lon="6.8061963"><ele>152.0</ele><time>2026-04-12T08:19:27.949Z</time></trkpt><trkpt lat="43.5818586" lon="6.8063185"><ele>152.0</ele><time>2026-04-12T08:19:28.937Z</time></trkpt><trkpt lat="43.5819193" lon="6.8064434"><ele>152.0</ele><time>2026-04-12T08:19:29.945Z</time></trkpt><trkpt lat="43.581978" lon="6.8065702"><ele>152.0</ele><time>2026-04-12T08:19:30.932Z</time></trkpt><trkpt lat="43.5820224" lon="6.8067059"><ele>152.0</ele><time>2026-04-12T08:19:31.949Z</time></trkpt><trkpt lat="43.582058" lon="6.8068436"><ele>152.0</ele><time>2026-04-12T08:19:32.912Z</time></trkpt><trkpt lat="43.5820788" lon="6.8069967"><ele>153.25</ele><time>2026-04-12T08:19:33.947Z</time></trkpt><trkpt lat="43.5820859" lon="6.8071482"><ele>154.5</ele><time>2026-04-12T08:19:34.905Z</time></trkpt><trkpt lat="43.5820732" lon="6.8073016"><ele>155.75</ele><time>2026-04-12T08:19:36.05Z</time></trkpt><trkpt lat="43.58204" lon="6.8076041"><ele>157.0</ele><time>2026-04-12T08:19:37.948Z</time></trkpt><trkpt lat="43.5820225" lon="6.8077517"><ele>156.6</ele><time>2026-04-12T08:19:38.924Z</time></trkpt><trkpt lat="43.5820073" lon="6.8078914"><ele>156.2</ele><time>2026-04-12T08:19:39.895Z</time></trkpt><trkpt lat="43.5819865" lon="6.8080298"><ele>155.8</ele><time>2026-04-12T08:19:40.949Z</time></trkpt><trkpt lat="43.5819737" lon="6.8081651"><ele>155.4</ele><time>2026-04-12T08:19:41.95Z</time></trkpt><trkpt lat="43.5819603" lon="6.8083003"><ele>155.0</ele><time>2026-04-12T08:19:42.916Z</time></trkpt><trkpt lat="43.5819462" lon="6.8084323"><ele>154.8</ele><time>2026-04-12T08:19:43.949Z</time></trkpt><trkpt lat="43.5819404" lon="6.8085691"><ele>154.6</ele><time>2026-04-12T08:19:44.95Z</time></trkpt><trkpt lat="43.5819386" lon="6.8087135"><ele>154.4</ele><time>2026-04-12T08:19:45.938Z</time></trkpt><trkpt lat="43.5819423" lon="6.8088587"><ele>154.2</ele><time>2026-04-12T08:19:46.937Z</time></trkpt><trkpt lat="43.5819554" lon="6.8090047"><ele>154.0</ele><time>2026-04-12T08:19:47.891Z</time></trkpt><trkpt lat="43.581979" lon="6.8091448"><ele>154.0</ele><time>2026-04-12T08:19:48.961Z</time></trkpt><trkpt lat="43.5820129" lon="6.8092894"><ele>154.0</ele><time>2026-04-12T08:19:49.945Z</time></trkpt><trkpt lat="43.5820545" lon="6.8094278"><ele>154.0</ele><time>2026-04-12T08:19:50.882Z</time></trkpt><trkpt lat="43.5821002" lon="6.8095571"><ele>154.0</ele><time>2026-04-12T08:19:51.933Z</time></trkpt><trkpt lat="43.5821424" lon="6.8096925"><ele>154.0</ele><time>2026-04-12T08:19:52.901Z</time></trkpt><trkpt lat="43.582184" lon="6.8098328"><ele>155.2</ele><time>2026-04-12T08:19:53.934Z</time></trkpt><trkpt lat="43.5822191" lon="6.8099706"><ele>156.4</ele><time>2026-04-12T08:19:54.953Z</time></trkpt><trkpt lat="43.5822513" lon="6.8101056"><ele>157.6</ele><time>2026-04-12T08:19:55.935Z</time></trkpt><trkpt lat="43.5822833" lon="6.810244"><ele>158.8</ele><time>2026-04-12T08:19:56.952Z</time></trkpt><trkpt lat="43.582315" lon="6.8103791"><ele>160.0</ele><time>2026-04-12T08:19:57.959Z</time></trkpt><trkpt lat="43.5823496" lon="6.8105169"><ele>160.0</ele><time>2026-04-12T08:19:58.93Z</time></trkpt><trkpt lat="43.5823754" lon="6.8106536"><ele>160.0</ele><time>2026-04-12T08:19:59.902Z</time></trkpt><trkpt lat="43.5823811" lon="6.8107882"><ele>160.0</ele><time>2026-04-12T08:20:00.907Z</time></trkpt><trkpt lat="43.5823791" lon="6.8109161"><ele>160.0</ele><time>2026-04-12T08:20:01.893Z</time></trkpt><trkpt lat="43.5823709" lon="6.8110456"><ele>160.0</ele><time>2026-04-12T08:20:02.938Z</time></trkpt><trkpt lat="43.5823501" lon="6.8111693"><ele>159.85714285714286</ele><time>2026-04-12T08:20:03.916Z</time></trkpt><trkpt lat="43.5823275" lon="6.8112833"><ele>159.71428571428572</ele><time>2026-04-12T08:20:04.959Z</time></trkpt><trkpt lat="43.5823232" lon="6.8113826"><ele>159.57142857142856</ele><time>2026-04-12T08:20:05.919Z</time></trkpt><trkpt lat="43.5823426" lon="6.8114669"><ele>159.42857142857144</ele><time>2026-04-12T08:20:06.93Z</time></trkpt><trkpt lat="43.5823838" lon="6.8115403"><ele>159.2857142857143</ele><time>2026-04-12T08:20:07.933Z</time></trkpt><trkpt lat="43.5824325" lon="6.8116069"><ele>159.14285714285714</ele><time>2026-04-12T08:20:08.958Z</time></trkpt><trkpt lat="43.5824772" lon="6.811685"><ele>159.0</ele><time>2026-04-12T08:20:09.929Z</time></trkpt><trkpt lat="43.5825318" lon="6.811758"><ele>159.0</ele><time>2026-04-12T08:20:10.944Z</time></trkpt><trkpt lat="43.5825873" lon="6.8118335"><ele>159.0</ele><time>2026-04-12T08:20:11.925Z</time></trkpt><trkpt lat="43.582655" lon="6.8119026"><ele>159.0</ele><time>2026-04-12T08:20:12.919Z</time></trkpt><trkpt lat="43.5827252" lon="6.8119649"><ele>159.0</ele><time>2026-04-12T08:20:13.938Z</time></trkpt><trkpt lat="43.5828023" lon="6.8120048"><ele>159.0</ele><time>2026-04-12T08:20:14.928Z</time></trkpt><trkpt lat="43.5828883" lon="6.8120328"><ele>159.0</ele><time>2026-04-12T08:20:15.91Z</time></trkpt><trkpt lat="43.5829707" lon="6.8120447"><ele>159.83333333333334</ele><time>2026-04-12T08:20:16.943Z</time></trkpt><trkpt lat="43.5830536" lon="6.8120486"><ele>160.66666666666666</ele><time>2026-04-12T08:20:17.951Z</time></trkpt><trkpt lat="43.5831298" lon="6.8120533"><ele>161.5</ele><time>2026-04-12T08:20:18.942Z</time></trkpt><trkpt lat="43.5832043" lon="6.8120782"><ele>162.33333333333331</ele><time>2026-04-12T08:20:19.945Z</time></trkpt><trkpt lat="43.5832699" lon="6.8121183"><ele>163.16666666666666</ele><time>2026-04-12T08:20:20.944Z</time></trkpt><trkpt lat="43.5833347" lon="6.8121702"><ele>164.0</ele><time>2026-04-12T08:20:21.943Z</time></trkpt><trkpt lat="43.5833951" lon="6.8122202"><ele>164.0</ele><time>2026-04-12T08:20:22.942Z</time></trkpt><trkpt lat="43.5834532" lon="6.8122753"><ele>164.0</ele><time>2026-04-12T08:20:23.926Z</time></trkpt><trkpt lat="43.58351" lon="6.8123325"><ele>164.0</ele><time>2026-04-12T08:20:24.922Z</time></trkpt><trkpt lat="43.5835607" lon="6.8123936"><ele>164.0</ele><time>2026-04-12T08:20:25.949Z</time></trkpt><trkpt lat="43.5836449" lon="6.81252"><ele>164.0</ele><time>2026-04-12T08:20:27.933Z</time></trkpt><trkpt lat="43.5837187" lon="6.8126472"><ele>164.6</ele><time>2026-04-12T08:20:29.927Z</time></trkpt><trkpt lat="43.5837715" lon="6.8127868"><ele>165.2</ele><time>2026-04-12T08:20:31.919Z</time></trkpt><trkpt lat="43.583792" lon="6.812941"><ele>165.79999999999998</ele><time>2026-04-12T08:20:33.942Z</time></trkpt><trkpt lat="43.5837852" lon="6.8130913"><ele>166.39999999999998</ele><time>2026-04-12T08:20:35.941Z</time></trkpt><trkpt lat="43.5837581" lon="6.81324"><ele>167.0</ele><time>2026-04-12T08:20:37.964Z</time></trkpt><trkpt lat="43.5836997" lon="6.8133606"><ele>167.2</ele><time>2026-04-12T08:20:39.905Z</time></trkpt><trkpt lat="43.5836209" lon="6.8134662"><ele>167.39999999999998</ele><time>2026-04-12T08:20:41.944Z</time></trkpt><trkpt lat="43.5835531" lon="6.8135749"><ele>167.60000000000002</ele><time>2026-04-12T08:20:43.928Z</time></trkpt><trkpt lat="43.5834882" lon="6.8136855"><ele>167.8</ele><time>2026-04-12T08:20:45.947Z</time></trkpt><trkpt lat="43.5834284" lon="6.8137986"><ele>168.0</ele><time>2026-04-12T08:20:47.931Z</time></trkpt><trkpt lat="43.5833731" lon="6.8139244"><ele>169.0</ele><time>2026-04-12T08:20:49.945Z</time></trkpt><trkpt lat="43.5833302" lon="6.8140669"><ele>170.0</ele><time>2026-04-12T08:20:51.936Z</time></trkpt><trkpt lat="43.5833116" lon="6.8142151"><ele>171.0</ele><time>2026-04-12T08:20:53.955Z</time></trkpt><trkpt lat="43.5833268" lon="6.8143794"><ele>172.0</ele><time>2026-04-12T08:20:55.924Z</time></trkpt><trkpt lat="43.58336" lon="6.8145333"><ele>173.6</ele><time>2026-04-12T08:20:57.928Z</time></trkpt><trkpt lat="43.5834022" lon="6.8146915"><ele>175.2</ele><time>2026-04-12T08:20:59.904Z</time></trkpt><trkpt lat="43.5834613" lon="6.8148527"><ele>176.8</ele><time>2026-04-12T08:21:01.933Z</time></trkpt><trkpt lat="43.5834993" lon="6.8149307"><ele>178.4</ele><time>2026-04-12T08:21:02.929Z</time></trkpt><trkpt lat="43.5835449" lon="6.8150063"><ele>180.0</ele><time>2026-04-12T08:21:03.927Z</time></trkpt><trkpt lat="43.5835908" lon="6.8150904"><ele>179.85714285714286</ele><time>2026-04-12T08:21:04.958Z</time></trkpt><trkpt lat="43.583642" lon="6.8151694"><ele>179.71428571428572</ele><time>2026-04-12T08:21:05.932Z</time></trkpt><trkpt lat="43.5836864" lon="6.8152522"><ele>179.57142857142858</ele><time>2026-04-12T08:21:06.897Z</time></trkpt><trkpt lat="43.5837282" lon="6.8153401"><ele>179.42857142857144</ele><time>2026-04-12T08:21:07.907Z</time></trkpt><trkpt lat="43.5837651" lon="6.815429"><ele>179.28571428571428</ele><time>2026-04-12T08:21:08.957Z</time></trkpt><trkpt lat="43.5838112" lon="6.8155025"><ele>179.14285714285717</ele><time>2026-04-12T08:21:09.934Z</time></trkpt><trkpt lat="43.5838682" lon="6.8155718"><ele>179.0</ele><time>2026-04-12T08:21:10.919Z</time></trkpt><trkpt lat="43.5839294" lon="6.8156219"><ele>179.00000000000003</ele><time>2026-04-12T08:21:11.942Z</time></trkpt><trkpt lat="43.5839943" lon="6.8156706"><ele>179.0</ele><time>2026-04-12T08:21:12.959Z</time></trkpt><trkpt lat="43.5840583" lon="6.8157224"><ele>179.0</ele><time>2026-04-12T08:21:13.951Z</time></trkpt><trkpt lat="43.5841161" lon="6.8157835"><ele>179.0</ele><time>2026-04-12T08:21:14.897Z</time></trkpt><trkpt lat="43.5841662" lon="6.8158571"><ele>179.0</ele><time>2026-04-12T08:21:15.941Z</time></trkpt><trkpt lat="43.5842191" lon="6.8159291"><ele>179.00000000000003</ele><time>2026-04-12T08:21:16.919Z</time></trkpt><trkpt lat="43.5842783" lon="6.815992"><ele>179.0</ele><time>2026-04-12T08:21:17.941Z</time></trkpt><trkpt lat="43.5843491" lon="6.8160366"><ele>178.85714285714286</ele><time>2026-04-12T08:21:18.934Z</time></trkpt><trkpt lat="43.5844237" lon="6.8160361"><ele>178.71428571428572</ele><time>2026-04-12T08:21:19.935Z</time></trkpt><trkpt lat="43.5844973" lon="6.8160214"><ele>178.57142857142856</ele><time>2026-04-12T08:21:20.927Z</time></trkpt><trkpt lat="43.5845673" lon="6.8159961"><ele>178.42857142857144</ele><time>2026-04-12T08:21:21.946Z</time></trkpt><trkpt lat="43.5846397" lon="6.8159638"><ele>178.28571428571428</ele><time>2026-04-12T08:21:22.938Z</time></trkpt><trkpt lat="43.5847124" lon="6.8159288"><ele>178.14285714285714</ele><time>2026-04-12T08:21:23.933Z</time></trkpt><trkpt lat="43.5847826" lon="6.8158959"><ele>178.0</ele><time>2026-04-12T08:21:24.931Z</time></trkpt><trkpt lat="43.5848501" lon="6.8158648"><ele>177.99999999999997</ele><time>2026-04-12T08:21:25.934Z</time></trkpt><trkpt lat="43.5849239" lon="6.8158498"><ele>178.0</ele><time>2026-04-12T08:21:26.928Z</time></trkpt><trkpt lat="43.5849993" lon="6.8158583"><ele>178.0</ele><time>2026-04-12T08:21:27.94Z</time></trkpt><trkpt lat="43.585067" lon="6.815894"><ele>178.0</ele><time>2026-04-12T08:21:28.942Z</time></trkpt><trkpt lat="43.5851247" lon="6.8159511"><ele>178.0</ele><time>2026-04-12T08:21:29.938Z</time></trkpt><trkpt lat="43.5851753" lon="6.8160128"><ele>177.99999999999997</ele><time>2026-04-12T08:21:30.912Z</time></trkpt><trkpt lat="43.5852319" lon="6.8160641"><ele>178.0</ele><time>2026-04-12T08:21:31.95Z</time></trkpt><trkpt lat="43.5852885" lon="6.8161195"><ele>180.0</ele><time>2026-04-12T08:21:32.931Z</time></trkpt><trkpt lat="43.5853443" lon="6.8161672"><ele>182.0</ele><time>2026-04-12T08:21:33.927Z</time></trkpt><trkpt lat="43.5854046" lon="6.8162138"><ele>184.0</ele><time>2026-04-12T08:21:34.93Z</time></trkpt><trkpt lat="43.5854641" lon="6.8162612"><ele>186.0</ele><time>2026-04-12T08:21:35.946Z</time></trkpt><trkpt lat="43.5855197" lon="6.8163056"><ele>188.0</ele><time>2026-04-12T08:21:36.936Z</time></trkpt><trkpt lat="43.585633" lon="6.8163983"><ele>190.0</ele><time>2026-04-12T08:21:38.95Z</time></trkpt><trkpt lat="43.5856923" lon="6.8164455"><ele>190.0</ele><time>2026-04-12T08:21:39.93Z</time></trkpt><trkpt lat="43.5857501" lon="6.8164903"><ele>190.0</ele><time>2026-04-12T08:21:40.933Z</time></trkpt><trkpt lat="43.5858048" lon="6.8165409"><ele>190.0</ele><time>2026-04-12T08:21:41.92Z</time></trkpt><trkpt lat="43.5858615" lon="6.8165954"><ele>190.0</ele><time>2026-04-12T08:21:42.911Z</time></trkpt><trkpt lat="43.5859116" lon="6.8166584"><ele>190.0</ele><time>2026-04-12T08:21:43.92Z</time></trkpt><trkpt lat="43.5859566" lon="6.8167324"><ele>190.0</ele><time>2026-04-12T08:21:44.943Z</time></trkpt><trkpt lat="43.5859881" lon="6.8168149"><ele>190.0</ele><time>2026-04-12T08:21:45.944Z</time></trkpt><trkpt lat="43.586015" lon="6.8169023"><ele>189.28571428571428</ele><time>2026-04-12T08:21:46.953Z</time></trkpt><trkpt lat="43.5860434" lon="6.8169872"><ele>188.57142857142858</ele><time>2026-04-12T08:21:47.934Z</time></trkpt><trkpt lat="43.586076" lon="6.8170701"><ele>187.85714285714283</ele><time>2026-04-12T08:21:48.921Z</time></trkpt><trkpt lat="43.5861073" lon="6.8171479"><ele>187.14285714285714</ele><time>2026-04-12T08:21:49.938Z</time></trkpt><trkpt lat="43.5861443" lon="6.8172281"><ele>186.42857142857142</ele><time>2026-04-12T08:21:50.933Z</time></trkpt><trkpt lat="43.5861872" lon="6.8173016"><ele>185.7142857142857</ele><time>2026-04-12T08:21:51.936Z</time></trkpt><trkpt lat="43.5862356" lon="6.8173634"><ele>185.0</ele><time>2026-04-12T08:21:52.922Z</time></trkpt><trkpt lat="43.5862876" lon="6.8174213"><ele>185.0</ele><time>2026-04-12T08:21:53.945Z</time></trkpt><trkpt lat="43.5863404" lon="6.8174774"><ele>185.0</ele><time>2026-04-12T08:21:54.929Z</time></trkpt><trkpt lat="43.5863948" lon="6.8175258"><ele>185.0</ele><time>2026-04-12T08:21:55.894Z</time></trkpt><trkpt lat="43.5864966" lon="6.8176246"><ele>185.0</ele><time>2026-04-12T08:21:57.942Z</time></trkpt><trkpt lat="43.5866053" lon="6.8177128"><ele>185.0</ele><time>2026-04-12T08:21:59.899Z</time></trkpt><trkpt lat="43.5866604" lon="6.8177619"><ele>185.0</ele><time>2026-04-12T08:22:00.941Z</time></trkpt><trkpt lat="43.5867132" lon="6.8178105"><ele>184.85714285714283</ele><time>2026-04-12T08:22:01.935Z</time></trkpt><trkpt lat="43.5867729" lon="6.8178482"><ele>184.71428571428572</ele><time>2026-04-12T08:22:02.938Z</time></trkpt><trkpt lat="43.5868328" lon="6.8178816"><ele>184.57142857142856</ele><time>2026-04-12T08:22:03.917Z</time></trkpt><trkpt lat="43.586948" lon="6.8179373"><ele>184.42857142857142</ele><time>2026-04-12T08:22:05.932Z</time></trkpt><trkpt lat="43.5870085" lon="6.8179679"><ele>184.28571428571428</ele><time>2026-04-12T08:22:06.934Z</time></trkpt><trkpt lat="43.5870664" lon="6.8180035"><ele>184.14285714285714</ele><time>2026-04-12T08:22:07.942Z</time></trkpt><trkpt lat="43.5871266" lon="6.8180455"><ele>184.0</ele><time>2026-04-12T08:22:08.954Z</time></trkpt><trkpt lat="43.5872263" lon="6.818147"><ele>184.0</ele><time>2026-04-12T08:22:10.932Z</time></trkpt><trkpt lat="43.5872805" lon="6.8182943"><ele>184.0</ele><time>2026-04-12T08:22:12.936Z</time></trkpt><trkpt lat="43.587263" lon="6.8183865"><ele>184.0</ele><time>2026-04-12T08:22:13.921Z</time></trkpt><trkpt lat="43.5872225" lon="6.8184575"><ele>184.0</ele><time>2026-04-12T08:22:14.955Z</time></trkpt><trkpt lat="43.5871673" lon="6.8185265"><ele>184.0</ele><time>2026-04-12T08:22:15.932Z</time></trkpt><trkpt lat="43.5871039" lon="6.8185668"><ele>184.0</ele><time>2026-04-12T08:22:16.942Z</time></trkpt><trkpt lat="43.5870404" lon="6.8186069"><ele>185.66666666666669</ele><time>2026-04-12T08:22:17.938Z</time></trkpt><trkpt lat="43.586972" lon="6.8186379"><ele>187.33333333333334</ele><time>2026-04-12T08:22:18.957Z</time></trkpt><trkpt lat="43.5869049" lon="6.8186604"><ele>189.0</ele><time>2026-04-12T08:22:19.954Z</time></trkpt><trkpt lat="43.5868398" lon="6.8186813"><ele>190.66666666666669</ele><time>2026-04-12T08:22:20.936Z</time></trkpt><trkpt lat="43.5867126" lon="6.8187151"><ele>192.33333333333334</ele><time>2026-04-12T08:22:22.925Z</time></trkpt><trkpt lat="43.5866503" lon="6.8187405"><ele>194.0</ele><time>2026-04-12T08:22:23.93Z</time></trkpt><trkpt lat="43.586591" lon="6.8187743"><ele>194.00000000000003</ele><time>2026-04-12T08:22:24.922Z</time></trkpt><trkpt lat="43.5865418" lon="6.8188389"><ele>194.0</ele><time>2026-04-12T08:22:25.942Z</time></trkpt><trkpt lat="43.5865017" lon="6.8190041"><ele>194.0</ele><time>2026-04-12T08:22:27.939Z</time></trkpt><trkpt lat="43.5865043" lon="6.8190939"><ele>194.0</ele><time>2026-04-12T08:22:28.962Z</time></trkpt><trkpt lat="43.58651" lon="6.819184"><ele>194.00000000000003</ele><time>2026-04-12T08:22:29.954Z</time></trkpt><trkpt lat="43.5865071" lon="6.8192758"><ele>194.0</ele><time>2026-04-12T08:22:30.912Z</time></trkpt><trkpt lat="43.5864862" lon="6.8193681"><ele>193.83333333333334</ele><time>2026-04-12T08:22:31.947Z</time></trkpt><trkpt lat="43.5864556" lon="6.8194549"><ele>193.66666666666669</ele><time>2026-04-12T08:22:32.923Z</time></trkpt><trkpt lat="43.5863771" lon="6.8195917"><ele>193.5</ele><time>2026-04-12T08:22:34.946Z</time></trkpt><trkpt lat="43.5863346" lon="6.8196608"><ele>193.33333333333331</ele><time>2026-04-12T08:22:35.884Z</time></trkpt><trkpt lat="43.5862993" lon="6.8197369"><ele>193.16666666666666</ele><time>2026-04-12T08:22:36.955Z</time></trkpt><trkpt lat="43.5862693" lon="6.8198196"><ele>193.0</ele><time>2026-04-12T08:22:37.935Z</time></trkpt><trkpt lat="43.5862494" lon="6.8199074"><ele>193.00000000000003</ele><time>2026-04-12T08:22:38.935Z</time></trkpt><trkpt lat="43.5862402" lon="6.8200106"><ele>193.0</ele><time>2026-04-12T08:22:39.941Z</time></trkpt><trkpt lat="43.5862383" lon="6.8201059"><ele>193.0</ele><time>2026-04-12T08:22:40.932Z</time></trkpt><trkpt lat="43.5862222" lon="6.8202038"><ele>193.0</ele><time>2026-04-12T08:22:41.954Z</time></trkpt><trkpt lat="43.5861949" lon="6.8202929"><ele>193.0</ele><time>2026-04-12T08:22:42.947Z</time></trkpt><trkpt lat="43.5861536" lon="6.8203707"><ele>193.00000000000003</ele><time>2026-04-12T08:22:43.945Z</time></trkpt><trkpt lat="43.5861046" lon="6.8204473"><ele>193.0</ele><time>2026-04-12T08:22:44.951Z</time></trkpt><trkpt lat="43.5860666" lon="6.8205243"><ele>194.00000000000003</ele><time>2026-04-12T08:22:45.944Z</time></trkpt><trkpt lat="43.5860202" lon="6.8206002"><ele>195.0</ele><time>2026-04-12T08:22:46.956Z</time></trkpt><trkpt lat="43.5859753" lon="6.8206719"><ele>196.0</ele><time>2026-04-12T08:22:47.943Z</time></trkpt><trkpt lat="43.5859292" lon="6.8207465"><ele>197.0</ele><time>2026-04-12T08:22:48.934Z</time></trkpt><trkpt lat="43.5858829" lon="6.8208162"><ele>198.0</ele><time>2026-04-12T08:22:49.915Z</time></trkpt><trkpt lat="43.5858345" lon="6.8208776"><ele>199.00000000000003</ele><time>2026-04-12T08:22:50.935Z</time></trkpt><trkpt lat="43.5857765" lon="6.8209216"><ele>200.0</ele><time>2026-04-12T08:22:51.934Z</time></trkpt><trkpt lat="43.5857091" lon="6.8209367"><ele>200.00000000000003</ele><time>2026-04-12T08:22:52.917Z</time></trkpt><trkpt lat="43.5856417" lon="6.8209304"><ele>200.0</ele><time>2026-04-12T08:22:53.941Z</time></trkpt><trkpt lat="43.5855739" lon="6.8209216"><ele>200.0</ele><time>2026-04-12T08:22:54.947Z</time></trkpt><trkpt lat="43.5855096" lon="6.8209248"><ele>200.0</ele><time>2026-04-12T08:22:55.91Z</time></trkpt><trkpt lat="43.5854437" lon="6.8209381"><ele>200.0</ele><time>2026-04-12T08:22:56.95Z</time></trkpt><trkpt lat="43.5853806" lon="6.8209656"><ele>200.00000000000003</ele><time>2026-04-12T08:22:57.932Z</time></trkpt><trkpt lat="43.5853241" lon="6.8210073"><ele>200.0</ele><time>2026-04-12T08:22:58.903Z</time></trkpt><trkpt lat="43.5852775" lon="6.8210672"><ele>199.4</ele><time>2026-04-12T08:22:59.912Z</time></trkpt><trkpt lat="43.5852192" lon="6.8212116"><ele>198.8</ele><time>2026-04-12T08:23:01.935Z</time></trkpt><trkpt lat="43.5852326" lon="6.821385"><ele>198.2</ele><time>2026-04-12T08:23:03.921Z</time></trkpt><trkpt lat="43.5852837" lon="6.821545"><ele>197.6</ele><time>2026-04-12T08:23:05.948Z</time></trkpt><trkpt lat="43.5853142" lon="6.8216241"><ele>197.0</ele><time>2026-04-12T08:23:06.924Z</time></trkpt><trkpt lat="43.5853487" lon="6.8217832"><ele>199.8</ele><time>2026-04-12T08:23:08.934Z</time></trkpt><trkpt lat="43.58534" lon="6.8219475"><ele>202.6</ele><time>2026-04-12T08:23:10.948Z</time></trkpt><trkpt lat="43.5852975" lon="6.8221036"><ele>205.4</ele><time>2026-04-12T08:23:12.964Z</time></trkpt><trkpt lat="43.585243" lon="6.8222628"><ele>208.20000000000002</ele><time>2026-04-12T08:23:14.955Z</time></trkpt><trkpt lat="43.5852043" lon="6.8223379"><ele>211.0</ele><time>2026-04-12T08:23:15.934Z</time></trkpt><trkpt lat="43.5851078" lon="6.8224442"><ele>211.0</ele><time>2026-04-12T08:23:17.95Z</time></trkpt><trkpt lat="43.5850004" lon="6.8225269"><ele>211.0</ele><time>2026-04-12T08:23:19.94Z</time></trkpt><trkpt lat="43.5848994" lon="6.8226173"><ele>211.0</ele><time>2026-04-12T08:23:21.959Z</time></trkpt><trkpt lat="43.5848148" lon="6.8227219"><ele>211.0</ele><time>2026-04-12T08:23:23.941Z</time></trkpt><trkpt lat="43.5847792" lon="6.8228601"><ele>210.0</ele><time>2026-04-12T08:23:25.95Z</time></trkpt><trkpt lat="43.5847907" lon="6.8230104"><ele>209.0</ele><time>2026-04-12T08:23:27.937Z</time></trkpt><trkpt lat="43.5848044" lon="6.8231582"><ele>208.0</ele><time>2026-04-12T08:23:29.928Z</time></trkpt><trkpt lat="43.5847944" lon="6.8233183"><ele>207.0</ele><time>2026-04-12T08:23:31.953Z</time></trkpt><trkpt lat="43.5847825" lon="6.8234067"><ele>206.0</ele><time>2026-04-12T08:23:32.938Z</time></trkpt><trkpt lat="43.5847665" lon="6.8234925"><ele>206.0</ele><time>2026-04-12T08:23:33.928Z</time></trkpt><trkpt lat="43.5847176" lon="6.8236366"><ele>206.0</ele><time>2026-04-12T08:23:35.95Z</time></trkpt><trkpt lat="43.5846418" lon="6.8237748"><ele>206.0</ele><time>2026-04-12T08:23:37.942Z</time></trkpt><trkpt lat="43.5845422" lon="6.8238551"><ele>206.0</ele><time>2026-04-12T08:23:39.936Z</time></trkpt><trkpt lat="43.5844793" lon="6.8238501"><ele>206.0</ele><time>2026-04-12T08:23:40.941Z</time></trkpt><trkpt lat="43.5844247" lon="6.8238042"><ele>206.00000000000003</ele><time>2026-04-12T08:23:41.918Z</time></trkpt><trkpt lat="43.5843691" lon="6.8237466"><ele>206.0</ele><time>2026-04-12T08:23:42.956Z</time></trkpt><trkpt lat="43.5843217" lon="6.823678"><ele>206.0</ele><time>2026-04-12T08:23:43.949Z</time></trkpt><trkpt lat="43.5842689" lon="6.8236045"><ele>206.0</ele><time>2026-04-12T08:23:44.933Z</time></trkpt><trkpt lat="43.5842045" lon="6.8235416"><ele>206.00000000000003</ele><time>2026-04-12T08:23:45.941Z</time></trkpt><trkpt lat="43.5841321" lon="6.8234881"><ele>206.0</ele><time>2026-04-12T08:23:46.94Z</time></trkpt><trkpt lat="43.5840597" lon="6.8234419"><ele>208.33333333333334</ele><time>2026-04-12T08:23:47.919Z</time></trkpt><trkpt lat="43.5839837" lon="6.8233978"><ele>210.66666666666669</ele><time>2026-04-12T08:23:48.949Z</time></trkpt><trkpt lat="43.5839015" lon="6.823367"><ele>213.0</ele><time>2026-04-12T08:23:49.94Z</time></trkpt><trkpt lat="43.5838109" lon="6.8233495"><ele>215.33333333333331</ele><time>2026-04-12T08:23:50.89Z</time></trkpt><trkpt lat="43.5837181" lon="6.8233535"><ele>217.66666666666666</ele><time>2026-04-12T08:23:51.899Z</time></trkpt><trkpt lat="43.5836247" lon="6.8233592"><ele>220.0</ele><time>2026-04-12T08:23:52.94Z</time></trkpt><trkpt lat="43.5835281" lon="6.8233617"><ele>220.4</ele><time>2026-04-12T08:23:53.884Z</time></trkpt><trkpt lat="43.5834307" lon="6.8233749"><ele>220.8</ele><time>2026-04-12T08:23:54.944Z</time></trkpt><trkpt lat="43.5833339" lon="6.82338"><ele>221.2</ele><time>2026-04-12T08:23:55.934Z</time></trkpt><trkpt lat="43.5832334" lon="6.8233827"><ele>221.6</ele><time>2026-04-12T08:23:56.914Z</time></trkpt><trkpt lat="43.5831319" lon="6.8234059"><ele>222.0</ele><time>2026-04-12T08:23:57.942Z</time></trkpt><trkpt lat="43.5830342" lon="6.8234545"><ele>217.6</ele><time>2026-04-12T08:23:58.929Z</time></trkpt><trkpt lat="43.5829329" lon="6.8235049"><ele>213.2</ele><time>2026-04-12T08:23:59.906Z</time></trkpt><trkpt lat="43.5828309" lon="6.8235438"><ele>208.8</ele><time>2026-04-12T08:24:00.939Z</time></trkpt><trkpt lat="43.582726" lon="6.8235869"><ele>204.4</ele><time>2026-04-12T08:24:01.944Z</time></trkpt><trkpt lat="43.5826223" lon="6.8236541"><ele>200.0</ele><time>2026-04-12T08:24:02.942Z</time></trkpt><trkpt lat="43.5825235" lon="6.8237285"><ele>200.0</ele><time>2026-04-12T08:24:03.924Z</time></trkpt><trkpt lat="43.5824273" lon="6.8238072"><ele>200.0</ele><time>2026-04-12T08:24:04.948Z</time></trkpt><trkpt lat="43.5823305" lon="6.8238783"><ele>200.0</ele><time>2026-04-12T08:24:05.945Z</time></trkpt><trkpt lat="43.5822283" lon="6.823942"><ele>200.0</ele><time>2026-04-12T08:24:06.951Z</time></trkpt><trkpt lat="43.5821269" lon="6.8240028"><ele>200.0</ele><time>2026-04-12T08:24:07.931Z</time></trkpt><trkpt lat="43.5820238" lon="6.8240634"><ele>200.6</ele><time>2026-04-12T08:24:08.948Z</time></trkpt><trkpt lat="43.5819189" lon="6.8241133"><ele>201.2</ele><time>2026-04-12T08:24:09.932Z</time></trkpt><trkpt lat="43.5818197" lon="6.8241419"><ele>201.8</ele><time>2026-04-12T08:24:10.933Z</time></trkpt><trkpt lat="43.5817186" lon="6.824132"><ele>202.4</ele><time>2026-04-12T08:24:11.957Z</time></trkpt><trkpt lat="43.5816367" lon="6.8240582"><ele>203.0</ele><time>2026-04-12T08:24:12.936Z</time></trkpt><trkpt lat="43.5815866" lon="6.8239395"><ele>203.0</ele><time>2026-04-12T08:24:13.945Z</time></trkpt><trkpt lat="43.5815557" lon="6.8238126"><ele>203.0</ele><time>2026-04-12T08:24:14.922Z</time></trkpt><trkpt lat="43.5815343" lon="6.8236749"><ele>203.0</ele><time>2026-04-12T08:24:15.938Z</time></trkpt><trkpt lat="43.5815181" lon="6.8235304"><ele>203.0</ele><time>2026-04-12T08:24:16.965Z</time></trkpt><trkpt lat="43.5815127" lon="6.8233765"><ele>203.0</ele><time>2026-04-12T08:24:17.94Z</time></trkpt><trkpt lat="43.5815261" lon="6.8232225"><ele>204.4</ele><time>2026-04-12T08:24:18.941Z</time></trkpt><trkpt lat="43.5815637" lon="6.8230725"><ele>205.8</ele><time>2026-04-12T08:24:19.924Z</time></trkpt><trkpt lat="43.5816192" lon="6.8229429"><ele>207.2</ele><time>2026-04-12T08:24:20.948Z</time></trkpt><trkpt lat="43.5816708" lon="6.8228264"><ele>208.6</ele><time>2026-04-12T08:24:21.892Z</time></trkpt><trkpt lat="43.5816906" lon="6.8227165"><ele>210.0</ele><time>2026-04-12T08:24:22.941Z</time></trkpt><trkpt lat="43.5816726" lon="6.822618"><ele>210.66666666666666</ele><time>2026-04-12T08:24:23.919Z</time></trkpt><trkpt lat="43.581609" lon="6.8225561"><ele>211.33333333333331</ele><time>2026-04-12T08:24:24.935Z</time></trkpt><trkpt lat="43.5815255" lon="6.8225169"><ele>212.0</ele><time>2026-04-12T08:24:25.94Z</time></trkpt><trkpt lat="43.5814421" lon="6.8225223"><ele>212.66666666666666</ele><time>2026-04-12T08:24:26.946Z</time></trkpt><trkpt lat="43.5813491" lon="6.8225272"><ele>213.33333333333331</ele><time>2026-04-12T08:24:27.914Z</time></trkpt><trkpt lat="43.5812503" lon="6.8225258"><ele>214.0</ele><time>2026-04-12T08:24:28.927Z</time></trkpt><trkpt lat="43.5811522" lon="6.8225479"><ele>212.0</ele><time>2026-04-12T08:24:29.949Z</time></trkpt><trkpt lat="43.5810451" lon="6.822569"><ele>210.0</ele><time>2026-04-12T08:24:30.917Z</time></trkpt><trkpt lat="43.5809338" lon="6.822542"><ele>208.0</ele><time>2026-04-12T08:24:31.929Z</time></trkpt><trkpt lat="43.5808152" lon="6.8224994"><ele>206.0</ele><time>2026-04-12T08:24:32.943Z</time></trkpt><trkpt lat="43.580699" lon="6.8224492"><ele>206.0</ele><time>2026-04-12T08:24:33.917Z</time></trkpt><trkpt lat="43.5805839" lon="6.8223821"><ele>206.0</ele><time>2026-04-12T08:24:34.944Z</time></trkpt><trkpt lat="43.580469" lon="6.8222975"><ele>206.0</ele><time>2026-04-12T08:24:35.923Z</time></trkpt><trkpt lat="43.5803594" lon="6.8222028"><ele>206.0</ele><time>2026-04-12T08:24:36.949Z</time></trkpt><trkpt lat="43.5802502" lon="6.8221111"><ele>204.5</ele><time>2026-04-12T08:24:37.938Z</time></trkpt><trkpt lat="43.5801376" lon="6.8220374"><ele>203.0</ele><time>2026-04-12T08:24:38.915Z</time></trkpt><trkpt lat="43.5800234" lon="6.8219849"><ele>201.5</ele><time>2026-04-12T08:24:39.931Z</time></trkpt><trkpt lat="43.5799075" lon="6.8219276"><ele>200.0</ele><time>2026-04-12T08:24:40.916Z</time></trkpt><trkpt lat="43.5797911" lon="6.8218763"><ele>200.0</ele><time>2026-04-12T08:24:41.927Z</time></trkpt><trkpt lat="43.579679" lon="6.8218254"><ele>200.0</ele><time>2026-04-12T08:24:42.943Z</time></trkpt><trkpt lat="43.5795687" lon="6.821775"><ele>200.0</ele><time>2026-04-12T08:24:43.903Z</time></trkpt><trkpt lat="43.5794648" lon="6.8217261"><ele>200.0</ele><time>2026-04-12T08:24:44.963Z</time></trkpt><trkpt lat="43.5793689" lon="6.8216929"><ele>200.0</ele><time>2026-04-12T08:24:45.889Z</time></trkpt><trkpt lat="43.5792813" lon="6.8216958"><ele>200.33333333333334</ele><time>2026-04-12T08:24:46.944Z</time></trkpt><trkpt lat="43.5792021" lon="6.8217464"><ele>200.66666666666669</ele><time>2026-04-12T08:24:47.88Z</time></trkpt><trkpt lat="43.5791512" lon="6.8218345"><ele>201.0</ele><time>2026-04-12T08:24:48.926Z</time></trkpt><trkpt lat="43.5791198" lon="6.8219419"><ele>201.33333333333331</ele><time>2026-04-12T08:24:49.931Z</time></trkpt><trkpt lat="43.5790999" lon="6.8220482"><ele>201.66666666666666</ele><time>2026-04-12T08:24:50.923Z</time></trkpt><trkpt lat="43.5790839" lon="6.8221597"><ele>202.0</ele><time>2026-04-12T08:24:51.929Z</time></trkpt><trkpt lat="43.5790716" lon="6.8222782"><ele>202.0</ele><time>2026-04-12T08:24:52.936Z</time></trkpt><trkpt lat="43.5790695" lon="6.8224021"><ele>202.0</ele><time>2026-04-12T08:24:53.904Z</time></trkpt><trkpt lat="43.5790831" lon="6.8225256"><ele>202.0</ele><time>2026-04-12T08:24:54.92Z</time></trkpt><trkpt lat="43.5791244" lon="6.8226415"><ele>202.0</ele><time>2026-04-12T08:24:55.918Z</time></trkpt><trkpt lat="43.5791934" lon="6.8227274"><ele>202.0</ele><time>2026-04-12T08:24:56.93Z</time></trkpt><trkpt lat="43.5792713" lon="6.8227914"><ele>202.33333333333331</ele><time>2026-04-12T08:24:57.926Z</time></trkpt><trkpt lat="43.57935" lon="6.8228346"><ele>202.66666666666666</ele><time>2026-04-12T08:24:58.923Z</time></trkpt><trkpt lat="43.5794293" lon="6.8228747"><ele>203.0</ele><time>2026-04-12T08:24:59.912Z</time></trkpt><trkpt lat="43.5795065" lon="6.8229096"><ele>203.33333333333331</ele><time>2026-04-12T08:25:00.921Z</time></trkpt><trkpt lat="43.579594" lon="6.8229281"><ele>203.66666666666666</ele><time>2026-04-12T08:25:01.939Z</time></trkpt><trkpt lat="43.5796777" lon="6.8229429"><ele>204.0</ele><time>2026-04-12T08:25:02.943Z</time></trkpt><trkpt lat="43.5797584" lon="6.82296"><ele>204.0</ele><time>2026-04-12T08:25:03.93Z</time></trkpt><trkpt lat="43.5798336" lon="6.8229894"><ele>204.0</ele><time>2026-04-12T08:25:04.914Z</time></trkpt><trkpt lat="43.5799043" lon="6.8230338"><ele>204.0</ele><time>2026-04-12T08:25:05.941Z</time></trkpt><trkpt lat="43.5799649" lon="6.8230931"><ele>204.0</ele><time>2026-04-12T08:25:06.94Z</time></trkpt><trkpt lat="43.5800116" lon="6.8231795"><ele>204.0</ele><time>2026-04-12T08:25:07.929Z</time></trkpt><trkpt lat="43.5799645" lon="6.8233037"><ele>204.0</ele><time>2026-04-12T08:25:09.928Z</time></trkpt><trkpt lat="43.5799224" lon="6.8233729"><ele>205.79999999999998</ele><time>2026-04-12T08:25:10.93Z</time></trkpt><trkpt lat="43.5798508" lon="6.823499"><ele>207.6</ele><time>2026-04-12T08:25:12.904Z</time></trkpt><trkpt lat="43.5797793" lon="6.8236224"><ele>209.4</ele><time>2026-04-12T08:25:14.939Z</time></trkpt><trkpt lat="43.5797132" lon="6.8237463"><ele>211.2</ele><time>2026-04-12T08:25:16.91Z</time></trkpt><trkpt lat="43.5796762" lon="6.8238809"><ele>213.0</ele><time>2026-04-12T08:25:18.9Z</time></trkpt><trkpt lat="43.5796724" lon="6.8240292"><ele>213.0</ele><time>2026-04-12T08:25:20.944Z</time></trkpt><trkpt lat="43.5797215" lon="6.8241633"><ele>213.0</ele><time>2026-04-12T08:25:22.933Z</time></trkpt><trkpt lat="43.5797775" lon="6.8242878"><ele>213.0</ele><time>2026-04-12T08:25:24.933Z</time></trkpt><trkpt lat="43.5798388" lon="6.8243957"><ele>213.0</ele><time>2026-04-12T08:25:26.941Z</time></trkpt><trkpt lat="43.5799218" lon="6.8244449"><ele>213.0</ele><time>2026-04-12T08:25:28.945Z</time></trkpt><trkpt lat="43.5800102" lon="6.8244472"><ele>214.2</ele><time>2026-04-12T08:25:30.943Z</time></trkpt><trkpt lat="43.5801071" lon="6.8243923"><ele>215.4</ele><time>2026-04-12T08:25:32.897Z</time></trkpt><trkpt lat="43.5801958" lon="6.8243227"><ele>216.59999999999997</ele><time>2026-04-12T08:25:34.907Z</time></trkpt><trkpt lat="43.5802867" lon="6.824315"><ele>217.79999999999998</ele><time>2026-04-12T08:25:36.894Z</time></trkpt><trkpt lat="43.5803574" lon="6.8243647"><ele>219.0</ele><time>2026-04-12T08:25:38.907Z</time></trkpt><trkpt lat="43.5804253" lon="6.824428"><ele>219.0</ele><time>2026-04-12T08:25:40.935Z</time></trkpt><trkpt lat="43.5804841" lon="6.8245163"><ele>218.99999999999997</ele><time>2026-04-12T08:25:42.93Z</time></trkpt><trkpt lat="43.5805382" lon="6.8246225"><ele>218.99999999999997</ele><time>2026-04-12T08:25:44.912Z</time></trkpt><trkpt lat="43.5805828" lon="6.8247366"><ele>219.0</ele><time>2026-04-12T08:25:46.935Z</time></trkpt><trkpt lat="43.5806202" lon="6.824855"><ele>219.0</ele><time>2026-04-12T08:25:48.935Z</time></trkpt><trkpt lat="43.580654" lon="6.8249696"><ele>219.0</ele><time>2026-04-12T08:25:50.924Z</time></trkpt><trkpt lat="43.5806821" lon="6.8250927"><ele>219.0</ele><time>2026-04-12T08:25:52.937Z</time></trkpt><trkpt lat="43.580728" lon="6.8252004"><ele>219.0</ele><time>2026-04-12T08:25:54.955Z</time></trkpt><trkpt lat="43.5807824" lon="6.8252935"><ele>219.0</ele><time>2026-04-12T08:25:56.924Z</time></trkpt><trkpt lat="43.5808418" lon="6.8253672"><ele>219.0</ele><time>2026-04-12T08:25:58.948Z</time></trkpt><trkpt lat="43.5809072" lon="6.825452"><ele>219.0</ele><time>2026-04-12T08:26:00.947Z</time></trkpt><trkpt lat="43.5809812" lon="6.82552"><ele>218.83333333333334</ele><time>2026-04-12T08:26:02.97Z</time></trkpt><trkpt lat="43.581056" lon="6.8255926"><ele>218.66666666666669</ele><time>2026-04-12T08:26:04.939Z</time></trkpt><trkpt lat="43.581121" lon="6.8256659"><ele>218.5</ele><time>2026-04-12T08:26:06.957Z</time></trkpt><trkpt lat="43.5811898" lon="6.8257412"><ele>218.33333333333334</ele><time>2026-04-12T08:26:08.931Z</time></trkpt><trkpt lat="43.5812491" lon="6.8258015"><ele>218.16666666666669</ele><time>2026-04-12T08:26:10.922Z</time></trkpt><trkpt lat="43.5813003" lon="6.8258878"><ele>218.0</ele><time>2026-04-12T08:26:12.915Z</time></trkpt><trkpt lat="43.5813285" lon="6.8259918"><ele>218.0</ele><time>2026-04-12T08:26:14.922Z</time></trkpt><trkpt lat="43.5813278" lon="6.8261099"><ele>218.0</ele><time>2026-04-12T08:26:16.939Z</time></trkpt><trkpt lat="43.5813012" lon="6.8262169"><ele>218.0</ele><time>2026-04-12T08:26:18.933Z</time></trkpt><trkpt lat="43.581264" lon="6.8263369"><ele>218.0</ele><time>2026-04-12T08:26:20.941Z</time></trkpt><trkpt lat="43.5812366" lon="6.8264726"><ele>218.0</ele><time>2026-04-12T08:26:22.955Z</time></trkpt><trkpt lat="43.5812596" lon="6.8266007"><ele>218.00000000000003</ele><time>2026-04-12T08:26:25.07Z</time></trkpt><trkpt lat="43.5813025" lon="6.826715"><ele>218.0</ele><time>2026-04-12T08:26:26.928Z</time></trkpt><trkpt lat="43.5813253" lon="6.8268245"><ele>218.0</ele><time>2026-04-12T08:26:28.907Z</time></trkpt><trkpt lat="43.5813345" lon="6.8269378"><ele>218.0</ele><time>2026-04-12T08:26:30.927Z</time></trkpt><trkpt lat="43.5813344" lon="6.8270434"><ele>218.00000000000003</ele><time>2026-04-12T08:26:32.95Z</time></trkpt><trkpt lat="43.5813181" lon="6.8271611"><ele>218.0</ele><time>2026-04-12T08:26:34.919Z</time></trkpt><trkpt lat="43.5812893" lon="6.8272761"><ele>218.8</ele><time>2026-04-12T08:26:36.917Z</time></trkpt><trkpt lat="43.5812567" lon="6.827389"><ele>219.60000000000002</ele><time>2026-04-12T08:26:38.895Z</time></trkpt><trkpt lat="43.5812308" lon="6.827521"><ele>220.39999999999998</ele><time>2026-04-12T08:26:40.927Z</time></trkpt><trkpt lat="43.5812303" lon="6.8276498"><ele>221.2</ele><time>2026-04-12T08:26:42.932Z</time></trkpt><trkpt lat="43.5812453" lon="6.8277708"><ele>222.0</ele><time>2026-04-12T08:26:44.91Z</time></trkpt><trkpt lat="43.5812649" lon="6.8278869"><ele>224.5</ele><time>2026-04-12T08:26:46.92Z</time></trkpt><trkpt lat="43.5812829" lon="6.8280175"><ele>227.0</ele><time>2026-04-12T08:26:48.917Z</time></trkpt><trkpt lat="43.5812992" lon="6.8281344"><ele>229.5</ele><time>2026-04-12T08:26:50.944Z</time></trkpt><trkpt lat="43.5813175" lon="6.8282577"><ele>232.0</ele><time>2026-04-12T08:26:52.91Z</time></trkpt><trkpt lat="43.5813401" lon="6.8283677"><ele>234.5</ele><time>2026-04-12T08:26:54.893Z</time></trkpt><trkpt lat="43.5813753" lon="6.8284809"><ele>237.0</ele><time>2026-04-12T08:26:56.888Z</time></trkpt><trkpt lat="43.5814241" lon="6.8285856"><ele>241.6</ele><time>2026-04-12T08:26:58.909Z</time></trkpt><trkpt lat="43.581483" lon="6.8286954"><ele>246.2</ele><time>2026-04-12T08:27:00.939Z</time></trkpt><trkpt lat="43.5815559" lon="6.8287864"><ele>250.8</ele><time>2026-04-12T08:27:02.947Z</time></trkpt><trkpt lat="43.5816333" lon="6.8288565"><ele>255.4</ele><time>2026-04-12T08:27:04.926Z</time></trkpt><trkpt lat="43.5817181" lon="6.8288847"><ele>260.0</ele><time>2026-04-12T08:27:06.93Z</time></trkpt><trkpt lat="43.5818071" lon="6.8289159"><ele>260.0</ele><time>2026-04-12T08:27:08.951Z</time></trkpt><trkpt lat="43.581897" lon="6.8289335"><ele>260.0</ele><time>2026-04-12T08:27:10.954Z</time></trkpt><trkpt lat="43.5819868" lon="6.8289649"><ele>260.0</ele><time>2026-04-12T08:27:12.942Z</time></trkpt><trkpt lat="43.5820773" lon="6.8289999"><ele>260.0</ele><time>2026-04-12T08:27:14.949Z</time></trkpt><trkpt lat="43.582179" lon="6.8290385"><ele>260.0</ele><time>2026-04-12T08:27:16.928Z</time></trkpt><trkpt lat="43.5822751" lon="6.8290637"><ele>261.2</ele><time>2026-04-12T08:27:18.924Z</time></trkpt><trkpt lat="43.5823808" lon="6.8290905"><ele>262.4</ele><time>2026-04-12T08:27:20.94Z</time></trkpt><trkpt lat="43.5824759" lon="6.8291412"><ele>263.6</ele><time>2026-04-12T08:27:22.947Z</time></trkpt><trkpt lat="43.5825699" lon="6.829201"><ele>264.8</ele><time>2026-04-12T08:27:24.938Z</time></trkpt><trkpt lat="43.5826584" lon="6.829262"><ele>266.0</ele><time>2026-04-12T08:27:26.936Z</time></trkpt><trkpt lat="43.582741" lon="6.8293332"><ele>266.0</ele><time>2026-04-12T08:27:28.934Z</time></trkpt><trkpt lat="43.5828021" lon="6.8294272"><ele>266.0</ele><time>2026-04-12T08:27:30.933Z</time></trkpt><trkpt lat="43.5828502" lon="6.8295281"><ele>266.0</ele><time>2026-04-12T08:27:32.951Z</time></trkpt><trkpt lat="43.5828837" lon="6.8296324"><ele>266.0</ele><time>2026-04-12T08:27:34.91Z</time></trkpt><trkpt lat="43.5828956" lon="6.8297481"><ele>266.0</ele><time>2026-04-12T08:27:36.926Z</time></trkpt><trkpt lat="43.5829012" lon="6.829869"><ele>266.0</ele><time>2026-04-12T08:27:38.933Z</time></trkpt><trkpt lat="43.5829099" lon="6.8299928"><ele>262.6666666666667</ele><time>2026-04-12T08:27:40.937Z</time></trkpt><trkpt lat="43.5829191" lon="6.8301179"><ele>259.33333333333337</ele><time>2026-04-12T08:27:42.937Z</time></trkpt><trkpt lat="43.5829335" lon="6.8302421"><ele>256.0</ele><time>2026-04-12T08:27:44.949Z</time></trkpt><trkpt lat="43.5829413" lon="6.8303639"><ele>252.66666666666669</ele><time>2026-04-12T08:27:46.93Z</time></trkpt><trkpt lat="43.5829389" lon="6.830472"><ele>249.33333333333334</ele><time>2026-04-12T08:27:48.941Z</time></trkpt><trkpt lat="43.5829077" lon="6.8305831"><ele>246.0</ele><time>2026-04-12T08:27:50.9Z</time></trkpt><trkpt lat="43.5828736" lon="6.8306768"><ele>249.0</ele><time>2026-04-12T08:27:52.941Z</time></trkpt><trkpt lat="43.5828309" lon="6.8307824"><ele>252.0</ele><time>2026-04-12T08:27:54.947Z</time></trkpt><trkpt lat="43.5827756" lon="6.8308684"><ele>255.0</ele><time>2026-04-12T08:27:56.914Z</time></trkpt><trkpt lat="43.5827117" lon="6.8309511"><ele>258.0</ele><time>2026-04-12T08:27:58.937Z</time></trkpt><trkpt lat="43.5826375" lon="6.8310092"><ele>261.0</ele><time>2026-04-12T08:28:00.941Z</time></trkpt><trkpt lat="43.5825653" lon="6.8310705"><ele>264.0</ele><time>2026-04-12T08:28:02.915Z</time></trkpt><trkpt lat="43.5824945" lon="6.8311304"><ele>264.0</ele><time>2026-04-12T08:28:04.944Z</time></trkpt><trkpt lat="43.5824224" lon="6.8311957"><ele>264.0</ele><time>2026-04-12T08:28:06.918Z</time></trkpt><trkpt lat="43.5823514" lon="6.8312549"><ele>264.0</ele><time>2026-04-12T08:28:08.939Z</time></trkpt><trkpt lat="43.58228" lon="6.8313224"><ele>264.0</ele><time>2026-04-12T08:28:10.917Z</time></trkpt><trkpt lat="43.5822274" lon="6.8314169"><ele>264.0</ele><time>2026-04-12T08:28:12.942Z</time></trkpt><trkpt lat="43.5821991" lon="6.8315349"><ele>264.0</ele><time>2026-04-12T08:28:14.934Z</time></trkpt><trkpt lat="43.5821927" lon="6.8316426"><ele>264.0</ele><time>2026-04-12T08:28:16.955Z</time></trkpt><trkpt lat="43.5822125" lon="6.8317614"><ele>264.0</ele><time>2026-04-12T08:28:18.963Z</time></trkpt><trkpt lat="43.5822368" lon="6.8318794"><ele>264.0</ele><time>2026-04-12T08:28:20.923Z</time></trkpt><trkpt lat="43.5822675" lon="6.8319907"><ele>264.0</ele><time>2026-04-12T08:28:22.937Z</time></trkpt><trkpt lat="43.5822994" lon="6.8321008"><ele>264.0</ele><time>2026-04-12T08:28:24.959Z</time></trkpt><trkpt lat="43.5823245" lon="6.8322295"><ele>264.0</ele><time>2026-04-12T08:28:26.936Z</time></trkpt><trkpt lat="43.5823289" lon="6.8323484"><ele>265.4</ele><time>2026-04-12T08:28:28.934Z</time></trkpt><trkpt lat="43.5823432" lon="6.8324792"><ele>266.79999999999995</ele><time>2026-04-12T08:28:30.944Z</time></trkpt><trkpt lat="43.5823576" lon="6.8326106"><ele>268.20000000000005</ele><time>2026-04-12T08:28:32.961Z</time></trkpt><trkpt lat="43.5824003" lon="6.8327279"><ele>269.6</ele><time>2026-04-12T08:28:34.944Z</time></trkpt><trkpt lat="43.5824749" lon="6.832796"><ele>271.0</ele><time>2026-04-12T08:28:36.963Z</time></trkpt><trkpt lat="43.5825642" lon="6.8328187"><ele>271.16666666666663</ele><time>2026-04-12T08:28:38.92Z</time></trkpt><trkpt lat="43.5826563" lon="6.8328245"><ele>271.3333333333333</ele><time>2026-04-12T08:28:40.915Z</time></trkpt><trkpt lat="43.5827388" lon="6.8328481"><ele>271.5</ele><time>2026-04-12T08:28:42.937Z</time></trkpt><trkpt lat="43.5828225" lon="6.832893"><ele>271.6666666666667</ele><time>2026-04-12T08:28:44.929Z</time></trkpt><trkpt lat="43.5828951" lon="6.8329695"><ele>271.83333333333337</ele><time>2026-04-12T08:28:46.944Z</time></trkpt><trkpt lat="43.5829478" lon="6.833071"><ele>272.0</ele><time>2026-04-12T08:28:48.909Z</time></trkpt><trkpt lat="43.5830036" lon="6.8331772"><ele>272.0</ele><time>2026-04-12T08:28:50.953Z</time></trkpt><trkpt lat="43.583052" lon="6.8332937"><ele>272.0</ele><time>2026-04-12T08:28:52.942Z</time></trkpt><trkpt lat="43.5831047" lon="6.8334093"><ele>272.0</ele><time>2026-04-12T08:28:54.927Z</time></trkpt><trkpt lat="43.5831423" lon="6.8335424"><ele>272.0</ele><time>2026-04-12T08:28:56.948Z</time></trkpt><trkpt lat="43.5831691" lon="6.8336819"><ele>272.0</ele><time>2026-04-12T08:28:58.936Z</time></trkpt><trkpt lat="43.5831917" lon="6.8338276"><ele>273.6</ele><time>2026-04-12T08:29:00.948Z</time></trkpt><trkpt lat="43.5832032" lon="6.8339721"><ele>275.2</ele><time>2026-04-12T08:29:02.94Z</time></trkpt><trkpt lat="43.5832174" lon="6.8341025"><ele>276.8</ele><time>2026-04-12T08:29:04.95Z</time></trkpt><trkpt lat="43.5832353" lon="6.8342366"><ele>278.4</ele><time>2026-04-12T08:29:06.948Z</time></trkpt><trkpt lat="43.5832625" lon="6.8343729"><ele>280.0</ele><time>2026-04-12T08:29:08.951Z</time></trkpt><trkpt lat="43.5832877" lon="6.8345147"><ele>281.0</ele><time>2026-04-12T08:29:10.939Z</time></trkpt><trkpt lat="43.5833097" lon="6.8346437"><ele>282.0</ele><time>2026-04-12T08:29:12.903Z</time></trkpt><trkpt lat="43.5833371" lon="6.834775"><ele>283.0</ele><time>2026-04-12T08:29:14.926Z</time></trkpt><trkpt lat="43.5833613" lon="6.8349001"><ele>284.0</ele><time>2026-04-12T08:29:16.949Z</time></trkpt><trkpt lat="43.5833876" lon="6.8350252"><ele>285.0</ele><time>2026-04-12T08:29:18.947Z</time></trkpt><trkpt lat="43.5834253" lon="6.8351443"><ele>285.2</ele><time>2026-04-12T08:29:20.925Z</time></trkpt><trkpt lat="43.5834807" lon="6.8352474"><ele>285.4</ele><time>2026-04-12T08:29:22.94Z</time></trkpt><trkpt lat="43.5835359" lon="6.8353469"><ele>285.6</ele><time>2026-04-12T08:29:24.953Z</time></trkpt><trkpt lat="43.5835984" lon="6.8354536"><ele>285.8</ele><time>2026-04-12T08:29:26.962Z</time></trkpt><trkpt lat="43.5836546" lon="6.8355637"><ele>286.0</ele><time>2026-04-12T08:29:28.909Z</time></trkpt><trkpt lat="43.5837138" lon="6.8356574"><ele>287.0</ele><time>2026-04-12T08:29:30.93Z</time></trkpt><trkpt lat="43.5837729" lon="6.8357501"><ele>288.0</ele><time>2026-04-12T08:29:32.939Z</time></trkpt><trkpt lat="43.5838203" lon="6.8358616"><ele>289.0</ele><time>2026-04-12T08:29:34.934Z</time></trkpt><trkpt lat="43.5838733" lon="6.8359672"><ele>290.0</ele><time>2026-04-12T08:29:36.958Z</time></trkpt><trkpt lat="43.5839366" lon="6.836069"><ele>291.0</ele><time>2026-04-12T08:29:38.963Z</time></trkpt><trkpt lat="43.5840038" lon="6.8361609"><ele>291.0</ele><time>2026-04-12T08:29:40.932Z</time></trkpt><trkpt lat="43.5840752" lon="6.8362451"><ele>291.0</ele><time>2026-04-12T08:29:42.924Z</time></trkpt><trkpt lat="43.5841315" lon="6.8363237"><ele>291.0</ele><time>2026-04-12T08:29:44.919Z</time></trkpt><trkpt lat="43.5841912" lon="6.8364112"><ele>291.0</ele><time>2026-04-12T08:29:46.904Z</time></trkpt><trkpt lat="43.584256" lon="6.8364825"><ele>291.0</ele><time>2026-04-12T08:29:48.914Z</time></trkpt><trkpt lat="43.5843244" lon="6.8365667"><ele>291.0</ele><time>2026-04-12T08:29:50.923Z</time></trkpt><trkpt lat="43.584386" lon="6.8366429"><ele>291.0</ele><time>2026-04-12T08:29:52.929Z</time></trkpt><trkpt lat="43.5844425" lon="6.836721"><ele>291.0</ele><time>2026-04-12T08:29:54.921Z</time></trkpt><trkpt lat="43.5845304" lon="6.8367603"><ele>291.0</ele><time>2026-04-12T08:29:56.925Z</time></trkpt><trkpt lat="43.5846163" lon="6.8367871"><ele>291.0</ele><time>2026-04-12T08:29:58.961Z</time></trkpt><trkpt lat="43.5847141" lon="6.8367899"><ele>291.0</ele><time>2026-04-12T08:30:00.948Z</time></trkpt><trkpt lat="43.5848212" lon="6.8367971"><ele>291.2</ele><time>2026-04-12T08:30:02.95Z</time></trkpt><trkpt lat="43.5849297" lon="6.8368049"><ele>291.40000000000003</ele><time>2026-04-12T08:30:04.908Z</time></trkpt><trkpt lat="43.5850383" lon="6.8368085"><ele>291.6</ele><time>2026-04-12T08:30:06.931Z</time></trkpt><trkpt lat="43.5851391" lon="6.8368199"><ele>291.8</ele><time>2026-04-12T08:30:08.917Z</time></trkpt><trkpt lat="43.5852346" lon="6.8368608"><ele>292.0</ele><time>2026-04-12T08:30:10.931Z</time></trkpt><trkpt lat="43.5853329" lon="6.8369351"><ele>294.2</ele><time>2026-04-12T08:30:12.938Z</time></trkpt><trkpt lat="43.5854196" lon="6.8370262"><ele>296.4</ele><time>2026-04-12T08:30:14.931Z</time></trkpt><trkpt lat="43.5854996" lon="6.8371189"><ele>298.6</ele><time>2026-04-12T08:30:16.93Z</time></trkpt><trkpt lat="43.5855664" lon="6.8372171"><ele>300.8</ele><time>2026-04-12T08:30:18.917Z</time></trkpt><trkpt lat="43.5856227" lon="6.8373229"><ele>303.0</ele><time>2026-04-12T08:30:20.933Z</time></trkpt><trkpt lat="43.5856544" lon="6.8374404"><ele>303.0</ele><time>2026-04-12T08:30:22.941Z</time></trkpt><trkpt lat="43.5856781" lon="6.8375424"><ele>303.0</ele><time>2026-04-12T08:30:24.924Z</time></trkpt><trkpt lat="43.5857195" lon="6.837657"><ele>303.0</ele><time>2026-04-12T08:30:26.884Z</time></trkpt><trkpt lat="43.585772" lon="6.8377634"><ele>303.0</ele><time>2026-04-12T08:30:28.937Z</time></trkpt><trkpt lat="43.5858258" lon="6.8378666"><ele>303.0</ele><time>2026-04-12T08:30:30.918Z</time></trkpt><trkpt lat="43.5858825" lon="6.8379733"><ele>303.2</ele><time>2026-04-12T08:30:32.938Z</time></trkpt><trkpt lat="43.5859366" lon="6.8380798"><ele>303.4</ele><time>2026-04-12T08:30:34.947Z</time></trkpt><trkpt lat="43.5859881" lon="6.8381729"><ele>303.59999999999997</ele><time>2026-04-12T08:30:36.894Z</time></trkpt><trkpt lat="43.5860428" lon="6.8382776"><ele>303.8</ele><time>2026-04-12T08:30:38.933Z</time></trkpt><trkpt lat="43.5861061" lon="6.8383789"><ele>304.0</ele><time>2026-04-12T08:30:40.898Z</time></trkpt><trkpt lat="43.5861654" lon="6.8384848"><ele>304.8</ele><time>2026-04-12T08:30:42.922Z</time></trkpt><trkpt lat="43.5862334" lon="6.8385899"><ele>305.59999999999997</ele><time>2026-04-12T08:30:44.899Z</time></trkpt><trkpt lat="43.5863124" lon="6.8386742"><ele>306.4</ele><time>2026-04-12T08:30:46.904Z</time></trkpt><trkpt lat="43.5863992" lon="6.8387319"><ele>307.2</ele><time>2026-04-12T08:30:48.927Z</time></trkpt><trkpt lat="43.5864774" lon="6.8387795"><ele>308.0</ele><time>2026-04-12T08:30:50.915Z</time></trkpt><trkpt lat="43.5865551" lon="6.8388149"><ele>308.0</ele><time>2026-04-12T08:30:52.953Z</time></trkpt><trkpt lat="43.5866355" lon="6.8388392"><ele>308.0</ele><time>2026-04-12T08:30:54.922Z</time></trkpt><trkpt lat="43.5867106" lon="6.8388759"><ele>308.0</ele><time>2026-04-12T08:30:56.932Z</time></trkpt><trkpt lat="43.5867845" lon="6.8389214"><ele>308.0</ele><time>2026-04-12T08:30:58.936Z</time></trkpt><trkpt lat="43.5868572" lon="6.8389638"><ele>308.0</ele><time>2026-04-12T08:31:00.926Z</time></trkpt><trkpt lat="43.5869366" lon="6.8390015"><ele>308.0</ele><time>2026-04-12T08:31:02.924Z</time></trkpt><trkpt lat="43.5870201" lon="6.8390365"><ele>309.6666666666667</ele><time>2026-04-12T08:31:04.918Z</time></trkpt><trkpt lat="43.5871091" lon="6.8390667"><ele>311.33333333333337</ele><time>2026-04-12T08:31:06.962Z</time></trkpt><trkpt lat="43.5871919" lon="6.8391033"><ele>313.0</ele><time>2026-04-12T08:31:08.908Z</time></trkpt><trkpt lat="43.5872749" lon="6.8391343"><ele>314.6666666666667</ele><time>2026-04-12T08:31:10.943Z</time></trkpt><trkpt lat="43.5873616" lon="6.8391501"><ele>316.3333333333333</ele><time>2026-04-12T08:31:12.925Z</time></trkpt><trkpt lat="43.5874382" lon="6.8391648"><ele>318.0</ele><time>2026-04-12T08:31:14.909Z</time></trkpt><trkpt lat="43.5875176" lon="6.8391851"><ele>318.0</ele><time>2026-04-12T08:31:16.9Z</time></trkpt><trkpt lat="43.5875942" lon="6.8391901"><ele>318.0</ele><time>2026-04-12T08:31:18.879Z</time></trkpt><trkpt lat="43.587679" lon="6.839202"><ele>318.0</ele><time>2026-04-12T08:31:20.908Z</time></trkpt><trkpt lat="43.5877661" lon="6.8392203"><ele>318.0</ele><time>2026-04-12T08:31:22.89Z</time></trkpt><trkpt lat="43.5878398" lon="6.8392447"><ele>318.0</ele><time>2026-04-12T08:31:24.879Z</time></trkpt><trkpt lat="43.5879191" lon="6.8392657"><ele>318.0</ele><time>2026-04-12T08:31:26.888Z</time></trkpt><trkpt lat="43.588005" lon="6.8392844"><ele>318.8333333333333</ele><time>2026-04-12T08:31:28.903Z</time></trkpt><trkpt lat="43.5880888" lon="6.8393273"><ele>319.6666666666667</ele><time>2026-04-12T08:31:30.921Z</time></trkpt><trkpt lat="43.5881627" lon="6.8393458"><ele>320.5</ele><time>2026-04-12T08:31:32.948Z</time></trkpt><trkpt lat="43.5882523" lon="6.8393774"><ele>321.33333333333337</ele><time>2026-04-12T08:31:34.93Z</time></trkpt><trkpt lat="43.5883135" lon="6.8394165"><ele>322.1666666666667</ele><time>2026-04-12T08:31:36.912Z</time></trkpt><trkpt lat="43.5883867" lon="6.8394609"><ele>323.0</ele><time>2026-04-12T08:31:38.919Z</time></trkpt><trkpt lat="43.5884583" lon="6.8395295"><ele>323.0</ele><time>2026-04-12T08:31:40.927Z</time></trkpt><trkpt lat="43.5885376" lon="6.8396232"><ele>323.0</ele><time>2026-04-12T08:31:42.903Z</time></trkpt><trkpt lat="43.5885858" lon="6.8397479"><ele>323.0</ele><time>2026-04-12T08:31:44.937Z</time></trkpt><trkpt lat="43.5886025" lon="6.8398779"><ele>323.0</ele><time>2026-04-12T08:31:46.931Z</time></trkpt><trkpt lat="43.5886046" lon="6.8400266"><ele>323.0</ele><time>2026-04-12T08:31:48.943Z</time></trkpt><trkpt lat="43.5885777" lon="6.8401436"><ele>323.0</ele><time>2026-04-12T08:31:50.936Z</time></trkpt><trkpt lat="43.5885443" lon="6.8402651"><ele>323.0</ele><time>2026-04-12T08:31:52.935Z</time></trkpt><trkpt lat="43.5885241" lon="6.8404062"><ele>323.0</ele><time>2026-04-12T08:31:54.938Z</time></trkpt><trkpt lat="43.5885081" lon="6.8405575"><ele>323.0</ele><time>2026-04-12T08:31:56.956Z</time></trkpt><trkpt lat="43.588497" lon="6.8407193"><ele>323.0</ele><time>2026-04-12T08:31:58.909Z</time></trkpt><trkpt lat="43.5884872" lon="6.8408066"><ele>323.00000000000006</ele><time>2026-04-12T08:31:59.933Z</time></trkpt><trkpt lat="43.5884796" lon="6.8408999"><ele>323.0</ele><time>2026-04-12T08:32:00.931Z</time></trkpt><trkpt lat="43.5884723" lon="6.8409986"><ele>323.0</ele><time>2026-04-12T08:32:01.938Z</time></trkpt><trkpt lat="43.5884668" lon="6.841094"><ele>323.0</ele><time>2026-04-12T08:32:02.907Z</time></trkpt><trkpt lat="43.5884678" lon="6.8411957"><ele>323.0</ele><time>2026-04-12T08:32:03.932Z</time></trkpt><trkpt lat="43.5884699" lon="6.8412913"><ele>323.00000000000006</ele><time>2026-04-12T08:32:04.933Z</time></trkpt><trkpt lat="43.5884682" lon="6.8413955"><ele>323.0</ele><time>2026-04-12T08:32:05.941Z</time></trkpt><trkpt lat="43.588464" lon="6.8414964"><ele>323.5714285714286</ele><time>2026-04-12T08:32:06.942Z</time></trkpt><trkpt lat="43.5884589" lon="6.8416042"><ele>324.14285714285717</ele><time>2026-04-12T08:32:07.897Z</time></trkpt><trkpt lat="43.5884406" lon="6.8417053"><ele>324.7142857142857</ele><time>2026-04-12T08:32:08.967Z</time></trkpt><trkpt lat="43.5884253" lon="6.8418043"><ele>325.28571428571433</ele><time>2026-04-12T08:32:09.938Z</time></trkpt><trkpt lat="43.5884111" lon="6.8418959"><ele>325.8571428571429</ele><time>2026-04-12T08:32:10.931Z</time></trkpt><trkpt lat="43.5883948" lon="6.8419923"><ele>326.42857142857144</ele><time>2026-04-12T08:32:11.939Z</time></trkpt><trkpt lat="43.5883793" lon="6.8420853"><ele>327.0</ele><time>2026-04-12T08:32:12.934Z</time></trkpt><trkpt lat="43.588363" lon="6.8421782"><ele>327.0</ele><time>2026-04-12T08:32:13.927Z</time></trkpt><trkpt lat="43.5883419" lon="6.8422766"><ele>327.0</ele><time>2026-04-12T08:32:14.934Z</time></trkpt><trkpt lat="43.5883176" lon="6.8423664"><ele>327.0</ele><time>2026-04-12T08:32:15.934Z</time></trkpt><trkpt lat="43.5882806" lon="6.8424663"><ele>327.0</ele><time>2026-04-12T08:32:16.957Z</time></trkpt><trkpt lat="43.5882392" lon="6.84257"><ele>327.0</ele><time>2026-04-12T08:32:17.94Z</time></trkpt><trkpt lat="43.5881969" lon="6.8426779"><ele>327.0</ele><time>2026-04-12T08:32:18.928Z</time></trkpt><trkpt lat="43.5881578" lon="6.842794"><ele>326.6</ele><time>2026-04-12T08:32:19.945Z</time></trkpt><trkpt lat="43.5881245" lon="6.8429202"><ele>326.20000000000005</ele><time>2026-04-12T08:32:20.929Z</time></trkpt><trkpt lat="43.5881107" lon="6.8430575"><ele>325.8</ele><time>2026-04-12T08:32:21.93Z</time></trkpt><trkpt lat="43.5881063" lon="6.8431992"><ele>325.4</ele><time>2026-04-12T08:32:22.938Z</time></trkpt><trkpt lat="43.5881223" lon="6.843343"><ele>325.0</ele><time>2026-04-12T08:32:23.92Z</time></trkpt><trkpt lat="43.5881837" lon="6.8434711"><ele>327.5</ele><time>2026-04-12T08:32:24.939Z</time></trkpt><trkpt lat="43.5882832" lon="6.8435609"><ele>330.0</ele><time>2026-04-12T08:32:25.915Z</time></trkpt><trkpt lat="43.5884001" lon="6.8436162"><ele>332.5</ele><time>2026-04-12T08:32:26.932Z</time></trkpt><trkpt lat="43.5885089" lon="6.843684"><ele>335.0</ele><time>2026-04-12T08:32:27.917Z</time></trkpt><trkpt lat="43.5886142" lon="6.8437697"><ele>330.0</ele><time>2026-04-12T08:32:28.921Z</time></trkpt><trkpt lat="43.5887067" lon="6.8438996"><ele>325.0</ele><time>2026-04-12T08:32:29.949Z</time></trkpt><trkpt lat="43.58879" lon="6.844036"><ele>320.0</ele><time>2026-04-12T08:32:30.894Z</time></trkpt><trkpt lat="43.5888846" lon="6.8441704"><ele>315.0</ele><time>2026-04-12T08:32:31.94Z</time></trkpt><trkpt lat="43.5889913" lon="6.8442922"><ele>318.5</ele><time>2026-04-12T08:32:32.926Z</time></trkpt><trkpt lat="43.5891066" lon="6.8444038"><ele>322.0</ele><time>2026-04-12T08:32:33.932Z</time></trkpt><trkpt lat="43.5892328" lon="6.8445057"><ele>325.5</ele><time>2026-04-12T08:32:34.933Z</time></trkpt><trkpt lat="43.5893648" lon="6.8446051"><ele>329.0</ele><time>2026-04-12T08:32:35.883Z</time></trkpt><trkpt lat="43.5894975" lon="6.8447074"><ele>322.6666666666667</ele><time>2026-04-12T08:32:36.914Z</time></trkpt><trkpt lat="43.5896349" lon="6.8448081"><ele>316.3333333333333</ele><time>2026-04-12T08:32:37.93Z</time></trkpt><trkpt lat="43.5897849" lon="6.8448905"><ele>310.0</ele><time>2026-04-12T08:32:38.943Z</time></trkpt><trkpt lat="43.589939" lon="6.8449491"><ele>310.0</ele><time>2026-04-12T08:32:39.934Z</time></trkpt><trkpt lat="43.5900939" lon="6.8449907"><ele>310.0</ele><time>2026-04-12T08:32:40.931Z</time></trkpt><trkpt lat="43.5902497" lon="6.8450282"><ele>310.0</ele><time>2026-04-12T08:32:41.902Z</time></trkpt><trkpt lat="43.5904053" lon="6.8450742"><ele>313.66666666666663</ele><time>2026-04-12T08:32:42.916Z</time></trkpt><trkpt lat="43.5905543" lon="6.8451298"><ele>317.3333333333333</ele><time>2026-04-12T08:32:43.942Z</time></trkpt><trkpt lat="43.5907058" lon="6.8451786"><ele>321.0</ele><time>2026-04-12T08:32:44.94Z</time></trkpt><trkpt lat="43.5908599" lon="6.8452121"><ele>321.0</ele><time>2026-04-12T08:32:45.931Z</time></trkpt><trkpt lat="43.5910112" lon="6.845228"><ele>321.0</ele><time>2026-04-12T08:32:46.953Z</time></trkpt><trkpt lat="43.5911675" lon="6.845251"><ele>321.0</ele><time>2026-04-12T08:32:47.943Z</time></trkpt><trkpt lat="43.5913172" lon="6.8452868"><ele>313.0</ele><time>2026-04-12T08:32:48.934Z</time></trkpt><trkpt lat="43.5914476" lon="6.8453671"><ele>305.0</ele><time>2026-04-12T08:32:49.924Z</time></trkpt><trkpt lat="43.5915751" lon="6.8454948"><ele>297.0</ele><time>2026-04-12T08:32:50.891Z</time></trkpt><trkpt lat="43.5916863" lon="6.8456453"><ele>297.0</ele><time>2026-04-12T08:32:51.952Z</time></trkpt><trkpt lat="43.5918012" lon="6.845798"><ele>297.0</ele><time>2026-04-12T08:32:52.885Z</time></trkpt><trkpt lat="43.5919112" lon="6.8459617"><ele>297.0</ele><time>2026-04-12T08:32:53.883Z</time></trkpt><trkpt lat="43.592022" lon="6.8461128"><ele>293.3333333333333</ele><time>2026-04-12T08:32:54.939Z</time></trkpt><trkpt lat="43.5921532" lon="6.8462456"><ele>289.66666666666663</ele><time>2026-04-12T08:32:55.944Z</time></trkpt><trkpt lat="43.5922916" lon="6.8463694"><ele>286.0</ele><time>2026-04-12T08:32:56.926Z</time></trkpt><trkpt lat="43.5924173" lon="6.8464886"><ele>286.0</ele><time>2026-04-12T08:32:57.937Z</time></trkpt><trkpt lat="43.5925353" lon="6.8466438"><ele>286.0</ele><time>2026-04-12T08:32:58.954Z</time></trkpt><trkpt lat="43.5926403" lon="6.8468056"><ele>286.0</ele><time>2026-04-12T08:32:59.948Z</time></trkpt><trkpt lat="43.5927242" lon="6.8469875"><ele>289.66666666666663</ele><time>2026-04-12T08:33:00.923Z</time></trkpt><trkpt lat="43.592803" lon="6.8471816"><ele>293.3333333333333</ele><time>2026-04-12T08:33:01.958Z</time></trkpt><trkpt lat="43.5928913" lon="6.8473697"><ele>297.0</ele><time>2026-04-12T08:33:02.958Z</time></trkpt><trkpt lat="43.5929893" lon="6.8475546"><ele>287.6666666666667</ele><time>2026-04-12T08:33:03.95Z</time></trkpt><trkpt lat="43.593091" lon="6.8477266"><ele>278.33333333333337</ele><time>2026-04-12T08:33:04.95Z</time></trkpt><trkpt lat="43.5931905" lon="6.8479006"><ele>269.0</ele><time>2026-04-12T08:33:05.939Z</time></trkpt><trkpt lat="43.5932828" lon="6.8480818"><ele>269.0</ele><time>2026-04-12T08:33:06.944Z</time></trkpt><trkpt lat="43.5933624" lon="6.8482674"><ele>269.0</ele><time>2026-04-12T08:33:07.939Z</time></trkpt><trkpt lat="43.5934089" lon="6.8484414"><ele>269.0</ele><time>2026-04-12T08:33:08.946Z</time></trkpt><trkpt lat="43.593416" lon="6.8485901"><ele>269.0</ele><time>2026-04-12T08:33:09.95Z</time></trkpt><trkpt lat="43.5933797" lon="6.8487205"><ele>265.59999999999997</ele><time>2026-04-12T08:33:10.95Z</time></trkpt><trkpt lat="43.5933035" lon="6.8487954"><ele>262.2</ele><time>2026-04-12T08:33:11.955Z</time></trkpt><trkpt lat="43.5932028" lon="6.8488199"><ele>258.79999999999995</ele><time>2026-04-12T08:33:12.93Z</time></trkpt><trkpt lat="43.5930958" lon="6.8488133"><ele>255.39999999999998</ele><time>2026-04-12T08:33:13.911Z</time></trkpt><trkpt lat="43.5929784" lon="6.8488056"><ele>252.0</ele><time>2026-04-12T08:33:14.94Z</time></trkpt><trkpt lat="43.5928532" lon="6.8488211"><ele>252.5</ele><time>2026-04-12T08:33:15.901Z</time></trkpt><trkpt lat="43.5927224" lon="6.8488241"><ele>253.0</ele><time>2026-04-12T08:33:16.937Z</time></trkpt><trkpt lat="43.5925887" lon="6.8488489"><ele>253.5</ele><time>2026-04-12T08:33:17.959Z</time></trkpt><trkpt lat="43.5924548" lon="6.8488924"><ele>254.0</ele><time>2026-04-12T08:33:18.931Z</time></trkpt><trkpt lat="43.5923226" lon="6.8489599"><ele>254.0</ele><time>2026-04-12T08:33:19.916Z</time></trkpt><trkpt lat="43.5921822" lon="6.8490251"><ele>254.0</ele><time>2026-04-12T08:33:20.898Z</time></trkpt><trkpt lat="43.592047" lon="6.8491076"><ele>254.0</ele><time>2026-04-12T08:33:21.904Z</time></trkpt><trkpt lat="43.5919195" lon="6.8492121"><ele>254.0</ele><time>2026-04-12T08:33:22.939Z</time></trkpt><trkpt lat="43.5917958" lon="6.8493432"><ele>246.66666666666669</ele><time>2026-04-12T08:33:23.939Z</time></trkpt><trkpt lat="43.5916699" lon="6.8494697"><ele>239.33333333333331</ele><time>2026-04-12T08:33:24.928Z</time></trkpt><trkpt lat="43.5915315" lon="6.849555"><ele>232.0</ele><time>2026-04-12T08:33:25.929Z</time></trkpt><trkpt lat="43.5913805" lon="6.8495804"><ele>232.0</ele><time>2026-04-12T08:33:26.931Z</time></trkpt><trkpt lat="43.5912283" lon="6.8495722"><ele>232.0</ele><time>2026-04-12T08:33:27.932Z</time></trkpt><trkpt lat="43.5910723" lon="6.8495429"><ele>232.0</ele><time>2026-04-12T08:33:28.944Z</time></trkpt><trkpt lat="43.5909144" lon="6.8495193"><ele>228.33333333333331</ele><time>2026-04-12T08:33:29.912Z</time></trkpt><trkpt lat="43.5907553" lon="6.8494707"><ele>224.66666666666669</ele><time>2026-04-12T08:33:30.932Z</time></trkpt><trkpt lat="43.5906107" lon="6.8493873"><ele>221.0</ele><time>2026-04-12T08:33:31.946Z</time></trkpt><trkpt lat="43.5904713" lon="6.8492866"><ele>228.5</ele><time>2026-04-12T08:33:32.932Z</time></trkpt><trkpt lat="43.5903179" lon="6.8492326"><ele>236.0</ele><time>2026-04-12T08:33:33.942Z</time></trkpt><trkpt lat="43.5901752" lon="6.8492091"><ele>243.5</ele><time>2026-04-12T08:33:34.935Z</time></trkpt><trkpt lat="43.5900291" lon="6.8492008"><ele>251.0</ele><time>2026-04-12T08:33:35.94Z</time></trkpt><trkpt lat="43.5898894" lon="6.8492537"><ele>252.25</ele><time>2026-04-12T08:33:36.931Z</time></trkpt><trkpt lat="43.5897519" lon="6.8493154"><ele>253.5</ele><time>2026-04-12T08:33:37.938Z</time></trkpt><trkpt lat="43.5896325" lon="6.8493692"><ele>254.75</ele><time>2026-04-12T08:33:38.921Z</time></trkpt><trkpt lat="43.5895443" lon="6.8494452"><ele>256.0</ele><time>2026-04-12T08:33:39.924Z</time></trkpt><trkpt lat="43.589493" lon="6.8495794"><ele>256.0</ele><time>2026-04-12T08:33:40.948Z</time></trkpt><trkpt lat="43.5894963" lon="6.8497418"><ele>256.0</ele><time>2026-04-12T08:33:41.913Z</time></trkpt><trkpt lat="43.5895448" lon="6.849886"><ele>256.0</ele><time>2026-04-12T08:33:42.931Z</time></trkpt><trkpt lat="43.5895887" lon="6.8500303"><ele>256.0</ele><time>2026-04-12T08:33:43.935Z</time></trkpt><trkpt lat="43.5896111" lon="6.850196"><ele>251.0</ele><time>2026-04-12T08:33:44.896Z</time></trkpt><trkpt lat="43.5895835" lon="6.8503699"><ele>246.0</ele><time>2026-04-12T08:33:45.908Z</time></trkpt><trkpt lat="43.5895283" lon="6.8505378"><ele>241.0</ele><time>2026-04-12T08:33:46.909Z</time></trkpt><trkpt lat="43.5894679" lon="6.850707"><ele>236.0</ele><time>2026-04-12T08:33:47.952Z</time></trkpt><trkpt lat="43.5894103" lon="6.8508746"><ele>229.25</ele><time>2026-04-12T08:33:48.898Z</time></trkpt><trkpt lat="43.5893343" lon="6.8510425"><ele>222.5</ele><time>2026-04-12T08:33:49.909Z</time></trkpt><trkpt lat="43.5892384" lon="6.8511938"><ele>215.75</ele><time>2026-04-12T08:33:50.924Z</time></trkpt><trkpt lat="43.5891156" lon="6.8513192"><ele>209.0</ele><time>2026-04-12T08:33:51.929Z</time></trkpt><trkpt lat="43.5889978" lon="6.8514331"><ele>209.0</ele><time>2026-04-12T08:33:52.938Z</time></trkpt><trkpt lat="43.588906" lon="6.8516029"><ele>209.0</ele><time>2026-04-12T08:33:53.936Z</time></trkpt><trkpt lat="43.5888425" lon="6.8517875"><ele>209.0</ele><time>2026-04-12T08:33:54.945Z</time></trkpt><trkpt lat="43.5887706" lon="6.8519819"><ele>211.0</ele><time>2026-04-12T08:33:55.88Z</time></trkpt><trkpt lat="43.5886926" lon="6.8521565"><ele>213.0</ele><time>2026-04-12T08:33:56.892Z</time></trkpt><trkpt lat="43.588599" lon="6.8523242"><ele>215.0</ele><time>2026-04-12T08:33:57.917Z</time></trkpt><trkpt lat="43.58851" lon="6.8524761"><ele>217.0</ele><time>2026-04-12T08:33:58.93Z</time></trkpt><trkpt lat="43.5884207" lon="6.8525915"><ele>217.0</ele><time>2026-04-12T08:33:59.942Z</time></trkpt><trkpt lat="43.5883273" lon="6.8526626"><ele>217.0</ele><time>2026-04-12T08:34:00.941Z</time></trkpt><trkpt lat="43.5882081" lon="6.8526755"><ele>217.0</ele><time>2026-04-12T08:34:01.918Z</time></trkpt><trkpt lat="43.5880792" lon="6.8526332"><ele>217.0</ele><time>2026-04-12T08:34:02.91Z</time></trkpt><trkpt lat="43.5879566" lon="6.8525877"><ele>210.75</ele><time>2026-04-12T08:34:03.912Z</time></trkpt><trkpt lat="43.5878303" lon="6.8526233"><ele>204.5</ele><time>2026-04-12T08:34:04.941Z</time></trkpt><trkpt lat="43.5877294" lon="6.8527354"><ele>198.25</ele><time>2026-04-12T08:34:05.935Z</time></trkpt><trkpt lat="43.5876392" lon="6.852875"><ele>192.0</ele><time>2026-04-12T08:34:06.933Z</time></trkpt><trkpt lat="43.5875433" lon="6.8529853"><ele>192.0</ele><time>2026-04-12T08:34:07.916Z</time></trkpt><trkpt lat="43.5874355" lon="6.8530557"><ele>192.0</ele><time>2026-04-12T08:34:08.924Z</time></trkpt><trkpt lat="43.5872975" lon="6.8530526"><ele>192.0</ele><time>2026-04-12T08:34:09.917Z</time></trkpt><trkpt lat="43.5871672" lon="6.8530186"><ele>192.0</ele><time>2026-04-12T08:34:10.937Z</time></trkpt><trkpt lat="43.5870373" lon="6.8530184"><ele>193.25</ele><time>2026-04-12T08:34:11.928Z</time></trkpt><trkpt lat="43.5869309" lon="6.8530902"><ele>194.5</ele><time>2026-04-12T08:34:12.946Z</time></trkpt><trkpt lat="43.5868454" lon="6.853248"><ele>195.75</ele><time>2026-04-12T08:34:13.968Z</time></trkpt><trkpt lat="43.5868027" lon="6.8534247"><ele>197.0</ele><time>2026-04-12T08:34:14.914Z</time></trkpt><trkpt lat="43.5867664" lon="6.8536053"><ele>197.0</ele><time>2026-04-12T08:34:15.906Z</time></trkpt><trkpt lat="43.5867278" lon="6.8537888"><ele>197.0</ele><time>2026-04-12T08:34:16.921Z</time></trkpt><trkpt lat="43.5866719" lon="6.8539697"><ele>197.0</ele><time>2026-04-12T08:34:17.922Z</time></trkpt><trkpt lat="43.5865942" lon="6.8541412"><ele>197.0</ele><time>2026-04-12T08:34:18.925Z</time></trkpt><trkpt lat="43.5865251" lon="6.8543115"><ele>192.75</ele><time>2026-04-12T08:34:19.935Z</time></trkpt><trkpt lat="43.5864853" lon="6.8544966"><ele>188.5</ele><time>2026-04-12T08:34:20.935Z</time></trkpt><trkpt lat="43.586456" lon="6.8547062"><ele>184.25</ele><time>2026-04-12T08:34:21.943Z</time></trkpt><trkpt lat="43.5864306" lon="6.8549091"><ele>180.0</ele><time>2026-04-12T08:34:22.94Z</time></trkpt><trkpt lat="43.5863915" lon="6.8551071"><ele>179.5</ele><time>2026-04-12T08:34:23.926Z</time></trkpt><trkpt lat="43.5863529" lon="6.8553014"><ele>179.0</ele><time>2026-04-12T08:34:24.913Z</time></trkpt><trkpt lat="43.5863546" lon="6.8554988"><ele>178.5</ele><time>2026-04-12T08:34:25.951Z</time></trkpt><trkpt lat="43.5864049" lon="6.8556955"><ele>178.0</ele><time>2026-04-12T08:34:26.932Z</time></trkpt><trkpt lat="43.5864591" lon="6.8558865"><ele>179.0</ele><time>2026-04-12T08:34:27.915Z</time></trkpt><trkpt lat="43.5865359" lon="6.8560648"><ele>180.0</ele><time>2026-04-12T08:34:28.923Z</time></trkpt><trkpt lat="43.5866426" lon="6.8562064"><ele>181.0</ele><time>2026-04-12T08:34:29.897Z</time></trkpt><trkpt lat="43.5867625" lon="6.8563233"><ele>182.0</ele><time>2026-04-12T08:34:30.911Z</time></trkpt><trkpt lat="43.5868833" lon="6.8564313"><ele>182.0</ele><time>2026-04-12T08:34:31.949Z</time></trkpt><trkpt lat="43.5869896" lon="6.856527"><ele>182.0</ele><time>2026-04-12T08:34:32.949Z</time></trkpt><trkpt lat="43.5870621" lon="6.8566332"><ele>182.0</ele><time>2026-04-12T08:34:33.928Z</time></trkpt><trkpt lat="43.5870977" lon="6.8567682"><ele>182.0</ele><time>2026-04-12T08:34:34.928Z</time></trkpt><trkpt lat="43.5870647" lon="6.8568726"><ele>182.0</ele><time>2026-04-12T08:34:35.945Z</time></trkpt><trkpt lat="43.586983" lon="6.8569423"><ele>178.0</ele><time>2026-04-12T08:34:36.938Z</time></trkpt><trkpt lat="43.5868848" lon="6.8569794"><ele>174.0</ele><time>2026-04-12T08:34:37.935Z</time></trkpt><trkpt lat="43.5867833" lon="6.8570397"><ele>170.0</ele><time>2026-04-12T08:34:38.927Z</time></trkpt><trkpt lat="43.5866854" lon="6.8571273"><ele>166.0</ele><time>2026-04-12T08:34:39.948Z</time></trkpt><trkpt lat="43.5865959" lon="6.857232"><ele>162.0</ele><time>2026-04-12T08:34:40.915Z</time></trkpt><trkpt lat="43.5864997" lon="6.8573475"><ele>162.0</ele><time>2026-04-12T08:34:41.937Z</time></trkpt><trkpt lat="43.5864081" lon="6.8574797"><ele>162.0</ele><time>2026-04-12T08:34:42.943Z</time></trkpt><trkpt lat="43.5863206" lon="6.8576257"><ele>162.0</ele><time>2026-04-12T08:34:43.941Z</time></trkpt><trkpt lat="43.586242" lon="6.8577896"><ele>162.0</ele><time>2026-04-12T08:34:44.939Z</time></trkpt><trkpt lat="43.586148" lon="6.8579294"><ele>162.0</ele><time>2026-04-12T08:34:45.932Z</time></trkpt><trkpt lat="43.5860319" lon="6.8580196"><ele>162.0</ele><time>2026-04-12T08:34:46.915Z</time></trkpt><trkpt lat="43.585907" lon="6.8580917"><ele>162.0</ele><time>2026-04-12T08:34:47.929Z</time></trkpt><trkpt lat="43.5857836" lon="6.858215"><ele>162.0</ele><time>2026-04-12T08:34:48.937Z</time></trkpt><trkpt lat="43.5856901" lon="6.858372"><ele>160.25</ele><time>2026-04-12T08:34:49.942Z</time></trkpt><trkpt lat="43.5856105" lon="6.8585446"><ele>158.5</ele><time>2026-04-12T08:34:50.928Z</time></trkpt><trkpt lat="43.5855393" lon="6.8587167"><ele>156.75</ele><time>2026-04-12T08:34:51.936Z</time></trkpt><trkpt lat="43.5854718" lon="6.858886"><ele>155.0</ele><time>2026-04-12T08:34:52.93Z</time></trkpt><trkpt lat="43.5854194" lon="6.8590515"><ele>155.0</ele><time>2026-04-12T08:34:53.925Z</time></trkpt><trkpt lat="43.585402" lon="6.8591958"><ele>155.0</ele><time>2026-04-12T08:34:54.938Z</time></trkpt><trkpt lat="43.5854142" lon="6.8593249"><ele>155.0</ele><time>2026-04-12T08:34:55.95Z</time></trkpt><trkpt lat="43.5854769" lon="6.8594178"><ele>155.0</ele><time>2026-04-12T08:34:56.93Z</time></trkpt><trkpt lat="43.5855585" lon="6.8594924"><ele>155.0</ele><time>2026-04-12T08:34:57.905Z</time></trkpt><trkpt lat="43.5856409" lon="6.8595693"><ele>156.2</ele><time>2026-04-12T08:34:58.915Z</time></trkpt><trkpt lat="43.5857265" lon="6.8596562"><ele>157.4</ele><time>2026-04-12T08:34:59.926Z</time></trkpt><trkpt lat="43.5858119" lon="6.8597469"><ele>158.60000000000002</ele><time>2026-04-12T08:35:00.912Z</time></trkpt><trkpt lat="43.5859067" lon="6.859806"><ele>159.8</ele><time>2026-04-12T08:35:01.93Z</time></trkpt><trkpt lat="43.5860068" lon="6.859789"><ele>161.0</ele><time>2026-04-12T08:35:02.91Z</time></trkpt><trkpt lat="43.5860832" lon="6.8597133"><ele>161.0</ele><time>2026-04-12T08:35:03.925Z</time></trkpt><trkpt lat="43.5861309" lon="6.8596061"><ele>161.0</ele><time>2026-04-12T08:35:04.927Z</time></trkpt><trkpt lat="43.5861788" lon="6.8595004"><ele>161.0</ele><time>2026-04-12T08:35:05.953Z</time></trkpt><trkpt lat="43.586224" lon="6.8594134"><ele>161.0</ele><time>2026-04-12T08:35:06.935Z</time></trkpt><trkpt lat="43.586264" lon="6.8593294"><ele>161.0</ele><time>2026-04-12T08:35:07.924Z</time></trkpt><trkpt lat="43.5863112" lon="6.8592495"><ele>161.0</ele><time>2026-04-12T08:35:08.912Z</time></trkpt><trkpt lat="43.5863566" lon="6.8591698"><ele>163.0</ele><time>2026-04-12T08:35:09.919Z</time></trkpt><trkpt lat="43.5863992" lon="6.8590924"><ele>165.0</ele><time>2026-04-12T08:35:10.93Z</time></trkpt><trkpt lat="43.5864478" lon="6.8590251"><ele>167.0</ele><time>2026-04-12T08:35:11.924Z</time></trkpt><trkpt lat="43.5864964" lon="6.8589625"><ele>169.0</ele><time>2026-04-12T08:35:12.931Z</time></trkpt><trkpt lat="43.586542" lon="6.8588985"><ele>171.0</ele><time>2026-04-12T08:35:13.934Z</time></trkpt><trkpt lat="43.5865895" lon="6.8588407"><ele>173.0</ele><time>2026-04-12T08:35:14.939Z</time></trkpt><trkpt lat="43.5866758" lon="6.8587298"><ele>173.0</ele><time>2026-04-12T08:35:16.927Z</time></trkpt><trkpt lat="43.586751" lon="6.858614"><ele>173.0</ele><time>2026-04-12T08:35:18.939Z</time></trkpt><trkpt lat="43.5868183" lon="6.8584932"><ele>173.0</ele><time>2026-04-12T08:35:20.935Z</time></trkpt><trkpt lat="43.5868933" lon="6.85838"><ele>173.0</ele><time>2026-04-12T08:35:22.931Z</time></trkpt><trkpt lat="43.5869702" lon="6.8582832"><ele>173.0</ele><time>2026-04-12T08:35:24.934Z</time></trkpt><trkpt lat="43.5870603" lon="6.8582235"><ele>173.60000000000002</ele><time>2026-04-12T08:35:26.914Z</time></trkpt><trkpt lat="43.5871605" lon="6.8582041"><ele>174.20000000000002</ele><time>2026-04-12T08:35:28.921Z</time></trkpt><trkpt lat="43.58726" lon="6.8581979"><ele>174.8</ele><time>2026-04-12T08:35:30.937Z</time></trkpt><trkpt lat="43.5873552" lon="6.8582051"><ele>175.4</ele><time>2026-04-12T08:35:32.919Z</time></trkpt><trkpt lat="43.5874506" lon="6.8582016"><ele>176.0</ele><time>2026-04-12T08:35:34.93Z</time></trkpt><trkpt lat="43.5875477" lon="6.8581962"><ele>176.0</ele><time>2026-04-12T08:35:36.929Z</time></trkpt><trkpt lat="43.5876338" lon="6.8581605"><ele>176.0</ele><time>2026-04-12T08:35:38.943Z</time></trkpt><trkpt lat="43.587721" lon="6.8581007"><ele>176.0</ele><time>2026-04-12T08:35:40.938Z</time></trkpt><trkpt lat="43.5878045" lon="6.858033"><ele>176.0</ele><time>2026-04-12T08:35:42.939Z</time></trkpt><trkpt lat="43.5878778" lon="6.8579727"><ele>176.0</ele><time>2026-04-12T08:35:44.92Z</time></trkpt><trkpt lat="43.5879428" lon="6.8578867"><ele>177.33333333333331</ele><time>2026-04-12T08:35:46.936Z</time></trkpt><trkpt lat="43.5879904" lon="6.8577795"><ele>178.66666666666666</ele><time>2026-04-12T08:35:48.918Z</time></trkpt><trkpt lat="43.5880172" lon="6.8576563"><ele>180.0</ele><time>2026-04-12T08:35:50.881Z</time></trkpt><trkpt lat="43.5880376" lon="6.857539"><ele>181.33333333333334</ele><time>2026-04-12T08:35:52.916Z</time></trkpt><trkpt lat="43.5880702" lon="6.8574291"><ele>182.66666666666669</ele><time>2026-04-12T08:35:54.936Z</time></trkpt><trkpt lat="43.5881206" lon="6.8573503"><ele>184.0</ele><time>2026-04-12T08:35:56.878Z</time></trkpt><trkpt lat="43.5881811" lon="6.8572953"><ele>184.0</ele><time>2026-04-12T08:35:58.923Z</time></trkpt><trkpt lat="43.5882457" lon="6.857256"><ele>184.0</ele><time>2026-04-12T08:36:00.9Z</time></trkpt><trkpt lat="43.588313" lon="6.8572269"><ele>184.0</ele><time>2026-04-12T08:36:02.928Z</time></trkpt><trkpt lat="43.588381" lon="6.8571658"><ele>184.0</ele><time>2026-04-12T08:36:04.934Z</time></trkpt><trkpt lat="43.5884355" lon="6.8570749"><ele>184.0</ele><time>2026-04-12T08:36:06.947Z</time></trkpt><trkpt lat="43.5884578" lon="6.8569739"><ele>184.0</ele><time>2026-04-12T08:36:08.927Z</time></trkpt><trkpt lat="43.5884485" lon="6.8568707"><ele>181.33333333333334</ele><time>2026-04-12T08:36:10.895Z</time></trkpt><trkpt lat="43.5884218" lon="6.8567623"><ele>178.66666666666669</ele><time>2026-04-12T08:36:12.924Z</time></trkpt><trkpt lat="43.5884134" lon="6.8566515"><ele>176.0</ele><time>2026-04-12T08:36:14.936Z</time></trkpt><trkpt lat="43.5884277" lon="6.8565532"><ele>173.33333333333334</ele><time>2026-04-12T08:36:16.912Z</time></trkpt><trkpt lat="43.5884564" lon="6.856465"><ele>170.66666666666666</ele><time>2026-04-12T08:36:18.918Z</time></trkpt><trkpt lat="43.5884971" lon="6.8563726"><ele>168.0</ele><time>2026-04-12T08:36:20.918Z</time></trkpt><trkpt lat="43.5885433" lon="6.8562933"><ele>168.0</ele><time>2026-04-12T08:36:22.923Z</time></trkpt><trkpt lat="43.5886006" lon="6.8562271"><ele>168.0</ele><time>2026-04-12T08:36:24.92Z</time></trkpt><trkpt lat="43.5886741" lon="6.856188"><ele>168.0</ele><time>2026-04-12T08:36:26.947Z</time></trkpt><trkpt lat="43.5887543" lon="6.8561618"><ele>168.0</ele><time>2026-04-12T08:36:28.938Z</time></trkpt><trkpt lat="43.5888354" lon="6.8561356"><ele>168.0</ele><time>2026-04-12T08:36:30.915Z</time></trkpt><trkpt lat="43.5889159" lon="6.856124"><ele>168.0</ele><time>2026-04-12T08:36:32.908Z</time></trkpt><trkpt lat="43.5889945" lon="6.8561201"><ele>173.66666666666666</ele><time>2026-04-12T08:36:34.916Z</time></trkpt><trkpt lat="43.5890721" lon="6.8561187"><ele>179.33333333333331</ele><time>2026-04-12T08:36:36.939Z</time></trkpt><trkpt lat="43.5891584" lon="6.8561292"><ele>185.0</ele><time>2026-04-12T08:36:38.948Z</time></trkpt><trkpt lat="43.5892484" lon="6.8561463"><ele>190.66666666666666</ele><time>2026-04-12T08:36:40.937Z</time></trkpt><trkpt lat="43.5893364" lon="6.8561487"><ele>196.33333333333331</ele><time>2026-04-12T08:36:42.942Z</time></trkpt><trkpt lat="43.5894189" lon="6.8561555"><ele>202.0</ele><time>2026-04-12T08:36:44.937Z</time></trkpt><trkpt lat="43.5895056" lon="6.8561525"><ele>202.83333333333331</ele><time>2026-04-12T08:36:46.912Z</time></trkpt><trkpt lat="43.5895898" lon="6.8561676"><ele>203.66666666666666</ele><time>2026-04-12T08:36:48.933Z</time></trkpt><trkpt lat="43.5896712" lon="6.8561797"><ele>204.5</ele><time>2026-04-12T08:36:50.937Z</time></trkpt><trkpt lat="43.589757" lon="6.8561865"><ele>205.33333333333331</ele><time>2026-04-12T08:36:52.933Z</time></trkpt><trkpt lat="43.5898364" lon="6.8562"><ele>206.16666666666666</ele><time>2026-04-12T08:36:54.923Z</time></trkpt><trkpt lat="43.5899149" lon="6.8562334"><ele>207.0</ele><time>2026-04-12T08:36:56.912Z</time></trkpt><trkpt lat="43.5899955" lon="6.8562774"><ele>207.0</ele><time>2026-04-12T08:36:58.925Z</time></trkpt><trkpt lat="43.5900694" lon="6.8563196"><ele>207.0</ele><time>2026-04-12T08:37:00.938Z</time></trkpt><trkpt lat="43.5901446" lon="6.856367"><ele>207.0</ele><time>2026-04-12T08:37:02.938Z</time></trkpt><trkpt lat="43.5902149" lon="6.8564042"><ele>207.0</ele><time>2026-04-12T08:37:04.917Z</time></trkpt><trkpt lat="43.5903021" lon="6.8564056"><ele>207.0</ele><time>2026-04-12T08:37:06.928Z</time></trkpt><trkpt lat="43.5903805" lon="6.8563444"><ele>207.0</ele><time>2026-04-12T08:37:08.959Z</time></trkpt><trkpt lat="43.5904471" lon="6.8562547"><ele>207.66666666666666</ele><time>2026-04-12T08:37:10.932Z</time></trkpt><trkpt lat="43.5904902" lon="6.8561546"><ele>208.33333333333331</ele><time>2026-04-12T08:37:12.936Z</time></trkpt><trkpt lat="43.5905269" lon="6.8560459"><ele>209.0</ele><time>2026-04-12T08:37:14.906Z</time></trkpt><trkpt lat="43.5905612" lon="6.8559332"><ele>209.66666666666666</ele><time>2026-04-12T08:37:16.944Z</time></trkpt><trkpt lat="43.5905932" lon="6.8558242"><ele>210.33333333333331</ele><time>2026-04-12T08:37:18.915Z</time></trkpt><trkpt lat="43.5906192" lon="6.855717"><ele>211.0</ele><time>2026-04-12T08:37:20.93Z</time></trkpt><trkpt lat="43.5906508" lon="6.8556111"><ele>210.99999999999997</ele><time>2026-04-12T08:37:22.934Z</time></trkpt><trkpt lat="43.5906828" lon="6.8555121"><ele>211.0</ele><time>2026-04-12T08:37:24.946Z</time></trkpt><trkpt lat="43.5907204" lon="6.8554134"><ele>211.0</ele><time>2026-04-12T08:37:26.934Z</time></trkpt><trkpt lat="43.590769" lon="6.8553163"><ele>211.0</ele><time>2026-04-12T08:37:28.934Z</time></trkpt><trkpt lat="43.5908233" lon="6.8552362"><ele>210.99999999999997</ele><time>2026-04-12T08:37:30.901Z</time></trkpt><trkpt lat="43.5908788" lon="6.8551474"><ele>211.0</ele><time>2026-04-12T08:37:32.934Z</time></trkpt><trkpt lat="43.5909389" lon="6.855059"><ele>211.66666666666666</ele><time>2026-04-12T08:37:34.926Z</time></trkpt><trkpt lat="43.5909894" lon="6.8549593"><ele>212.33333333333331</ele><time>2026-04-12T08:37:36.928Z</time></trkpt><trkpt lat="43.5910433" lon="6.8548715"><ele>213.0</ele><time>2026-04-12T08:37:38.941Z</time></trkpt><trkpt lat="43.5910957" lon="6.8547753"><ele>213.66666666666669</ele><time>2026-04-12T08:37:40.921Z</time></trkpt><trkpt lat="43.5911589" lon="6.8546915"><ele>214.33333333333334</ele><time>2026-04-12T08:37:42.925Z</time></trkpt><trkpt lat="43.5912229" lon="6.8546148"><ele>215.0</ele><time>2026-04-12T08:37:44.923Z</time></trkpt><trkpt lat="43.5913022" lon="6.8545527"><ele>215.00000000000003</ele><time>2026-04-12T08:37:46.905Z</time></trkpt><trkpt lat="43.5913859" lon="6.8545083"><ele>215.0</ele><time>2026-04-12T08:37:48.939Z</time></trkpt><trkpt lat="43.5914634" lon="6.854492"><ele>215.0</ele><time>2026-04-12T08:37:50.914Z</time></trkpt><trkpt lat="43.5915453" lon="6.8544944"><ele>215.0</ele><time>2026-04-12T08:37:52.936Z</time></trkpt><trkpt lat="43.5916328" lon="6.8545415"><ele>215.00000000000003</ele><time>2026-04-12T08:37:54.925Z</time></trkpt><trkpt lat="43.5917007" lon="6.8545995"><ele>215.0</ele><time>2026-04-12T08:37:56.928Z</time></trkpt><trkpt lat="43.5917526" lon="6.8546836"><ele>215.00000000000003</ele><time>2026-04-12T08:37:58.93Z</time></trkpt><trkpt lat="43.5918011" lon="6.8547767"><ele>215.0</ele><time>2026-04-12T08:38:00.924Z</time></trkpt><trkpt lat="43.5918463" lon="6.8548791"><ele>215.0</ele><time>2026-04-12T08:38:02.942Z</time></trkpt><trkpt lat="43.5918841" lon="6.8549773"><ele>215.0</ele><time>2026-04-12T08:38:04.949Z</time></trkpt><trkpt lat="43.5919284" lon="6.8550647"><ele>215.00000000000003</ele><time>2026-04-12T08:38:06.946Z</time></trkpt><trkpt lat="43.5919835" lon="6.8551431"><ele>215.0</ele><time>2026-04-12T08:38:08.953Z</time></trkpt><trkpt lat="43.5920354" lon="6.8552235"><ele>216.83333333333334</ele><time>2026-04-12T08:38:10.933Z</time></trkpt><trkpt lat="43.5920946" lon="6.8553014"><ele>218.66666666666669</ele><time>2026-04-12T08:38:12.952Z</time></trkpt><trkpt lat="43.5921541" lon="6.855364"><ele>220.5</ele><time>2026-04-12T08:38:14.932Z</time></trkpt><trkpt lat="43.5922172" lon="6.8554226"><ele>222.33333333333331</ele><time>2026-04-12T08:38:16.938Z</time></trkpt><trkpt lat="43.5922827" lon="6.8554808"><ele>224.16666666666666</ele><time>2026-04-12T08:38:18.927Z</time></trkpt><trkpt lat="43.5923467" lon="6.8555283"><ele>226.0</ele><time>2026-04-12T08:38:20.928Z</time></trkpt><trkpt lat="43.5924099" lon="6.8555859"><ele>225.99999999999997</ele><time>2026-04-12T08:38:22.936Z</time></trkpt><trkpt lat="43.5924812" lon="6.8556427"><ele>226.0</ele><time>2026-04-12T08:38:24.935Z</time></trkpt><trkpt lat="43.5925487" lon="6.855719"><ele>226.0</ele><time>2026-04-12T08:38:26.947Z</time></trkpt><trkpt lat="43.5926055" lon="6.8557918"><ele>226.0</ele><time>2026-04-12T08:38:28.934Z</time></trkpt><trkpt lat="43.592656" lon="6.8558707"><ele>225.99999999999997</ele><time>2026-04-12T08:38:30.931Z</time></trkpt><trkpt lat="43.5927172" lon="6.8559502"><ele>226.0</ele><time>2026-04-12T08:38:32.932Z</time></trkpt><trkpt lat="43.5927831" lon="6.8560096"><ele>228.14285714285717</ele><time>2026-04-12T08:38:34.937Z</time></trkpt><trkpt lat="43.5928465" lon="6.8560371"><ele>230.28571428571428</ele><time>2026-04-12T08:38:36.927Z</time></trkpt><trkpt lat="43.5929157" lon="6.8560653"><ele>232.42857142857144</ele><time>2026-04-12T08:38:38.946Z</time></trkpt><trkpt lat="43.5929907" lon="6.8560976"><ele>234.57142857142858</ele><time>2026-04-12T08:38:40.94Z</time></trkpt><trkpt lat="43.593064" lon="6.8561387"><ele>236.71428571428572</ele><time>2026-04-12T08:38:42.941Z</time></trkpt><trkpt lat="43.5931323" lon="6.8561827"><ele>238.85714285714286</ele><time>2026-04-12T08:38:44.934Z</time></trkpt><trkpt lat="43.5931928" lon="6.8562416"><ele>241.0</ele><time>2026-04-12T08:38:46.918Z</time></trkpt><trkpt lat="43.5932482" lon="6.856308"><ele>241.0</ele><time>2026-04-12T08:38:48.92Z</time></trkpt><trkpt lat="43.593307" lon="6.8563757"><ele>241.00000000000003</ele><time>2026-04-12T08:38:50.925Z</time></trkpt><trkpt lat="43.5933679" lon="6.8564275"><ele>241.0</ele><time>2026-04-12T08:38:52.946Z</time></trkpt><trkpt lat="43.59344" lon="6.8564514"><ele>241.0</ele><time>2026-04-12T08:38:54.923Z</time></trkpt><trkpt lat="43.5935106" lon="6.8564692"><ele>241.00000000000003</ele><time>2026-04-12T08:38:56.94Z</time></trkpt><trkpt lat="43.5935779" lon="6.8564889"><ele>241.0</ele><time>2026-04-12T08:38:58.927Z</time></trkpt><trkpt lat="43.5936313" lon="6.8565505"><ele>241.0</ele><time>2026-04-12T08:39:00.922Z</time></trkpt><trkpt lat="43.5936986" lon="6.8565902"><ele>241.66666666666666</ele><time>2026-04-12T08:39:02.926Z</time></trkpt><trkpt lat="43.5937695" lon="6.8566365"><ele>242.33333333333331</ele><time>2026-04-12T08:39:04.906Z</time></trkpt><trkpt lat="43.5938365" lon="6.8567065"><ele>243.0</ele><time>2026-04-12T08:39:06.908Z</time></trkpt><trkpt lat="43.5939" lon="6.8567786"><ele>243.66666666666669</ele><time>2026-04-12T08:39:08.933Z</time></trkpt><trkpt lat="43.5939503" lon="6.8568591"><ele>244.33333333333334</ele><time>2026-04-12T08:39:10.91Z</time></trkpt><trkpt lat="43.5939987" lon="6.856945"><ele>245.0</ele><time>2026-04-12T08:39:12.954Z</time></trkpt><trkpt lat="43.5940401" lon="6.8570418"><ele>245.00000000000003</ele><time>2026-04-12T08:39:14.933Z</time></trkpt><trkpt lat="43.5940763" lon="6.857146"><ele>245.0</ele><time>2026-04-12T08:39:16.944Z</time></trkpt><trkpt lat="43.594105" lon="6.8572507"><ele>245.0</ele><time>2026-04-12T08:39:18.935Z</time></trkpt><trkpt lat="43.5941307" lon="6.8573476"><ele>245.0</ele><time>2026-04-12T08:39:20.943Z</time></trkpt><trkpt lat="43.5941676" lon="6.8574342"><ele>245.00000000000003</ele><time>2026-04-12T08:39:22.895Z</time></trkpt><trkpt lat="43.5942061" lon="6.857526"><ele>245.0</ele><time>2026-04-12T08:39:24.921Z</time></trkpt><trkpt lat="43.5942343" lon="6.8576112"><ele>248.28571428571428</ele><time>2026-04-12T08:39:26.935Z</time></trkpt><trkpt lat="43.5942648" lon="6.8576972"><ele>251.57142857142856</ele><time>2026-04-12T08:39:28.942Z</time></trkpt><trkpt lat="43.5942986" lon="6.8577852"><ele>254.85714285714286</ele><time>2026-04-12T08:39:30.942Z</time></trkpt><trkpt lat="43.5943452" lon="6.8578634"><ele>258.1428571428571</ele><time>2026-04-12T08:39:32.947Z</time></trkpt><trkpt lat="43.5944009" lon="6.8579149"><ele>261.42857142857144</ele><time>2026-04-12T08:39:34.957Z</time></trkpt><trkpt lat="43.5944738" lon="6.8579296"><ele>264.7142857142857</ele><time>2026-04-12T08:39:36.936Z</time></trkpt><trkpt lat="43.5945558" lon="6.8579289"><ele>268.0</ele><time>2026-04-12T08:39:38.914Z</time></trkpt><trkpt lat="43.5946332" lon="6.8579294"><ele>268.0</ele><time>2026-04-12T08:39:40.949Z</time></trkpt><trkpt lat="43.5947116" lon="6.8579383"><ele>268.0</ele><time>2026-04-12T08:39:42.931Z</time></trkpt><trkpt lat="43.5947924" lon="6.8579474"><ele>268.0</ele><time>2026-04-12T08:39:44.941Z</time></trkpt><trkpt lat="43.5948672" lon="6.8579262"><ele>268.0</ele><time>2026-04-12T08:39:46.942Z</time></trkpt><trkpt lat="43.5949361" lon="6.8578524"><ele>268.0</ele><time>2026-04-12T08:39:48.956Z</time></trkpt><trkpt lat="43.5949979" lon="6.857781"><ele>268.0</ele><time>2026-04-12T08:39:50.943Z</time></trkpt><trkpt lat="43.5950594" lon="6.8577214"><ele>268.0</ele><time>2026-04-12T08:39:52.917Z</time></trkpt><trkpt lat="43.5951232" lon="6.8576644"><ele>268.0</ele><time>2026-04-12T08:39:54.931Z</time></trkpt><trkpt lat="43.5951861" lon="6.8576045"><ele>268.0</ele><time>2026-04-12T08:39:56.945Z</time></trkpt><trkpt lat="43.5952525" lon="6.8575517"><ele>268.0</ele><time>2026-04-12T08:39:58.917Z</time></trkpt><trkpt lat="43.5953196" lon="6.8574994"><ele>268.0</ele><time>2026-04-12T08:40:00.923Z</time></trkpt><trkpt lat="43.5953904" lon="6.8574561"><ele>268.0</ele><time>2026-04-12T08:40:02.931Z</time></trkpt><trkpt lat="43.59546" lon="6.8574216"><ele>266.57142857142856</ele><time>2026-04-12T08:40:04.938Z</time></trkpt><trkpt lat="43.5955313" lon="6.8574042"><ele>265.1428571428571</ele><time>2026-04-12T08:40:06.916Z</time></trkpt><trkpt lat="43.5956054" lon="6.8573954"><ele>263.71428571428567</ele><time>2026-04-12T08:40:08.936Z</time></trkpt><trkpt lat="43.5956806" lon="6.857392"><ele>262.2857142857143</ele><time>2026-04-12T08:40:10.916Z</time></trkpt><trkpt lat="43.5957554" lon="6.8573949"><ele>260.85714285714283</ele><time>2026-04-12T08:40:12.925Z</time></trkpt><trkpt lat="43.5958271" lon="6.8573997"><ele>259.4285714285714</ele><time>2026-04-12T08:40:14.938Z</time></trkpt><trkpt lat="43.5959014" lon="6.8573794"><ele>258.0</ele><time>2026-04-12T08:40:16.943Z</time></trkpt><trkpt lat="43.5959735" lon="6.8573461"><ele>258.0</ele><time>2026-04-12T08:40:18.927Z</time></trkpt><trkpt lat="43.5960464" lon="6.8573015"><ele>258.0</ele><time>2026-04-12T08:40:20.929Z</time></trkpt><trkpt lat="43.5961282" lon="6.8572476"><ele>258.0</ele><time>2026-04-12T08:40:22.934Z</time></trkpt><trkpt lat="43.5962043" lon="6.8572005"><ele>258.0</ele><time>2026-04-12T08:40:24.937Z</time></trkpt><trkpt lat="43.5962815" lon="6.8571526"><ele>258.0</ele><time>2026-04-12T08:40:26.894Z</time></trkpt><trkpt lat="43.5963602" lon="6.8570944"><ele>258.0</ele><time>2026-04-12T08:40:28.914Z</time></trkpt><trkpt lat="43.5964351" lon="6.8570415"><ele>256.85714285714283</ele><time>2026-04-12T08:40:30.918Z</time></trkpt><trkpt lat="43.5965056" lon="6.8569974"><ele>255.71428571428572</ele><time>2026-04-12T08:40:32.926Z</time></trkpt><trkpt lat="43.5965694" lon="6.8569601"><ele>254.57142857142856</ele><time>2026-04-12T08:40:34.916Z</time></trkpt><trkpt lat="43.5966336" lon="6.8569131"><ele>253.42857142857142</ele><time>2026-04-12T08:40:36.926Z</time></trkpt><trkpt lat="43.596701" lon="6.8568788"><ele>252.28571428571428</ele><time>2026-04-12T08:40:38.935Z</time></trkpt><trkpt lat="43.5967703" lon="6.8568369"><ele>251.14285714285714</ele><time>2026-04-12T08:40:40.927Z</time></trkpt><trkpt lat="43.5968407" lon="6.8567949"><ele>250.0</ele><time>2026-04-12T08:40:42.925Z</time></trkpt><trkpt lat="43.5969125" lon="6.8567591"><ele>249.99999999999997</ele><time>2026-04-12T08:40:44.939Z</time></trkpt><trkpt lat="43.5969843" lon="6.8567283"><ele>250.0</ele><time>2026-04-12T08:40:46.922Z</time></trkpt><trkpt lat="43.5970618" lon="6.8567113"><ele>250.0</ele><time>2026-04-12T08:40:48.937Z</time></trkpt><trkpt lat="43.5971404" lon="6.8567042"><ele>250.0</ele><time>2026-04-12T08:40:50.925Z</time></trkpt><trkpt lat="43.5972279" lon="6.8567139"><ele>249.99999999999997</ele><time>2026-04-12T08:40:52.924Z</time></trkpt><trkpt lat="43.5973152" lon="6.856722"><ele>250.0</ele><time>2026-04-12T08:40:54.941Z</time></trkpt><trkpt lat="43.5974012" lon="6.8567327"><ele>252.16666666666666</ele><time>2026-04-12T08:40:56.949Z</time></trkpt><trkpt lat="43.5974825" lon="6.8567493"><ele>254.33333333333331</ele><time>2026-04-12T08:40:58.936Z</time></trkpt><trkpt lat="43.5975657" lon="6.8567679"><ele>256.5</ele><time>2026-04-12T08:41:00.907Z</time></trkpt><trkpt lat="43.5976448" lon="6.8567848"><ele>258.6666666666667</ele><time>2026-04-12T08:41:02.924Z</time></trkpt><trkpt lat="43.597721" lon="6.8568073"><ele>260.83333333333337</ele><time>2026-04-12T08:41:04.933Z</time></trkpt><trkpt lat="43.597796" lon="6.8568244"><ele>263.0</ele><time>2026-04-12T08:41:06.927Z</time></trkpt><trkpt lat="43.5978715" lon="6.8568324"><ele>264.1666666666667</ele><time>2026-04-12T08:41:08.941Z</time></trkpt><trkpt lat="43.5979544" lon="6.8568539"><ele>265.33333333333337</ele><time>2026-04-12T08:41:10.941Z</time></trkpt><trkpt lat="43.598039" lon="6.8568624"><ele>266.5</ele><time>2026-04-12T08:41:12.942Z</time></trkpt><trkpt lat="43.5981274" lon="6.8568553"><ele>267.6666666666667</ele><time>2026-04-12T08:41:14.921Z</time></trkpt><trkpt lat="43.5982046" lon="6.8568307"><ele>268.8333333333333</ele><time>2026-04-12T08:41:16.942Z</time></trkpt><trkpt lat="43.5982759" lon="6.856777"><ele>270.0</ele><time>2026-04-12T08:41:18.935Z</time></trkpt><trkpt lat="43.5983497" lon="6.8567056"><ele>270.0</ele><time>2026-04-12T08:41:20.926Z</time></trkpt><trkpt lat="43.5984205" lon="6.8566358"><ele>270.0</ele><time>2026-04-12T08:41:22.942Z</time></trkpt><trkpt lat="43.598491" lon="6.8565633"><ele>270.0</ele><time>2026-04-12T08:41:24.923Z</time></trkpt><trkpt lat="43.5985715" lon="6.8565077"><ele>270.0</ele><time>2026-04-12T08:41:26.944Z</time></trkpt><trkpt lat="43.5986487" lon="6.8565207"><ele>270.0</ele><time>2026-04-12T08:41:28.947Z</time></trkpt><trkpt lat="43.5986777" lon="6.8566224"><ele>270.0</ele><time>2026-04-12T08:41:30.932Z</time></trkpt><trkpt lat="43.5986373" lon="6.8567036"><ele>270.0</ele><time>2026-04-12T08:41:32.95Z</time></trkpt><trkpt lat="43.5985816" lon="6.8567575"><ele>270.0</ele><time>2026-04-12T08:41:34.932Z</time></trkpt><trkpt lat="43.5985134" lon="6.8568145"><ele>270.0</ele><time>2026-04-12T08:41:36.955Z</time></trkpt><trkpt lat="43.5984473" lon="6.8568767"><ele>270.0</ele><time>2026-04-12T08:41:38.939Z</time></trkpt><trkpt lat="43.5983816" lon="6.8569492"><ele>270.0</ele><time>2026-04-12T08:41:40.935Z</time></trkpt><trkpt lat="43.5983194" lon="6.8570445"><ele>270.0</ele><time>2026-04-12T08:41:42.926Z</time></trkpt><trkpt lat="43.5982549" lon="6.8571092"><ele>272.3333333333333</ele><time>2026-04-12T08:41:44.906Z</time></trkpt><trkpt lat="43.5981725" lon="6.8571642"><ele>274.6666666666667</ele><time>2026-04-12T08:41:46.947Z</time></trkpt><trkpt lat="43.5980916" lon="6.8571869"><ele>277.0</ele><time>2026-04-12T08:41:48.952Z</time></trkpt><trkpt lat="43.598007" lon="6.8572112"><ele>279.33333333333337</ele><time>2026-04-12T08:41:50.904Z</time></trkpt><trkpt lat="43.597929" lon="6.8572198"><ele>281.6666666666667</ele><time>2026-04-12T08:41:52.929Z</time></trkpt><trkpt lat="43.5978516" lon="6.8572112"><ele>284.0</ele><time>2026-04-12T08:41:54.94Z</time></trkpt><trkpt lat="43.5977708" lon="6.8572056"><ele>284.6666666666667</ele><time>2026-04-12T08:41:56.881Z</time></trkpt><trkpt lat="43.5977003" lon="6.8572004"><ele>285.33333333333337</ele><time>2026-04-12T08:41:58.918Z</time></trkpt><trkpt lat="43.5976263" lon="6.857198"><ele>286.0</ele><time>2026-04-12T08:42:00.917Z</time></trkpt><trkpt lat="43.5975455" lon="6.8572038"><ele>286.6666666666667</ele><time>2026-04-12T08:42:02.927Z</time></trkpt><trkpt lat="43.5974631" lon="6.8572351"><ele>287.3333333333333</ele><time>2026-04-12T08:42:04.923Z</time></trkpt><trkpt lat="43.5973894" lon="6.8572803"><ele>288.0</ele><time>2026-04-12T08:42:06.929Z</time></trkpt><trkpt lat="43.5973176" lon="6.8573414"><ele>288.0</ele><time>2026-04-12T08:42:08.952Z</time></trkpt><trkpt lat="43.5972534" lon="6.8574095"><ele>288.0</ele><time>2026-04-12T08:42:10.954Z</time></trkpt><trkpt lat="43.5971833" lon="6.857474"><ele>288.0</ele><time>2026-04-12T08:42:12.912Z</time></trkpt><trkpt lat="43.5971127" lon="6.8575338"><ele>288.0</ele><time>2026-04-12T08:42:14.93Z</time></trkpt><trkpt lat="43.5970389" lon="6.8575774"><ele>288.0</ele><time>2026-04-12T08:42:16.923Z</time></trkpt><trkpt lat="43.5969598" lon="6.8576144"><ele>288.0</ele><time>2026-04-12T08:42:18.92Z</time></trkpt><trkpt lat="43.5968818" lon="6.8576626"><ele>290.2</ele><time>2026-04-12T08:42:20.941Z</time></trkpt><trkpt lat="43.5968015" lon="6.8577154"><ele>292.4</ele><time>2026-04-12T08:42:22.936Z</time></trkpt><trkpt lat="43.5967345" lon="6.8578022"><ele>294.59999999999997</ele><time>2026-04-12T08:42:24.925Z</time></trkpt><trkpt lat="43.5966731" lon="6.857886"><ele>296.8</ele><time>2026-04-12T08:42:26.936Z</time></trkpt><trkpt lat="43.5965994" lon="6.8579668"><ele>299.0</ele><time>2026-04-12T08:42:28.922Z</time></trkpt><trkpt lat="43.5965223" lon="6.8580315"><ele>299.0</ele><time>2026-04-12T08:42:30.928Z</time></trkpt><trkpt lat="43.5964499" lon="6.8580881"><ele>299.0</ele><time>2026-04-12T08:42:32.893Z</time></trkpt><trkpt lat="43.5963743" lon="6.8581463"><ele>299.0</ele><time>2026-04-12T08:42:34.942Z</time></trkpt><trkpt lat="43.5962932" lon="6.8581958"><ele>299.0</ele><time>2026-04-12T08:42:36.937Z</time></trkpt><trkpt lat="43.5962188" lon="6.8582489"><ele>299.0</ele><time>2026-04-12T08:42:38.942Z</time></trkpt><trkpt lat="43.5961381" lon="6.858296"><ele>299.0</ele><time>2026-04-12T08:42:40.925Z</time></trkpt><trkpt lat="43.5960465" lon="6.858344"><ele>298.2</ele><time>2026-04-12T08:42:42.902Z</time></trkpt><trkpt lat="43.5959714" lon="6.8583835"><ele>297.4</ele><time>2026-04-12T08:42:44.948Z</time></trkpt><trkpt lat="43.5958863" lon="6.8584361"><ele>296.6</ele><time>2026-04-12T08:42:46.948Z</time></trkpt><trkpt lat="43.5958169" lon="6.8585049"><ele>295.8</ele><time>2026-04-12T08:42:48.917Z</time></trkpt><trkpt lat="43.5957693" lon="6.8586214"><ele>295.0</ele><time>2026-04-12T08:42:50.925Z</time></trkpt><trkpt lat="43.5957309" lon="6.858743"><ele>295.0</ele><time>2026-04-12T08:42:52.937Z</time></trkpt><trkpt lat="43.5956878" lon="6.8588659"><ele>295.0</ele><time>2026-04-12T08:42:54.955Z</time></trkpt><trkpt lat="43.5956394" lon="6.8589876"><ele>295.0</ele><time>2026-04-12T08:42:56.957Z</time></trkpt><trkpt lat="43.5955742" lon="6.8590905"><ele>295.0</ele><time>2026-04-12T08:42:58.935Z</time></trkpt><trkpt lat="43.5955039" lon="6.8591904"><ele>295.0</ele><time>2026-04-12T08:43:00.953Z</time></trkpt><trkpt lat="43.595421" lon="6.8592727"><ele>293.0</ele><time>2026-04-12T08:43:02.892Z</time></trkpt><trkpt lat="43.5953343" lon="6.859339"><ele>291.0</ele><time>2026-04-12T08:43:04.946Z</time></trkpt><trkpt lat="43.5952492" lon="6.8593904"><ele>289.0</ele><time>2026-04-12T08:43:06.937Z</time></trkpt><trkpt lat="43.5951642" lon="6.8594453"><ele>287.0</ele><time>2026-04-12T08:43:08.928Z</time></trkpt><trkpt lat="43.5950717" lon="6.8595116"><ele>285.0</ele><time>2026-04-12T08:43:10.937Z</time></trkpt><trkpt lat="43.5949789" lon="6.8595664"><ele>285.0</ele><time>2026-04-12T08:43:12.939Z</time></trkpt><trkpt lat="43.5948926" lon="6.8596305"><ele>285.0</ele><time>2026-04-12T08:43:14.963Z</time></trkpt><trkpt lat="43.594807" lon="6.8597011"><ele>285.0</ele><time>2026-04-12T08:43:16.92Z</time></trkpt><trkpt lat="43.594719" lon="6.8597652"><ele>285.0</ele><time>2026-04-12T08:43:18.942Z</time></trkpt><trkpt lat="43.5946335" lon="6.8598441"><ele>285.0</ele><time>2026-04-12T08:43:20.939Z</time></trkpt><trkpt lat="43.5945429" lon="6.859915"><ele>285.8</ele><time>2026-04-12T08:43:22.945Z</time></trkpt><trkpt lat="43.594457" lon="6.8599877"><ele>286.6</ele><time>2026-04-12T08:43:24.932Z</time></trkpt><trkpt lat="43.5943739" lon="6.8600832"><ele>287.4</ele><time>2026-04-12T08:43:26.948Z</time></trkpt><trkpt lat="43.594293" lon="6.8601828"><ele>288.2</ele><time>2026-04-12T08:43:28.952Z</time></trkpt><trkpt lat="43.5942192" lon="6.8602911"><ele>289.0</ele><time>2026-04-12T08:43:30.939Z</time></trkpt><trkpt lat="43.5941547" lon="6.8603945"><ele>289.0</ele><time>2026-04-12T08:43:32.929Z</time></trkpt><trkpt lat="43.5940714" lon="6.8604893"><ele>289.0</ele><time>2026-04-12T08:43:34.943Z</time></trkpt><trkpt lat="43.5939837" lon="6.8605756"><ele>289.0</ele><time>2026-04-12T08:43:36.948Z</time></trkpt><trkpt lat="43.5938959" lon="6.8606588"><ele>289.0</ele><time>2026-04-12T08:43:38.941Z</time></trkpt><trkpt lat="43.5938166" lon="6.8607501"><ele>289.0</ele><time>2026-04-12T08:43:40.938Z</time></trkpt><trkpt lat="43.5937462" lon="6.8608572"><ele>291.59999999999997</ele><time>2026-04-12T08:43:42.934Z</time></trkpt><trkpt lat="43.593679" lon="6.8609736"><ele>294.2</ele><time>2026-04-12T08:43:44.931Z</time></trkpt><trkpt lat="43.5936107" lon="6.8610808"><ele>296.79999999999995</ele><time>2026-04-12T08:43:46.954Z</time></trkpt><trkpt lat="43.5935447" lon="6.8611972"><ele>299.4</ele><time>2026-04-12T08:43:48.907Z</time></trkpt><trkpt lat="43.5934705" lon="6.8613114"><ele>302.0</ele><time>2026-04-12T08:43:50.948Z</time></trkpt><trkpt lat="43.5933895" lon="6.8614236"><ele>302.0</ele><time>2026-04-12T08:43:52.93Z</time></trkpt><trkpt lat="43.5933034" lon="6.861525"><ele>302.0</ele><time>2026-04-12T08:43:54.942Z</time></trkpt><trkpt lat="43.5932147" lon="6.8616253"><ele>302.0</ele><time>2026-04-12T08:43:56.952Z</time></trkpt><trkpt lat="43.5931108" lon="6.8617076"><ele>302.0</ele><time>2026-04-12T08:43:58.93Z</time></trkpt><trkpt lat="43.5930048" lon="6.8617811"><ele>304.0</ele><time>2026-04-12T08:44:00.939Z</time></trkpt><trkpt lat="43.5929168" lon="6.861855"><ele>306.0</ele><time>2026-04-12T08:44:02.926Z</time></trkpt><trkpt lat="43.5928216" lon="6.8619312"><ele>308.0</ele><time>2026-04-12T08:44:04.949Z</time></trkpt><trkpt lat="43.5927404" lon="6.8620328"><ele>310.0</ele><time>2026-04-12T08:44:06.94Z</time></trkpt><trkpt lat="43.5926718" lon="6.8621432"><ele>312.0</ele><time>2026-04-12T08:44:08.949Z</time></trkpt><trkpt lat="43.592618" lon="6.8622612"><ele>312.0</ele><time>2026-04-12T08:44:10.947Z</time></trkpt><trkpt lat="43.5925554" lon="6.8623671"><ele>312.0</ele><time>2026-04-12T08:44:12.9Z</time></trkpt><trkpt lat="43.5924971" lon="6.8624821"><ele>312.0</ele><time>2026-04-12T08:44:14.923Z</time></trkpt><trkpt lat="43.5924368" lon="6.8625929"><ele>312.0</ele><time>2026-04-12T08:44:16.93Z</time></trkpt><trkpt lat="43.5923643" lon="6.8627082"><ele>312.0</ele><time>2026-04-12T08:44:18.931Z</time></trkpt><trkpt lat="43.5922997" lon="6.8628198"><ele>311.4</ele><time>2026-04-12T08:44:20.945Z</time></trkpt><trkpt lat="43.5922481" lon="6.8629462"><ele>310.79999999999995</ele><time>2026-04-12T08:44:22.947Z</time></trkpt><trkpt lat="43.5922161" lon="6.8630823"><ele>310.2</ele><time>2026-04-12T08:44:24.945Z</time></trkpt><trkpt lat="43.5921884" lon="6.8632146"><ele>309.59999999999997</ele><time>2026-04-12T08:44:26.951Z</time></trkpt><trkpt lat="43.592177" lon="6.8633488"><ele>309.0</ele><time>2026-04-12T08:44:28.945Z</time></trkpt><trkpt lat="43.592162" lon="6.863478"><ele>309.0</ele><time>2026-04-12T08:44:30.93Z</time></trkpt><trkpt lat="43.5921625" lon="6.8636156"><ele>309.0</ele><time>2026-04-12T08:44:32.946Z</time></trkpt><trkpt lat="43.5921779" lon="6.8637558"><ele>309.0</ele><time>2026-04-12T08:44:34.928Z</time></trkpt><trkpt lat="43.5921827" lon="6.8638899"><ele>309.0</ele><time>2026-04-12T08:44:36.94Z</time></trkpt><trkpt lat="43.5921967" lon="6.8640173"><ele>309.0</ele><time>2026-04-12T08:44:38.919Z</time></trkpt><trkpt lat="43.5922079" lon="6.8641443"><ele>309.0</ele><time>2026-04-12T08:44:40.891Z</time></trkpt><trkpt lat="43.5922276" lon="6.8642675"><ele>309.0</ele><time>2026-04-12T08:44:42.93Z</time></trkpt><trkpt lat="43.5922454" lon="6.8643757"><ele>309.0</ele><time>2026-04-12T08:44:44.942Z</time></trkpt><trkpt lat="43.592267" lon="6.8644834"><ele>309.0</ele><time>2026-04-12T08:44:46.915Z</time></trkpt><trkpt lat="43.5922799" lon="6.8645995"><ele>309.0</ele><time>2026-04-12T08:44:48.936Z</time></trkpt><trkpt lat="43.5922961" lon="6.8647141"><ele>309.0</ele><time>2026-04-12T08:44:50.934Z</time></trkpt><trkpt lat="43.5923138" lon="6.8648249"><ele>310.6666666666667</ele><time>2026-04-12T08:44:52.936Z</time></trkpt><trkpt lat="43.5923275" lon="6.8649423"><ele>312.3333333333333</ele><time>2026-04-12T08:44:54.93Z</time></trkpt><trkpt lat="43.5923395" lon="6.865059"><ele>314.0</ele><time>2026-04-12T08:44:56.926Z</time></trkpt><trkpt lat="43.5923535" lon="6.8651638"><ele>315.66666666666663</ele><time>2026-04-12T08:44:58.926Z</time></trkpt><trkpt lat="43.5923833" lon="6.8652819"><ele>317.3333333333333</ele><time>2026-04-12T08:45:00.911Z</time></trkpt><trkpt lat="43.5924243" lon="6.8653984"><ele>319.0</ele><time>2026-04-12T08:45:02.942Z</time></trkpt><trkpt lat="43.5924708" lon="6.8654952"><ele>321.16666666666663</ele><time>2026-04-12T08:45:04.947Z</time></trkpt><trkpt lat="43.5925231" lon="6.865576"><ele>323.3333333333333</ele><time>2026-04-12T08:45:06.944Z</time></trkpt><trkpt lat="43.5925798" lon="6.8656585"><ele>325.5</ele><time>2026-04-12T08:45:08.927Z</time></trkpt><trkpt lat="43.5926323" lon="6.865745"><ele>327.6666666666667</ele><time>2026-04-12T08:45:10.892Z</time></trkpt><trkpt lat="43.5926713" lon="6.8658501"><ele>329.83333333333337</ele><time>2026-04-12T08:45:12.938Z</time></trkpt><trkpt lat="43.5927084" lon="6.8659478"><ele>332.0</ele><time>2026-04-12T08:45:14.943Z</time></trkpt><trkpt lat="43.5927575" lon="6.8660455"><ele>333.1666666666667</ele><time>2026-04-12T08:45:16.929Z</time></trkpt><trkpt lat="43.5928302" lon="6.8661144"><ele>334.33333333333337</ele><time>2026-04-12T08:45:18.948Z</time></trkpt><trkpt lat="43.5929089" lon="6.8661493"><ele>335.5</ele><time>2026-04-12T08:45:20.906Z</time></trkpt><trkpt lat="43.5929836" lon="6.8661739"><ele>336.6666666666667</ele><time>2026-04-12T08:45:22.945Z</time></trkpt><trkpt lat="43.5930656" lon="6.8661983"><ele>337.8333333333333</ele><time>2026-04-12T08:45:24.939Z</time></trkpt><trkpt lat="43.5931468" lon="6.8662389"><ele>339.0</ele><time>2026-04-12T08:45:26.939Z</time></trkpt><trkpt lat="43.5932305" lon="6.8663036"><ele>339.0</ele><time>2026-04-12T08:45:28.918Z</time></trkpt><trkpt lat="43.5933059" lon="6.8663777"><ele>339.0</ele><time>2026-04-12T08:45:30.907Z</time></trkpt><trkpt lat="43.5933797" lon="6.866447"><ele>339.0</ele><time>2026-04-12T08:45:32.965Z</time></trkpt><trkpt lat="43.5934581" lon="6.8665071"><ele>339.0</ele><time>2026-04-12T08:45:34.946Z</time></trkpt><trkpt lat="43.5935389" lon="6.8665717"><ele>339.0</ele><time>2026-04-12T08:45:36.954Z</time></trkpt><trkpt lat="43.5936128" lon="6.8666231"><ele>339.0</ele><time>2026-04-12T08:45:38.927Z</time></trkpt><trkpt lat="43.5936922" lon="6.8666706"><ele>336.5</ele><time>2026-04-12T08:45:40.921Z</time></trkpt><trkpt lat="43.5937684" lon="6.8667269"><ele>334.0</ele><time>2026-04-12T08:45:42.911Z</time></trkpt><trkpt lat="43.5938395" lon="6.8667827"><ele>331.5</ele><time>2026-04-12T08:45:44.917Z</time></trkpt><trkpt lat="43.5939012" lon="6.8668598"><ele>329.0</ele><time>2026-04-12T08:45:46.944Z</time></trkpt><trkpt lat="43.5939286" lon="6.8669756"><ele>326.5</ele><time>2026-04-12T08:45:48.925Z</time></trkpt><trkpt lat="43.5939267" lon="6.8670943"><ele>324.0</ele><time>2026-04-12T08:45:50.943Z</time></trkpt><trkpt lat="43.5938962" lon="6.8672071"><ele>324.0</ele><time>2026-04-12T08:45:52.957Z</time></trkpt><trkpt lat="43.5938434" lon="6.8673003"><ele>324.0</ele><time>2026-04-12T08:45:54.936Z</time></trkpt><trkpt lat="43.5937746" lon="6.8673788"><ele>324.0</ele><time>2026-04-12T08:45:56.924Z</time></trkpt><trkpt lat="43.5937021" lon="6.8674456"><ele>324.0</ele><time>2026-04-12T08:45:58.888Z</time></trkpt><trkpt lat="43.5936384" lon="6.8675344"><ele>324.0</ele><time>2026-04-12T08:46:00.923Z</time></trkpt><trkpt lat="43.5935855" lon="6.8676404"><ele>324.0</ele><time>2026-04-12T08:46:02.932Z</time></trkpt><trkpt lat="43.5935466" lon="6.8677523"><ele>329.3333333333333</ele><time>2026-04-12T08:46:04.929Z</time></trkpt><trkpt lat="43.59352" lon="6.8678681"><ele>334.6666666666667</ele><time>2026-04-12T08:46:06.941Z</time></trkpt><trkpt lat="43.5934955" lon="6.8679715"><ele>340.0</ele><time>2026-04-12T08:46:08.934Z</time></trkpt><trkpt lat="43.5934733" lon="6.8680765"><ele>345.33333333333337</ele><time>2026-04-12T08:46:10.885Z</time></trkpt><trkpt lat="43.5934774" lon="6.868188"><ele>350.6666666666667</ele><time>2026-04-12T08:46:12.963Z</time></trkpt><trkpt lat="43.5934914" lon="6.8683278"><ele>356.0</ele><time>2026-04-12T08:46:14.908Z</time></trkpt><trkpt lat="43.5934861" lon="6.8684635"><ele>357.0</ele><time>2026-04-12T08:46:16.938Z</time></trkpt><trkpt lat="43.5934617" lon="6.8685948"><ele>358.0</ele><time>2026-04-12T08:46:18.948Z</time></trkpt><trkpt lat="43.5934363" lon="6.8687288"><ele>359.0</ele><time>2026-04-12T08:46:20.933Z</time></trkpt><trkpt lat="43.5934235" lon="6.8688758"><ele>360.0</ele><time>2026-04-12T08:46:22.909Z</time></trkpt><trkpt lat="43.593454" lon="6.8690103"><ele>361.0</ele><time>2026-04-12T08:46:24.912Z</time></trkpt><trkpt lat="43.5935116" lon="6.8691282"><ele>361.0</ele><time>2026-04-12T08:46:26.904Z</time></trkpt><trkpt lat="43.5935712" lon="6.8692359"><ele>361.0</ele><time>2026-04-12T08:46:28.92Z</time></trkpt><trkpt lat="43.5936347" lon="6.8693286"><ele>361.0</ele><time>2026-04-12T08:46:30.932Z</time></trkpt><trkpt lat="43.5936958" lon="6.8694308"><ele>361.0</ele><time>2026-04-12T08:46:32.945Z</time></trkpt><trkpt lat="43.5937258" lon="6.8695575"><ele>361.0</ele><time>2026-04-12T08:46:34.951Z</time></trkpt><trkpt lat="43.5937559" lon="6.8696752"><ele>358.4</ele><time>2026-04-12T08:46:36.955Z</time></trkpt><trkpt lat="43.5937772" lon="6.8698037"><ele>355.8</ele><time>2026-04-12T08:46:38.937Z</time></trkpt><trkpt lat="43.5937837" lon="6.8699374"><ele>353.2</ele><time>2026-04-12T08:46:40.937Z</time></trkpt><trkpt lat="43.593748" lon="6.8700546"><ele>350.59999999999997</ele><time>2026-04-12T08:46:42.965Z</time></trkpt><trkpt lat="43.5936816" lon="6.8701414"><ele>348.0</ele><time>2026-04-12T08:46:44.934Z</time></trkpt><trkpt lat="43.5935961" lon="6.8702138"><ele>348.0</ele><time>2026-04-12T08:46:46.96Z</time></trkpt><trkpt lat="43.5935084" lon="6.8702833"><ele>348.0</ele><time>2026-04-12T08:46:48.882Z</time></trkpt><trkpt lat="43.5934234" lon="6.8703326"><ele>348.0</ele><time>2026-04-12T08:46:50.898Z</time></trkpt><trkpt lat="43.5933182" lon="6.8703607"><ele>348.0</ele><time>2026-04-12T08:46:52.901Z</time></trkpt><trkpt lat="43.5932249" lon="6.8704092"><ele>348.0</ele><time>2026-04-12T08:46:54.907Z</time></trkpt><trkpt lat="43.5931521" lon="6.8704729"><ele>348.0</ele><time>2026-04-12T08:46:56.893Z</time></trkpt><trkpt lat="43.5930988" lon="6.870593"><ele>348.0</ele><time>2026-04-12T08:46:58.902Z</time></trkpt><trkpt lat="43.5930484" lon="6.870719"><ele>348.0</ele><time>2026-04-12T08:47:00.952Z</time></trkpt><trkpt lat="43.5930159" lon="6.8708606"><ele>348.0</ele><time>2026-04-12T08:47:02.942Z</time></trkpt><trkpt lat="43.5929932" lon="6.8709946"><ele>348.0</ele><time>2026-04-12T08:47:04.948Z</time></trkpt><trkpt lat="43.5929749" lon="6.8711412"><ele>346.4</ele><time>2026-04-12T08:47:06.948Z</time></trkpt><trkpt lat="43.5929601" lon="6.8712901"><ele>344.79999999999995</ele><time>2026-04-12T08:47:08.922Z</time></trkpt><trkpt lat="43.5929522" lon="6.8714315"><ele>343.2</ele><time>2026-04-12T08:47:10.931Z</time></trkpt><trkpt lat="43.5929431" lon="6.8715537"><ele>341.6</ele><time>2026-04-12T08:47:12.94Z</time></trkpt><trkpt lat="43.5929291" lon="6.8716871"><ele>340.0</ele><time>2026-04-12T08:47:14.939Z</time></trkpt><trkpt lat="43.5929097" lon="6.8718331"><ele>338.2</ele><time>2026-04-12T08:47:16.935Z</time></trkpt><trkpt lat="43.5928723" lon="6.8719708"><ele>336.4</ele><time>2026-04-12T08:47:18.922Z</time></trkpt><trkpt lat="43.5928159" lon="6.8720904"><ele>334.6</ele><time>2026-04-12T08:47:20.938Z</time></trkpt><trkpt lat="43.5927511" lon="6.8721901"><ele>332.8</ele><time>2026-04-12T08:47:22.926Z</time></trkpt><trkpt lat="43.5926612" lon="6.8722632"><ele>331.0</ele><time>2026-04-12T08:47:24.923Z</time></trkpt><trkpt lat="43.5925681" lon="6.8723464"><ele>336.4</ele><time>2026-04-12T08:47:26.933Z</time></trkpt><trkpt lat="43.5924783" lon="6.8724086"><ele>341.8</ele><time>2026-04-12T08:47:28.936Z</time></trkpt><trkpt lat="43.5923863" lon="6.872454"><ele>347.2</ele><time>2026-04-12T08:47:30.942Z</time></trkpt><trkpt lat="43.592294" lon="6.8724915"><ele>352.59999999999997</ele><time>2026-04-12T08:47:32.937Z</time></trkpt><trkpt lat="43.592198" lon="6.8725232"><ele>358.0</ele><time>2026-04-12T08:47:34.943Z</time></trkpt><trkpt lat="43.5920959" lon="6.8725281"><ele>358.59999999999997</ele><time>2026-04-12T08:47:36.931Z</time></trkpt><trkpt lat="43.5919985" lon="6.8725529"><ele>359.2</ele><time>2026-04-12T08:47:38.929Z</time></trkpt><trkpt lat="43.5919016" lon="6.8726035"><ele>359.8</ele><time>2026-04-12T08:47:40.934Z</time></trkpt><trkpt lat="43.5918122" lon="6.8726681"><ele>360.4</ele><time>2026-04-12T08:47:42.943Z</time></trkpt><trkpt lat="43.5917315" lon="6.8727399"><ele>361.0</ele><time>2026-04-12T08:47:44.904Z</time></trkpt><trkpt lat="43.5916567" lon="6.8728262"><ele>361.0</ele><time>2026-04-12T08:47:46.924Z</time></trkpt><trkpt lat="43.5915922" lon="6.8729211"><ele>361.0</ele><time>2026-04-12T08:47:48.917Z</time></trkpt><trkpt lat="43.591534" lon="6.873035"><ele>361.0</ele><time>2026-04-12T08:47:50.932Z</time></trkpt><trkpt lat="43.5914855" lon="6.8731545"><ele>361.0</ele><time>2026-04-12T08:47:52.939Z</time></trkpt><trkpt lat="43.5914415" lon="6.8732855"><ele>361.0</ele><time>2026-04-12T08:47:54.953Z</time></trkpt><trkpt lat="43.59141" lon="6.8734117"><ele>359.8</ele><time>2026-04-12T08:47:56.885Z</time></trkpt><trkpt lat="43.591375" lon="6.8735473"><ele>358.6</ele><time>2026-04-12T08:47:58.93Z</time></trkpt><trkpt lat="43.5913309" lon="6.8736824"><ele>357.4</ele><time>2026-04-12T08:48:00.943Z</time></trkpt><trkpt lat="43.5912881" lon="6.8738229"><ele>356.2</ele><time>2026-04-12T08:48:02.936Z</time></trkpt><trkpt lat="43.5912563" lon="6.8739721"><ele>355.0</ele><time>2026-04-12T08:48:04.899Z</time></trkpt><trkpt lat="43.5912444" lon="6.8741109"><ele>355.0</ele><time>2026-04-12T08:48:06.947Z</time></trkpt><trkpt lat="43.5912351" lon="6.8742553"><ele>355.0</ele><time>2026-04-12T08:48:08.932Z</time></trkpt><trkpt lat="43.5912192" lon="6.8743845"><ele>355.0</ele><time>2026-04-12T08:48:10.911Z</time></trkpt><trkpt lat="43.591203" lon="6.8745232"><ele>355.0</ele><time>2026-04-12T08:48:12.963Z</time></trkpt><trkpt lat="43.5911827" lon="6.8746504"><ele>355.0</ele><time>2026-04-12T08:48:14.942Z</time></trkpt><trkpt lat="43.5911611" lon="6.8747786"><ele>356.8333333333333</ele><time>2026-04-12T08:48:16.941Z</time></trkpt><trkpt lat="43.5911161" lon="6.8748829"><ele>358.66666666666663</ele><time>2026-04-12T08:48:18.944Z</time></trkpt><trkpt lat="43.5910748" lon="6.8749751"><ele>360.5</ele><time>2026-04-12T08:48:20.942Z</time></trkpt><trkpt lat="43.5910337" lon="6.8750659"><ele>362.3333333333333</ele><time>2026-04-12T08:48:22.942Z</time></trkpt><trkpt lat="43.590973" lon="6.8751524"><ele>364.1666666666667</ele><time>2026-04-12T08:48:24.946Z</time></trkpt><trkpt lat="43.5909069" lon="6.8752306"><ele>366.0</ele><time>2026-04-12T08:48:26.949Z</time></trkpt><trkpt lat="43.5908263" lon="6.8753028"><ele>366.0</ele><time>2026-04-12T08:48:28.925Z</time></trkpt><trkpt lat="43.5907427" lon="6.8753702"><ele>366.0</ele><time>2026-04-12T08:48:30.965Z</time></trkpt><trkpt lat="43.590668" lon="6.8754406"><ele>366.0</ele><time>2026-04-12T08:48:32.958Z</time></trkpt><trkpt lat="43.5905935" lon="6.8755156"><ele>366.0</ele><time>2026-04-12T08:48:34.916Z</time></trkpt><trkpt lat="43.5905224" lon="6.8755946"><ele>366.0</ele><time>2026-04-12T08:48:36.936Z</time></trkpt><trkpt lat="43.5904489" lon="6.8756786"><ele>366.0</ele><time>2026-04-12T08:48:38.939Z</time></trkpt><trkpt lat="43.5903741" lon="6.8757698"><ele>366.0</ele><time>2026-04-12T08:48:40.946Z</time></trkpt><trkpt lat="43.5903148" lon="6.8758561"><ele>366.0</ele><time>2026-04-12T08:48:42.93Z</time></trkpt><trkpt lat="43.5902688" lon="6.8759211"><ele>366.0</ele><time>2026-04-12T08:48:46.924Z</time></trkpt><trkpt lat="43.5902382" lon="6.8760005"><ele>366.0</ele><time>2026-04-12T08:49:46.89Z</time></trkpt><trkpt lat="43.590199" lon="6.8760804"><ele>366.0</ele><time>2026-04-12T08:53:10.901Z</time></trkpt><trkpt lat="43.5901371" lon="6.8761151"><ele>367.20000000000005</ele><time>2026-04-12T08:53:12.912Z</time></trkpt><trkpt lat="43.5900501" lon="6.876203"><ele>368.40000000000003</ele><time>2026-04-12T08:53:15.912Z</time></trkpt><trkpt lat="43.5899963" lon="6.8762618"><ele>369.6</ele><time>2026-04-12T08:53:17.919Z</time></trkpt><trkpt lat="43.5899056" lon="6.8763712"><ele>370.8</ele><time>2026-04-12T08:53:19.893Z</time></trkpt><trkpt lat="43.5898267" lon="6.8764488"><ele>372.0</ele><time>2026-04-12T08:53:21.915Z</time></trkpt><trkpt lat="43.5897377" lon="6.876553"><ele>372.00000000000006</ele><time>2026-04-12T08:53:23.893Z</time></trkpt><trkpt lat="43.5896894" lon="6.876612"><ele>372.0</ele><time>2026-04-12T08:53:24.921Z</time></trkpt><trkpt lat="43.5896433" lon="6.8766808"><ele>372.0</ele><time>2026-04-12T08:53:25.929Z</time></trkpt><trkpt lat="43.5896015" lon="6.8767594"><ele>372.0</ele><time>2026-04-12T08:53:26.938Z</time></trkpt><trkpt lat="43.5895666" lon="6.8768362"><ele>372.0</ele><time>2026-04-12T08:53:27.924Z</time></trkpt><trkpt lat="43.5895387" lon="6.8769256"><ele>372.00000000000006</ele><time>2026-04-12T08:53:28.921Z</time></trkpt><trkpt lat="43.589515" lon="6.8770263"><ele>372.0</ele><time>2026-04-12T08:53:29.921Z</time></trkpt><trkpt lat="43.5894919" lon="6.8771276"><ele>373.0</ele><time>2026-04-12T08:53:30.924Z</time></trkpt><trkpt lat="43.5894755" lon="6.877232"><ele>374.0</ele><time>2026-04-12T08:53:31.922Z</time></trkpt><trkpt lat="43.5894559" lon="6.8773441"><ele>375.0</ele><time>2026-04-12T08:53:32.908Z</time></trkpt><trkpt lat="43.5894218" lon="6.8774499"><ele>376.0</ele><time>2026-04-12T08:53:33.927Z</time></trkpt><trkpt lat="43.5893742" lon="6.8775577"><ele>377.0</ele><time>2026-04-12T08:53:34.92Z</time></trkpt><trkpt lat="43.5893208" lon="6.8776578"><ele>378.0</ele><time>2026-04-12T08:53:35.893Z</time></trkpt><trkpt lat="43.5892532" lon="6.8777539"><ele>374.59999999999997</ele><time>2026-04-12T08:53:36.885Z</time></trkpt><trkpt lat="43.5891773" lon="6.8778357"><ele>371.2</ele><time>2026-04-12T08:53:37.896Z</time></trkpt><trkpt lat="43.5890957" lon="6.8779054"><ele>367.8</ele><time>2026-04-12T08:53:38.882Z</time></trkpt><trkpt lat="43.5890152" lon="6.8779894"><ele>364.4</ele><time>2026-04-12T08:53:39.907Z</time></trkpt><trkpt lat="43.5889355" lon="6.8780789"><ele>361.0</ele><time>2026-04-12T08:53:40.889Z</time></trkpt><trkpt lat="43.5888618" lon="6.8781857"><ele>361.0</ele><time>2026-04-12T08:53:41.94Z</time></trkpt><trkpt lat="43.588793" lon="6.8783012"><ele>361.0</ele><time>2026-04-12T08:53:42.938Z</time></trkpt><trkpt lat="43.5887489" lon="6.8784333"><ele>361.0</ele><time>2026-04-12T08:53:43.892Z</time></trkpt><trkpt lat="43.5887482" lon="6.8785786"><ele>361.0</ele><time>2026-04-12T08:53:44.892Z</time></trkpt><trkpt lat="43.5887833" lon="6.878719"><ele>361.0</ele><time>2026-04-12T08:53:45.912Z</time></trkpt><trkpt lat="43.5888375" lon="6.8788297"><ele>360.0</ele><time>2026-04-12T08:53:46.917Z</time></trkpt><trkpt lat="43.5888988" lon="6.8789271"><ele>359.0</ele><time>2026-04-12T08:53:47.96Z</time></trkpt><trkpt lat="43.5889558" lon="6.8790245"><ele>358.0</ele><time>2026-04-12T08:53:48.922Z</time></trkpt><trkpt lat="43.5890042" lon="6.8791418"><ele>357.0</ele><time>2026-04-12T08:53:49.937Z</time></trkpt><trkpt lat="43.5890426" lon="6.8792769"><ele>356.0</ele><time>2026-04-12T08:53:50.926Z</time></trkpt><trkpt lat="43.5890641" lon="6.8794215"><ele>353.6</ele><time>2026-04-12T08:53:51.922Z</time></trkpt><trkpt lat="43.5890558" lon="6.8795666"><ele>351.20000000000005</ele><time>2026-04-12T08:53:52.942Z</time></trkpt><trkpt lat="43.5890276" lon="6.8796943"><ele>348.79999999999995</ele><time>2026-04-12T08:53:53.916Z</time></trkpt><trkpt lat="43.5889478" lon="6.8797904"><ele>346.4</ele><time>2026-04-12T08:53:54.923Z</time></trkpt><trkpt lat="43.5888676" lon="6.8798755"><ele>344.0</ele><time>2026-04-12T08:53:55.916Z</time></trkpt><trkpt lat="43.5887778" lon="6.879971"><ele>344.0</ele><time>2026-04-12T08:53:56.897Z</time></trkpt><trkpt lat="43.5886898" lon="6.8800793"><ele>344.0</ele><time>2026-04-12T08:53:57.921Z</time></trkpt><trkpt lat="43.5886015" lon="6.8801856"><ele>344.0</ele><time>2026-04-12T08:53:58.911Z</time></trkpt><trkpt lat="43.5885128" lon="6.8802762"><ele>344.0</ele><time>2026-04-12T08:53:59.953Z</time></trkpt><trkpt lat="43.5884148" lon="6.8803198"><ele>344.0</ele><time>2026-04-12T08:54:00.892Z</time></trkpt><trkpt lat="43.5883288" lon="6.8803555"><ele>342.5</ele><time>2026-04-12T08:54:01.893Z</time></trkpt><trkpt lat="43.5882632" lon="6.8803852"><ele>341.0</ele><time>2026-04-12T08:54:02.89Z</time></trkpt><trkpt lat="43.588185" lon="6.8804311"><ele>339.5</ele><time>2026-04-12T08:54:04.914Z</time></trkpt><trkpt lat="43.5881078" lon="6.8804816"><ele>338.0</ele><time>2026-04-12T08:54:33.906Z</time></trkpt><trkpt lat="43.5880163" lon="6.8805627"><ele>336.5</ele><time>2026-04-12T08:54:35.958Z</time></trkpt><trkpt lat="43.5879547" lon="6.880611"><ele>335.0</ele><time>2026-04-12T08:54:36.938Z</time></trkpt><trkpt lat="43.5878895" lon="6.880671"><ele>336.4</ele><time>2026-04-12T08:54:37.92Z</time></trkpt><trkpt lat="43.5878207" lon="6.8807206"><ele>337.8</ele><time>2026-04-12T08:54:38.918Z</time></trkpt><trkpt lat="43.5877403" lon="6.8807782"><ele>339.20000000000005</ele><time>2026-04-12T08:54:39.941Z</time></trkpt><trkpt lat="43.5876551" lon="6.8808378"><ele>340.6</ele><time>2026-04-12T08:54:40.934Z</time></trkpt><trkpt lat="43.5875668" lon="6.8808955"><ele>342.0</ele><time>2026-04-12T08:54:41.906Z</time></trkpt><trkpt lat="43.5874728" lon="6.8809631"><ele>342.0</ele><time>2026-04-12T08:54:42.946Z</time></trkpt><trkpt lat="43.5873856" lon="6.8810511"><ele>342.0</ele><time>2026-04-12T08:54:43.917Z</time></trkpt><trkpt lat="43.5873189" lon="6.8811744"><ele>342.0</ele><time>2026-04-12T08:54:44.934Z</time></trkpt><trkpt lat="43.5872894" lon="6.8813205"><ele>342.0</ele><time>2026-04-12T08:54:45.926Z</time></trkpt><trkpt lat="43.587306" lon="6.8814765"><ele>342.0</ele><time>2026-04-12T08:54:46.921Z</time></trkpt><trkpt lat="43.5873392" lon="6.88164"><ele>343.75</ele><time>2026-04-12T08:54:47.932Z</time></trkpt><trkpt lat="43.5873814" lon="6.8817983"><ele>345.5</ele><time>2026-04-12T08:54:48.921Z</time></trkpt><trkpt lat="43.5874328" lon="6.8819577"><ele>347.25</ele><time>2026-04-12T08:54:49.936Z</time></trkpt><trkpt lat="43.5875027" lon="6.8821028"><ele>349.0</ele><time>2026-04-12T08:54:50.936Z</time></trkpt><trkpt lat="43.5875836" lon="6.8822396"><ele>349.0</ele><time>2026-04-12T08:54:51.918Z</time></trkpt><trkpt lat="43.5876846" lon="6.8823602"><ele>349.0</ele><time>2026-04-12T08:54:52.921Z</time></trkpt><trkpt lat="43.5877895" lon="6.8824729"><ele>349.0</ele><time>2026-04-12T08:54:53.905Z</time></trkpt><trkpt lat="43.587895" lon="6.8825845"><ele>349.0</ele><time>2026-04-12T08:54:54.942Z</time></trkpt><trkpt lat="43.5879851" lon="6.8827094"><ele>340.0</ele><time>2026-04-12T08:54:55.908Z</time></trkpt><trkpt lat="43.5880525" lon="6.8828663"><ele>331.0</ele><time>2026-04-12T08:54:56.947Z</time></trkpt><trkpt lat="43.5880931" lon="6.883019"><ele>322.0</ele><time>2026-04-12T08:54:57.929Z</time></trkpt><trkpt lat="43.5880935" lon="6.8831745"><ele>313.0</ele><time>2026-04-12T08:54:58.942Z</time></trkpt><trkpt lat="43.5880561" lon="6.8833221"><ele>316.75</ele><time>2026-04-12T08:54:59.942Z</time></trkpt><trkpt lat="43.587993" lon="6.8834502"><ele>320.5</ele><time>2026-04-12T08:55:00.936Z</time></trkpt><trkpt lat="43.5879176" lon="6.8835791"><ele>324.25</ele><time>2026-04-12T08:55:01.902Z</time></trkpt><trkpt lat="43.5878436" lon="6.8837143"><ele>328.0</ele><time>2026-04-12T08:55:02.943Z</time></trkpt><trkpt lat="43.5877941" lon="6.8838576"><ele>328.0</ele><time>2026-04-12T08:55:03.937Z</time></trkpt><trkpt lat="43.5877364" lon="6.8840086"><ele>328.0</ele><time>2026-04-12T08:55:04.922Z</time></trkpt><trkpt lat="43.5876751" lon="6.884158"><ele>328.0</ele><time>2026-04-12T08:55:05.933Z</time></trkpt><trkpt lat="43.5875897" lon="6.8842964"><ele>328.0</ele><time>2026-04-12T08:55:06.943Z</time></trkpt><trkpt lat="43.5874881" lon="6.8844081"><ele>321.25</ele><time>2026-04-12T08:55:07.939Z</time></trkpt><trkpt lat="43.5873782" lon="6.8844949"><ele>314.5</ele><time>2026-04-12T08:55:08.902Z</time></trkpt><trkpt lat="43.5872766" lon="6.8845783"><ele>307.75</ele><time>2026-04-12T08:55:09.954Z</time></trkpt><trkpt lat="43.5871744" lon="6.884669"><ele>301.0</ele><time>2026-04-12T08:55:10.905Z</time></trkpt><trkpt lat="43.5870636" lon="6.8847552"><ele>305.75</ele><time>2026-04-12T08:55:11.943Z</time></trkpt><trkpt lat="43.5869425" lon="6.884816"><ele>310.5</ele><time>2026-04-12T08:55:12.947Z</time></trkpt><trkpt lat="43.5868161" lon="6.8848419"><ele>315.25</ele><time>2026-04-12T08:55:13.915Z</time></trkpt><trkpt lat="43.5866914" lon="6.8848623"><ele>320.0</ele><time>2026-04-12T08:55:14.926Z</time></trkpt><trkpt lat="43.5865843" lon="6.8849234"><ele>320.0</ele><time>2026-04-12T08:55:15.946Z</time></trkpt><trkpt lat="43.586487" lon="6.8850154"><ele>320.0</ele><time>2026-04-12T08:55:16.936Z</time></trkpt><trkpt lat="43.5863979" lon="6.8851076"><ele>320.0</ele><time>2026-04-12T08:55:17.943Z</time></trkpt><trkpt lat="43.5863129" lon="6.8852098"><ele>320.0</ele><time>2026-04-12T08:55:18.919Z</time></trkpt><trkpt lat="43.5862412" lon="6.8853356"><ele>317.75</ele><time>2026-04-12T08:55:19.946Z</time></trkpt><trkpt lat="43.5861834" lon="6.8854801"><ele>315.5</ele><time>2026-04-12T08:55:20.925Z</time></trkpt><trkpt lat="43.5861319" lon="6.8856138"><ele>313.25</ele><time>2026-04-12T08:55:21.953Z</time></trkpt><trkpt lat="43.5860557" lon="6.8857231"><ele>311.0</ele><time>2026-04-12T08:55:22.951Z</time></trkpt><trkpt lat="43.5859454" lon="6.8858068"><ele>311.0</ele><time>2026-04-12T08:55:23.95Z</time></trkpt><trkpt lat="43.5858369" lon="6.8858777"><ele>311.0</ele><time>2026-04-12T08:55:24.937Z</time></trkpt><trkpt lat="43.5857333" lon="6.8859387"><ele>311.0</ele><time>2026-04-12T08:55:25.923Z</time></trkpt><trkpt lat="43.5856334" lon="6.886012"><ele>311.0</ele><time>2026-04-12T08:55:26.952Z</time></trkpt><trkpt lat="43.585527" lon="6.8860762"><ele>307.75</ele><time>2026-04-12T08:55:27.9Z</time></trkpt><trkpt lat="43.5854178" lon="6.8861263"><ele>304.5</ele><time>2026-04-12T08:55:28.929Z</time></trkpt><trkpt lat="43.585302" lon="6.8861736"><ele>301.25</ele><time>2026-04-12T08:55:29.97Z</time></trkpt><trkpt lat="43.5851863" lon="6.8862145"><ele>298.0</ele><time>2026-04-12T08:55:30.935Z</time></trkpt><trkpt lat="43.5850699" lon="6.886252"><ele>298.0</ele><time>2026-04-12T08:55:31.938Z</time></trkpt><trkpt lat="43.584948" lon="6.8862849"><ele>298.0</ele><time>2026-04-12T08:55:32.941Z</time></trkpt><trkpt lat="43.5848376" lon="6.8863131"><ele>298.0</ele><time>2026-04-12T08:55:33.976Z</time></trkpt><trkpt lat="43.5847361" lon="6.8863606"><ele>298.0</ele><time>2026-04-12T08:55:34.934Z</time></trkpt><trkpt lat="43.5846629" lon="6.8864579"><ele>298.0</ele><time>2026-04-12T08:55:35.904Z</time></trkpt><trkpt lat="43.5846164" lon="6.8865912"><ele>298.0</ele><time>2026-04-12T08:55:36.902Z</time></trkpt><trkpt lat="43.5846123" lon="6.8867418"><ele>298.0</ele><time>2026-04-12T08:55:37.929Z</time></trkpt><trkpt lat="43.5846565" lon="6.8868857"><ele>298.0</ele><time>2026-04-12T08:55:38.93Z</time></trkpt><trkpt lat="43.5847352" lon="6.8869824"><ele>298.0</ele><time>2026-04-12T08:55:39.932Z</time></trkpt><trkpt lat="43.5848176" lon="6.887061"><ele>298.0</ele><time>2026-04-12T08:55:40.933Z</time></trkpt><trkpt lat="43.5849" lon="6.8871352"><ele>297.0</ele><time>2026-04-12T08:55:41.921Z</time></trkpt><trkpt lat="43.5849606" lon="6.8872354"><ele>296.0</ele><time>2026-04-12T08:55:42.923Z</time></trkpt><trkpt lat="43.5849928" lon="6.8873558"><ele>295.0</ele><time>2026-04-12T08:55:43.943Z</time></trkpt><trkpt lat="43.584991" lon="6.8874754"><ele>294.0</ele><time>2026-04-12T08:55:44.937Z</time></trkpt><trkpt lat="43.5849724" lon="6.8876"><ele>293.0</ele><time>2026-04-12T08:55:45.941Z</time></trkpt><trkpt lat="43.5849373" lon="6.8877171"><ele>292.83333333333337</ele><time>2026-04-12T08:55:46.924Z</time></trkpt><trkpt lat="43.584899" lon="6.8878245"><ele>292.6666666666667</ele><time>2026-04-12T08:55:47.919Z</time></trkpt><trkpt lat="43.5848705" lon="6.8879293"><ele>292.5</ele><time>2026-04-12T08:55:48.923Z</time></trkpt><trkpt lat="43.5848462" lon="6.8880349"><ele>292.3333333333333</ele><time>2026-04-12T08:55:49.944Z</time></trkpt><trkpt lat="43.5848215" lon="6.8881458"><ele>292.16666666666663</ele><time>2026-04-12T08:55:50.949Z</time></trkpt><trkpt lat="43.5847983" lon="6.8882505"><ele>292.0</ele><time>2026-04-12T08:55:51.928Z</time></trkpt><trkpt lat="43.5847794" lon="6.8883546"><ele>293.16666666666663</ele><time>2026-04-12T08:55:52.941Z</time></trkpt><trkpt lat="43.5847633" lon="6.8884687"><ele>294.3333333333333</ele><time>2026-04-12T08:55:53.943Z</time></trkpt><trkpt lat="43.5847523" lon="6.888576"><ele>295.5</ele><time>2026-04-12T08:55:54.934Z</time></trkpt><trkpt lat="43.5847445" lon="6.8886807"><ele>296.6666666666667</ele><time>2026-04-12T08:55:55.934Z</time></trkpt><trkpt lat="43.5847462" lon="6.8887899"><ele>297.83333333333337</ele><time>2026-04-12T08:55:56.93Z</time></trkpt><trkpt lat="43.584759" lon="6.8888968"><ele>299.0</ele><time>2026-04-12T08:55:57.944Z</time></trkpt><trkpt lat="43.5847901" lon="6.8890046"><ele>299.0</ele><time>2026-04-12T08:55:58.92Z</time></trkpt><trkpt lat="43.5848428" lon="6.8890874"><ele>299.0</ele><time>2026-04-12T08:55:59.933Z</time></trkpt><trkpt lat="43.5849083" lon="6.8891496"><ele>299.0</ele><time>2026-04-12T08:56:00.926Z</time></trkpt><trkpt lat="43.5849683" lon="6.8892098"><ele>299.0</ele><time>2026-04-12T08:56:01.961Z</time></trkpt><trkpt lat="43.5850199" lon="6.8892828"><ele>299.0</ele><time>2026-04-12T08:56:02.922Z</time></trkpt><trkpt lat="43.5850451" lon="6.8893777"><ele>299.0</ele><time>2026-04-12T08:56:03.924Z</time></trkpt><trkpt lat="43.5850564" lon="6.8894762"><ele>300.0</ele><time>2026-04-12T08:56:04.966Z</time></trkpt><trkpt lat="43.5850523" lon="6.8895797"><ele>301.0</ele><time>2026-04-12T08:56:05.94Z</time></trkpt><trkpt lat="43.585032" lon="6.8896695"><ele>302.0</ele><time>2026-04-12T08:56:06.93Z</time></trkpt><trkpt lat="43.5849939" lon="6.8897558"><ele>303.0</ele><time>2026-04-12T08:56:07.931Z</time></trkpt><trkpt lat="43.5849675" lon="6.889847"><ele>304.0</ele><time>2026-04-12T08:56:08.927Z</time></trkpt><trkpt lat="43.5849513" lon="6.889953"><ele>305.0</ele><time>2026-04-12T08:56:09.924Z</time></trkpt><trkpt lat="43.584941" lon="6.8900584"><ele>306.0</ele><time>2026-04-12T08:56:10.922Z</time></trkpt><trkpt lat="43.5849428" lon="6.8901678"><ele>307.5</ele><time>2026-04-12T08:56:11.92Z</time></trkpt><trkpt lat="43.5849603" lon="6.8902759"><ele>309.0</ele><time>2026-04-12T08:56:12.919Z</time></trkpt><trkpt lat="43.5849895" lon="6.8903788"><ele>310.5</ele><time>2026-04-12T08:56:13.929Z</time></trkpt><trkpt lat="43.5850375" lon="6.8904663"><ele>312.0</ele><time>2026-04-12T08:56:14.917Z</time></trkpt><trkpt lat="43.5851166" lon="6.8905417"><ele>313.5</ele><time>2026-04-12T08:56:15.933Z</time></trkpt><trkpt lat="43.5851871" lon="6.8906268"><ele>315.0</ele><time>2026-04-12T08:56:16.918Z</time></trkpt><trkpt lat="43.5852583" lon="6.8907198"><ele>315.0</ele><time>2026-04-12T08:56:17.938Z</time></trkpt><trkpt lat="43.5853301" lon="6.890801"><ele>315.0</ele><time>2026-04-12T08:56:18.926Z</time></trkpt><trkpt lat="43.5853978" lon="6.8908854"><ele>315.0</ele><time>2026-04-12T08:56:19.915Z</time></trkpt><trkpt lat="43.5854674" lon="6.8909597"><ele>315.0</ele><time>2026-04-12T08:56:20.932Z</time></trkpt><trkpt lat="43.5855343" lon="6.8910333"><ele>315.0</ele><time>2026-04-12T08:56:21.921Z</time></trkpt><trkpt lat="43.5855989" lon="6.891127"><ele>309.2</ele><time>2026-04-12T08:56:22.928Z</time></trkpt><trkpt lat="43.5856532" lon="6.8912437"><ele>303.4</ele><time>2026-04-12T08:56:23.922Z</time></trkpt><trkpt lat="43.5856907" lon="6.8913819"><ele>297.6</ele><time>2026-04-12T08:56:24.945Z</time></trkpt><trkpt lat="43.585716" lon="6.8915151"><ele>291.8</ele><time>2026-04-12T08:56:25.931Z</time></trkpt><trkpt lat="43.5857363" lon="6.8916521"><ele>286.0</ele><time>2026-04-12T08:56:26.912Z</time></trkpt><trkpt lat="43.5857569" lon="6.8917908"><ele>286.0</ele><time>2026-04-12T08:56:27.937Z</time></trkpt><trkpt lat="43.5857861" lon="6.8919178"><ele>286.0</ele><time>2026-04-12T08:56:28.931Z</time></trkpt><trkpt lat="43.5858301" lon="6.8920413"><ele>286.0</ele><time>2026-04-12T08:56:29.926Z</time></trkpt><trkpt lat="43.5858783" lon="6.8921621"><ele>286.0</ele><time>2026-04-12T08:56:30.936Z</time></trkpt><trkpt lat="43.5859201" lon="6.8922935"><ele>286.0</ele><time>2026-04-12T08:56:31.924Z</time></trkpt><trkpt lat="43.5859362" lon="6.8924335"><ele>286.0</ele><time>2026-04-12T08:56:32.945Z</time></trkpt><trkpt lat="43.5859129" lon="6.8925648"><ele>286.0</ele><time>2026-04-12T08:56:33.918Z</time></trkpt><trkpt lat="43.5858441" lon="6.8926648"><ele>286.0</ele><time>2026-04-12T08:56:34.945Z</time></trkpt><trkpt lat="43.5857652" lon="6.8927427"><ele>286.0</ele><time>2026-04-12T08:56:35.934Z</time></trkpt><trkpt lat="43.5856698" lon="6.8928045"><ele>286.0</ele><time>2026-04-12T08:56:36.956Z</time></trkpt><trkpt lat="43.5855793" lon="6.8928703"><ele>283.6</ele><time>2026-04-12T08:56:37.933Z</time></trkpt><trkpt lat="43.5854944" lon="6.8929485"><ele>281.20000000000005</ele><time>2026-04-12T08:56:38.944Z</time></trkpt><trkpt lat="43.5854038" lon="6.893011"><ele>278.79999999999995</ele><time>2026-04-12T08:56:39.93Z</time></trkpt><trkpt lat="43.5853093" lon="6.8930546"><ele>276.4</ele><time>2026-04-12T08:56:40.941Z</time></trkpt><trkpt lat="43.5852098" lon="6.8930926"><ele>274.0</ele><time>2026-04-12T08:56:41.935Z</time></trkpt><trkpt lat="43.5851312" lon="6.8931597"><ele>279.4</ele><time>2026-04-12T08:56:42.917Z</time></trkpt><trkpt lat="43.5850895" lon="6.8932934"><ele>284.79999999999995</ele><time>2026-04-12T08:56:43.918Z</time></trkpt><trkpt lat="43.5850926" lon="6.8934443"><ele>290.20000000000005</ele><time>2026-04-12T08:56:44.939Z</time></trkpt><trkpt lat="43.5851374" lon="6.8935568"><ele>295.6</ele><time>2026-04-12T08:56:45.914Z</time></trkpt><trkpt lat="43.5852419" lon="6.8936259"><ele>301.0</ele><time>2026-04-12T08:56:46.915Z</time></trkpt><trkpt lat="43.5853456" lon="6.8936725"><ele>296.6</ele><time>2026-04-12T08:56:47.931Z</time></trkpt><trkpt lat="43.5854443" lon="6.8937108"><ele>292.20000000000005</ele><time>2026-04-12T08:56:48.921Z</time></trkpt><trkpt lat="43.5855376" lon="6.8937641"><ele>287.79999999999995</ele><time>2026-04-12T08:56:49.914Z</time></trkpt><trkpt lat="43.585631" lon="6.8938243"><ele>283.4</ele><time>2026-04-12T08:56:50.928Z</time></trkpt><trkpt lat="43.5857151" lon="6.8939004"><ele>279.0</ele><time>2026-04-12T08:56:51.922Z</time></trkpt><trkpt lat="43.5857901" lon="6.8939956"><ele>279.0</ele><time>2026-04-12T08:56:52.933Z</time></trkpt><trkpt lat="43.5858518" lon="6.8941149"><ele>279.0</ele><time>2026-04-12T08:56:53.905Z</time></trkpt><trkpt lat="43.5859005" lon="6.8942489"><ele>279.0</ele><time>2026-04-12T08:56:54.928Z</time></trkpt><trkpt lat="43.5859117" lon="6.8944049"><ele>279.0</ele><time>2026-04-12T08:56:55.939Z</time></trkpt><trkpt lat="43.5859104" lon="6.8945378"><ele>279.0</ele><time>2026-04-12T08:56:56.927Z</time></trkpt><trkpt lat="43.5858671" lon="6.8946567"><ele>279.0</ele><time>2026-04-12T08:56:57.922Z</time></trkpt><trkpt lat="43.5858099" lon="6.8947891"><ele>279.0</ele><time>2026-04-12T08:56:58.935Z</time></trkpt><trkpt lat="43.5857651" lon="6.8949182"><ele>279.0</ele><time>2026-04-12T08:56:59.95Z</time></trkpt><trkpt lat="43.58573" lon="6.8950488"><ele>279.0</ele><time>2026-04-12T08:57:00.937Z</time></trkpt><trkpt lat="43.5856872" lon="6.8951749"><ele>279.0</ele><time>2026-04-12T08:57:01.93Z</time></trkpt><trkpt lat="43.5856354" lon="6.8952927"><ele>276.2</ele><time>2026-04-12T08:57:02.948Z</time></trkpt><trkpt lat="43.5855631" lon="6.8953832"><ele>273.4</ele><time>2026-04-12T08:57:03.921Z</time></trkpt><trkpt lat="43.5854758" lon="6.8954631"><ele>270.6</ele><time>2026-04-12T08:57:04.926Z</time></trkpt><trkpt lat="43.5853876" lon="6.8955518"><ele>267.8</ele><time>2026-04-12T08:57:05.93Z</time></trkpt><trkpt lat="43.5853368" lon="6.89568"><ele>265.0</ele><time>2026-04-12T08:57:06.932Z</time></trkpt><trkpt lat="43.5853352" lon="6.8958233"><ele>264.2</ele><time>2026-04-12T08:57:07.932Z</time></trkpt><trkpt lat="43.5853745" lon="6.8959735"><ele>263.4</ele><time>2026-04-12T08:57:08.912Z</time></trkpt><trkpt lat="43.5854402" lon="6.8960887"><ele>262.6</ele><time>2026-04-12T08:57:09.895Z</time></trkpt><trkpt lat="43.5855051" lon="6.8962031"><ele>261.8</ele><time>2026-04-12T08:57:10.893Z</time></trkpt><trkpt lat="43.5855385" lon="6.8963506"><ele>261.0</ele><time>2026-04-12T08:57:11.955Z</time></trkpt><trkpt lat="43.5855152" lon="6.8964805"><ele>261.0</ele><time>2026-04-12T08:57:12.925Z</time></trkpt><trkpt lat="43.5854308" lon="6.8966014"><ele>261.0</ele><time>2026-04-12T08:57:13.938Z</time></trkpt><trkpt lat="43.5853633" lon="6.89672"><ele>261.0</ele><time>2026-04-12T08:57:14.924Z</time></trkpt><trkpt lat="43.5853411" lon="6.8968598"><ele>261.0</ele><time>2026-04-12T08:57:15.924Z</time></trkpt><trkpt lat="43.5853228" lon="6.8970033"><ele>261.0</ele><time>2026-04-12T08:57:16.93Z</time></trkpt><trkpt lat="43.5852832" lon="6.8971442"><ele>264.0</ele><time>2026-04-12T08:57:17.919Z</time></trkpt><trkpt lat="43.585235" lon="6.8972779"><ele>267.0</ele><time>2026-04-12T08:57:18.915Z</time></trkpt><trkpt lat="43.585207" lon="6.8974374"><ele>270.0</ele><time>2026-04-12T08:57:19.904Z</time></trkpt><trkpt lat="43.5851954" lon="6.8975849"><ele>273.0</ele><time>2026-04-12T08:57:20.928Z</time></trkpt><trkpt lat="43.5851857" lon="6.8977372"><ele>276.0</ele><time>2026-04-12T08:57:21.931Z</time></trkpt><trkpt lat="43.585143" lon="6.8978776"><ele>276.0</ele><time>2026-04-12T08:57:22.937Z</time></trkpt><trkpt lat="43.5850892" lon="6.8980228"><ele>276.0</ele><time>2026-04-12T08:57:23.951Z</time></trkpt><trkpt lat="43.5850483" lon="6.8981543"><ele>276.0</ele><time>2026-04-12T08:57:24.931Z</time></trkpt><trkpt lat="43.5850576" lon="6.8982993"><ele>276.0</ele><time>2026-04-12T08:57:25.931Z</time></trkpt><trkpt lat="43.5851236" lon="6.8984265"><ele>276.0</ele><time>2026-04-12T08:57:26.939Z</time></trkpt><trkpt lat="43.5852124" lon="6.8984999"><ele>277.8333333333333</ele><time>2026-04-12T08:57:27.942Z</time></trkpt><trkpt lat="43.5853094" lon="6.8985327"><ele>279.6666666666667</ele><time>2026-04-12T08:57:28.919Z</time></trkpt><trkpt lat="43.5853857" lon="6.8985339"><ele>281.5</ele><time>2026-04-12T08:57:29.932Z</time></trkpt><trkpt lat="43.5854678" lon="6.8984862"><ele>283.33333333333337</ele><time>2026-04-12T08:57:30.905Z</time></trkpt><trkpt lat="43.5855416" lon="6.8984291"><ele>285.1666666666667</ele><time>2026-04-12T08:57:31.932Z</time></trkpt><trkpt lat="43.5856121" lon="6.898367"><ele>287.0</ele><time>2026-04-12T08:57:32.93Z</time></trkpt><trkpt lat="43.5856659" lon="6.8982882"><ele>287.1666666666667</ele><time>2026-04-12T08:57:33.913Z</time></trkpt><trkpt lat="43.585719" lon="6.8982077"><ele>287.33333333333337</ele><time>2026-04-12T08:57:34.939Z</time></trkpt><trkpt lat="43.5857708" lon="6.8981351"><ele>287.5</ele><time>2026-04-12T08:57:35.935Z</time></trkpt><trkpt lat="43.5858241" lon="6.8980835"><ele>287.6666666666667</ele><time>2026-04-12T08:57:36.926Z</time></trkpt><trkpt lat="43.585884" lon="6.8980425"><ele>287.8333333333333</ele><time>2026-04-12T08:57:37.937Z</time></trkpt><trkpt lat="43.5859888" lon="6.8979626"><ele>288.0</ele><time>2026-04-12T08:57:39.912Z</time></trkpt><trkpt lat="43.5860394" lon="6.8978477"><ele>288.0</ele><time>2026-04-12T08:57:41.91Z</time></trkpt><trkpt lat="43.5860774" lon="6.8977138"><ele>288.0</ele><time>2026-04-12T08:57:43.915Z</time></trkpt><trkpt lat="43.5861307" lon="6.8975792"><ele>288.0</ele><time>2026-04-12T08:57:45.921Z</time></trkpt><trkpt lat="43.5861981" lon="6.8974698"><ele>288.0</ele><time>2026-04-12T08:57:47.946Z</time></trkpt><trkpt lat="43.5862649" lon="6.8973659"><ele>288.0</ele><time>2026-04-12T08:57:49.912Z</time></trkpt><trkpt lat="43.586352" lon="6.8972874"><ele>289.4</ele><time>2026-04-12T08:57:51.927Z</time></trkpt><trkpt lat="43.5864419" lon="6.8972281"><ele>290.8</ele><time>2026-04-12T08:57:53.957Z</time></trkpt><trkpt lat="43.5865236" lon="6.8971552"><ele>292.2</ele><time>2026-04-12T08:57:55.905Z</time></trkpt><trkpt lat="43.5866013" lon="6.8970736"><ele>293.6</ele><time>2026-04-12T08:57:57.932Z</time></trkpt><trkpt lat="43.5866711" lon="6.8969752"><ele>295.0</ele><time>2026-04-12T08:57:59.944Z</time></trkpt><trkpt lat="43.5867357" lon="6.8968773"><ele>295.0</ele><time>2026-04-12T08:58:01.886Z</time></trkpt><trkpt lat="43.5867918" lon="6.8967627"><ele>295.0</ele><time>2026-04-12T08:58:03.926Z</time></trkpt><trkpt lat="43.5868478" lon="6.8966505"><ele>295.0</ele><time>2026-04-12T08:58:05.922Z</time></trkpt><trkpt lat="43.5869166" lon="6.8965619"><ele>295.0</ele><time>2026-04-12T08:58:07.953Z</time></trkpt><trkpt lat="43.5869894" lon="6.8964806"><ele>295.0</ele><time>2026-04-12T08:58:09.871Z</time></trkpt><trkpt lat="43.5870716" lon="6.8964272"><ele>293.8</ele><time>2026-04-12T08:58:11.913Z</time></trkpt><trkpt lat="43.5871667" lon="6.8963965"><ele>292.6</ele><time>2026-04-12T08:58:13.927Z</time></trkpt><trkpt lat="43.5872589" lon="6.8963992"><ele>291.4</ele><time>2026-04-12T08:58:15.909Z</time></trkpt><trkpt lat="43.5873407" lon="6.8964508"><ele>290.2</ele><time>2026-04-12T08:58:17.909Z</time></trkpt><trkpt lat="43.5874124" lon="6.8965221"><ele>289.0</ele><time>2026-04-12T08:58:19.88Z</time></trkpt><trkpt lat="43.5874866" lon="6.8966027"><ele>289.0</ele><time>2026-04-12T08:58:21.918Z</time></trkpt><trkpt lat="43.587574" lon="6.8966669"><ele>289.0</ele><time>2026-04-12T08:58:23.927Z</time></trkpt><trkpt lat="43.5876668" lon="6.8967043"><ele>289.0</ele><time>2026-04-12T08:58:25.925Z</time></trkpt><trkpt lat="43.5877634" lon="6.8967319"><ele>289.0</ele><time>2026-04-12T08:58:27.919Z</time></trkpt><trkpt lat="43.5878597" lon="6.8967028"><ele>289.0</ele><time>2026-04-12T08:58:29.915Z</time></trkpt><trkpt lat="43.5879589" lon="6.8966766"><ele>289.0</ele><time>2026-04-12T08:58:31.897Z</time></trkpt><trkpt lat="43.5880544" lon="6.8966508"><ele>289.0</ele><time>2026-04-12T08:58:33.91Z</time></trkpt><trkpt lat="43.5881553" lon="6.8966252"><ele>289.0</ele><time>2026-04-12T08:58:35.939Z</time></trkpt><trkpt lat="43.5882525" lon="6.8965969"><ele>289.0</ele><time>2026-04-12T08:58:37.936Z</time></trkpt><trkpt lat="43.5883487" lon="6.8966017"><ele>289.0</ele><time>2026-04-12T08:58:39.922Z</time></trkpt><trkpt lat="43.5884376" lon="6.8966661"><ele>289.0</ele><time>2026-04-12T08:58:41.917Z</time></trkpt><trkpt lat="43.5885125" lon="6.8967397"><ele>289.0</ele><time>2026-04-12T08:58:43.941Z</time></trkpt><trkpt lat="43.5885886" lon="6.8968225"><ele>289.0</ele><time>2026-04-12T08:58:45.943Z</time></trkpt><trkpt lat="43.588651" lon="6.8969147"><ele>289.0</ele><time>2026-04-12T08:58:47.921Z</time></trkpt><trkpt lat="43.5886647" lon="6.8970524"><ele>289.0</ele><time>2026-04-12T08:58:49.935Z</time></trkpt><trkpt lat="43.5886382" lon="6.8971987"><ele>290.2</ele><time>2026-04-12T08:58:51.952Z</time></trkpt><trkpt lat="43.58858" lon="6.8973499"><ele>291.4</ele><time>2026-04-12T08:58:53.945Z</time></trkpt><trkpt lat="43.588514" lon="6.8974856"><ele>292.6</ele><time>2026-04-12T08:58:55.929Z</time></trkpt><trkpt lat="43.5884787" lon="6.8975731"><ele>293.8</ele><time>2026-04-12T08:58:56.954Z</time></trkpt><trkpt lat="43.5884391" lon="6.8976584"><ele>295.0</ele><time>2026-04-12T08:58:57.938Z</time></trkpt><trkpt lat="43.5884036" lon="6.8977569"><ele>292.66666666666663</ele><time>2026-04-12T08:58:58.94Z</time></trkpt><trkpt lat="43.5883675" lon="6.8978671"><ele>290.3333333333333</ele><time>2026-04-12T08:58:59.928Z</time></trkpt><trkpt lat="43.5883273" lon="6.897971"><ele>288.0</ele><time>2026-04-12T08:59:00.907Z</time></trkpt><trkpt lat="43.5882811" lon="6.8980703"><ele>285.6666666666667</ele><time>2026-04-12T08:59:01.956Z</time></trkpt><trkpt lat="43.5882245" lon="6.8981719"><ele>283.33333333333337</ele><time>2026-04-12T08:59:02.922Z</time></trkpt><trkpt lat="43.5881603" lon="6.8982575"><ele>281.0</ele><time>2026-04-12T08:59:03.94Z</time></trkpt><trkpt lat="43.5881016" lon="6.8983524"><ele>277.8</ele><time>2026-04-12T08:59:04.932Z</time></trkpt><trkpt lat="43.5880642" lon="6.8984731"><ele>274.6</ele><time>2026-04-12T08:59:05.933Z</time></trkpt><trkpt lat="43.58805" lon="6.8986165"><ele>271.4</ele><time>2026-04-12T08:59:06.895Z</time></trkpt><trkpt lat="43.5880351" lon="6.8987673"><ele>268.2</ele><time>2026-04-12T08:59:07.891Z</time></trkpt><trkpt lat="43.5880108" lon="6.8989005"><ele>265.0</ele><time>2026-04-12T08:59:08.882Z</time></trkpt><trkpt lat="43.5879807" lon="6.899048"><ele>265.0</ele><time>2026-04-12T08:59:09.947Z</time></trkpt><trkpt lat="43.5879574" lon="6.8991994"><ele>265.0</ele><time>2026-04-12T08:59:10.941Z</time></trkpt><trkpt lat="43.5879389" lon="6.8993513"><ele>265.0</ele><time>2026-04-12T08:59:11.941Z</time></trkpt><trkpt lat="43.5879076" lon="6.8994995"><ele>265.0</ele><time>2026-04-12T08:59:12.931Z</time></trkpt><trkpt lat="43.5878597" lon="6.8996361"><ele>265.0</ele><time>2026-04-12T08:59:13.943Z</time></trkpt><trkpt lat="43.5877981" lon="6.899766"><ele>272.25</ele><time>2026-04-12T08:59:14.909Z</time></trkpt><trkpt lat="43.5877502" lon="6.8999179"><ele>279.5</ele><time>2026-04-12T08:59:15.93Z</time></trkpt><trkpt lat="43.5877424" lon="6.9000807"><ele>286.75</ele><time>2026-04-12T08:59:16.922Z</time></trkpt><trkpt lat="43.587771" lon="6.9002429"><ele>294.0</ele><time>2026-04-12T08:59:17.94Z</time></trkpt><trkpt lat="43.5878212" lon="6.9004008"><ele>286.25</ele><time>2026-04-12T08:59:18.932Z</time></trkpt><trkpt lat="43.5878761" lon="6.9005468"><ele>278.5</ele><time>2026-04-12T08:59:19.901Z</time></trkpt><trkpt lat="43.5879291" lon="6.9006956"><ele>270.75</ele><time>2026-04-12T08:59:20.94Z</time></trkpt><trkpt lat="43.5879827" lon="6.9008462"><ele>263.0</ele><time>2026-04-12T08:59:21.906Z</time></trkpt><trkpt lat="43.5880252" lon="6.901011"><ele>263.0</ele><time>2026-04-12T08:59:22.943Z</time></trkpt><trkpt lat="43.5880338" lon="6.901177"><ele>263.0</ele><time>2026-04-12T08:59:23.945Z</time></trkpt><trkpt lat="43.5880208" lon="6.9013396"><ele>263.0</ele><time>2026-04-12T08:59:24.93Z</time></trkpt><trkpt lat="43.5880336" lon="6.9015008"><ele>263.0</ele><time>2026-04-12T08:59:25.946Z</time></trkpt><trkpt lat="43.5880776" lon="6.9016567"><ele>265.75</ele><time>2026-04-12T08:59:26.946Z</time></trkpt><trkpt lat="43.5881635" lon="6.9017805"><ele>268.5</ele><time>2026-04-12T08:59:27.925Z</time></trkpt><trkpt lat="43.588276" lon="6.9018799"><ele>271.25</ele><time>2026-04-12T08:59:28.923Z</time></trkpt><trkpt lat="43.5883869" lon="6.9019757"><ele>274.0</ele><time>2026-04-12T08:59:29.945Z</time></trkpt><trkpt lat="43.5885031" lon="6.9020596"><ele>274.0</ele><time>2026-04-12T08:59:30.918Z</time></trkpt><trkpt lat="43.5886085" lon="6.9021578"><ele>274.0</ele><time>2026-04-12T08:59:31.926Z</time></trkpt><trkpt lat="43.5887113" lon="6.9022535"><ele>274.0</ele><time>2026-04-12T08:59:32.921Z</time></trkpt><trkpt lat="43.5888057" lon="6.9023327"><ele>274.0</ele><time>2026-04-12T08:59:33.941Z</time></trkpt><trkpt lat="43.5888902" lon="6.9023618"><ele>274.0</ele><time>2026-04-12T08:59:34.943Z</time></trkpt><trkpt lat="43.5889613" lon="6.9023215"><ele>272.4</ele><time>2026-04-12T08:59:35.917Z</time></trkpt><trkpt lat="43.5890264" lon="6.9022201"><ele>270.79999999999995</ele><time>2026-04-12T08:59:36.927Z</time></trkpt><trkpt lat="43.5890684" lon="6.9021111"><ele>269.20000000000005</ele><time>2026-04-12T08:59:37.917Z</time></trkpt><trkpt lat="43.5891107" lon="6.9019892"><ele>267.6</ele><time>2026-04-12T08:59:38.931Z</time></trkpt><trkpt lat="43.5891693" lon="6.9018705"><ele>266.0</ele><time>2026-04-12T08:59:39.905Z</time></trkpt><trkpt lat="43.5892631" lon="6.9017959"><ele>266.0</ele><time>2026-04-12T08:59:40.929Z</time></trkpt><trkpt lat="43.5893768" lon="6.9017826"><ele>266.0</ele><time>2026-04-12T08:59:41.908Z</time></trkpt><trkpt lat="43.5894889" lon="6.9018338"><ele>266.0</ele><time>2026-04-12T08:59:42.943Z</time></trkpt><trkpt lat="43.5895888" lon="6.9019171"><ele>266.0</ele><time>2026-04-12T08:59:43.919Z</time></trkpt><trkpt lat="43.5896778" lon="6.9019943"><ele>262.75</ele><time>2026-04-12T08:59:44.925Z</time></trkpt><trkpt lat="43.5897744" lon="6.9020745"><ele>259.5</ele><time>2026-04-12T08:59:45.922Z</time></trkpt><trkpt lat="43.589873" lon="6.9021554"><ele>256.25</ele><time>2026-04-12T08:59:46.931Z</time></trkpt><trkpt lat="43.5899715" lon="6.9022497"><ele>253.0</ele><time>2026-04-12T08:59:47.942Z</time></trkpt><trkpt lat="43.5900584" lon="6.9023563"><ele>253.0</ele><time>2026-04-12T08:59:48.928Z</time></trkpt><trkpt lat="43.5901456" lon="6.9024863"><ele>253.0</ele><time>2026-04-12T08:59:49.94Z</time></trkpt><trkpt lat="43.5902097" lon="6.902624"><ele>253.0</ele><time>2026-04-12T08:59:50.943Z</time></trkpt><trkpt lat="43.5902431" lon="6.9027733"><ele>253.0</ele><time>2026-04-12T08:59:51.924Z</time></trkpt><trkpt lat="43.5902676" lon="6.9029015"><ele>252.2</ele><time>2026-04-12T08:59:52.905Z</time></trkpt><trkpt lat="43.5903316" lon="6.9029999"><ele>251.4</ele><time>2026-04-12T08:59:53.882Z</time></trkpt><trkpt lat="43.5904374" lon="6.903047"><ele>250.59999999999997</ele><time>2026-04-12T08:59:54.918Z</time></trkpt><trkpt lat="43.5905476" lon="6.903041"><ele>249.79999999999998</ele><time>2026-04-12T08:59:55.92Z</time></trkpt><trkpt lat="43.5906591" lon="6.9030347"><ele>249.0</ele><time>2026-04-12T08:59:56.921Z</time></trkpt><trkpt lat="43.5907663" lon="6.903034"><ele>249.0</ele><time>2026-04-12T08:59:57.938Z</time></trkpt><trkpt lat="43.5908754" lon="6.9030555"><ele>249.0</ele><time>2026-04-12T08:59:58.938Z</time></trkpt><trkpt lat="43.5909833" lon="6.9030865"><ele>249.0</ele><time>2026-04-12T08:59:59.926Z</time></trkpt><trkpt lat="43.5910996" lon="6.9031017"><ele>249.0</ele><time>2026-04-12T09:00:00.929Z</time></trkpt><trkpt lat="43.5912153" lon="6.9031271"><ele>247.75</ele><time>2026-04-12T09:00:01.917Z</time></trkpt><trkpt lat="43.5913309" lon="6.9031784"><ele>246.5</ele><time>2026-04-12T09:00:02.934Z</time></trkpt><trkpt lat="43.5914329" lon="6.9032619"><ele>245.25</ele><time>2026-04-12T09:00:03.947Z</time></trkpt><trkpt lat="43.5915228" lon="6.9033807"><ele>244.0</ele><time>2026-04-12T09:00:04.919Z</time></trkpt><trkpt lat="43.5915878" lon="6.9035092"><ele>244.0</ele><time>2026-04-12T09:00:05.927Z</time></trkpt><trkpt lat="43.5916697" lon="6.9036238"><ele>244.0</ele><time>2026-04-12T09:00:06.925Z</time></trkpt><trkpt lat="43.5917994" lon="6.903694"><ele>244.0</ele><time>2026-04-12T09:00:07.923Z</time></trkpt><trkpt lat="43.5919195" lon="6.9037413"><ele>244.0</ele><time>2026-04-12T09:00:08.936Z</time></trkpt><trkpt lat="43.5920192" lon="6.9038189"><ele>240.25</ele><time>2026-04-12T09:00:09.939Z</time></trkpt><trkpt lat="43.592114" lon="6.9039315"><ele>236.5</ele><time>2026-04-12T09:00:10.93Z</time></trkpt><trkpt lat="43.5921966" lon="6.9040583"><ele>232.75</ele><time>2026-04-12T09:00:11.9Z</time></trkpt><trkpt lat="43.5922917" lon="6.9041934"><ele>229.0</ele><time>2026-04-12T09:00:12.932Z</time></trkpt><trkpt lat="43.5923818" lon="6.9043129"><ele>229.0</ele><time>2026-04-12T09:00:13.933Z</time></trkpt><trkpt lat="43.592473" lon="6.9044363"><ele>229.0</ele><time>2026-04-12T09:00:14.927Z</time></trkpt><trkpt lat="43.5925586" lon="6.9045574"><ele>229.0</ele><time>2026-04-12T09:00:15.931Z</time></trkpt><trkpt lat="43.5926529" lon="6.9046775"><ele>229.0</ele><time>2026-04-12T09:00:16.939Z</time></trkpt><trkpt lat="43.5927466" lon="6.9047976"><ele>226.6</ele><time>2026-04-12T09:00:17.94Z</time></trkpt><trkpt lat="43.5928409" lon="6.9049066"><ele>224.2</ele><time>2026-04-12T09:00:18.929Z</time></trkpt><trkpt lat="43.5929169" lon="6.9050347"><ele>221.79999999999998</ele><time>2026-04-12T09:00:19.924Z</time></trkpt><trkpt lat="43.5929576" lon="6.9051633"><ele>219.39999999999998</ele><time>2026-04-12T09:00:20.928Z</time></trkpt><trkpt lat="43.592943" lon="6.905291"><ele>217.0</ele><time>2026-04-12T09:00:21.932Z</time></trkpt><trkpt lat="43.5928802" lon="6.9054134"><ele>217.39999999999998</ele><time>2026-04-12T09:00:22.922Z</time></trkpt><trkpt lat="43.5928044" lon="6.905495"><ele>217.79999999999998</ele><time>2026-04-12T09:00:23.892Z</time></trkpt><trkpt lat="43.5927184" lon="6.9055509"><ele>218.2</ele><time>2026-04-12T09:00:24.921Z</time></trkpt><trkpt lat="43.5926249" lon="6.9055935"><ele>218.6</ele><time>2026-04-12T09:00:25.927Z</time></trkpt><trkpt lat="43.5925233" lon="6.9056379"><ele>219.0</ele><time>2026-04-12T09:00:26.935Z</time></trkpt><trkpt lat="43.592428" lon="6.9056843"><ele>219.0</ele><time>2026-04-12T09:00:27.933Z</time></trkpt><trkpt lat="43.5923314" lon="6.9057302"><ele>218.99999999999997</ele><time>2026-04-12T09:00:28.944Z</time></trkpt><trkpt lat="43.5922328" lon="6.9057731"><ele>218.99999999999997</ele><time>2026-04-12T09:00:29.951Z</time></trkpt><trkpt lat="43.592128" lon="6.9058193"><ele>219.0</ele><time>2026-04-12T09:00:30.933Z</time></trkpt><trkpt lat="43.5920227" lon="6.9058683"><ele>219.0</ele><time>2026-04-12T09:00:31.949Z</time></trkpt><trkpt lat="43.5919189" lon="6.9059271"><ele>213.5</ele><time>2026-04-12T09:00:32.943Z</time></trkpt><trkpt lat="43.5918171" lon="6.9059961"><ele>208.0</ele><time>2026-04-12T09:00:33.915Z</time></trkpt><trkpt lat="43.5917103" lon="6.9060621"><ele>202.5</ele><time>2026-04-12T09:00:34.942Z</time></trkpt><trkpt lat="43.5916008" lon="6.9061086"><ele>197.0</ele><time>2026-04-12T09:00:35.922Z</time></trkpt><trkpt lat="43.5914837" lon="6.906131"><ele>197.0</ele><time>2026-04-12T09:00:36.965Z</time></trkpt><trkpt lat="43.5913619" lon="6.9061341"><ele>197.0</ele><time>2026-04-12T09:00:37.949Z</time></trkpt><trkpt lat="43.591238" lon="6.9061879"><ele>197.0</ele><time>2026-04-12T09:00:38.933Z</time></trkpt><trkpt lat="43.5911223" lon="6.9062541"><ele>197.0</ele><time>2026-04-12T09:00:39.906Z</time></trkpt><trkpt lat="43.5909912" lon="6.9062859"><ele>197.5</ele><time>2026-04-12T09:00:40.919Z</time></trkpt><trkpt lat="43.5908719" lon="6.9062514"><ele>198.0</ele><time>2026-04-12T09:00:41.933Z</time></trkpt><trkpt lat="43.5907646" lon="6.9062413"><ele>198.5</ele><time>2026-04-12T09:00:42.907Z</time></trkpt><trkpt lat="43.5906654" lon="6.9063149"><ele>199.0</ele><time>2026-04-12T09:00:43.939Z</time></trkpt><trkpt lat="43.5905753" lon="6.9064488"><ele>199.0</ele><time>2026-04-12T09:00:44.937Z</time></trkpt><trkpt lat="43.5904803" lon="6.9065713"><ele>199.0</ele><time>2026-04-12T09:00:45.945Z</time></trkpt><trkpt lat="43.5903736" lon="6.9066073"><ele>199.0</ele><time>2026-04-12T09:00:46.941Z</time></trkpt><trkpt lat="43.590258" lon="6.9065835"><ele>199.0</ele><time>2026-04-12T09:00:47.932Z</time></trkpt><trkpt lat="43.5901522" lon="6.9065365"><ele>197.75</ele><time>2026-04-12T09:00:48.931Z</time></trkpt><trkpt lat="43.590057" lon="6.9064589"><ele>196.5</ele><time>2026-04-12T09:00:49.909Z</time></trkpt><trkpt lat="43.5899802" lon="6.9063288"><ele>195.25</ele><time>2026-04-12T09:00:50.929Z</time></trkpt><trkpt lat="43.5899275" lon="6.9061764"><ele>194.0</ele><time>2026-04-12T09:00:51.955Z</time></trkpt><trkpt lat="43.5898887" lon="6.9060143"><ele>195.2</ele><time>2026-04-12T09:00:52.926Z</time></trkpt><trkpt lat="43.5898377" lon="6.9058627"><ele>196.39999999999998</ele><time>2026-04-12T09:00:53.93Z</time></trkpt><trkpt lat="43.5897756" lon="6.9057368"><ele>197.6</ele><time>2026-04-12T09:00:54.926Z</time></trkpt><trkpt lat="43.5896986" lon="6.9056367"><ele>198.8</ele><time>2026-04-12T09:00:55.94Z</time></trkpt><trkpt lat="43.5895954" lon="6.9056114"><ele>200.0</ele><time>2026-04-12T09:00:56.921Z</time></trkpt><trkpt lat="43.5895055" lon="6.905659"><ele>200.0</ele><time>2026-04-12T09:00:57.946Z</time></trkpt><trkpt lat="43.5894279" lon="6.9057573"><ele>200.0</ele><time>2026-04-12T09:00:58.937Z</time></trkpt><trkpt lat="43.589357" lon="6.9058773"><ele>200.0</ele><time>2026-04-12T09:00:59.91Z</time></trkpt><trkpt lat="43.5892866" lon="6.9060001"><ele>200.0</ele><time>2026-04-12T09:01:00.926Z</time></trkpt><trkpt lat="43.5891992" lon="6.9060702"><ele>200.0</ele><time>2026-04-12T09:01:01.944Z</time></trkpt><trkpt lat="43.5890974" lon="6.9060586"><ele>200.0</ele><time>2026-04-12T09:01:02.93Z</time></trkpt><trkpt lat="43.5890009" lon="6.9060006"><ele>200.0</ele><time>2026-04-12T09:01:03.933Z</time></trkpt><trkpt lat="43.5889019" lon="6.9059186"><ele>200.0</ele><time>2026-04-12T09:01:04.937Z</time></trkpt><trkpt lat="43.5887925" lon="6.9058918"><ele>200.0</ele><time>2026-04-12T09:01:05.959Z</time></trkpt><trkpt lat="43.5887038" lon="6.9059412"><ele>200.0</ele><time>2026-04-12T09:01:06.939Z</time></trkpt><trkpt lat="43.5886536" lon="6.9060353"><ele>200.8</ele><time>2026-04-12T09:01:07.935Z</time></trkpt><trkpt lat="43.588637" lon="6.906182"><ele>201.6</ele><time>2026-04-12T09:01:08.937Z</time></trkpt><trkpt lat="43.5886528" lon="6.9063153"><ele>202.39999999999998</ele><time>2026-04-12T09:01:09.92Z</time></trkpt><trkpt lat="43.5886714" lon="6.9064415"><ele>203.2</ele><time>2026-04-12T09:01:10.936Z</time></trkpt><trkpt lat="43.5886977" lon="6.9065768"><ele>204.0</ele><time>2026-04-12T09:01:11.936Z</time></trkpt><trkpt lat="43.5887244" lon="6.9067197"><ele>197.0</ele><time>2026-04-12T09:01:12.94Z</time></trkpt><trkpt lat="43.5887551" lon="6.9068648"><ele>190.0</ele><time>2026-04-12T09:01:13.941Z</time></trkpt><trkpt lat="43.5887793" lon="6.9070206"><ele>183.0</ele><time>2026-04-12T09:01:14.932Z</time></trkpt><trkpt lat="43.5888008" lon="6.9071804"><ele>176.0</ele><time>2026-04-12T09:01:15.931Z</time></trkpt><trkpt lat="43.5888283" lon="6.9073348"><ele>176.0</ele><time>2026-04-12T09:01:16.93Z</time></trkpt><trkpt lat="43.5888657" lon="6.9074847"><ele>176.0</ele><time>2026-04-12T09:01:17.925Z</time></trkpt><trkpt lat="43.5889186" lon="6.9076272"><ele>176.0</ele><time>2026-04-12T09:01:18.887Z</time></trkpt><trkpt lat="43.5889693" lon="6.9077782"><ele>176.0</ele><time>2026-04-12T09:01:19.946Z</time></trkpt><trkpt lat="43.5890179" lon="6.907933"><ele>177.25</ele><time>2026-04-12T09:01:20.93Z</time></trkpt><trkpt lat="43.5890648" lon="6.9080834"><ele>178.5</ele><time>2026-04-12T09:01:21.945Z</time></trkpt><trkpt lat="43.5891425" lon="6.908219"><ele>179.75</ele><time>2026-04-12T09:01:22.931Z</time></trkpt><trkpt lat="43.5892331" lon="6.9083222"><ele>181.0</ele><time>2026-04-12T09:01:23.925Z</time></trkpt><trkpt lat="43.5893262" lon="6.9084057"><ele>180.75</ele><time>2026-04-12T09:01:24.943Z</time></trkpt><trkpt lat="43.5894136" lon="6.9085114"><ele>180.5</ele><time>2026-04-12T09:01:25.963Z</time></trkpt><trkpt lat="43.5894689" lon="6.9086589"><ele>180.25</ele><time>2026-04-12T09:01:26.947Z</time></trkpt><trkpt lat="43.5894977" lon="6.9088066"><ele>180.0</ele><time>2026-04-12T09:01:27.942Z</time></trkpt><trkpt lat="43.5895069" lon="6.9089663"><ele>180.0</ele><time>2026-04-12T09:01:28.947Z</time></trkpt><trkpt lat="43.5894917" lon="6.9091216"><ele>180.0</ele><time>2026-04-12T09:01:29.916Z</time></trkpt><trkpt lat="43.5894462" lon="6.9092673"><ele>180.0</ele><time>2026-04-12T09:01:30.933Z</time></trkpt><trkpt lat="43.5893901" lon="6.9094285"><ele>180.0</ele><time>2026-04-12T09:01:31.938Z</time></trkpt><trkpt lat="43.5893472" lon="6.9095878"><ele>176.0</ele><time>2026-04-12T09:01:32.934Z</time></trkpt><trkpt lat="43.5893077" lon="6.9097605"><ele>172.0</ele><time>2026-04-12T09:01:33.929Z</time></trkpt><trkpt lat="43.5892736" lon="6.9099237"><ele>168.0</ele><time>2026-04-12T09:01:34.91Z</time></trkpt><trkpt lat="43.5892362" lon="6.9100888"><ele>164.0</ele><time>2026-04-12T09:01:35.955Z</time></trkpt><trkpt lat="43.5891689" lon="6.9102097"><ele>160.0</ele><time>2026-04-12T09:01:36.884Z</time></trkpt><trkpt lat="43.5890838" lon="6.9102871"><ele>156.0</ele><time>2026-04-12T09:01:37.949Z</time></trkpt><trkpt lat="43.5889915" lon="6.9102883"><ele>152.0</ele><time>2026-04-12T09:01:38.941Z</time></trkpt><trkpt lat="43.5889004" lon="6.9102359"><ele>148.0</ele><time>2026-04-12T09:01:39.937Z</time></trkpt><trkpt lat="43.5888025" lon="6.9101693"><ele>144.0</ele><time>2026-04-12T09:01:40.927Z</time></trkpt><trkpt lat="43.5886985" lon="6.9101333"><ele>144.0</ele><time>2026-04-12T09:01:41.96Z</time></trkpt><trkpt lat="43.5885902" lon="6.9101249"><ele>144.0</ele><time>2026-04-12T09:01:42.909Z</time></trkpt><trkpt lat="43.5884865" lon="6.91009"><ele>144.0</ele><time>2026-04-12T09:01:43.943Z</time></trkpt><trkpt lat="43.5883857" lon="6.9100206"><ele>144.0</ele><time>2026-04-12T09:01:44.907Z</time></trkpt><trkpt lat="43.5882782" lon="6.9099677"><ele>144.0</ele><time>2026-04-12T09:01:45.93Z</time></trkpt><trkpt lat="43.5881671" lon="6.9099762"><ele>144.0</ele><time>2026-04-12T09:01:46.927Z</time></trkpt><trkpt lat="43.5880628" lon="6.9100377"><ele>144.0</ele><time>2026-04-12T09:01:47.912Z</time></trkpt><trkpt lat="43.5880018" lon="6.9101633"><ele>144.0</ele><time>2026-04-12T09:01:48.933Z</time></trkpt><trkpt lat="43.5879809" lon="6.9103036"><ele>144.0</ele><time>2026-04-12T09:01:49.953Z</time></trkpt><trkpt lat="43.5879752" lon="6.9104685"><ele>144.0</ele><time>2026-04-12T09:01:50.928Z</time></trkpt><trkpt lat="43.5879866" lon="6.9106233"><ele>144.0</ele><time>2026-04-12T09:01:51.913Z</time></trkpt><trkpt lat="43.5879961" lon="6.9107863"><ele>144.0</ele><time>2026-04-12T09:01:52.92Z</time></trkpt><trkpt lat="43.5880085" lon="6.9109496"><ele>144.0</ele><time>2026-04-12T09:01:53.94Z</time></trkpt><trkpt lat="43.5880101" lon="6.9111254"><ele>144.0</ele><time>2026-04-12T09:01:54.894Z</time></trkpt><trkpt lat="43.5880235" lon="6.9112929"><ele>141.5</ele><time>2026-04-12T09:01:55.942Z</time></trkpt><trkpt lat="43.5880345" lon="6.9114607"><ele>139.0</ele><time>2026-04-12T09:01:56.926Z</time></trkpt><trkpt lat="43.5880422" lon="6.9116355"><ele>136.5</ele><time>2026-04-12T09:01:57.914Z</time></trkpt><trkpt lat="43.5880491" lon="6.9118144"><ele>134.0</ele><time>2026-04-12T09:01:58.953Z</time></trkpt><trkpt lat="43.588064" lon="6.9119932"><ele>133.75</ele><time>2026-04-12T09:01:59.929Z</time></trkpt><trkpt lat="43.5880898" lon="6.9121669"><ele>133.5</ele><time>2026-04-12T09:02:00.938Z</time></trkpt><trkpt lat="43.5881254" lon="6.9123405"><ele>133.25</ele><time>2026-04-12T09:02:01.93Z</time></trkpt><trkpt lat="43.5881604" lon="6.9125137"><ele>133.0</ele><time>2026-04-12T09:02:02.939Z</time></trkpt><trkpt lat="43.5881912" lon="6.9126899"><ele>133.0</ele><time>2026-04-12T09:02:03.912Z</time></trkpt><trkpt lat="43.5882262" lon="6.9128643"><ele>133.0</ele><time>2026-04-12T09:02:04.969Z</time></trkpt><trkpt lat="43.5882542" lon="6.9130368"><ele>133.0</ele><time>2026-04-12T09:02:05.953Z</time></trkpt><trkpt lat="43.5882584" lon="6.913217"><ele>133.0</ele><time>2026-04-12T09:02:06.95Z</time></trkpt><trkpt lat="43.5882243" lon="6.9133932"><ele>131.75</ele><time>2026-04-12T09:02:07.934Z</time></trkpt><trkpt lat="43.5881997" lon="6.9135711"><ele>130.5</ele><time>2026-04-12T09:02:08.945Z</time></trkpt><trkpt lat="43.5881912" lon="6.9137468"><ele>129.25</ele><time>2026-04-12T09:02:09.943Z</time></trkpt><trkpt lat="43.5881817" lon="6.9139312"><ele>128.0</ele><time>2026-04-12T09:02:10.932Z</time></trkpt><trkpt lat="43.5881695" lon="6.9141077"><ele>126.0</ele><time>2026-04-12T09:02:11.949Z</time></trkpt><trkpt lat="43.588164" lon="6.9142927"><ele>124.0</ele><time>2026-04-12T09:02:12.952Z</time></trkpt><trkpt lat="43.5881436" lon="6.9144763"><ele>122.0</ele><time>2026-04-12T09:02:13.914Z</time></trkpt><trkpt lat="43.5881012" lon="6.9146423"><ele>120.0</ele><time>2026-04-12T09:02:14.946Z</time></trkpt><trkpt lat="43.5880517" lon="6.914787"><ele>120.0</ele><time>2026-04-12T09:02:15.95Z</time></trkpt><trkpt lat="43.5879758" lon="6.9149056"><ele>120.0</ele><time>2026-04-12T09:02:16.942Z</time></trkpt><trkpt lat="43.5878665" lon="6.9149637"><ele>120.0</ele><time>2026-04-12T09:02:17.931Z</time></trkpt><trkpt lat="43.5877588" lon="6.914985"><ele>120.0</ele><time>2026-04-12T09:02:18.922Z</time></trkpt><trkpt lat="43.5876705" lon="6.9150158"><ele>120.0</ele><time>2026-04-12T09:02:19.905Z</time></trkpt><trkpt lat="43.5876088" lon="6.915083"><ele>117.6</ele><time>2026-04-12T09:02:20.908Z</time></trkpt><trkpt lat="43.5875623" lon="6.9152153"><ele>115.2</ele><time>2026-04-12T09:02:21.952Z</time></trkpt><trkpt lat="43.587576" lon="6.9153492"><ele>112.80000000000001</ele><time>2026-04-12T09:02:22.924Z</time></trkpt><trkpt lat="43.5876374" lon="6.9154539"><ele>110.4</ele><time>2026-04-12T09:02:23.922Z</time></trkpt><trkpt lat="43.5877348" lon="6.9154934"><ele>108.0</ele><time>2026-04-12T09:02:24.926Z</time></trkpt><trkpt lat="43.5878492" lon="6.9154963"><ele>108.0</ele><time>2026-04-12T09:02:25.943Z</time></trkpt><trkpt lat="43.5879551" lon="6.9154861"><ele>108.00000000000001</ele><time>2026-04-12T09:02:26.938Z</time></trkpt><trkpt lat="43.5880617" lon="6.9154859"><ele>108.00000000000001</ele><time>2026-04-12T09:02:27.927Z</time></trkpt><trkpt lat="43.5881695" lon="6.9154734"><ele>108.0</ele><time>2026-04-12T09:02:28.936Z</time></trkpt><trkpt lat="43.5882702" lon="6.9153927"><ele>108.0</ele><time>2026-04-12T09:02:29.924Z</time></trkpt><trkpt lat="43.5883256" lon="6.9152671"><ele>108.0</ele><time>2026-04-12T09:02:30.948Z</time></trkpt><trkpt lat="43.5883489" lon="6.9151044"><ele>108.00000000000001</ele><time>2026-04-12T09:02:31.931Z</time></trkpt><trkpt lat="43.5883428" lon="6.9149391"><ele>108.00000000000001</ele><time>2026-04-12T09:02:32.943Z</time></trkpt><trkpt lat="43.5883666" lon="6.9148073"><ele>108.0</ele><time>2026-04-12T09:02:33.929Z</time></trkpt><trkpt lat="43.5884233" lon="6.9147268"><ele>108.0</ele><time>2026-04-12T09:02:34.917Z</time></trkpt><trkpt lat="43.588495" lon="6.9147215"><ele>108.0</ele><time>2026-04-12T09:02:35.948Z</time></trkpt><trkpt lat="43.588552" lon="6.9147822"><ele>108.0</ele><time>2026-04-12T09:02:36.932Z</time></trkpt><trkpt lat="43.5885891" lon="6.9148828"><ele>108.0</ele><time>2026-04-12T09:02:37.928Z</time></trkpt><trkpt lat="43.5886024" lon="6.9150135"><ele>108.0</ele><time>2026-04-12T09:02:38.939Z</time></trkpt><trkpt lat="43.5886344" lon="6.9151342"><ele>108.0</ele><time>2026-04-12T09:02:39.912Z</time></trkpt><trkpt lat="43.5887012" lon="6.9152416"><ele>108.0</ele><time>2026-04-12T09:02:40.954Z</time></trkpt><trkpt lat="43.5887932" lon="6.9153304"><ele>105.80000000000001</ele><time>2026-04-12T09:02:41.923Z</time></trkpt><trkpt lat="43.5888876" lon="6.9154188"><ele>103.60000000000001</ele><time>2026-04-12T09:02:42.946Z</time></trkpt><trkpt lat="43.5889709" lon="6.9155188"><ele>101.4</ele><time>2026-04-12T09:02:43.931Z</time></trkpt><trkpt lat="43.5890474" lon="6.9156284"><ele>99.19999999999999</ele><time>2026-04-12T09:02:44.947Z</time></trkpt><trkpt lat="43.5891229" lon="6.9157409"><ele>97.0</ele><time>2026-04-12T09:02:45.917Z</time></trkpt><trkpt lat="43.5891894" lon="6.9158496"><ele>94.39999999999999</ele><time>2026-04-12T09:02:46.933Z</time></trkpt><trkpt lat="43.5892141" lon="6.9159523"><ele>91.8</ele><time>2026-04-12T09:02:47.937Z</time></trkpt><trkpt lat="43.5891843" lon="6.9160648"><ele>89.2</ele><time>2026-04-12T09:02:48.955Z</time></trkpt><trkpt lat="43.5890958" lon="6.9161167"><ele>86.6</ele><time>2026-04-12T09:02:49.891Z</time></trkpt><trkpt lat="43.588988" lon="6.9160909"><ele>84.0</ele><time>2026-04-12T09:02:50.928Z</time></trkpt><trkpt lat="43.5888945" lon="6.9160144"><ele>84.0</ele><time>2026-04-12T09:02:51.953Z</time></trkpt><trkpt lat="43.5888088" lon="6.9159371"><ele>84.0</ele><time>2026-04-12T09:02:52.939Z</time></trkpt><trkpt lat="43.5887191" lon="6.9158666"><ele>84.0</ele><time>2026-04-12T09:02:53.931Z</time></trkpt><trkpt lat="43.5886222" lon="6.9158176"><ele>84.0</ele><time>2026-04-12T09:02:54.943Z</time></trkpt><trkpt lat="43.5885079" lon="6.9158235"><ele>84.0</ele><time>2026-04-12T09:02:55.944Z</time></trkpt><trkpt lat="43.5883971" lon="6.9159044"><ele>85.0</ele><time>2026-04-12T09:02:56.93Z</time></trkpt><trkpt lat="43.5883241" lon="6.9160304"><ele>86.0</ele><time>2026-04-12T09:02:57.931Z</time></trkpt><trkpt lat="43.5882648" lon="6.9161624"><ele>87.0</ele><time>2026-04-12T09:02:58.936Z</time></trkpt><trkpt lat="43.588228" lon="6.9163087"><ele>88.0</ele><time>2026-04-12T09:02:59.924Z</time></trkpt><trkpt lat="43.5881954" lon="6.9164636"><ele>88.0</ele><time>2026-04-12T09:03:00.922Z</time></trkpt><trkpt lat="43.5881599" lon="6.9166038"><ele>88.0</ele><time>2026-04-12T09:03:01.879Z</time></trkpt><trkpt lat="43.5880724" lon="6.9166752"><ele>88.0</ele><time>2026-04-12T09:03:02.879Z</time></trkpt><trkpt lat="43.5879694" lon="6.9166699"><ele>88.0</ele><time>2026-04-12T09:03:03.91Z</time></trkpt><trkpt lat="43.5878701" lon="6.9166157"><ele>88.0</ele><time>2026-04-12T09:03:04.932Z</time></trkpt><trkpt lat="43.5877828" lon="6.9166116"><ele>87.16666666666666</ele><time>2026-04-12T09:03:05.95Z</time></trkpt><trkpt lat="43.5877208" lon="6.9166548"><ele>86.33333333333333</ele><time>2026-04-12T09:03:06.935Z</time></trkpt><trkpt lat="43.5876803" lon="6.9167329"><ele>85.5</ele><time>2026-04-12T09:03:07.914Z</time></trkpt><trkpt lat="43.5877037" lon="6.916841"><ele>84.66666666666667</ele><time>2026-04-12T09:03:08.92Z</time></trkpt><trkpt lat="43.5877675" lon="6.9169062"><ele>83.83333333333334</ele><time>2026-04-12T09:03:09.903Z</time></trkpt><trkpt lat="43.5878599" lon="6.9169467"><ele>83.0</ele><time>2026-04-12T09:03:10.926Z</time></trkpt><trkpt lat="43.5879514" lon="6.9169586"><ele>79.2</ele><time>2026-04-12T09:03:11.935Z</time></trkpt><trkpt lat="43.5880416" lon="6.9169684"><ele>75.4</ele><time>2026-04-12T09:03:12.921Z</time></trkpt><trkpt lat="43.5881327" lon="6.9169822"><ele>71.60000000000001</ele><time>2026-04-12T09:03:13.931Z</time></trkpt><trkpt lat="43.5882206" lon="6.9169696"><ele>67.80000000000001</ele><time>2026-04-12T09:03:14.927Z</time></trkpt><trkpt lat="43.5882935" lon="6.9168826"><ele>64.0</ele><time>2026-04-12T09:03:15.93Z</time></trkpt><trkpt lat="43.5883357" lon="6.9167505"><ele>68.0</ele><time>2026-04-12T09:03:16.945Z</time></trkpt><trkpt lat="43.5883627" lon="6.9166175"><ele>72.0</ele><time>2026-04-12T09:03:17.955Z</time></trkpt><trkpt lat="43.5883948" lon="6.9164979"><ele>76.0</ele><time>2026-04-12T09:03:18.951Z</time></trkpt><trkpt lat="43.5884471" lon="6.9164076"><ele>80.0</ele><time>2026-04-12T09:03:19.961Z</time></trkpt><trkpt lat="43.5885113" lon="6.9163703"><ele>84.0</ele><time>2026-04-12T09:03:20.918Z</time></trkpt><trkpt lat="43.5885839" lon="6.9163897"><ele>88.0</ele><time>2026-04-12T09:03:21.937Z</time></trkpt><trkpt lat="43.58866" lon="6.9164639"><ele>87.2</ele><time>2026-04-12T09:03:22.939Z</time></trkpt><trkpt lat="43.5887188" lon="6.9165711"><ele>86.4</ele><time>2026-04-12T09:03:23.937Z</time></trkpt><trkpt lat="43.588779" lon="6.9166751"><ele>85.60000000000001</ele><time>2026-04-12T09:03:24.907Z</time></trkpt><trkpt lat="43.588847" lon="6.916779"><ele>84.80000000000001</ele><time>2026-04-12T09:03:25.914Z</time></trkpt><trkpt lat="43.5889279" lon="6.9168479"><ele>84.0</ele><time>2026-04-12T09:03:26.903Z</time></trkpt><trkpt lat="43.5890274" lon="6.9168936"><ele>80.0</ele><time>2026-04-12T09:03:27.951Z</time></trkpt><trkpt lat="43.5891239" lon="6.9169657"><ele>76.0</ele><time>2026-04-12T09:03:28.92Z</time></trkpt><trkpt lat="43.5891853" lon="6.9170834"><ele>72.0</ele><time>2026-04-12T09:03:29.903Z</time></trkpt><trkpt lat="43.5892297" lon="6.9172509"><ele>68.0</ele><time>2026-04-12T09:03:30.938Z</time></trkpt><trkpt lat="43.5892541" lon="6.9174004"><ele>68.0</ele><time>2026-04-12T09:03:31.934Z</time></trkpt><trkpt lat="43.5892835" lon="6.9175243"><ele>68.0</ele><time>2026-04-12T09:03:32.937Z</time></trkpt><trkpt lat="43.5893256" lon="6.9176208"><ele>68.0</ele><time>2026-04-12T09:03:33.938Z</time></trkpt><trkpt lat="43.5893931" lon="6.917684"><ele>68.0</ele><time>2026-04-12T09:03:34.921Z</time></trkpt><trkpt lat="43.5894844" lon="6.9176797"><ele>68.0</ele><time>2026-04-12T09:03:35.949Z</time></trkpt><trkpt lat="43.5895578" lon="6.9176223"><ele>68.0</ele><time>2026-04-12T09:03:36.946Z</time></trkpt><trkpt lat="43.5896295" lon="6.9175735"><ele>64.33333333333334</ele><time>2026-04-12T09:03:37.937Z</time></trkpt><trkpt lat="43.5896945" lon="6.9176144"><ele>60.66666666666667</ele><time>2026-04-12T09:03:38.944Z</time></trkpt><trkpt lat="43.589736" lon="6.917721"><ele>57.0</ele><time>2026-04-12T09:03:39.926Z</time></trkpt><trkpt lat="43.5897273" lon="6.9178411"><ele>53.333333333333336</ele><time>2026-04-12T09:03:40.929Z</time></trkpt><trkpt lat="43.5896755" lon="6.917942"><ele>49.66666666666667</ele><time>2026-04-12T09:03:41.93Z</time></trkpt><trkpt lat="43.5896129" lon="6.9180139"><ele>46.0</ele><time>2026-04-12T09:03:42.905Z</time></trkpt><trkpt lat="43.5895287" lon="6.918088"><ele>46.599999999999994</ele><time>2026-04-12T09:03:43.927Z</time></trkpt><trkpt lat="43.5894273" lon="6.9181445"><ele>47.2</ele><time>2026-04-12T09:03:44.937Z</time></trkpt><trkpt lat="43.5893312" lon="6.9181397"><ele>47.8</ele><time>2026-04-12T09:03:45.929Z</time></trkpt><trkpt lat="43.589247" lon="6.9180462"><ele>48.400000000000006</ele><time>2026-04-12T09:03:46.945Z</time></trkpt><trkpt lat="43.589192" lon="6.9179161"><ele>49.0</ele><time>2026-04-12T09:03:47.941Z</time></trkpt><trkpt lat="43.5891389" lon="6.917775"><ele>49.0</ele><time>2026-04-12T09:03:48.946Z</time></trkpt><trkpt lat="43.5891058" lon="6.9176404"><ele>49.0</ele><time>2026-04-12T09:03:49.943Z</time></trkpt><trkpt lat="43.5890705" lon="6.9175359"><ele>49.0</ele><time>2026-04-12T09:03:50.931Z</time></trkpt><trkpt lat="43.5889895" lon="6.9174612"><ele>49.0</ele><time>2026-04-12T09:03:51.904Z</time></trkpt><trkpt lat="43.5888803" lon="6.9174429"><ele>49.0</ele><time>2026-04-12T09:03:52.947Z</time></trkpt><trkpt lat="43.5887743" lon="6.9174467"><ele>47.6</ele><time>2026-04-12T09:03:53.943Z</time></trkpt><trkpt lat="43.5886796" lon="6.9175003"><ele>46.2</ele><time>2026-04-12T09:03:54.933Z</time></trkpt><trkpt lat="43.5886139" lon="6.9176105"><ele>44.800000000000004</ele><time>2026-04-12T09:03:55.933Z</time></trkpt><trkpt lat="43.588575" lon="6.9177512"><ele>43.400000000000006</ele><time>2026-04-12T09:03:56.945Z</time></trkpt><trkpt lat="43.5885404" lon="6.9178921"><ele>42.0</ele><time>2026-04-12T09:03:57.893Z</time></trkpt><trkpt lat="43.5884857" lon="6.9180248"><ele>42.0</ele><time>2026-04-12T09:03:58.927Z</time></trkpt><trkpt lat="43.5884127" lon="6.9181285"><ele>42.0</ele><time>2026-04-12T09:03:59.885Z</time></trkpt><trkpt lat="43.5883187" lon="6.9181925"><ele>42.0</ele><time>2026-04-12T09:04:00.88Z</time></trkpt><trkpt lat="43.5882134" lon="6.9181904"><ele>42.0</ele><time>2026-04-12T09:04:01.894Z</time></trkpt><trkpt lat="43.588105" lon="6.9181364"><ele>42.0</ele><time>2026-04-12T09:04:02.923Z</time></trkpt><trkpt lat="43.588004" lon="6.9180565"><ele>42.0</ele><time>2026-04-12T09:04:03.936Z</time></trkpt><trkpt lat="43.587905" lon="6.91799"><ele>42.0</ele><time>2026-04-12T09:04:04.944Z</time></trkpt><trkpt lat="43.5877961" lon="6.9179387"><ele>42.0</ele><time>2026-04-12T09:04:05.93Z</time></trkpt><trkpt lat="43.5876952" lon="6.917878"><ele>42.0</ele><time>2026-04-12T09:04:06.953Z</time></trkpt><trkpt lat="43.5876011" lon="6.9178419"><ele>42.0</ele><time>2026-04-12T09:04:07.937Z</time></trkpt><trkpt lat="43.5875069" lon="6.9178537"><ele>45.2</ele><time>2026-04-12T09:04:08.928Z</time></trkpt><trkpt lat="43.5874434" lon="6.9179467"><ele>48.400000000000006</ele><time>2026-04-12T09:04:09.942Z</time></trkpt><trkpt lat="43.5874151" lon="6.9180675"><ele>51.599999999999994</ele><time>2026-04-12T09:04:10.903Z</time></trkpt><trkpt lat="43.5874209" lon="6.9182104"><ele>54.8</ele><time>2026-04-12T09:04:11.931Z</time></trkpt><trkpt lat="43.5874444" lon="6.9183411"><ele>58.0</ele><time>2026-04-12T09:04:12.947Z</time></trkpt><trkpt lat="43.587512" lon="6.918432"><ele>58.599999999999994</ele><time>2026-04-12T09:04:13.944Z</time></trkpt><trkpt lat="43.5875835" lon="6.9185253"><ele>59.199999999999996</ele><time>2026-04-12T09:04:14.906Z</time></trkpt><trkpt lat="43.5876668" lon="6.918611"><ele>59.8</ele><time>2026-04-12T09:04:15.916Z</time></trkpt><trkpt lat="43.5877458" lon="6.9187048"><ele>60.4</ele><time>2026-04-12T09:04:16.921Z</time></trkpt><trkpt lat="43.5878333" lon="6.9187816"><ele>61.0</ele><time>2026-04-12T09:04:17.934Z</time></trkpt><trkpt lat="43.5879179" lon="6.9188701"><ele>55.4</ele><time>2026-04-12T09:04:18.912Z</time></trkpt><trkpt lat="43.5879915" lon="6.9189684"><ele>49.8</ele><time>2026-04-12T09:04:19.945Z</time></trkpt><trkpt lat="43.588049" lon="6.9191016"><ele>44.199999999999996</ele><time>2026-04-12T09:04:20.933Z</time></trkpt><trkpt lat="43.5881016" lon="6.9192391"><ele>38.599999999999994</ele><time>2026-04-12T09:04:21.942Z</time></trkpt><trkpt lat="43.5881624" lon="6.9193627"><ele>33.0</ele><time>2026-04-12T09:04:22.9Z</time></trkpt><trkpt lat="43.5882407" lon="6.9194642"><ele>33.0</ele><time>2026-04-12T09:04:23.939Z</time></trkpt><trkpt lat="43.5883178" lon="6.9195642"><ele>33.0</ele><time>2026-04-12T09:04:24.94Z</time></trkpt><trkpt lat="43.5883603" lon="6.9196935"><ele>33.0</ele><time>2026-04-12T09:04:25.928Z</time></trkpt><trkpt lat="43.588348" lon="6.9198305"><ele>33.0</ele><time>2026-04-12T09:04:26.88Z</time></trkpt><trkpt lat="43.5883084" lon="6.9199667"><ele>33.0</ele><time>2026-04-12T09:04:27.928Z</time></trkpt><trkpt lat="43.588253" lon="6.9200931"><ele>31.2</ele><time>2026-04-12T09:04:28.88Z</time></trkpt><trkpt lat="43.5882122" lon="6.9202205"><ele>29.4</ele><time>2026-04-12T09:04:29.875Z</time></trkpt><trkpt lat="43.5881902" lon="6.9203593"><ele>27.599999999999998</ele><time>2026-04-12T09:04:30.9Z</time></trkpt><trkpt lat="43.5881739" lon="6.9204982"><ele>25.799999999999997</ele><time>2026-04-12T09:04:31.921Z</time></trkpt><trkpt lat="43.5881583" lon="6.9206187"><ele>24.0</ele><time>2026-04-12T09:04:32.932Z</time></trkpt><trkpt lat="43.588115" lon="6.9207078"><ele>24.0</ele><time>2026-04-12T09:04:33.944Z</time></trkpt><trkpt lat="43.5880448" lon="6.9207686"><ele>24.0</ele><time>2026-04-12T09:04:34.923Z</time></trkpt><trkpt lat="43.5879623" lon="6.9207761"><ele>24.0</ele><time>2026-04-12T09:04:35.915Z</time></trkpt><trkpt lat="43.5878721" lon="6.9207427"><ele>24.0</ele><time>2026-04-12T09:04:36.919Z</time></trkpt><trkpt lat="43.5877918" lon="6.9207309"><ele>24.0</ele><time>2026-04-12T09:04:37.939Z</time></trkpt><trkpt lat="43.5877237" lon="6.9207872"><ele>24.0</ele><time>2026-04-12T09:04:38.943Z</time></trkpt><trkpt lat="43.5876686" lon="6.92089"><ele>25.799999999999997</ele><time>2026-04-12T09:04:39.942Z</time></trkpt><trkpt lat="43.5876487" lon="6.9210144"><ele>27.599999999999998</ele><time>2026-04-12T09:04:40.93Z</time></trkpt><trkpt lat="43.5876649" lon="6.9211439"><ele>29.4</ele><time>2026-04-12T09:04:41.885Z</time></trkpt><trkpt lat="43.5876905" lon="6.9212748"><ele>31.2</ele><time>2026-04-12T09:04:42.918Z</time></trkpt><trkpt lat="43.5877082" lon="6.9214099"><ele>33.0</ele><time>2026-04-12T09:04:43.934Z</time></trkpt><trkpt lat="43.587724" lon="6.9215457"><ele>33.0</ele><time>2026-04-12T09:04:44.917Z</time></trkpt><trkpt lat="43.587733" lon="6.9216908"><ele>33.0</ele><time>2026-04-12T09:04:45.913Z</time></trkpt><trkpt lat="43.5877348" lon="6.9218309"><ele>33.0</ele><time>2026-04-12T09:04:46.948Z</time></trkpt><trkpt lat="43.5877156" lon="6.9219733"><ele>33.0</ele><time>2026-04-12T09:04:47.927Z</time></trkpt><trkpt lat="43.5876902" lon="6.9221127"><ele>33.0</ele><time>2026-04-12T09:04:48.917Z</time></trkpt><trkpt lat="43.5876884" lon="6.9222706"><ele>33.0</ele><time>2026-04-12T09:04:49.92Z</time></trkpt><trkpt lat="43.5877284" lon="6.9224174"><ele>33.0</ele><time>2026-04-12T09:04:50.898Z</time></trkpt><trkpt lat="43.5877764" lon="6.9225619"><ele>33.0</ele><time>2026-04-12T09:04:51.916Z</time></trkpt><trkpt lat="43.5878153" lon="6.92272"><ele>33.0</ele><time>2026-04-12T09:04:52.919Z</time></trkpt><trkpt lat="43.5878446" lon="6.9228614"><ele>29.4</ele><time>2026-04-12T09:04:53.924Z</time></trkpt><trkpt lat="43.5878747" lon="6.9230059"><ele>25.799999999999997</ele><time>2026-04-12T09:04:54.945Z</time></trkpt><trkpt lat="43.5879011" lon="6.9231493"><ele>22.2</ele><time>2026-04-12T09:04:55.92Z</time></trkpt><trkpt lat="43.5879167" lon="6.9232867"><ele>18.6</ele><time>2026-04-12T09:04:56.95Z</time></trkpt><trkpt lat="43.5879224" lon="6.9234314"><ele>15.0</ele><time>2026-04-12T09:04:57.926Z</time></trkpt><trkpt lat="43.5879169" lon="6.9235739"><ele>15.0</ele><time>2026-04-12T09:04:58.935Z</time></trkpt><trkpt lat="43.5879062" lon="6.9237175"><ele>15.0</ele><time>2026-04-12T09:04:59.914Z</time></trkpt><trkpt lat="43.5878929" lon="6.9238544"><ele>15.0</ele><time>2026-04-12T09:05:00.912Z</time></trkpt><trkpt lat="43.5878882" lon="6.9239936"><ele>15.0</ele><time>2026-04-12T09:05:01.935Z</time></trkpt><trkpt lat="43.5878862" lon="6.9241315"><ele>15.0</ele><time>2026-04-12T09:05:02.925Z</time></trkpt><trkpt lat="43.5878852" lon="6.9242647"><ele>14.4</ele><time>2026-04-12T09:05:03.947Z</time></trkpt><trkpt lat="43.5878846" lon="6.9243925"><ele>13.8</ele><time>2026-04-12T09:05:04.946Z</time></trkpt><trkpt lat="43.5878706" lon="6.9245143"><ele>13.2</ele><time>2026-04-12T09:05:05.884Z</time></trkpt><trkpt lat="43.5878478" lon="6.9246381"><ele>12.6</ele><time>2026-04-12T09:05:06.938Z</time></trkpt><trkpt lat="43.5878111" lon="6.9247538"><ele>12.0</ele><time>2026-04-12T09:05:07.952Z</time></trkpt><trkpt lat="43.5877587" lon="6.9248618"><ele>12.2</ele><time>2026-04-12T09:05:08.931Z</time></trkpt><trkpt lat="43.5877076" lon="6.9249727"><ele>12.399999999999999</ele><time>2026-04-12T09:05:09.912Z</time></trkpt><trkpt lat="43.5876476" lon="6.9250686"><ele>12.600000000000001</ele><time>2026-04-12T09:05:10.945Z</time></trkpt><trkpt lat="43.5875702" lon="6.9251199"><ele>12.8</ele><time>2026-04-12T09:05:11.93Z</time></trkpt><trkpt lat="43.5874725" lon="6.925138"><ele>13.0</ele><time>2026-04-12T09:05:12.956Z</time></trkpt><trkpt lat="43.5873736" lon="6.9251366"><ele>12.999999999999998</ele><time>2026-04-12T09:05:13.94Z</time></trkpt><trkpt lat="43.5872796" lon="6.9251385"><ele>13.0</ele><time>2026-04-12T09:05:14.933Z</time></trkpt><trkpt lat="43.5871884" lon="6.9251526"><ele>13.0</ele><time>2026-04-12T09:05:15.94Z</time></trkpt><trkpt lat="43.5871003" lon="6.925188"><ele>13.0</ele><time>2026-04-12T09:05:16.878Z</time></trkpt><trkpt lat="43.5870228" lon="6.925239"><ele>12.999999999999998</ele><time>2026-04-12T09:05:17.899Z</time></trkpt><trkpt lat="43.5869637" lon="6.9252889"><ele>13.0</ele><time>2026-04-12T09:05:18.944Z</time></trkpt><trkpt lat="43.5869036" lon="6.9253383"><ele>12.999999999999998</ele><time>2026-04-12T09:05:20.954Z</time></trkpt><trkpt lat="43.5868491" lon="6.9253975"><ele>13.0</ele><time>2026-04-12T09:05:28.925Z</time></trkpt><trkpt lat="43.5868825" lon="6.925472"><ele>13.0</ele><time>2026-04-12T09:05:31.936Z</time></trkpt><trkpt lat="43.5869421" lon="6.9255473"><ele>13.0</ele><time>2026-04-12T09:05:33.942Z</time></trkpt><trkpt lat="43.5870153" lon="6.9256219"><ele>12.999999999999998</ele><time>2026-04-12T09:05:35.941Z</time></trkpt><trkpt lat="43.5871086" lon="6.9257005"><ele>13.0</ele><time>2026-04-12T09:05:37.907Z</time></trkpt><trkpt lat="43.5872058" lon="6.9257836"><ele>13.0</ele><time>2026-04-12T09:05:39.901Z</time></trkpt><trkpt lat="43.5872593" lon="6.9258357"><ele>13.0</ele><time>2026-04-12T09:05:40.915Z</time></trkpt><trkpt lat="43.5873128" lon="6.9258948"><ele>13.0</ele><time>2026-04-12T09:05:41.944Z</time></trkpt><trkpt lat="43.5873715" lon="6.925943"><ele>13.0</ele><time>2026-04-12T09:05:42.921Z</time></trkpt><trkpt lat="43.5874266" lon="6.9259886"><ele>13.0</ele><time>2026-04-12T09:05:43.954Z</time></trkpt><trkpt lat="43.5874803" lon="6.9260444"><ele>13.0</ele><time>2026-04-12T09:05:44.93Z</time></trkpt><trkpt lat="43.5875344" lon="6.9260935"><ele>13.0</ele><time>2026-04-12T09:05:45.939Z</time></trkpt><trkpt lat="43.5875955" lon="6.9261458"><ele>12.999999999999998</ele><time>2026-04-12T09:05:46.947Z</time></trkpt><trkpt lat="43.5876626" lon="6.9262005"><ele>13.0</ele><time>2026-04-12T09:05:47.96Z</time></trkpt><trkpt lat="43.587726" lon="6.9262615"><ele>13.0</ele><time>2026-04-12T09:05:48.941Z</time></trkpt><trkpt lat="43.5877918" lon="6.9263239"><ele>13.0</ele><time>2026-04-12T09:05:49.921Z</time></trkpt><trkpt lat="43.5878503" lon="6.9263834"><ele>12.999999999999998</ele><time>2026-04-12T09:05:50.904Z</time></trkpt><trkpt lat="43.5879072" lon="6.926446"><ele>13.0</ele><time>2026-04-12T09:05:51.95Z</time></trkpt><trkpt lat="43.5879723" lon="6.9265024"><ele>12.857142857142856</ele><time>2026-04-12T09:05:52.929Z</time></trkpt><trkpt lat="43.5880363" lon="6.9265615"><ele>12.714285714285715</ele><time>2026-04-12T09:05:53.931Z</time></trkpt><trkpt lat="43.5880952" lon="6.926616"><ele>12.571428571428571</ele><time>2026-04-12T09:05:54.949Z</time></trkpt><trkpt lat="43.5881511" lon="6.9266779"><ele>12.428571428571427</ele><time>2026-04-12T09:05:55.949Z</time></trkpt><trkpt lat="43.5882117" lon="6.9267338"><ele>12.285714285714285</ele><time>2026-04-12T09:05:56.944Z</time></trkpt><trkpt lat="43.5882671" lon="6.9267892"><ele>12.142857142857142</ele><time>2026-04-12T09:05:57.877Z</time></trkpt><trkpt lat="43.5883255" lon="6.9268458"><ele>12.0</ele><time>2026-04-12T09:05:58.892Z</time></trkpt><trkpt lat="43.5883838" lon="6.9269074"><ele>12.0</ele><time>2026-04-12T09:05:59.932Z</time></trkpt><trkpt lat="43.5884394" lon="6.9269613"><ele>12.0</ele><time>2026-04-12T09:06:00.918Z</time></trkpt><trkpt lat="43.5884929" lon="6.9270118"><ele>12.0</ele><time>2026-04-12T09:06:01.897Z</time></trkpt><trkpt lat="43.5885445" lon="6.9270704"><ele>12.0</ele><time>2026-04-12T09:06:02.885Z</time></trkpt><trkpt lat="43.588598" lon="6.9271281"><ele>12.0</ele><time>2026-04-12T09:06:03.928Z</time></trkpt><trkpt lat="43.5886932" lon="6.9272165"><ele>12.0</ele><time>2026-04-12T09:06:05.927Z</time></trkpt><trkpt lat="43.58879" lon="6.9273146"><ele>12.2</ele><time>2026-04-12T09:06:07.943Z</time></trkpt><trkpt lat="43.5888729" lon="6.9274037"><ele>12.399999999999999</ele><time>2026-04-12T09:06:09.897Z</time></trkpt><trkpt lat="43.5889561" lon="6.9275062"><ele>12.600000000000001</ele><time>2026-04-12T09:06:11.929Z</time></trkpt><trkpt lat="43.5890342" lon="6.9276084"><ele>12.8</ele><time>2026-04-12T09:06:13.9Z</time></trkpt><trkpt lat="43.5891154" lon="6.9277109"><ele>13.0</ele><time>2026-04-12T09:06:15.915Z</time></trkpt><trkpt lat="43.5892018" lon="6.9278154"><ele>13.0</ele><time>2026-04-12T09:06:17.941Z</time></trkpt><trkpt lat="43.5892885" lon="6.9279209"><ele>13.0</ele><time>2026-04-12T09:06:19.937Z</time></trkpt><trkpt lat="43.5893861" lon="6.9280302"><ele>13.0</ele><time>2026-04-12T09:06:21.924Z</time></trkpt><trkpt lat="43.5894857" lon="6.928141"><ele>13.0</ele><time>2026-04-12T09:06:23.928Z</time></trkpt><trkpt lat="43.5895355" lon="6.9282098"><ele>13.0</ele><time>2026-04-12T09:06:24.961Z</time></trkpt><trkpt lat="43.5895917" lon="6.9282835"><ele>13.166666666666666</ele><time>2026-04-12T09:06:25.961Z</time></trkpt><trkpt lat="43.5896509" lon="6.9283584"><ele>13.333333333333332</ele><time>2026-04-12T09:06:26.942Z</time></trkpt><trkpt lat="43.5897119" lon="6.9284333"><ele>13.5</ele><time>2026-04-12T09:06:27.934Z</time></trkpt><trkpt lat="43.589778" lon="6.9285095"><ele>13.666666666666668</ele><time>2026-04-12T09:06:28.937Z</time></trkpt><trkpt lat="43.5898425" lon="6.9285821"><ele>13.833333333333334</ele><time>2026-04-12T09:06:29.935Z</time></trkpt><trkpt lat="43.5899144" lon="6.9286428"><ele>14.0</ele><time>2026-04-12T09:06:30.933Z</time></trkpt><trkpt lat="43.5899951" lon="6.9286936"><ele>14.000000000000002</ele><time>2026-04-12T09:06:31.916Z</time></trkpt><trkpt lat="43.5900764" lon="6.9287406"><ele>14.0</ele><time>2026-04-12T09:06:32.947Z</time></trkpt><trkpt lat="43.5901582" lon="6.9287795"><ele>14.0</ele><time>2026-04-12T09:06:33.944Z</time></trkpt><trkpt lat="43.590242" lon="6.9288112"><ele>14.0</ele><time>2026-04-12T09:06:34.947Z</time></trkpt><trkpt lat="43.590325" lon="6.9288392"><ele>14.000000000000002</ele><time>2026-04-12T09:06:35.947Z</time></trkpt><trkpt lat="43.59041" lon="6.9288714"><ele>14.0</ele><time>2026-04-12T09:06:36.953Z</time></trkpt><trkpt lat="43.5904872" lon="6.9289046"><ele>14.166666666666668</ele><time>2026-04-12T09:06:37.923Z</time></trkpt><trkpt lat="43.5905674" lon="6.9289335"><ele>14.333333333333334</ele><time>2026-04-12T09:06:38.948Z</time></trkpt><trkpt lat="43.5906406" lon="6.9289691"><ele>14.5</ele><time>2026-04-12T09:06:39.914Z</time></trkpt><trkpt lat="43.5907101" lon="6.9289992"><ele>14.666666666666668</ele><time>2026-04-12T09:06:40.943Z</time></trkpt><trkpt lat="43.5907789" lon="6.9290315"><ele>14.833333333333334</ele><time>2026-04-12T09:06:41.909Z</time></trkpt><trkpt lat="43.5908459" lon="6.9290745"><ele>15.0</ele><time>2026-04-12T09:06:42.929Z</time></trkpt><trkpt lat="43.590913" lon="6.9291935"><ele>14.833333333333334</ele><time>2026-04-12T09:06:44.917Z</time></trkpt><trkpt lat="43.5909256" lon="6.9293387"><ele>14.666666666666668</ele><time>2026-04-12T09:06:46.932Z</time></trkpt><trkpt lat="43.5909046" lon="6.9294262"><ele>14.5</ele><time>2026-04-12T09:06:47.943Z</time></trkpt><trkpt lat="43.5908684" lon="6.9295059"><ele>14.333333333333334</ele><time>2026-04-12T09:06:48.927Z</time></trkpt><trkpt lat="43.5908271" lon="6.9295837"><ele>14.166666666666668</ele><time>2026-04-12T09:06:49.934Z</time></trkpt><trkpt lat="43.5907806" lon="6.9296658"><ele>14.0</ele><time>2026-04-12T09:06:50.95Z</time></trkpt><trkpt lat="43.5907331" lon="6.9297553"><ele>14.000000000000002</ele><time>2026-04-12T09:06:51.939Z</time></trkpt><trkpt lat="43.5906885" lon="6.9298488"><ele>14.0</ele><time>2026-04-12T09:06:52.951Z</time></trkpt><trkpt lat="43.5906376" lon="6.9299394"><ele>14.0</ele><time>2026-04-12T09:06:53.954Z</time></trkpt><trkpt lat="43.5905879" lon="6.9300341"><ele>14.0</ele><time>2026-04-12T09:06:54.946Z</time></trkpt><trkpt lat="43.5905362" lon="6.9301351"><ele>14.000000000000002</ele><time>2026-04-12T09:06:55.953Z</time></trkpt><trkpt lat="43.5904718" lon="6.9302367"><ele>14.0</ele><time>2026-04-12T09:06:56.916Z</time></trkpt><trkpt lat="43.590408" lon="6.9303427"><ele>14.0</ele><time>2026-04-12T09:06:57.938Z</time></trkpt><trkpt lat="43.5903442" lon="6.9304385"><ele>13.999999999999998</ele><time>2026-04-12T09:06:58.947Z</time></trkpt><trkpt lat="43.5902789" lon="6.9305311"><ele>13.999999999999998</ele><time>2026-04-12T09:06:59.957Z</time></trkpt><trkpt lat="43.5902129" lon="6.9306214"><ele>14.0</ele><time>2026-04-12T09:07:00.951Z</time></trkpt><trkpt lat="43.5901434" lon="6.9307145"><ele>14.0</ele><time>2026-04-12T09:07:01.947Z</time></trkpt><trkpt lat="43.5900706" lon="6.9308015"><ele>13.799999999999999</ele><time>2026-04-12T09:07:02.904Z</time></trkpt><trkpt lat="43.5900026" lon="6.9308895"><ele>13.599999999999998</ele><time>2026-04-12T09:07:03.943Z</time></trkpt><trkpt lat="43.5899357" lon="6.9309807"><ele>13.4</ele><time>2026-04-12T09:07:04.946Z</time></trkpt><trkpt lat="43.5898619" lon="6.9310735"><ele>13.2</ele><time>2026-04-12T09:07:05.937Z</time></trkpt><trkpt lat="43.589789" lon="6.9311639"><ele>13.0</ele><time>2026-04-12T09:07:06.953Z</time></trkpt><trkpt lat="43.5897212" lon="6.9312515"><ele>13.0</ele><time>2026-04-12T09:07:07.919Z</time></trkpt><trkpt lat="43.5896528" lon="6.9313432"><ele>13.0</ele><time>2026-04-12T09:07:08.942Z</time></trkpt><trkpt lat="43.5895837" lon="6.9314339"><ele>13.0</ele><time>2026-04-12T09:07:09.945Z</time></trkpt><trkpt lat="43.5895129" lon="6.9315234"><ele>13.0</ele><time>2026-04-12T09:07:10.948Z</time></trkpt><trkpt lat="43.5894392" lon="6.93161"><ele>13.0</ele><time>2026-04-12T09:07:11.967Z</time></trkpt><trkpt lat="43.5893693" lon="6.9316977"><ele>13.4</ele><time>2026-04-12T09:07:12.936Z</time></trkpt><trkpt lat="43.5892999" lon="6.9317866"><ele>13.8</ele><time>2026-04-12T09:07:13.953Z</time></trkpt><trkpt lat="43.5892332" lon="6.931879"><ele>14.2</ele><time>2026-04-12T09:07:14.944Z</time></trkpt><trkpt lat="43.5891666" lon="6.9319744"><ele>14.6</ele><time>2026-04-12T09:07:15.92Z</time></trkpt><trkpt lat="43.5890992" lon="6.9320604"><ele>15.0</ele><time>2026-04-12T09:07:16.93Z</time></trkpt><trkpt lat="43.5890299" lon="6.9321523"><ele>15.0</ele><time>2026-04-12T09:07:17.905Z</time></trkpt><trkpt lat="43.58896" lon="6.9322445"><ele>15.0</ele><time>2026-04-12T09:07:18.943Z</time></trkpt><trkpt lat="43.5888938" lon="6.9323332"><ele>15.0</ele><time>2026-04-12T09:07:19.942Z</time></trkpt><trkpt lat="43.5888248" lon="6.9324211"><ele>15.0</ele><time>2026-04-12T09:07:20.94Z</time></trkpt><trkpt lat="43.5887552" lon="6.9325114"><ele>15.0</ele><time>2026-04-12T09:07:21.942Z</time></trkpt><trkpt lat="43.588684" lon="6.9326013"><ele>14.6</ele><time>2026-04-12T09:07:22.936Z</time></trkpt><trkpt lat="43.5886167" lon="6.9326875"><ele>14.2</ele><time>2026-04-12T09:07:23.911Z</time></trkpt><trkpt lat="43.5885486" lon="6.9327718"><ele>13.8</ele><time>2026-04-12T09:07:24.947Z</time></trkpt><trkpt lat="43.5884786" lon="6.9328675"><ele>13.4</ele><time>2026-04-12T09:07:25.923Z</time></trkpt><trkpt lat="43.588408" lon="6.932956"><ele>13.0</ele><time>2026-04-12T09:07:26.952Z</time></trkpt><trkpt lat="43.5883383" lon="6.9330455"><ele>13.0</ele><time>2026-04-12T09:07:27.953Z</time></trkpt><trkpt lat="43.588272" lon="6.9331377"><ele>13.0</ele><time>2026-04-12T09:07:28.933Z</time></trkpt><trkpt lat="43.5882068" lon="6.9332368"><ele>13.0</ele><time>2026-04-12T09:07:29.946Z</time></trkpt><trkpt lat="43.5881459" lon="6.9333433"><ele>13.0</ele><time>2026-04-12T09:07:30.922Z</time></trkpt><trkpt lat="43.588087" lon="6.9334471"><ele>13.0</ele><time>2026-04-12T09:07:31.955Z</time></trkpt><trkpt lat="43.5880295" lon="6.9335484"><ele>13.0</ele><time>2026-04-12T09:07:32.918Z</time></trkpt><trkpt lat="43.5879738" lon="6.9336583"><ele>13.0</ele><time>2026-04-12T09:07:33.925Z</time></trkpt><trkpt lat="43.5879217" lon="6.9337658"><ele>13.0</ele><time>2026-04-12T09:07:34.952Z</time></trkpt><trkpt lat="43.5878678" lon="6.9338742"><ele>13.0</ele><time>2026-04-12T09:07:35.928Z</time></trkpt><trkpt lat="43.5878114" lon="6.9339809"><ele>13.0</ele><time>2026-04-12T09:07:36.939Z</time></trkpt><trkpt lat="43.5877609" lon="6.9340898"><ele>13.0</ele><time>2026-04-12T09:07:37.952Z</time></trkpt><trkpt lat="43.5877102" lon="6.9341965"><ele>13.0</ele><time>2026-04-12T09:07:38.942Z</time></trkpt><trkpt lat="43.5876598" lon="6.9343097"><ele>13.0</ele><time>2026-04-12T09:07:39.939Z</time></trkpt><trkpt lat="43.5876115" lon="6.9344202"><ele>13.0</ele><time>2026-04-12T09:07:40.908Z</time></trkpt><trkpt lat="43.5875607" lon="6.9345271"><ele>13.0</ele><time>2026-04-12T09:07:41.965Z</time></trkpt><trkpt lat="43.5875044" lon="6.9346259"><ele>12.833333333333332</ele><time>2026-04-12T09:07:42.931Z</time></trkpt><trkpt lat="43.5874395" lon="6.9347079"><ele>12.666666666666666</ele><time>2026-04-12T09:07:43.957Z</time></trkpt><trkpt lat="43.5873636" lon="6.9347625"><ele>12.5</ele><time>2026-04-12T09:07:44.941Z</time></trkpt><trkpt lat="43.5872829" lon="6.934797"><ele>12.333333333333332</ele><time>2026-04-12T09:07:45.948Z</time></trkpt><trkpt lat="43.5872023" lon="6.934817"><ele>12.166666666666666</ele><time>2026-04-12T09:07:46.924Z</time></trkpt><trkpt lat="43.5871183" lon="6.9348137"><ele>12.0</ele><time>2026-04-12T09:07:47.961Z</time></trkpt><trkpt lat="43.587035" lon="6.9347859"><ele>12.0</ele><time>2026-04-12T09:07:48.934Z</time></trkpt><trkpt lat="43.5869498" lon="6.9347358"><ele>12.0</ele><time>2026-04-12T09:07:49.932Z</time></trkpt><trkpt lat="43.5868623" lon="6.9346908"><ele>12.0</ele><time>2026-04-12T09:07:50.939Z</time></trkpt><trkpt lat="43.5867779" lon="6.9346482"><ele>12.0</ele><time>2026-04-12T09:07:51.925Z</time></trkpt><trkpt lat="43.5866922" lon="6.9345991"><ele>12.0</ele><time>2026-04-12T09:07:52.932Z</time></trkpt><trkpt lat="43.5866052" lon="6.9345451"><ele>12.0</ele><time>2026-04-12T09:07:53.952Z</time></trkpt><trkpt lat="43.5865152" lon="6.9344907"><ele>12.0</ele><time>2026-04-12T09:07:54.947Z</time></trkpt><trkpt lat="43.5864266" lon="6.9344325"><ele>12.0</ele><time>2026-04-12T09:07:55.947Z</time></trkpt><trkpt lat="43.5863346" lon="6.9343808"><ele>12.0</ele><time>2026-04-12T09:07:56.926Z</time></trkpt><trkpt lat="43.5862466" lon="6.9343275"><ele>12.0</ele><time>2026-04-12T09:07:57.926Z</time></trkpt><trkpt lat="43.5861578" lon="6.9342776"><ele>11.8</ele><time>2026-04-12T09:07:58.922Z</time></trkpt><trkpt lat="43.5860662" lon="6.9342257"><ele>11.6</ele><time>2026-04-12T09:07:59.956Z</time></trkpt><trkpt lat="43.5859789" lon="6.9341742"><ele>11.4</ele><time>2026-04-12T09:08:00.94Z</time></trkpt><trkpt lat="43.5858943" lon="6.9341219"><ele>11.200000000000001</ele><time>2026-04-12T09:08:01.929Z</time></trkpt><trkpt lat="43.5858085" lon="6.9340698"><ele>11.0</ele><time>2026-04-12T09:08:02.947Z</time></trkpt><trkpt lat="43.5857206" lon="6.9340192"><ele>11.0</ele><time>2026-04-12T09:08:03.924Z</time></trkpt><trkpt lat="43.5856342" lon="6.9339638"><ele>11.0</ele><time>2026-04-12T09:08:04.945Z</time></trkpt><trkpt lat="43.5855468" lon="6.9339113"><ele>11.0</ele><time>2026-04-12T09:08:05.941Z</time></trkpt><trkpt lat="43.5854636" lon="6.9338545"><ele>11.0</ele><time>2026-04-12T09:08:06.945Z</time></trkpt><trkpt lat="43.585379" lon="6.9338019"><ele>11.0</ele><time>2026-04-12T09:08:07.946Z</time></trkpt><trkpt lat="43.5852935" lon="6.9337489"><ele>11.0</ele><time>2026-04-12T09:08:08.933Z</time></trkpt><trkpt lat="43.5852081" lon="6.9336984"><ele>11.0</ele><time>2026-04-12T09:08:09.943Z</time></trkpt><trkpt lat="43.5851236" lon="6.9336509"><ele>11.0</ele><time>2026-04-12T09:08:10.954Z</time></trkpt><trkpt lat="43.5850347" lon="6.9336036"><ele>11.0</ele><time>2026-04-12T09:08:11.932Z</time></trkpt><trkpt lat="43.5849477" lon="6.9335579"><ele>11.0</ele><time>2026-04-12T09:08:12.93Z</time></trkpt><trkpt lat="43.5848605" lon="6.933506"><ele>11.0</ele><time>2026-04-12T09:08:13.953Z</time></trkpt><trkpt lat="43.5847739" lon="6.9334676"><ele>11.0</ele><time>2026-04-12T09:08:14.941Z</time></trkpt><trkpt lat="43.5846835" lon="6.9334272"><ele>11.0</ele><time>2026-04-12T09:08:15.954Z</time></trkpt><trkpt lat="43.5845945" lon="6.9333898"><ele>11.0</ele><time>2026-04-12T09:08:16.936Z</time></trkpt><trkpt lat="43.5845059" lon="6.9333501"><ele>11.0</ele><time>2026-04-12T09:08:17.935Z</time></trkpt><trkpt lat="43.5844165" lon="6.9333154"><ele>10.600000000000001</ele><time>2026-04-12T09:08:18.932Z</time></trkpt><trkpt lat="43.5843257" lon="6.9332815"><ele>10.200000000000001</ele><time>2026-04-12T09:08:19.932Z</time></trkpt><trkpt lat="43.5842337" lon="6.9332516"><ele>9.8</ele><time>2026-04-12T09:08:20.943Z</time></trkpt><trkpt lat="43.5841394" lon="6.9332231"><ele>9.4</ele><time>2026-04-12T09:08:21.934Z</time></trkpt><trkpt lat="43.5840433" lon="6.9331965"><ele>9.0</ele><time>2026-04-12T09:08:22.948Z</time></trkpt><trkpt lat="43.5839492" lon="6.933173"><ele>9.0</ele><time>2026-04-12T09:08:23.941Z</time></trkpt><trkpt lat="43.5838539" lon="6.933147"><ele>9.0</ele><time>2026-04-12T09:08:24.934Z</time></trkpt><trkpt lat="43.5837599" lon="6.9331289"><ele>9.0</ele><time>2026-04-12T09:08:25.934Z</time></trkpt><trkpt lat="43.5836661" lon="6.9331112"><ele>9.0</ele><time>2026-04-12T09:08:26.941Z</time></trkpt><trkpt lat="43.5835699" lon="6.9330963"><ele>9.0</ele><time>2026-04-12T09:08:27.935Z</time></trkpt><trkpt lat="43.5834706" lon="6.9330809"><ele>9.2</ele><time>2026-04-12T09:08:28.945Z</time></trkpt><trkpt lat="43.5833732" lon="6.933071"><ele>9.4</ele><time>2026-04-12T09:08:29.935Z</time></trkpt><trkpt lat="43.5832768" lon="6.9330632"><ele>9.6</ele><time>2026-04-12T09:08:30.953Z</time></trkpt><trkpt lat="43.5831782" lon="6.9330547"><ele>9.8</ele><time>2026-04-12T09:08:31.906Z</time></trkpt><trkpt lat="43.5830831" lon="6.9330498"><ele>10.0</ele><time>2026-04-12T09:08:32.908Z</time></trkpt><trkpt lat="43.5829863" lon="6.9330465"><ele>10.0</ele><time>2026-04-12T09:08:33.947Z</time></trkpt><trkpt lat="43.5828907" lon="6.9330475"><ele>10.0</ele><time>2026-04-12T09:08:34.938Z</time></trkpt><trkpt lat="43.58279" lon="6.9330552"><ele>10.0</ele><time>2026-04-12T09:08:35.938Z</time></trkpt><trkpt lat="43.5826887" lon="6.9330604"><ele>10.0</ele><time>2026-04-12T09:08:36.919Z</time></trkpt><trkpt lat="43.5825852" lon="6.9330641"><ele>10.0</ele><time>2026-04-12T09:08:37.952Z</time></trkpt><trkpt lat="43.582483" lon="6.9330685"><ele>10.4</ele><time>2026-04-12T09:08:38.924Z</time></trkpt><trkpt lat="43.5823801" lon="6.9330837"><ele>10.8</ele><time>2026-04-12T09:08:39.946Z</time></trkpt><trkpt lat="43.5822775" lon="6.9330984"><ele>11.2</ele><time>2026-04-12T09:08:40.961Z</time></trkpt><trkpt lat="43.5821756" lon="6.9331179"><ele>11.6</ele><time>2026-04-12T09:08:41.907Z</time></trkpt><trkpt lat="43.5820701" lon="6.9331423"><ele>12.0</ele><time>2026-04-12T09:08:42.902Z</time></trkpt><trkpt lat="43.5819667" lon="6.9331639"><ele>12.0</ele><time>2026-04-12T09:08:43.921Z</time></trkpt><trkpt lat="43.5818609" lon="6.9331863"><ele>12.0</ele><time>2026-04-12T09:08:44.913Z</time></trkpt><trkpt lat="43.5817622" lon="6.9332165"><ele>12.0</ele><time>2026-04-12T09:08:45.95Z</time></trkpt><trkpt lat="43.5816586" lon="6.9332538"><ele>12.0</ele><time>2026-04-12T09:08:46.939Z</time></trkpt><trkpt lat="43.5815553" lon="6.9332885"><ele>12.0</ele><time>2026-04-12T09:08:47.936Z</time></trkpt><trkpt lat="43.5814558" lon="6.9333281"><ele>12.0</ele><time>2026-04-12T09:08:48.924Z</time></trkpt><trkpt lat="43.5813538" lon="6.9333658"><ele>12.0</ele><time>2026-04-12T09:08:49.956Z</time></trkpt><trkpt lat="43.5812486" lon="6.9334104"><ele>12.0</ele><time>2026-04-12T09:08:50.931Z</time></trkpt><trkpt lat="43.5811501" lon="6.9334582"><ele>12.0</ele><time>2026-04-12T09:08:51.945Z</time></trkpt><trkpt lat="43.5810514" lon="6.9335106"><ele>12.0</ele><time>2026-04-12T09:08:52.898Z</time></trkpt><trkpt lat="43.5809567" lon="6.933561"><ele>11.8</ele><time>2026-04-12T09:08:53.951Z</time></trkpt><trkpt lat="43.5808649" lon="6.9336109"><ele>11.6</ele><time>2026-04-12T09:08:54.935Z</time></trkpt><trkpt lat="43.5807737" lon="6.9336603"><ele>11.4</ele><time>2026-04-12T09:08:55.936Z</time></trkpt><trkpt lat="43.5806819" lon="6.933719"><ele>11.200000000000001</ele><time>2026-04-12T09:08:56.928Z</time></trkpt><trkpt lat="43.5805958" lon="6.9337798"><ele>11.0</ele><time>2026-04-12T09:08:57.951Z</time></trkpt><trkpt lat="43.5805065" lon="6.9338381"><ele>11.0</ele><time>2026-04-12T09:08:58.926Z</time></trkpt><trkpt lat="43.5804179" lon="6.9338996"><ele>11.0</ele><time>2026-04-12T09:08:59.928Z</time></trkpt><trkpt lat="43.5803281" lon="6.9339628"><ele>11.0</ele><time>2026-04-12T09:09:00.931Z</time></trkpt><trkpt lat="43.5802404" lon="6.934028"><ele>11.0</ele><time>2026-04-12T09:09:01.91Z</time></trkpt><trkpt lat="43.5801548" lon="6.9340901"><ele>11.0</ele><time>2026-04-12T09:09:02.944Z</time></trkpt><trkpt lat="43.580075" lon="6.9341628"><ele>10.8</ele><time>2026-04-12T09:09:03.933Z</time></trkpt><trkpt lat="43.5799935" lon="6.9342321"><ele>10.600000000000001</ele><time>2026-04-12T09:09:04.949Z</time></trkpt><trkpt lat="43.5799116" lon="6.9343051"><ele>10.4</ele><time>2026-04-12T09:09:05.947Z</time></trkpt><trkpt lat="43.5798347" lon="6.9343834"><ele>10.2</ele><time>2026-04-12T09:09:06.937Z</time></trkpt><trkpt lat="43.5797552" lon="6.9344575"><ele>10.0</ele><time>2026-04-12T09:09:07.948Z</time></trkpt><trkpt lat="43.5796757" lon="6.9345311"><ele>10.0</ele><time>2026-04-12T09:09:08.941Z</time></trkpt><trkpt lat="43.5795972" lon="6.934612"><ele>10.0</ele><time>2026-04-12T09:09:09.892Z</time></trkpt><trkpt lat="43.579519" lon="6.934695"><ele>10.0</ele><time>2026-04-12T09:09:10.947Z</time></trkpt><trkpt lat="43.5794402" lon="6.9347734"><ele>10.0</ele><time>2026-04-12T09:09:11.921Z</time></trkpt><trkpt lat="43.5793668" lon="6.9348545"><ele>10.0</ele><time>2026-04-12T09:09:12.932Z</time></trkpt><trkpt lat="43.579291" lon="6.9349402"><ele>10.0</ele><time>2026-04-12T09:09:13.955Z</time></trkpt><trkpt lat="43.5792219" lon="6.9350325"><ele>10.0</ele><time>2026-04-12T09:09:14.911Z</time></trkpt><trkpt lat="43.5791525" lon="6.9351209"><ele>10.0</ele><time>2026-04-12T09:09:15.96Z</time></trkpt><trkpt lat="43.5790875" lon="6.9352116"><ele>10.0</ele><time>2026-04-12T09:09:16.935Z</time></trkpt><trkpt lat="43.5790217" lon="6.9353031"><ele>10.0</ele><time>2026-04-12T09:09:17.927Z</time></trkpt><trkpt lat="43.5789545" lon="6.9353957"><ele>10.0</ele><time>2026-04-12T09:09:18.912Z</time></trkpt><trkpt lat="43.5788888" lon="6.9354885"><ele>10.0</ele><time>2026-04-12T09:09:19.934Z</time></trkpt><trkpt lat="43.5788285" lon="6.9355868"><ele>10.0</ele><time>2026-04-12T09:09:20.936Z</time></trkpt><trkpt lat="43.5787662" lon="6.9356795"><ele>10.0</ele><time>2026-04-12T09:09:21.953Z</time></trkpt><trkpt lat="43.5787026" lon="6.9357715"><ele>10.0</ele><time>2026-04-12T09:09:22.913Z</time></trkpt><trkpt lat="43.5786447" lon="6.9358712"><ele>9.6</ele><time>2026-04-12T09:09:23.942Z</time></trkpt><trkpt lat="43.5785878" lon="6.9359721"><ele>9.2</ele><time>2026-04-12T09:09:24.928Z</time></trkpt><trkpt lat="43.5785302" lon="6.9360757"><ele>8.8</ele><time>2026-04-12T09:09:25.938Z</time></trkpt><trkpt lat="43.578475" lon="6.9361772"><ele>8.4</ele><time>2026-04-12T09:09:26.943Z</time></trkpt><trkpt lat="43.5784204" lon="6.9362792"><ele>8.0</ele><time>2026-04-12T09:09:27.952Z</time></trkpt><trkpt lat="43.578369" lon="6.9363829"><ele>8.0</ele><time>2026-04-12T09:09:28.914Z</time></trkpt><trkpt lat="43.5783172" lon="6.9364896"><ele>8.0</ele><time>2026-04-12T09:09:29.936Z</time></trkpt><trkpt lat="43.5782652" lon="6.9366005"><ele>8.0</ele><time>2026-04-12T09:09:30.913Z</time></trkpt><trkpt lat="43.5782142" lon="6.9367108"><ele>8.0</ele><time>2026-04-12T09:09:31.906Z</time></trkpt><trkpt lat="43.5781675" lon="6.9368251"><ele>8.0</ele><time>2026-04-12T09:09:32.927Z</time></trkpt><trkpt lat="43.5781199" lon="6.9369398"><ele>8.0</ele><time>2026-04-12T09:09:33.957Z</time></trkpt><trkpt lat="43.5780753" lon="6.9370571"><ele>8.0</ele><time>2026-04-12T09:09:34.944Z</time></trkpt><trkpt lat="43.5780304" lon="6.9371738"><ele>8.0</ele><time>2026-04-12T09:09:35.898Z</time></trkpt><trkpt lat="43.5779895" lon="6.9372902"><ele>8.0</ele><time>2026-04-12T09:09:36.938Z</time></trkpt><trkpt lat="43.5779455" lon="6.9374089"><ele>8.0</ele><time>2026-04-12T09:09:37.954Z</time></trkpt><trkpt lat="43.5779108" lon="6.9375291"><ele>8.0</ele><time>2026-04-12T09:09:38.953Z</time></trkpt><trkpt lat="43.5778726" lon="6.9376448"><ele>8.0</ele><time>2026-04-12T09:09:39.922Z</time></trkpt><trkpt lat="43.5778356" lon="6.9377664"><ele>8.0</ele><time>2026-04-12T09:09:40.932Z</time></trkpt><trkpt lat="43.5778083" lon="6.9378906"><ele>8.0</ele><time>2026-04-12T09:09:41.918Z</time></trkpt><trkpt lat="43.5777694" lon="6.9380156"><ele>8.0</ele><time>2026-04-12T09:09:42.961Z</time></trkpt><trkpt lat="43.5777408" lon="6.9381361"><ele>8.200000000000001</ele><time>2026-04-12T09:09:43.941Z</time></trkpt><trkpt lat="43.577707" lon="6.9382657"><ele>8.4</ele><time>2026-04-12T09:09:44.929Z</time></trkpt><trkpt lat="43.5776738" lon="6.9383939"><ele>8.600000000000001</ele><time>2026-04-12T09:09:45.942Z</time></trkpt><trkpt lat="43.5776461" lon="6.9385166"><ele>8.8</ele><time>2026-04-12T09:09:46.94Z</time></trkpt><trkpt lat="43.5776118" lon="6.9386429"><ele>9.0</ele><time>2026-04-12T09:09:47.907Z</time></trkpt><trkpt lat="43.5775819" lon="6.9387649"><ele>9.0</ele><time>2026-04-12T09:09:48.92Z</time></trkpt><trkpt lat="43.5775587" lon="6.9388861"><ele>9.0</ele><time>2026-04-12T09:09:49.902Z</time></trkpt><trkpt lat="43.5775306" lon="6.9390086"><ele>9.0</ele><time>2026-04-12T09:09:50.883Z</time></trkpt><trkpt lat="43.5775062" lon="6.9391273"><ele>9.0</ele><time>2026-04-12T09:09:51.878Z</time></trkpt><trkpt lat="43.577481" lon="6.9392448"><ele>9.0</ele><time>2026-04-12T09:09:52.898Z</time></trkpt><trkpt lat="43.5774552" lon="6.9393571"><ele>9.0</ele><time>2026-04-12T09:09:53.905Z</time></trkpt><trkpt lat="43.5774224" lon="6.939475"><ele>9.0</ele><time>2026-04-12T09:09:54.903Z</time></trkpt><trkpt lat="43.577384" lon="6.9395924"><ele>9.0</ele><time>2026-04-12T09:09:55.949Z</time></trkpt><trkpt lat="43.5773313" lon="6.9397015"><ele>9.0</ele><time>2026-04-12T09:09:56.934Z</time></trkpt><trkpt lat="43.5772786" lon="6.9398078"><ele>9.0</ele><time>2026-04-12T09:09:57.912Z</time></trkpt><trkpt lat="43.5772141" lon="6.9398911"><ele>9.0</ele><time>2026-04-12T09:09:58.943Z</time></trkpt><trkpt lat="43.5771333" lon="6.9399552"><ele>9.0</ele><time>2026-04-12T09:09:59.941Z</time></trkpt><trkpt lat="43.577061" lon="6.9400136"><ele>9.0</ele><time>2026-04-12T09:10:00.916Z</time></trkpt><trkpt lat="43.576983" lon="6.9400782"><ele>9.0</ele><time>2026-04-12T09:10:01.931Z</time></trkpt><trkpt lat="43.576937" lon="6.9401759"><ele>9.0</ele><time>2026-04-12T09:10:02.908Z</time></trkpt><trkpt lat="43.5769126" lon="6.9403048"><ele>9.0</ele><time>2026-04-12T09:10:03.959Z</time></trkpt><trkpt lat="43.5768893" lon="6.9404302"><ele>9.0</ele><time>2026-04-12T09:10:04.923Z</time></trkpt><trkpt lat="43.5768739" lon="6.9405527"><ele>9.0</ele><time>2026-04-12T09:10:05.948Z</time></trkpt><trkpt lat="43.5768476" lon="6.9406664"><ele>9.0</ele><time>2026-04-12T09:10:06.921Z</time></trkpt><trkpt lat="43.576793" lon="6.9407726"><ele>9.0</ele><time>2026-04-12T09:10:07.886Z</time></trkpt><trkpt lat="43.576727" lon="6.9408667"><ele>9.0</ele><time>2026-04-12T09:10:08.935Z</time></trkpt><trkpt lat="43.5766609" lon="6.9409655"><ele>9.0</ele><time>2026-04-12T09:10:09.963Z</time></trkpt><trkpt lat="43.5765942" lon="6.9410578"><ele>9.0</ele><time>2026-04-12T09:10:10.933Z</time></trkpt><trkpt lat="43.5765232" lon="6.9411436"><ele>9.0</ele><time>2026-04-12T09:10:11.955Z</time></trkpt><trkpt lat="43.5764513" lon="6.9412268"><ele>9.0</ele><time>2026-04-12T09:10:12.927Z</time></trkpt><trkpt lat="43.5763741" lon="6.9412998"><ele>9.0</ele><time>2026-04-12T09:10:13.93Z</time></trkpt><trkpt lat="43.5762956" lon="6.9413681"><ele>9.0</ele><time>2026-04-12T09:10:14.942Z</time></trkpt><trkpt lat="43.5762167" lon="6.9414338"><ele>9.0</ele><time>2026-04-12T09:10:15.935Z</time></trkpt><trkpt lat="43.5761344" lon="6.9414989"><ele>9.0</ele><time>2026-04-12T09:10:16.948Z</time></trkpt><trkpt lat="43.5760543" lon="6.9415641"><ele>9.0</ele><time>2026-04-12T09:10:17.953Z</time></trkpt><trkpt lat="43.5759765" lon="6.9416317"><ele>9.0</ele><time>2026-04-12T09:10:18.913Z</time></trkpt><trkpt lat="43.5759011" lon="6.9416957"><ele>9.0</ele><time>2026-04-12T09:10:19.942Z</time></trkpt><trkpt lat="43.5758266" lon="6.9417613"><ele>9.0</ele><time>2026-04-12T09:10:20.918Z</time></trkpt><trkpt lat="43.5757487" lon="6.9418245"><ele>9.0</ele><time>2026-04-12T09:10:21.972Z</time></trkpt><trkpt lat="43.5756712" lon="6.9418874"><ele>9.0</ele><time>2026-04-12T09:10:22.94Z</time></trkpt><trkpt lat="43.5755926" lon="6.9419478"><ele>9.0</ele><time>2026-04-12T09:10:23.945Z</time></trkpt><trkpt lat="43.5755188" lon="6.9420158"><ele>9.0</ele><time>2026-04-12T09:10:24.947Z</time></trkpt><trkpt lat="43.5754453" lon="6.9420801"><ele>9.0</ele><time>2026-04-12T09:10:25.964Z</time></trkpt><trkpt lat="43.5753682" lon="6.9421395"><ele>9.0</ele><time>2026-04-12T09:10:26.95Z</time></trkpt><trkpt lat="43.575288" lon="6.942198"><ele>9.0</ele><time>2026-04-12T09:10:27.906Z</time></trkpt><trkpt lat="43.5752101" lon="6.9422639"><ele>9.0</ele><time>2026-04-12T09:10:28.934Z</time></trkpt><trkpt lat="43.5751358" lon="6.9423313"><ele>9.0</ele><time>2026-04-12T09:10:29.917Z</time></trkpt><trkpt lat="43.5750613" lon="6.9423963"><ele>9.0</ele><time>2026-04-12T09:10:30.913Z</time></trkpt><trkpt lat="43.5749853" lon="6.9424597"><ele>9.0</ele><time>2026-04-12T09:10:31.937Z</time></trkpt><trkpt lat="43.574908" lon="6.9425224"><ele>8.833333333333334</ele><time>2026-04-12T09:10:32.945Z</time></trkpt><trkpt lat="43.5748322" lon="6.942583"><ele>8.666666666666666</ele><time>2026-04-12T09:10:33.965Z</time></trkpt><trkpt lat="43.5747537" lon="6.9426456"><ele>8.5</ele><time>2026-04-12T09:10:34.941Z</time></trkpt><trkpt lat="43.5746752" lon="6.9427079"><ele>8.333333333333332</ele><time>2026-04-12T09:10:35.944Z</time></trkpt><trkpt lat="43.5745989" lon="6.9427673"><ele>8.166666666666666</ele><time>2026-04-12T09:10:36.93Z</time></trkpt><trkpt lat="43.574522" lon="6.9428325"><ele>8.0</ele><time>2026-04-12T09:10:37.938Z</time></trkpt><trkpt lat="43.5744479" lon="6.9428947"><ele>8.0</ele><time>2026-04-12T09:10:38.935Z</time></trkpt><trkpt lat="43.5743697" lon="6.9429575"><ele>8.0</ele><time>2026-04-12T09:10:39.936Z</time></trkpt><trkpt lat="43.5742931" lon="6.9430218"><ele>8.0</ele><time>2026-04-12T09:10:40.941Z</time></trkpt><trkpt lat="43.5742135" lon="6.9430813"><ele>8.0</ele><time>2026-04-12T09:10:41.916Z</time></trkpt><trkpt lat="43.5741351" lon="6.9431459"><ele>8.0</ele><time>2026-04-12T09:10:42.937Z</time></trkpt><trkpt lat="43.5740587" lon="6.9432096"><ele>8.0</ele><time>2026-04-12T09:10:43.954Z</time></trkpt><trkpt lat="43.5739811" lon="6.9432756"><ele>8.0</ele><time>2026-04-12T09:10:44.958Z</time></trkpt><trkpt lat="43.5739046" lon="6.9433406"><ele>8.0</ele><time>2026-04-12T09:10:45.943Z</time></trkpt><trkpt lat="43.5738284" lon="6.9434081"><ele>8.0</ele><time>2026-04-12T09:10:46.936Z</time></trkpt><trkpt lat="43.5737478" lon="6.9434709"><ele>8.0</ele><time>2026-04-12T09:10:47.927Z</time></trkpt><trkpt lat="43.5736715" lon="6.9435361"><ele>8.333333333333332</ele><time>2026-04-12T09:10:48.94Z</time></trkpt><trkpt lat="43.5735947" lon="6.943604"><ele>8.666666666666666</ele><time>2026-04-12T09:10:49.954Z</time></trkpt><trkpt lat="43.573515" lon="6.9436673"><ele>9.0</ele><time>2026-04-12T09:10:50.943Z</time></trkpt><trkpt lat="43.5734407" lon="6.9437284"><ele>9.333333333333334</ele><time>2026-04-12T09:10:51.944Z</time></trkpt><trkpt lat="43.5733655" lon="6.943789"><ele>9.666666666666668</ele><time>2026-04-12T09:10:52.945Z</time></trkpt><trkpt lat="43.573292" lon="6.9438495"><ele>10.0</ele><time>2026-04-12T09:10:53.932Z</time></trkpt><trkpt lat="43.5732164" lon="6.9439094"><ele>10.0</ele><time>2026-04-12T09:10:54.884Z</time></trkpt><trkpt lat="43.573142" lon="6.9439694"><ele>10.0</ele><time>2026-04-12T09:10:55.954Z</time></trkpt><trkpt lat="43.5730673" lon="6.9440333"><ele>10.0</ele><time>2026-04-12T09:10:56.938Z</time></trkpt><trkpt lat="43.5729919" lon="6.9440931"><ele>10.0</ele><time>2026-04-12T09:10:57.954Z</time></trkpt><trkpt lat="43.5729135" lon="6.9441531"><ele>10.0</ele><time>2026-04-12T09:10:58.934Z</time></trkpt><trkpt lat="43.5728386" lon="6.9442223"><ele>10.0</ele><time>2026-04-12T09:10:59.943Z</time></trkpt><trkpt lat="43.5727608" lon="6.9442811"><ele>9.666666666666668</ele><time>2026-04-12T09:11:00.939Z</time></trkpt><trkpt lat="43.5726851" lon="6.9443398"><ele>9.333333333333334</ele><time>2026-04-12T09:11:01.925Z</time></trkpt><trkpt lat="43.5726072" lon="6.9443956"><ele>9.0</ele><time>2026-04-12T09:11:02.922Z</time></trkpt><trkpt lat="43.5725289" lon="6.9444532"><ele>8.666666666666666</ele><time>2026-04-12T09:11:03.909Z</time></trkpt><trkpt lat="43.5724481" lon="6.9445089"><ele>8.333333333333332</ele><time>2026-04-12T09:11:04.965Z</time></trkpt><trkpt lat="43.5723683" lon="6.9445647"><ele>8.0</ele><time>2026-04-12T09:11:05.954Z</time></trkpt><trkpt lat="43.5722885" lon="6.94462"><ele>7.999999999999999</ele><time>2026-04-12T09:11:06.929Z</time></trkpt><trkpt lat="43.5722097" lon="6.9446729"><ele>8.0</ele><time>2026-04-12T09:11:07.926Z</time></trkpt><trkpt lat="43.5721311" lon="6.9447195"><ele>8.0</ele><time>2026-04-12T09:11:08.945Z</time></trkpt><trkpt lat="43.5720509" lon="6.9447636"><ele>8.0</ele><time>2026-04-12T09:11:09.939Z</time></trkpt><trkpt lat="43.5719729" lon="6.94481"><ele>7.999999999999999</ele><time>2026-04-12T09:11:10.936Z</time></trkpt><trkpt lat="43.5718992" lon="6.9448557"><ele>8.0</ele><time>2026-04-12T09:11:11.93Z</time></trkpt><trkpt lat="43.571826" lon="6.9449011"><ele>8.166666666666666</ele><time>2026-04-12T09:11:12.912Z</time></trkpt><trkpt lat="43.5717512" lon="6.94494"><ele>8.333333333333332</ele><time>2026-04-12T09:11:13.937Z</time></trkpt><trkpt lat="43.5716768" lon="6.9449759"><ele>8.5</ele><time>2026-04-12T09:11:14.944Z</time></trkpt><trkpt lat="43.5716002" lon="6.945007"><ele>8.666666666666666</ele><time>2026-04-12T09:11:15.913Z</time></trkpt><trkpt lat="43.5715222" lon="6.9450122"><ele>8.833333333333334</ele><time>2026-04-12T09:11:16.941Z</time></trkpt><trkpt lat="43.5714521" lon="6.9449888"><ele>9.0</ele><time>2026-04-12T09:11:17.938Z</time></trkpt><trkpt lat="43.5713879" lon="6.944988"><ele>9.000000000000002</ele><time>2026-04-12T09:11:18.935Z</time></trkpt><trkpt lat="43.5713277" lon="6.9450291"><ele>9.0</ele><time>2026-04-12T09:11:19.951Z</time></trkpt><trkpt lat="43.5712881" lon="6.9451039"><ele>9.0</ele><time>2026-04-12T09:11:20.938Z</time></trkpt><trkpt lat="43.5712587" lon="6.945183"><ele>9.0</ele><time>2026-04-12T09:11:21.912Z</time></trkpt><trkpt lat="43.5711963" lon="6.9453264"><ele>9.0</ele><time>2026-04-12T09:11:23.951Z</time></trkpt><trkpt lat="43.5711485" lon="6.9453845"><ele>9.000000000000002</ele><time>2026-04-12T09:11:24.949Z</time></trkpt><trkpt lat="43.5710937" lon="6.9454317"><ele>9.0</ele><time>2026-04-12T09:11:25.953Z</time></trkpt><trkpt lat="43.5710275" lon="6.9454806"><ele>9.166666666666666</ele><time>2026-04-12T09:11:26.932Z</time></trkpt><trkpt lat="43.5709651" lon="6.9455305"><ele>9.333333333333334</ele><time>2026-04-12T09:11:27.945Z</time></trkpt><trkpt lat="43.5708973" lon="6.9455864"><ele>9.5</ele><time>2026-04-12T09:11:28.92Z</time></trkpt><trkpt lat="43.5708292" lon="6.9456365"><ele>9.666666666666668</ele><time>2026-04-12T09:11:29.943Z</time></trkpt><trkpt lat="43.5707568" lon="6.945684"><ele>9.833333333333334</ele><time>2026-04-12T09:11:30.937Z</time></trkpt><trkpt lat="43.5706856" lon="6.9457387"><ele>10.0</ele><time>2026-04-12T09:11:31.905Z</time></trkpt><trkpt lat="43.570618" lon="6.9457926"><ele>10.0</ele><time>2026-04-12T09:11:32.931Z</time></trkpt><trkpt lat="43.5705483" lon="6.945843"><ele>10.0</ele><time>2026-04-12T09:11:33.943Z</time></trkpt><trkpt lat="43.5704783" lon="6.9458994"><ele>10.0</ele><time>2026-04-12T09:11:34.922Z</time></trkpt><trkpt lat="43.5704101" lon="6.9459598"><ele>10.0</ele><time>2026-04-12T09:11:35.939Z</time></trkpt><trkpt lat="43.5703411" lon="6.9460169"><ele>10.0</ele><time>2026-04-12T09:11:36.935Z</time></trkpt><trkpt lat="43.5702708" lon="6.9460752"><ele>10.0</ele><time>2026-04-12T09:11:37.907Z</time></trkpt><trkpt lat="43.5702025" lon="6.9461301"><ele>9.666666666666668</ele><time>2026-04-12T09:11:38.917Z</time></trkpt><trkpt lat="43.5701332" lon="6.9461908"><ele>9.333333333333334</ele><time>2026-04-12T09:11:39.912Z</time></trkpt><trkpt lat="43.5700616" lon="6.9462566"><ele>9.0</ele><time>2026-04-12T09:11:40.919Z</time></trkpt><trkpt lat="43.5699918" lon="6.9463206"><ele>8.666666666666666</ele><time>2026-04-12T09:11:41.936Z</time></trkpt><trkpt lat="43.5699216" lon="6.9463902"><ele>8.333333333333332</ele><time>2026-04-12T09:11:42.927Z</time></trkpt><trkpt lat="43.5698482" lon="6.9464581"><ele>8.0</ele><time>2026-04-12T09:11:43.942Z</time></trkpt><trkpt lat="43.5697749" lon="6.9465299"><ele>8.0</ele><time>2026-04-12T09:11:44.946Z</time></trkpt><trkpt lat="43.5697003" lon="6.9466037"><ele>8.0</ele><time>2026-04-12T09:11:45.943Z</time></trkpt><trkpt lat="43.5696268" lon="6.9466741"><ele>8.0</ele><time>2026-04-12T09:11:46.947Z</time></trkpt><trkpt lat="43.5695502" lon="6.9467452"><ele>8.0</ele><time>2026-04-12T09:11:47.931Z</time></trkpt><trkpt lat="43.56948" lon="6.9468208"><ele>8.0</ele><time>2026-04-12T09:11:48.908Z</time></trkpt><trkpt lat="43.5694087" lon="6.9468954"><ele>7.666666666666666</ele><time>2026-04-12T09:11:49.945Z</time></trkpt><trkpt lat="43.5693366" lon="6.9469703"><ele>7.333333333333333</ele><time>2026-04-12T09:11:50.934Z</time></trkpt><trkpt lat="43.5692654" lon="6.9470453"><ele>7.0</ele><time>2026-04-12T09:11:51.955Z</time></trkpt><trkpt lat="43.5691929" lon="6.9471191"><ele>6.666666666666666</ele><time>2026-04-12T09:11:52.948Z</time></trkpt><trkpt lat="43.5691215" lon="6.9471891"><ele>6.333333333333333</ele><time>2026-04-12T09:11:53.931Z</time></trkpt><trkpt lat="43.5690498" lon="6.947258"><ele>6.0</ele><time>2026-04-12T09:11:54.91Z</time></trkpt><trkpt lat="43.5689771" lon="6.9473357"><ele>6.0</ele><time>2026-04-12T09:11:55.926Z</time></trkpt><trkpt lat="43.568905" lon="6.9474129"><ele>6.0</ele><time>2026-04-12T09:11:56.919Z</time></trkpt><trkpt lat="43.5688289" lon="6.947481"><ele>6.0</ele><time>2026-04-12T09:11:57.935Z</time></trkpt><trkpt lat="43.5687525" lon="6.9475512"><ele>6.0</ele><time>2026-04-12T09:11:58.944Z</time></trkpt><trkpt lat="43.5686771" lon="6.9476206"><ele>6.0</ele><time>2026-04-12T09:11:59.95Z</time></trkpt><trkpt lat="43.5686024" lon="6.9476881"><ele>6.199999999999999</ele><time>2026-04-12T09:12:00.93Z</time></trkpt><trkpt lat="43.5685267" lon="6.9477538"><ele>6.3999999999999995</ele><time>2026-04-12T09:12:01.95Z</time></trkpt><trkpt lat="43.568447" lon="6.947817"><ele>6.6</ele><time>2026-04-12T09:12:02.919Z</time></trkpt><trkpt lat="43.5683677" lon="6.9478788"><ele>6.8</ele><time>2026-04-12T09:12:03.924Z</time></trkpt><trkpt lat="43.5682924" lon="6.9479422"><ele>7.0</ele><time>2026-04-12T09:12:04.942Z</time></trkpt><trkpt lat="43.5682077" lon="6.9479931"><ele>7.0</ele><time>2026-04-12T09:12:05.92Z</time></trkpt><trkpt lat="43.5681224" lon="6.9480496"><ele>6.999999999999999</ele><time>2026-04-12T09:12:06.929Z</time></trkpt><trkpt lat="43.5680399" lon="6.9481054"><ele>6.999999999999999</ele><time>2026-04-12T09:12:07.921Z</time></trkpt><trkpt lat="43.5679595" lon="6.9481577"><ele>7.0</ele><time>2026-04-12T09:12:08.938Z</time></trkpt><trkpt lat="43.5678742" lon="6.9482072"><ele>7.0</ele><time>2026-04-12T09:12:09.962Z</time></trkpt><trkpt lat="43.56779" lon="6.9482552"><ele>7.333333333333334</ele><time>2026-04-12T09:12:10.942Z</time></trkpt><trkpt lat="43.5677076" lon="6.9482976"><ele>7.666666666666667</ele><time>2026-04-12T09:12:11.93Z</time></trkpt><trkpt lat="43.5676223" lon="6.9483403"><ele>8.0</ele><time>2026-04-12T09:12:12.947Z</time></trkpt><trkpt lat="43.5675426" lon="6.9483795"><ele>8.333333333333334</ele><time>2026-04-12T09:12:13.939Z</time></trkpt><trkpt lat="43.5674654" lon="6.9484208"><ele>8.666666666666666</ele><time>2026-04-12T09:12:14.933Z</time></trkpt><trkpt lat="43.567385" lon="6.9484494"><ele>9.0</ele><time>2026-04-12T09:12:15.953Z</time></trkpt><trkpt lat="43.5673052" lon="6.948462"><ele>9.0</ele><time>2026-04-12T09:12:16.934Z</time></trkpt><trkpt lat="43.5672286" lon="6.9484538"><ele>9.0</ele><time>2026-04-12T09:12:17.934Z</time></trkpt><trkpt lat="43.5671669" lon="6.9484308"><ele>9.0</ele><time>2026-04-12T09:12:18.91Z</time></trkpt><trkpt lat="43.5670644" lon="6.948367"><ele>9.0</ele><time>2026-04-12T09:12:20.951Z</time></trkpt><trkpt lat="43.566957" lon="6.9482803"><ele>9.0</ele><time>2026-04-12T09:12:22.899Z</time></trkpt><trkpt lat="43.5668341" lon="6.9482366"><ele>8.857142857142858</ele><time>2026-04-12T09:12:24.942Z</time></trkpt><trkpt lat="43.5667666" lon="6.9482563"><ele>8.714285714285715</ele><time>2026-04-12T09:12:25.927Z</time></trkpt><trkpt lat="43.5667008" lon="6.9483034"><ele>8.571428571428571</ele><time>2026-04-12T09:12:26.919Z</time></trkpt><trkpt lat="43.5666416" lon="6.9483695"><ele>8.428571428571429</ele><time>2026-04-12T09:12:27.952Z</time></trkpt><trkpt lat="43.5665873" lon="6.9484407"><ele>8.285714285714285</ele><time>2026-04-12T09:12:28.938Z</time></trkpt><trkpt lat="43.5665397" lon="6.9485181"><ele>8.142857142857142</ele><time>2026-04-12T09:12:29.919Z</time></trkpt><trkpt lat="43.5664991" lon="6.9486033"><ele>8.0</ele><time>2026-04-12T09:12:30.935Z</time></trkpt><trkpt lat="43.5664498" lon="6.9486825"><ele>8.333333333333332</ele><time>2026-04-12T09:12:31.888Z</time></trkpt><trkpt lat="43.5663814" lon="6.9487394"><ele>8.666666666666666</ele><time>2026-04-12T09:12:32.926Z</time></trkpt><trkpt lat="43.5663027" lon="6.9487698"><ele>9.0</ele><time>2026-04-12T09:12:33.888Z</time></trkpt><trkpt lat="43.5662258" lon="6.9487986"><ele>9.333333333333334</ele><time>2026-04-12T09:12:34.942Z</time></trkpt><trkpt lat="43.5661439" lon="6.9488266"><ele>9.666666666666668</ele><time>2026-04-12T09:12:35.934Z</time></trkpt><trkpt lat="43.566068" lon="6.9488577"><ele>10.0</ele><time>2026-04-12T09:12:36.925Z</time></trkpt><trkpt lat="43.5659829" lon="6.9488862"><ele>10.0</ele><time>2026-04-12T09:12:37.961Z</time></trkpt><trkpt lat="43.565901" lon="6.9489166"><ele>10.0</ele><time>2026-04-12T09:12:38.946Z</time></trkpt><trkpt lat="43.5658215" lon="6.9489516"><ele>10.0</ele><time>2026-04-12T09:12:39.937Z</time></trkpt><trkpt lat="43.5657389" lon="6.9489753"><ele>10.0</ele><time>2026-04-12T09:12:40.9Z</time></trkpt><trkpt lat="43.5656519" lon="6.9490065"><ele>10.0</ele><time>2026-04-12T09:12:41.951Z</time></trkpt><trkpt lat="43.5655675" lon="6.9490352"><ele>10.0</ele><time>2026-04-12T09:12:42.901Z</time></trkpt><trkpt lat="43.5654855" lon="6.9490655"><ele>10.0</ele><time>2026-04-12T09:12:43.922Z</time></trkpt><trkpt lat="43.5654018" lon="6.9490957"><ele>10.0</ele><time>2026-04-12T09:12:44.948Z</time></trkpt><trkpt lat="43.5653198" lon="6.9491239"><ele>10.0</ele><time>2026-04-12T09:12:45.935Z</time></trkpt><trkpt lat="43.5652403" lon="6.9491538"><ele>10.0</ele><time>2026-04-12T09:12:46.943Z</time></trkpt><trkpt lat="43.5651566" lon="6.9491829"><ele>10.0</ele><time>2026-04-12T09:12:47.94Z</time></trkpt><trkpt lat="43.5650727" lon="6.9492115"><ele>10.0</ele><time>2026-04-12T09:12:48.947Z</time></trkpt><trkpt lat="43.5649888" lon="6.9492423"><ele>9.333333333333334</ele><time>2026-04-12T09:12:49.936Z</time></trkpt><trkpt lat="43.5649033" lon="6.9492774"><ele>8.666666666666668</ele><time>2026-04-12T09:12:50.928Z</time></trkpt><trkpt lat="43.5648166" lon="6.9493138"><ele>8.0</ele><time>2026-04-12T09:12:51.913Z</time></trkpt><trkpt lat="43.5647311" lon="6.9493426"><ele>7.333333333333334</ele><time>2026-04-12T09:12:52.952Z</time></trkpt><trkpt lat="43.5646466" lon="6.9493757"><ele>6.666666666666667</ele><time>2026-04-12T09:12:53.942Z</time></trkpt><trkpt lat="43.5645629" lon="6.9494055"><ele>6.0</ele><time>2026-04-12T09:12:54.924Z</time></trkpt><trkpt lat="43.5644806" lon="6.9494371"><ele>5.8</ele><time>2026-04-12T09:12:55.949Z</time></trkpt><trkpt lat="43.5643952" lon="6.9494673"><ele>5.6</ele><time>2026-04-12T09:12:56.934Z</time></trkpt><trkpt lat="43.5643081" lon="6.9495015"><ele>5.4</ele><time>2026-04-12T09:12:57.932Z</time></trkpt><trkpt lat="43.5642202" lon="6.9495366"><ele>5.2</ele><time>2026-04-12T09:12:58.926Z</time></trkpt><trkpt lat="43.5641328" lon="6.9495709"><ele>5.0</ele><time>2026-04-12T09:12:59.906Z</time></trkpt><trkpt lat="43.5640447" lon="6.9496022"><ele>5.0</ele><time>2026-04-12T09:13:00.93Z</time></trkpt><trkpt lat="43.5639562" lon="6.949637"><ele>5.0</ele><time>2026-04-12T09:13:01.922Z</time></trkpt><trkpt lat="43.5638682" lon="6.9496718"><ele>5.0</ele><time>2026-04-12T09:13:02.94Z</time></trkpt><trkpt lat="43.5637762" lon="6.9497064"><ele>5.0</ele><time>2026-04-12T09:13:03.883Z</time></trkpt><trkpt lat="43.5636819" lon="6.949744"><ele>5.0</ele><time>2026-04-12T09:13:04.953Z</time></trkpt><trkpt lat="43.5635868" lon="6.9497823"><ele>5.4</ele><time>2026-04-12T09:13:05.945Z</time></trkpt><trkpt lat="43.5634921" lon="6.9498141"><ele>5.8</ele><time>2026-04-12T09:13:06.927Z</time></trkpt><trkpt lat="43.5633993" lon="6.9498414"><ele>6.199999999999999</ele><time>2026-04-12T09:13:07.931Z</time></trkpt><trkpt lat="43.5633097" lon="6.9498735"><ele>6.6</ele><time>2026-04-12T09:13:08.947Z</time></trkpt><trkpt lat="43.5632176" lon="6.9499056"><ele>7.0</ele><time>2026-04-12T09:13:09.955Z</time></trkpt><trkpt lat="43.5631284" lon="6.9499397"><ele>7.0</ele><time>2026-04-12T09:13:10.921Z</time></trkpt><trkpt lat="43.5630397" lon="6.9499729"><ele>6.999999999999999</ele><time>2026-04-12T09:13:11.939Z</time></trkpt><trkpt lat="43.5629514" lon="6.9500052"><ele>6.999999999999999</ele><time>2026-04-12T09:13:12.936Z</time></trkpt><trkpt lat="43.5628617" lon="6.95004"><ele>7.0</ele><time>2026-04-12T09:13:13.94Z</time></trkpt><trkpt lat="43.5627711" lon="6.9500724"><ele>7.0</ele><time>2026-04-12T09:13:14.929Z</time></trkpt><trkpt lat="43.5626839" lon="6.9501103"><ele>6.6</ele><time>2026-04-12T09:13:15.934Z</time></trkpt><trkpt lat="43.5625943" lon="6.9501428"><ele>6.199999999999999</ele><time>2026-04-12T09:13:16.949Z</time></trkpt><trkpt lat="43.5625034" lon="6.9501709"><ele>5.8</ele><time>2026-04-12T09:13:17.931Z</time></trkpt><trkpt lat="43.562409" lon="6.9501998"><ele>5.4</ele><time>2026-04-12T09:13:18.932Z</time></trkpt><trkpt lat="43.5623203" lon="6.9502338"><ele>5.0</ele><time>2026-04-12T09:13:19.908Z</time></trkpt><trkpt lat="43.5622261" lon="6.9502709"><ele>5.0</ele><time>2026-04-12T09:13:20.95Z</time></trkpt><trkpt lat="43.5621323" lon="6.9503056"><ele>5.0</ele><time>2026-04-12T09:13:21.948Z</time></trkpt><trkpt lat="43.562039" lon="6.9503366"><ele>5.0</ele><time>2026-04-12T09:13:22.94Z</time></trkpt><trkpt lat="43.5619505" lon="6.9503697"><ele>5.0</ele><time>2026-04-12T09:13:23.938Z</time></trkpt><trkpt lat="43.5618627" lon="6.9504024"><ele>5.0</ele><time>2026-04-12T09:13:24.95Z</time></trkpt><trkpt lat="43.5617745" lon="6.9504355"><ele>4.833333333333334</ele><time>2026-04-12T09:13:25.929Z</time></trkpt><trkpt lat="43.5616857" lon="6.9504696"><ele>4.666666666666667</ele><time>2026-04-12T09:13:26.935Z</time></trkpt><trkpt lat="43.5616035" lon="6.9505013"><ele>4.5</ele><time>2026-04-12T09:13:27.919Z</time></trkpt><trkpt lat="43.5615235" lon="6.9505377"><ele>4.333333333333333</ele><time>2026-04-12T09:13:28.945Z</time></trkpt><trkpt lat="43.5614446" lon="6.9505729"><ele>4.166666666666666</ele><time>2026-04-12T09:13:29.941Z</time></trkpt><trkpt lat="43.5613638" lon="6.9505997"><ele>4.0</ele><time>2026-04-12T09:13:30.918Z</time></trkpt><trkpt lat="43.5612806" lon="6.950621"><ele>3.9999999999999996</ele><time>2026-04-12T09:13:31.925Z</time></trkpt><trkpt lat="43.5611952" lon="6.950629"><ele>4.0</ele><time>2026-04-12T09:13:32.936Z</time></trkpt><trkpt lat="43.5611096" lon="6.9506079"><ele>4.0</ele><time>2026-04-12T09:13:33.946Z</time></trkpt><trkpt lat="43.5610281" lon="6.9505651"><ele>4.0</ele><time>2026-04-12T09:13:34.92Z</time></trkpt><trkpt lat="43.5609556" lon="6.9505054"><ele>3.9999999999999996</ele><time>2026-04-12T09:13:35.96Z</time></trkpt><trkpt lat="43.5608792" lon="6.9504779"><ele>4.0</ele><time>2026-04-12T09:13:36.95Z</time></trkpt><trkpt lat="43.5607963" lon="6.9504824"><ele>3.9999999999999996</ele><time>2026-04-12T09:13:37.946Z</time></trkpt><trkpt lat="43.5607161" lon="6.9505247"><ele>4.0</ele><time>2026-04-12T09:13:38.952Z</time></trkpt><trkpt lat="43.5606544" lon="6.9505945"><ele>4.0</ele><time>2026-04-12T09:13:39.934Z</time></trkpt><trkpt lat="43.5605967" lon="6.9506827"><ele>4.0</ele><time>2026-04-12T09:13:40.955Z</time></trkpt><trkpt lat="43.5605397" lon="6.9507612"><ele>3.9999999999999996</ele><time>2026-04-12T09:13:41.94Z</time></trkpt><trkpt lat="43.5604749" lon="6.9508339"><ele>4.0</ele><time>2026-04-12T09:13:42.942Z</time></trkpt><trkpt lat="43.5604044" lon="6.9508901"><ele>4.5</ele><time>2026-04-12T09:13:43.935Z</time></trkpt><trkpt lat="43.5603299" lon="6.9509338"><ele>5.0</ele><time>2026-04-12T09:13:44.912Z</time></trkpt><trkpt lat="43.5602471" lon="6.9509696"><ele>5.5</ele><time>2026-04-12T09:13:45.951Z</time></trkpt><trkpt lat="43.5601625" lon="6.9509913"><ele>6.0</ele><time>2026-04-12T09:13:46.942Z</time></trkpt><trkpt lat="43.5600795" lon="6.9510113"><ele>6.500000000000001</ele><time>2026-04-12T09:13:47.935Z</time></trkpt><trkpt lat="43.5599987" lon="6.9510431"><ele>7.0</ele><time>2026-04-12T09:13:48.945Z</time></trkpt><trkpt lat="43.5599146" lon="6.9510736"><ele>7.0</ele><time>2026-04-12T09:13:49.924Z</time></trkpt><trkpt lat="43.5598251" lon="6.9511043"><ele>6.999999999999999</ele><time>2026-04-12T09:13:50.93Z</time></trkpt><trkpt lat="43.559737" lon="6.9511318"><ele>6.999999999999999</ele><time>2026-04-12T09:13:51.934Z</time></trkpt><trkpt lat="43.5596487" lon="6.9511545"><ele>7.0</ele><time>2026-04-12T09:13:52.94Z</time></trkpt><trkpt lat="43.5595587" lon="6.9511849"><ele>7.0</ele><time>2026-04-12T09:13:53.937Z</time></trkpt><trkpt lat="43.5594723" lon="6.9512163"><ele>7.000000000000001</ele><time>2026-04-12T09:13:54.963Z</time></trkpt><trkpt lat="43.5593853" lon="6.9512468"><ele>7.0</ele><time>2026-04-12T09:13:55.94Z</time></trkpt><trkpt lat="43.5592993" lon="6.9512765"><ele>7.0</ele><time>2026-04-12T09:13:56.94Z</time></trkpt><trkpt lat="43.5592112" lon="6.9513093"><ele>7.0</ele><time>2026-04-12T09:13:57.927Z</time></trkpt><trkpt lat="43.5591275" lon="6.9513404"><ele>7.000000000000001</ele><time>2026-04-12T09:13:58.936Z</time></trkpt><trkpt lat="43.5590424" lon="6.9513725"><ele>7.0</ele><time>2026-04-12T09:13:59.94Z</time></trkpt><trkpt lat="43.5589557" lon="6.9514116"><ele>7.000000000000001</ele><time>2026-04-12T09:14:00.938Z</time></trkpt><trkpt lat="43.5588699" lon="6.9514431"><ele>7.0</ele><time>2026-04-12T09:14:01.933Z</time></trkpt><trkpt lat="43.5587854" lon="6.951476"><ele>7.0</ele><time>2026-04-12T09:14:02.96Z</time></trkpt><trkpt lat="43.5587006" lon="6.9515"><ele>7.0</ele><time>2026-04-12T09:14:03.924Z</time></trkpt><trkpt lat="43.5586119" lon="6.9515338"><ele>7.000000000000001</ele><time>2026-04-12T09:14:04.913Z</time></trkpt><trkpt lat="43.5585221" lon="6.9515679"><ele>7.0</ele><time>2026-04-12T09:14:05.945Z</time></trkpt><trkpt lat="43.5584318" lon="6.9516055"><ele>6.8</ele><time>2026-04-12T09:14:06.944Z</time></trkpt><trkpt lat="43.5583391" lon="6.9516371"><ele>6.6</ele><time>2026-04-12T09:14:07.947Z</time></trkpt><trkpt lat="43.558247" lon="6.9516694"><ele>6.3999999999999995</ele><time>2026-04-12T09:14:08.906Z</time></trkpt><trkpt lat="43.5581586" lon="6.9517063"><ele>6.199999999999999</ele><time>2026-04-12T09:14:09.943Z</time></trkpt><trkpt lat="43.558064" lon="6.9517423"><ele>6.0</ele><time>2026-04-12T09:14:10.947Z</time></trkpt><trkpt lat="43.557963" lon="6.9517804"><ele>5.8</ele><time>2026-04-12T09:14:11.95Z</time></trkpt><trkpt lat="43.557864" lon="6.9518214"><ele>5.6</ele><time>2026-04-12T09:14:12.928Z</time></trkpt><trkpt lat="43.5577771" lon="6.9518689"><ele>5.4</ele><time>2026-04-12T09:14:13.928Z</time></trkpt><trkpt lat="43.5576829" lon="6.9518979"><ele>5.2</ele><time>2026-04-12T09:14:14.947Z</time></trkpt><trkpt lat="43.5575869" lon="6.9519377"><ele>5.0</ele><time>2026-04-12T09:14:15.926Z</time></trkpt><trkpt lat="43.5575111" lon="6.9520035"><ele>5.0</ele><time>2026-04-12T09:14:16.957Z</time></trkpt><trkpt lat="43.5574285" lon="6.9520875"><ele>5.0</ele><time>2026-04-12T09:14:17.937Z</time></trkpt><trkpt lat="43.5573709" lon="6.9521947"><ele>5.0</ele><time>2026-04-12T09:14:18.916Z</time></trkpt><trkpt lat="43.5573204" lon="6.952316"><ele>5.0</ele><time>2026-04-12T09:14:19.934Z</time></trkpt><trkpt lat="43.5572978" lon="6.9524315"><ele>5.0</ele><time>2026-04-12T09:14:20.936Z</time></trkpt><trkpt lat="43.5572861" lon="6.9525451"><ele>5.0</ele><time>2026-04-12T09:14:21.946Z</time></trkpt><trkpt lat="43.5572625" lon="6.9526597"><ele>5.0</ele><time>2026-04-12T09:14:22.926Z</time></trkpt><trkpt lat="43.5572445" lon="6.9527638"><ele>5.0</ele><time>2026-04-12T09:14:23.939Z</time></trkpt><trkpt lat="43.5572221" lon="6.952863"><ele>5.0</ele><time>2026-04-12T09:14:24.921Z</time></trkpt><trkpt lat="43.5571816" lon="6.9529341"><ele>5.0</ele><time>2026-04-12T09:14:25.939Z</time></trkpt><trkpt lat="43.5571188" lon="6.9529778"><ele>5.0</ele><time>2026-04-12T09:14:26.949Z</time></trkpt><trkpt lat="43.5570217" lon="6.9529531"><ele>5.0</ele><time>2026-04-12T09:14:28.933Z</time></trkpt><trkpt lat="43.5569506" lon="6.9529028"><ele>5.0</ele><time>2026-04-12T09:14:30.929Z</time></trkpt><trkpt lat="43.5568675" lon="6.9528295"><ele>5.0</ele><time>2026-04-12T09:14:32.914Z</time></trkpt><trkpt lat="43.5567605" lon="6.9527795"><ele>5.0</ele><time>2026-04-12T09:14:34.919Z</time></trkpt><trkpt lat="43.5566961" lon="6.9527849"><ele>5.0</ele><time>2026-04-12T09:14:35.949Z</time></trkpt><trkpt lat="43.556633" lon="6.9528153"><ele>5.0</ele><time>2026-04-12T09:14:36.926Z</time></trkpt><trkpt lat="43.5565711" lon="6.9528804"><ele>5.0</ele><time>2026-04-12T09:14:37.968Z</time></trkpt><trkpt lat="43.5565232" lon="6.9529659"><ele>5.0</ele><time>2026-04-12T09:14:38.95Z</time></trkpt><trkpt lat="43.5564861" lon="6.9530613"><ele>5.0</ele><time>2026-04-12T09:14:39.945Z</time></trkpt><trkpt lat="43.5564523" lon="6.9531546"><ele>5.0</ele><time>2026-04-12T09:14:40.919Z</time></trkpt><trkpt lat="43.5564289" lon="6.9532394"><ele>5.0</ele><time>2026-04-12T09:14:41.951Z</time></trkpt><trkpt lat="43.5563891" lon="6.9533216"><ele>5.0</ele><time>2026-04-12T09:14:42.95Z</time></trkpt><trkpt lat="43.5563322" lon="6.9533932"><ele>5.0</ele><time>2026-04-12T09:14:43.934Z</time></trkpt><trkpt lat="43.5562735" lon="6.9534555"><ele>5.0</ele><time>2026-04-12T09:14:44.934Z</time></trkpt><trkpt lat="43.5562183" lon="6.9535077"><ele>5.0</ele><time>2026-04-12T09:14:45.95Z</time></trkpt><trkpt lat="43.5561532" lon="6.9535602"><ele>5.0</ele><time>2026-04-12T09:14:46.931Z</time></trkpt><trkpt lat="43.5560928" lon="6.9536122"><ele>5.0</ele><time>2026-04-12T09:14:47.941Z</time></trkpt><trkpt lat="43.5560291" lon="6.9536688"><ele>5.0</ele><time>2026-04-12T09:14:48.938Z</time></trkpt><trkpt lat="43.5559711" lon="6.9537271"><ele>5.0</ele><time>2026-04-12T09:14:49.936Z</time></trkpt><trkpt lat="43.5559092" lon="6.9537764"><ele>5.0</ele><time>2026-04-12T09:14:50.904Z</time></trkpt><trkpt lat="43.555846" lon="6.9538219"><ele>5.285714285714286</ele><time>2026-04-12T09:14:51.95Z</time></trkpt><trkpt lat="43.555783" lon="6.9538726"><ele>5.571428571428571</ele><time>2026-04-12T09:14:52.898Z</time></trkpt><trkpt lat="43.5557186" lon="6.9539222"><ele>5.857142857142858</ele><time>2026-04-12T09:14:53.938Z</time></trkpt><trkpt lat="43.555653" lon="6.9539632"><ele>6.142857142857142</ele><time>2026-04-12T09:14:54.941Z</time></trkpt><trkpt lat="43.5555812" lon="6.9540001"><ele>6.428571428571429</ele><time>2026-04-12T09:14:55.948Z</time></trkpt><trkpt lat="43.5555134" lon="6.9540329"><ele>6.714285714285714</ele><time>2026-04-12T09:14:56.923Z</time></trkpt><trkpt lat="43.555441" lon="6.9540621"><ele>7.0</ele><time>2026-04-12T09:14:57.957Z</time></trkpt><trkpt lat="43.555368" lon="6.9540931"><ele>7.000000000000001</ele><time>2026-04-12T09:14:58.951Z</time></trkpt><trkpt lat="43.5552958" lon="6.954119"><ele>7.0</ele><time>2026-04-12T09:14:59.937Z</time></trkpt><trkpt lat="43.5552284" lon="6.9541498"><ele>7.0</ele><time>2026-04-12T09:15:00.954Z</time></trkpt><trkpt lat="43.5551552" lon="6.954179"><ele>7.0</ele><time>2026-04-12T09:15:01.908Z</time></trkpt><trkpt lat="43.5550852" lon="6.9542061"><ele>7.000000000000001</ele><time>2026-04-12T09:15:02.924Z</time></trkpt><trkpt lat="43.5550096" lon="6.9542346"><ele>7.0</ele><time>2026-04-12T09:15:03.956Z</time></trkpt><trkpt lat="43.5549341" lon="6.9542563"><ele>7.000000000000001</ele><time>2026-04-12T09:15:04.899Z</time></trkpt><trkpt lat="43.5548617" lon="6.954277"><ele>7.0</ele><time>2026-04-12T09:15:05.944Z</time></trkpt><trkpt lat="43.5547848" lon="6.954298"><ele>7.0</ele><time>2026-04-12T09:15:06.951Z</time></trkpt><trkpt lat="43.5547098" lon="6.9543196"><ele>7.0</ele><time>2026-04-12T09:15:07.967Z</time></trkpt><trkpt lat="43.5546373" lon="6.9543412"><ele>7.000000000000001</ele><time>2026-04-12T09:15:08.932Z</time></trkpt><trkpt lat="43.5545646" lon="6.9543619"><ele>7.0</ele><time>2026-04-12T09:15:09.931Z</time></trkpt><trkpt lat="43.5544893" lon="6.9543842"><ele>6.833333333333334</ele><time>2026-04-12T09:15:10.937Z</time></trkpt><trkpt lat="43.5544179" lon="6.9544196"><ele>6.666666666666667</ele><time>2026-04-12T09:15:11.938Z</time></trkpt><trkpt lat="43.5543463" lon="6.9544596"><ele>6.5</ele><time>2026-04-12T09:15:12.935Z</time></trkpt><trkpt lat="43.5542747" lon="6.954506"><ele>6.333333333333334</ele><time>2026-04-12T09:15:13.939Z</time></trkpt><trkpt lat="43.5542013" lon="6.954535"><ele>6.166666666666667</ele><time>2026-04-12T09:15:14.949Z</time></trkpt><trkpt lat="43.5541247" lon="6.9545527"><ele>6.0</ele><time>2026-04-12T09:15:15.94Z</time></trkpt><trkpt lat="43.5540474" lon="6.954569"><ele>6.0</ele><time>2026-04-12T09:15:16.949Z</time></trkpt><trkpt lat="43.5539685" lon="6.9545944"><ele>6.0</ele><time>2026-04-12T09:15:17.932Z</time></trkpt><trkpt lat="43.5538902" lon="6.9546159"><ele>6.0</ele><time>2026-04-12T09:15:18.955Z</time></trkpt><trkpt lat="43.5538174" lon="6.9546532"><ele>6.0</ele><time>2026-04-12T09:15:19.935Z</time></trkpt><trkpt lat="43.5537404" lon="6.9546842"><ele>6.0</ele><time>2026-04-12T09:15:20.957Z</time></trkpt><trkpt lat="43.5536625" lon="6.9547174"><ele>6.0</ele><time>2026-04-12T09:15:21.934Z</time></trkpt><trkpt lat="43.553586" lon="6.9547424"><ele>5.833333333333333</ele><time>2026-04-12T09:15:22.945Z</time></trkpt><trkpt lat="43.5535111" lon="6.9547672"><ele>5.666666666666667</ele><time>2026-04-12T09:15:23.949Z</time></trkpt><trkpt lat="43.5534367" lon="6.9547987"><ele>5.5</ele><time>2026-04-12T09:15:24.94Z</time></trkpt><trkpt lat="43.5533577" lon="6.9548223"><ele>5.333333333333334</ele><time>2026-04-12T09:15:25.935Z</time></trkpt><trkpt lat="43.5532816" lon="6.9548457"><ele>5.166666666666667</ele><time>2026-04-12T09:15:26.925Z</time></trkpt><trkpt lat="43.5532079" lon="6.9548754"><ele>5.0</ele><time>2026-04-12T09:15:27.937Z</time></trkpt><trkpt lat="43.5531329" lon="6.9549168"><ele>5.0</ele><time>2026-04-12T09:15:28.943Z</time></trkpt><trkpt lat="43.5530582" lon="6.9549591"><ele>5.0</ele><time>2026-04-12T09:15:29.921Z</time></trkpt><trkpt lat="43.5529829" lon="6.9550029"><ele>5.0</ele><time>2026-04-12T09:15:30.955Z</time></trkpt><trkpt lat="43.5529028" lon="6.9550418"><ele>5.0</ele><time>2026-04-12T09:15:31.942Z</time></trkpt><trkpt lat="43.5528263" lon="6.9550746"><ele>5.0</ele><time>2026-04-12T09:15:32.942Z</time></trkpt><trkpt lat="43.5527465" lon="6.9551032"><ele>5.0</ele><time>2026-04-12T09:15:33.933Z</time></trkpt><trkpt lat="43.5526633" lon="6.9551352"><ele>5.166666666666667</ele><time>2026-04-12T09:15:34.931Z</time></trkpt><trkpt lat="43.5525808" lon="6.9551705"><ele>5.333333333333334</ele><time>2026-04-12T09:15:35.908Z</time></trkpt><trkpt lat="43.552504" lon="6.9552007"><ele>5.5</ele><time>2026-04-12T09:15:36.931Z</time></trkpt><trkpt lat="43.5524244" lon="6.9552314"><ele>5.666666666666667</ele><time>2026-04-12T09:15:37.951Z</time></trkpt><trkpt lat="43.5523466" lon="6.9552661"><ele>5.833333333333333</ele><time>2026-04-12T09:15:38.942Z</time></trkpt><trkpt lat="43.552267" lon="6.9553008"><ele>6.0</ele><time>2026-04-12T09:15:39.953Z</time></trkpt><trkpt lat="43.5521911" lon="6.9553359"><ele>6.0</ele><time>2026-04-12T09:15:40.939Z</time></trkpt><trkpt lat="43.5521133" lon="6.9553718"><ele>6.0</ele><time>2026-04-12T09:15:41.938Z</time></trkpt><trkpt lat="43.5520353" lon="6.9554114"><ele>6.0</ele><time>2026-04-12T09:15:42.947Z</time></trkpt><trkpt lat="43.5519552" lon="6.9554483"><ele>6.0</ele><time>2026-04-12T09:15:43.942Z</time></trkpt><trkpt lat="43.5518765" lon="6.9554801"><ele>6.0</ele><time>2026-04-12T09:15:44.954Z</time></trkpt><trkpt lat="43.5517984" lon="6.9555106"><ele>6.0</ele><time>2026-04-12T09:15:45.94Z</time></trkpt><trkpt lat="43.551722" lon="6.9555481"><ele>6.0</ele><time>2026-04-12T09:15:46.951Z</time></trkpt><trkpt lat="43.5516448" lon="6.9555928"><ele>6.0</ele><time>2026-04-12T09:15:47.956Z</time></trkpt><trkpt lat="43.5515721" lon="6.9556481"><ele>6.0</ele><time>2026-04-12T09:15:48.921Z</time></trkpt><trkpt lat="43.5515043" lon="6.9557083"><ele>6.0</ele><time>2026-04-12T09:15:49.919Z</time></trkpt><trkpt lat="43.551435" lon="6.9557644"><ele>6.0</ele><time>2026-04-12T09:15:50.945Z</time></trkpt><trkpt lat="43.5513678" lon="6.9558346"><ele>6.0</ele><time>2026-04-12T09:15:51.944Z</time></trkpt><trkpt lat="43.5513037" lon="6.9559042"><ele>6.0</ele><time>2026-04-12T09:15:52.932Z</time></trkpt><trkpt lat="43.5512405" lon="6.9559762"><ele>6.0</ele><time>2026-04-12T09:15:53.941Z</time></trkpt><trkpt lat="43.5511812" lon="6.9560445"><ele>6.0</ele><time>2026-04-12T09:15:54.958Z</time></trkpt><trkpt lat="43.5511121" lon="6.9561121"><ele>6.0</ele><time>2026-04-12T09:15:55.945Z</time></trkpt><trkpt lat="43.5510521" lon="6.9561792"><ele>6.0</ele><time>2026-04-12T09:15:56.884Z</time></trkpt><trkpt lat="43.5509929" lon="6.9562546"><ele>6.0</ele><time>2026-04-12T09:15:57.944Z</time></trkpt><trkpt lat="43.5509392" lon="6.9563395"><ele>6.0</ele><time>2026-04-12T09:15:58.939Z</time></trkpt><trkpt lat="43.5508837" lon="6.9564224"><ele>6.0</ele><time>2026-04-12T09:15:59.939Z</time></trkpt><trkpt lat="43.5508352" lon="6.9565133"><ele>6.0</ele><time>2026-04-12T09:16:00.9Z</time></trkpt><trkpt lat="43.5507873" lon="6.9565955"><ele>6.0</ele><time>2026-04-12T09:16:01.898Z</time></trkpt><trkpt lat="43.5507364" lon="6.9566762"><ele>6.0</ele><time>2026-04-12T09:16:02.924Z</time></trkpt><trkpt lat="43.5506859" lon="6.956761"><ele>6.0</ele><time>2026-04-12T09:16:03.905Z</time></trkpt><trkpt lat="43.5506417" lon="6.9568399"><ele>6.0</ele><time>2026-04-12T09:16:04.904Z</time></trkpt><trkpt lat="43.5505937" lon="6.9569132"><ele>6.0</ele><time>2026-04-12T09:16:05.908Z</time></trkpt><trkpt lat="43.5505466" lon="6.9569801"><ele>6.0</ele><time>2026-04-12T09:16:06.91Z</time></trkpt><trkpt lat="43.5504523" lon="6.9570615"><ele>6.0</ele><time>2026-04-12T09:16:08.909Z</time></trkpt><trkpt lat="43.5503459" lon="6.9571234"><ele>6.0</ele><time>2026-04-12T09:16:10.896Z</time></trkpt><trkpt lat="43.5502841" lon="6.9572645"><ele>5.7142857142857135</ele><time>2026-04-12T09:16:12.89Z</time></trkpt><trkpt lat="43.5502752" lon="6.9573629"><ele>5.428571428571429</ele><time>2026-04-12T09:16:13.927Z</time></trkpt><trkpt lat="43.5502803" lon="6.957457"><ele>5.142857142857142</ele><time>2026-04-12T09:16:14.908Z</time></trkpt><trkpt lat="43.5502908" lon="6.9575499"><ele>4.857142857142857</ele><time>2026-04-12T09:16:15.901Z</time></trkpt><trkpt lat="43.5502887" lon="6.9576458"><ele>4.571428571428571</ele><time>2026-04-12T09:16:16.943Z</time></trkpt><trkpt lat="43.5502702" lon="6.9577434"><ele>4.285714285714286</ele><time>2026-04-12T09:16:17.95Z</time></trkpt><trkpt lat="43.5502568" lon="6.9578538"><ele>4.0</ele><time>2026-04-12T09:16:18.923Z</time></trkpt><trkpt lat="43.5502476" lon="6.9579665"><ele>3.9999999999999996</ele><time>2026-04-12T09:16:19.944Z</time></trkpt><trkpt lat="43.5502437" lon="6.958077"><ele>4.0</ele><time>2026-04-12T09:16:20.917Z</time></trkpt><trkpt lat="43.5502473" lon="6.958189"><ele>4.0</ele><time>2026-04-12T09:16:21.948Z</time></trkpt><trkpt lat="43.5502444" lon="6.9583026"><ele>4.0</ele><time>2026-04-12T09:16:22.949Z</time></trkpt><trkpt lat="43.5502373" lon="6.9584162"><ele>3.9999999999999996</ele><time>2026-04-12T09:16:23.942Z</time></trkpt><trkpt lat="43.550233" lon="6.9585236"><ele>4.0</ele><time>2026-04-12T09:16:24.948Z</time></trkpt><trkpt lat="43.5502284" lon="6.958635"><ele>3.9999999999999996</ele><time>2026-04-12T09:16:25.95Z</time></trkpt><trkpt lat="43.5502191" lon="6.958754"><ele>4.0</ele><time>2026-04-12T09:16:26.936Z</time></trkpt><trkpt lat="43.5502087" lon="6.9588647"><ele>4.0</ele><time>2026-04-12T09:16:27.9Z</time></trkpt><trkpt lat="43.5502022" lon="6.9589706"><ele>4.0</ele><time>2026-04-12T09:16:28.934Z</time></trkpt><trkpt lat="43.5501952" lon="6.9590782"><ele>3.9999999999999996</ele><time>2026-04-12T09:16:29.934Z</time></trkpt><trkpt lat="43.5501903" lon="6.9591884"><ele>4.0</ele><time>2026-04-12T09:16:30.955Z</time></trkpt><trkpt lat="43.5501908" lon="6.9592943"><ele>4.166666666666666</ele><time>2026-04-12T09:16:31.921Z</time></trkpt><trkpt lat="43.550192" lon="6.9593992"><ele>4.333333333333333</ele><time>2026-04-12T09:16:32.923Z</time></trkpt><trkpt lat="43.5501923" lon="6.9595063"><ele>4.5</ele><time>2026-04-12T09:16:33.919Z</time></trkpt><trkpt lat="43.5501854" lon="6.959611"><ele>4.666666666666667</ele><time>2026-04-12T09:16:34.913Z</time></trkpt><trkpt lat="43.550182" lon="6.9597235"><ele>4.833333333333334</ele><time>2026-04-12T09:16:35.934Z</time></trkpt><trkpt lat="43.5501773" lon="6.9598284"><ele>5.0</ele><time>2026-04-12T09:16:36.932Z</time></trkpt><trkpt lat="43.5501702" lon="6.9599361"><ele>4.833333333333334</ele><time>2026-04-12T09:16:37.885Z</time></trkpt><trkpt lat="43.5501638" lon="6.9600406"><ele>4.666666666666667</ele><time>2026-04-12T09:16:38.963Z</time></trkpt><trkpt lat="43.5501593" lon="6.9601484"><ele>4.5</ele><time>2026-04-12T09:16:39.938Z</time></trkpt><trkpt lat="43.5501544" lon="6.9602528"><ele>4.333333333333333</ele><time>2026-04-12T09:16:40.932Z</time></trkpt><trkpt lat="43.5501519" lon="6.9603621"><ele>4.166666666666666</ele><time>2026-04-12T09:16:41.933Z</time></trkpt><trkpt lat="43.5501438" lon="6.9604676"><ele>4.0</ele><time>2026-04-12T09:16:42.935Z</time></trkpt><trkpt lat="43.5501338" lon="6.9605733"><ele>3.9999999999999996</ele><time>2026-04-12T09:16:43.943Z</time></trkpt><trkpt lat="43.5501279" lon="6.960678"><ele>4.0</ele><time>2026-04-12T09:16:44.944Z</time></trkpt><trkpt lat="43.5501233" lon="6.9607836"><ele>4.0</ele><time>2026-04-12T09:16:45.944Z</time></trkpt><trkpt lat="43.5501196" lon="6.9608895"><ele>4.0</ele><time>2026-04-12T09:16:46.951Z</time></trkpt><trkpt lat="43.5501102" lon="6.9609884"><ele>3.9999999999999996</ele><time>2026-04-12T09:16:47.892Z</time></trkpt><trkpt lat="43.5500941" lon="6.9610904"><ele>4.0</ele><time>2026-04-12T09:16:48.946Z</time></trkpt><trkpt lat="43.5500737" lon="6.9611949"><ele>3.8571428571428568</ele><time>2026-04-12T09:16:49.939Z</time></trkpt><trkpt lat="43.5500566" lon="6.9612989"><ele>3.714285714285714</ele><time>2026-04-12T09:16:50.918Z</time></trkpt><trkpt lat="43.5500411" lon="6.9613961"><ele>3.571428571428571</ele><time>2026-04-12T09:16:51.946Z</time></trkpt><trkpt lat="43.5500278" lon="6.9614966"><ele>3.4285714285714284</ele><time>2026-04-12T09:16:52.931Z</time></trkpt><trkpt lat="43.5500149" lon="6.9615938"><ele>3.2857142857142856</ele><time>2026-04-12T09:16:53.956Z</time></trkpt><trkpt lat="43.5500072" lon="6.9616892"><ele>3.1428571428571423</ele><time>2026-04-12T09:16:54.943Z</time></trkpt><trkpt lat="43.5499979" lon="6.961789"><ele>3.0</ele><time>2026-04-12T09:16:55.906Z</time></trkpt><trkpt lat="43.5499826" lon="6.9618916"><ele>2.9999999999999996</ele><time>2026-04-12T09:16:56.966Z</time></trkpt><trkpt lat="43.549963" lon="6.9619924"><ele>3.0</ele><time>2026-04-12T09:16:57.954Z</time></trkpt><trkpt lat="43.5499196" lon="6.9620716"><ele>3.0</ele><time>2026-04-12T09:16:58.934Z</time></trkpt><trkpt lat="43.5498473" lon="6.9621196"><ele>3.0</ele><time>2026-04-12T09:16:59.949Z</time></trkpt><trkpt lat="43.5497733" lon="6.9621342"><ele>3.0</ele><time>2026-04-12T09:17:00.934Z</time></trkpt><trkpt lat="43.5497011" lon="6.9621358"><ele>2.9999999999999996</ele><time>2026-04-12T09:17:01.926Z</time></trkpt><trkpt lat="43.5496287" lon="6.9621322"><ele>3.0</ele><time>2026-04-12T09:17:02.942Z</time></trkpt><trkpt lat="43.549556" lon="6.9621389"><ele>3.0</ele><time>2026-04-12T09:17:03.942Z</time></trkpt><trkpt lat="43.5494823" lon="6.9621529"><ele>3.0</ele><time>2026-04-12T09:17:04.951Z</time></trkpt><trkpt lat="43.5494107" lon="6.9621608"><ele>3.0</ele><time>2026-04-12T09:17:05.931Z</time></trkpt><trkpt lat="43.5493343" lon="6.9621727"><ele>3.0</ele><time>2026-04-12T09:17:06.95Z</time></trkpt><trkpt lat="43.5492611" lon="6.9621902"><ele>3.0</ele><time>2026-04-12T09:17:07.943Z</time></trkpt><trkpt lat="43.5491862" lon="6.9622096"><ele>3.0</ele><time>2026-04-12T09:17:08.911Z</time></trkpt><trkpt lat="43.5491088" lon="6.9622261"><ele>3.0</ele><time>2026-04-12T09:17:09.923Z</time></trkpt><trkpt lat="43.5490313" lon="6.9622435"><ele>3.0</ele><time>2026-04-12T09:17:10.927Z</time></trkpt><trkpt lat="43.5489522" lon="6.9622536"><ele>3.0</ele><time>2026-04-12T09:17:11.94Z</time></trkpt><trkpt lat="43.5488745" lon="6.9622627"><ele>3.0</ele><time>2026-04-12T09:17:12.935Z</time></trkpt><trkpt lat="43.5487966" lon="6.9622675"><ele>3.0</ele><time>2026-04-12T09:17:13.942Z</time></trkpt><trkpt lat="43.5487199" lon="6.9622669"><ele>3.0</ele><time>2026-04-12T09:17:14.937Z</time></trkpt><trkpt lat="43.5486444" lon="6.9622657"><ele>3.1666666666666665</ele><time>2026-04-12T09:17:15.937Z</time></trkpt><trkpt lat="43.5485637" lon="6.9622656"><ele>3.333333333333333</ele><time>2026-04-12T09:17:16.955Z</time></trkpt><trkpt lat="43.5484865" lon="6.9622754"><ele>3.5</ele><time>2026-04-12T09:17:17.924Z</time></trkpt><trkpt lat="43.548404" lon="6.9622775"><ele>3.6666666666666665</ele><time>2026-04-12T09:17:18.935Z</time></trkpt><trkpt lat="43.5483245" lon="6.9622874"><ele>3.833333333333333</ele><time>2026-04-12T09:17:19.941Z</time></trkpt><trkpt lat="43.5482469" lon="6.9622949"><ele>4.0</ele><time>2026-04-12T09:17:20.935Z</time></trkpt><trkpt lat="43.5481704" lon="6.9622964"><ele>3.9999999999999996</ele><time>2026-04-12T09:17:21.908Z</time></trkpt><trkpt lat="43.5480932" lon="6.9623049"><ele>4.0</ele><time>2026-04-12T09:17:22.95Z</time></trkpt><trkpt lat="43.5480173" lon="6.9623093"><ele>4.0</ele><time>2026-04-12T09:17:23.922Z</time></trkpt><trkpt lat="43.547941" lon="6.9623166"><ele>4.0</ele><time>2026-04-12T09:17:24.919Z</time></trkpt><trkpt lat="43.5478655" lon="6.9623229"><ele>3.9999999999999996</ele><time>2026-04-12T09:17:25.95Z</time></trkpt><trkpt lat="43.5477901" lon="6.9623214"><ele>4.0</ele><time>2026-04-12T09:17:26.927Z</time></trkpt><trkpt lat="43.5477112" lon="6.9623244"><ele>4.166666666666666</ele><time>2026-04-12T09:17:27.884Z</time></trkpt><trkpt lat="43.5476329" lon="6.9623316"><ele>4.333333333333333</ele><time>2026-04-12T09:17:28.939Z</time></trkpt><trkpt lat="43.5475536" lon="6.9623349"><ele>4.5</ele><time>2026-04-12T09:17:29.938Z</time></trkpt><trkpt lat="43.5474759" lon="6.962338"><ele>4.666666666666667</ele><time>2026-04-12T09:17:30.945Z</time></trkpt><trkpt lat="43.5473979" lon="6.962344"><ele>4.833333333333334</ele><time>2026-04-12T09:17:31.936Z</time></trkpt><trkpt lat="43.5473194" lon="6.9623554"><ele>5.0</ele><time>2026-04-12T09:17:32.931Z</time></trkpt><trkpt lat="43.5472397" lon="6.9623575"><ele>5.0</ele><time>2026-04-12T09:17:33.942Z</time></trkpt><trkpt lat="43.5471601" lon="6.9623658"><ele>5.0</ele><time>2026-04-12T09:17:34.942Z</time></trkpt><trkpt lat="43.5470804" lon="6.9623725"><ele>5.0</ele><time>2026-04-12T09:17:35.936Z</time></trkpt><trkpt lat="43.5469993" lon="6.9623822"><ele>5.0</ele><time>2026-04-12T09:17:36.93Z</time></trkpt><trkpt lat="43.5469196" lon="6.9623881"><ele>5.0</ele><time>2026-04-12T09:17:37.904Z</time></trkpt><trkpt lat="43.5468408" lon="6.9623907"><ele>5.0</ele><time>2026-04-12T09:17:38.941Z</time></trkpt><trkpt lat="43.5467613" lon="6.962386"><ele>5.333333333333334</ele><time>2026-04-12T09:17:39.923Z</time></trkpt><trkpt lat="43.5466836" lon="6.9623797"><ele>5.666666666666667</ele><time>2026-04-12T09:17:40.934Z</time></trkpt><trkpt lat="43.5466007" lon="6.9623787"><ele>6.0</ele><time>2026-04-12T09:17:41.942Z</time></trkpt><trkpt lat="43.5465161" lon="6.9623796"><ele>6.333333333333334</ele><time>2026-04-12T09:17:42.904Z</time></trkpt><trkpt lat="43.5464356" lon="6.9623564"><ele>6.666666666666667</ele><time>2026-04-12T09:17:43.953Z</time></trkpt><trkpt lat="43.5463584" lon="6.9623289"><ele>7.0</ele><time>2026-04-12T09:17:44.931Z</time></trkpt><trkpt lat="43.5462812" lon="6.9622945"><ele>6.333333333333334</ele><time>2026-04-12T09:17:45.953Z</time></trkpt><trkpt lat="43.546207" lon="6.9622559"><ele>5.666666666666667</ele><time>2026-04-12T09:17:46.938Z</time></trkpt><trkpt lat="43.5461326" lon="6.9622208"><ele>5.0</ele><time>2026-04-12T09:17:47.953Z</time></trkpt><trkpt lat="43.5460568" lon="6.9621845"><ele>4.333333333333334</ele><time>2026-04-12T09:17:48.933Z</time></trkpt><trkpt lat="43.5459802" lon="6.9621581"><ele>3.666666666666667</ele><time>2026-04-12T09:17:49.948Z</time></trkpt><trkpt lat="43.5459047" lon="6.9621316"><ele>3.0</ele><time>2026-04-12T09:17:50.94Z</time></trkpt><trkpt lat="43.5458312" lon="6.9620922"><ele>3.0</ele><time>2026-04-12T09:17:51.929Z</time></trkpt><trkpt lat="43.5457595" lon="6.9620571"><ele>3.0</ele><time>2026-04-12T09:17:52.931Z</time></trkpt><trkpt lat="43.5456841" lon="6.9620171"><ele>3.0</ele><time>2026-04-12T09:17:53.937Z</time></trkpt><trkpt lat="43.5456115" lon="6.9619816"><ele>3.0</ele><time>2026-04-12T09:17:54.957Z</time></trkpt><trkpt lat="43.5455383" lon="6.9619345"><ele>3.0</ele><time>2026-04-12T09:17:55.906Z</time></trkpt><trkpt lat="43.5454667" lon="6.9618809"><ele>3.0</ele><time>2026-04-12T09:17:56.945Z</time></trkpt><trkpt lat="43.5453982" lon="6.9618228"><ele>3.0</ele><time>2026-04-12T09:17:57.938Z</time></trkpt><trkpt lat="43.5453304" lon="6.96176"><ele>3.0</ele><time>2026-04-12T09:17:58.923Z</time></trkpt><trkpt lat="43.5452592" lon="6.9616904"><ele>3.0</ele><time>2026-04-12T09:17:59.951Z</time></trkpt><trkpt lat="43.5451912" lon="6.9616242"><ele>3.0</ele><time>2026-04-12T09:18:00.912Z</time></trkpt><trkpt lat="43.5451251" lon="6.9615579"><ele>3.0</ele><time>2026-04-12T09:18:01.909Z</time></trkpt><trkpt lat="43.5450581" lon="6.9614941"><ele>3.0</ele><time>2026-04-12T09:18:02.953Z</time></trkpt><trkpt lat="43.5449912" lon="6.9614268"><ele>3.0</ele><time>2026-04-12T09:18:03.948Z</time></trkpt><trkpt lat="43.5449268" lon="6.9613668"><ele>3.0</ele><time>2026-04-12T09:18:04.936Z</time></trkpt><trkpt lat="43.5448624" lon="6.9612905"><ele>3.0</ele><time>2026-04-12T09:18:05.887Z</time></trkpt><trkpt lat="43.5447976" lon="6.961221"><ele>3.0</ele><time>2026-04-12T09:18:06.936Z</time></trkpt><trkpt lat="43.5447321" lon="6.9611523"><ele>3.0</ele><time>2026-04-12T09:18:07.911Z</time></trkpt><trkpt lat="43.5446651" lon="6.9610805"><ele>3.0</ele><time>2026-04-12T09:18:08.933Z</time></trkpt><trkpt lat="43.5445992" lon="6.9610085"><ele>3.0</ele><time>2026-04-12T09:18:09.891Z</time></trkpt><trkpt lat="43.544534" lon="6.960941"><ele>3.0</ele><time>2026-04-12T09:18:10.938Z</time></trkpt><trkpt lat="43.5444681" lon="6.960871"><ele>3.0</ele><time>2026-04-12T09:18:11.925Z</time></trkpt><trkpt lat="43.5444048" lon="6.9608021"><ele>3.0</ele><time>2026-04-12T09:18:12.94Z</time></trkpt><trkpt lat="43.5443399" lon="6.9607317"><ele>3.0</ele><time>2026-04-12T09:18:13.951Z</time></trkpt><trkpt lat="43.5442746" lon="6.9606591"><ele>3.0</ele><time>2026-04-12T09:18:14.952Z</time></trkpt><trkpt lat="43.5442065" lon="6.9605887"><ele>3.3333333333333335</ele><time>2026-04-12T09:18:15.925Z</time></trkpt><trkpt lat="43.5441358" lon="6.9605151"><ele>3.666666666666667</ele><time>2026-04-12T09:18:16.951Z</time></trkpt><trkpt lat="43.5440699" lon="6.9604461"><ele>4.0</ele><time>2026-04-12T09:18:17.938Z</time></trkpt><trkpt lat="43.5440034" lon="6.9603746"><ele>4.333333333333334</ele><time>2026-04-12T09:18:18.922Z</time></trkpt><trkpt lat="43.543938" lon="6.9603041"><ele>4.666666666666667</ele><time>2026-04-12T09:18:19.934Z</time></trkpt><trkpt lat="43.5438726" lon="6.9602337"><ele>5.0</ele><time>2026-04-12T09:18:20.923Z</time></trkpt><trkpt lat="43.5438071" lon="6.9601591"><ele>5.0</ele><time>2026-04-12T09:18:21.939Z</time></trkpt><trkpt lat="43.5437396" lon="6.9600928"><ele>5.0</ele><time>2026-04-12T09:18:22.902Z</time></trkpt><trkpt lat="43.5436734" lon="6.960027"><ele>5.0</ele><time>2026-04-12T09:18:23.93Z</time></trkpt><trkpt lat="43.5436052" lon="6.9599648"><ele>5.0</ele><time>2026-04-12T09:18:24.928Z</time></trkpt><trkpt lat="43.5435341" lon="6.959909"><ele>5.0</ele><time>2026-04-12T09:18:25.946Z</time></trkpt><trkpt lat="43.5434614" lon="6.9598597"><ele>5.0</ele><time>2026-04-12T09:18:26.947Z</time></trkpt><trkpt lat="43.5433884" lon="6.959815"><ele>5.0</ele><time>2026-04-12T09:18:27.94Z</time></trkpt><trkpt lat="43.5433143" lon="6.9597761"><ele>5.0</ele><time>2026-04-12T09:18:28.936Z</time></trkpt><trkpt lat="43.5432351" lon="6.9597576"><ele>5.0</ele><time>2026-04-12T09:18:29.936Z</time></trkpt><trkpt lat="43.5431493" lon="6.9597705"><ele>5.0</ele><time>2026-04-12T09:18:30.93Z</time></trkpt><trkpt lat="43.5430656" lon="6.9597951"><ele>5.0</ele><time>2026-04-12T09:18:31.947Z</time></trkpt><trkpt lat="43.5429796" lon="6.9598226"><ele>5.0</ele><time>2026-04-12T09:18:32.951Z</time></trkpt><trkpt lat="43.5428972" lon="6.9598685"><ele>5.0</ele><time>2026-04-12T09:18:33.926Z</time></trkpt><trkpt lat="43.5428156" lon="6.9599376"><ele>5.0</ele><time>2026-04-12T09:18:34.919Z</time></trkpt><trkpt lat="43.5427344" lon="6.9600187"><ele>5.0</ele><time>2026-04-12T09:18:35.934Z</time></trkpt><trkpt lat="43.5426526" lon="6.9600894"><ele>5.0</ele><time>2026-04-12T09:18:36.929Z</time></trkpt><trkpt lat="43.5425745" lon="6.9601675"><ele>5.0</ele><time>2026-04-12T09:18:37.937Z</time></trkpt><trkpt lat="43.5424949" lon="6.9602549"><ele>5.4</ele><time>2026-04-12T09:18:38.933Z</time></trkpt><trkpt lat="43.5424093" lon="6.9603345"><ele>5.8</ele><time>2026-04-12T09:18:39.943Z</time></trkpt><trkpt lat="43.5423284" lon="6.9604185"><ele>6.199999999999999</ele><time>2026-04-12T09:18:40.912Z</time></trkpt><trkpt lat="43.5422475" lon="6.9605032"><ele>6.6</ele><time>2026-04-12T09:18:41.929Z</time></trkpt><trkpt lat="43.5421713" lon="6.9605864"><ele>7.0</ele><time>2026-04-12T09:18:42.934Z</time></trkpt><trkpt lat="43.5420929" lon="6.9606534"><ele>6.833333333333334</ele><time>2026-04-12T09:18:43.942Z</time></trkpt><trkpt lat="43.5420288" lon="6.9607185"><ele>6.666666666666667</ele><time>2026-04-12T09:18:44.92Z</time></trkpt><trkpt lat="43.541963" lon="6.960777"><ele>6.5</ele><time>2026-04-12T09:18:45.94Z</time></trkpt><trkpt lat="43.5419006" lon="6.9608227"><ele>6.333333333333334</ele><time>2026-04-12T09:18:46.952Z</time></trkpt><trkpt lat="43.5418394" lon="6.9608667"><ele>6.166666666666667</ele><time>2026-04-12T09:18:47.94Z</time></trkpt><trkpt lat="43.5417351" lon="6.9609474"><ele>6.0</ele><time>2026-04-12T09:18:49.954Z</time></trkpt><trkpt lat="43.5416239" lon="6.961013"><ele>6.0</ele><time>2026-04-12T09:18:51.934Z</time></trkpt><trkpt lat="43.541544" lon="6.9611214"><ele>6.0</ele><time>2026-04-12T09:18:53.943Z</time></trkpt><trkpt lat="43.5415381" lon="6.96121"><ele>6.0</ele><time>2026-04-12T09:18:54.93Z</time></trkpt><trkpt lat="43.5415966" lon="6.961364"><ele>6.0</ele><time>2026-04-12T09:18:56.905Z</time></trkpt><trkpt lat="43.5416848" lon="6.9614855"><ele>6.0</ele><time>2026-04-12T09:18:58.914Z</time></trkpt><trkpt lat="43.5417292" lon="6.9615544"><ele>5.999999999999999</ele><time>2026-04-12T09:18:59.931Z</time></trkpt><trkpt lat="43.5417782" lon="6.9616167"><ele>6.0</ele><time>2026-04-12T09:19:00.943Z</time></trkpt><trkpt lat="43.5418259" lon="6.9616822"><ele>6.0</ele><time>2026-04-12T09:19:01.929Z</time></trkpt><trkpt lat="43.5418716" lon="6.9617447"><ele>6.0</ele><time>2026-04-12T09:19:02.913Z</time></trkpt><trkpt lat="43.5419188" lon="6.9618065"><ele>6.0</ele><time>2026-04-12T09:19:03.962Z</time></trkpt><trkpt lat="43.5419639" lon="6.9618716"><ele>5.999999999999999</ele><time>2026-04-12T09:19:04.938Z</time></trkpt><trkpt lat="43.5420023" lon="6.9619429"><ele>6.0</ele><time>2026-04-12T09:19:05.943Z</time></trkpt><trkpt lat="43.5420402" lon="6.9620234"><ele>6.428571428571428</ele><time>2026-04-12T09:19:06.91Z</time></trkpt><trkpt lat="43.5420815" lon="6.9621029"><ele>6.857142857142858</ele><time>2026-04-12T09:19:07.928Z</time></trkpt><trkpt lat="43.5421155" lon="6.9621845"><ele>7.2857142857142865</ele><time>2026-04-12T09:19:08.91Z</time></trkpt><trkpt lat="43.5421522" lon="6.9622723"><ele>7.714285714285714</ele><time>2026-04-12T09:19:09.888Z</time></trkpt><trkpt lat="43.5421992" lon="6.9623564"><ele>8.142857142857142</ele><time>2026-04-12T09:19:10.933Z</time></trkpt><trkpt lat="43.5422373" lon="6.9624406"><ele>8.571428571428573</ele><time>2026-04-12T09:19:11.935Z</time></trkpt><trkpt lat="43.5422737" lon="6.9625296"><ele>9.0</ele><time>2026-04-12T09:19:12.949Z</time></trkpt><trkpt lat="43.5423069" lon="6.9626108"><ele>9.000000000000002</ele><time>2026-04-12T09:19:13.912Z</time></trkpt><trkpt lat="43.5423421" lon="6.9626975"><ele>9.0</ele><time>2026-04-12T09:19:14.923Z</time></trkpt><trkpt lat="43.5423808" lon="6.9627813"><ele>9.0</ele><time>2026-04-12T09:19:15.947Z</time></trkpt><trkpt lat="43.5424161" lon="6.9628668"><ele>9.0</ele><time>2026-04-12T09:19:16.948Z</time></trkpt><trkpt lat="43.5424522" lon="6.962951"><ele>9.0</ele><time>2026-04-12T09:19:17.917Z</time></trkpt><trkpt lat="43.5424905" lon="6.9630274"><ele>9.000000000000002</ele><time>2026-04-12T09:19:18.964Z</time></trkpt><trkpt lat="43.5425321" lon="6.9630997"><ele>9.0</ele><time>2026-04-12T09:19:19.946Z</time></trkpt><trkpt lat="43.5425698" lon="6.9631755"><ele>9.000000000000002</ele><time>2026-04-12T09:19:20.914Z</time></trkpt><trkpt lat="43.5426054" lon="6.9632568"><ele>9.0</ele><time>2026-04-12T09:19:21.948Z</time></trkpt><trkpt lat="43.5426419" lon="6.9633376"><ele>9.0</ele><time>2026-04-12T09:19:22.933Z</time></trkpt><trkpt lat="43.5426812" lon="6.9634099"><ele>9.0</ele><time>2026-04-12T09:19:23.936Z</time></trkpt><trkpt lat="43.5427201" lon="6.9634938"><ele>9.0</ele><time>2026-04-12T09:19:24.943Z</time></trkpt><trkpt lat="43.5427558" lon="6.9635862"><ele>9.000000000000002</ele><time>2026-04-12T09:19:25.952Z</time></trkpt><trkpt lat="43.5427928" lon="6.9636681"><ele>9.0</ele><time>2026-04-12T09:19:26.941Z</time></trkpt><trkpt lat="43.542835" lon="6.9637541"><ele>9.000000000000002</ele><time>2026-04-12T09:19:27.943Z</time></trkpt><trkpt lat="43.5428773" lon="6.9638338"><ele>9.0</ele><time>2026-04-12T09:19:28.946Z</time></trkpt><trkpt lat="43.5429169" lon="6.9639158"><ele>9.0</ele><time>2026-04-12T09:19:29.926Z</time></trkpt><trkpt lat="43.5429539" lon="6.9640006"><ele>9.0</ele><time>2026-04-12T09:19:30.898Z</time></trkpt><trkpt lat="43.542995" lon="6.9640842"><ele>9.0</ele><time>2026-04-12T09:19:31.95Z</time></trkpt><trkpt lat="43.5430289" lon="6.9641729"><ele>9.000000000000002</ele><time>2026-04-12T09:19:32.916Z</time></trkpt><trkpt lat="43.5430655" lon="6.9642528"><ele>9.0</ele><time>2026-04-12T09:19:33.937Z</time></trkpt><trkpt lat="43.5431044" lon="6.9643389"><ele>9.000000000000002</ele><time>2026-04-12T09:19:34.934Z</time></trkpt><trkpt lat="43.5431409" lon="6.9644199"><ele>9.0</ele><time>2026-04-12T09:19:35.92Z</time></trkpt><trkpt lat="43.543184" lon="6.9644964"><ele>9.0</ele><time>2026-04-12T09:19:36.912Z</time></trkpt><trkpt lat="43.5432216" lon="6.9645849"><ele>9.0</ele><time>2026-04-12T09:19:37.913Z</time></trkpt><trkpt lat="43.5432602" lon="6.9646722"><ele>9.0</ele><time>2026-04-12T09:19:38.921Z</time></trkpt><trkpt lat="43.5433009" lon="6.9647602"><ele>9.000000000000002</ele><time>2026-04-12T09:19:39.942Z</time></trkpt><trkpt lat="43.5433357" lon="6.9648516"><ele>9.0</ele><time>2026-04-12T09:19:40.917Z</time></trkpt><trkpt lat="43.5433723" lon="6.9649446"><ele>8.142857142857144</ele><time>2026-04-12T09:19:41.949Z</time></trkpt><trkpt lat="43.5434077" lon="6.9650355"><ele>7.285714285714286</ele><time>2026-04-12T09:19:42.922Z</time></trkpt><trkpt lat="43.5434436" lon="6.9651298"><ele>6.428571428571429</ele><time>2026-04-12T09:19:43.953Z</time></trkpt><trkpt lat="43.5434782" lon="6.9652237"><ele>5.571428571428572</ele><time>2026-04-12T09:19:44.951Z</time></trkpt><trkpt lat="43.5435089" lon="6.9653174"><ele>4.714285714285714</ele><time>2026-04-12T09:19:45.925Z</time></trkpt><trkpt lat="43.5435422" lon="6.9654044"><ele>3.8571428571428568</ele><time>2026-04-12T09:19:46.939Z</time></trkpt><trkpt lat="43.5435758" lon="6.9654908"><ele>3.0</ele><time>2026-04-12T09:19:47.917Z</time></trkpt><trkpt lat="43.5436031" lon="6.9655793"><ele>2.9999999999999996</ele><time>2026-04-12T09:19:48.958Z</time></trkpt><trkpt lat="43.5436331" lon="6.9656602"><ele>3.0</ele><time>2026-04-12T09:19:49.943Z</time></trkpt><trkpt lat="43.543674" lon="6.9657379"><ele>3.0</ele><time>2026-04-12T09:19:50.934Z</time></trkpt><trkpt lat="43.5437099" lon="6.9658181"><ele>3.0</ele><time>2026-04-12T09:19:51.951Z</time></trkpt><trkpt lat="43.5437442" lon="6.9659019"><ele>3.0</ele><time>2026-04-12T09:19:52.946Z</time></trkpt><trkpt lat="43.5437753" lon="6.9659882"><ele>2.9999999999999996</ele><time>2026-04-12T09:19:53.949Z</time></trkpt><trkpt lat="43.5438055" lon="6.9660797"><ele>3.0</ele><time>2026-04-12T09:19:54.954Z</time></trkpt><trkpt lat="43.5438372" lon="6.966167"><ele>2.9999999999999996</ele><time>2026-04-12T09:19:55.951Z</time></trkpt><trkpt lat="43.543866" lon="6.9662603"><ele>3.0</ele><time>2026-04-12T09:19:56.939Z</time></trkpt><trkpt lat="43.5438921" lon="6.9663523"><ele>3.0</ele><time>2026-04-12T09:19:57.928Z</time></trkpt><trkpt lat="43.5439156" lon="6.9664405"><ele>3.0</ele><time>2026-04-12T09:19:58.935Z</time></trkpt><trkpt lat="43.5439384" lon="6.9665239"><ele>3.0</ele><time>2026-04-12T09:19:59.949Z</time></trkpt><trkpt lat="43.5439586" lon="6.9666123"><ele>2.9999999999999996</ele><time>2026-04-12T09:20:00.903Z</time></trkpt><trkpt lat="43.543983" lon="6.9666935"><ele>3.0</ele><time>2026-04-12T09:20:01.948Z</time></trkpt><trkpt lat="43.5440292" lon="6.9668382"><ele>3.0</ele><time>2026-04-12T09:20:03.941Z</time></trkpt><trkpt lat="43.5440441" lon="6.9669995"><ele>3.0</ele><time>2026-04-12T09:20:05.9Z</time></trkpt><trkpt lat="43.5440738" lon="6.9671442"><ele>3.0</ele><time>2026-04-12T09:20:07.936Z</time></trkpt><trkpt lat="43.5441289" lon="6.9672642"><ele>3.0</ele><time>2026-04-12T09:20:09.935Z</time></trkpt><trkpt lat="43.5441666" lon="6.9673358"><ele>3.0</ele><time>2026-04-12T09:20:13.917Z</time></trkpt><trkpt lat="43.5442096" lon="6.9674068"><ele>2.9999999999999996</ele><time>2026-04-12T09:20:18.939Z</time></trkpt><trkpt lat="43.5441555" lon="6.9674688"><ele>3.0</ele><time>2026-04-12T09:20:49.938Z</time></trkpt><trkpt lat="43.5441122" lon="6.9675387"><ele>3.0</ele><time>2026-04-12T09:24:40.93Z</time></trkpt><trkpt lat="43.5441531" lon="6.9674723"><ele>3.0</ele><time>2026-04-12T09:25:16.931Z</time></trkpt><trkpt lat="43.5441014" lon="6.9675296"><ele>3.0</ele><time>2026-04-12T09:27:40.926Z</time></trkpt><trkpt lat="43.5440601" lon="6.967597"><ele>2.9999999999999996</ele><time>2026-04-12T09:27:47.904Z</time></trkpt><trkpt lat="43.5440078" lon="6.9676637"><ele>3.0</ele><time>2026-04-12T09:27:55.789Z</time></trkpt><trkpt lat="43.5440318" lon="6.9675825"><ele>2.9999999999999996</ele><time>2026-04-12T09:29:16.897Z</time></trkpt><trkpt lat="43.5440964" lon="6.9675401"><ele>3.0</ele><time>2026-04-12T09:29:27.882Z</time></trkpt><trkpt lat="43.5441292" lon="6.9674554"><ele>3.0</ele><time>2026-04-12T09:32:18.921Z</time></trkpt><trkpt lat="43.5441144" lon="6.9675413"><ele>3.0</ele><time>2026-04-12T09:39:23.888Z</time></trkpt><trkpt lat="43.5440944" lon="6.9676343"><ele>3.0</ele><time>2026-04-12T09:39:34.857Z</time></trkpt><trkpt lat="43.5441002" lon="6.9675367"><ele>2.9999999999999996</ele><time>2026-04-12T09:42:32.911Z</time></trkpt><trkpt lat="43.5441523" lon="6.9674588"><ele>3.0</ele><time>2026-04-12T09:44:15.904Z</time></trkpt><trkpt lat="43.5441953" lon="6.9675404"><ele>2.6666666666666665</ele><time>2026-04-12T09:55:23.916Z</time></trkpt><trkpt lat="43.5442505" lon="6.9675833"><ele>2.3333333333333335</ele><time>2026-04-12T09:55:28.919Z</time></trkpt><trkpt lat="43.5442666" lon="6.967685"><ele>2.0</ele><time>2026-04-12T09:55:32.892Z</time></trkpt><trkpt lat="43.5443156" lon="6.9677666"><ele>1.6666666666666665</ele><time>2026-04-12T09:55:37.916Z</time></trkpt><trkpt lat="43.5443581" lon="6.9678816"><ele>1.3333333333333333</ele><time>2026-04-12T09:55:40.909Z</time></trkpt><trkpt lat="43.5443979" lon="6.9679724"><ele>1.0</ele><time>2026-04-12T09:55:42.912Z</time></trkpt><trkpt lat="43.5444458" lon="6.9680717"><ele>0.9999999999999999</ele><time>2026-04-12T09:55:44.902Z</time></trkpt><trkpt lat="43.5444782" lon="6.9681566"><ele>1.0</ele><time>2026-04-12T09:55:46.913Z</time></trkpt><trkpt lat="43.5445227" lon="6.9682501"><ele>1.0</ele><time>2026-04-12T09:55:48.908Z</time></trkpt><trkpt lat="43.5445662" lon="6.9683456"><ele>1.0</ele><time>2026-04-12T09:55:50.907Z</time></trkpt><trkpt lat="43.5446004" lon="6.968454"><ele>0.9999999999999999</ele><time>2026-04-12T09:55:52.918Z</time></trkpt><trkpt lat="43.5446393" lon="6.9685637"><ele>1.0</ele><time>2026-04-12T09:55:54.92Z</time></trkpt><trkpt lat="43.5446848" lon="6.9686758"><ele>1.0</ele><time>2026-04-12T09:55:56.91Z</time></trkpt><trkpt lat="43.5447305" lon="6.9687902"><ele>1.0</ele><time>2026-04-12T09:55:58.914Z</time></trkpt><trkpt lat="43.5447742" lon="6.9688986"><ele>1.0</ele><time>2026-04-12T09:56:00.905Z</time></trkpt><trkpt lat="43.5448149" lon="6.9690087"><ele>1.0</ele><time>2026-04-12T09:56:02.928Z</time></trkpt><trkpt lat="43.5448587" lon="6.9691144"><ele>1.0</ele><time>2026-04-12T09:56:04.906Z</time></trkpt><trkpt lat="43.5449037" lon="6.9692287"><ele>1.0</ele><time>2026-04-12T09:56:06.93Z</time></trkpt><trkpt lat="43.5449448" lon="6.9693494"><ele>1.0</ele><time>2026-04-12T09:56:08.919Z</time></trkpt><trkpt lat="43.5449936" lon="6.9694646"><ele>1.0</ele><time>2026-04-12T09:56:10.962Z</time></trkpt><trkpt lat="43.5450363" lon="6.969594"><ele>1.0</ele><time>2026-04-12T09:56:12.885Z</time></trkpt><trkpt lat="43.5450921" lon="6.9697183"><ele>1.0</ele><time>2026-04-12T09:56:14.931Z</time></trkpt><trkpt lat="43.5451502" lon="6.9698497"><ele>1.0</ele><time>2026-04-12T09:56:16.885Z</time></trkpt><trkpt lat="43.5452018" lon="6.9699859"><ele>1.0</ele><time>2026-04-12T09:56:18.924Z</time></trkpt><trkpt lat="43.5452458" lon="6.9701245"><ele>1.0</ele><time>2026-04-12T09:56:20.921Z</time></trkpt><trkpt lat="43.5452852" lon="6.9702648"><ele>1.0</ele><time>2026-04-12T09:56:22.931Z</time></trkpt><trkpt lat="43.5453259" lon="6.9704125"><ele>1.0</ele><time>2026-04-12T09:56:24.924Z</time></trkpt><trkpt lat="43.5453707" lon="6.9705495"><ele>1.2000000000000002</ele><time>2026-04-12T09:56:26.925Z</time></trkpt><trkpt lat="43.5454054" lon="6.9706834"><ele>1.4000000000000001</ele><time>2026-04-12T09:56:28.923Z</time></trkpt><trkpt lat="43.5454457" lon="6.9708292"><ele>1.6</ele><time>2026-04-12T09:56:30.919Z</time></trkpt><trkpt lat="43.5454878" lon="6.9709709"><ele>1.8</ele><time>2026-04-12T09:56:32.925Z</time></trkpt><trkpt lat="43.5455303" lon="6.9711111"><ele>2.0</ele><time>2026-04-12T09:56:34.92Z</time></trkpt><trkpt lat="43.5455691" lon="6.9712676"><ele>2.0</ele><time>2026-04-12T09:56:36.892Z</time></trkpt><trkpt lat="43.5456146" lon="6.9714264"><ele>2.0</ele><time>2026-04-12T09:56:38.905Z</time></trkpt><trkpt lat="43.5456554" lon="6.971579"><ele>2.0</ele><time>2026-04-12T09:56:40.924Z</time></trkpt><trkpt lat="43.5456923" lon="6.9717334"><ele>2.0</ele><time>2026-04-12T09:56:42.917Z</time></trkpt><trkpt lat="43.5457313" lon="6.9718828"><ele>1.75</ele><time>2026-04-12T09:56:44.929Z</time></trkpt><trkpt lat="43.5457657" lon="6.9720319"><ele>1.5</ele><time>2026-04-12T09:56:46.917Z</time></trkpt><trkpt lat="43.5458055" lon="6.9721878"><ele>1.25</ele><time>2026-04-12T09:56:48.928Z</time></trkpt><trkpt lat="43.5458474" lon="6.9723365"><ele>1.0</ele><time>2026-04-12T09:56:50.918Z</time></trkpt><trkpt lat="43.5458906" lon="6.9724882"><ele>0.8333333333333333</ele><time>2026-04-12T09:56:52.917Z</time></trkpt><trkpt lat="43.5459304" lon="6.9726402"><ele>0.6666666666666666</ele><time>2026-04-12T09:56:54.934Z</time></trkpt><trkpt lat="43.5459794" lon="6.9727904"><ele>0.5</ele><time>2026-04-12T09:56:56.898Z</time></trkpt><trkpt lat="43.5460004" lon="6.9728745"><ele>0.3333333333333333</ele><time>2026-04-12T09:56:57.894Z</time></trkpt><trkpt lat="43.5460229" lon="6.972965"><ele>0.16666666666666666</ele><time>2026-04-12T09:56:58.925Z</time></trkpt><trkpt lat="43.5460486" lon="6.9730568"><ele>0.0</ele><time>2026-04-12T09:56:59.917Z</time></trkpt><trkpt lat="43.5460721" lon="6.9731394"><ele>0.0</ele><time>2026-04-12T09:57:00.922Z</time></trkpt><trkpt lat="43.5461137" lon="6.9732948"><ele>0.0</ele><time>2026-04-12T09:57:02.934Z</time></trkpt><trkpt lat="43.5461438" lon="6.9734418"><ele>0.0</ele><time>2026-04-12T09:57:04.932Z</time></trkpt><trkpt lat="43.5461817" lon="6.97358"><ele>0.0</ele><time>2026-04-12T09:57:06.917Z</time></trkpt><trkpt lat="43.54622" lon="6.9737204"><ele>0.0</ele><time>2026-04-12T09:57:08.925Z</time></trkpt><trkpt lat="43.5462592" lon="6.9738759"><ele>0.25</ele><time>2026-04-12T09:57:10.913Z</time></trkpt><trkpt lat="43.546298" lon="6.9740274"><ele>0.5</ele><time>2026-04-12T09:57:12.899Z</time></trkpt><trkpt lat="43.5463397" lon="6.9741723"><ele>0.75</ele><time>2026-04-12T09:57:14.916Z</time></trkpt><trkpt lat="43.5463851" lon="6.9743119"><ele>1.0</ele><time>2026-04-12T09:57:16.917Z</time></trkpt><trkpt lat="43.5464314" lon="6.9744488"><ele>1.0</ele><time>2026-04-12T09:57:18.914Z</time></trkpt><trkpt lat="43.5464704" lon="6.974601"><ele>1.0</ele><time>2026-04-12T09:57:20.913Z</time></trkpt><trkpt lat="43.5465114" lon="6.9747515"><ele>1.0</ele><time>2026-04-12T09:57:22.91Z</time></trkpt><trkpt lat="43.5465519" lon="6.9748958"><ele>1.0</ele><time>2026-04-12T09:57:24.931Z</time></trkpt><trkpt lat="43.5465912" lon="6.9750448"><ele>0.75</ele><time>2026-04-12T09:57:26.913Z</time></trkpt><trkpt lat="43.5466271" lon="6.9751872"><ele>0.5</ele><time>2026-04-12T09:57:28.895Z</time></trkpt><trkpt lat="43.5466666" lon="6.9753373"><ele>0.25</ele><time>2026-04-12T09:57:30.92Z</time></trkpt><trkpt lat="43.5467009" lon="6.975487"><ele>0.0</ele><time>2026-04-12T09:57:32.914Z</time></trkpt><trkpt lat="43.5467341" lon="6.9756361"><ele>0.0</ele><time>2026-04-12T09:57:34.925Z</time></trkpt><trkpt lat="43.5467677" lon="6.9757881"><ele>0.0</ele><time>2026-04-12T09:57:36.923Z</time></trkpt><trkpt lat="43.5468095" lon="6.9759429"><ele>0.0</ele><time>2026-04-12T09:57:38.936Z</time></trkpt><trkpt lat="43.546847" lon="6.9760967"><ele>0.0</ele><time>2026-04-12T09:57:40.929Z</time></trkpt><trkpt lat="43.546879" lon="6.9762535"><ele>0.25</ele><time>2026-04-12T09:57:42.927Z</time></trkpt><trkpt lat="43.5469139" lon="6.9764102"><ele>0.5</ele><time>2026-04-12T09:57:44.924Z</time></trkpt><trkpt lat="43.5469496" lon="6.976564"><ele>0.75</ele><time>2026-04-12T09:57:46.92Z</time></trkpt><trkpt lat="43.5469854" lon="6.9767219"><ele>1.0</ele><time>2026-04-12T09:57:48.931Z</time></trkpt><trkpt lat="43.5470204" lon="6.9768811"><ele>1.75</ele><time>2026-04-12T09:57:50.923Z</time></trkpt><trkpt lat="43.547054" lon="6.9770383"><ele>2.5</ele><time>2026-04-12T09:57:52.915Z</time></trkpt><trkpt lat="43.5470877" lon="6.9772016"><ele>3.25</ele><time>2026-04-12T09:57:54.925Z</time></trkpt><trkpt lat="43.5471178" lon="6.9773632"><ele>4.0</ele><time>2026-04-12T09:57:56.919Z</time></trkpt><trkpt lat="43.5471496" lon="6.9775182"><ele>4.25</ele><time>2026-04-12T09:57:58.923Z</time></trkpt><trkpt lat="43.5471826" lon="6.9776754"><ele>4.5</ele><time>2026-04-12T09:58:00.924Z</time></trkpt><trkpt lat="43.5472123" lon="6.977831"><ele>4.75</ele><time>2026-04-12T09:58:02.923Z</time></trkpt><trkpt lat="43.5472485" lon="6.9779905"><ele>5.0</ele><time>2026-04-12T09:58:04.917Z</time></trkpt><trkpt lat="43.5472893" lon="6.9781487"><ele>5.0</ele><time>2026-04-12T09:58:06.929Z</time></trkpt><trkpt lat="43.5473347" lon="6.9783055"><ele>5.0</ele><time>2026-04-12T09:58:08.931Z</time></trkpt><trkpt lat="43.5473772" lon="6.9784572"><ele>5.0</ele><time>2026-04-12T09:58:10.917Z</time></trkpt><trkpt lat="43.5474039" lon="6.9786144"><ele>5.0</ele><time>2026-04-12T09:58:12.933Z</time></trkpt><trkpt lat="43.5474241" lon="6.9787751"><ele>5.0</ele><time>2026-04-12T09:58:14.921Z</time></trkpt><trkpt lat="43.5474356" lon="6.9788612"><ele>5.0</ele><time>2026-04-12T09:58:15.917Z</time></trkpt><trkpt lat="43.54744" lon="6.9789485"><ele>5.0</ele><time>2026-04-12T09:58:16.918Z</time></trkpt><trkpt lat="43.5474618" lon="6.9791205"><ele>5.0</ele><time>2026-04-12T09:58:18.923Z</time></trkpt><trkpt lat="43.5474764" lon="6.9792851"><ele>5.0</ele><time>2026-04-12T09:58:20.924Z</time></trkpt><trkpt lat="43.5474938" lon="6.9794458"><ele>5.0</ele><time>2026-04-12T09:58:22.898Z</time></trkpt><trkpt lat="43.5475038" lon="6.9796142"><ele>5.0</ele><time>2026-04-12T09:58:24.919Z</time></trkpt><trkpt lat="43.5475157" lon="6.9797587"><ele>5.0</ele><time>2026-04-12T09:58:26.928Z</time></trkpt><trkpt lat="43.5475186" lon="6.9798652"><ele>5.0</ele><time>2026-04-12T09:58:28.916Z</time></trkpt><trkpt lat="43.547484" lon="6.979944"><ele>5.0</ele><time>2026-04-12T09:58:31.911Z</time></trkpt><trkpt lat="43.5474819" lon="6.9800528"><ele>5.0</ele><time>2026-04-12T09:58:34.903Z</time></trkpt><trkpt lat="43.5475032" lon="6.9801736"><ele>5.0</ele><time>2026-04-12T09:58:37.92Z</time></trkpt><trkpt lat="43.5475223" lon="6.9802584"><ele>5.0</ele><time>2026-04-12T09:58:39.918Z</time></trkpt><trkpt lat="43.5475337" lon="6.9803628"><ele>5.0</ele><time>2026-04-12T09:58:41.927Z</time></trkpt><trkpt lat="43.5475469" lon="6.9804733"><ele>5.0</ele><time>2026-04-12T09:58:43.92Z</time></trkpt><trkpt lat="43.5475682" lon="6.9805818"><ele>5.0</ele><time>2026-04-12T09:58:45.931Z</time></trkpt><trkpt lat="43.5476063" lon="6.9806907"><ele>5.0</ele><time>2026-04-12T09:58:47.923Z</time></trkpt><trkpt lat="43.5476275" lon="6.9808173"><ele>5.0</ele><time>2026-04-12T09:58:49.897Z</time></trkpt><trkpt lat="43.5476445" lon="6.9809558"><ele>5.0</ele><time>2026-04-12T09:58:51.923Z</time></trkpt><trkpt lat="43.5476563" lon="6.9811129"><ele>5.0</ele><time>2026-04-12T09:58:53.919Z</time></trkpt><trkpt lat="43.5476845" lon="6.9812705"><ele>5.0</ele><time>2026-04-12T09:58:55.938Z</time></trkpt><trkpt lat="43.5477048" lon="6.9814338"><ele>4.8</ele><time>2026-04-12T09:58:57.914Z</time></trkpt><trkpt lat="43.5477294" lon="6.9816023"><ele>4.6</ele><time>2026-04-12T09:58:59.906Z</time></trkpt><trkpt lat="43.5477388" lon="6.9816919"><ele>4.4</ele><time>2026-04-12T09:59:00.944Z</time></trkpt><trkpt lat="43.5477575" lon="6.9818572"><ele>4.2</ele><time>2026-04-12T09:59:02.914Z</time></trkpt><trkpt lat="43.5477785" lon="6.9820197"><ele>4.0</ele><time>2026-04-12T09:59:04.902Z</time></trkpt><trkpt lat="43.5478017" lon="6.9821837"><ele>3.833333333333333</ele><time>2026-04-12T09:59:06.914Z</time></trkpt><trkpt lat="43.5478146" lon="6.9822776"><ele>3.6666666666666665</ele><time>2026-04-12T09:59:07.925Z</time></trkpt><trkpt lat="43.5478289" lon="6.9823649"><ele>3.5</ele><time>2026-04-12T09:59:08.924Z</time></trkpt><trkpt lat="43.5478385" lon="6.9824536"><ele>3.333333333333333</ele><time>2026-04-12T09:59:09.927Z</time></trkpt><trkpt lat="43.5478481" lon="6.9825425"><ele>3.1666666666666665</ele><time>2026-04-12T09:59:10.919Z</time></trkpt><trkpt lat="43.5478558" lon="6.9826304"><ele>3.0</ele><time>2026-04-12T09:59:11.916Z</time></trkpt><trkpt lat="43.547875" lon="6.9828019"><ele>3.5999999999999996</ele><time>2026-04-12T09:59:13.899Z</time></trkpt><trkpt lat="43.5478854" lon="6.9828898"><ele>4.199999999999999</ele><time>2026-04-12T09:59:15.07Z</time></trkpt><trkpt lat="43.5479074" lon="6.9830692"><ele>4.8</ele><time>2026-04-12T09:59:17.048Z</time></trkpt><trkpt lat="43.5479336" lon="6.9832456"><ele>5.3999999999999995</ele><time>2026-04-12T09:59:18.917Z</time></trkpt><trkpt lat="43.5479452" lon="6.9833386"><ele>6.0</ele><time>2026-04-12T09:59:19.921Z</time></trkpt><trkpt lat="43.5479587" lon="6.9834254"><ele>6.428571428571428</ele><time>2026-04-12T09:59:20.901Z</time></trkpt><trkpt lat="43.5479736" lon="6.9835125"><ele>6.857142857142858</ele><time>2026-04-12T09:59:21.914Z</time></trkpt><trkpt lat="43.5479929" lon="6.9836055"><ele>7.2857142857142865</ele><time>2026-04-12T09:59:22.916Z</time></trkpt><trkpt lat="43.5480091" lon="6.9837024"><ele>7.714285714285714</ele><time>2026-04-12T09:59:23.918Z</time></trkpt><trkpt lat="43.5480217" lon="6.9837939"><ele>8.142857142857142</ele><time>2026-04-12T09:59:24.923Z</time></trkpt><trkpt lat="43.5480379" lon="6.9838821"><ele>8.571428571428573</ele><time>2026-04-12T09:59:25.923Z</time></trkpt><trkpt lat="43.5480548" lon="6.9839754"><ele>9.0</ele><time>2026-04-12T09:59:26.913Z</time></trkpt><trkpt lat="43.5480753" lon="6.9840652"><ele>9.000000000000002</ele><time>2026-04-12T09:59:27.924Z</time></trkpt><trkpt lat="43.5480948" lon="6.9841608"><ele>9.0</ele><time>2026-04-12T09:59:28.914Z</time></trkpt><trkpt lat="43.5481112" lon="6.98425"><ele>9.0</ele><time>2026-04-12T09:59:29.903Z</time></trkpt><trkpt lat="43.5481322" lon="6.9843377"><ele>9.0</ele><time>2026-04-12T09:59:30.9Z</time></trkpt><trkpt lat="43.5481485" lon="6.9844299"><ele>9.0</ele><time>2026-04-12T09:59:31.922Z</time></trkpt><trkpt lat="43.5481656" lon="6.9845233"><ele>9.000000000000002</ele><time>2026-04-12T09:59:32.928Z</time></trkpt><trkpt lat="43.5481878" lon="6.9846112"><ele>9.0</ele><time>2026-04-12T09:59:33.908Z</time></trkpt><trkpt lat="43.5482054" lon="6.9847048"><ele>9.285714285714286</ele><time>2026-04-12T09:59:34.92Z</time></trkpt><trkpt lat="43.548221" lon="6.9847952"><ele>9.571428571428571</ele><time>2026-04-12T09:59:35.924Z</time></trkpt><trkpt lat="43.5482368" lon="6.9848902"><ele>9.857142857142858</ele><time>2026-04-12T09:59:36.922Z</time></trkpt><trkpt lat="43.5482519" lon="6.9849826"><ele>10.142857142857142</ele><time>2026-04-12T09:59:37.886Z</time></trkpt><trkpt lat="43.5482643" lon="6.9850752"><ele>10.428571428571429</ele><time>2026-04-12T09:59:38.921Z</time></trkpt><trkpt lat="43.5482786" lon="6.9851665"><ele>10.714285714285715</ele><time>2026-04-12T09:59:39.888Z</time></trkpt><trkpt lat="43.5482923" lon="6.9852633"><ele>11.0</ele><time>2026-04-12T09:59:40.925Z</time></trkpt><trkpt lat="43.5483043" lon="6.9853567"><ele>10.428571428571429</ele><time>2026-04-12T09:59:41.929Z</time></trkpt><trkpt lat="43.5483249" lon="6.9854444"><ele>9.857142857142858</ele><time>2026-04-12T09:59:42.915Z</time></trkpt><trkpt lat="43.5483451" lon="6.9855384"><ele>9.285714285714285</ele><time>2026-04-12T09:59:43.916Z</time></trkpt><trkpt lat="43.5483614" lon="6.9856344"><ele>8.714285714285715</ele><time>2026-04-12T09:59:44.933Z</time></trkpt><trkpt lat="43.548379" lon="6.9857243"><ele>8.142857142857142</ele><time>2026-04-12T09:59:45.923Z</time></trkpt><trkpt lat="43.5483943" lon="6.9858162"><ele>7.571428571428571</ele><time>2026-04-12T09:59:46.93Z</time></trkpt><trkpt lat="43.548412" lon="6.9859071"><ele>7.0</ele><time>2026-04-12T09:59:47.927Z</time></trkpt><trkpt lat="43.5484288" lon="6.9859936"><ele>6.333333333333334</ele><time>2026-04-12T09:59:48.918Z</time></trkpt><trkpt lat="43.5484454" lon="6.9860825"><ele>5.666666666666667</ele><time>2026-04-12T09:59:49.89Z</time></trkpt><trkpt lat="43.5484616" lon="6.9861759"><ele>5.0</ele><time>2026-04-12T09:59:50.924Z</time></trkpt><trkpt lat="43.5484788" lon="6.9862704"><ele>4.333333333333334</ele><time>2026-04-12T09:59:51.932Z</time></trkpt><trkpt lat="43.5484975" lon="6.9863587"><ele>3.666666666666667</ele><time>2026-04-12T09:59:52.919Z</time></trkpt><trkpt lat="43.5485333" lon="6.9865148"><ele>3.0</ele><time>2026-04-12T09:59:54.921Z</time></trkpt><trkpt lat="43.5485636" lon="6.9866785"><ele>3.0</ele><time>2026-04-12T09:59:56.885Z</time></trkpt><trkpt lat="43.5485993" lon="6.9868439"><ele>3.0</ele><time>2026-04-12T09:59:58.917Z</time></trkpt><trkpt lat="43.5486366" lon="6.9870115"><ele>3.0</ele><time>2026-04-12T10:00:00.912Z</time></trkpt><trkpt lat="43.5486503" lon="6.9870997"><ele>3.0</ele><time>2026-04-12T10:00:01.915Z</time></trkpt><trkpt lat="43.548666" lon="6.9871867"><ele>3.0</ele><time>2026-04-12T10:00:02.921Z</time></trkpt><trkpt lat="43.5486987" lon="6.9873559"><ele>3.4285714285714284</ele><time>2026-04-12T10:00:04.893Z</time></trkpt><trkpt lat="43.5487145" lon="6.9874427"><ele>3.8571428571428568</ele><time>2026-04-12T10:00:05.9Z</time></trkpt><trkpt lat="43.5487212" lon="6.987538"><ele>4.285714285714286</ele><time>2026-04-12T10:00:06.894Z</time></trkpt><trkpt lat="43.5487377" lon="6.9876225"><ele>4.7142857142857135</ele><time>2026-04-12T10:00:07.933Z</time></trkpt><trkpt lat="43.548746" lon="6.9877155"><ele>5.142857142857142</ele><time>2026-04-12T10:00:08.921Z</time></trkpt><trkpt lat="43.54876" lon="6.9878042"><ele>5.571428571428571</ele><time>2026-04-12T10:00:09.994Z</time></trkpt><trkpt lat="43.5487777" lon="6.9878957"><ele>6.0</ele><time>2026-04-12T10:00:10.911Z</time></trkpt><trkpt lat="43.5487921" lon="6.9879811"><ele>5.999999999999999</ele><time>2026-04-12T10:00:11.924Z</time></trkpt><trkpt lat="43.5488064" lon="6.9880696"><ele>6.0</ele><time>2026-04-12T10:00:12.918Z</time></trkpt><trkpt lat="43.5488176" lon="6.9881617"><ele>6.0</ele><time>2026-04-12T10:00:13.916Z</time></trkpt><trkpt lat="43.5488292" lon="6.988256"><ele>6.0</ele><time>2026-04-12T10:00:14.921Z</time></trkpt><trkpt lat="43.5488453" lon="6.9883449"><ele>6.0</ele><time>2026-04-12T10:00:15.91Z</time></trkpt><trkpt lat="43.5488565" lon="6.9884357"><ele>5.999999999999999</ele><time>2026-04-12T10:00:16.921Z</time></trkpt><trkpt lat="43.5488672" lon="6.9885238"><ele>6.0</ele><time>2026-04-12T10:00:17.925Z</time></trkpt><trkpt lat="43.5488787" lon="6.9886129"><ele>5.7142857142857135</ele><time>2026-04-12T10:00:18.932Z</time></trkpt><trkpt lat="43.54889" lon="6.9887025"><ele>5.428571428571429</ele><time>2026-04-12T10:00:19.91Z</time></trkpt><trkpt lat="43.5488953" lon="6.9888027"><ele>5.142857142857142</ele><time>2026-04-12T10:00:20.903Z</time></trkpt><trkpt lat="43.5489018" lon="6.9889024"><ele>4.857142857142857</ele><time>2026-04-12T10:00:21.908Z</time></trkpt><trkpt lat="43.5489074" lon="6.989004"><ele>4.571428571428571</ele><time>2026-04-12T10:00:22.923Z</time></trkpt><trkpt lat="43.5489168" lon="6.9891052"><ele>4.285714285714286</ele><time>2026-04-12T10:00:23.919Z</time></trkpt><trkpt lat="43.5489288" lon="6.9892027"><ele>4.0</ele><time>2026-04-12T10:00:24.929Z</time></trkpt><trkpt lat="43.5489376" lon="6.9893013"><ele>4.0</ele><time>2026-04-12T10:00:25.925Z</time></trkpt><trkpt lat="43.548943" lon="6.9894014"><ele>3.9999999999999996</ele><time>2026-04-12T10:00:26.908Z</time></trkpt><trkpt lat="43.5489515" lon="6.9895032"><ele>4.0</ele><time>2026-04-12T10:00:27.921Z</time></trkpt><trkpt lat="43.5489566" lon="6.9896042"><ele>4.0</ele><time>2026-04-12T10:00:28.934Z</time></trkpt><trkpt lat="43.5489626" lon="6.9897044"><ele>3.9999999999999996</ele><time>2026-04-12T10:00:29.922Z</time></trkpt><trkpt lat="43.5489745" lon="6.9898038"><ele>4.0</ele><time>2026-04-12T10:00:30.907Z</time></trkpt><trkpt lat="43.5489801" lon="6.9899033"><ele>4.0</ele><time>2026-04-12T10:00:31.922Z</time></trkpt><trkpt lat="43.5489856" lon="6.9900051"><ele>4.142857142857142</ele><time>2026-04-12T10:00:32.93Z</time></trkpt><trkpt lat="43.5489914" lon="6.9901054"><ele>4.285714285714286</ele><time>2026-04-12T10:00:33.914Z</time></trkpt><trkpt lat="43.5489956" lon="6.9902042"><ele>4.428571428571429</ele><time>2026-04-12T10:00:34.923Z</time></trkpt><trkpt lat="43.5489965" lon="6.9903042"><ele>4.571428571428571</ele><time>2026-04-12T10:00:35.986Z</time></trkpt><trkpt lat="43.549002" lon="6.990408"><ele>4.714285714285714</ele><time>2026-04-12T10:00:36.909Z</time></trkpt><trkpt lat="43.5490068" lon="6.9905066"><ele>4.857142857142857</ele><time>2026-04-12T10:00:37.918Z</time></trkpt><trkpt lat="43.5490114" lon="6.9906081"><ele>5.0</ele><time>2026-04-12T10:00:38.937Z</time></trkpt><trkpt lat="43.5490175" lon="6.9907117"><ele>5.0</ele><time>2026-04-12T10:00:39.914Z</time></trkpt><trkpt lat="43.5490221" lon="6.9908154"><ele>5.0</ele><time>2026-04-12T10:00:40.927Z</time></trkpt><trkpt lat="43.5490292" lon="6.9909222"><ele>5.0</ele><time>2026-04-12T10:00:41.886Z</time></trkpt><trkpt lat="43.5490394" lon="6.9910226"><ele>5.0</ele><time>2026-04-12T10:00:42.884Z</time></trkpt><trkpt lat="43.5490472" lon="6.9911293"><ele>5.0</ele><time>2026-04-12T10:00:43.887Z</time></trkpt><trkpt lat="43.5490649" lon="6.9912247"><ele>5.0</ele><time>2026-04-12T10:00:44.918Z</time></trkpt><trkpt lat="43.54907" lon="6.9913257"><ele>5.0</ele><time>2026-04-12T10:00:45.913Z</time></trkpt><trkpt lat="43.549074" lon="6.9914285"><ele>5.142857142857142</ele><time>2026-04-12T10:00:46.926Z</time></trkpt><trkpt lat="43.5490829" lon="6.9915297"><ele>5.285714285714286</ele><time>2026-04-12T10:00:47.915Z</time></trkpt><trkpt lat="43.5490856" lon="6.9916298"><ele>5.428571428571429</ele><time>2026-04-12T10:00:48.909Z</time></trkpt><trkpt lat="43.5490913" lon="6.9917266"><ele>5.571428571428571</ele><time>2026-04-12T10:00:49.913Z</time></trkpt><trkpt lat="43.549095" lon="6.9918274"><ele>5.714285714285714</ele><time>2026-04-12T10:00:50.911Z</time></trkpt><trkpt lat="43.5491058" lon="6.9919226"><ele>5.857142857142857</ele><time>2026-04-12T10:00:51.919Z</time></trkpt><trkpt lat="43.5491092" lon="6.9920203"><ele>6.0</ele><time>2026-04-12T10:00:52.916Z</time></trkpt><trkpt lat="43.5491156" lon="6.99212"><ele>6.166666666666667</ele><time>2026-04-12T10:00:53.918Z</time></trkpt><trkpt lat="43.5491169" lon="6.9922218"><ele>6.333333333333334</ele><time>2026-04-12T10:00:54.928Z</time></trkpt><trkpt lat="43.5491191" lon="6.9923218"><ele>6.5</ele><time>2026-04-12T10:00:55.922Z</time></trkpt><trkpt lat="43.5491207" lon="6.9924248"><ele>6.666666666666667</ele><time>2026-04-12T10:00:56.921Z</time></trkpt><trkpt lat="43.549131" lon="6.9925276"><ele>6.833333333333334</ele><time>2026-04-12T10:00:57.9Z</time></trkpt><trkpt lat="43.5491368" lon="6.9926382"><ele>7.0</ele><time>2026-04-12T10:00:58.919Z</time></trkpt><trkpt lat="43.5491425" lon="6.9927391"><ele>6.666666666666667</ele><time>2026-04-12T10:00:59.923Z</time></trkpt><trkpt lat="43.549146" lon="6.9928403"><ele>6.333333333333334</ele><time>2026-04-12T10:01:00.894Z</time></trkpt><trkpt lat="43.549149" lon="6.9929467"><ele>6.0</ele><time>2026-04-12T10:01:01.912Z</time></trkpt><trkpt lat="43.5491503" lon="6.9930532"><ele>5.666666666666667</ele><time>2026-04-12T10:01:02.896Z</time></trkpt><trkpt lat="43.5491584" lon="6.9931582"><ele>5.333333333333334</ele><time>2026-04-12T10:01:03.915Z</time></trkpt><trkpt lat="43.549166" lon="6.993264"><ele>5.0</ele><time>2026-04-12T10:01:04.922Z</time></trkpt><trkpt lat="43.5491729" lon="6.9933713"><ele>5.0</ele><time>2026-04-12T10:01:05.911Z</time></trkpt><trkpt lat="43.5491781" lon="6.9934756"><ele>5.0</ele><time>2026-04-12T10:01:06.929Z</time></trkpt><trkpt lat="43.5491819" lon="6.9935755"><ele>5.0</ele><time>2026-04-12T10:01:07.917Z</time></trkpt><trkpt lat="43.5491852" lon="6.9936749"><ele>5.0</ele><time>2026-04-12T10:01:08.909Z</time></trkpt><trkpt lat="43.5491882" lon="6.9937787"><ele>5.0</ele><time>2026-04-12T10:01:09.898Z</time></trkpt><trkpt lat="43.5491914" lon="6.9938808"><ele>5.0</ele><time>2026-04-12T10:01:10.912Z</time></trkpt><trkpt lat="43.5491949" lon="6.9939778"><ele>5.0</ele><time>2026-04-12T10:01:11.917Z</time></trkpt><trkpt lat="43.5491995" lon="6.9940787"><ele>4.857142857142857</ele><time>2026-04-12T10:01:12.923Z</time></trkpt><trkpt lat="43.5492021" lon="6.9941778"><ele>4.714285714285714</ele><time>2026-04-12T10:01:13.923Z</time></trkpt><trkpt lat="43.5492062" lon="6.9942809"><ele>4.571428571428571</ele><time>2026-04-12T10:01:14.915Z</time></trkpt><trkpt lat="43.5492123" lon="6.9943819"><ele>4.428571428571429</ele><time>2026-04-12T10:01:15.929Z</time></trkpt><trkpt lat="43.5492194" lon="6.9944846"><ele>4.285714285714286</ele><time>2026-04-12T10:01:16.898Z</time></trkpt><trkpt lat="43.5492213" lon="6.9945894"><ele>4.142857142857142</ele><time>2026-04-12T10:01:17.899Z</time></trkpt><trkpt lat="43.5492227" lon="6.9946881"><ele>4.0</ele><time>2026-04-12T10:01:18.919Z</time></trkpt><trkpt lat="43.5492299" lon="6.994785"><ele>4.0</ele><time>2026-04-12T10:01:19.911Z</time></trkpt><trkpt lat="43.549239" lon="6.9948874"><ele>3.9999999999999996</ele><time>2026-04-12T10:01:20.899Z</time></trkpt><trkpt lat="43.549242" lon="6.9949917"><ele>4.0</ele><time>2026-04-12T10:01:21.909Z</time></trkpt><trkpt lat="43.5492433" lon="6.9950925"><ele>4.0</ele><time>2026-04-12T10:01:22.921Z</time></trkpt><trkpt lat="43.5492464" lon="6.9951904"><ele>3.9999999999999996</ele><time>2026-04-12T10:01:23.91Z</time></trkpt><trkpt lat="43.5492474" lon="6.9952885"><ele>4.0</ele><time>2026-04-12T10:01:24.913Z</time></trkpt><trkpt lat="43.5492496" lon="6.9953915"><ele>4.0</ele><time>2026-04-12T10:01:25.927Z</time></trkpt><trkpt lat="43.5492512" lon="6.995492"><ele>4.0</ele><time>2026-04-12T10:01:26.918Z</time></trkpt><trkpt lat="43.549255" lon="6.9955884"><ele>3.9999999999999996</ele><time>2026-04-12T10:01:27.917Z</time></trkpt><trkpt lat="43.549254" lon="6.9956875"><ele>4.0</ele><time>2026-04-12T10:01:28.912Z</time></trkpt><trkpt lat="43.5492506" lon="6.9957826"><ele>4.0</ele><time>2026-04-12T10:01:29.908Z</time></trkpt><trkpt lat="43.5492482" lon="6.9958773"><ele>3.9999999999999996</ele><time>2026-04-12T10:01:30.943Z</time></trkpt><trkpt lat="43.5492497" lon="6.9959757"><ele>4.0</ele><time>2026-04-12T10:01:31.927Z</time></trkpt><trkpt lat="43.549253" lon="6.9960727"><ele>4.0</ele><time>2026-04-12T10:01:32.925Z</time></trkpt><trkpt lat="43.5492581" lon="6.9961713"><ele>3.9999999999999996</ele><time>2026-04-12T10:01:33.903Z</time></trkpt><trkpt lat="43.5492537" lon="6.9962778"><ele>4.0</ele><time>2026-04-12T10:01:34.92Z</time></trkpt><trkpt lat="43.5492474" lon="6.9963803"><ele>4.0</ele><time>2026-04-12T10:01:35.902Z</time></trkpt><trkpt lat="43.5492379" lon="6.9964833"><ele>4.0</ele><time>2026-04-12T10:01:36.908Z</time></trkpt><trkpt lat="43.5492294" lon="6.9965896"><ele>3.9999999999999996</ele><time>2026-04-12T10:01:37.909Z</time></trkpt><trkpt lat="43.5492213" lon="6.9966945"><ele>4.0</ele><time>2026-04-12T10:01:38.902Z</time></trkpt><trkpt lat="43.5492168" lon="6.9967993"><ele>4.166666666666666</ele><time>2026-04-12T10:01:39.923Z</time></trkpt><trkpt lat="43.5492144" lon="6.9969044"><ele>4.333333333333333</ele><time>2026-04-12T10:01:40.92Z</time></trkpt><trkpt lat="43.5492121" lon="6.9970061"><ele>4.5</ele><time>2026-04-12T10:01:41.92Z</time></trkpt><trkpt lat="43.549209" lon="6.9971082"><ele>4.666666666666667</ele><time>2026-04-12T10:01:42.921Z</time></trkpt><trkpt lat="43.549204" lon="6.9972138"><ele>4.833333333333334</ele><time>2026-04-12T10:01:43.913Z</time></trkpt><trkpt lat="43.549203" lon="6.9973171"><ele>5.0</ele><time>2026-04-12T10:01:44.911Z</time></trkpt><trkpt lat="43.5492015" lon="6.9974211"><ele>5.0</ele><time>2026-04-12T10:01:45.93Z</time></trkpt><trkpt lat="43.5492009" lon="6.9975221"><ele>5.0</ele><time>2026-04-12T10:01:46.974Z</time></trkpt><trkpt lat="43.5491983" lon="6.9976244"><ele>5.0</ele><time>2026-04-12T10:01:47.882Z</time></trkpt><trkpt lat="43.5491947" lon="6.9977255"><ele>5.0</ele><time>2026-04-12T10:01:48.926Z</time></trkpt><trkpt lat="43.5491829" lon="6.9978295"><ele>5.0</ele><time>2026-04-12T10:01:49.929Z</time></trkpt><trkpt lat="43.5491729" lon="6.9979361"><ele>5.0</ele><time>2026-04-12T10:01:50.919Z</time></trkpt><trkpt lat="43.5491723" lon="6.9980391"><ele>5.0</ele><time>2026-04-12T10:01:51.928Z</time></trkpt><trkpt lat="43.5491707" lon="6.9981384"><ele>5.0</ele><time>2026-04-12T10:01:52.918Z</time></trkpt><trkpt lat="43.5491724" lon="6.9982349"><ele>5.0</ele><time>2026-04-12T10:01:53.89Z</time></trkpt><trkpt lat="43.5491729" lon="6.9983305"><ele>5.0</ele><time>2026-04-12T10:01:54.903Z</time></trkpt><trkpt lat="43.5491671" lon="6.9984306"><ele>5.0</ele><time>2026-04-12T10:01:55.907Z</time></trkpt><trkpt lat="43.5491614" lon="6.9985305"><ele>5.0</ele><time>2026-04-12T10:01:56.906Z</time></trkpt><trkpt lat="43.5491565" lon="6.9986321"><ele>5.0</ele><time>2026-04-12T10:01:57.91Z</time></trkpt><trkpt lat="43.5491512" lon="6.9987363"><ele>5.285714285714286</ele><time>2026-04-12T10:01:58.876Z</time></trkpt><trkpt lat="43.5491514" lon="6.9988332"><ele>5.571428571428571</ele><time>2026-04-12T10:01:59.922Z</time></trkpt><trkpt lat="43.5491446" lon="6.9989321"><ele>5.857142857142858</ele><time>2026-04-12T10:02:00.916Z</time></trkpt><trkpt lat="43.5491376" lon="6.9990334"><ele>6.142857142857142</ele><time>2026-04-12T10:02:01.905Z</time></trkpt><trkpt lat="43.5491355" lon="6.9991301"><ele>6.428571428571429</ele><time>2026-04-12T10:02:02.927Z</time></trkpt><trkpt lat="43.5491396" lon="6.9992262"><ele>6.714285714285714</ele><time>2026-04-12T10:02:03.915Z</time></trkpt><trkpt lat="43.5491348" lon="6.9993232"><ele>7.0</ele><time>2026-04-12T10:02:04.913Z</time></trkpt><trkpt lat="43.5491294" lon="6.9994219"><ele>7.571428571428571</ele><time>2026-04-12T10:02:05.928Z</time></trkpt><trkpt lat="43.5491258" lon="6.9995212"><ele>8.142857142857142</ele><time>2026-04-12T10:02:06.922Z</time></trkpt><trkpt lat="43.5491188" lon="6.9996211"><ele>8.714285714285715</ele><time>2026-04-12T10:02:07.93Z</time></trkpt><trkpt lat="43.549117" lon="6.9997185"><ele>9.285714285714285</ele><time>2026-04-12T10:02:08.925Z</time></trkpt><trkpt lat="43.5491116" lon="6.9998133"><ele>9.857142857142858</ele><time>2026-04-12T10:02:09.928Z</time></trkpt><trkpt lat="43.5491045" lon="6.9999112"><ele>10.428571428571429</ele><time>2026-04-12T10:02:10.924Z</time></trkpt><trkpt lat="43.5490993" lon="7.0000096"><ele>11.0</ele><time>2026-04-12T10:02:11.949Z</time></trkpt><trkpt lat="43.5490969" lon="7.0001046"><ele>11.0</ele><time>2026-04-12T10:02:12.924Z</time></trkpt><trkpt lat="43.5490997" lon="7.0002019"><ele>11.0</ele><time>2026-04-12T10:02:13.91Z</time></trkpt><trkpt lat="43.5490955" lon="7.0002966"><ele>11.0</ele><time>2026-04-12T10:02:14.914Z</time></trkpt><trkpt lat="43.5490899" lon="7.0003924"><ele>11.0</ele><time>2026-04-12T10:02:15.924Z</time></trkpt><trkpt lat="43.5490849" lon="7.0004874"><ele>11.0</ele><time>2026-04-12T10:02:16.896Z</time></trkpt><trkpt lat="43.549081" lon="7.0005819"><ele>11.0</ele><time>2026-04-12T10:02:17.897Z</time></trkpt><trkpt lat="43.5490757" lon="7.0006748"><ele>11.0</ele><time>2026-04-12T10:02:18.929Z</time></trkpt><trkpt lat="43.5490696" lon="7.0007638"><ele>10.166666666666666</ele><time>2026-04-12T10:02:19.919Z</time></trkpt><trkpt lat="43.5490634" lon="7.0009388"><ele>9.333333333333332</ele><time>2026-04-12T10:02:21.919Z</time></trkpt><trkpt lat="43.5490553" lon="7.0010309"><ele>8.5</ele><time>2026-04-12T10:02:22.91Z</time></trkpt><trkpt lat="43.5490521" lon="7.0011275"><ele>7.666666666666666</ele><time>2026-04-12T10:02:23.925Z</time></trkpt><trkpt lat="43.5490494" lon="7.0012217"><ele>6.833333333333333</ele><time>2026-04-12T10:02:24.923Z</time></trkpt><trkpt lat="43.5490481" lon="7.001316"><ele>6.0</ele><time>2026-04-12T10:02:25.904Z</time></trkpt><trkpt lat="43.5490427" lon="7.0014055"><ele>6.0</ele><time>2026-04-12T10:02:26.925Z</time></trkpt><trkpt lat="43.5490421" lon="7.0015678"><ele>6.0</ele><time>2026-04-12T10:02:28.936Z</time></trkpt><trkpt lat="43.5490316" lon="7.0017228"><ele>6.0</ele><time>2026-04-12T10:02:30.921Z</time></trkpt><trkpt lat="43.5490275" lon="7.0018898"><ele>6.0</ele><time>2026-04-12T10:02:32.915Z</time></trkpt><trkpt lat="43.5490198" lon="7.0020645"><ele>5.7142857142857135</ele><time>2026-04-12T10:02:34.931Z</time></trkpt><trkpt lat="43.5490182" lon="7.0021536"><ele>5.428571428571429</ele><time>2026-04-12T10:02:35.92Z</time></trkpt><trkpt lat="43.549015" lon="7.0022452"><ele>5.142857142857142</ele><time>2026-04-12T10:02:36.926Z</time></trkpt><trkpt lat="43.5490146" lon="7.0023323"><ele>4.857142857142857</ele><time>2026-04-12T10:02:37.93Z</time></trkpt><trkpt lat="43.5490149" lon="7.0024215"><ele>4.571428571428571</ele><time>2026-04-12T10:02:38.941Z</time></trkpt><trkpt lat="43.5490113" lon="7.0025142"><ele>4.285714285714286</ele><time>2026-04-12T10:02:39.936Z</time></trkpt><trkpt lat="43.5490135" lon="7.002609"><ele>4.0</ele><time>2026-04-12T10:02:40.909Z</time></trkpt><trkpt lat="43.5490211" lon="7.0027835"><ele>4.0</ele><time>2026-04-12T10:02:42.928Z</time></trkpt><trkpt lat="43.5490243" lon="7.0028777"><ele>3.9999999999999996</ele><time>2026-04-12T10:02:43.916Z</time></trkpt><trkpt lat="43.5490308" lon="7.0029709"><ele>4.0</ele><time>2026-04-12T10:02:44.92Z</time></trkpt><trkpt lat="43.5490368" lon="7.0030662"><ele>4.0</ele><time>2026-04-12T10:02:45.918Z</time></trkpt><trkpt lat="43.5490409" lon="7.0031614"><ele>3.9999999999999996</ele><time>2026-04-12T10:02:46.927Z</time></trkpt><trkpt lat="43.5490409" lon="7.003262"><ele>4.0</ele><time>2026-04-12T10:02:47.889Z</time></trkpt><trkpt lat="43.5490481" lon="7.0033534"><ele>4.0</ele><time>2026-04-12T10:02:48.926Z</time></trkpt><trkpt lat="43.5490559" lon="7.0034467"><ele>4.0</ele><time>2026-04-12T10:02:49.907Z</time></trkpt><trkpt lat="43.5490587" lon="7.0035423"><ele>3.9999999999999996</ele><time>2026-04-12T10:02:50.913Z</time></trkpt><trkpt lat="43.5490594" lon="7.0036319"><ele>4.0</ele><time>2026-04-12T10:02:51.899Z</time></trkpt><trkpt lat="43.5490601" lon="7.0037246"><ele>4.0</ele><time>2026-04-12T10:02:52.94Z</time></trkpt><trkpt lat="43.5490605" lon="7.0038181"><ele>3.9999999999999996</ele><time>2026-04-12T10:02:53.926Z</time></trkpt><trkpt lat="43.5490576" lon="7.0039109"><ele>4.0</ele><time>2026-04-12T10:02:54.918Z</time></trkpt><trkpt lat="43.5490539" lon="7.0040017"><ele>4.0</ele><time>2026-04-12T10:02:55.919Z</time></trkpt><trkpt lat="43.5490466" lon="7.0040954"><ele>3.8571428571428568</ele><time>2026-04-12T10:02:56.92Z</time></trkpt><trkpt lat="43.5490325" lon="7.0041857"><ele>3.714285714285714</ele><time>2026-04-12T10:02:57.92Z</time></trkpt><trkpt lat="43.5490248" lon="7.0042768"><ele>3.571428571428571</ele><time>2026-04-12T10:02:58.922Z</time></trkpt><trkpt lat="43.549017" lon="7.0043638"><ele>3.4285714285714284</ele><time>2026-04-12T10:02:59.923Z</time></trkpt><trkpt lat="43.5490098" lon="7.0044552"><ele>3.2857142857142856</ele><time>2026-04-12T10:03:00.896Z</time></trkpt><trkpt lat="43.5490012" lon="7.0045478"><ele>3.1428571428571423</ele><time>2026-04-12T10:03:01.934Z</time></trkpt><trkpt lat="43.548995" lon="7.0046427"><ele>3.0</ele><time>2026-04-12T10:03:02.905Z</time></trkpt><trkpt lat="43.5489877" lon="7.0047342"><ele>2.9999999999999996</ele><time>2026-04-12T10:03:03.93Z</time></trkpt><trkpt lat="43.5489829" lon="7.0048224"><ele>3.0</ele><time>2026-04-12T10:03:04.883Z</time></trkpt><trkpt lat="43.5489722" lon="7.0049123"><ele>3.0</ele><time>2026-04-12T10:03:05.929Z</time></trkpt><trkpt lat="43.5489629" lon="7.0050018"><ele>3.0</ele><time>2026-04-12T10:03:06.909Z</time></trkpt><trkpt lat="43.5489561" lon="7.0050911"><ele>3.0</ele><time>2026-04-12T10:03:07.93Z</time></trkpt><trkpt lat="43.5489467" lon="7.0051814"><ele>2.9999999999999996</ele><time>2026-04-12T10:03:08.919Z</time></trkpt><trkpt lat="43.5489435" lon="7.0052685"><ele>3.0</ele><time>2026-04-12T10:03:09.924Z</time></trkpt><trkpt lat="43.5489373" lon="7.0053597"><ele>3.8571428571428568</ele><time>2026-04-12T10:03:10.916Z</time></trkpt><trkpt lat="43.5489312" lon="7.0054466"><ele>4.714285714285714</ele><time>2026-04-12T10:03:11.914Z</time></trkpt><trkpt lat="43.5489275" lon="7.0055336"><ele>5.571428571428572</ele><time>2026-04-12T10:03:12.913Z</time></trkpt><trkpt lat="43.5489207" lon="7.0056267"><ele>6.428571428571429</ele><time>2026-04-12T10:03:13.929Z</time></trkpt><trkpt lat="43.5489172" lon="7.0057154"><ele>7.285714285714286</ele><time>2026-04-12T10:03:14.921Z</time></trkpt><trkpt lat="43.5489061" lon="7.0058037"><ele>8.142857142857144</ele><time>2026-04-12T10:03:15.919Z</time></trkpt><trkpt lat="43.5488979" lon="7.005891"><ele>9.0</ele><time>2026-04-12T10:03:16.911Z</time></trkpt><trkpt lat="43.5488833" lon="7.0060591"><ele>8.833333333333334</ele><time>2026-04-12T10:03:18.937Z</time></trkpt><trkpt lat="43.5488753" lon="7.0061463"><ele>8.666666666666666</ele><time>2026-04-12T10:03:19.922Z</time></trkpt><trkpt lat="43.5488677" lon="7.0062346"><ele>8.5</ele><time>2026-04-12T10:03:20.914Z</time></trkpt><trkpt lat="43.5488533" lon="7.0064061"><ele>8.333333333333332</ele><time>2026-04-12T10:03:22.908Z</time></trkpt><trkpt lat="43.5488457" lon="7.0064944"><ele>8.166666666666666</ele><time>2026-04-12T10:03:23.911Z</time></trkpt><trkpt lat="43.5488331" lon="7.0066553"><ele>8.0</ele><time>2026-04-12T10:03:25.924Z</time></trkpt><trkpt lat="43.5488206" lon="7.0068171"><ele>8.0</ele><time>2026-04-12T10:03:27.94Z</time></trkpt><trkpt lat="43.5488206" lon="7.006987"><ele>8.0</ele><time>2026-04-12T10:03:29.938Z</time></trkpt><trkpt lat="43.5488212" lon="7.0071502"><ele>8.0</ele><time>2026-04-12T10:03:31.9Z</time></trkpt><trkpt lat="43.5488065" lon="7.0073115"><ele>8.0</ele><time>2026-04-12T10:03:33.88Z</time></trkpt><trkpt lat="43.5487961" lon="7.007471"><ele>8.600000000000001</ele><time>2026-04-12T10:03:35.917Z</time></trkpt><trkpt lat="43.5487992" lon="7.0076183"><ele>9.200000000000001</ele><time>2026-04-12T10:03:37.906Z</time></trkpt><trkpt lat="43.5488435" lon="7.0077486"><ele>9.8</ele><time>2026-04-12T10:03:39.914Z</time></trkpt><trkpt lat="43.5489467" lon="7.0077955"><ele>10.4</ele><time>2026-04-12T10:03:41.91Z</time></trkpt><trkpt lat="43.5490477" lon="7.0077764"><ele>11.0</ele><time>2026-04-12T10:03:43.914Z</time></trkpt><trkpt lat="43.5491373" lon="7.0077497"><ele>11.0</ele><time>2026-04-12T10:03:45.926Z</time></trkpt><trkpt lat="43.5492333" lon="7.007707"><ele>11.0</ele><time>2026-04-12T10:03:47.93Z</time></trkpt><trkpt lat="43.5493244" lon="7.0076456"><ele>11.0</ele><time>2026-04-12T10:03:49.941Z</time></trkpt><trkpt lat="43.5494099" lon="7.007594"><ele>11.0</ele><time>2026-04-12T10:03:51.888Z</time></trkpt><trkpt lat="43.5494616" lon="7.007507"><ele>11.0</ele><time>2026-04-12T10:03:53.886Z</time></trkpt><trkpt lat="43.5494278" lon="7.0074161"><ele>10.5</ele><time>2026-04-12T10:04:13.895Z</time></trkpt><trkpt lat="43.5494913" lon="7.0074752"><ele>10.0</ele><time>2026-04-12T10:04:18.89Z</time></trkpt><trkpt lat="43.5496331" lon="7.0075485"><ele>9.5</ele><time>2026-04-12T10:04:50.336Z</time></trkpt><trkpt lat="43.5496161" lon="7.0076349"><ele>9.0</ele><time>2026-04-12T10:32:08.892Z</time></trkpt><trkpt lat="43.5495783" lon="7.0077136"><ele>8.5</ele><time>2026-04-12T10:32:17.915Z</time></trkpt><trkpt lat="43.5495613" lon="7.0078277"><ele>8.0</ele><time>2026-04-12T10:32:24.886Z</time></trkpt><trkpt lat="43.5495439" lon="7.0079222"><ele>8.0</ele><time>2026-04-12T10:32:26.864Z</time></trkpt><trkpt lat="43.5494744" lon="7.0078811"><ele>8.0</ele><time>2026-04-12T10:32:37.857Z</time></trkpt><trkpt lat="43.5494549" lon="7.0077209"><ele>8.0</ele><time>2026-04-12T10:32:39.866Z</time></trkpt><trkpt lat="43.5495189" lon="7.0076802"><ele>8.0</ele><time>2026-04-12T10:32:41.859Z</time></trkpt><trkpt lat="43.5494873" lon="7.0074762"><ele>8.0</ele><time>2026-04-12T10:33:05.865Z</time></trkpt><trkpt lat="43.5493725" lon="7.00715"><ele>8.0</ele><time>2026-04-12T10:33:06.87Z</time></trkpt><trkpt lat="43.5492354" lon="7.0067801"><ele>8.0</ele><time>2026-04-12T10:33:07.866Z</time></trkpt><trkpt lat="43.5491089" lon="7.0064594"><ele>8.333333333333332</ele><time>2026-04-12T10:33:08.872Z</time></trkpt><trkpt lat="43.5489847" lon="7.0061642"><ele>8.666666666666666</ele><time>2026-04-12T10:33:09.86Z</time></trkpt><trkpt lat="43.5488953" lon="7.0059452"><ele>9.0</ele><time>2026-04-12T10:33:10.864Z</time></trkpt><trkpt lat="43.5488021" lon="7.0057219"><ele>9.0</ele><time>2026-04-12T10:33:11.865Z</time></trkpt><trkpt lat="43.5487307" lon="7.0055651"><ele>9.0</ele><time>2026-04-12T10:33:12.857Z</time></trkpt><trkpt lat="43.5486399" lon="7.0053669"><ele>9.0</ele><time>2026-04-12T10:33:13.86Z</time></trkpt><trkpt lat="43.5485978" lon="7.0052925"><ele>9.0</ele><time>2026-04-12T10:33:14.856Z</time></trkpt><trkpt lat="43.5485421" lon="7.0052093"><ele>7.4</ele><time>2026-04-12T10:33:15.854Z</time></trkpt><trkpt lat="43.5484873" lon="7.0051216"><ele>5.800000000000001</ele><time>2026-04-12T10:33:16.857Z</time></trkpt><trkpt lat="43.5484471" lon="7.0050542"><ele>4.2</ele><time>2026-04-12T10:33:17.861Z</time></trkpt><trkpt lat="43.5483762" lon="7.0047514"><ele>2.6</ele><time>2026-04-12T10:33:23.854Z</time></trkpt><trkpt lat="43.5483726" lon="7.0046571"><ele>1.0</ele><time>2026-04-12T10:33:25.87Z</time></trkpt><trkpt lat="43.548416" lon="7.0045751"><ele>1.0</ele><time>2026-04-12T10:33:38.855Z</time></trkpt><trkpt lat="43.5485015" lon="7.0044845"><ele>1.0</ele><time>2026-04-12T10:33:40.855Z</time></trkpt><trkpt lat="43.5485891" lon="7.0044166"><ele>1.0</ele><time>2026-04-12T10:33:42.862Z</time></trkpt><trkpt lat="43.5486605" lon="7.0044138"><ele>1.0</ele><time>2026-04-12T10:33:44.849Z</time></trkpt><trkpt lat="43.548729" lon="7.0044538"><ele>1.0</ele><time>2026-04-12T10:33:46.862Z</time></trkpt><trkpt lat="43.5488114" lon="7.004547"><ele>1.5</ele><time>2026-04-12T10:33:48.855Z</time></trkpt><trkpt lat="43.5488661" lon="7.004606"><ele>2.0</ele><time>2026-04-12T10:33:49.859Z</time></trkpt><trkpt lat="43.5489228" lon="7.0046577"><ele>2.5</ele><time>2026-04-12T10:33:50.863Z</time></trkpt><trkpt lat="43.5490038" lon="7.0047434"><ele>3.0</ele><time>2026-04-12T10:33:52.857Z</time></trkpt><trkpt lat="43.5489805" lon="7.0051028"><ele>4.0</ele><time>2026-04-12T10:34:10.854Z</time></trkpt><trkpt lat="43.5489964" lon="7.0052178"><ele>5.0</ele><time>2026-04-12T10:34:14.869Z</time></trkpt><trkpt lat="43.5490394" lon="7.0053023"><ele>6.0</ele><time>2026-04-12T10:34:17.862Z</time></trkpt><trkpt lat="43.5490932" lon="7.0053752"><ele>7.0</ele><time>2026-04-12T10:34:21.863Z</time></trkpt><trkpt lat="43.5491054" lon="7.0054779"><ele>8.0</ele><time>2026-04-12T10:34:24.86Z</time></trkpt><trkpt lat="43.5491004" lon="7.0055944"><ele>9.0</ele><time>2026-04-12T10:34:28.865Z</time></trkpt><trkpt lat="43.5491594" lon="7.005668"><ele>9.0</ele><time>2026-04-12T10:34:31.857Z</time></trkpt><trkpt lat="43.5492334" lon="7.0057394"><ele>9.0</ele><time>2026-04-12T10:34:33.859Z</time></trkpt><trkpt lat="43.5493013" lon="7.0058156"><ele>9.0</ele><time>2026-04-12T10:34:35.866Z</time></trkpt><trkpt lat="43.5493951" lon="7.0059502"><ele>9.0</ele><time>2026-04-12T10:34:37.854Z</time></trkpt><trkpt lat="43.5494543" lon="7.0060747"><ele>9.0</ele><time>2026-04-12T10:34:39.859Z</time></trkpt><trkpt lat="43.5494928" lon="7.0061667"><ele>9.666666666666666</ele><time>2026-04-12T10:34:41.863Z</time></trkpt><trkpt lat="43.5495271" lon="7.0062747"><ele>10.333333333333332</ele><time>2026-04-12T10:34:43.867Z</time></trkpt><trkpt lat="43.5495478" lon="7.0064057"><ele>11.0</ele><time>2026-04-12T10:34:45.862Z</time></trkpt><trkpt lat="43.549575" lon="7.0065348"><ele>11.666666666666666</ele><time>2026-04-12T10:34:47.868Z</time></trkpt><trkpt lat="43.5495951" lon="7.0066335"><ele>12.333333333333332</ele><time>2026-04-12T10:34:49.867Z</time></trkpt><trkpt lat="43.5496082" lon="7.006722"><ele>13.0</ele><time>2026-04-12T10:34:51.868Z</time></trkpt><trkpt lat="43.5496104" lon="7.0068639"><ele>12.999999999999998</ele><time>2026-04-12T10:34:54.873Z</time></trkpt><trkpt lat="43.549607" lon="7.0070138"><ele>13.0</ele><time>2026-04-12T10:34:56.859Z</time></trkpt><trkpt lat="43.5495926" lon="7.0071027"><ele>13.0</ele><time>2026-04-12T10:34:57.86Z</time></trkpt><trkpt lat="43.5495721" lon="7.0071942"><ele>13.0</ele><time>2026-04-12T10:34:58.861Z</time></trkpt><trkpt lat="43.5495659" lon="7.0073104"><ele>12.999999999999998</ele><time>2026-04-12T10:35:00.857Z</time></trkpt><trkpt lat="43.5494675" lon="7.0072159"><ele>13.0</ele><time>2026-04-12T10:35:06.86Z</time></trkpt><trkpt lat="43.5493732" lon="7.0072302"><ele>13.0</ele><time>2026-04-12T10:35:12.734Z</time></trkpt><trkpt lat="43.5496042" lon="7.0067224"><ele>13.0</ele><time>2026-04-12T10:35:17.858Z</time></trkpt><trkpt lat="43.5495411" lon="7.0066365"><ele>13.0</ele><time>2026-04-12T10:35:18.866Z</time></trkpt><trkpt lat="43.5495317" lon="7.006537"><ele>13.0</ele><time>2026-04-12T10:35:21.868Z</time></trkpt><trkpt lat="43.5495584" lon="7.006455"><ele>13.0</ele><time>2026-04-12T10:35:23.855Z</time></trkpt><trkpt lat="43.5496026" lon="7.006387"><ele>13.0</ele><time>2026-04-12T10:35:26.87Z</time></trkpt><trkpt lat="43.5495977" lon="7.0065093"><ele>13.0</ele><time>2026-04-12T10:35:30.858Z</time></trkpt><trkpt lat="43.5495554" lon="7.006599"><ele>13.0</ele><time>2026-04-12T10:35:35.853Z</time></trkpt><trkpt lat="43.5495458" lon="7.0067059"><ele>13.0</ele><time>2026-04-12T10:35:37.855Z</time></trkpt><trkpt lat="43.5495446" lon="7.0068404"><ele>13.0</ele><time>2026-04-12T10:35:38.856Z</time></trkpt><trkpt lat="43.5495474" lon="7.0069656"><ele>13.0</ele><time>2026-04-12T10:35:39.86Z</time></trkpt><trkpt lat="43.5495494" lon="7.0071197"><ele>13.0</ele><time>2026-04-12T10:35:40.857Z</time></trkpt><trkpt lat="43.5495622" lon="7.0072502"><ele>13.0</ele><time>2026-04-12T10:35:41.856Z</time></trkpt><trkpt lat="43.5495767" lon="7.0073749"><ele>13.0</ele><time>2026-04-12T10:35:42.864Z</time></trkpt><trkpt lat="43.5495896" lon="7.0074974"><ele>13.0</ele><time>2026-04-12T10:35:43.86Z</time></trkpt><trkpt lat="43.549609" lon="7.0076432"><ele>13.0</ele><time>2026-04-12T10:35:45.861Z</time></trkpt><trkpt lat="43.5495985" lon="7.0077379"><ele>13.0</ele><time>2026-04-12T10:35:52.86Z</time></trkpt><trkpt lat="43.5495843" lon="7.0075537"><ele>13.0</ele><time>2026-04-12T10:35:56.858Z</time></trkpt><trkpt lat="43.5495653" lon="7.0074618"><ele>13.0</ele><time>2026-04-12T10:35:57.816Z</time></trkpt><trkpt lat="43.5495249" lon="7.0072855"><ele>12.166666666666666</ele><time>2026-04-12T10:35:58.858Z</time></trkpt><trkpt lat="43.5494945" lon="7.0071992"><ele>11.333333333333332</ele><time>2026-04-12T10:35:59.862Z</time></trkpt><trkpt lat="43.5494734" lon="7.0071116"><ele>10.5</ele><time>2026-04-12T10:36:00.861Z</time></trkpt><trkpt lat="43.5494503" lon="7.0069583"><ele>9.666666666666666</ele><time>2026-04-12T10:36:02.86Z</time></trkpt><trkpt lat="43.5494793" lon="7.0070682"><ele>8.833333333333332</ele><time>2026-04-12T10:36:08.859Z</time></trkpt><trkpt lat="43.5494993" lon="7.007154"><ele>8.0</ele><time>2026-04-12T10:36:24.868Z</time></trkpt><trkpt lat="43.5494897" lon="7.0072437"><ele>10.5</ele><time>2026-04-12T10:36:30.863Z</time></trkpt><trkpt lat="43.5498656" lon="7.0073079"><ele>13.0</ele><time>2026-04-12T10:37:30.861Z</time></trkpt><trkpt lat="43.5500209" lon="7.0073443"><ele>13.0</ele><time>2026-04-12T10:37:31.857Z</time></trkpt><trkpt lat="43.5501336" lon="7.0073791"><ele>13.0</ele><time>2026-04-12T10:37:32.858Z</time></trkpt><trkpt lat="43.5502258" lon="7.00741"><ele>13.0</ele><time>2026-04-12T10:37:33.87Z</time></trkpt><trkpt lat="43.550333" lon="7.0074733"><ele>13.0</ele><time>2026-04-12T10:37:35.863Z</time></trkpt><trkpt lat="43.5504206" lon="7.007576"><ele>13.0</ele><time>2026-04-12T10:37:37.878Z</time></trkpt><trkpt lat="43.5504682" lon="7.0076982"><ele>16.0</ele><time>2026-04-12T10:37:39.811Z</time></trkpt><trkpt lat="43.5508765" lon="7.0080633"><ele>15.0</ele><time>2026-04-12T10:37:49.38Z</time></trkpt><trkpt lat="43.549683" lon="7.007631"><ele>15.0</ele><time>2026-04-12T10:37:55.919Z</time></trkpt><trkpt lat="43.5495782" lon="7.0076084"><ele>15.0</ele><time>2026-04-12T10:38:02.451Z</time></trkpt><trkpt lat="43.549539" lon="7.008161"><ele>11.0</ele><time>2026-04-12T10:39:22.866Z</time></trkpt></trkseg></trk></gpx>